<?xml version="1.0" encoding="UTF-8" standalone="no" ?>
<gpx xmlns="http://www.topografix.com/GPX/1/1" xmlns:xsi="http://www.w3.org/2001/XMLSchema-instance" xsi:schemaLocation="http://www.topografix.com/GPX/1/1 http://www.topografix.com/GPX/1/1/gpx.xsd" version="1.1" creator="VisuGPX - https://www.visugpx.com">
  <metadata>
    <name>Sortie à vélo Vinay</name>
  </metadata>
  <trk>
    <name><![CDATA[Sortie à vélo]]></name>
    <trkseg>
      <trkpt lat="45.24607" lon="5.62908">
        <ele>267.331188</ele>
        <time>2022-10-04T06:30:43.503Z</time>
      </trkpt>
      <trkpt lat="45.24609" lon="5.62879">
        <ele>267.331188</ele>
        <time>2022-10-04T06:30:43.818Z</time>
      </trkpt>
      <trkpt lat="45.24614" lon="5.62894">
        <ele>267.331188</ele>
        <time>2022-10-04T06:30:44.817Z</time>
      </trkpt>
      <trkpt lat="45.24607" lon="5.6288">
        <ele>267.331188</ele>
        <time>2022-10-04T06:30:48.147Z</time>
      </trkpt>
      <trkpt lat="45.24607" lon="5.62895">
        <ele>267.331188</ele>
        <time>2022-10-04T06:31:29.152Z</time>
      </trkpt>
      <trkpt lat="45.24601" lon="5.62909">
        <ele>267.331188</ele>
        <time>2022-10-04T06:31:33.150Z</time>
      </trkpt>
      <trkpt lat="45.24596" lon="5.62924">
        <ele>267.331188</ele>
        <time>2022-10-04T06:31:36.147Z</time>
      </trkpt>
      <trkpt lat="45.24592" lon="5.62936">
        <ele>267.331188</ele>
        <time>2022-10-04T06:31:38.147Z</time>
      </trkpt>
      <trkpt lat="45.24586" lon="5.62949">
        <ele>266.910458</ele>
        <time>2022-10-04T06:31:40.149Z</time>
      </trkpt>
      <trkpt lat="45.24581" lon="5.62964">
        <ele>266.306358</ele>
        <time>2022-10-04T06:31:42.151Z</time>
      </trkpt>
      <trkpt lat="45.24575" lon="5.62978">
        <ele>265.657692</ele>
        <time>2022-10-04T06:31:44.141Z</time>
      </trkpt>
      <trkpt lat="45.24569" lon="5.62993">
        <ele>264.966381</ele>
        <time>2022-10-04T06:31:46.146Z</time>
      </trkpt>
      <trkpt lat="45.24562" lon="5.6301">
        <ele>264.242458</ele>
        <time>2022-10-04T06:31:48.143Z</time>
      </trkpt>
      <trkpt lat="45.24557" lon="5.63026">
        <ele>263.556994</ele>
        <time>2022-10-04T06:31:50.154Z</time>
      </trkpt>
      <trkpt lat="45.24551" lon="5.6304">
        <ele>262.910452</ele>
        <time>2022-10-04T06:31:52.144Z</time>
      </trkpt>
      <trkpt lat="45.24546" lon="5.63055">
        <ele>262.275223</ele>
        <time>2022-10-04T06:31:54.150Z</time>
      </trkpt>
      <trkpt lat="45.24538" lon="5.63068">
        <ele>261.601681</ele>
        <time>2022-10-04T06:31:56.142Z</time>
      </trkpt>
      <trkpt lat="45.24528" lon="5.6308">
        <ele>260.869474</ele>
        <time>2022-10-04T06:31:58.148Z</time>
      </trkpt>
      <trkpt lat="45.24516" lon="5.63089">
        <ele>260.13095</ele>
        <time>2022-10-04T06:32:00.145Z</time>
      </trkpt>
      <trkpt lat="45.24502" lon="5.63098">
        <ele>259.318982</ele>
        <time>2022-10-04T06:32:02.148Z</time>
      </trkpt>
      <trkpt lat="45.24489" lon="5.63108">
        <ele>258.500299</ele>
        <time>2022-10-04T06:32:04.149Z</time>
      </trkpt>
      <trkpt lat="45.24475" lon="5.63117">
        <ele>257.668468</ele>
        <time>2022-10-04T06:32:06.143Z</time>
      </trkpt>
      <trkpt lat="45.24461" lon="5.63123">
        <ele>256.891878</ele>
        <time>2022-10-04T06:32:08.142Z</time>
      </trkpt>
      <trkpt lat="45.24445" lon="5.63124">
        <ele>256.107832</ele>
        <time>2022-10-04T06:32:10.149Z</time>
      </trkpt>
      <trkpt lat="45.24431" lon="5.63126">
        <ele>255.423054</ele>
        <time>2022-10-04T06:32:12.153Z</time>
      </trkpt>
      <trkpt lat="45.24418" lon="5.63124">
        <ele>254.767914</ele>
        <time>2022-10-04T06:32:14.151Z</time>
      </trkpt>
      <trkpt lat="45.24405" lon="5.63126">
        <ele>254.13044</ele>
        <time>2022-10-04T06:32:16.148Z</time>
      </trkpt>
      <trkpt lat="45.24393" lon="5.63134">
        <ele>253.453857</ele>
        <time>2022-10-04T06:32:18.148Z</time>
      </trkpt>
      <trkpt lat="45.24383" lon="5.63147">
        <ele>252.765807</ele>
        <time>2022-10-04T06:32:20.148Z</time>
      </trkpt>
      <trkpt lat="45.24373" lon="5.63158">
        <ele>252.163572</ele>
        <time>2022-10-04T06:32:22.156Z</time>
      </trkpt>
      <trkpt lat="45.24367" lon="5.63172">
        <ele>251.57401</ele>
        <time>2022-10-04T06:32:24.146Z</time>
      </trkpt>
      <trkpt lat="45.24369" lon="5.6319">
        <ele>250.947783</ele>
        <time>2022-10-04T06:32:27.154Z</time>
      </trkpt>
      <trkpt lat="45.24374" lon="5.63206">
        <ele>250.342048</ele>
        <time>2022-10-04T06:32:30.161Z</time>
      </trkpt>
      <trkpt lat="45.24384" lon="5.63238">
        <ele>249.103816</ele>
        <time>2022-10-04T06:32:56.163Z</time>
      </trkpt>
      <trkpt lat="45.24388" lon="5.63251">
        <ele>248.60149</ele>
        <time>2022-10-04T06:32:58.148Z</time>
      </trkpt>
      <trkpt lat="45.24391" lon="5.63264">
        <ele>248.295293</ele>
        <time>2022-10-04T06:33:00.149Z</time>
      </trkpt>
      <trkpt lat="45.24395" lon="5.63277">
        <ele>248.036693</ele>
        <time>2022-10-04T06:33:02.155Z</time>
      </trkpt>
      <trkpt lat="45.24398" lon="5.63289">
        <ele>247.793583</ele>
        <time>2022-10-04T06:33:04.147Z</time>
      </trkpt>
      <trkpt lat="45.24401" lon="5.63303">
        <ele>247.523733</ele>
        <time>2022-10-04T06:33:06.145Z</time>
      </trkpt>
      <trkpt lat="45.24405" lon="5.63319">
        <ele>247.224596</ele>
        <time>2022-10-04T06:33:08.147Z</time>
      </trkpt>
      <trkpt lat="45.24409" lon="5.63334">
        <ele>246.912246</ele>
        <time>2022-10-04T06:33:10.147Z</time>
      </trkpt>
      <trkpt lat="45.24414" lon="5.6335">
        <ele>246.596946</ele>
        <time>2022-10-04T06:33:12.140Z</time>
      </trkpt>
      <trkpt lat="45.24418" lon="5.63365">
        <ele>246.295912</ele>
        <time>2022-10-04T06:33:14.143Z</time>
      </trkpt>
      <trkpt lat="45.24422" lon="5.63379">
        <ele>246.014302</ele>
        <time>2022-10-04T06:33:16.143Z</time>
      </trkpt>
      <trkpt lat="45.24425" lon="5.63394">
        <ele>245.731945</ele>
        <time>2022-10-04T06:33:18.142Z</time>
      </trkpt>
      <trkpt lat="45.24428" lon="5.63406">
        <ele>245.48792</ele>
        <time>2022-10-04T06:33:20.146Z</time>
      </trkpt>
      <trkpt lat="45.24431" lon="5.63419">
        <ele>245.241187</ele>
        <time>2022-10-04T06:33:22.144Z</time>
      </trkpt>
      <trkpt lat="45.24433" lon="5.63431">
        <ele>244.998466</ele>
        <time>2022-10-04T06:33:24.142Z</time>
      </trkpt>
      <trkpt lat="45.24435" lon="5.63445">
        <ele>244.74601</ele>
        <time>2022-10-04T06:33:28.148Z</time>
      </trkpt>
      <trkpt lat="45.24438" lon="5.6346">
        <ele>244.444381</ele>
        <time>2022-10-04T06:33:32.157Z</time>
      </trkpt>
      <trkpt lat="45.24443" lon="5.63474">
        <ele>244.165185</ele>
        <time>2022-10-04T06:33:35.147Z</time>
      </trkpt>
      <trkpt lat="45.24448" lon="5.6349">
        <ele>243.836156</ele>
        <time>2022-10-04T06:33:38.144Z</time>
      </trkpt>
      <trkpt lat="45.24452" lon="5.63503">
        <ele>243.684416</ele>
        <time>2022-10-04T06:33:40.147Z</time>
      </trkpt>
      <trkpt lat="45.24455" lon="5.63517">
        <ele>243.556439</ele>
        <time>2022-10-04T06:33:42.147Z</time>
      </trkpt>
      <trkpt lat="45.24458" lon="5.63533">
        <ele>243.419062</ele>
        <time>2022-10-04T06:33:44.149Z</time>
      </trkpt>
      <trkpt lat="45.24462" lon="5.63547">
        <ele>243.290226</ele>
        <time>2022-10-04T06:33:46.144Z</time>
      </trkpt>
      <trkpt lat="45.24466" lon="5.63562">
        <ele>243.152627</ele>
        <time>2022-10-04T06:33:48.146Z</time>
      </trkpt>
      <trkpt lat="45.2447" lon="5.63579">
        <ele>243.001521</ele>
        <time>2022-10-04T06:33:50.146Z</time>
      </trkpt>
      <trkpt lat="45.24474" lon="5.63594">
        <ele>242.864282</ele>
        <time>2022-10-04T06:33:52.150Z</time>
      </trkpt>
      <trkpt lat="45.24478" lon="5.63609">
        <ele>242.727969</ele>
        <time>2022-10-04T06:33:54.159Z</time>
      </trkpt>
      <trkpt lat="45.24481" lon="5.63625">
        <ele>242.586045</ele>
        <time>2022-10-04T06:33:56.143Z</time>
      </trkpt>
      <trkpt lat="45.24485" lon="5.6364">
        <ele>242.452141</ele>
        <time>2022-10-04T06:33:58.148Z</time>
      </trkpt>
      <trkpt lat="45.24489" lon="5.63656">
        <ele>242.309444</ele>
        <time>2022-10-04T06:34:00.148Z</time>
      </trkpt>
      <trkpt lat="45.24493" lon="5.63673">
        <ele>242.160327</ele>
        <time>2022-10-04T06:34:02.155Z</time>
      </trkpt>
      <trkpt lat="45.24498" lon="5.63688">
        <ele>242.014487</ele>
        <time>2022-10-04T06:34:04.145Z</time>
      </trkpt>
      <trkpt lat="45.24502" lon="5.63704">
        <ele>241.867557</ele>
        <time>2022-10-04T06:34:06.148Z</time>
      </trkpt>
      <trkpt lat="45.24505" lon="5.6372">
        <ele>241.729034</ele>
        <time>2022-10-04T06:34:08.145Z</time>
      </trkpt>
      <trkpt lat="45.2451" lon="5.63735">
        <ele>241.59904</ele>
        <time>2022-10-04T06:34:10.148Z</time>
      </trkpt>
      <trkpt lat="45.24514" lon="5.6375">
        <ele>241.52848</ele>
        <time>2022-10-04T06:34:12.153Z</time>
      </trkpt>
      <trkpt lat="45.24518" lon="5.63765">
        <ele>241.459521</ele>
        <time>2022-10-04T06:34:14.144Z</time>
      </trkpt>
      <trkpt lat="45.24522" lon="5.63781">
        <ele>241.388222</ele>
        <time>2022-10-04T06:34:16.151Z</time>
      </trkpt>
      <trkpt lat="45.24526" lon="5.63796">
        <ele>241.317646</ele>
        <time>2022-10-04T06:34:18.146Z</time>
      </trkpt>
      <trkpt lat="45.24531" lon="5.63813">
        <ele>241.241448</ele>
        <time>2022-10-04T06:34:20.149Z</time>
      </trkpt>
      <trkpt lat="45.24535" lon="5.63829">
        <ele>241.165778</ele>
        <time>2022-10-04T06:34:22.145Z</time>
      </trkpt>
      <trkpt lat="45.24539" lon="5.63845">
        <ele>241.092808</ele>
        <time>2022-10-04T06:34:24.142Z</time>
      </trkpt>
      <trkpt lat="45.24543" lon="5.63862">
        <ele>241.01964</ele>
        <time>2022-10-04T06:34:26.144Z</time>
      </trkpt>
      <trkpt lat="45.24547" lon="5.63879">
        <ele>240.942223</ele>
        <time>2022-10-04T06:34:28.145Z</time>
      </trkpt>
      <trkpt lat="45.24551" lon="5.63895">
        <ele>240.867528</ele>
        <time>2022-10-04T06:34:30.155Z</time>
      </trkpt>
      <trkpt lat="45.24556" lon="5.63911">
        <ele>240.794558</ele>
        <time>2022-10-04T06:34:32.145Z</time>
      </trkpt>
      <trkpt lat="45.2456" lon="5.63928">
        <ele>240.715707</ele>
        <time>2022-10-04T06:34:34.146Z</time>
      </trkpt>
      <trkpt lat="45.24564" lon="5.63946">
        <ele>240.63767</ele>
        <time>2022-10-04T06:34:36.150Z</time>
      </trkpt>
      <trkpt lat="45.24568" lon="5.63963">
        <ele>240.558434</ele>
        <time>2022-10-04T06:34:38.147Z</time>
      </trkpt>
      <trkpt lat="45.24572" lon="5.63979">
        <ele>240.521553</ele>
        <time>2022-10-04T06:34:40.142Z</time>
      </trkpt>
      <trkpt lat="45.24576" lon="5.63995">
        <ele>240.563153</ele>
        <time>2022-10-04T06:34:42.159Z</time>
      </trkpt>
      <trkpt lat="45.2458" lon="5.64011">
        <ele>240.60374</ele>
        <time>2022-10-04T06:34:44.143Z</time>
      </trkpt>
      <trkpt lat="45.24584" lon="5.64028">
        <ele>240.645336</ele>
        <time>2022-10-04T06:34:46.146Z</time>
      </trkpt>
      <trkpt lat="45.24588" lon="5.64044">
        <ele>240.687268</ele>
        <time>2022-10-04T06:34:48.140Z</time>
      </trkpt>
      <trkpt lat="45.24592" lon="5.64061">
        <ele>240.730332</ele>
        <time>2022-10-04T06:34:50.151Z</time>
      </trkpt>
      <trkpt lat="45.24596" lon="5.64078">
        <ele>240.772053</ele>
        <time>2022-10-04T06:34:52.161Z</time>
      </trkpt>
      <trkpt lat="45.246" lon="5.64093">
        <ele>240.811507</ele>
        <time>2022-10-04T06:34:54.150Z</time>
      </trkpt>
      <trkpt lat="45.24604" lon="5.6411">
        <ele>240.853378</ele>
        <time>2022-10-04T06:34:56.145Z</time>
      </trkpt>
      <trkpt lat="45.24608" lon="5.64126">
        <ele>240.893071</ele>
        <time>2022-10-04T06:34:58.142Z</time>
      </trkpt>
      <trkpt lat="45.24612" lon="5.64142">
        <ele>240.93367</ele>
        <time>2022-10-04T06:35:00.145Z</time>
      </trkpt>
      <trkpt lat="45.24615" lon="5.64158">
        <ele>240.975511</ele>
        <time>2022-10-04T06:35:02.145Z</time>
      </trkpt>
      <trkpt lat="45.2462" lon="5.64174">
        <ele>241.016945</ele>
        <time>2022-10-04T06:35:04.145Z</time>
      </trkpt>
      <trkpt lat="45.24624" lon="5.6419">
        <ele>241.056286</ele>
        <time>2022-10-04T06:35:06.152Z</time>
      </trkpt>
      <trkpt lat="45.24628" lon="5.64206">
        <ele>241.098254</ele>
        <time>2022-10-04T06:35:08.148Z</time>
      </trkpt>
      <trkpt lat="45.24633" lon="5.64223">
        <ele>241.137471</ele>
        <time>2022-10-04T06:35:10.142Z</time>
      </trkpt>
      <trkpt lat="45.24637" lon="5.64238">
        <ele>241.171897</ele>
        <time>2022-10-04T06:35:12.164Z</time>
      </trkpt>
      <trkpt lat="45.2464" lon="5.64254">
        <ele>241.205374</ele>
        <time>2022-10-04T06:35:14.142Z</time>
      </trkpt>
      <trkpt lat="45.24644" lon="5.64271">
        <ele>241.242732</ele>
        <time>2022-10-04T06:35:16.143Z</time>
      </trkpt>
      <trkpt lat="45.24648" lon="5.64288">
        <ele>241.280001</ele>
        <time>2022-10-04T06:35:18.160Z</time>
      </trkpt>
      <trkpt lat="45.24652" lon="5.64306">
        <ele>241.318516</ele>
        <time>2022-10-04T06:35:20.148Z</time>
      </trkpt>
      <trkpt lat="45.24656" lon="5.64323">
        <ele>241.356254</ele>
        <time>2022-10-04T06:35:22.143Z</time>
      </trkpt>
      <trkpt lat="45.2466" lon="5.64341">
        <ele>241.394087</ele>
        <time>2022-10-04T06:35:24.155Z</time>
      </trkpt>
      <trkpt lat="45.24665" lon="5.64357">
        <ele>241.429984</ele>
        <time>2022-10-04T06:35:26.151Z</time>
      </trkpt>
      <trkpt lat="45.24669" lon="5.64374">
        <ele>241.466939</ele>
        <time>2022-10-04T06:35:28.140Z</time>
      </trkpt>
      <trkpt lat="45.24673" lon="5.6439">
        <ele>241.502937</ele>
        <time>2022-10-04T06:35:30.157Z</time>
      </trkpt>
      <trkpt lat="45.24677" lon="5.64407">
        <ele>241.539117</ele>
        <time>2022-10-04T06:35:32.143Z</time>
      </trkpt>
      <trkpt lat="45.24681" lon="5.64425">
        <ele>241.578218</ele>
        <time>2022-10-04T06:35:34.145Z</time>
      </trkpt>
      <trkpt lat="45.24685" lon="5.64441">
        <ele>241.614005</ele>
        <time>2022-10-04T06:35:36.156Z</time>
      </trkpt>
      <trkpt lat="45.2469" lon="5.64459">
        <ele>241.685664</ele>
        <time>2022-10-04T06:35:38.165Z</time>
      </trkpt>
      <trkpt lat="45.24694" lon="5.64476">
        <ele>241.953706</ele>
        <time>2022-10-04T06:35:40.151Z</time>
      </trkpt>
      <trkpt lat="45.24698" lon="5.64492">
        <ele>242.199751</ele>
        <time>2022-10-04T06:35:42.155Z</time>
      </trkpt>
      <trkpt lat="45.24702" lon="5.64509">
        <ele>242.461492</ele>
        <time>2022-10-04T06:35:44.148Z</time>
      </trkpt>
      <trkpt lat="45.24706" lon="5.64525">
        <ele>242.710222</ele>
        <time>2022-10-04T06:35:46.150Z</time>
      </trkpt>
      <trkpt lat="45.2471" lon="5.6454">
        <ele>242.948692</ele>
        <time>2022-10-04T06:35:48.150Z</time>
      </trkpt>
      <trkpt lat="45.24715" lon="5.64556">
        <ele>243.191206</ele>
        <time>2022-10-04T06:35:50.150Z</time>
      </trkpt>
      <trkpt lat="45.24719" lon="5.64571">
        <ele>243.42623</ele>
        <time>2022-10-04T06:35:52.143Z</time>
      </trkpt>
      <trkpt lat="45.24722" lon="5.64587">
        <ele>243.66984</ele>
        <time>2022-10-04T06:35:54.159Z</time>
      </trkpt>
      <trkpt lat="45.24726" lon="5.64604">
        <ele>243.926104</ele>
        <time>2022-10-04T06:35:56.144Z</time>
      </trkpt>
      <trkpt lat="45.24731" lon="5.6462">
        <ele>244.185274</ele>
        <time>2022-10-04T06:35:58.142Z</time>
      </trkpt>
      <trkpt lat="45.24736" lon="5.64635">
        <ele>244.428582</ele>
        <time>2022-10-04T06:36:00.154Z</time>
      </trkpt>
      <trkpt lat="45.2474" lon="5.64652">
        <ele>244.683478</ele>
        <time>2022-10-04T06:36:02.145Z</time>
      </trkpt>
      <trkpt lat="45.24744" lon="5.64668">
        <ele>244.93244</ele>
        <time>2022-10-04T06:36:04.146Z</time>
      </trkpt>
      <trkpt lat="45.24747" lon="5.64684">
        <ele>245.175724</ele>
        <time>2022-10-04T06:36:06.152Z</time>
      </trkpt>
      <trkpt lat="45.24752" lon="5.647">
        <ele>245.402554</ele>
        <time>2022-10-04T06:36:08.148Z</time>
      </trkpt>
      <trkpt lat="45.24756" lon="5.64715">
        <ele>245.566194</ele>
        <time>2022-10-04T06:36:10.143Z</time>
      </trkpt>
      <trkpt lat="45.24759" lon="5.64729">
        <ele>245.71879</ele>
        <time>2022-10-04T06:36:12.146Z</time>
      </trkpt>
      <trkpt lat="45.24762" lon="5.64743">
        <ele>245.870602</ele>
        <time>2022-10-04T06:36:14.150Z</time>
      </trkpt>
      <trkpt lat="45.24767" lon="5.6476">
        <ele>246.054525</ele>
        <time>2022-10-04T06:36:17.144Z</time>
      </trkpt>
      <trkpt lat="45.24772" lon="5.64773">
        <ele>246.207026</ele>
        <time>2022-10-04T06:36:20.151Z</time>
      </trkpt>
      <trkpt lat="45.24781" lon="5.64782">
        <ele>246.36261</ele>
        <time>2022-10-04T06:36:25.148Z</time>
      </trkpt>
      <trkpt lat="45.24791" lon="5.64776">
        <ele>246.521111</ele>
        <time>2022-10-04T06:36:28.139Z</time>
      </trkpt>
      <trkpt lat="45.24799" lon="5.64769">
        <ele>246.653076</ele>
        <time>2022-10-04T06:36:30.148Z</time>
      </trkpt>
      <trkpt lat="45.24807" lon="5.6476">
        <ele>246.804516</ele>
        <time>2022-10-04T06:36:32.148Z</time>
      </trkpt>
      <trkpt lat="45.24815" lon="5.64749">
        <ele>246.962263</ele>
        <time>2022-10-04T06:36:34.140Z</time>
      </trkpt>
      <trkpt lat="45.24823" lon="5.64738">
        <ele>247.12775</ele>
        <time>2022-10-04T06:36:36.152Z</time>
      </trkpt>
      <trkpt lat="45.24832" lon="5.64726">
        <ele>247.301585</ele>
        <time>2022-10-04T06:36:38.148Z</time>
      </trkpt>
      <trkpt lat="45.24841" lon="5.64716">
        <ele>247.465255</ele>
        <time>2022-10-04T06:36:40.140Z</time>
      </trkpt>
      <trkpt lat="45.24851" lon="5.64705">
        <ele>247.645569</ele>
        <time>2022-10-04T06:36:42.147Z</time>
      </trkpt>
      <trkpt lat="45.24861" lon="5.64694">
        <ele>247.831256</ele>
        <time>2022-10-04T06:36:44.143Z</time>
      </trkpt>
      <trkpt lat="45.2487" lon="5.64681">
        <ele>247.993627</ele>
        <time>2022-10-04T06:36:46.144Z</time>
      </trkpt>
      <trkpt lat="45.2488" lon="5.64667">
        <ele>248.120506</ele>
        <time>2022-10-04T06:36:48.149Z</time>
      </trkpt>
      <trkpt lat="45.24891" lon="5.64653">
        <ele>248.246893</ele>
        <time>2022-10-04T06:36:50.147Z</time>
      </trkpt>
      <trkpt lat="45.24901" lon="5.6464">
        <ele>248.362358</ele>
        <time>2022-10-04T06:36:52.147Z</time>
      </trkpt>
      <trkpt lat="45.24911" lon="5.64627">
        <ele>248.482218</ele>
        <time>2022-10-04T06:36:54.149Z</time>
      </trkpt>
      <trkpt lat="45.2492" lon="5.64613">
        <ele>248.603389</ele>
        <time>2022-10-04T06:36:56.144Z</time>
      </trkpt>
      <trkpt lat="45.24931" lon="5.646">
        <ele>248.722063</ele>
        <time>2022-10-04T06:36:58.148Z</time>
      </trkpt>
      <trkpt lat="45.2494" lon="5.64589">
        <ele>248.831728</ele>
        <time>2022-10-04T06:37:00.151Z</time>
      </trkpt>
      <trkpt lat="45.24948" lon="5.64576">
        <ele>248.935733</ele>
        <time>2022-10-04T06:37:02.145Z</time>
      </trkpt>
      <trkpt lat="45.24957" lon="5.64563">
        <ele>249.049033</ele>
        <time>2022-10-04T06:37:04.140Z</time>
      </trkpt>
      <trkpt lat="45.24967" lon="5.6455">
        <ele>249.16617</ele>
        <time>2022-10-04T06:37:06.154Z</time>
      </trkpt>
      <trkpt lat="45.24977" lon="5.64538">
        <ele>249.283235</ele>
        <time>2022-10-04T06:37:08.150Z</time>
      </trkpt>
      <trkpt lat="45.24987" lon="5.64526">
        <ele>249.394964</ele>
        <time>2022-10-04T06:37:10.148Z</time>
      </trkpt>
      <trkpt lat="45.24997" lon="5.64512">
        <ele>249.516228</ele>
        <time>2022-10-04T06:37:12.145Z</time>
      </trkpt>
      <trkpt lat="45.25006" lon="5.64501">
        <ele>249.459791</ele>
        <time>2022-10-04T06:37:14.148Z</time>
      </trkpt>
      <trkpt lat="45.25016" lon="5.64489">
        <ele>249.368563</ele>
        <time>2022-10-04T06:37:16.150Z</time>
      </trkpt>
      <trkpt lat="45.25026" lon="5.64475">
        <ele>249.273906</ele>
        <time>2022-10-04T06:37:18.151Z</time>
      </trkpt>
      <trkpt lat="45.25037" lon="5.64464">
        <ele>249.182391</ele>
        <time>2022-10-04T06:37:20.148Z</time>
      </trkpt>
      <trkpt lat="45.25046" lon="5.6445">
        <ele>249.092077</ele>
        <time>2022-10-04T06:37:22.147Z</time>
      </trkpt>
      <trkpt lat="45.25056" lon="5.64439">
        <ele>249.000717</ele>
        <time>2022-10-04T06:37:24.150Z</time>
      </trkpt>
      <trkpt lat="45.25065" lon="5.64424">
        <ele>248.906806</ele>
        <time>2022-10-04T06:37:26.145Z</time>
      </trkpt>
      <trkpt lat="45.25073" lon="5.6441">
        <ele>248.817474</ele>
        <time>2022-10-04T06:37:28.148Z</time>
      </trkpt>
      <trkpt lat="45.25082" lon="5.64397">
        <ele>248.730886</ele>
        <time>2022-10-04T06:37:30.150Z</time>
      </trkpt>
      <trkpt lat="45.25093" lon="5.64385">
        <ele>248.633716</ele>
        <time>2022-10-04T06:37:32.150Z</time>
      </trkpt>
      <trkpt lat="45.25103" lon="5.64371">
        <ele>248.541824</ele>
        <time>2022-10-04T06:37:34.146Z</time>
      </trkpt>
      <trkpt lat="45.25113" lon="5.64359">
        <ele>248.450465</ele>
        <time>2022-10-04T06:37:36.148Z</time>
      </trkpt>
      <trkpt lat="45.25122" lon="5.64345">
        <ele>248.357216</ele>
        <time>2022-10-04T06:37:38.141Z</time>
      </trkpt>
      <trkpt lat="45.25131" lon="5.64332">
        <ele>248.184531</ele>
        <time>2022-10-04T06:37:40.148Z</time>
      </trkpt>
      <trkpt lat="45.25142" lon="5.64321">
        <ele>247.80071</ele>
        <time>2022-10-04T06:37:42.149Z</time>
      </trkpt>
      <trkpt lat="45.25151" lon="5.64308">
        <ele>247.439867</ele>
        <time>2022-10-04T06:37:44.146Z</time>
      </trkpt>
      <trkpt lat="45.2516" lon="5.64295">
        <ele>247.066574</ele>
        <time>2022-10-04T06:37:46.148Z</time>
      </trkpt>
      <trkpt lat="45.25169" lon="5.64282">
        <ele>246.709484</ele>
        <time>2022-10-04T06:37:48.146Z</time>
      </trkpt>
      <trkpt lat="45.25179" lon="5.64268">
        <ele>246.311041</ele>
        <time>2022-10-04T06:37:50.147Z</time>
      </trkpt>
      <trkpt lat="45.2519" lon="5.64258">
        <ele>245.932236</ele>
        <time>2022-10-04T06:37:52.142Z</time>
      </trkpt>
      <trkpt lat="45.25198" lon="5.64244">
        <ele>245.560287</ele>
        <time>2022-10-04T06:37:54.149Z</time>
      </trkpt>
      <trkpt lat="45.25208" lon="5.64231">
        <ele>245.175646</ele>
        <time>2022-10-04T06:37:56.151Z</time>
      </trkpt>
      <trkpt lat="45.25217" lon="5.64219">
        <ele>244.80557</ele>
        <time>2022-10-04T06:37:58.145Z</time>
      </trkpt>
      <trkpt lat="45.25227" lon="5.64206">
        <ele>244.437141</ele>
        <time>2022-10-04T06:38:00.152Z</time>
      </trkpt>
      <trkpt lat="45.25237" lon="5.64193">
        <ele>244.040806</ele>
        <time>2022-10-04T06:38:02.145Z</time>
      </trkpt>
      <trkpt lat="45.25246" lon="5.6418">
        <ele>243.677353</ele>
        <time>2022-10-04T06:38:04.147Z</time>
      </trkpt>
      <trkpt lat="45.25255" lon="5.64167">
        <ele>243.299904</ele>
        <time>2022-10-04T06:38:06.149Z</time>
      </trkpt>
      <trkpt lat="45.25265" lon="5.64155">
        <ele>243.184416</ele>
        <time>2022-10-04T06:38:08.145Z</time>
      </trkpt>
      <trkpt lat="45.25274" lon="5.64141">
        <ele>243.263162</ele>
        <time>2022-10-04T06:38:10.149Z</time>
      </trkpt>
      <trkpt lat="45.25283" lon="5.64127">
        <ele>243.338376</ele>
        <time>2022-10-04T06:38:12.149Z</time>
      </trkpt>
      <trkpt lat="45.25293" lon="5.64115">
        <ele>243.414317</ele>
        <time>2022-10-04T06:38:14.147Z</time>
      </trkpt>
      <trkpt lat="45.25303" lon="5.64102">
        <ele>243.492772</ele>
        <time>2022-10-04T06:38:16.146Z</time>
      </trkpt>
      <trkpt lat="45.25312" lon="5.64087">
        <ele>243.571739</ele>
        <time>2022-10-04T06:38:18.153Z</time>
      </trkpt>
      <trkpt lat="45.2532" lon="5.64073">
        <ele>243.644141</ele>
        <time>2022-10-04T06:38:20.147Z</time>
      </trkpt>
      <trkpt lat="45.25327" lon="5.64058">
        <ele>243.715204</ele>
        <time>2022-10-04T06:38:22.148Z</time>
      </trkpt>
      <trkpt lat="45.25334" lon="5.64043">
        <ele>243.792276</ele>
        <time>2022-10-04T06:38:24.152Z</time>
      </trkpt>
      <trkpt lat="45.25341" lon="5.64025">
        <ele>243.872882</ele>
        <time>2022-10-04T06:38:26.147Z</time>
      </trkpt>
      <trkpt lat="45.25349" lon="5.6401">
        <ele>243.949252</ele>
        <time>2022-10-04T06:38:28.143Z</time>
      </trkpt>
      <trkpt lat="45.25356" lon="5.63995">
        <ele>244.025962</ele>
        <time>2022-10-04T06:38:30.146Z</time>
      </trkpt>
      <trkpt lat="45.25363" lon="5.63978">
        <ele>244.10289</ele>
        <time>2022-10-04T06:38:32.143Z</time>
      </trkpt>
      <trkpt lat="45.2537" lon="5.63963">
        <ele>244.177732</ele>
        <time>2022-10-04T06:38:34.146Z</time>
      </trkpt>
      <trkpt lat="45.25376" lon="5.63946">
        <ele>244.17322</ele>
        <time>2022-10-04T06:38:36.158Z</time>
      </trkpt>
      <trkpt lat="45.25383" lon="5.63931">
        <ele>244.167973</ele>
        <time>2022-10-04T06:38:38.156Z</time>
      </trkpt>
      <trkpt lat="45.2539" lon="5.63915">
        <ele>244.162652</ele>
        <time>2022-10-04T06:38:40.144Z</time>
      </trkpt>
      <trkpt lat="45.25398" lon="5.63899">
        <ele>244.157193</ele>
        <time>2022-10-04T06:38:42.152Z</time>
      </trkpt>
      <trkpt lat="45.25406" lon="5.63884">
        <ele>244.151899</ele>
        <time>2022-10-04T06:38:44.144Z</time>
      </trkpt>
      <trkpt lat="45.25414" lon="5.63868">
        <ele>244.146508</ele>
        <time>2022-10-04T06:38:46.144Z</time>
      </trkpt>
      <trkpt lat="45.2542" lon="5.63853">
        <ele>244.141481</ele>
        <time>2022-10-04T06:38:48.149Z</time>
      </trkpt>
      <trkpt lat="45.25427" lon="5.63837">
        <ele>244.136001</ele>
        <time>2022-10-04T06:38:50.148Z</time>
      </trkpt>
      <trkpt lat="45.25435" lon="5.6382">
        <ele>244.130475</ele>
        <time>2022-10-04T06:38:52.148Z</time>
      </trkpt>
      <trkpt lat="45.25441" lon="5.63804">
        <ele>244.125441</ele>
        <time>2022-10-04T06:38:54.147Z</time>
      </trkpt>
      <trkpt lat="45.25448" lon="5.63789">
        <ele>244.120104</ele>
        <time>2022-10-04T06:38:56.143Z</time>
      </trkpt>
      <trkpt lat="45.25455" lon="5.63773">
        <ele>244.114694</ele>
        <time>2022-10-04T06:38:58.152Z</time>
      </trkpt>
      <trkpt lat="45.25463" lon="5.63758">
        <ele>244.109609</ele>
        <time>2022-10-04T06:39:00.156Z</time>
      </trkpt>
      <trkpt lat="45.25472" lon="5.63743">
        <ele>244.191534</ele>
        <time>2022-10-04T06:39:02.144Z</time>
      </trkpt>
      <trkpt lat="45.25479" lon="5.63728">
        <ele>244.408403</ele>
        <time>2022-10-04T06:39:04.144Z</time>
      </trkpt>
      <trkpt lat="45.25485" lon="5.63713">
        <ele>244.607342</ele>
        <time>2022-10-04T06:39:06.148Z</time>
      </trkpt>
      <trkpt lat="45.25492" lon="5.63699">
        <ele>244.808206</ele>
        <time>2022-10-04T06:39:08.146Z</time>
      </trkpt>
      <trkpt lat="45.25499" lon="5.63683">
        <ele>245.018079</ele>
        <time>2022-10-04T06:39:10.143Z</time>
      </trkpt>
      <trkpt lat="45.25508" lon="5.6367">
        <ele>245.232171</ele>
        <time>2022-10-04T06:39:12.150Z</time>
      </trkpt>
      <trkpt lat="45.25515" lon="5.63653">
        <ele>245.457283</ele>
        <time>2022-10-04T06:39:14.149Z</time>
      </trkpt>
      <trkpt lat="45.25525" lon="5.63642">
        <ele>245.665312</ele>
        <time>2022-10-04T06:39:16.145Z</time>
      </trkpt>
      <trkpt lat="45.25534" lon="5.63628">
        <ele>245.884547</ele>
        <time>2022-10-04T06:39:18.150Z</time>
      </trkpt>
      <trkpt lat="45.25543" lon="5.63613">
        <ele>246.10618</ele>
        <time>2022-10-04T06:39:20.143Z</time>
      </trkpt>
      <trkpt lat="45.25552" lon="5.636">
        <ele>246.318739</ele>
        <time>2022-10-04T06:39:22.147Z</time>
      </trkpt>
      <trkpt lat="45.25561" lon="5.63587">
        <ele>246.527536</ele>
        <time>2022-10-04T06:39:24.151Z</time>
      </trkpt>
      <trkpt lat="45.25571" lon="5.63575">
        <ele>246.746697</ele>
        <time>2022-10-04T06:39:26.142Z</time>
      </trkpt>
      <trkpt lat="45.25583" lon="5.63563">
        <ele>246.976403</ele>
        <time>2022-10-04T06:39:28.149Z</time>
      </trkpt>
      <trkpt lat="45.25592" lon="5.63549">
        <ele>247.187547</ele>
        <time>2022-10-04T06:39:30.152Z</time>
      </trkpt>
      <trkpt lat="45.256" lon="5.63536">
        <ele>247.367594</ele>
        <time>2022-10-04T06:39:32.151Z</time>
      </trkpt>
      <trkpt lat="45.2561" lon="5.63524">
        <ele>247.557366</ele>
        <time>2022-10-04T06:39:34.147Z</time>
      </trkpt>
      <trkpt lat="45.2562" lon="5.63511">
        <ele>247.762648</ele>
        <time>2022-10-04T06:39:36.148Z</time>
      </trkpt>
      <trkpt lat="45.25631" lon="5.63499">
        <ele>247.967172</ele>
        <time>2022-10-04T06:39:38.145Z</time>
      </trkpt>
      <trkpt lat="45.25641" lon="5.63487">
        <ele>248.160775</ele>
        <time>2022-10-04T06:39:40.141Z</time>
      </trkpt>
      <trkpt lat="45.2565" lon="5.63473">
        <ele>248.35395</ele>
        <time>2022-10-04T06:39:42.146Z</time>
      </trkpt>
      <trkpt lat="45.25659" lon="5.6346">
        <ele>248.548445</ele>
        <time>2022-10-04T06:39:44.144Z</time>
      </trkpt>
      <trkpt lat="45.25669" lon="5.63448">
        <ele>248.73513</ele>
        <time>2022-10-04T06:39:46.144Z</time>
      </trkpt>
      <trkpt lat="45.25679" lon="5.63435">
        <ele>248.936321</ele>
        <time>2022-10-04T06:39:48.148Z</time>
      </trkpt>
      <trkpt lat="45.25689" lon="5.63424">
        <ele>249.125066</ele>
        <time>2022-10-04T06:39:50.143Z</time>
      </trkpt>
      <trkpt lat="45.25699" lon="5.63411">
        <ele>249.325934</ele>
        <time>2022-10-04T06:39:52.146Z</time>
      </trkpt>
      <trkpt lat="45.25708" lon="5.63397">
        <ele>249.518362</ele>
        <time>2022-10-04T06:39:54.149Z</time>
      </trkpt>
      <trkpt lat="45.25718" lon="5.63383">
        <ele>249.708219</ele>
        <time>2022-10-04T06:39:56.147Z</time>
      </trkpt>
      <trkpt lat="45.25728" lon="5.63372">
        <ele>249.763181</ele>
        <time>2022-10-04T06:39:58.149Z</time>
      </trkpt>
      <trkpt lat="45.25738" lon="5.63361">
        <ele>249.813484</ele>
        <time>2022-10-04T06:40:00.153Z</time>
      </trkpt>
      <trkpt lat="45.25748" lon="5.63348">
        <ele>249.869926</ele>
        <time>2022-10-04T06:40:02.145Z</time>
      </trkpt>
      <trkpt lat="45.2576" lon="5.63338">
        <ele>249.925269</ele>
        <time>2022-10-04T06:40:04.145Z</time>
      </trkpt>
      <trkpt lat="45.25767" lon="5.63324">
        <ele>249.975695</ele>
        <time>2022-10-04T06:40:06.153Z</time>
      </trkpt>
      <trkpt lat="45.25777" lon="5.63311">
        <ele>250.032106</ele>
        <time>2022-10-04T06:40:08.158Z</time>
      </trkpt>
      <trkpt lat="45.25787" lon="5.63299">
        <ele>250.085439</ele>
        <time>2022-10-04T06:40:10.149Z</time>
      </trkpt>
      <trkpt lat="45.25797" lon="5.63285">
        <ele>250.14245</ele>
        <time>2022-10-04T06:40:12.156Z</time>
      </trkpt>
      <trkpt lat="45.25807" lon="5.63273">
        <ele>250.196944</ele>
        <time>2022-10-04T06:40:14.144Z</time>
      </trkpt>
      <trkpt lat="45.25817" lon="5.6326">
        <ele>250.250196</ele>
        <time>2022-10-04T06:40:16.142Z</time>
      </trkpt>
      <trkpt lat="45.25827" lon="5.63248">
        <ele>250.306379</ele>
        <time>2022-10-04T06:40:18.149Z</time>
      </trkpt>
      <trkpt lat="45.25837" lon="5.63235">
        <ele>250.360994</ele>
        <time>2022-10-04T06:40:20.146Z</time>
      </trkpt>
      <trkpt lat="45.25847" lon="5.63225">
        <ele>250.413782</ele>
        <time>2022-10-04T06:40:22.148Z</time>
      </trkpt>
      <trkpt lat="45.25857" lon="5.63211">
        <ele>250.320018</ele>
        <time>2022-10-04T06:40:24.144Z</time>
      </trkpt>
      <trkpt lat="45.25867" lon="5.63198">
        <ele>250.074355</ele>
        <time>2022-10-04T06:40:26.144Z</time>
      </trkpt>
      <trkpt lat="45.25876" lon="5.63187">
        <ele>249.842919</ele>
        <time>2022-10-04T06:40:28.144Z</time>
      </trkpt>
      <trkpt lat="45.25887" lon="5.63175">
        <ele>249.595272</ele>
        <time>2022-10-04T06:40:30.146Z</time>
      </trkpt>
      <trkpt lat="45.259" lon="5.63167">
        <ele>249.32393</ele>
        <time>2022-10-04T06:40:32.141Z</time>
      </trkpt>
      <trkpt lat="45.2591" lon="5.63155">
        <ele>249.076298</ele>
        <time>2022-10-04T06:40:34.144Z</time>
      </trkpt>
      <trkpt lat="45.2592" lon="5.63143">
        <ele>248.827483</ele>
        <time>2022-10-04T06:40:36.148Z</time>
      </trkpt>
      <trkpt lat="45.25931" lon="5.63131">
        <ele>248.576993</ele>
        <time>2022-10-04T06:40:38.142Z</time>
      </trkpt>
      <trkpt lat="45.2594" lon="5.63119">
        <ele>248.333055</ele>
        <time>2022-10-04T06:40:40.147Z</time>
      </trkpt>
      <trkpt lat="45.2595" lon="5.63108">
        <ele>248.103664</ele>
        <time>2022-10-04T06:40:42.149Z</time>
      </trkpt>
      <trkpt lat="45.2596" lon="5.63094">
        <ele>247.838242</ele>
        <time>2022-10-04T06:40:44.146Z</time>
      </trkpt>
      <trkpt lat="45.25968" lon="5.63078">
        <ele>247.592024</ele>
        <time>2022-10-04T06:40:46.144Z</time>
      </trkpt>
      <trkpt lat="45.25978" lon="5.63066">
        <ele>247.337568</ele>
        <time>2022-10-04T06:40:48.145Z</time>
      </trkpt>
      <trkpt lat="45.25988" lon="5.63054">
        <ele>247.098721</ele>
        <time>2022-10-04T06:40:50.143Z</time>
      </trkpt>
      <trkpt lat="45.25995" lon="5.63041">
        <ele>247.072612</ele>
        <time>2022-10-04T06:40:52.143Z</time>
      </trkpt>
      <trkpt lat="45.26005" lon="5.63027">
        <ele>247.058633</ele>
        <time>2022-10-04T06:40:54.148Z</time>
      </trkpt>
      <trkpt lat="45.26015" lon="5.63016">
        <ele>247.046728</ele>
        <time>2022-10-04T06:40:56.143Z</time>
      </trkpt>
      <trkpt lat="45.26025" lon="5.63003">
        <ele>247.033511</ele>
        <time>2022-10-04T06:40:58.149Z</time>
      </trkpt>
      <trkpt lat="45.26037" lon="5.62995">
        <ele>247.020166</ele>
        <time>2022-10-04T06:41:00.146Z</time>
      </trkpt>
      <trkpt lat="45.26046" lon="5.62982">
        <ele>247.008173</ele>
        <time>2022-10-04T06:41:02.152Z</time>
      </trkpt>
      <trkpt lat="45.26056" lon="5.62969">
        <ele>246.994906</ele>
        <time>2022-10-04T06:41:04.142Z</time>
      </trkpt>
      <trkpt lat="45.26067" lon="5.62956">
        <ele>246.981052</ele>
        <time>2022-10-04T06:41:06.147Z</time>
      </trkpt>
      <trkpt lat="45.26078" lon="5.62943">
        <ele>246.967198</ele>
        <time>2022-10-04T06:41:08.142Z</time>
      </trkpt>
      <trkpt lat="45.26088" lon="5.62934">
        <ele>246.955901</ele>
        <time>2022-10-04T06:41:10.147Z</time>
      </trkpt>
      <trkpt lat="45.26097" lon="5.62921">
        <ele>246.943142</ele>
        <time>2022-10-04T06:41:12.144Z</time>
      </trkpt>
      <trkpt lat="45.26106" lon="5.62906">
        <ele>246.929368</ele>
        <time>2022-10-04T06:41:14.146Z</time>
      </trkpt>
      <trkpt lat="45.26118" lon="5.62897">
        <ele>246.916689</ele>
        <time>2022-10-04T06:41:16.147Z</time>
      </trkpt>
      <trkpt lat="45.26125" lon="5.62883">
        <ele>246.966456</ele>
        <time>2022-10-04T06:41:18.149Z</time>
      </trkpt>
      <trkpt lat="45.26136" lon="5.62871">
        <ele>247.184425</ele>
        <time>2022-10-04T06:41:20.147Z</time>
      </trkpt>
      <trkpt lat="45.26147" lon="5.62859">
        <ele>247.40461</ele>
        <time>2022-10-04T06:41:22.145Z</time>
      </trkpt>
      <trkpt lat="45.26159" lon="5.62847">
        <ele>247.631299</ele>
        <time>2022-10-04T06:41:24.149Z</time>
      </trkpt>
      <trkpt lat="45.26169" lon="5.62835">
        <ele>247.842911</ele>
        <time>2022-10-04T06:41:26.147Z</time>
      </trkpt>
      <trkpt lat="45.26179" lon="5.62823">
        <ele>248.048937</ele>
        <time>2022-10-04T06:41:28.145Z</time>
      </trkpt>
      <trkpt lat="45.26185" lon="5.6281">
        <ele>248.2191</ele>
        <time>2022-10-04T06:41:30.144Z</time>
      </trkpt>
      <trkpt lat="45.26195" lon="5.62796">
        <ele>248.441364</ele>
        <time>2022-10-04T06:41:32.147Z</time>
      </trkpt>
      <trkpt lat="45.26205" lon="5.62785">
        <ele>248.645238</ele>
        <time>2022-10-04T06:41:34.143Z</time>
      </trkpt>
      <trkpt lat="45.26215" lon="5.62771">
        <ele>248.869474</ele>
        <time>2022-10-04T06:41:36.146Z</time>
      </trkpt>
      <trkpt lat="45.26225" lon="5.62757">
        <ele>249.09252</ele>
        <time>2022-10-04T06:41:38.144Z</time>
      </trkpt>
      <trkpt lat="45.26234" lon="5.62744">
        <ele>249.29507</ele>
        <time>2022-10-04T06:41:40.143Z</time>
      </trkpt>
      <trkpt lat="45.26243" lon="5.62731">
        <ele>249.498865</ele>
        <time>2022-10-04T06:41:42.147Z</time>
      </trkpt>
      <trkpt lat="45.26252" lon="5.62718">
        <ele>249.708795</ele>
        <time>2022-10-04T06:41:44.147Z</time>
      </trkpt>
      <trkpt lat="45.26263" lon="5.62705">
        <ele>249.798813</ele>
        <time>2022-10-04T06:41:46.141Z</time>
      </trkpt>
      <trkpt lat="45.26273" lon="5.62692">
        <ele>249.843322</ele>
        <time>2022-10-04T06:41:48.145Z</time>
      </trkpt>
      <trkpt lat="45.26281" lon="5.62678">
        <ele>249.887764</ele>
        <time>2022-10-04T06:41:50.142Z</time>
      </trkpt>
      <trkpt lat="45.26292" lon="5.62666">
        <ele>249.93189</ele>
        <time>2022-10-04T06:41:52.143Z</time>
      </trkpt>
      <trkpt lat="45.26302" lon="5.62654">
        <ele>249.974911</ele>
        <time>2022-10-04T06:41:54.148Z</time>
      </trkpt>
      <trkpt lat="45.26312" lon="5.62642">
        <ele>250.018827</ele>
        <time>2022-10-04T06:41:56.143Z</time>
      </trkpt>
      <trkpt lat="45.26323" lon="5.6263">
        <ele>250.063911</ele>
        <time>2022-10-04T06:41:58.148Z</time>
      </trkpt>
      <trkpt lat="45.26333" lon="5.62617">
        <ele>250.10958</ele>
        <time>2022-10-04T06:42:00.146Z</time>
      </trkpt>
      <trkpt lat="45.26342" lon="5.62605">
        <ele>250.14933</ele>
        <time>2022-10-04T06:42:02.148Z</time>
      </trkpt>
      <trkpt lat="45.26353" lon="5.62593">
        <ele>250.195596</ele>
        <time>2022-10-04T06:42:04.142Z</time>
      </trkpt>
      <trkpt lat="45.26363" lon="5.62583">
        <ele>250.235559</ele>
        <time>2022-10-04T06:42:06.143Z</time>
      </trkpt>
      <trkpt lat="45.26374" lon="5.62571">
        <ele>250.282045</ele>
        <time>2022-10-04T06:42:08.144Z</time>
      </trkpt>
      <trkpt lat="45.26384" lon="5.62559">
        <ele>250.325361</ele>
        <time>2022-10-04T06:42:10.145Z</time>
      </trkpt>
      <trkpt lat="45.26394" lon="5.62547">
        <ele>250.272132</ele>
        <time>2022-10-04T06:42:12.147Z</time>
      </trkpt>
      <trkpt lat="45.26405" lon="5.62536">
        <ele>249.84367</ele>
        <time>2022-10-04T06:42:14.146Z</time>
      </trkpt>
      <trkpt lat="45.26416" lon="5.62527">
        <ele>249.420964</ele>
        <time>2022-10-04T06:42:16.146Z</time>
      </trkpt>
      <trkpt lat="45.26427" lon="5.62516">
        <ele>249.01066</ele>
        <time>2022-10-04T06:42:18.148Z</time>
      </trkpt>
      <trkpt lat="45.26438" lon="5.62506">
        <ele>248.58956</ele>
        <time>2022-10-04T06:42:20.146Z</time>
      </trkpt>
      <trkpt lat="45.26448" lon="5.62496">
        <ele>248.204721</ele>
        <time>2022-10-04T06:42:22.139Z</time>
      </trkpt>
      <trkpt lat="45.2646" lon="5.62486">
        <ele>247.787191</ele>
        <time>2022-10-04T06:42:24.145Z</time>
      </trkpt>
      <trkpt lat="45.26469" lon="5.62477">
        <ele>247.416813</ele>
        <time>2022-10-04T06:42:26.148Z</time>
      </trkpt>
      <trkpt lat="45.26481" lon="5.62467">
        <ele>246.988598</ele>
        <time>2022-10-04T06:42:28.145Z</time>
      </trkpt>
      <trkpt lat="45.26493" lon="5.62459">
        <ele>246.557506</ele>
        <time>2022-10-04T06:42:30.145Z</time>
      </trkpt>
      <trkpt lat="45.26504" lon="5.62448">
        <ele>246.129873</ele>
        <time>2022-10-04T06:42:32.147Z</time>
      </trkpt>
      <trkpt lat="45.26515" lon="5.62437">
        <ele>245.707865</ele>
        <time>2022-10-04T06:42:34.146Z</time>
      </trkpt>
      <trkpt lat="45.26527" lon="5.6243">
        <ele>245.293847</ele>
        <time>2022-10-04T06:42:36.142Z</time>
      </trkpt>
      <trkpt lat="45.2654" lon="5.62423">
        <ele>244.868125</ele>
        <time>2022-10-04T06:42:38.145Z</time>
      </trkpt>
      <trkpt lat="45.2655" lon="5.62412">
        <ele>244.78894</ele>
        <time>2022-10-04T06:42:40.151Z</time>
      </trkpt>
      <trkpt lat="45.26561" lon="5.62403">
        <ele>245.033269</ele>
        <time>2022-10-04T06:42:42.145Z</time>
      </trkpt>
      <trkpt lat="45.26571" lon="5.62392">
        <ele>245.270319</ele>
        <time>2022-10-04T06:42:44.149Z</time>
      </trkpt>
      <trkpt lat="45.26584" lon="5.62382">
        <ele>245.551982</ele>
        <time>2022-10-04T06:42:46.143Z</time>
      </trkpt>
      <trkpt lat="45.26594" lon="5.62371">
        <ele>245.803971</ele>
        <time>2022-10-04T06:42:48.139Z</time>
      </trkpt>
      <trkpt lat="45.26605" lon="5.62362">
        <ele>246.044707</ele>
        <time>2022-10-04T06:42:50.143Z</time>
      </trkpt>
      <trkpt lat="45.26617" lon="5.62349">
        <ele>246.326345</ele>
        <time>2022-10-04T06:42:52.143Z</time>
      </trkpt>
      <trkpt lat="45.26627" lon="5.6234">
        <ele>246.556344</ele>
        <time>2022-10-04T06:42:54.148Z</time>
      </trkpt>
      <trkpt lat="45.26639" lon="5.62329">
        <ele>246.828021</ele>
        <time>2022-10-04T06:42:56.145Z</time>
      </trkpt>
      <trkpt lat="45.26651" lon="5.62319">
        <ele>247.104614</ele>
        <time>2022-10-04T06:42:58.147Z</time>
      </trkpt>
      <trkpt lat="45.26662" lon="5.62308">
        <ele>247.349475</ele>
        <time>2022-10-04T06:43:00.143Z</time>
      </trkpt>
      <trkpt lat="45.26673" lon="5.62297">
        <ele>247.607673</ele>
        <time>2022-10-04T06:43:02.147Z</time>
      </trkpt>
      <trkpt lat="45.26684" lon="5.62288">
        <ele>247.851967</ele>
        <time>2022-10-04T06:43:04.150Z</time>
      </trkpt>
      <trkpt lat="45.26694" lon="5.62278">
        <ele>248.095273</ele>
        <time>2022-10-04T06:43:06.148Z</time>
      </trkpt>
      <trkpt lat="45.26707" lon="5.62266">
        <ele>248.046084</ele>
        <time>2022-10-04T06:43:08.146Z</time>
      </trkpt>
      <trkpt lat="45.26718" lon="5.62255">
        <ele>247.977877</ele>
        <time>2022-10-04T06:43:10.146Z</time>
      </trkpt>
      <trkpt lat="45.26729" lon="5.62246">
        <ele>247.917026</ele>
        <time>2022-10-04T06:43:12.142Z</time>
      </trkpt>
      <trkpt lat="45.2674" lon="5.62236">
        <ele>247.85173</ele>
        <time>2022-10-04T06:43:14.152Z</time>
      </trkpt>
      <trkpt lat="45.2675" lon="5.62225">
        <ele>247.788708</ele>
        <time>2022-10-04T06:43:16.149Z</time>
      </trkpt>
      <trkpt lat="45.26762" lon="5.62214">
        <ele>247.720892</ele>
        <time>2022-10-04T06:43:18.145Z</time>
      </trkpt>
      <trkpt lat="45.26771" lon="5.62201">
        <ele>247.657627</ele>
        <time>2022-10-04T06:43:20.149Z</time>
      </trkpt>
      <trkpt lat="45.26779" lon="5.62191">
        <ele>247.602334</ele>
        <time>2022-10-04T06:43:22.142Z</time>
      </trkpt>
      <trkpt lat="45.2679" lon="5.62182">
        <ele>247.539435</ele>
        <time>2022-10-04T06:43:24.145Z</time>
      </trkpt>
      <trkpt lat="45.26804" lon="5.62176">
        <ele>247.470122</ele>
        <time>2022-10-04T06:43:26.154Z</time>
      </trkpt>
      <trkpt lat="45.26815" lon="5.6217">
        <ele>247.412208</ele>
        <time>2022-10-04T06:43:28.146Z</time>
      </trkpt>
      <trkpt lat="45.26825" lon="5.6216">
        <ele>247.349967</ele>
        <time>2022-10-04T06:43:30.146Z</time>
      </trkpt>
      <trkpt lat="45.26836" lon="5.62149">
        <ele>247.287171</ele>
        <time>2022-10-04T06:43:32.140Z</time>
      </trkpt>
      <trkpt lat="45.26846" lon="5.62141">
        <ele>247.213512</ele>
        <time>2022-10-04T06:43:34.143Z</time>
      </trkpt>
      <trkpt lat="45.26857" lon="5.62133">
        <ele>246.925933</ele>
        <time>2022-10-04T06:43:36.144Z</time>
      </trkpt>
      <trkpt lat="45.26869" lon="5.62125">
        <ele>246.611946</ele>
        <time>2022-10-04T06:43:38.141Z</time>
      </trkpt>
      <trkpt lat="45.26883" lon="5.62119">
        <ele>246.276759</ele>
        <time>2022-10-04T06:43:40.146Z</time>
      </trkpt>
      <trkpt lat="45.26895" lon="5.62112">
        <ele>245.962843</ele>
        <time>2022-10-04T06:43:42.142Z</time>
      </trkpt>
      <trkpt lat="45.26907" lon="5.62108">
        <ele>245.664663</ele>
        <time>2022-10-04T06:43:44.145Z</time>
      </trkpt>
      <trkpt lat="45.2692" lon="5.62102">
        <ele>245.336778</ele>
        <time>2022-10-04T06:43:46.151Z</time>
      </trkpt>
      <trkpt lat="45.26933" lon="5.62096">
        <ele>245.018518</ele>
        <time>2022-10-04T06:43:48.139Z</time>
      </trkpt>
      <trkpt lat="45.26945" lon="5.62088">
        <ele>244.710415</ele>
        <time>2022-10-04T06:43:50.143Z</time>
      </trkpt>
      <trkpt lat="45.26957" lon="5.6208">
        <ele>244.394247</ele>
        <time>2022-10-04T06:43:52.142Z</time>
      </trkpt>
      <trkpt lat="45.2697" lon="5.62074">
        <ele>244.067557</ele>
        <time>2022-10-04T06:43:54.145Z</time>
      </trkpt>
      <trkpt lat="45.26982" lon="5.62066">
        <ele>243.749206</ele>
        <time>2022-10-04T06:43:56.146Z</time>
      </trkpt>
      <trkpt lat="45.26994" lon="5.62059">
        <ele>243.452295</ele>
        <time>2022-10-04T06:43:58.149Z</time>
      </trkpt>
      <trkpt lat="45.27006" lon="5.62053">
        <ele>243.132351</ele>
        <time>2022-10-04T06:44:00.144Z</time>
      </trkpt>
      <trkpt lat="45.2702" lon="5.62051">
        <ele>243.15758</ele>
        <time>2022-10-04T06:44:02.142Z</time>
      </trkpt>
      <trkpt lat="45.27032" lon="5.62046">
        <ele>243.62884</ele>
        <time>2022-10-04T06:44:04.145Z</time>
      </trkpt>
      <trkpt lat="45.27047" lon="5.62039">
        <ele>244.153757</ele>
        <time>2022-10-04T06:44:06.141Z</time>
      </trkpt>
      <trkpt lat="45.27061" lon="5.62031">
        <ele>244.687919</ele>
        <time>2022-10-04T06:44:08.144Z</time>
      </trkpt>
      <trkpt lat="45.27076" lon="5.62026">
        <ele>245.222563</ele>
        <time>2022-10-04T06:44:10.144Z</time>
      </trkpt>
      <trkpt lat="45.27088" lon="5.62017">
        <ele>245.725825</ele>
        <time>2022-10-04T06:44:12.149Z</time>
      </trkpt>
      <trkpt lat="45.27101" lon="5.62007">
        <ele>246.240386</ele>
        <time>2022-10-04T06:44:14.143Z</time>
      </trkpt>
      <trkpt lat="45.27109" lon="5.61999">
        <ele>246.585817</ele>
        <time>2022-10-04T06:44:16.143Z</time>
      </trkpt>
      <trkpt lat="45.27106" lon="5.61986">
        <ele>246.921891</ele>
        <time>2022-10-04T06:44:20.147Z</time>
      </trkpt>
      <trkpt lat="45.27093" lon="5.61988">
        <ele>247.367471</ele>
        <time>2022-10-04T06:44:23.140Z</time>
      </trkpt>
      <trkpt lat="45.27081" lon="5.61994">
        <ele>247.819528</ele>
        <time>2022-10-04T06:44:26.142Z</time>
      </trkpt>
      <trkpt lat="45.27072" lon="5.62007">
        <ele>248.249111</ele>
        <time>2022-10-04T06:44:29.145Z</time>
      </trkpt>
      <trkpt lat="45.27071" lon="5.62025">
        <ele>248.71296</ele>
        <time>2022-10-04T06:44:32.148Z</time>
      </trkpt>
      <trkpt lat="45.27076" lon="5.62043">
        <ele>249.183113</ele>
        <time>2022-10-04T06:44:35.146Z</time>
      </trkpt>
      <trkpt lat="45.2708" lon="5.62055">
        <ele>249.259332</ele>
        <time>2022-10-04T06:44:37.142Z</time>
      </trkpt>
      <trkpt lat="45.27087" lon="5.62067">
        <ele>249.235862</ele>
        <time>2022-10-04T06:44:39.144Z</time>
      </trkpt>
      <trkpt lat="45.27091" lon="5.62078">
        <ele>249.215068</ele>
        <time>2022-10-04T06:44:41.144Z</time>
      </trkpt>
      <trkpt lat="45.27095" lon="5.62092">
        <ele>249.192079</ele>
        <time>2022-10-04T06:44:43.151Z</time>
      </trkpt>
      <trkpt lat="45.27099" lon="5.62105">
        <ele>249.168681</ele>
        <time>2022-10-04T06:44:45.149Z</time>
      </trkpt>
      <trkpt lat="45.27103" lon="5.62119">
        <ele>249.145373</ele>
        <time>2022-10-04T06:44:47.142Z</time>
      </trkpt>
      <trkpt lat="45.27108" lon="5.62134">
        <ele>249.120081</ele>
        <time>2022-10-04T06:44:49.141Z</time>
      </trkpt>
      <trkpt lat="45.27112" lon="5.62148">
        <ele>249.095502</ele>
        <time>2022-10-04T06:44:51.142Z</time>
      </trkpt>
      <trkpt lat="45.27118" lon="5.62162">
        <ele>249.069583</ele>
        <time>2022-10-04T06:44:53.148Z</time>
      </trkpt>
      <trkpt lat="45.27123" lon="5.62178">
        <ele>249.041892</ele>
        <time>2022-10-04T06:44:55.140Z</time>
      </trkpt>
      <trkpt lat="45.27128" lon="5.62193">
        <ele>249.015267</ele>
        <time>2022-10-04T06:44:57.137Z</time>
      </trkpt>
      <trkpt lat="45.27133" lon="5.62209">
        <ele>248.987932</ele>
        <time>2022-10-04T06:44:59.143Z</time>
      </trkpt>
      <trkpt lat="45.27138" lon="5.62223">
        <ele>248.963638</ele>
        <time>2022-10-04T06:45:01.140Z</time>
      </trkpt>
      <trkpt lat="45.27144" lon="5.62237">
        <ele>248.937995</ele>
        <time>2022-10-04T06:45:03.145Z</time>
      </trkpt>
      <trkpt lat="45.27148" lon="5.62251">
        <ele>248.914542</ele>
        <time>2022-10-04T06:45:05.144Z</time>
      </trkpt>
      <trkpt lat="45.27154" lon="5.62265">
        <ele>248.887696</ele>
        <time>2022-10-04T06:45:08.144Z</time>
      </trkpt>
      <trkpt lat="45.27169" lon="5.62264">
        <ele>248.761422</ele>
        <time>2022-10-04T06:45:11.146Z</time>
      </trkpt>
      <trkpt lat="45.27179" lon="5.62258">
        <ele>248.59292</ele>
        <time>2022-10-04T06:45:13.157Z</time>
      </trkpt>
      <trkpt lat="45.27191" lon="5.62248">
        <ele>248.399735</ele>
        <time>2022-10-04T06:45:15.144Z</time>
      </trkpt>
      <trkpt lat="45.27205" lon="5.62241">
        <ele>248.164463</ele>
        <time>2022-10-04T06:45:18.145Z</time>
      </trkpt>
      <trkpt lat="45.27218" lon="5.62231">
        <ele>247.954821</ele>
        <time>2022-10-04T06:45:20.139Z</time>
      </trkpt>
      <trkpt lat="45.27231" lon="5.62224">
        <ele>247.74634</ele>
        <time>2022-10-04T06:45:22.154Z</time>
      </trkpt>
      <trkpt lat="45.27247" lon="5.62218">
        <ele>247.499838</ele>
        <time>2022-10-04T06:45:24.141Z</time>
      </trkpt>
      <trkpt lat="45.27259" lon="5.62213">
        <ele>247.312213</ele>
        <time>2022-10-04T06:45:26.137Z</time>
      </trkpt>
      <trkpt lat="45.27267" lon="5.62205">
        <ele>247.166282</ele>
        <time>2022-10-04T06:45:28.139Z</time>
      </trkpt>
      <trkpt lat="45.27281" lon="5.62194">
        <ele>246.933212</ele>
        <time>2022-10-04T06:45:30.139Z</time>
      </trkpt>
      <trkpt lat="45.27294" lon="5.62188">
        <ele>246.733815</ele>
        <time>2022-10-04T06:45:32.145Z</time>
      </trkpt>
      <trkpt lat="45.27307" lon="5.6218">
        <ele>246.518792</ele>
        <time>2022-10-04T06:45:34.147Z</time>
      </trkpt>
      <trkpt lat="45.27321" lon="5.62176">
        <ele>246.316012</ele>
        <time>2022-10-04T06:45:36.147Z</time>
      </trkpt>
      <trkpt lat="45.27331" lon="5.62169">
        <ele>246.180198</ele>
        <time>2022-10-04T06:45:38.143Z</time>
      </trkpt>
      <trkpt lat="45.27344" lon="5.62161">
        <ele>246.093107</ele>
        <time>2022-10-04T06:45:40.141Z</time>
      </trkpt>
      <trkpt lat="45.27352" lon="5.62157">
        <ele>246.030054</ele>
        <time>2022-10-04T06:45:41.144Z</time>
      </trkpt>
      <trkpt lat="45.27367" lon="5.62154">
        <ele>245.932137</ele>
        <time>2022-10-04T06:45:43.144Z</time>
      </trkpt>
      <trkpt lat="45.27382" lon="5.62151">
        <ele>245.833733</ele>
        <time>2022-10-04T06:45:46.141Z</time>
      </trkpt>
      <trkpt lat="45.27394" lon="5.62148">
        <ele>245.749988</ele>
        <time>2022-10-04T06:45:48.146Z</time>
      </trkpt>
      <trkpt lat="45.27408" lon="5.62148">
        <ele>245.662028</ele>
        <time>2022-10-04T06:45:50.141Z</time>
      </trkpt>
      <trkpt lat="45.2742" lon="5.62146">
        <ele>245.581931</ele>
        <time>2022-10-04T06:45:52.144Z</time>
      </trkpt>
      <trkpt lat="45.27433" lon="5.62143">
        <ele>245.491927</ele>
        <time>2022-10-04T06:45:54.143Z</time>
      </trkpt>
      <trkpt lat="45.27445" lon="5.62139">
        <ele>245.4121</ele>
        <time>2022-10-04T06:45:56.141Z</time>
      </trkpt>
      <trkpt lat="45.27458" lon="5.62135">
        <ele>245.327353</ele>
        <time>2022-10-04T06:45:58.144Z</time>
      </trkpt>
      <trkpt lat="45.27469" lon="5.62133">
        <ele>245.253182</ele>
        <time>2022-10-04T06:46:00.146Z</time>
      </trkpt>
      <trkpt lat="45.27483" lon="5.62132">
        <ele>245.161215</ele>
        <time>2022-10-04T06:46:02.144Z</time>
      </trkpt>
      <trkpt lat="45.27497" lon="5.62134">
        <ele>245.062701</ele>
        <time>2022-10-04T06:46:04.141Z</time>
      </trkpt>
      <trkpt lat="45.2751" lon="5.62137">
        <ele>245.044773</ele>
        <time>2022-10-04T06:46:06.139Z</time>
      </trkpt>
      <trkpt lat="45.27523" lon="5.62138">
        <ele>245.088268</ele>
        <time>2022-10-04T06:46:08.146Z</time>
      </trkpt>
      <trkpt lat="45.27536" lon="5.6214">
        <ele>245.136107</ele>
        <time>2022-10-04T06:46:10.138Z</time>
      </trkpt>
      <trkpt lat="45.2755" lon="5.62141">
        <ele>245.183714</ele>
        <time>2022-10-04T06:46:12.140Z</time>
      </trkpt>
      <trkpt lat="45.27563" lon="5.6214">
        <ele>245.227251</ele>
        <time>2022-10-04T06:46:14.142Z</time>
      </trkpt>
      <trkpt lat="45.27576" lon="5.62139">
        <ele>245.271145</ele>
        <time>2022-10-04T06:46:16.140Z</time>
      </trkpt>
      <trkpt lat="45.2759" lon="5.62136">
        <ele>245.320324</ele>
        <time>2022-10-04T06:46:18.143Z</time>
      </trkpt>
      <trkpt lat="45.27602" lon="5.6213">
        <ele>245.364359</ele>
        <time>2022-10-04T06:46:20.144Z</time>
      </trkpt>
      <trkpt lat="45.27614" lon="5.62126">
        <ele>245.404237</ele>
        <time>2022-10-04T06:46:22.144Z</time>
      </trkpt>
      <trkpt lat="45.27628" lon="5.62122">
        <ele>245.454964</ele>
        <time>2022-10-04T06:46:24.143Z</time>
      </trkpt>
      <trkpt lat="45.27638" lon="5.62119">
        <ele>245.488027</ele>
        <time>2022-10-04T06:46:26.138Z</time>
      </trkpt>
      <trkpt lat="45.27651" lon="5.62116">
        <ele>245.533453</ele>
        <time>2022-10-04T06:46:28.143Z</time>
      </trkpt>
      <trkpt lat="45.27666" lon="5.62115">
        <ele>245.585171</ele>
        <time>2022-10-04T06:46:30.138Z</time>
      </trkpt>
      <trkpt lat="45.27678" lon="5.6211">
        <ele>245.629462</ele>
        <time>2022-10-04T06:46:32.143Z</time>
      </trkpt>
      <trkpt lat="45.27691" lon="5.6211">
        <ele>245.561912</ele>
        <time>2022-10-04T06:46:34.147Z</time>
      </trkpt>
      <trkpt lat="45.27703" lon="5.62106">
        <ele>245.466509</ele>
        <time>2022-10-04T06:46:36.138Z</time>
      </trkpt>
      <trkpt lat="45.27717" lon="5.62103">
        <ele>245.362921</ele>
        <time>2022-10-04T06:46:38.139Z</time>
      </trkpt>
      <trkpt lat="45.27729" lon="5.62097">
        <ele>245.261153</ele>
        <time>2022-10-04T06:46:40.147Z</time>
      </trkpt>
      <trkpt lat="45.27738" lon="5.62092">
        <ele>245.189311</ele>
        <time>2022-10-04T06:46:42.140Z</time>
      </trkpt>
      <trkpt lat="45.27753" lon="5.62089">
        <ele>245.077365</ele>
        <time>2022-10-04T06:46:44.140Z</time>
      </trkpt>
      <trkpt lat="45.27768" lon="5.62083">
        <ele>244.963231</ele>
        <time>2022-10-04T06:46:46.139Z</time>
      </trkpt>
      <trkpt lat="45.2778" lon="5.6208">
        <ele>244.869933</ele>
        <time>2022-10-04T06:46:48.145Z</time>
      </trkpt>
      <trkpt lat="45.27791" lon="5.62078">
        <ele>244.781163</ele>
        <time>2022-10-04T06:46:50.138Z</time>
      </trkpt>
      <trkpt lat="45.27805" lon="5.62074">
        <ele>244.676977</ele>
        <time>2022-10-04T06:46:52.144Z</time>
      </trkpt>
      <trkpt lat="45.27818" lon="5.62072">
        <ele>244.575233</ele>
        <time>2022-10-04T06:46:54.142Z</time>
      </trkpt>
      <trkpt lat="45.2783" lon="5.62069">
        <ele>244.483838</ele>
        <time>2022-10-04T06:46:56.138Z</time>
      </trkpt>
      <trkpt lat="45.27845" lon="5.62068">
        <ele>244.375206</ele>
        <time>2022-10-04T06:46:58.143Z</time>
      </trkpt>
      <trkpt lat="45.27858" lon="5.62069">
        <ele>244.273013</ele>
        <time>2022-10-04T06:47:00.141Z</time>
      </trkpt>
      <trkpt lat="45.27872" lon="5.62073">
        <ele>244.067398</ele>
        <time>2022-10-04T06:47:02.152Z</time>
      </trkpt>
      <trkpt lat="45.27888" lon="5.62072">
        <ele>243.847131</ele>
        <time>2022-10-04T06:47:04.146Z</time>
      </trkpt>
      <trkpt lat="45.27898" lon="5.6207">
        <ele>243.699324</ele>
        <time>2022-10-04T06:47:06.142Z</time>
      </trkpt>
      <trkpt lat="45.27911" lon="5.62075">
        <ele>243.505484</ele>
        <time>2022-10-04T06:47:08.140Z</time>
      </trkpt>
      <trkpt lat="45.27925" lon="5.62074">
        <ele>243.310589</ele>
        <time>2022-10-04T06:47:10.142Z</time>
      </trkpt>
      <trkpt lat="45.27938" lon="5.62076">
        <ele>243.123307</ele>
        <time>2022-10-04T06:47:12.140Z</time>
      </trkpt>
      <trkpt lat="45.27951" lon="5.62075">
        <ele>242.9393</ele>
        <time>2022-10-04T06:47:14.147Z</time>
      </trkpt>
      <trkpt lat="45.27965" lon="5.62074">
        <ele>242.743037</ele>
        <time>2022-10-04T06:47:16.144Z</time>
      </trkpt>
      <trkpt lat="45.27977" lon="5.62072">
        <ele>242.578615</ele>
        <time>2022-10-04T06:47:18.142Z</time>
      </trkpt>
      <trkpt lat="45.27992" lon="5.62071">
        <ele>242.365064</ele>
        <time>2022-10-04T06:47:20.143Z</time>
      </trkpt>
      <trkpt lat="45.28008" lon="5.6207">
        <ele>242.130737</ele>
        <time>2022-10-04T06:47:22.141Z</time>
      </trkpt>
      <trkpt lat="45.28023" lon="5.6207">
        <ele>241.924738</ele>
        <time>2022-10-04T06:47:24.147Z</time>
      </trkpt>
      <trkpt lat="45.28037" lon="5.62068">
        <ele>241.747106</ele>
        <time>2022-10-04T06:47:26.144Z</time>
      </trkpt>
      <trkpt lat="45.28047" lon="5.62069">
        <ele>241.783137</ele>
        <time>2022-10-04T06:47:28.164Z</time>
      </trkpt>
      <trkpt lat="45.28061" lon="5.62066">
        <ele>241.828495</ele>
        <time>2022-10-04T06:47:30.139Z</time>
      </trkpt>
      <trkpt lat="45.28076" lon="5.62066">
        <ele>241.877476</ele>
        <time>2022-10-04T06:47:32.143Z</time>
      </trkpt>
      <trkpt lat="45.28088" lon="5.62063">
        <ele>241.91914</ele>
        <time>2022-10-04T06:47:34.141Z</time>
      </trkpt>
      <trkpt lat="45.28103" lon="5.62062">
        <ele>241.969256</ele>
        <time>2022-10-04T06:47:36.143Z</time>
      </trkpt>
      <trkpt lat="45.28116" lon="5.6206">
        <ele>242.011911</ele>
        <time>2022-10-04T06:47:38.142Z</time>
      </trkpt>
      <trkpt lat="45.28126" lon="5.62056">
        <ele>242.047747</ele>
        <time>2022-10-04T06:47:40.148Z</time>
      </trkpt>
      <trkpt lat="45.2814" lon="5.62052">
        <ele>242.094951</ele>
        <time>2022-10-04T06:47:42.142Z</time>
      </trkpt>
      <trkpt lat="45.28149" lon="5.62048">
        <ele>242.125013</ele>
        <time>2022-10-04T06:47:43.147Z</time>
      </trkpt>
      <trkpt lat="45.28158" lon="5.62046">
        <ele>242.155849</ele>
        <time>2022-10-04T06:47:45.141Z</time>
      </trkpt>
      <trkpt lat="45.28173" lon="5.62044">
        <ele>242.207061</ele>
        <time>2022-10-04T06:47:47.145Z</time>
      </trkpt>
      <trkpt lat="45.28185" lon="5.62042">
        <ele>242.246743</ele>
        <time>2022-10-04T06:47:49.147Z</time>
      </trkpt>
      <trkpt lat="45.28196" lon="5.62039">
        <ele>242.284388</ele>
        <time>2022-10-04T06:47:51.146Z</time>
      </trkpt>
      <trkpt lat="45.28209" lon="5.62036">
        <ele>242.326382</ele>
        <time>2022-10-04T06:47:53.146Z</time>
      </trkpt>
      <trkpt lat="45.28223" lon="5.62035">
        <ele>242.306368</ele>
        <time>2022-10-04T06:47:55.143Z</time>
      </trkpt>
      <trkpt lat="45.28237" lon="5.62033">
        <ele>242.254617</ele>
        <time>2022-10-04T06:47:57.149Z</time>
      </trkpt>
      <trkpt lat="45.28253" lon="5.62032">
        <ele>242.194871</ele>
        <time>2022-10-04T06:47:59.147Z</time>
      </trkpt>
      <trkpt lat="45.28265" lon="5.62029">
        <ele>242.146802</ele>
        <time>2022-10-04T06:48:01.141Z</time>
      </trkpt>
      <trkpt lat="45.28279" lon="5.62028">
        <ele>242.096736</ele>
        <time>2022-10-04T06:48:03.144Z</time>
      </trkpt>
      <trkpt lat="45.28291" lon="5.62024">
        <ele>242.048462</ele>
        <time>2022-10-04T06:48:05.147Z</time>
      </trkpt>
      <trkpt lat="45.28303" lon="5.6202">
        <ele>242.000611</ele>
        <time>2022-10-04T06:48:07.144Z</time>
      </trkpt>
      <trkpt lat="45.28315" lon="5.62017">
        <ele>241.957989</ele>
        <time>2022-10-04T06:48:09.146Z</time>
      </trkpt>
      <trkpt lat="45.28328" lon="5.62017">
        <ele>241.908837</ele>
        <time>2022-10-04T06:48:11.148Z</time>
      </trkpt>
      <trkpt lat="45.28342" lon="5.62015">
        <ele>241.85486</ele>
        <time>2022-10-04T06:48:13.144Z</time>
      </trkpt>
      <trkpt lat="45.28357" lon="5.6201">
        <ele>241.797089</ele>
        <time>2022-10-04T06:48:15.145Z</time>
      </trkpt>
      <trkpt lat="45.28369" lon="5.62006">
        <ele>241.748971</ele>
        <time>2022-10-04T06:48:17.148Z</time>
      </trkpt>
      <trkpt lat="45.28381" lon="5.62004">
        <ele>241.704612</ele>
        <time>2022-10-04T06:48:19.149Z</time>
      </trkpt>
      <trkpt lat="45.28393" lon="5.62002">
        <ele>241.632993</ele>
        <time>2022-10-04T06:48:21.144Z</time>
      </trkpt>
      <trkpt lat="45.28409" lon="5.61998">
        <ele>241.382592</ele>
        <time>2022-10-04T06:48:23.159Z</time>
      </trkpt>
      <trkpt lat="45.28421" lon="5.61994">
        <ele>241.185278</ele>
        <time>2022-10-04T06:48:25.143Z</time>
      </trkpt>
      <trkpt lat="45.28434" lon="5.61989">
        <ele>240.972659</ele>
        <time>2022-10-04T06:48:27.143Z</time>
      </trkpt>
      <trkpt lat="45.28447" lon="5.61988">
        <ele>240.753095</ele>
        <time>2022-10-04T06:48:29.161Z</time>
      </trkpt>
      <trkpt lat="45.28457" lon="5.61987">
        <ele>240.607697</ele>
        <time>2022-10-04T06:48:30.141Z</time>
      </trkpt>
      <trkpt lat="45.28469" lon="5.61984">
        <ele>240.399517</ele>
        <time>2022-10-04T06:48:32.143Z</time>
      </trkpt>
      <trkpt lat="45.2848" lon="5.61984">
        <ele>240.231571</ele>
        <time>2022-10-04T06:48:34.144Z</time>
      </trkpt>
      <trkpt lat="45.28492" lon="5.6198">
        <ele>240.035759</ele>
        <time>2022-10-04T06:48:36.145Z</time>
      </trkpt>
      <trkpt lat="45.28507" lon="5.61976">
        <ele>239.799366</ele>
        <time>2022-10-04T06:48:38.138Z</time>
      </trkpt>
      <trkpt lat="45.28516" lon="5.61973">
        <ele>239.64063</ele>
        <time>2022-10-04T06:48:40.144Z</time>
      </trkpt>
      <trkpt lat="45.2853" lon="5.61972">
        <ele>239.420965</ele>
        <time>2022-10-04T06:48:42.146Z</time>
      </trkpt>
      <trkpt lat="45.28544" lon="5.61969">
        <ele>239.195686</ele>
        <time>2022-10-04T06:48:44.151Z</time>
      </trkpt>
      <trkpt lat="45.28559" lon="5.61967">
        <ele>238.950378</ele>
        <time>2022-10-04T06:48:46.146Z</time>
      </trkpt>
      <trkpt lat="45.28571" lon="5.61962">
        <ele>238.81335</ele>
        <time>2022-10-04T06:48:48.148Z</time>
      </trkpt>
      <trkpt lat="45.28589" lon="5.6196">
        <ele>238.953854</ele>
        <time>2022-10-04T06:48:50.147Z</time>
      </trkpt>
      <trkpt lat="45.286" lon="5.61957">
        <ele>239.034287</ele>
        <time>2022-10-04T06:48:52.144Z</time>
      </trkpt>
      <trkpt lat="45.28613" lon="5.61951">
        <ele>239.140052</ele>
        <time>2022-10-04T06:48:54.149Z</time>
      </trkpt>
      <trkpt lat="45.28627" lon="5.61945">
        <ele>239.25397</ele>
        <time>2022-10-04T06:48:56.151Z</time>
      </trkpt>
      <trkpt lat="45.28635" lon="5.61941">
        <ele>239.325265</ele>
        <time>2022-10-04T06:48:58.145Z</time>
      </trkpt>
      <trkpt lat="45.28645" lon="5.61937">
        <ele>239.403407</ele>
        <time>2022-10-04T06:49:00.152Z</time>
      </trkpt>
      <trkpt lat="45.28661" lon="5.61933">
        <ele>239.527726</ele>
        <time>2022-10-04T06:49:02.146Z</time>
      </trkpt>
      <trkpt lat="45.28676" lon="5.61929">
        <ele>239.649232</ele>
        <time>2022-10-04T06:49:04.143Z</time>
      </trkpt>
      <trkpt lat="45.28689" lon="5.61927">
        <ele>239.752134</ele>
        <time>2022-10-04T06:49:06.142Z</time>
      </trkpt>
      <trkpt lat="45.28703" lon="5.61925">
        <ele>239.864806</ele>
        <time>2022-10-04T06:49:08.145Z</time>
      </trkpt>
      <trkpt lat="45.28715" lon="5.61924">
        <ele>239.953663</ele>
        <time>2022-10-04T06:49:10.149Z</time>
      </trkpt>
      <trkpt lat="45.28728" lon="5.61919">
        <ele>240.057885</ele>
        <time>2022-10-04T06:49:12.155Z</time>
      </trkpt>
      <trkpt lat="45.28742" lon="5.61915">
        <ele>240.173993</ele>
        <time>2022-10-04T06:49:14.148Z</time>
      </trkpt>
      <trkpt lat="45.28753" lon="5.61911">
        <ele>240.257232</ele>
        <time>2022-10-04T06:49:16.155Z</time>
      </trkpt>
      <trkpt lat="45.28766" lon="5.61909">
        <ele>240.350929</ele>
        <time>2022-10-04T06:49:18.151Z</time>
      </trkpt>
      <trkpt lat="45.28783" lon="5.61907">
        <ele>240.475819</ele>
        <time>2022-10-04T06:49:20.151Z</time>
      </trkpt>
      <trkpt lat="45.28795" lon="5.61906">
        <ele>240.564349</ele>
        <time>2022-10-04T06:49:22.148Z</time>
      </trkpt>
      <trkpt lat="45.28806" lon="5.61903">
        <ele>240.646708</ele>
        <time>2022-10-04T06:49:24.146Z</time>
      </trkpt>
      <trkpt lat="45.28823" lon="5.61897">
        <ele>240.772683</ele>
        <time>2022-10-04T06:49:26.151Z</time>
      </trkpt>
      <trkpt lat="45.28832" lon="5.61899">
        <ele>240.838357</ele>
        <time>2022-10-04T06:49:27.146Z</time>
      </trkpt>
      <trkpt lat="45.28847" lon="5.61897">
        <ele>240.948448</ele>
        <time>2022-10-04T06:49:29.152Z</time>
      </trkpt>
      <trkpt lat="45.2886" lon="5.61892">
        <ele>241.045849</ele>
        <time>2022-10-04T06:49:31.158Z</time>
      </trkpt>
      <trkpt lat="45.28871" lon="5.61888">
        <ele>241.134006</ele>
        <time>2022-10-04T06:49:33.148Z</time>
      </trkpt>
      <trkpt lat="45.28884" lon="5.61887">
        <ele>241.224785</ele>
        <time>2022-10-04T06:49:35.150Z</time>
      </trkpt>
      <trkpt lat="45.28895" lon="5.61885">
        <ele>241.309068</ele>
        <time>2022-10-04T06:49:37.169Z</time>
      </trkpt>
      <trkpt lat="45.28908" lon="5.61882">
        <ele>241.406192</ele>
        <time>2022-10-04T06:49:39.147Z</time>
      </trkpt>
      <trkpt lat="45.28918" lon="5.61879">
        <ele>241.481169</ele>
        <time>2022-10-04T06:49:41.159Z</time>
      </trkpt>
      <trkpt lat="45.2893" lon="5.61876">
        <ele>241.511116</ele>
        <time>2022-10-04T06:49:43.148Z</time>
      </trkpt>
      <trkpt lat="45.28944" lon="5.61874">
        <ele>241.518219</ele>
        <time>2022-10-04T06:49:45.153Z</time>
      </trkpt>
      <trkpt lat="45.28956" lon="5.61869">
        <ele>241.525366</ele>
        <time>2022-10-04T06:49:47.149Z</time>
      </trkpt>
      <trkpt lat="45.28969" lon="5.61864">
        <ele>241.532183</ele>
        <time>2022-10-04T06:49:49.157Z</time>
      </trkpt>
      <trkpt lat="45.28979" lon="5.61862">
        <ele>241.537966</ele>
        <time>2022-10-04T06:49:51.151Z</time>
      </trkpt>
      <trkpt lat="45.28995" lon="5.6186">
        <ele>241.546368</ele>
        <time>2022-10-04T06:49:53.153Z</time>
      </trkpt>
      <trkpt lat="45.29007" lon="5.61857">
        <ele>241.553026</ele>
        <time>2022-10-04T06:49:55.149Z</time>
      </trkpt>
      <trkpt lat="45.2902" lon="5.61854">
        <ele>241.560324</ele>
        <time>2022-10-04T06:49:57.150Z</time>
      </trkpt>
      <trkpt lat="45.29031" lon="5.61851">
        <ele>241.566209</ele>
        <time>2022-10-04T06:49:59.152Z</time>
      </trkpt>
      <trkpt lat="45.29044" lon="5.61849">
        <ele>241.573235</ele>
        <time>2022-10-04T06:50:01.150Z</time>
      </trkpt>
      <trkpt lat="45.29058" lon="5.61846">
        <ele>241.580786</ele>
        <time>2022-10-04T06:50:03.144Z</time>
      </trkpt>
      <trkpt lat="45.29073" lon="5.61843">
        <ele>241.588596</ele>
        <time>2022-10-04T06:50:05.154Z</time>
      </trkpt>
      <trkpt lat="45.29086" lon="5.61837">
        <ele>241.595957</ele>
        <time>2022-10-04T06:50:07.147Z</time>
      </trkpt>
      <trkpt lat="45.29097" lon="5.61837">
        <ele>241.601915</ele>
        <time>2022-10-04T06:50:09.145Z</time>
      </trkpt>
      <trkpt lat="45.29111" lon="5.61836">
        <ele>241.666111</ele>
        <time>2022-10-04T06:50:11.150Z</time>
      </trkpt>
      <trkpt lat="45.29126" lon="5.61832">
        <ele>241.738262</ele>
        <time>2022-10-04T06:50:13.145Z</time>
      </trkpt>
      <trkpt lat="45.2914" lon="5.61827">
        <ele>241.812391</ele>
        <time>2022-10-04T06:50:15.157Z</time>
      </trkpt>
      <trkpt lat="45.29151" lon="5.6183">
        <ele>241.87025</ele>
        <time>2022-10-04T06:50:17.149Z</time>
      </trkpt>
      <trkpt lat="45.29167" lon="5.61823">
        <ele>241.953316</ele>
        <time>2022-10-04T06:50:19.140Z</time>
      </trkpt>
      <trkpt lat="45.29181" lon="5.61817">
        <ele>242.027381</ele>
        <time>2022-10-04T06:50:21.143Z</time>
      </trkpt>
      <trkpt lat="45.29196" lon="5.61817">
        <ele>242.099476</ele>
        <time>2022-10-04T06:50:23.143Z</time>
      </trkpt>
      <trkpt lat="45.29207" lon="5.61817">
        <ele>242.157559</ele>
        <time>2022-10-04T06:50:25.148Z</time>
      </trkpt>
      <trkpt lat="45.29221" lon="5.61812">
        <ele>242.226326</ele>
        <time>2022-10-04T06:50:27.145Z</time>
      </trkpt>
      <trkpt lat="45.2923" lon="5.61805">
        <ele>242.278813</ele>
        <time>2022-10-04T06:50:29.146Z</time>
      </trkpt>
      <trkpt lat="45.29243" lon="5.61802">
        <ele>242.343325</ele>
        <time>2022-10-04T06:50:31.145Z</time>
      </trkpt>
      <trkpt lat="45.29255" lon="5.61796">
        <ele>242.409963</ele>
        <time>2022-10-04T06:50:33.144Z</time>
      </trkpt>
      <trkpt lat="45.29268" lon="5.61791">
        <ele>242.474786</ele>
        <time>2022-10-04T06:50:35.151Z</time>
      </trkpt>
      <trkpt lat="45.2928" lon="5.61785">
        <ele>242.645727</ele>
        <time>2022-10-04T06:50:37.143Z</time>
      </trkpt>
      <trkpt lat="45.29291" lon="5.61781">
        <ele>242.881418</ele>
        <time>2022-10-04T06:50:39.144Z</time>
      </trkpt>
      <trkpt lat="45.29304" lon="5.61775">
        <ele>243.170583</ele>
        <time>2022-10-04T06:50:41.144Z</time>
      </trkpt>
      <trkpt lat="45.29318" lon="5.61775">
        <ele>243.463146</ele>
        <time>2022-10-04T06:50:43.144Z</time>
      </trkpt>
      <trkpt lat="45.29333" lon="5.61769">
        <ele>243.775289</ele>
        <time>2022-10-04T06:50:45.143Z</time>
      </trkpt>
      <trkpt lat="45.29352" lon="5.61766">
        <ele>244.158687</ele>
        <time>2022-10-04T06:50:47.145Z</time>
      </trkpt>
      <trkpt lat="45.29362" lon="5.61763">
        <ele>244.381232</ele>
        <time>2022-10-04T06:50:49.147Z</time>
      </trkpt>
      <trkpt lat="45.29373" lon="5.61758">
        <ele>244.620386</ele>
        <time>2022-10-04T06:50:51.145Z</time>
      </trkpt>
      <trkpt lat="45.29388" lon="5.61751">
        <ele>244.934779</ele>
        <time>2022-10-04T06:50:53.140Z</time>
      </trkpt>
      <trkpt lat="45.294" lon="5.6175">
        <ele>245.186089</ele>
        <time>2022-10-04T06:50:55.143Z</time>
      </trkpt>
      <trkpt lat="45.29409" lon="5.61748">
        <ele>245.377512</ele>
        <time>2022-10-04T06:50:56.144Z</time>
      </trkpt>
      <trkpt lat="45.29419" lon="5.61747">
        <ele>245.573659</ele>
        <time>2022-10-04T06:50:58.149Z</time>
      </trkpt>
      <trkpt lat="45.2943" lon="5.61744">
        <ele>245.817832</ele>
        <time>2022-10-04T06:51:00.147Z</time>
      </trkpt>
      <trkpt lat="45.29445" lon="5.61744">
        <ele>246.116453</ele>
        <time>2022-10-04T06:51:02.145Z</time>
      </trkpt>
      <trkpt lat="45.29458" lon="5.61744">
        <ele>246.391119</ele>
        <time>2022-10-04T06:51:04.145Z</time>
      </trkpt>
      <trkpt lat="45.2947" lon="5.61744">
        <ele>246.63602</ele>
        <time>2022-10-04T06:51:06.150Z</time>
      </trkpt>
      <trkpt lat="45.2948" lon="5.61745">
        <ele>246.839138</ele>
        <time>2022-10-04T06:51:08.145Z</time>
      </trkpt>
      <trkpt lat="45.29491" lon="5.61742">
        <ele>247.063711</ele>
        <time>2022-10-04T06:51:10.143Z</time>
      </trkpt>
      <trkpt lat="45.29505" lon="5.61741">
        <ele>247.351629</ele>
        <time>2022-10-04T06:51:12.145Z</time>
      </trkpt>
      <trkpt lat="45.2952" lon="5.61734">
        <ele>247.654453</ele>
        <time>2022-10-04T06:51:14.143Z</time>
      </trkpt>
      <trkpt lat="45.29534" lon="5.61733">
        <ele>247.950544</ele>
        <time>2022-10-04T06:51:16.143Z</time>
      </trkpt>
      <trkpt lat="45.29547" lon="5.61731">
        <ele>248.216167</ele>
        <time>2022-10-04T06:51:18.148Z</time>
      </trkpt>
      <trkpt lat="45.29561" lon="5.6173">
        <ele>248.499865</ele>
        <time>2022-10-04T06:51:20.144Z</time>
      </trkpt>
      <trkpt lat="45.29577" lon="5.61728">
        <ele>248.810783</ele>
        <time>2022-10-04T06:51:22.147Z</time>
      </trkpt>
      <trkpt lat="45.29588" lon="5.61727">
        <ele>249.033739</ele>
        <time>2022-10-04T06:51:24.146Z</time>
      </trkpt>
      <trkpt lat="45.296" lon="5.61723">
        <ele>249.289046</ele>
        <time>2022-10-04T06:51:26.145Z</time>
      </trkpt>
      <trkpt lat="45.29611" lon="5.61716">
        <ele>249.536968</ele>
        <time>2022-10-04T06:51:28.145Z</time>
      </trkpt>
      <trkpt lat="45.29622" lon="5.61708">
        <ele>249.790658</ele>
        <time>2022-10-04T06:51:30.151Z</time>
      </trkpt>
      <trkpt lat="45.29635" lon="5.61697">
        <ele>249.592816</ele>
        <time>2022-10-04T06:51:32.147Z</time>
      </trkpt>
      <trkpt lat="45.29645" lon="5.61687">
        <ele>249.324453</ele>
        <time>2022-10-04T06:51:34.146Z</time>
      </trkpt>
      <trkpt lat="45.29655" lon="5.6168">
        <ele>249.076358</ele>
        <time>2022-10-04T06:51:36.146Z</time>
      </trkpt>
      <trkpt lat="45.29666" lon="5.61668">
        <ele>248.778182</ele>
        <time>2022-10-04T06:51:38.144Z</time>
      </trkpt>
      <trkpt lat="45.2968" lon="5.61657">
        <ele>248.448167</ele>
        <time>2022-10-04T06:51:40.143Z</time>
      </trkpt>
      <trkpt lat="45.29692" lon="5.61648">
        <ele>248.158697</ele>
        <time>2022-10-04T06:51:42.147Z</time>
      </trkpt>
      <trkpt lat="45.29705" lon="5.61639">
        <ele>247.850393</ele>
        <time>2022-10-04T06:51:44.148Z</time>
      </trkpt>
      <trkpt lat="45.29718" lon="5.61627">
        <ele>247.505489</ele>
        <time>2022-10-04T06:51:46.143Z</time>
      </trkpt>
      <trkpt lat="45.29731" lon="5.6161">
        <ele>247.135325</ele>
        <time>2022-10-04T06:51:48.146Z</time>
      </trkpt>
      <trkpt lat="45.29744" lon="5.61602">
        <ele>246.836826</ele>
        <time>2022-10-04T06:51:50.142Z</time>
      </trkpt>
      <trkpt lat="45.29753" lon="5.61593">
        <ele>246.600779</ele>
        <time>2022-10-04T06:51:52.149Z</time>
      </trkpt>
      <trkpt lat="45.29763" lon="5.61582">
        <ele>246.326803</ele>
        <time>2022-10-04T06:51:54.146Z</time>
      </trkpt>
      <trkpt lat="45.29774" lon="5.61571">
        <ele>246.032669</ele>
        <time>2022-10-04T06:51:56.146Z</time>
      </trkpt>
      <trkpt lat="45.29785" lon="5.61561">
        <ele>245.545507</ele>
        <time>2022-10-04T06:51:58.157Z</time>
      </trkpt>
      <trkpt lat="45.29797" lon="5.61551">
        <ele>244.965108</ele>
        <time>2022-10-04T06:52:00.147Z</time>
      </trkpt>
      <trkpt lat="45.29808" lon="5.6154">
        <ele>244.408093</ele>
        <time>2022-10-04T06:52:02.145Z</time>
      </trkpt>
      <trkpt lat="45.29819" lon="5.61533">
        <ele>243.923264</ele>
        <time>2022-10-04T06:52:04.144Z</time>
      </trkpt>
      <trkpt lat="45.29829" lon="5.61519">
        <ele>243.322708</ele>
        <time>2022-10-04T06:52:06.144Z</time>
      </trkpt>
      <trkpt lat="45.29841" lon="5.61509">
        <ele>242.770933</ele>
        <time>2022-10-04T06:52:08.145Z</time>
      </trkpt>
      <trkpt lat="45.29852" lon="5.61498">
        <ele>242.220662</ele>
        <time>2022-10-04T06:52:10.142Z</time>
      </trkpt>
      <trkpt lat="45.29862" lon="5.61487">
        <ele>241.690563</ele>
        <time>2022-10-04T06:52:12.145Z</time>
      </trkpt>
      <trkpt lat="45.29874" lon="5.61478">
        <ele>241.158113</ele>
        <time>2022-10-04T06:52:14.145Z</time>
      </trkpt>
      <trkpt lat="45.29884" lon="5.61469">
        <ele>240.664828</ele>
        <time>2022-10-04T06:52:16.146Z</time>
      </trkpt>
      <trkpt lat="45.29895" lon="5.61457">
        <ele>240.101163</ele>
        <time>2022-10-04T06:52:18.142Z</time>
      </trkpt>
      <trkpt lat="45.29905" lon="5.61447">
        <ele>239.576046</ele>
        <time>2022-10-04T06:52:20.142Z</time>
      </trkpt>
      <trkpt lat="45.29916" lon="5.61435">
        <ele>239.020079</ele>
        <time>2022-10-04T06:52:22.147Z</time>
      </trkpt>
      <trkpt lat="45.29926" lon="5.61422">
        <ele>238.626131</ele>
        <time>2022-10-04T06:52:24.142Z</time>
      </trkpt>
      <trkpt lat="45.29936" lon="5.61411">
        <ele>238.795598</ele>
        <time>2022-10-04T06:52:26.146Z</time>
      </trkpt>
      <trkpt lat="45.29947" lon="5.614">
        <ele>238.969811</ele>
        <time>2022-10-04T06:52:28.149Z</time>
      </trkpt>
      <trkpt lat="45.29956" lon="5.61386">
        <ele>239.143489</ele>
        <time>2022-10-04T06:52:30.144Z</time>
      </trkpt>
      <trkpt lat="45.29964" lon="5.61372">
        <ele>239.319502</ele>
        <time>2022-10-04T06:52:32.147Z</time>
      </trkpt>
      <trkpt lat="45.29973" lon="5.61356">
        <ele>239.503573</ele>
        <time>2022-10-04T06:52:34.142Z</time>
      </trkpt>
      <trkpt lat="45.29981" lon="5.61343">
        <ele>239.675226</ele>
        <time>2022-10-04T06:52:36.144Z</time>
      </trkpt>
      <trkpt lat="45.2999" lon="5.61327">
        <ele>239.863251</ele>
        <time>2022-10-04T06:52:38.147Z</time>
      </trkpt>
      <trkpt lat="45.29996" lon="5.6131">
        <ele>240.038059</ele>
        <time>2022-10-04T06:52:40.143Z</time>
      </trkpt>
      <trkpt lat="45.30004" lon="5.61295">
        <ele>240.215281</ele>
        <time>2022-10-04T06:52:42.147Z</time>
      </trkpt>
      <trkpt lat="45.3001" lon="5.61279">
        <ele>240.384393</ele>
        <time>2022-10-04T06:52:44.144Z</time>
      </trkpt>
      <trkpt lat="45.30017" lon="5.61263">
        <ele>240.559541</ele>
        <time>2022-10-04T06:52:46.155Z</time>
      </trkpt>
      <trkpt lat="45.30024" lon="5.61249">
        <ele>240.72149</ele>
        <time>2022-10-04T06:52:48.150Z</time>
      </trkpt>
      <trkpt lat="45.30031" lon="5.61233">
        <ele>240.894168</ele>
        <time>2022-10-04T06:52:50.148Z</time>
      </trkpt>
      <trkpt lat="45.30037" lon="5.61216">
        <ele>241.030132</ele>
        <time>2022-10-04T06:52:52.144Z</time>
      </trkpt>
      <trkpt lat="45.30044" lon="5.61199">
        <ele>241.126812</ele>
        <time>2022-10-04T06:52:54.144Z</time>
      </trkpt>
      <trkpt lat="45.30051" lon="5.61183">
        <ele>241.22312</ele>
        <time>2022-10-04T06:52:56.145Z</time>
      </trkpt>
      <trkpt lat="45.30057" lon="5.61166">
        <ele>241.321381</ele>
        <time>2022-10-04T06:52:58.146Z</time>
      </trkpt>
      <trkpt lat="45.30065" lon="5.61151">
        <ele>241.414869</ele>
        <time>2022-10-04T06:53:00.143Z</time>
      </trkpt>
      <trkpt lat="45.30071" lon="5.61136">
        <ele>241.508601</ele>
        <time>2022-10-04T06:53:02.148Z</time>
      </trkpt>
      <trkpt lat="45.30078" lon="5.6112">
        <ele>241.60135</ele>
        <time>2022-10-04T06:53:04.147Z</time>
      </trkpt>
      <trkpt lat="45.30085" lon="5.61104">
        <ele>241.69759</ele>
        <time>2022-10-04T06:53:06.145Z</time>
      </trkpt>
      <trkpt lat="45.30091" lon="5.61087">
        <ele>241.795803</ele>
        <time>2022-10-04T06:53:08.146Z</time>
      </trkpt>
      <trkpt lat="45.30097" lon="5.6107">
        <ele>241.892365</ele>
        <time>2022-10-04T06:53:10.145Z</time>
      </trkpt>
      <trkpt lat="45.30103" lon="5.61054">
        <ele>241.98563</ele>
        <time>2022-10-04T06:53:12.147Z</time>
      </trkpt>
      <trkpt lat="45.30109" lon="5.61038">
        <ele>242.080494</ele>
        <time>2022-10-04T06:53:14.147Z</time>
      </trkpt>
      <trkpt lat="45.30116" lon="5.61023">
        <ele>242.172318</ele>
        <time>2022-10-04T06:53:16.145Z</time>
      </trkpt>
      <trkpt lat="45.30122" lon="5.61006">
        <ele>242.267815</ele>
        <time>2022-10-04T06:53:18.145Z</time>
      </trkpt>
      <trkpt lat="45.3013" lon="5.60992">
        <ele>242.391238</ele>
        <time>2022-10-04T06:53:20.144Z</time>
      </trkpt>
      <trkpt lat="45.30136" lon="5.60974">
        <ele>242.524834</ele>
        <time>2022-10-04T06:53:22.145Z</time>
      </trkpt>
      <trkpt lat="45.30143" lon="5.60958">
        <ele>242.655479</ele>
        <time>2022-10-04T06:53:24.147Z</time>
      </trkpt>
      <trkpt lat="45.3015" lon="5.60943">
        <ele>242.782155</ele>
        <time>2022-10-04T06:53:26.151Z</time>
      </trkpt>
      <trkpt lat="45.30157" lon="5.60927">
        <ele>242.906691</ele>
        <time>2022-10-04T06:53:28.147Z</time>
      </trkpt>
      <trkpt lat="45.30163" lon="5.60911">
        <ele>243.032842</ele>
        <time>2022-10-04T06:53:30.146Z</time>
      </trkpt>
      <trkpt lat="45.30169" lon="5.60895">
        <ele>243.161039</ele>
        <time>2022-10-04T06:53:32.145Z</time>
      </trkpt>
      <trkpt lat="45.30175" lon="5.60879">
        <ele>243.286112</ele>
        <time>2022-10-04T06:53:34.140Z</time>
      </trkpt>
      <trkpt lat="45.30183" lon="5.60863">
        <ele>243.416701</ele>
        <time>2022-10-04T06:53:36.145Z</time>
      </trkpt>
      <trkpt lat="45.30189" lon="5.60845">
        <ele>243.557045</ele>
        <time>2022-10-04T06:53:38.145Z</time>
      </trkpt>
      <trkpt lat="45.30196" lon="5.6083">
        <ele>243.683596</ele>
        <time>2022-10-04T06:53:40.145Z</time>
      </trkpt>
      <trkpt lat="45.30203" lon="5.60816">
        <ele>243.801175</ele>
        <time>2022-10-04T06:53:42.143Z</time>
      </trkpt>
      <trkpt lat="45.30209" lon="5.608">
        <ele>243.928537</ele>
        <time>2022-10-04T06:53:44.150Z</time>
      </trkpt>
      <trkpt lat="45.30215" lon="5.60784">
        <ele>244.0521</ele>
        <time>2022-10-04T06:53:46.143Z</time>
      </trkpt>
      <trkpt lat="45.30222" lon="5.60767">
        <ele>244.128886</ele>
        <time>2022-10-04T06:53:48.148Z</time>
      </trkpt>
      <trkpt lat="45.30228" lon="5.60751">
        <ele>244.200598</ele>
        <time>2022-10-04T06:53:50.142Z</time>
      </trkpt>
      <trkpt lat="45.30234" lon="5.60734">
        <ele>244.278633</ele>
        <time>2022-10-04T06:53:52.146Z</time>
      </trkpt>
      <trkpt lat="45.3024" lon="5.60717">
        <ele>244.356376</ele>
        <time>2022-10-04T06:53:54.145Z</time>
      </trkpt>
      <trkpt lat="45.30245" lon="5.60699">
        <ele>244.433029</ele>
        <time>2022-10-04T06:53:56.145Z</time>
      </trkpt>
      <trkpt lat="45.30251" lon="5.60683">
        <ele>244.506509</ele>
        <time>2022-10-04T06:53:58.154Z</time>
      </trkpt>
      <trkpt lat="45.30256" lon="5.60666">
        <ele>244.583258</ele>
        <time>2022-10-04T06:54:00.146Z</time>
      </trkpt>
      <trkpt lat="45.3026" lon="5.60648">
        <ele>244.659445</ele>
        <time>2022-10-04T06:54:02.143Z</time>
      </trkpt>
      <trkpt lat="45.30264" lon="5.6063">
        <ele>244.735161</ele>
        <time>2022-10-04T06:54:04.151Z</time>
      </trkpt>
      <trkpt lat="45.30268" lon="5.60612">
        <ele>244.809436</ele>
        <time>2022-10-04T06:54:06.148Z</time>
      </trkpt>
      <trkpt lat="45.3027" lon="5.60593">
        <ele>244.888201</ele>
        <time>2022-10-04T06:54:08.143Z</time>
      </trkpt>
      <trkpt lat="45.30274" lon="5.60576">
        <ele>244.959172</ele>
        <time>2022-10-04T06:54:10.148Z</time>
      </trkpt>
      <trkpt lat="45.30276" lon="5.60559">
        <ele>245.03137</ele>
        <time>2022-10-04T06:54:12.146Z</time>
      </trkpt>
      <trkpt lat="45.30278" lon="5.6054">
        <ele>245.078279</ele>
        <time>2022-10-04T06:54:14.148Z</time>
      </trkpt>
      <trkpt lat="45.30282" lon="5.60524">
        <ele>245.073512</ele>
        <time>2022-10-04T06:54:16.143Z</time>
      </trkpt>
      <trkpt lat="45.30284" lon="5.60505">
        <ele>245.067782</ele>
        <time>2022-10-04T06:54:18.147Z</time>
      </trkpt>
      <trkpt lat="45.30289" lon="5.60489">
        <ele>245.062862</ele>
        <time>2022-10-04T06:54:20.140Z</time>
      </trkpt>
      <trkpt lat="45.30291" lon="5.60471">
        <ele>245.057487</ele>
        <time>2022-10-04T06:54:22.148Z</time>
      </trkpt>
      <trkpt lat="45.30294" lon="5.60451">
        <ele>245.051737</ele>
        <time>2022-10-04T06:54:24.145Z</time>
      </trkpt>
      <trkpt lat="45.30297" lon="5.60432">
        <ele>245.046099</ele>
        <time>2022-10-04T06:54:26.146Z</time>
      </trkpt>
      <trkpt lat="45.30299" lon="5.60413">
        <ele>245.040461</ele>
        <time>2022-10-04T06:54:28.143Z</time>
      </trkpt>
      <trkpt lat="45.30301" lon="5.60393">
        <ele>245.034595</ele>
        <time>2022-10-04T06:54:30.149Z</time>
      </trkpt>
      <trkpt lat="45.30302" lon="5.60374">
        <ele>245.029019</ele>
        <time>2022-10-04T06:54:32.141Z</time>
      </trkpt>
      <trkpt lat="45.30305" lon="5.60356">
        <ele>245.02387</ele>
        <time>2022-10-04T06:54:34.145Z</time>
      </trkpt>
      <trkpt lat="45.30307" lon="5.60338">
        <ele>245.018566</ele>
        <time>2022-10-04T06:54:36.145Z</time>
      </trkpt>
      <trkpt lat="45.30308" lon="5.60319">
        <ele>245.01308</ele>
        <time>2022-10-04T06:54:38.144Z</time>
      </trkpt>
      <trkpt lat="45.30311" lon="5.60305">
        <ele>245.008755</ele>
        <time>2022-10-04T06:54:40.144Z</time>
      </trkpt>
      <trkpt lat="45.30313" lon="5.60288">
        <ele>244.942398</ele>
        <time>2022-10-04T06:54:42.144Z</time>
      </trkpt>
      <trkpt lat="45.30314" lon="5.6027">
        <ele>244.807924</ele>
        <time>2022-10-04T06:54:44.142Z</time>
      </trkpt>
      <trkpt lat="45.30315" lon="5.6025">
        <ele>244.663659</ele>
        <time>2022-10-04T06:54:46.148Z</time>
      </trkpt>
      <trkpt lat="45.30316" lon="5.60233">
        <ele>244.535648</ele>
        <time>2022-10-04T06:54:48.142Z</time>
      </trkpt>
      <trkpt lat="45.30315" lon="5.60213">
        <ele>244.393583</ele>
        <time>2022-10-04T06:54:50.149Z</time>
      </trkpt>
      <trkpt lat="45.30315" lon="5.60192">
        <ele>244.233394</ele>
        <time>2022-10-04T06:54:52.143Z</time>
      </trkpt>
      <trkpt lat="45.30316" lon="5.60172">
        <ele>244.090291</ele>
        <time>2022-10-04T06:54:54.147Z</time>
      </trkpt>
      <trkpt lat="45.30317" lon="5.60153">
        <ele>243.951579</ele>
        <time>2022-10-04T06:54:56.147Z</time>
      </trkpt>
      <trkpt lat="45.30319" lon="5.60134">
        <ele>243.81041</ele>
        <time>2022-10-04T06:54:58.145Z</time>
      </trkpt>
      <trkpt lat="45.30319" lon="5.60113">
        <ele>243.656086</ele>
        <time>2022-10-04T06:55:00.148Z</time>
      </trkpt>
      <trkpt lat="45.3032" lon="5.60091">
        <ele>243.491953</ele>
        <time>2022-10-04T06:55:02.145Z</time>
      </trkpt>
      <trkpt lat="45.3032" lon="5.6007">
        <ele>243.333938</ele>
        <time>2022-10-04T06:55:04.147Z</time>
      </trkpt>
      <trkpt lat="45.30319" lon="5.60048">
        <ele>243.17046</ele>
        <time>2022-10-04T06:55:06.148Z</time>
      </trkpt>
      <trkpt lat="45.30317" lon="5.60034">
        <ele>243.106931</ele>
        <time>2022-10-04T06:55:07.147Z</time>
      </trkpt>
      <trkpt lat="45.30317" lon="5.60019">
        <ele>243.066811</ele>
        <time>2022-10-04T06:55:08.150Z</time>
      </trkpt>
      <trkpt lat="45.30319" lon="5.59994">
        <ele>242.999582</ele>
        <time>2022-10-04T06:55:10.147Z</time>
      </trkpt>
      <trkpt lat="45.3032" lon="5.59975">
        <ele>242.949047</ele>
        <time>2022-10-04T06:55:12.144Z</time>
      </trkpt>
      <trkpt lat="45.30321" lon="5.59958">
        <ele>242.904119</ele>
        <time>2022-10-04T06:55:14.151Z</time>
      </trkpt>
      <trkpt lat="45.30324" lon="5.59945">
        <ele>242.869426</ele>
        <time>2022-10-04T06:55:16.144Z</time>
      </trkpt>
      <trkpt lat="45.30327" lon="5.59929">
        <ele>242.826906</ele>
        <time>2022-10-04T06:55:18.150Z</time>
      </trkpt>
      <trkpt lat="45.3033" lon="5.59913">
        <ele>242.782712</ele>
        <time>2022-10-04T06:55:20.145Z</time>
      </trkpt>
      <trkpt lat="45.3033" lon="5.59897">
        <ele>242.739203</ele>
        <time>2022-10-04T06:55:22.144Z</time>
      </trkpt>
      <trkpt lat="45.3033" lon="5.59878">
        <ele>242.689657</ele>
        <time>2022-10-04T06:55:24.142Z</time>
      </trkpt>
      <trkpt lat="45.30331" lon="5.59859">
        <ele>242.639735</ele>
        <time>2022-10-04T06:55:26.148Z</time>
      </trkpt>
      <trkpt lat="45.30333" lon="5.59842">
        <ele>242.594796</ele>
        <time>2022-10-04T06:55:28.144Z</time>
      </trkpt>
      <trkpt lat="45.30333" lon="5.59824">
        <ele>242.547814</ele>
        <time>2022-10-04T06:55:30.145Z</time>
      </trkpt>
      <trkpt lat="45.30334" lon="5.59806">
        <ele>242.498944</ele>
        <time>2022-10-04T06:55:32.142Z</time>
      </trkpt>
      <trkpt lat="45.30334" lon="5.59788">
        <ele>242.43214</ele>
        <time>2022-10-04T06:55:34.144Z</time>
      </trkpt>
      <trkpt lat="45.30333" lon="5.59771">
        <ele>242.053394</ele>
        <time>2022-10-04T06:55:36.147Z</time>
      </trkpt>
      <trkpt lat="45.30331" lon="5.59753">
        <ele>241.655698</ele>
        <time>2022-10-04T06:55:38.142Z</time>
      </trkpt>
      <trkpt lat="45.30329" lon="5.59734">
        <ele>241.243832</ele>
        <time>2022-10-04T06:55:40.143Z</time>
      </trkpt>
      <trkpt lat="45.30327" lon="5.59717">
        <ele>240.862086</ele>
        <time>2022-10-04T06:55:42.149Z</time>
      </trkpt>
      <trkpt lat="45.30325" lon="5.597">
        <ele>240.491765</ele>
        <time>2022-10-04T06:55:44.142Z</time>
      </trkpt>
      <trkpt lat="45.30322" lon="5.59681">
        <ele>240.065103</ele>
        <time>2022-10-04T06:55:46.142Z</time>
      </trkpt>
      <trkpt lat="45.3032" lon="5.59663">
        <ele>239.646224</ele>
        <time>2022-10-04T06:55:48.145Z</time>
      </trkpt>
      <trkpt lat="45.30319" lon="5.59644">
        <ele>239.228191</ele>
        <time>2022-10-04T06:55:50.146Z</time>
      </trkpt>
      <trkpt lat="45.30317" lon="5.59626">
        <ele>238.848302</ele>
        <time>2022-10-04T06:55:52.146Z</time>
      </trkpt>
      <trkpt lat="45.30316" lon="5.59608">
        <ele>238.435594</ele>
        <time>2022-10-04T06:55:54.145Z</time>
      </trkpt>
      <trkpt lat="45.30315" lon="5.59589">
        <ele>238.015714</ele>
        <time>2022-10-04T06:55:56.145Z</time>
      </trkpt>
      <trkpt lat="45.30315" lon="5.5957">
        <ele>237.593434</ele>
        <time>2022-10-04T06:55:58.145Z</time>
      </trkpt>
      <trkpt lat="45.30316" lon="5.59553">
        <ele>237.218492</ele>
        <time>2022-10-04T06:56:00.143Z</time>
      </trkpt>
      <trkpt lat="45.30316" lon="5.59533">
        <ele>236.86471</ele>
        <time>2022-10-04T06:56:02.145Z</time>
      </trkpt>
      <trkpt lat="45.30316" lon="5.59515">
        <ele>237.12136</ele>
        <time>2022-10-04T06:56:04.148Z</time>
      </trkpt>
      <trkpt lat="45.30316" lon="5.59498">
        <ele>237.356659</ele>
        <time>2022-10-04T06:56:06.144Z</time>
      </trkpt>
      <trkpt lat="45.30317" lon="5.59479">
        <ele>237.620645</ele>
        <time>2022-10-04T06:56:08.147Z</time>
      </trkpt>
      <trkpt lat="45.30317" lon="5.59459">
        <ele>237.909828</ele>
        <time>2022-10-04T06:56:10.144Z</time>
      </trkpt>
      <trkpt lat="45.30317" lon="5.59438">
        <ele>238.203207</ele>
        <time>2022-10-04T06:56:12.146Z</time>
      </trkpt>
      <trkpt lat="45.30318" lon="5.59421">
        <ele>238.449097</ele>
        <time>2022-10-04T06:56:14.141Z</time>
      </trkpt>
      <trkpt lat="45.30319" lon="5.59401">
        <ele>238.728325</ele>
        <time>2022-10-04T06:56:16.144Z</time>
      </trkpt>
      <trkpt lat="45.30318" lon="5.59382">
        <ele>238.999388</ele>
        <time>2022-10-04T06:56:18.144Z</time>
      </trkpt>
      <trkpt lat="45.30318" lon="5.59366">
        <ele>239.236147</ele>
        <time>2022-10-04T06:56:20.147Z</time>
      </trkpt>
      <trkpt lat="45.30317" lon="5.59347">
        <ele>239.506696</ele>
        <time>2022-10-04T06:56:22.143Z</time>
      </trkpt>
      <trkpt lat="45.30314" lon="5.59327">
        <ele>239.792538</ele>
        <time>2022-10-04T06:56:24.145Z</time>
      </trkpt>
      <trkpt lat="45.30312" lon="5.59309">
        <ele>240.045539</ele>
        <time>2022-10-04T06:56:26.143Z</time>
      </trkpt>
      <trkpt lat="45.30309" lon="5.59293">
        <ele>240.290846</ele>
        <time>2022-10-04T06:56:28.146Z</time>
      </trkpt>
      <trkpt lat="45.30305" lon="5.59272">
        <ele>241.204824</ele>
        <time>2022-10-04T06:56:30.144Z</time>
      </trkpt>
      <trkpt lat="45.30302" lon="5.59253">
        <ele>242.663292</ele>
        <time>2022-10-04T06:56:32.144Z</time>
      </trkpt>
      <trkpt lat="45.30298" lon="5.59235">
        <ele>244.122173</ele>
        <time>2022-10-04T06:56:34.142Z</time>
      </trkpt>
      <trkpt lat="45.30294" lon="5.59216">
        <ele>245.633977</ele>
        <time>2022-10-04T06:56:36.144Z</time>
      </trkpt>
      <trkpt lat="45.3029" lon="5.59197">
        <ele>247.105056</ele>
        <time>2022-10-04T06:56:38.142Z</time>
      </trkpt>
      <trkpt lat="45.30287" lon="5.59179">
        <ele>248.541282</ele>
        <time>2022-10-04T06:56:40.151Z</time>
      </trkpt>
      <trkpt lat="45.30284" lon="5.59159">
        <ele>250.086235</ele>
        <time>2022-10-04T06:56:42.139Z</time>
      </trkpt>
      <trkpt lat="45.30278" lon="5.5914">
        <ele>251.683908</ele>
        <time>2022-10-04T06:56:44.145Z</time>
      </trkpt>
      <trkpt lat="45.30276" lon="5.59123">
        <ele>252.987476</ele>
        <time>2022-10-04T06:56:46.145Z</time>
      </trkpt>
      <trkpt lat="45.30271" lon="5.59106">
        <ele>254.356677</ele>
        <time>2022-10-04T06:56:48.145Z</time>
      </trkpt>
      <trkpt lat="45.30267" lon="5.59089">
        <ele>255.711359</ele>
        <time>2022-10-04T06:56:50.144Z</time>
      </trkpt>
      <trkpt lat="45.30263" lon="5.59071">
        <ele>257.185467</ele>
        <time>2022-10-04T06:56:52.145Z</time>
      </trkpt>
      <trkpt lat="45.3026" lon="5.59055">
        <ele>258.461669</ele>
        <time>2022-10-04T06:56:54.143Z</time>
      </trkpt>
      <trkpt lat="45.30255" lon="5.59039">
        <ele>259.802446</ele>
        <time>2022-10-04T06:56:56.140Z</time>
      </trkpt>
      <trkpt lat="45.30249" lon="5.59022">
        <ele>259.905848</ele>
        <time>2022-10-04T06:56:58.144Z</time>
      </trkpt>
      <trkpt lat="45.30242" lon="5.59003">
        <ele>259.871055</ele>
        <time>2022-10-04T06:57:00.145Z</time>
      </trkpt>
      <trkpt lat="45.30235" lon="5.58988">
        <ele>259.842201</ele>
        <time>2022-10-04T06:57:02.146Z</time>
      </trkpt>
      <trkpt lat="45.3023" lon="5.58971">
        <ele>259.8118</ele>
        <time>2022-10-04T06:57:04.145Z</time>
      </trkpt>
      <trkpt lat="45.30224" lon="5.58955">
        <ele>259.782193</ele>
        <time>2022-10-04T06:57:06.145Z</time>
      </trkpt>
      <trkpt lat="45.30217" lon="5.58937">
        <ele>259.748905</ele>
        <time>2022-10-04T06:57:08.149Z</time>
      </trkpt>
      <trkpt lat="45.30211" lon="5.58922">
        <ele>259.722185</ele>
        <time>2022-10-04T06:57:10.144Z</time>
      </trkpt>
      <trkpt lat="45.30203" lon="5.58905">
        <ele>259.688971</ele>
        <time>2022-10-04T06:57:12.151Z</time>
      </trkpt>
      <trkpt lat="45.30196" lon="5.58887">
        <ele>259.653901</ele>
        <time>2022-10-04T06:57:14.145Z</time>
      </trkpt>
      <trkpt lat="45.3019" lon="5.58871">
        <ele>259.624095</ele>
        <time>2022-10-04T06:57:16.148Z</time>
      </trkpt>
      <trkpt lat="45.30183" lon="5.58857">
        <ele>259.598061</ele>
        <time>2022-10-04T06:57:18.142Z</time>
      </trkpt>
      <trkpt lat="45.30177" lon="5.58843">
        <ele>259.570322</ele>
        <time>2022-10-04T06:57:20.148Z</time>
      </trkpt>
      <trkpt lat="45.30169" lon="5.58827">
        <ele>259.537891</ele>
        <time>2022-10-04T06:57:22.147Z</time>
      </trkpt>
      <trkpt lat="45.3016" lon="5.58812">
        <ele>259.08938</ele>
        <time>2022-10-04T06:57:24.149Z</time>
      </trkpt>
      <trkpt lat="45.30152" lon="5.58796">
        <ele>257.837636</ele>
        <time>2022-10-04T06:57:26.146Z</time>
      </trkpt>
      <trkpt lat="45.30143" lon="5.5878">
        <ele>256.594244</ele>
        <time>2022-10-04T06:57:28.144Z</time>
      </trkpt>
      <trkpt lat="45.30134" lon="5.58765">
        <ele>255.361947</ele>
        <time>2022-10-04T06:57:30.146Z</time>
      </trkpt>
      <trkpt lat="45.30127" lon="5.58752">
        <ele>254.295921</ele>
        <time>2022-10-04T06:57:32.141Z</time>
      </trkpt>
      <trkpt lat="45.30118" lon="5.58741">
        <ele>253.269048</ele>
        <time>2022-10-04T06:57:34.145Z</time>
      </trkpt>
      <trkpt lat="45.3011" lon="5.58727">
        <ele>252.137851</ele>
        <time>2022-10-04T06:57:36.146Z</time>
      </trkpt>
      <trkpt lat="45.30102" lon="5.58713">
        <ele>251.026784</ele>
        <time>2022-10-04T06:57:38.144Z</time>
      </trkpt>
      <trkpt lat="45.30093" lon="5.58697">
        <ele>249.787598</ele>
        <time>2022-10-04T06:57:40.151Z</time>
      </trkpt>
      <trkpt lat="45.30084" lon="5.58685">
        <ele>248.640682</ele>
        <time>2022-10-04T06:57:42.141Z</time>
      </trkpt>
      <trkpt lat="45.30075" lon="5.58671">
        <ele>247.46799</ele>
        <time>2022-10-04T06:57:44.146Z</time>
      </trkpt>
      <trkpt lat="45.30065" lon="5.58658">
        <ele>246.295393</ele>
        <time>2022-10-04T06:57:46.148Z</time>
      </trkpt>
      <trkpt lat="45.30056" lon="5.58646">
        <ele>245.15954</ele>
        <time>2022-10-04T06:57:48.145Z</time>
      </trkpt>
      <trkpt lat="45.30046" lon="5.58632">
        <ele>243.979538</ele>
        <time>2022-10-04T06:57:50.144Z</time>
      </trkpt>
      <trkpt lat="45.30038" lon="5.58619">
        <ele>244.541037</ele>
        <time>2022-10-04T06:57:52.143Z</time>
      </trkpt>
      <trkpt lat="45.30028" lon="5.58606">
        <ele>245.952869</ele>
        <time>2022-10-04T06:57:54.147Z</time>
      </trkpt>
      <trkpt lat="45.30018" lon="5.5859">
        <ele>247.623842</ele>
        <time>2022-10-04T06:57:56.149Z</time>
      </trkpt>
      <trkpt lat="45.30008" lon="5.58577">
        <ele>249.040094</ele>
        <time>2022-10-04T06:57:58.144Z</time>
      </trkpt>
      <trkpt lat="45.3" lon="5.58563">
        <ele>250.406712</ele>
        <time>2022-10-04T06:58:00.144Z</time>
      </trkpt>
      <trkpt lat="45.29992" lon="5.58555">
        <ele>251.451821</ele>
        <time>2022-10-04T06:58:02.148Z</time>
      </trkpt>
      <trkpt lat="45.29984" lon="5.58542">
        <ele>252.843382</ele>
        <time>2022-10-04T06:58:04.145Z</time>
      </trkpt>
      <trkpt lat="45.29975" lon="5.58526">
        <ele>254.373824</ele>
        <time>2022-10-04T06:58:06.148Z</time>
      </trkpt>
      <trkpt lat="45.29966" lon="5.58509">
        <ele>255.97357</ele>
        <time>2022-10-04T06:58:08.158Z</time>
      </trkpt>
      <trkpt lat="45.29957" lon="5.58495">
        <ele>257.47649</ele>
        <time>2022-10-04T06:58:10.146Z</time>
      </trkpt>
      <trkpt lat="45.29948" lon="5.58484">
        <ele>258.7408</ele>
        <time>2022-10-04T06:58:12.146Z</time>
      </trkpt>
      <trkpt lat="45.29937" lon="5.5847">
        <ele>260.319077</ele>
        <time>2022-10-04T06:58:14.144Z</time>
      </trkpt>
      <trkpt lat="45.29926" lon="5.58457">
        <ele>261.886139</ele>
        <time>2022-10-04T06:58:16.143Z</time>
      </trkpt>
      <trkpt lat="45.29917" lon="5.58444">
        <ele>263.033471</ele>
        <time>2022-10-04T06:58:18.154Z</time>
      </trkpt>
      <trkpt lat="45.29908" lon="5.5843">
        <ele>262.688789</ele>
        <time>2022-10-04T06:58:20.151Z</time>
      </trkpt>
      <trkpt lat="45.29897" lon="5.58418">
        <ele>262.358297</ele>
        <time>2022-10-04T06:58:22.145Z</time>
      </trkpt>
      <trkpt lat="45.29886" lon="5.58404">
        <ele>261.986355</ele>
        <time>2022-10-04T06:58:24.143Z</time>
      </trkpt>
      <trkpt lat="45.29877" lon="5.5839">
        <ele>261.663733</ele>
        <time>2022-10-04T06:58:26.145Z</time>
      </trkpt>
      <trkpt lat="45.29868" lon="5.58377">
        <ele>261.335516</ele>
        <time>2022-10-04T06:58:28.144Z</time>
      </trkpt>
      <trkpt lat="45.29859" lon="5.58363">
        <ele>261.019042</ele>
        <time>2022-10-04T06:58:30.143Z</time>
      </trkpt>
      <trkpt lat="45.29851" lon="5.58349">
        <ele>260.696686</ele>
        <time>2022-10-04T06:58:32.143Z</time>
      </trkpt>
      <trkpt lat="45.29842" lon="5.58337">
        <ele>260.378012</ele>
        <time>2022-10-04T06:58:34.149Z</time>
      </trkpt>
      <trkpt lat="45.29834" lon="5.58323">
        <ele>260.073281</ele>
        <time>2022-10-04T06:58:36.145Z</time>
      </trkpt>
      <trkpt lat="45.29825" lon="5.5831">
        <ele>259.767919</ele>
        <time>2022-10-04T06:58:38.151Z</time>
      </trkpt>
      <trkpt lat="45.29817" lon="5.58298">
        <ele>259.466045</ele>
        <time>2022-10-04T06:58:40.144Z</time>
      </trkpt>
      <trkpt lat="45.29808" lon="5.58284">
        <ele>259.137475</ele>
        <time>2022-10-04T06:58:42.145Z</time>
      </trkpt>
      <trkpt lat="45.29797" lon="5.5827">
        <ele>258.769421</ele>
        <time>2022-10-04T06:58:44.146Z</time>
      </trkpt>
      <trkpt lat="45.29787" lon="5.58257">
        <ele>257.960791</ele>
        <time>2022-10-04T06:58:46.148Z</time>
      </trkpt>
      <trkpt lat="45.29777" lon="5.58245">
        <ele>256.750854</ele>
        <time>2022-10-04T06:58:48.146Z</time>
      </trkpt>
      <trkpt lat="45.29769" lon="5.5823">
        <ele>255.566366</ele>
        <time>2022-10-04T06:58:50.146Z</time>
      </trkpt>
      <trkpt lat="45.29759" lon="5.58216">
        <ele>254.30454</ele>
        <time>2022-10-04T06:58:52.143Z</time>
      </trkpt>
      <trkpt lat="45.29751" lon="5.58202">
        <ele>253.12351</ele>
        <time>2022-10-04T06:58:54.144Z</time>
      </trkpt>
      <trkpt lat="45.29741" lon="5.5819">
        <ele>251.901965</ele>
        <time>2022-10-04T06:58:56.145Z</time>
      </trkpt>
      <trkpt lat="45.29733" lon="5.58176">
        <ele>250.697906</ele>
        <time>2022-10-04T06:58:58.143Z</time>
      </trkpt>
      <trkpt lat="45.29724" lon="5.58161">
        <ele>249.440751</ele>
        <time>2022-10-04T06:59:00.144Z</time>
      </trkpt>
      <trkpt lat="45.29716" lon="5.58145">
        <ele>248.213923</ele>
        <time>2022-10-04T06:59:02.144Z</time>
      </trkpt>
      <trkpt lat="45.29709" lon="5.58129">
        <ele>246.996316</ele>
        <time>2022-10-04T06:59:04.144Z</time>
      </trkpt>
      <trkpt lat="45.29702" lon="5.58113">
        <ele>245.784147</ele>
        <time>2022-10-04T06:59:06.142Z</time>
      </trkpt>
      <trkpt lat="45.29695" lon="5.58098">
        <ele>244.631126</ele>
        <time>2022-10-04T06:59:08.149Z</time>
      </trkpt>
      <trkpt lat="45.2969" lon="5.58081">
        <ele>243.459325</ele>
        <time>2022-10-04T06:59:10.141Z</time>
      </trkpt>
      <trkpt lat="45.29685" lon="5.58065">
        <ele>242.289649</ele>
        <time>2022-10-04T06:59:12.143Z</time>
      </trkpt>
      <trkpt lat="45.2968" lon="5.58048">
        <ele>241.973398</ele>
        <time>2022-10-04T06:59:14.145Z</time>
      </trkpt>
      <trkpt lat="45.29676" lon="5.58031">
        <ele>241.754801</ele>
        <time>2022-10-04T06:59:16.145Z</time>
      </trkpt>
      <trkpt lat="45.29672" lon="5.58014">
        <ele>241.54571</ele>
        <time>2022-10-04T06:59:18.144Z</time>
      </trkpt>
      <trkpt lat="45.29668" lon="5.57997">
        <ele>241.341906</ele>
        <time>2022-10-04T06:59:20.149Z</time>
      </trkpt>
      <trkpt lat="45.29664" lon="5.5798">
        <ele>241.127728</ele>
        <time>2022-10-04T06:59:22.144Z</time>
      </trkpt>
      <trkpt lat="45.29659" lon="5.57963">
        <ele>240.907735</ele>
        <time>2022-10-04T06:59:24.146Z</time>
      </trkpt>
      <trkpt lat="45.29656" lon="5.57943">
        <ele>240.671807</ele>
        <time>2022-10-04T06:59:26.144Z</time>
      </trkpt>
      <trkpt lat="45.29653" lon="5.57925">
        <ele>240.457494</ele>
        <time>2022-10-04T06:59:28.144Z</time>
      </trkpt>
      <trkpt lat="45.29648" lon="5.57906">
        <ele>240.214642</ele>
        <time>2022-10-04T06:59:30.148Z</time>
      </trkpt>
      <trkpt lat="45.29644" lon="5.57887">
        <ele>239.989667</ele>
        <time>2022-10-04T06:59:32.148Z</time>
      </trkpt>
      <trkpt lat="45.29642" lon="5.57869">
        <ele>239.771951</ele>
        <time>2022-10-04T06:59:34.142Z</time>
      </trkpt>
      <trkpt lat="45.2964" lon="5.57852">
        <ele>239.570045</ele>
        <time>2022-10-04T06:59:36.143Z</time>
      </trkpt>
      <trkpt lat="45.29639" lon="5.57834">
        <ele>239.353322</ele>
        <time>2022-10-04T06:59:38.145Z</time>
      </trkpt>
      <trkpt lat="45.29637" lon="5.57815">
        <ele>239.14345</ele>
        <time>2022-10-04T06:59:40.145Z</time>
      </trkpt>
      <trkpt lat="45.29637" lon="5.57796">
        <ele>239.03172</ele>
        <time>2022-10-04T06:59:42.144Z</time>
      </trkpt>
      <trkpt lat="45.29637" lon="5.57779">
        <ele>238.926637</ele>
        <time>2022-10-04T06:59:44.148Z</time>
      </trkpt>
      <trkpt lat="45.29637" lon="5.5776">
        <ele>238.808227</ele>
        <time>2022-10-04T06:59:46.146Z</time>
      </trkpt>
      <trkpt lat="45.29637" lon="5.57741">
        <ele>238.69285</ele>
        <time>2022-10-04T06:59:48.145Z</time>
      </trkpt>
      <trkpt lat="45.29637" lon="5.57722">
        <ele>238.579852</ele>
        <time>2022-10-04T06:59:50.143Z</time>
      </trkpt>
      <trkpt lat="45.29638" lon="5.57705">
        <ele>238.475926</ele>
        <time>2022-10-04T06:59:52.145Z</time>
      </trkpt>
      <trkpt lat="45.2964" lon="5.57686">
        <ele>238.360714</ele>
        <time>2022-10-04T06:59:54.151Z</time>
      </trkpt>
      <trkpt lat="45.29641" lon="5.57665">
        <ele>238.234115</ele>
        <time>2022-10-04T06:59:56.145Z</time>
      </trkpt>
      <trkpt lat="45.29645" lon="5.57648">
        <ele>238.126378</ele>
        <time>2022-10-04T06:59:58.145Z</time>
      </trkpt>
      <trkpt lat="45.29648" lon="5.57631">
        <ele>238.017972</ele>
        <time>2022-10-04T07:00:00.146Z</time>
      </trkpt>
      <trkpt lat="45.29651" lon="5.57613">
        <ele>237.904339</ele>
        <time>2022-10-04T07:00:02.144Z</time>
      </trkpt>
      <trkpt lat="45.29657" lon="5.57595">
        <ele>237.783919</ele>
        <time>2022-10-04T07:00:04.150Z</time>
      </trkpt>
      <trkpt lat="45.29661" lon="5.57576">
        <ele>237.666192</ele>
        <time>2022-10-04T07:00:06.147Z</time>
      </trkpt>
      <trkpt lat="45.29663" lon="5.57558">
        <ele>237.616319</ele>
        <time>2022-10-04T07:00:08.143Z</time>
      </trkpt>
      <trkpt lat="45.29668" lon="5.57544">
        <ele>237.63555</ele>
        <time>2022-10-04T07:00:10.149Z</time>
      </trkpt>
      <trkpt lat="45.29674" lon="5.57528">
        <ele>237.656656</ele>
        <time>2022-10-04T07:00:12.145Z</time>
      </trkpt>
      <trkpt lat="45.29679" lon="5.5751">
        <ele>237.680023</ele>
        <time>2022-10-04T07:00:14.147Z</time>
      </trkpt>
      <trkpt lat="45.29684" lon="5.57492">
        <ele>237.703415</ele>
        <time>2022-10-04T07:00:16.142Z</time>
      </trkpt>
      <trkpt lat="45.2969" lon="5.57474">
        <ele>237.726817</ele>
        <time>2022-10-04T07:00:18.144Z</time>
      </trkpt>
      <trkpt lat="45.29694" lon="5.57457">
        <ele>237.749159</ele>
        <time>2022-10-04T07:00:20.150Z</time>
      </trkpt>
      <trkpt lat="45.29699" lon="5.57441">
        <ele>237.770536</ele>
        <time>2022-10-04T07:00:22.148Z</time>
      </trkpt>
      <trkpt lat="45.29703" lon="5.57422">
        <ele>237.793727</ele>
        <time>2022-10-04T07:00:24.145Z</time>
      </trkpt>
      <trkpt lat="45.29708" lon="5.57405">
        <ele>237.815624</ele>
        <time>2022-10-04T07:00:26.145Z</time>
      </trkpt>
      <trkpt lat="45.29713" lon="5.57389">
        <ele>237.83718</ele>
        <time>2022-10-04T07:00:28.144Z</time>
      </trkpt>
      <trkpt lat="45.29718" lon="5.57371">
        <ele>237.859872</ele>
        <time>2022-10-04T07:00:30.142Z</time>
      </trkpt>
      <trkpt lat="45.29722" lon="5.57353">
        <ele>237.88347</ele>
        <time>2022-10-04T07:00:32.145Z</time>
      </trkpt>
      <trkpt lat="45.29727" lon="5.57335">
        <ele>237.906289</ele>
        <time>2022-10-04T07:00:34.148Z</time>
      </trkpt>
      <trkpt lat="45.29732" lon="5.57319">
        <ele>237.941135</ele>
        <time>2022-10-04T07:00:36.145Z</time>
      </trkpt>
      <trkpt lat="45.29737" lon="5.57301">
        <ele>237.985906</ele>
        <time>2022-10-04T07:00:38.143Z</time>
      </trkpt>
      <trkpt lat="45.29741" lon="5.57283">
        <ele>238.030901</ele>
        <time>2022-10-04T07:00:40.146Z</time>
      </trkpt>
      <trkpt lat="45.29746" lon="5.57267">
        <ele>238.071178</ele>
        <time>2022-10-04T07:00:42.143Z</time>
      </trkpt>
      <trkpt lat="45.2975" lon="5.5725">
        <ele>238.113219</ele>
        <time>2022-10-04T07:00:44.149Z</time>
      </trkpt>
      <trkpt lat="45.29755" lon="5.57232">
        <ele>238.157462</ele>
        <time>2022-10-04T07:00:46.148Z</time>
      </trkpt>
      <trkpt lat="45.29759" lon="5.57216">
        <ele>238.197904</ele>
        <time>2022-10-04T07:00:48.150Z</time>
      </trkpt>
      <trkpt lat="45.29764" lon="5.572">
        <ele>238.237571</ele>
        <time>2022-10-04T07:00:50.145Z</time>
      </trkpt>
      <trkpt lat="45.29769" lon="5.57182">
        <ele>238.282334</ele>
        <time>2022-10-04T07:00:52.146Z</time>
      </trkpt>
      <trkpt lat="45.29773" lon="5.57165">
        <ele>238.326546</ele>
        <time>2022-10-04T07:00:54.145Z</time>
      </trkpt>
      <trkpt lat="45.29778" lon="5.57147">
        <ele>238.371424</ele>
        <time>2022-10-04T07:00:56.144Z</time>
      </trkpt>
      <trkpt lat="45.29783" lon="5.57129">
        <ele>238.415663</ele>
        <time>2022-10-04T07:00:58.145Z</time>
      </trkpt>
      <trkpt lat="45.29788" lon="5.57112">
        <ele>238.459688</ele>
        <time>2022-10-04T07:01:00.146Z</time>
      </trkpt>
      <trkpt lat="45.29792" lon="5.57095">
        <ele>238.500481</ele>
        <time>2022-10-04T07:01:02.144Z</time>
      </trkpt>
      <trkpt lat="45.29796" lon="5.57076">
        <ele>238.496347</ele>
        <time>2022-10-04T07:01:04.148Z</time>
      </trkpt>
      <trkpt lat="45.29801" lon="5.57058">
        <ele>238.477606</ele>
        <time>2022-10-04T07:01:06.146Z</time>
      </trkpt>
      <trkpt lat="45.29803" lon="5.5704">
        <ele>238.459291</ele>
        <time>2022-10-04T07:01:08.146Z</time>
      </trkpt>
      <trkpt lat="45.29809" lon="5.57022">
        <ele>238.440546</ele>
        <time>2022-10-04T07:01:10.143Z</time>
      </trkpt>
      <trkpt lat="45.29813" lon="5.57007">
        <ele>238.424564</ele>
        <time>2022-10-04T07:01:12.144Z</time>
      </trkpt>
      <trkpt lat="45.29818" lon="5.5699">
        <ele>238.406282</ele>
        <time>2022-10-04T07:01:14.147Z</time>
      </trkpt>
      <trkpt lat="45.29822" lon="5.56971">
        <ele>238.387161</ele>
        <time>2022-10-04T07:01:16.147Z</time>
      </trkpt>
      <trkpt lat="45.29827" lon="5.56952">
        <ele>238.368126</ele>
        <time>2022-10-04T07:01:18.150Z</time>
      </trkpt>
      <trkpt lat="45.29831" lon="5.56935">
        <ele>238.350121</ele>
        <time>2022-10-04T07:01:20.144Z</time>
      </trkpt>
      <trkpt lat="45.29837" lon="5.5692">
        <ele>238.333566</ele>
        <time>2022-10-04T07:01:22.143Z</time>
      </trkpt>
      <trkpt lat="45.29842" lon="5.56903">
        <ele>238.315229</ele>
        <time>2022-10-04T07:01:24.148Z</time>
      </trkpt>
      <trkpt lat="45.29848" lon="5.56886">
        <ele>238.297271</ele>
        <time>2022-10-04T07:01:26.151Z</time>
      </trkpt>
      <trkpt lat="45.29853" lon="5.56869">
        <ele>238.279398</ele>
        <time>2022-10-04T07:01:28.150Z</time>
      </trkpt>
      <trkpt lat="45.29857" lon="5.5685">
        <ele>238.25971</ele>
        <time>2022-10-04T07:01:30.149Z</time>
      </trkpt>
      <trkpt lat="45.29862" lon="5.56832">
        <ele>238.235396</ele>
        <time>2022-10-04T07:01:32.155Z</time>
      </trkpt>
      <trkpt lat="45.29866" lon="5.56814">
        <ele>238.211351</ele>
        <time>2022-10-04T07:01:34.146Z</time>
      </trkpt>
      <trkpt lat="45.2987" lon="5.56796">
        <ele>238.187996</ele>
        <time>2022-10-04T07:01:36.147Z</time>
      </trkpt>
      <trkpt lat="45.29875" lon="5.56778">
        <ele>238.165101</ele>
        <time>2022-10-04T07:01:38.150Z</time>
      </trkpt>
      <trkpt lat="45.29878" lon="5.5676">
        <ele>238.142276</ele>
        <time>2022-10-04T07:01:40.149Z</time>
      </trkpt>
      <trkpt lat="45.29881" lon="5.56743">
        <ele>238.120411</ele>
        <time>2022-10-04T07:01:42.143Z</time>
      </trkpt>
      <trkpt lat="45.29883" lon="5.56724">
        <ele>238.096553</ele>
        <time>2022-10-04T07:01:44.149Z</time>
      </trkpt>
      <trkpt lat="45.29886" lon="5.56708">
        <ele>238.076842</ele>
        <time>2022-10-04T07:01:46.146Z</time>
      </trkpt>
      <trkpt lat="45.29887" lon="5.56688">
        <ele>238.051506</ele>
        <time>2022-10-04T07:01:48.148Z</time>
      </trkpt>
      <trkpt lat="45.29888" lon="5.56668">
        <ele>238.026505</ele>
        <time>2022-10-04T07:01:50.147Z</time>
      </trkpt>
      <trkpt lat="45.2989" lon="5.56651">
        <ele>238.006279</ele>
        <time>2022-10-04T07:01:52.144Z</time>
      </trkpt>
      <trkpt lat="45.29892" lon="5.56634">
        <ele>237.984405</ele>
        <time>2022-10-04T07:01:54.143Z</time>
      </trkpt>
      <trkpt lat="45.29892" lon="5.56615">
        <ele>237.961243</ele>
        <time>2022-10-04T07:01:56.143Z</time>
      </trkpt>
      <trkpt lat="45.29891" lon="5.56595">
        <ele>237.915372</ele>
        <time>2022-10-04T07:01:58.148Z</time>
      </trkpt>
      <trkpt lat="45.29889" lon="5.56575">
        <ele>237.845854</ele>
        <time>2022-10-04T07:02:00.150Z</time>
      </trkpt>
      <trkpt lat="45.29888" lon="5.56557">
        <ele>237.781458</ele>
        <time>2022-10-04T07:02:02.143Z</time>
      </trkpt>
      <trkpt lat="45.29887" lon="5.56539">
        <ele>237.718208</ele>
        <time>2022-10-04T07:02:04.145Z</time>
      </trkpt>
      <trkpt lat="45.29884" lon="5.56521">
        <ele>237.652143</ele>
        <time>2022-10-04T07:02:06.148Z</time>
      </trkpt>
      <trkpt lat="45.29881" lon="5.56502">
        <ele>237.583754</ele>
        <time>2022-10-04T07:02:08.148Z</time>
      </trkpt>
      <trkpt lat="45.29878" lon="5.56484">
        <ele>237.520349</ele>
        <time>2022-10-04T07:02:10.146Z</time>
      </trkpt>
      <trkpt lat="45.29875" lon="5.56467">
        <ele>237.458379</ele>
        <time>2022-10-04T07:02:12.144Z</time>
      </trkpt>
      <trkpt lat="45.2987" lon="5.56451">
        <ele>237.393968</ele>
        <time>2022-10-04T07:02:14.144Z</time>
      </trkpt>
      <trkpt lat="45.29866" lon="5.56433">
        <ele>237.331135</ele>
        <time>2022-10-04T07:02:16.144Z</time>
      </trkpt>
      <trkpt lat="45.29861" lon="5.56417">
        <ele>237.268984</ele>
        <time>2022-10-04T07:02:18.143Z</time>
      </trkpt>
      <trkpt lat="45.29857" lon="5.56401">
        <ele>237.207298</ele>
        <time>2022-10-04T07:02:20.147Z</time>
      </trkpt>
      <trkpt lat="45.29852" lon="5.56384">
        <ele>237.141267</ele>
        <time>2022-10-04T07:02:22.145Z</time>
      </trkpt>
      <trkpt lat="45.29845" lon="5.56367">
        <ele>237.073464</ele>
        <time>2022-10-04T07:02:24.145Z</time>
      </trkpt>
      <trkpt lat="45.2984" lon="5.56351">
        <ele>237.151077</ele>
        <time>2022-10-04T07:02:26.148Z</time>
      </trkpt>
      <trkpt lat="45.29833" lon="5.56335">
        <ele>237.344872</ele>
        <time>2022-10-04T07:02:28.147Z</time>
      </trkpt>
      <trkpt lat="45.29825" lon="5.5632">
        <ele>237.54971</ele>
        <time>2022-10-04T07:02:30.143Z</time>
      </trkpt>
      <trkpt lat="45.29818" lon="5.56304">
        <ele>237.749198</ele>
        <time>2022-10-04T07:02:32.146Z</time>
      </trkpt>
      <trkpt lat="45.29808" lon="5.56287">
        <ele>237.974918</ele>
        <time>2022-10-04T07:02:34.143Z</time>
      </trkpt>
      <trkpt lat="45.29801" lon="5.56272">
        <ele>238.170115</ele>
        <time>2022-10-04T07:02:36.150Z</time>
      </trkpt>
      <trkpt lat="45.29793" lon="5.56258">
        <ele>238.362847</ele>
        <time>2022-10-04T07:02:38.143Z</time>
      </trkpt>
      <trkpt lat="45.29783" lon="5.56245">
        <ele>238.562219</ele>
        <time>2022-10-04T07:02:40.146Z</time>
      </trkpt>
      <trkpt lat="45.29775" lon="5.56232">
        <ele>238.748845</ele>
        <time>2022-10-04T07:02:42.149Z</time>
      </trkpt>
      <trkpt lat="45.29765" lon="5.56219">
        <ele>238.952643</ele>
        <time>2022-10-04T07:02:44.150Z</time>
      </trkpt>
      <trkpt lat="45.29755" lon="5.56207">
        <ele>239.154091</ele>
        <time>2022-10-04T07:02:46.145Z</time>
      </trkpt>
      <trkpt lat="45.29744" lon="5.56195">
        <ele>239.350816</ele>
        <time>2022-10-04T07:02:48.149Z</time>
      </trkpt>
      <trkpt lat="45.29735" lon="5.56182">
        <ele>239.542565</ele>
        <time>2022-10-04T07:02:50.143Z</time>
      </trkpt>
      <trkpt lat="45.29725" lon="5.5617">
        <ele>239.74036</ele>
        <time>2022-10-04T07:02:52.146Z</time>
      </trkpt>
      <trkpt lat="45.29714" lon="5.56157">
        <ele>239.864013</ele>
        <time>2022-10-04T07:02:54.146Z</time>
      </trkpt>
      <trkpt lat="45.29703" lon="5.56145">
        <ele>239.982012</ele>
        <time>2022-10-04T07:02:56.145Z</time>
      </trkpt>
      <trkpt lat="45.29694" lon="5.56133">
        <ele>240.089333</ele>
        <time>2022-10-04T07:02:58.145Z</time>
      </trkpt>
      <trkpt lat="45.29684" lon="5.56121">
        <ele>240.207262</ele>
        <time>2022-10-04T07:03:00.144Z</time>
      </trkpt>
      <trkpt lat="45.29673" lon="5.56109">
        <ele>240.321202</ele>
        <time>2022-10-04T07:03:02.145Z</time>
      </trkpt>
      <trkpt lat="45.29664" lon="5.56097">
        <ele>240.430599</ele>
        <time>2022-10-04T07:03:04.147Z</time>
      </trkpt>
      <trkpt lat="45.29653" lon="5.56085">
        <ele>240.545425</ele>
        <time>2022-10-04T07:03:06.161Z</time>
      </trkpt>
      <trkpt lat="45.29643" lon="5.56072">
        <ele>240.662497</ele>
        <time>2022-10-04T07:03:08.146Z</time>
      </trkpt>
      <trkpt lat="45.29633" lon="5.5606">
        <ele>240.777296</ele>
        <time>2022-10-04T07:03:10.156Z</time>
      </trkpt>
      <trkpt lat="45.29624" lon="5.5605">
        <ele>240.872434</ele>
        <time>2022-10-04T07:03:12.150Z</time>
      </trkpt>
      <trkpt lat="45.29613" lon="5.56039">
        <ele>240.992547</ele>
        <time>2022-10-04T07:03:14.145Z</time>
      </trkpt>
      <trkpt lat="45.29603" lon="5.56027">
        <ele>241.101367</ele>
        <time>2022-10-04T07:03:16.146Z</time>
      </trkpt>
      <trkpt lat="45.29593" lon="5.56015">
        <ele>241.210461</ele>
        <time>2022-10-04T07:03:18.143Z</time>
      </trkpt>
      <trkpt lat="45.29582" lon="5.56002">
        <ele>241.2257</ele>
        <time>2022-10-04T07:03:20.143Z</time>
      </trkpt>
      <trkpt lat="45.29571" lon="5.55989">
        <ele>241.068981</ele>
        <time>2022-10-04T07:03:22.145Z</time>
      </trkpt>
      <trkpt lat="45.29562" lon="5.55978">
        <ele>240.928517</ele>
        <time>2022-10-04T07:03:24.146Z</time>
      </trkpt>
      <trkpt lat="45.29553" lon="5.55964">
        <ele>240.775109</ele>
        <time>2022-10-04T07:03:26.142Z</time>
      </trkpt>
      <trkpt lat="45.29543" lon="5.55953">
        <ele>240.632632</ele>
        <time>2022-10-04T07:03:28.148Z</time>
      </trkpt>
      <trkpt lat="45.29534" lon="5.5594">
        <ele>240.49221</ele>
        <time>2022-10-04T07:03:30.145Z</time>
      </trkpt>
      <trkpt lat="45.29525" lon="5.55928">
        <ele>240.353702</ele>
        <time>2022-10-04T07:03:32.147Z</time>
      </trkpt>
      <trkpt lat="45.29516" lon="5.55916">
        <ele>240.215441</ele>
        <time>2022-10-04T07:03:34.144Z</time>
      </trkpt>
      <trkpt lat="45.29506" lon="5.55901">
        <ele>240.049129</ele>
        <time>2022-10-04T07:03:36.147Z</time>
      </trkpt>
      <trkpt lat="45.29498" lon="5.55885">
        <ele>239.892836</ele>
        <time>2022-10-04T07:03:38.146Z</time>
      </trkpt>
      <trkpt lat="45.2949" lon="5.5587">
        <ele>239.749459</ele>
        <time>2022-10-04T07:03:40.145Z</time>
      </trkpt>
      <trkpt lat="45.29482" lon="5.55855">
        <ele>239.600194</ele>
        <time>2022-10-04T07:03:42.144Z</time>
      </trkpt>
      <trkpt lat="45.29474" lon="5.5584">
        <ele>239.443013</ele>
        <time>2022-10-04T07:03:44.144Z</time>
      </trkpt>
      <trkpt lat="45.29466" lon="5.55826">
        <ele>239.301655</ele>
        <time>2022-10-04T07:03:46.155Z</time>
      </trkpt>
      <trkpt lat="45.29458" lon="5.55811">
        <ele>239.198343</ele>
        <time>2022-10-04T07:03:48.145Z</time>
      </trkpt>
      <trkpt lat="45.2945" lon="5.55795">
        <ele>239.113071</ele>
        <time>2022-10-04T07:03:50.144Z</time>
      </trkpt>
      <trkpt lat="45.29442" lon="5.5578">
        <ele>239.02996</ele>
        <time>2022-10-04T07:03:52.148Z</time>
      </trkpt>
      <trkpt lat="45.29436" lon="5.55764">
        <ele>238.949612</ele>
        <time>2022-10-04T07:03:54.142Z</time>
      </trkpt>
      <trkpt lat="45.29429" lon="5.55747">
        <ele>238.862502</ele>
        <time>2022-10-04T07:03:56.145Z</time>
      </trkpt>
      <trkpt lat="45.29423" lon="5.5573">
        <ele>238.778132</ele>
        <time>2022-10-04T07:03:58.143Z</time>
      </trkpt>
      <trkpt lat="45.29417" lon="5.55713">
        <ele>238.693911</ele>
        <time>2022-10-04T07:04:00.149Z</time>
      </trkpt>
      <trkpt lat="45.29411" lon="5.55695">
        <ele>238.606408</ele>
        <time>2022-10-04T07:04:02.141Z</time>
      </trkpt>
      <trkpt lat="45.29406" lon="5.55679">
        <ele>238.528311</ele>
        <time>2022-10-04T07:04:04.145Z</time>
      </trkpt>
      <trkpt lat="45.29402" lon="5.55661">
        <ele>238.441663</ele>
        <time>2022-10-04T07:04:06.145Z</time>
      </trkpt>
      <trkpt lat="45.29396" lon="5.55643">
        <ele>238.356564</ele>
        <time>2022-10-04T07:04:08.144Z</time>
      </trkpt>
      <trkpt lat="45.29394" lon="5.55626">
        <ele>238.278949</ele>
        <time>2022-10-04T07:04:10.147Z</time>
      </trkpt>
      <trkpt lat="45.29391" lon="5.55608">
        <ele>238.198321</ele>
        <time>2022-10-04T07:04:12.144Z</time>
      </trkpt>
      <trkpt lat="45.29388" lon="5.5559">
        <ele>238.120497</ele>
        <time>2022-10-04T07:04:14.149Z</time>
      </trkpt>
      <trkpt lat="45.29384" lon="5.55573">
        <ele>238.074739</ele>
        <time>2022-10-04T07:04:16.143Z</time>
      </trkpt>
      <trkpt lat="45.29381" lon="5.55555">
        <ele>238.02793</ele>
        <time>2022-10-04T07:04:18.152Z</time>
      </trkpt>
      <trkpt lat="45.2938" lon="5.55536">
        <ele>237.980028</ele>
        <time>2022-10-04T07:04:20.147Z</time>
      </trkpt>
      <trkpt lat="45.29378" lon="5.55519">
        <ele>237.935703</ele>
        <time>2022-10-04T07:04:22.143Z</time>
      </trkpt>
      <trkpt lat="45.29377" lon="5.555">
        <ele>237.889411</ele>
        <time>2022-10-04T07:04:24.150Z</time>
      </trkpt>
      <trkpt lat="45.29374" lon="5.5548">
        <ele>237.837583</ele>
        <time>2022-10-04T07:04:26.146Z</time>
      </trkpt>
      <trkpt lat="45.29373" lon="5.55462">
        <ele>237.791505</ele>
        <time>2022-10-04T07:04:28.146Z</time>
      </trkpt>
      <trkpt lat="45.29372" lon="5.55443">
        <ele>237.742371</ele>
        <time>2022-10-04T07:04:30.145Z</time>
      </trkpt>
      <trkpt lat="45.29371" lon="5.55424">
        <ele>237.694748</ele>
        <time>2022-10-04T07:04:32.141Z</time>
      </trkpt>
      <trkpt lat="45.29372" lon="5.55405">
        <ele>237.646664</ele>
        <time>2022-10-04T07:04:34.145Z</time>
      </trkpt>
      <trkpt lat="45.29373" lon="5.55387">
        <ele>237.602185</ele>
        <time>2022-10-04T07:04:36.147Z</time>
      </trkpt>
      <trkpt lat="45.29373" lon="5.55369">
        <ele>237.554945</ele>
        <time>2022-10-04T07:04:38.146Z</time>
      </trkpt>
      <trkpt lat="45.29373" lon="5.55352">
        <ele>237.512725</ele>
        <time>2022-10-04T07:04:40.144Z</time>
      </trkpt>
      <trkpt lat="45.29374" lon="5.55334">
        <ele>237.436643</ele>
        <time>2022-10-04T07:04:42.146Z</time>
      </trkpt>
      <trkpt lat="45.29375" lon="5.55315">
        <ele>237.287944</ele>
        <time>2022-10-04T07:04:44.143Z</time>
      </trkpt>
      <trkpt lat="45.29375" lon="5.55296">
        <ele>237.144061</ele>
        <time>2022-10-04T07:04:46.157Z</time>
      </trkpt>
      <trkpt lat="45.29375" lon="5.55278">
        <ele>237.00555</ele>
        <time>2022-10-04T07:04:48.143Z</time>
      </trkpt>
      <trkpt lat="45.29378" lon="5.55262">
        <ele>236.871767</ele>
        <time>2022-10-04T07:04:50.146Z</time>
      </trkpt>
      <trkpt lat="45.29378" lon="5.55242">
        <ele>236.716979</ele>
        <time>2022-10-04T07:04:52.142Z</time>
      </trkpt>
      <trkpt lat="45.2938" lon="5.55223">
        <ele>236.569171</ele>
        <time>2022-10-04T07:04:54.144Z</time>
      </trkpt>
      <trkpt lat="45.2938" lon="5.55204">
        <ele>236.422887</ele>
        <time>2022-10-04T07:04:56.146Z</time>
      </trkpt>
      <trkpt lat="45.29383" lon="5.55187">
        <ele>236.286061</ele>
        <time>2022-10-04T07:04:58.144Z</time>
      </trkpt>
      <trkpt lat="45.29383" lon="5.55168">
        <ele>236.143625</ele>
        <time>2022-10-04T07:05:00.146Z</time>
      </trkpt>
      <trkpt lat="45.29385" lon="5.5515">
        <ele>235.998138</ele>
        <time>2022-10-04T07:05:02.144Z</time>
      </trkpt>
      <trkpt lat="45.29387" lon="5.5513">
        <ele>235.839954</ele>
        <time>2022-10-04T07:05:04.144Z</time>
      </trkpt>
      <trkpt lat="45.29388" lon="5.55111">
        <ele>235.691071</ele>
        <time>2022-10-04T07:05:06.146Z</time>
      </trkpt>
      <trkpt lat="45.2939" lon="5.55093">
        <ele>235.551642</ele>
        <time>2022-10-04T07:05:08.146Z</time>
      </trkpt>
      <trkpt lat="45.29391" lon="5.55076">
        <ele>235.529572</ele>
        <time>2022-10-04T07:05:10.142Z</time>
      </trkpt>
      <trkpt lat="45.29392" lon="5.55057">
        <ele>235.604753</ele>
        <time>2022-10-04T07:05:12.144Z</time>
      </trkpt>
      <trkpt lat="45.29393" lon="5.55039">
        <ele>235.679558</ele>
        <time>2022-10-04T07:05:14.146Z</time>
      </trkpt>
      <trkpt lat="45.29391" lon="5.55021">
        <ele>235.753132</ele>
        <time>2022-10-04T07:05:16.142Z</time>
      </trkpt>
      <trkpt lat="45.29391" lon="5.55003">
        <ele>235.824671</ele>
        <time>2022-10-04T07:05:18.150Z</time>
      </trkpt>
      <trkpt lat="45.2939" lon="5.54985">
        <ele>235.897726</ele>
        <time>2022-10-04T07:05:20.151Z</time>
      </trkpt>
      <trkpt lat="45.29389" lon="5.54968">
        <ele>235.96912</ele>
        <time>2022-10-04T07:05:22.149Z</time>
      </trkpt>
      <trkpt lat="45.29386" lon="5.54947">
        <ele>236.051312</ele>
        <time>2022-10-04T07:05:24.149Z</time>
      </trkpt>
      <trkpt lat="45.29385" lon="5.54927">
        <ele>236.132982</ele>
        <time>2022-10-04T07:05:26.146Z</time>
      </trkpt>
      <trkpt lat="45.29383" lon="5.54908">
        <ele>236.211103</ele>
        <time>2022-10-04T07:05:28.144Z</time>
      </trkpt>
      <trkpt lat="45.29381" lon="5.54893">
        <ele>236.273481</ele>
        <time>2022-10-04T07:05:30.144Z</time>
      </trkpt>
      <trkpt lat="45.29381" lon="5.54873">
        <ele>236.35515</ele>
        <time>2022-10-04T07:05:32.150Z</time>
      </trkpt>
      <trkpt lat="45.29378" lon="5.54852">
        <ele>236.438919</ele>
        <time>2022-10-04T07:05:34.144Z</time>
      </trkpt>
      <trkpt lat="45.29377" lon="5.54836">
        <ele>236.506997</ele>
        <time>2022-10-04T07:05:36.146Z</time>
      </trkpt>
      <trkpt lat="45.29376" lon="5.54817">
        <ele>236.582753</ele>
        <time>2022-10-04T07:05:38.144Z</time>
      </trkpt>
      <trkpt lat="45.29376" lon="5.548">
        <ele>236.653279</ele>
        <time>2022-10-04T07:05:40.144Z</time>
      </trkpt>
      <trkpt lat="45.29373" lon="5.54782">
        <ele>236.729245</ele>
        <time>2022-10-04T07:05:42.143Z</time>
      </trkpt>
      <trkpt lat="45.29371" lon="5.54764">
        <ele>236.802624</ele>
        <time>2022-10-04T07:05:44.143Z</time>
      </trkpt>
      <trkpt lat="45.29369" lon="5.54746">
        <ele>236.878695</ele>
        <time>2022-10-04T07:05:46.145Z</time>
      </trkpt>
      <trkpt lat="45.29367" lon="5.54726">
        <ele>236.960863</ele>
        <time>2022-10-04T07:05:48.144Z</time>
      </trkpt>
      <trkpt lat="45.29365" lon="5.54708">
        <ele>237.036283</ele>
        <time>2022-10-04T07:05:50.148Z</time>
      </trkpt>
      <trkpt lat="45.29363" lon="5.54688">
        <ele>237.119495</ele>
        <time>2022-10-04T07:05:52.149Z</time>
      </trkpt>
      <trkpt lat="45.29362" lon="5.5467">
        <ele>237.193941</ele>
        <time>2022-10-04T07:05:54.150Z</time>
      </trkpt>
      <trkpt lat="45.29359" lon="5.54652">
        <ele>237.269137</ele>
        <time>2022-10-04T07:05:56.155Z</time>
      </trkpt>
      <trkpt lat="45.29358" lon="5.54633">
        <ele>237.346223</ele>
        <time>2022-10-04T07:05:58.147Z</time>
      </trkpt>
      <trkpt lat="45.29356" lon="5.54612">
        <ele>237.433622</ele>
        <time>2022-10-04T07:06:00.135Z</time>
      </trkpt>
      <trkpt lat="45.29354" lon="5.54593">
        <ele>237.510936</ele>
        <time>2022-10-04T07:06:02.146Z</time>
      </trkpt>
      <trkpt lat="45.29352" lon="5.54576">
        <ele>237.570249</ele>
        <time>2022-10-04T07:06:04.149Z</time>
      </trkpt>
      <trkpt lat="45.29349" lon="5.54557">
        <ele>237.541426</ele>
        <time>2022-10-04T07:06:06.153Z</time>
      </trkpt>
      <trkpt lat="45.29349" lon="5.5454">
        <ele>237.516129</ele>
        <time>2022-10-04T07:06:08.151Z</time>
      </trkpt>
      <trkpt lat="45.29347" lon="5.54522">
        <ele>237.48981</ele>
        <time>2022-10-04T07:06:10.147Z</time>
      </trkpt>
      <trkpt lat="45.29347" lon="5.54507">
        <ele>237.466875</ele>
        <time>2022-10-04T07:06:12.151Z</time>
      </trkpt>
      <trkpt lat="45.29346" lon="5.54491">
        <ele>237.443976</ele>
        <time>2022-10-04T07:06:14.147Z</time>
      </trkpt>
      <trkpt lat="45.29343" lon="5.54471">
        <ele>237.413772</ele>
        <time>2022-10-04T07:06:16.148Z</time>
      </trkpt>
      <trkpt lat="45.2934" lon="5.54451">
        <ele>237.383008</ele>
        <time>2022-10-04T07:06:18.141Z</time>
      </trkpt>
      <trkpt lat="45.29337" lon="5.54433">
        <ele>237.355954</ele>
        <time>2022-10-04T07:06:20.143Z</time>
      </trkpt>
      <trkpt lat="45.29334" lon="5.54415">
        <ele>237.329551</ele>
        <time>2022-10-04T07:06:22.151Z</time>
      </trkpt>
      <trkpt lat="45.29331" lon="5.54397">
        <ele>237.302453</ele>
        <time>2022-10-04T07:06:24.147Z</time>
      </trkpt>
      <trkpt lat="45.29329" lon="5.5438">
        <ele>237.276125</ele>
        <time>2022-10-04T07:06:26.145Z</time>
      </trkpt>
      <trkpt lat="45.29327" lon="5.5436">
        <ele>237.2472</ele>
        <time>2022-10-04T07:06:28.147Z</time>
      </trkpt>
      <trkpt lat="45.29323" lon="5.54341">
        <ele>237.21774</ele>
        <time>2022-10-04T07:06:30.145Z</time>
      </trkpt>
      <trkpt lat="45.2932" lon="5.54322">
        <ele>237.208658</ele>
        <time>2022-10-04T07:06:32.147Z</time>
      </trkpt>
      <trkpt lat="45.29316" lon="5.54304">
        <ele>237.247979</ele>
        <time>2022-10-04T07:06:34.147Z</time>
      </trkpt>
      <trkpt lat="45.29315" lon="5.54288">
        <ele>237.283786</ele>
        <time>2022-10-04T07:06:36.145Z</time>
      </trkpt>
      <trkpt lat="45.29313" lon="5.54271">
        <ele>237.320396</ele>
        <time>2022-10-04T07:06:38.144Z</time>
      </trkpt>
      <trkpt lat="45.29309" lon="5.54252">
        <ele>237.363579</ele>
        <time>2022-10-04T07:06:40.139Z</time>
      </trkpt>
      <trkpt lat="45.29307" lon="5.54235">
        <ele>237.399424</ele>
        <time>2022-10-04T07:06:42.148Z</time>
      </trkpt>
      <trkpt lat="45.29305" lon="5.54218">
        <ele>237.438905</ele>
        <time>2022-10-04T07:06:44.139Z</time>
      </trkpt>
      <trkpt lat="45.29302" lon="5.54198">
        <ele>237.481342</ele>
        <time>2022-10-04T07:06:46.139Z</time>
      </trkpt>
      <trkpt lat="45.293" lon="5.54178">
        <ele>237.525824</ele>
        <time>2022-10-04T07:06:48.141Z</time>
      </trkpt>
      <trkpt lat="45.29298" lon="5.54158">
        <ele>237.569051</ele>
        <time>2022-10-04T07:06:50.147Z</time>
      </trkpt>
      <trkpt lat="45.29293" lon="5.5414">
        <ele>237.611266</ele>
        <time>2022-10-04T07:06:52.143Z</time>
      </trkpt>
      <trkpt lat="45.29292" lon="5.54121">
        <ele>237.650784</ele>
        <time>2022-10-04T07:06:54.144Z</time>
      </trkpt>
      <trkpt lat="45.29288" lon="5.54103">
        <ele>237.692022</ele>
        <time>2022-10-04T07:06:56.145Z</time>
      </trkpt>
      <trkpt lat="45.29284" lon="5.54083">
        <ele>237.735867</ele>
        <time>2022-10-04T07:06:58.148Z</time>
      </trkpt>
      <trkpt lat="45.2928" lon="5.54064">
        <ele>237.849912</ele>
        <time>2022-10-04T07:07:00.142Z</time>
      </trkpt>
      <trkpt lat="45.29278" lon="5.54045">
        <ele>237.978472</ele>
        <time>2022-10-04T07:07:02.145Z</time>
      </trkpt>
      <trkpt lat="45.29275" lon="5.54026">
        <ele>238.113131</ele>
        <time>2022-10-04T07:07:04.151Z</time>
      </trkpt>
      <trkpt lat="45.29271" lon="5.54007">
        <ele>238.244002</ele>
        <time>2022-10-04T07:07:06.148Z</time>
      </trkpt>
      <trkpt lat="45.29268" lon="5.5399">
        <ele>238.369219</ele>
        <time>2022-10-04T07:07:08.154Z</time>
      </trkpt>
      <trkpt lat="45.29265" lon="5.53972">
        <ele>238.494248</ele>
        <time>2022-10-04T07:07:10.152Z</time>
      </trkpt>
      <trkpt lat="45.29262" lon="5.53954">
        <ele>238.620936</ele>
        <time>2022-10-04T07:07:12.145Z</time>
      </trkpt>
      <trkpt lat="45.29259" lon="5.53935">
        <ele>238.75285</ele>
        <time>2022-10-04T07:07:14.144Z</time>
      </trkpt>
      <trkpt lat="45.29255" lon="5.53917">
        <ele>238.882795</ele>
        <time>2022-10-04T07:07:16.146Z</time>
      </trkpt>
      <trkpt lat="45.29252" lon="5.53899">
        <ele>239.008012</ele>
        <time>2022-10-04T07:07:18.147Z</time>
      </trkpt>
      <trkpt lat="45.29248" lon="5.5388">
        <ele>239.140457</ele>
        <time>2022-10-04T07:07:20.145Z</time>
      </trkpt>
      <trkpt lat="45.29245" lon="5.53863">
        <ele>239.264143</ele>
        <time>2022-10-04T07:07:22.146Z</time>
      </trkpt>
      <trkpt lat="45.29241" lon="5.53845">
        <ele>239.390428</ele>
        <time>2022-10-04T07:07:24.146Z</time>
      </trkpt>
      <trkpt lat="45.29238" lon="5.53827">
        <ele>239.437531</ele>
        <time>2022-10-04T07:07:26.149Z</time>
      </trkpt>
      <trkpt lat="45.29234" lon="5.5381">
        <ele>239.103586</ele>
        <time>2022-10-04T07:07:28.148Z</time>
      </trkpt>
      <trkpt lat="45.29228" lon="5.53791">
        <ele>238.720791</ele>
        <time>2022-10-04T07:07:30.156Z</time>
      </trkpt>
      <trkpt lat="45.29225" lon="5.53771">
        <ele>238.350044</ele>
        <time>2022-10-04T07:07:32.146Z</time>
      </trkpt>
      <trkpt lat="45.29223" lon="5.53754">
        <ele>238.028988</ele>
        <time>2022-10-04T07:07:34.145Z</time>
      </trkpt>
      <trkpt lat="45.29219" lon="5.53732">
        <ele>237.611932</ele>
        <time>2022-10-04T07:07:36.147Z</time>
      </trkpt>
      <trkpt lat="45.29216" lon="5.53715">
        <ele>237.29515</ele>
        <time>2022-10-04T07:07:38.149Z</time>
      </trkpt>
      <trkpt lat="45.29214" lon="5.53698">
        <ele>236.970493</ele>
        <time>2022-10-04T07:07:40.148Z</time>
      </trkpt>
      <trkpt lat="45.29212" lon="5.53682">
        <ele>236.674025</ele>
        <time>2022-10-04T07:07:42.145Z</time>
      </trkpt>
      <trkpt lat="45.29208" lon="5.53663">
        <ele>236.314087</ele>
        <time>2022-10-04T07:07:44.146Z</time>
      </trkpt>
      <trkpt lat="45.29205" lon="5.53645">
        <ele>235.975831</ele>
        <time>2022-10-04T07:07:46.143Z</time>
      </trkpt>
      <trkpt lat="45.29201" lon="5.53627">
        <ele>235.620814</ele>
        <time>2022-10-04T07:07:48.145Z</time>
      </trkpt>
      <trkpt lat="45.29198" lon="5.5361">
        <ele>235.304014</ele>
        <time>2022-10-04T07:07:50.148Z</time>
      </trkpt>
      <trkpt lat="45.29197" lon="5.5359">
        <ele>234.92906</ele>
        <time>2022-10-04T07:07:52.145Z</time>
      </trkpt>
      <trkpt lat="45.29194" lon="5.53571">
        <ele>234.992561</ele>
        <time>2022-10-04T07:07:54.148Z</time>
      </trkpt>
      <trkpt lat="45.2919" lon="5.53557">
        <ele>235.243622</ele>
        <time>2022-10-04T07:07:56.149Z</time>
      </trkpt>
      <trkpt lat="45.29186" lon="5.53538">
        <ele>235.565528</ele>
        <time>2022-10-04T07:07:58.146Z</time>
      </trkpt>
      <trkpt lat="45.29182" lon="5.5352">
        <ele>235.877865</ele>
        <time>2022-10-04T07:08:00.146Z</time>
      </trkpt>
      <trkpt lat="45.29179" lon="5.53501">
        <ele>236.194972</ele>
        <time>2022-10-04T07:08:02.144Z</time>
      </trkpt>
      <trkpt lat="45.29175" lon="5.53484">
        <ele>236.490187</ele>
        <time>2022-10-04T07:08:04.143Z</time>
      </trkpt>
      <trkpt lat="45.29172" lon="5.53467">
        <ele>236.78508</ele>
        <time>2022-10-04T07:08:06.148Z</time>
      </trkpt>
      <trkpt lat="45.29169" lon="5.53448">
        <ele>237.1015</ele>
        <time>2022-10-04T07:08:08.149Z</time>
      </trkpt>
      <trkpt lat="45.29166" lon="5.53429">
        <ele>237.420097</ele>
        <time>2022-10-04T07:08:10.151Z</time>
      </trkpt>
      <trkpt lat="45.29161" lon="5.53412">
        <ele>237.728517</ele>
        <time>2022-10-04T07:08:12.147Z</time>
      </trkpt>
      <trkpt lat="45.29158" lon="5.53394">
        <ele>238.024354</ele>
        <time>2022-10-04T07:08:14.147Z</time>
      </trkpt>
      <trkpt lat="45.29154" lon="5.53376">
        <ele>238.33513</ele>
        <time>2022-10-04T07:08:16.143Z</time>
      </trkpt>
      <trkpt lat="45.2915" lon="5.53358">
        <ele>238.645328</ele>
        <time>2022-10-04T07:08:18.148Z</time>
      </trkpt>
      <trkpt lat="45.29145" lon="5.53341">
        <ele>238.963399</ele>
        <time>2022-10-04T07:08:20.148Z</time>
      </trkpt>
      <trkpt lat="45.2914" lon="5.53324">
        <ele>239.150937</ele>
        <time>2022-10-04T07:08:22.144Z</time>
      </trkpt>
      <trkpt lat="45.29135" lon="5.53306">
        <ele>239.330137</ele>
        <time>2022-10-04T07:08:24.146Z</time>
      </trkpt>
      <trkpt lat="45.2913" lon="5.5329">
        <ele>239.498528</ele>
        <time>2022-10-04T07:08:26.143Z</time>
      </trkpt>
      <trkpt lat="45.29124" lon="5.53273">
        <ele>239.675174</ele>
        <time>2022-10-04T07:08:28.145Z</time>
      </trkpt>
      <trkpt lat="45.2912" lon="5.53256">
        <ele>239.846171</ele>
        <time>2022-10-04T07:08:30.149Z</time>
      </trkpt>
      <trkpt lat="45.29115" lon="5.53239">
        <ele>240.018586</ele>
        <time>2022-10-04T07:08:32.146Z</time>
      </trkpt>
      <trkpt lat="45.29109" lon="5.53223">
        <ele>240.192666</ele>
        <time>2022-10-04T07:08:34.145Z</time>
      </trkpt>
      <trkpt lat="45.29104" lon="5.53205">
        <ele>240.373589</ele>
        <time>2022-10-04T07:08:36.144Z</time>
      </trkpt>
      <trkpt lat="45.29098" lon="5.53189">
        <ele>240.541119</ele>
        <time>2022-10-04T07:08:38.143Z</time>
      </trkpt>
      <trkpt lat="45.29092" lon="5.53173">
        <ele>240.719188</ele>
        <time>2022-10-04T07:08:40.144Z</time>
      </trkpt>
      <trkpt lat="45.29085" lon="5.53157">
        <ele>240.890786</ele>
        <time>2022-10-04T07:08:42.148Z</time>
      </trkpt>
      <trkpt lat="45.29078" lon="5.53142">
        <ele>241.067581</ele>
        <time>2022-10-04T07:08:44.146Z</time>
      </trkpt>
      <trkpt lat="45.29071" lon="5.53125">
        <ele>241.255148</ele>
        <time>2022-10-04T07:08:46.146Z</time>
      </trkpt>
      <trkpt lat="45.29065" lon="5.53109">
        <ele>241.418737</ele>
        <time>2022-10-04T07:08:48.147Z</time>
      </trkpt>
      <trkpt lat="45.29057" lon="5.53094">
        <ele>241.4733</ele>
        <time>2022-10-04T07:08:50.150Z</time>
      </trkpt>
      <trkpt lat="45.29049" lon="5.53079">
        <ele>241.528092</ele>
        <time>2022-10-04T07:08:52.143Z</time>
      </trkpt>
      <trkpt lat="45.2904" lon="5.53065">
        <ele>241.583046</ele>
        <time>2022-10-04T07:08:54.149Z</time>
      </trkpt>
      <trkpt lat="45.29033" lon="5.53051">
        <ele>241.633766</ele>
        <time>2022-10-04T07:08:56.148Z</time>
      </trkpt>
      <trkpt lat="45.29026" lon="5.53036">
        <ele>241.68425</ele>
        <time>2022-10-04T07:08:58.145Z</time>
      </trkpt>
      <trkpt lat="45.29015" lon="5.53022">
        <ele>241.745042</ele>
        <time>2022-10-04T07:09:00.147Z</time>
      </trkpt>
      <trkpt lat="45.29006" lon="5.53008">
        <ele>241.799997</ele>
        <time>2022-10-04T07:09:02.146Z</time>
      </trkpt>
      <trkpt lat="45.28997" lon="5.52994">
        <ele>241.854397</ele>
        <time>2022-10-04T07:09:04.145Z</time>
      </trkpt>
      <trkpt lat="45.28989" lon="5.52979">
        <ele>241.90891</ele>
        <time>2022-10-04T07:09:06.146Z</time>
      </trkpt>
      <trkpt lat="45.2898" lon="5.52965">
        <ele>241.962007</ele>
        <time>2022-10-04T07:09:08.145Z</time>
      </trkpt>
      <trkpt lat="45.28972" lon="5.5295">
        <ele>242.018339</ele>
        <time>2022-10-04T07:09:10.146Z</time>
      </trkpt>
      <trkpt lat="45.28964" lon="5.52935">
        <ele>242.073099</ele>
        <time>2022-10-04T07:09:12.147Z</time>
      </trkpt>
      <trkpt lat="45.28955" lon="5.52921">
        <ele>242.129894</ele>
        <time>2022-10-04T07:09:14.147Z</time>
      </trkpt>
      <trkpt lat="45.28947" lon="5.52909">
        <ele>242.01579</ele>
        <time>2022-10-04T07:09:16.150Z</time>
      </trkpt>
      <trkpt lat="45.28937" lon="5.52898">
        <ele>241.6164</ele>
        <time>2022-10-04T07:09:18.149Z</time>
      </trkpt>
      <trkpt lat="45.28926" lon="5.52886">
        <ele>241.157794</ele>
        <time>2022-10-04T07:09:20.146Z</time>
      </trkpt>
      <trkpt lat="45.28916" lon="5.52876">
        <ele>240.759192</ele>
        <time>2022-10-04T07:09:22.146Z</time>
      </trkpt>
      <trkpt lat="45.28905" lon="5.52865">
        <ele>240.324322</ele>
        <time>2022-10-04T07:09:24.147Z</time>
      </trkpt>
      <trkpt lat="45.28894" lon="5.52856">
        <ele>239.893983</ele>
        <time>2022-10-04T07:09:26.144Z</time>
      </trkpt>
      <trkpt lat="45.28881" lon="5.52848">
        <ele>239.436116</ele>
        <time>2022-10-04T07:09:28.146Z</time>
      </trkpt>
      <trkpt lat="45.28868" lon="5.52844">
        <ele>239.020304</ele>
        <time>2022-10-04T07:09:30.146Z</time>
      </trkpt>
      <trkpt lat="45.28856" lon="5.52838">
        <ele>238.60197</ele>
        <time>2022-10-04T07:09:32.145Z</time>
      </trkpt>
      <trkpt lat="45.28843" lon="5.52832">
        <ele>238.141135</ele>
        <time>2022-10-04T07:09:34.144Z</time>
      </trkpt>
      <trkpt lat="45.28832" lon="5.52824">
        <ele>237.747007</ele>
        <time>2022-10-04T07:09:36.146Z</time>
      </trkpt>
      <trkpt lat="45.2882" lon="5.52818">
        <ele>237.320011</ele>
        <time>2022-10-04T07:09:38.142Z</time>
      </trkpt>
      <trkpt lat="45.28807" lon="5.5281">
        <ele>236.867161</ele>
        <time>2022-10-04T07:09:40.147Z</time>
      </trkpt>
      <trkpt lat="45.28795" lon="5.52803">
        <ele>236.431361</ele>
        <time>2022-10-04T07:09:42.147Z</time>
      </trkpt>
      <trkpt lat="45.28783" lon="5.52794">
        <ele>236.326308</ele>
        <time>2022-10-04T07:09:44.142Z</time>
      </trkpt>
      <trkpt lat="45.28772" lon="5.52784">
        <ele>236.375828</ele>
        <time>2022-10-04T07:09:46.145Z</time>
      </trkpt>
      <trkpt lat="45.28761" lon="5.52776">
        <ele>236.422831</ele>
        <time>2022-10-04T07:09:48.150Z</time>
      </trkpt>
      <trkpt lat="45.2875" lon="5.52765">
        <ele>236.472588</ele>
        <time>2022-10-04T07:09:50.143Z</time>
      </trkpt>
      <trkpt lat="45.2874" lon="5.52755">
        <ele>236.519739</ele>
        <time>2022-10-04T07:09:52.145Z</time>
      </trkpt>
      <trkpt lat="45.28728" lon="5.52744">
        <ele>236.572428</ele>
        <time>2022-10-04T07:09:54.147Z</time>
      </trkpt>
      <trkpt lat="45.28718" lon="5.52731">
        <ele>236.622071</ele>
        <time>2022-10-04T07:09:56.145Z</time>
      </trkpt>
      <trkpt lat="45.28706" lon="5.52719">
        <ele>236.676703</ele>
        <time>2022-10-04T07:09:58.146Z</time>
      </trkpt>
      <trkpt lat="45.28694" lon="5.5271">
        <ele>236.727925</ele>
        <time>2022-10-04T07:10:00.152Z</time>
      </trkpt>
      <trkpt lat="45.28684" lon="5.527">
        <ele>236.776606</ele>
        <time>2022-10-04T07:10:02.149Z</time>
      </trkpt>
      <trkpt lat="45.28675" lon="5.52693">
        <ele>236.812497</ele>
        <time>2022-10-04T07:10:04.146Z</time>
      </trkpt>
      <trkpt lat="45.28661" lon="5.52697">
        <ele>236.86489</ele>
        <time>2022-10-04T07:10:07.153Z</time>
      </trkpt>
      <trkpt lat="45.28647" lon="5.52693">
        <ele>236.918573</ele>
        <time>2022-10-04T07:10:09.148Z</time>
      </trkpt>
      <trkpt lat="45.28635" lon="5.52686">
        <ele>236.967005</ele>
        <time>2022-10-04T07:10:11.145Z</time>
      </trkpt>
      <trkpt lat="45.28622" lon="5.52676">
        <ele>236.899499</ele>
        <time>2022-10-04T07:10:13.146Z</time>
      </trkpt>
      <trkpt lat="45.28609" lon="5.5267">
        <ele>236.835864</ele>
        <time>2022-10-04T07:10:15.146Z</time>
      </trkpt>
      <trkpt lat="45.28597" lon="5.52664">
        <ele>236.777697</ele>
        <time>2022-10-04T07:10:17.143Z</time>
      </trkpt>
      <trkpt lat="45.28586" lon="5.52659">
        <ele>236.723028</ele>
        <time>2022-10-04T07:10:19.145Z</time>
      </trkpt>
      <trkpt lat="45.28576" lon="5.52655">
        <ele>236.673479</ele>
        <time>2022-10-04T07:10:21.144Z</time>
      </trkpt>
      <trkpt lat="45.28564" lon="5.52651">
        <ele>236.619425</ele>
        <time>2022-10-04T07:10:23.144Z</time>
      </trkpt>
      <trkpt lat="45.28554" lon="5.52646">
        <ele>236.569582</ele>
        <time>2022-10-04T07:10:25.147Z</time>
      </trkpt>
      <trkpt lat="45.28542" lon="5.52642">
        <ele>236.513324</ele>
        <time>2022-10-04T07:10:27.147Z</time>
      </trkpt>
      <trkpt lat="45.28532" lon="5.52636">
        <ele>236.459558</ele>
        <time>2022-10-04T07:10:29.148Z</time>
      </trkpt>
      <trkpt lat="45.2852" lon="5.5263">
        <ele>236.401185</ele>
        <time>2022-10-04T07:10:31.145Z</time>
      </trkpt>
      <trkpt lat="45.28508" lon="5.52623">
        <ele>236.340638</ele>
        <time>2022-10-04T07:10:33.148Z</time>
      </trkpt>
      <trkpt lat="45.28495" lon="5.52616">
        <ele>236.277871</ele>
        <time>2022-10-04T07:10:35.145Z</time>
      </trkpt>
      <trkpt lat="45.28483" lon="5.5261">
        <ele>236.219392</ele>
        <time>2022-10-04T07:10:37.145Z</time>
      </trkpt>
      <trkpt lat="45.28471" lon="5.52604">
        <ele>236.161019</ele>
        <time>2022-10-04T07:10:39.147Z</time>
      </trkpt>
      <trkpt lat="45.28458" lon="5.526">
        <ele>236.098031</ele>
        <time>2022-10-04T07:10:41.149Z</time>
      </trkpt>
      <trkpt lat="45.28445" lon="5.52595">
        <ele>236.036252</ele>
        <time>2022-10-04T07:10:43.146Z</time>
      </trkpt>
      <trkpt lat="45.28432" lon="5.52592">
        <ele>235.974961</ele>
        <time>2022-10-04T07:10:45.144Z</time>
      </trkpt>
      <trkpt lat="45.28421" lon="5.52585">
        <ele>235.917075</ele>
        <time>2022-10-04T07:10:47.147Z</time>
      </trkpt>
      <trkpt lat="45.28407" lon="5.5258">
        <ele>235.853476</ele>
        <time>2022-10-04T07:10:49.145Z</time>
      </trkpt>
      <trkpt lat="45.28394" lon="5.52574">
        <ele>235.788182</ele>
        <time>2022-10-04T07:10:51.143Z</time>
      </trkpt>
      <trkpt lat="45.28381" lon="5.52569">
        <ele>235.726249</ele>
        <time>2022-10-04T07:10:53.147Z</time>
      </trkpt>
      <trkpt lat="45.28368" lon="5.52565">
        <ele>235.666637</ele>
        <time>2022-10-04T07:10:55.147Z</time>
      </trkpt>
      <trkpt lat="45.28355" lon="5.52561">
        <ele>235.605862</ele>
        <time>2022-10-04T07:10:57.146Z</time>
      </trkpt>
      <trkpt lat="45.28343" lon="5.52557">
        <ele>235.545344</ele>
        <time>2022-10-04T07:10:59.145Z</time>
      </trkpt>
      <trkpt lat="45.2833" lon="5.52554">
        <ele>235.485278</ele>
        <time>2022-10-04T07:11:01.145Z</time>
      </trkpt>
      <trkpt lat="45.28317" lon="5.5255">
        <ele>235.424307</ele>
        <time>2022-10-04T07:11:03.144Z</time>
      </trkpt>
      <trkpt lat="45.28303" lon="5.52546">
        <ele>235.358755</ele>
        <time>2022-10-04T07:11:05.146Z</time>
      </trkpt>
      <trkpt lat="45.2829" lon="5.52544">
        <ele>235.299247</ele>
        <time>2022-10-04T07:11:07.146Z</time>
      </trkpt>
      <trkpt lat="45.28277" lon="5.5254">
        <ele>235.268163</ele>
        <time>2022-10-04T07:11:09.149Z</time>
      </trkpt>
      <trkpt lat="45.28264" lon="5.52536">
        <ele>235.238583</ele>
        <time>2022-10-04T07:11:11.143Z</time>
      </trkpt>
      <trkpt lat="45.28251" lon="5.52532">
        <ele>235.208198</ele>
        <time>2022-10-04T07:11:13.150Z</time>
      </trkpt>
      <trkpt lat="45.28239" lon="5.52527">
        <ele>235.178868</ele>
        <time>2022-10-04T07:11:15.148Z</time>
      </trkpt>
      <trkpt lat="45.28224" lon="5.52523">
        <ele>235.14409</ele>
        <time>2022-10-04T07:11:17.143Z</time>
      </trkpt>
      <trkpt lat="45.28212" lon="5.52519">
        <ele>235.115323</ele>
        <time>2022-10-04T07:11:19.147Z</time>
      </trkpt>
      <trkpt lat="45.28199" lon="5.52513">
        <ele>235.082711</ele>
        <time>2022-10-04T07:11:21.145Z</time>
      </trkpt>
      <trkpt lat="45.28186" lon="5.52508">
        <ele>235.05331</ele>
        <time>2022-10-04T07:11:23.148Z</time>
      </trkpt>
      <trkpt lat="45.28174" lon="5.52504">
        <ele>235.024919</ele>
        <time>2022-10-04T07:11:25.149Z</time>
      </trkpt>
      <trkpt lat="45.28163" lon="5.525">
        <ele>234.997756</ele>
        <time>2022-10-04T07:11:27.150Z</time>
      </trkpt>
      <trkpt lat="45.28152" lon="5.52494">
        <ele>234.970092</ele>
        <time>2022-10-04T07:11:29.148Z</time>
      </trkpt>
      <trkpt lat="45.28137" lon="5.52488">
        <ele>234.935305</ele>
        <time>2022-10-04T07:11:31.145Z</time>
      </trkpt>
      <trkpt lat="45.28124" lon="5.52484">
        <ele>234.904932</ele>
        <time>2022-10-04T07:11:33.148Z</time>
      </trkpt>
      <trkpt lat="45.28112" lon="5.52479">
        <ele>234.803305</ele>
        <time>2022-10-04T07:11:35.143Z</time>
      </trkpt>
      <trkpt lat="45.28099" lon="5.52475">
        <ele>234.585041</ele>
        <time>2022-10-04T07:11:37.147Z</time>
      </trkpt>
      <trkpt lat="45.28086" lon="5.52469">
        <ele>234.363206</ele>
        <time>2022-10-04T07:11:39.148Z</time>
      </trkpt>
      <trkpt lat="45.28074" lon="5.52465">
        <ele>234.159487</ele>
        <time>2022-10-04T07:11:41.148Z</time>
      </trkpt>
      <trkpt lat="45.2806" lon="5.52461">
        <ele>233.920355</ele>
        <time>2022-10-04T07:11:43.146Z</time>
      </trkpt>
      <trkpt lat="45.28046" lon="5.52457">
        <ele>233.690975</ele>
        <time>2022-10-04T07:11:45.147Z</time>
      </trkpt>
      <trkpt lat="45.28033" lon="5.52451">
        <ele>233.454248</ele>
        <time>2022-10-04T07:11:47.148Z</time>
      </trkpt>
      <trkpt lat="45.28023" lon="5.52446">
        <ele>233.289071</ele>
        <time>2022-10-04T07:11:49.145Z</time>
      </trkpt>
      <trkpt lat="45.28009" lon="5.5244">
        <ele>233.0474</ele>
        <time>2022-10-04T07:11:51.148Z</time>
      </trkpt>
      <trkpt lat="45.27996" lon="5.52437">
        <ele>232.830685</ele>
        <time>2022-10-04T07:11:53.144Z</time>
      </trkpt>
      <trkpt lat="45.27985" lon="5.5243">
        <ele>232.629713</ele>
        <time>2022-10-04T07:11:55.150Z</time>
      </trkpt>
      <trkpt lat="45.27972" lon="5.52426">
        <ele>232.408446</ele>
        <time>2022-10-04T07:11:57.145Z</time>
      </trkpt>
      <trkpt lat="45.27957" lon="5.52422">
        <ele>232.153583</ele>
        <time>2022-10-04T07:11:59.145Z</time>
      </trkpt>
      <trkpt lat="45.27944" lon="5.52419">
        <ele>231.933406</ele>
        <time>2022-10-04T07:12:01.146Z</time>
      </trkpt>
      <trkpt lat="45.27931" lon="5.52416">
        <ele>232.065754</ele>
        <time>2022-10-04T07:12:03.149Z</time>
      </trkpt>
      <trkpt lat="45.27917" lon="5.52412">
        <ele>232.259234</ele>
        <time>2022-10-04T07:12:05.147Z</time>
      </trkpt>
      <trkpt lat="45.27905" lon="5.52407">
        <ele>232.416482</ele>
        <time>2022-10-04T07:12:07.146Z</time>
      </trkpt>
      <trkpt lat="45.27892" lon="5.52404">
        <ele>232.59424</ele>
        <time>2022-10-04T07:12:09.150Z</time>
      </trkpt>
      <trkpt lat="45.27879" lon="5.52402">
        <ele>232.773039</ele>
        <time>2022-10-04T07:12:11.148Z</time>
      </trkpt>
      <trkpt lat="45.27866" lon="5.52397">
        <ele>232.948615</ele>
        <time>2022-10-04T07:12:13.146Z</time>
      </trkpt>
      <trkpt lat="45.27853" lon="5.52393">
        <ele>233.115964</ele>
        <time>2022-10-04T07:12:15.145Z</time>
      </trkpt>
      <trkpt lat="45.27841" lon="5.52388">
        <ele>233.284365</ele>
        <time>2022-10-04T07:12:17.146Z</time>
      </trkpt>
      <trkpt lat="45.27829" lon="5.52383">
        <ele>233.45033</ele>
        <time>2022-10-04T07:12:19.145Z</time>
      </trkpt>
      <trkpt lat="45.27818" lon="5.52375">
        <ele>233.621391</ele>
        <time>2022-10-04T07:12:21.145Z</time>
      </trkpt>
      <trkpt lat="45.27804" lon="5.52371">
        <ele>233.800397</ele>
        <time>2022-10-04T07:12:23.148Z</time>
      </trkpt>
      <trkpt lat="45.27792" lon="5.52368">
        <ele>233.967889</ele>
        <time>2022-10-04T07:12:25.146Z</time>
      </trkpt>
      <trkpt lat="45.2778" lon="5.52363">
        <ele>234.138356</ele>
        <time>2022-10-04T07:12:27.150Z</time>
      </trkpt>
      <trkpt lat="45.27768" lon="5.5236">
        <ele>234.291487</ele>
        <time>2022-10-04T07:12:29.146Z</time>
      </trkpt>
      <trkpt lat="45.27756" lon="5.52354">
        <ele>234.107383</ele>
        <time>2022-10-04T07:12:31.147Z</time>
      </trkpt>
      <trkpt lat="45.27744" lon="5.52348">
        <ele>233.935154</ele>
        <time>2022-10-04T07:12:33.150Z</time>
      </trkpt>
      <trkpt lat="45.27731" lon="5.52344">
        <ele>233.738955</ele>
        <time>2022-10-04T07:12:35.145Z</time>
      </trkpt>
      <trkpt lat="45.27717" lon="5.52338">
        <ele>233.528807</ele>
        <time>2022-10-04T07:12:37.145Z</time>
      </trkpt>
      <trkpt lat="45.27703" lon="5.52332">
        <ele>233.324675</ele>
        <time>2022-10-04T07:12:39.148Z</time>
      </trkpt>
      <trkpt lat="45.2769" lon="5.52328">
        <ele>233.123631</ele>
        <time>2022-10-04T07:12:41.150Z</time>
      </trkpt>
      <trkpt lat="45.27675" lon="5.52324">
        <ele>232.91399</ele>
        <time>2022-10-04T07:12:43.149Z</time>
      </trkpt>
      <trkpt lat="45.27663" lon="5.52319">
        <ele>232.729216</ele>
        <time>2022-10-04T07:12:45.150Z</time>
      </trkpt>
      <trkpt lat="45.27651" lon="5.52315">
        <ele>232.551396</ele>
        <time>2022-10-04T07:12:47.149Z</time>
      </trkpt>
      <trkpt lat="45.27638" lon="5.5231">
        <ele>232.358357</ele>
        <time>2022-10-04T07:12:49.143Z</time>
      </trkpt>
      <trkpt lat="45.27625" lon="5.52308">
        <ele>232.169873</ele>
        <time>2022-10-04T07:12:51.145Z</time>
      </trkpt>
      <trkpt lat="45.27613" lon="5.52303">
        <ele>232.000519</ele>
        <time>2022-10-04T07:12:53.150Z</time>
      </trkpt>
      <trkpt lat="45.27601" lon="5.52299">
        <ele>231.816824</ele>
        <time>2022-10-04T07:12:55.145Z</time>
      </trkpt>
      <trkpt lat="45.27588" lon="5.52293">
        <ele>231.640649</ele>
        <time>2022-10-04T07:12:57.145Z</time>
      </trkpt>
      <trkpt lat="45.27577" lon="5.52288">
        <ele>231.488314</ele>
        <time>2022-10-04T07:12:59.144Z</time>
      </trkpt>
      <trkpt lat="45.27565" lon="5.52282">
        <ele>231.341228</ele>
        <time>2022-10-04T07:13:01.146Z</time>
      </trkpt>
      <trkpt lat="45.27552" lon="5.52276">
        <ele>231.169552</ele>
        <time>2022-10-04T07:13:03.148Z</time>
      </trkpt>
      <trkpt lat="45.27539" lon="5.52271">
        <ele>230.999025</ele>
        <time>2022-10-04T07:13:05.145Z</time>
      </trkpt>
      <trkpt lat="45.27527" lon="5.52266">
        <ele>230.848322</ele>
        <time>2022-10-04T07:13:07.145Z</time>
      </trkpt>
      <trkpt lat="45.27515" lon="5.5226">
        <ele>230.690933</ele>
        <time>2022-10-04T07:13:09.141Z</time>
      </trkpt>
      <trkpt lat="45.27503" lon="5.52255">
        <ele>230.531514</ele>
        <time>2022-10-04T07:13:11.144Z</time>
      </trkpt>
      <trkpt lat="45.27491" lon="5.52251">
        <ele>230.375596</ele>
        <time>2022-10-04T07:13:13.147Z</time>
      </trkpt>
      <trkpt lat="45.27478" lon="5.52245">
        <ele>230.205811</ele>
        <time>2022-10-04T07:13:15.145Z</time>
      </trkpt>
      <trkpt lat="45.27463" lon="5.5224">
        <ele>230.017585</ele>
        <time>2022-10-04T07:13:17.146Z</time>
      </trkpt>
      <trkpt lat="45.2745" lon="5.52235">
        <ele>229.844654</ele>
        <time>2022-10-04T07:13:19.149Z</time>
      </trkpt>
      <trkpt lat="45.27436" lon="5.5223">
        <ele>229.67094</ele>
        <time>2022-10-04T07:13:21.145Z</time>
      </trkpt>
      <trkpt lat="45.27423" lon="5.52227">
        <ele>229.510544</ele>
        <time>2022-10-04T07:13:23.149Z</time>
      </trkpt>
      <trkpt lat="45.2741" lon="5.52224">
        <ele>229.486173</ele>
        <time>2022-10-04T07:13:25.145Z</time>
      </trkpt>
      <trkpt lat="45.27398" lon="5.52218">
        <ele>229.484211</ele>
        <time>2022-10-04T07:13:27.145Z</time>
      </trkpt>
      <trkpt lat="45.27384" lon="5.52213">
        <ele>229.482098</ele>
        <time>2022-10-04T07:13:29.145Z</time>
      </trkpt>
      <trkpt lat="45.27372" lon="5.52212">
        <ele>229.480207</ele>
        <time>2022-10-04T07:13:31.145Z</time>
      </trkpt>
      <trkpt lat="45.2736" lon="5.5221">
        <ele>229.478413</ele>
        <time>2022-10-04T07:13:33.148Z</time>
      </trkpt>
      <trkpt lat="45.27345" lon="5.52207">
        <ele>229.476195</ele>
        <time>2022-10-04T07:13:35.146Z</time>
      </trkpt>
      <trkpt lat="45.27332" lon="5.52203">
        <ele>229.474177</ele>
        <time>2022-10-04T07:13:37.145Z</time>
      </trkpt>
      <trkpt lat="45.2732" lon="5.522">
        <ele>229.4723</ele>
        <time>2022-10-04T07:13:39.143Z</time>
      </trkpt>
      <trkpt lat="45.27307" lon="5.52196">
        <ele>229.470226</ele>
        <time>2022-10-04T07:13:41.147Z</time>
      </trkpt>
      <trkpt lat="45.27295" lon="5.52192">
        <ele>229.46847</ele>
        <time>2022-10-04T07:13:43.149Z</time>
      </trkpt>
      <trkpt lat="45.27284" lon="5.52188">
        <ele>229.466633</ele>
        <time>2022-10-04T07:13:45.147Z</time>
      </trkpt>
      <trkpt lat="45.27271" lon="5.52183">
        <ele>229.464726</ele>
        <time>2022-10-04T07:13:47.143Z</time>
      </trkpt>
      <trkpt lat="45.27259" lon="5.5218">
        <ele>229.462813</ele>
        <time>2022-10-04T07:13:49.146Z</time>
      </trkpt>
      <trkpt lat="45.27246" lon="5.52175">
        <ele>229.460555</ele>
        <time>2022-10-04T07:13:51.147Z</time>
      </trkpt>
      <trkpt lat="45.27233" lon="5.52171">
        <ele>229.392982</ele>
        <time>2022-10-04T07:13:53.144Z</time>
      </trkpt>
      <trkpt lat="45.2722" lon="5.52167">
        <ele>229.326423</ele>
        <time>2022-10-04T07:13:55.147Z</time>
      </trkpt>
      <trkpt lat="45.27208" lon="5.52164">
        <ele>229.26233</ele>
        <time>2022-10-04T07:13:57.150Z</time>
      </trkpt>
      <trkpt lat="45.27195" lon="5.52159">
        <ele>229.194939</ele>
        <time>2022-10-04T07:13:59.147Z</time>
      </trkpt>
      <trkpt lat="45.27183" lon="5.52156">
        <ele>229.129076</ele>
        <time>2022-10-04T07:14:01.146Z</time>
      </trkpt>
      <trkpt lat="45.27173" lon="5.52155">
        <ele>229.078179</ele>
        <time>2022-10-04T07:14:02.151Z</time>
      </trkpt>
      <trkpt lat="45.2716" lon="5.52151">
        <ele>229.010605</ele>
        <time>2022-10-04T07:14:04.147Z</time>
      </trkpt>
      <trkpt lat="45.27148" lon="5.52146">
        <ele>228.948499</ele>
        <time>2022-10-04T07:14:06.149Z</time>
      </trkpt>
      <trkpt lat="45.27134" lon="5.52142">
        <ele>228.874302</ele>
        <time>2022-10-04T07:14:08.143Z</time>
      </trkpt>
      <trkpt lat="45.27121" lon="5.52135">
        <ele>228.798828</ele>
        <time>2022-10-04T07:14:10.150Z</time>
      </trkpt>
      <trkpt lat="45.27108" lon="5.52129">
        <ele>228.730487</ele>
        <time>2022-10-04T07:14:12.156Z</time>
      </trkpt>
      <trkpt lat="45.27096" lon="5.52125">
        <ele>228.66451</ele>
        <time>2022-10-04T07:14:14.148Z</time>
      </trkpt>
      <trkpt lat="45.27083" lon="5.52118">
        <ele>228.593131</ele>
        <time>2022-10-04T07:14:16.142Z</time>
      </trkpt>
      <trkpt lat="45.2707" lon="5.52115">
        <ele>228.57676</ele>
        <time>2022-10-04T07:14:18.149Z</time>
      </trkpt>
      <trkpt lat="45.27057" lon="5.52111">
        <ele>229.11731</ele>
        <time>2022-10-04T07:14:20.147Z</time>
      </trkpt>
      <trkpt lat="45.27046" lon="5.52109">
        <ele>229.578722</ele>
        <time>2022-10-04T07:14:22.150Z</time>
      </trkpt>
      <trkpt lat="45.27032" lon="5.52106">
        <ele>230.121281</ele>
        <time>2022-10-04T07:14:24.149Z</time>
      </trkpt>
      <trkpt lat="45.2702" lon="5.52104">
        <ele>230.60778</ele>
        <time>2022-10-04T07:14:26.152Z</time>
      </trkpt>
      <trkpt lat="45.27007" lon="5.52102">
        <ele>231.130043</ele>
        <time>2022-10-04T07:14:28.150Z</time>
      </trkpt>
      <trkpt lat="45.26993" lon="5.52098">
        <ele>231.691351</ele>
        <time>2022-10-04T07:14:30.149Z</time>
      </trkpt>
      <trkpt lat="45.26981" lon="5.52094">
        <ele>232.202792</ele>
        <time>2022-10-04T07:14:32.145Z</time>
      </trkpt>
      <trkpt lat="45.26968" lon="5.52089">
        <ele>232.721749</ele>
        <time>2022-10-04T07:14:34.148Z</time>
      </trkpt>
      <trkpt lat="45.26955" lon="5.52086">
        <ele>233.273391</ele>
        <time>2022-10-04T07:14:36.147Z</time>
      </trkpt>
      <trkpt lat="45.2694" lon="5.52083">
        <ele>233.871655</ele>
        <time>2022-10-04T07:14:38.149Z</time>
      </trkpt>
      <trkpt lat="45.26926" lon="5.52081">
        <ele>234.443473</ele>
        <time>2022-10-04T07:14:40.148Z</time>
      </trkpt>
      <trkpt lat="45.26916" lon="5.52076">
        <ele>234.866479</ele>
        <time>2022-10-04T07:14:42.144Z</time>
      </trkpt>
      <trkpt lat="45.26904" lon="5.52074">
        <ele>235.344729</ele>
        <time>2022-10-04T07:14:44.142Z</time>
      </trkpt>
      <trkpt lat="45.2689" lon="5.52072">
        <ele>235.588782</ele>
        <time>2022-10-04T07:14:46.147Z</time>
      </trkpt>
      <trkpt lat="45.26878" lon="5.52069">
        <ele>235.232542</ele>
        <time>2022-10-04T07:14:48.143Z</time>
      </trkpt>
      <trkpt lat="45.26869" lon="5.52065">
        <ele>234.923953</ele>
        <time>2022-10-04T07:14:50.145Z</time>
      </trkpt>
      <trkpt lat="45.26855" lon="5.52062">
        <ele>234.51549</ele>
        <time>2022-10-04T07:14:52.145Z</time>
      </trkpt>
      <trkpt lat="45.2684" lon="5.52058">
        <ele>234.029477</ele>
        <time>2022-10-04T07:14:54.144Z</time>
      </trkpt>
      <trkpt lat="45.26826" lon="5.52052">
        <ele>233.59744</ele>
        <time>2022-10-04T07:14:56.148Z</time>
      </trkpt>
      <trkpt lat="45.26813" lon="5.52049">
        <ele>233.200935</ele>
        <time>2022-10-04T07:14:58.143Z</time>
      </trkpt>
      <trkpt lat="45.26798" lon="5.52044">
        <ele>232.740385</ele>
        <time>2022-10-04T07:15:00.151Z</time>
      </trkpt>
      <trkpt lat="45.26785" lon="5.52039">
        <ele>232.32398</ele>
        <time>2022-10-04T07:15:02.145Z</time>
      </trkpt>
      <trkpt lat="45.26772" lon="5.52035">
        <ele>231.936576</ele>
        <time>2022-10-04T07:15:04.149Z</time>
      </trkpt>
      <trkpt lat="45.2676" lon="5.52033">
        <ele>231.565374</ele>
        <time>2022-10-04T07:15:06.144Z</time>
      </trkpt>
      <trkpt lat="45.26748" lon="5.52029">
        <ele>231.177518</ele>
        <time>2022-10-04T07:15:08.149Z</time>
      </trkpt>
      <trkpt lat="45.26734" lon="5.52024">
        <ele>230.743996</ele>
        <time>2022-10-04T07:15:10.147Z</time>
      </trkpt>
      <trkpt lat="45.26721" lon="5.5202">
        <ele>230.331543</ele>
        <time>2022-10-04T07:15:12.147Z</time>
      </trkpt>
      <trkpt lat="45.26708" lon="5.52017">
        <ele>230.501706</ele>
        <time>2022-10-04T07:15:14.148Z</time>
      </trkpt>
      <trkpt lat="45.26696" lon="5.52012">
        <ele>230.760815</ele>
        <time>2022-10-04T07:15:16.147Z</time>
      </trkpt>
      <trkpt lat="45.26681" lon="5.52008">
        <ele>231.074045</ele>
        <time>2022-10-04T07:15:18.149Z</time>
      </trkpt>
      <trkpt lat="45.26671" lon="5.52003">
        <ele>231.289682</ele>
        <time>2022-10-04T07:15:20.149Z</time>
      </trkpt>
      <trkpt lat="45.26657" lon="5.52">
        <ele>231.590608</ele>
        <time>2022-10-04T07:15:22.147Z</time>
      </trkpt>
      <trkpt lat="45.26646" lon="5.51992">
        <ele>231.855883</ele>
        <time>2022-10-04T07:15:24.148Z</time>
      </trkpt>
      <trkpt lat="45.26635" lon="5.51982">
        <ele>232.134974</ele>
        <time>2022-10-04T07:15:26.151Z</time>
      </trkpt>
      <trkpt lat="45.26623" lon="5.51973">
        <ele>232.417832</ele>
        <time>2022-10-04T07:15:28.143Z</time>
      </trkpt>
      <trkpt lat="45.26611" lon="5.51964">
        <ele>232.68735</ele>
        <time>2022-10-04T07:15:30.147Z</time>
      </trkpt>
      <trkpt lat="45.26602" lon="5.51958">
        <ele>232.901358</ele>
        <time>2022-10-04T07:15:32.148Z</time>
      </trkpt>
      <trkpt lat="45.26592" lon="5.51948">
        <ele>233.164657</ele>
        <time>2022-10-04T07:15:34.146Z</time>
      </trkpt>
      <trkpt lat="45.2658" lon="5.5194">
        <ele>233.433645</ele>
        <time>2022-10-04T07:15:36.147Z</time>
      </trkpt>
      <trkpt lat="45.2657" lon="5.51933">
        <ele>233.669679</ele>
        <time>2022-10-04T07:15:38.152Z</time>
      </trkpt>
      <trkpt lat="45.26559" lon="5.51922">
        <ele>233.959156</ele>
        <time>2022-10-04T07:15:40.147Z</time>
      </trkpt>
      <trkpt lat="45.26543" lon="5.51912">
        <ele>233.998883</ele>
        <time>2022-10-04T07:15:42.148Z</time>
      </trkpt>
      <trkpt lat="45.26531" lon="5.51903">
        <ele>233.956919</ele>
        <time>2022-10-04T07:15:44.148Z</time>
      </trkpt>
      <trkpt lat="45.26519" lon="5.51896">
        <ele>233.917889</ele>
        <time>2022-10-04T07:15:46.148Z</time>
      </trkpt>
      <trkpt lat="45.26509" lon="5.51886">
        <ele>233.881368</ele>
        <time>2022-10-04T07:15:48.146Z</time>
      </trkpt>
      <trkpt lat="45.26499" lon="5.51877">
        <ele>233.843264</ele>
        <time>2022-10-04T07:15:50.147Z</time>
      </trkpt>
      <trkpt lat="45.26488" lon="5.51867">
        <ele>233.80585</ele>
        <time>2022-10-04T07:15:52.147Z</time>
      </trkpt>
      <trkpt lat="45.26478" lon="5.5186">
        <ele>233.772116</ele>
        <time>2022-10-04T07:15:54.154Z</time>
      </trkpt>
      <trkpt lat="45.26464" lon="5.51848">
        <ele>233.722307</ele>
        <time>2022-10-04T07:15:56.148Z</time>
      </trkpt>
      <trkpt lat="45.2645" lon="5.51842">
        <ele>233.677671</ele>
        <time>2022-10-04T07:15:58.143Z</time>
      </trkpt>
      <trkpt lat="45.26435" lon="5.5183">
        <ele>233.626994</ele>
        <time>2022-10-04T07:16:00.149Z</time>
      </trkpt>
      <trkpt lat="45.26423" lon="5.51825">
        <ele>233.588903</ele>
        <time>2022-10-04T07:16:02.145Z</time>
      </trkpt>
      <trkpt lat="45.26412" lon="5.51817">
        <ele>233.551336</ele>
        <time>2022-10-04T07:16:04.149Z</time>
      </trkpt>
      <trkpt lat="45.26399" lon="5.51808">
        <ele>233.507304</ele>
        <time>2022-10-04T07:16:06.144Z</time>
      </trkpt>
      <trkpt lat="45.26388" lon="5.518">
        <ele>233.658405</ele>
        <time>2022-10-04T07:16:08.148Z</time>
      </trkpt>
      <trkpt lat="45.26376" lon="5.51793">
        <ele>233.905599</ele>
        <time>2022-10-04T07:16:10.150Z</time>
      </trkpt>
      <trkpt lat="45.26365" lon="5.51784">
        <ele>234.173638</ele>
        <time>2022-10-04T07:16:12.149Z</time>
      </trkpt>
      <trkpt lat="45.26351" lon="5.51775">
        <ele>234.468773</ele>
        <time>2022-10-04T07:16:14.146Z</time>
      </trkpt>
      <trkpt lat="45.26341" lon="5.51767">
        <ele>234.700817</ele>
        <time>2022-10-04T07:16:16.149Z</time>
      </trkpt>
      <trkpt lat="45.26329" lon="5.5176">
        <ele>234.963641</ele>
        <time>2022-10-04T07:16:18.147Z</time>
      </trkpt>
      <trkpt lat="45.26318" lon="5.51752">
        <ele>235.21377</ele>
        <time>2022-10-04T07:16:20.145Z</time>
      </trkpt>
      <trkpt lat="45.26306" lon="5.51744">
        <ele>235.480598</ele>
        <time>2022-10-04T07:16:22.147Z</time>
      </trkpt>
      <trkpt lat="45.26294" lon="5.51735">
        <ele>235.745274</ele>
        <time>2022-10-04T07:16:24.148Z</time>
      </trkpt>
      <trkpt lat="45.26281" lon="5.51726">
        <ele>236.030188</ele>
        <time>2022-10-04T07:16:26.146Z</time>
      </trkpt>
      <trkpt lat="45.2627" lon="5.51719">
        <ele>236.269912</ele>
        <time>2022-10-04T07:16:28.147Z</time>
      </trkpt>
      <trkpt lat="45.26259" lon="5.51711">
        <ele>236.52349</ele>
        <time>2022-10-04T07:16:30.145Z</time>
      </trkpt>
      <trkpt lat="45.26246" lon="5.51704">
        <ele>236.796352</ele>
        <time>2022-10-04T07:16:32.147Z</time>
      </trkpt>
      <trkpt lat="45.26234" lon="5.51697">
        <ele>237.051834</ele>
        <time>2022-10-04T07:16:34.149Z</time>
      </trkpt>
      <trkpt lat="45.26222" lon="5.51688">
        <ele>236.847693</ele>
        <time>2022-10-04T07:16:36.151Z</time>
      </trkpt>
      <trkpt lat="45.26211" lon="5.5168">
        <ele>236.577692</ele>
        <time>2022-10-04T07:16:38.145Z</time>
      </trkpt>
      <trkpt lat="45.26199" lon="5.51671">
        <ele>236.288349</ele>
        <time>2022-10-04T07:16:40.146Z</time>
      </trkpt>
      <trkpt lat="45.26188" lon="5.51662">
        <ele>236.022066</ele>
        <time>2022-10-04T07:16:42.148Z</time>
      </trkpt>
      <trkpt lat="45.26175" lon="5.51652">
        <ele>235.706987</ele>
        <time>2022-10-04T07:16:44.144Z</time>
      </trkpt>
      <trkpt lat="45.26163" lon="5.51643">
        <ele>235.430434</ele>
        <time>2022-10-04T07:16:46.146Z</time>
      </trkpt>
      <trkpt lat="45.26152" lon="5.51633">
        <ele>235.148243</ele>
        <time>2022-10-04T07:16:48.144Z</time>
      </trkpt>
      <trkpt lat="45.26141" lon="5.51624">
        <ele>234.875009</ele>
        <time>2022-10-04T07:16:50.147Z</time>
      </trkpt>
      <trkpt lat="45.2613" lon="5.51613">
        <ele>234.606283</ele>
        <time>2022-10-04T07:16:52.145Z</time>
      </trkpt>
      <trkpt lat="45.26119" lon="5.51602">
        <ele>234.316083</ele>
        <time>2022-10-04T07:16:54.150Z</time>
      </trkpt>
      <trkpt lat="45.26109" lon="5.51591">
        <ele>234.049933</ele>
        <time>2022-10-04T07:16:56.145Z</time>
      </trkpt>
      <trkpt lat="45.26097" lon="5.51581">
        <ele>233.752314</ele>
        <time>2022-10-04T07:16:58.149Z</time>
      </trkpt>
      <trkpt lat="45.26085" lon="5.51571">
        <ele>233.469099</ele>
        <time>2022-10-04T07:17:00.148Z</time>
      </trkpt>
      <trkpt lat="45.26076" lon="5.51561">
        <ele>233.206014</ele>
        <time>2022-10-04T07:17:02.149Z</time>
      </trkpt>
      <trkpt lat="45.26064" lon="5.51551">
        <ele>232.853615</ele>
        <time>2022-10-04T07:17:04.150Z</time>
      </trkpt>
      <trkpt lat="45.26053" lon="5.5154">
        <ele>232.511801</ele>
        <time>2022-10-04T07:17:06.146Z</time>
      </trkpt>
      <trkpt lat="45.26042" lon="5.51529">
        <ele>232.173076</ele>
        <time>2022-10-04T07:17:08.145Z</time>
      </trkpt>
      <trkpt lat="45.26031" lon="5.51518">
        <ele>231.838452</ele>
        <time>2022-10-04T07:17:10.147Z</time>
      </trkpt>
      <trkpt lat="45.2602" lon="5.51504">
        <ele>231.471708</ele>
        <time>2022-10-04T07:17:12.145Z</time>
      </trkpt>
      <trkpt lat="45.26009" lon="5.51495">
        <ele>231.145652</ele>
        <time>2022-10-04T07:17:14.148Z</time>
      </trkpt>
      <trkpt lat="45.25999" lon="5.51484">
        <ele>230.829556</ele>
        <time>2022-10-04T07:17:16.149Z</time>
      </trkpt>
      <trkpt lat="45.25988" lon="5.51474">
        <ele>230.503965</ele>
        <time>2022-10-04T07:17:18.155Z</time>
      </trkpt>
      <trkpt lat="45.25978" lon="5.51463">
        <ele>230.177279</ele>
        <time>2022-10-04T07:17:20.144Z</time>
      </trkpt>
      <trkpt lat="45.25968" lon="5.51451">
        <ele>229.83937</ele>
        <time>2022-10-04T07:17:22.149Z</time>
      </trkpt>
      <trkpt lat="45.25957" lon="5.51439">
        <ele>229.508685</ele>
        <time>2022-10-04T07:17:24.151Z</time>
      </trkpt>
      <trkpt lat="45.25946" lon="5.51427">
        <ele>229.160403</ele>
        <time>2022-10-04T07:17:26.145Z</time>
      </trkpt>
      <trkpt lat="45.25938" lon="5.51417">
        <ele>228.881666</ele>
        <time>2022-10-04T07:17:28.148Z</time>
      </trkpt>
      <trkpt lat="45.25929" lon="5.51408">
        <ele>229.013269</ele>
        <time>2022-10-04T07:17:30.145Z</time>
      </trkpt>
      <trkpt lat="45.25918" lon="5.51398">
        <ele>229.512353</ele>
        <time>2022-10-04T07:17:32.149Z</time>
      </trkpt>
      <trkpt lat="45.25908" lon="5.51389">
        <ele>229.987922</ele>
        <time>2022-10-04T07:17:34.149Z</time>
      </trkpt>
      <trkpt lat="45.25897" lon="5.51377">
        <ele>230.490275</ele>
        <time>2022-10-04T07:17:36.146Z</time>
      </trkpt>
      <trkpt lat="45.25887" lon="5.51366">
        <ele>231.011279</ele>
        <time>2022-10-04T07:17:38.146Z</time>
      </trkpt>
      <trkpt lat="45.25876" lon="5.51356">
        <ele>231.525935</ele>
        <time>2022-10-04T07:17:40.146Z</time>
      </trkpt>
      <trkpt lat="45.25864" lon="5.51347">
        <ele>232.044962</ele>
        <time>2022-10-04T07:17:42.162Z</time>
      </trkpt>
      <trkpt lat="45.25854" lon="5.51337">
        <ele>232.53897</ele>
        <time>2022-10-04T07:17:44.144Z</time>
      </trkpt>
      <trkpt lat="45.25842" lon="5.51326">
        <ele>233.071214</ele>
        <time>2022-10-04T07:17:46.141Z</time>
      </trkpt>
      <trkpt lat="45.25831" lon="5.51316">
        <ele>233.581482</ele>
        <time>2022-10-04T07:17:48.148Z</time>
      </trkpt>
      <trkpt lat="45.25821" lon="5.51307">
        <ele>234.052293</ele>
        <time>2022-10-04T07:17:50.145Z</time>
      </trkpt>
      <trkpt lat="45.25809" lon="5.51297">
        <ele>234.598169</ele>
        <time>2022-10-04T07:17:52.143Z</time>
      </trkpt>
      <trkpt lat="45.25798" lon="5.51288">
        <ele>235.06034</ele>
        <time>2022-10-04T07:17:54.146Z</time>
      </trkpt>
      <trkpt lat="45.25785" lon="5.51278">
        <ele>235.644429</ele>
        <time>2022-10-04T07:17:56.149Z</time>
      </trkpt>
      <trkpt lat="45.25773" lon="5.51266">
        <ele>235.811775</ele>
        <time>2022-10-04T07:17:58.147Z</time>
      </trkpt>
      <trkpt lat="45.25764" lon="5.51257">
        <ele>235.854384</ele>
        <time>2022-10-04T07:18:00.147Z</time>
      </trkpt>
      <trkpt lat="45.25754" lon="5.51246">
        <ele>235.900358</ele>
        <time>2022-10-04T07:18:02.145Z</time>
      </trkpt>
      <trkpt lat="45.25747" lon="5.51238">
        <ele>235.935844</ele>
        <time>2022-10-04T07:18:04.150Z</time>
      </trkpt>
      <trkpt lat="45.25736" lon="5.51227">
        <ele>235.986912</ele>
        <time>2022-10-04T07:18:06.147Z</time>
      </trkpt>
      <trkpt lat="45.25724" lon="5.51214">
        <ele>236.043924</ele>
        <time>2022-10-04T07:18:08.146Z</time>
      </trkpt>
      <trkpt lat="45.25713" lon="5.51201">
        <ele>236.096819</ele>
        <time>2022-10-04T07:18:10.147Z</time>
      </trkpt>
      <trkpt lat="45.25702" lon="5.51192">
        <ele>236.146745</ele>
        <time>2022-10-04T07:18:12.147Z</time>
      </trkpt>
      <trkpt lat="45.25691" lon="5.51181">
        <ele>236.198281</ele>
        <time>2022-10-04T07:18:14.149Z</time>
      </trkpt>
      <trkpt lat="45.2568" lon="5.51169">
        <ele>236.248585</ele>
        <time>2022-10-04T07:18:16.148Z</time>
      </trkpt>
      <trkpt lat="45.25671" lon="5.5116">
        <ele>236.291639</ele>
        <time>2022-10-04T07:18:18.147Z</time>
      </trkpt>
      <trkpt lat="45.25659" lon="5.51149">
        <ele>236.346113</ele>
        <time>2022-10-04T07:18:20.149Z</time>
      </trkpt>
      <trkpt lat="45.25642" lon="5.51143">
        <ele>236.410568</ele>
        <time>2022-10-04T07:18:22.154Z</time>
      </trkpt>
      <trkpt lat="45.25634" lon="5.51127">
        <ele>236.289231</ele>
        <time>2022-10-04T07:18:24.145Z</time>
      </trkpt>
      <trkpt lat="45.25628" lon="5.51117">
        <ele>235.937163</ele>
        <time>2022-10-04T07:18:26.147Z</time>
      </trkpt>
      <trkpt lat="45.25614" lon="5.51105">
        <ele>235.33488</ele>
        <time>2022-10-04T07:18:28.149Z</time>
      </trkpt>
      <trkpt lat="45.25607" lon="5.51098">
        <ele>234.992773</ele>
        <time>2022-10-04T07:18:29.151Z</time>
      </trkpt>
      <trkpt lat="45.25598" lon="5.51087">
        <ele>234.558438</ele>
        <time>2022-10-04T07:18:31.144Z</time>
      </trkpt>
      <trkpt lat="45.25586" lon="5.51078">
        <ele>234.058515</ele>
        <time>2022-10-04T07:18:33.145Z</time>
      </trkpt>
      <trkpt lat="45.25575" lon="5.51067">
        <ele>233.555144</ele>
        <time>2022-10-04T07:18:35.149Z</time>
      </trkpt>
      <trkpt lat="45.25566" lon="5.51057">
        <ele>233.105204</ele>
        <time>2022-10-04T07:18:37.145Z</time>
      </trkpt>
      <trkpt lat="45.25554" lon="5.51046">
        <ele>232.566032</ele>
        <time>2022-10-04T07:18:39.149Z</time>
      </trkpt>
      <trkpt lat="45.25542" lon="5.51035">
        <ele>232.058957</ele>
        <time>2022-10-04T07:18:41.146Z</time>
      </trkpt>
      <trkpt lat="45.25531" lon="5.51024">
        <ele>231.532649</ele>
        <time>2022-10-04T07:18:43.146Z</time>
      </trkpt>
      <trkpt lat="45.25521" lon="5.51014">
        <ele>231.075176</ele>
        <time>2022-10-04T07:18:45.148Z</time>
      </trkpt>
      <trkpt lat="45.2551" lon="5.51002">
        <ele>230.583753</ele>
        <time>2022-10-04T07:18:47.148Z</time>
      </trkpt>
      <trkpt lat="45.255" lon="5.50992">
        <ele>230.097208</ele>
        <time>2022-10-04T07:18:49.146Z</time>
      </trkpt>
      <trkpt lat="45.25489" lon="5.50982">
        <ele>229.729496</ele>
        <time>2022-10-04T07:18:51.147Z</time>
      </trkpt>
      <trkpt lat="45.25478" lon="5.50971">
        <ele>229.886494</ele>
        <time>2022-10-04T07:18:53.151Z</time>
      </trkpt>
      <trkpt lat="45.25469" lon="5.50961">
        <ele>230.030013</ele>
        <time>2022-10-04T07:18:55.145Z</time>
      </trkpt>
      <trkpt lat="45.25456" lon="5.5095">
        <ele>230.206207</ele>
        <time>2022-10-04T07:18:57.148Z</time>
      </trkpt>
      <trkpt lat="45.25444" lon="5.5094">
        <ele>230.376105</ele>
        <time>2022-10-04T07:18:59.145Z</time>
      </trkpt>
      <trkpt lat="45.25435" lon="5.50929">
        <ele>230.530539</ele>
        <time>2022-10-04T07:19:01.146Z</time>
      </trkpt>
      <trkpt lat="45.25423" lon="5.50918">
        <ele>230.69497</ele>
        <time>2022-10-04T07:19:03.149Z</time>
      </trkpt>
      <trkpt lat="45.25413" lon="5.50906">
        <ele>230.85668</ele>
        <time>2022-10-04T07:19:05.145Z</time>
      </trkpt>
      <trkpt lat="45.25402" lon="5.50895">
        <ele>231.022628</ele>
        <time>2022-10-04T07:19:07.148Z</time>
      </trkpt>
      <trkpt lat="45.25391" lon="5.50888">
        <ele>231.167937</ele>
        <time>2022-10-04T07:19:09.147Z</time>
      </trkpt>
      <trkpt lat="45.2538" lon="5.50877">
        <ele>231.327423</ele>
        <time>2022-10-04T07:19:11.147Z</time>
      </trkpt>
      <trkpt lat="45.2537" lon="5.50866">
        <ele>231.486061</ele>
        <time>2022-10-04T07:19:13.150Z</time>
      </trkpt>
      <trkpt lat="45.2536" lon="5.50856">
        <ele>231.633648</ele>
        <time>2022-10-04T07:19:15.148Z</time>
      </trkpt>
      <trkpt lat="45.25347" lon="5.50844">
        <ele>231.822007</ele>
        <time>2022-10-04T07:19:17.153Z</time>
      </trkpt>
      <trkpt lat="45.25337" lon="5.50832">
        <ele>231.807633</ele>
        <time>2022-10-04T07:19:19.148Z</time>
      </trkpt>
      <trkpt lat="45.25326" lon="5.50822">
        <ele>231.685066</ele>
        <time>2022-10-04T07:19:21.146Z</time>
      </trkpt>
      <trkpt lat="45.25315" lon="5.50812">
        <ele>231.558611</ele>
        <time>2022-10-04T07:19:23.147Z</time>
      </trkpt>
      <trkpt lat="45.25304" lon="5.50801">
        <ele>231.433405</ele>
        <time>2022-10-04T07:19:25.148Z</time>
      </trkpt>
      <trkpt lat="45.25291" lon="5.5079">
        <ele>231.293859</ele>
        <time>2022-10-04T07:19:27.146Z</time>
      </trkpt>
      <trkpt lat="45.25282" lon="5.5078">
        <ele>231.184379</ele>
        <time>2022-10-04T07:19:29.146Z</time>
      </trkpt>
      <trkpt lat="45.25271" lon="5.50771">
        <ele>231.061438</ele>
        <time>2022-10-04T07:19:31.143Z</time>
      </trkpt>
      <trkpt lat="45.2526" lon="5.50761">
        <ele>230.942888</ele>
        <time>2022-10-04T07:19:33.141Z</time>
      </trkpt>
      <trkpt lat="45.2525" lon="5.50751">
        <ele>230.823418</ele>
        <time>2022-10-04T07:19:35.148Z</time>
      </trkpt>
      <trkpt lat="45.25237" lon="5.50741">
        <ele>230.684213</ele>
        <time>2022-10-04T07:19:37.154Z</time>
      </trkpt>
      <trkpt lat="45.25226" lon="5.50732">
        <ele>230.566817</ele>
        <time>2022-10-04T07:19:39.148Z</time>
      </trkpt>
      <trkpt lat="45.25218" lon="5.50723">
        <ele>230.46985</ele>
        <time>2022-10-04T07:19:41.146Z</time>
      </trkpt>
      <trkpt lat="45.25206" lon="5.50712">
        <ele>230.328225</ele>
        <time>2022-10-04T07:19:43.146Z</time>
      </trkpt>
      <trkpt lat="45.25194" lon="5.50699">
        <ele>230.191423</ele>
        <time>2022-10-04T07:19:45.146Z</time>
      </trkpt>
      <trkpt lat="45.25182" lon="5.5069">
        <ele>230.329098</ele>
        <time>2022-10-04T07:19:47.147Z</time>
      </trkpt>
      <trkpt lat="45.2517" lon="5.50679">
        <ele>230.488224</ele>
        <time>2022-10-04T07:19:49.148Z</time>
      </trkpt>
      <trkpt lat="45.25159" lon="5.50669">
        <ele>230.63385</ele>
        <time>2022-10-04T07:19:51.148Z</time>
      </trkpt>
      <trkpt lat="45.25148" lon="5.50659">
        <ele>230.778353</ele>
        <time>2022-10-04T07:19:53.147Z</time>
      </trkpt>
      <trkpt lat="45.25137" lon="5.50651">
        <ele>230.913098</ele>
        <time>2022-10-04T07:19:55.149Z</time>
      </trkpt>
      <trkpt lat="45.25126" lon="5.50644">
        <ele>231.051846</ele>
        <time>2022-10-04T07:19:57.157Z</time>
      </trkpt>
      <trkpt lat="45.25115" lon="5.50634">
        <ele>231.192769</ele>
        <time>2022-10-04T07:19:59.146Z</time>
      </trkpt>
      <trkpt lat="45.25104" lon="5.50627">
        <ele>231.329851</ele>
        <time>2022-10-04T07:20:01.145Z</time>
      </trkpt>
      <trkpt lat="45.25091" lon="5.50617">
        <ele>231.496151</ele>
        <time>2022-10-04T07:20:03.152Z</time>
      </trkpt>
      <trkpt lat="45.25077" lon="5.50609">
        <ele>231.657928</ele>
        <time>2022-10-04T07:20:05.146Z</time>
      </trkpt>
      <trkpt lat="45.25064" lon="5.50598">
        <ele>231.827753</ele>
        <time>2022-10-04T07:20:07.148Z</time>
      </trkpt>
      <trkpt lat="45.25051" lon="5.5059">
        <ele>231.983918</ele>
        <time>2022-10-04T07:20:09.150Z</time>
      </trkpt>
      <trkpt lat="45.25039" lon="5.50584">
        <ele>232.134983</ele>
        <time>2022-10-04T07:20:11.147Z</time>
      </trkpt>
      <trkpt lat="45.25026" lon="5.50576">
        <ele>232.262194</ele>
        <time>2022-10-04T07:20:13.145Z</time>
      </trkpt>
      <trkpt lat="45.25016" lon="5.50567">
        <ele>232.362936</ele>
        <time>2022-10-04T07:20:15.145Z</time>
      </trkpt>
      <trkpt lat="45.25005" lon="5.50557">
        <ele>232.470009</ele>
        <time>2022-10-04T07:20:17.150Z</time>
      </trkpt>
      <trkpt lat="45.24993" lon="5.50549">
        <ele>232.583458</ele>
        <time>2022-10-04T07:20:19.146Z</time>
      </trkpt>
      <trkpt lat="45.24982" lon="5.50539">
        <ele>232.697497</ele>
        <time>2022-10-04T07:20:21.158Z</time>
      </trkpt>
      <trkpt lat="45.2497" lon="5.50531">
        <ele>232.807643</ele>
        <time>2022-10-04T07:20:23.147Z</time>
      </trkpt>
      <trkpt lat="45.24959" lon="5.50522">
        <ele>232.914926</ele>
        <time>2022-10-04T07:20:25.151Z</time>
      </trkpt>
      <trkpt lat="45.24946" lon="5.50514">
        <ele>233.031398</ele>
        <time>2022-10-04T07:20:27.156Z</time>
      </trkpt>
      <trkpt lat="45.24933" lon="5.50506">
        <ele>233.146676</ele>
        <time>2022-10-04T07:20:29.147Z</time>
      </trkpt>
      <trkpt lat="45.24922" lon="5.50498">
        <ele>233.256331</ele>
        <time>2022-10-04T07:20:31.147Z</time>
      </trkpt>
      <trkpt lat="45.24909" lon="5.50491">
        <ele>233.367762</ele>
        <time>2022-10-04T07:20:33.155Z</time>
      </trkpt>
      <trkpt lat="45.24897" lon="5.50484">
        <ele>233.482251</ele>
        <time>2022-10-04T07:20:35.145Z</time>
      </trkpt>
      <trkpt lat="45.24883" lon="5.50479">
        <ele>233.60343</ele>
        <time>2022-10-04T07:20:37.147Z</time>
      </trkpt>
      <trkpt lat="45.24871" lon="5.5047">
        <ele>233.706901</ele>
        <time>2022-10-04T07:20:39.147Z</time>
      </trkpt>
      <trkpt lat="45.24858" lon="5.50464">
        <ele>233.757381</ele>
        <time>2022-10-04T07:20:41.142Z</time>
      </trkpt>
      <trkpt lat="45.24844" lon="5.50456">
        <ele>233.810772</ele>
        <time>2022-10-04T07:20:43.149Z</time>
      </trkpt>
      <trkpt lat="45.24834" lon="5.50451">
        <ele>233.850303</ele>
        <time>2022-10-04T07:20:45.151Z</time>
      </trkpt>
      <trkpt lat="45.24823" lon="5.50443">
        <ele>233.895098</ele>
        <time>2022-10-04T07:20:47.143Z</time>
      </trkpt>
      <trkpt lat="45.24811" lon="5.50436">
        <ele>233.940002</ele>
        <time>2022-10-04T07:20:49.147Z</time>
      </trkpt>
      <trkpt lat="45.24801" lon="5.5043">
        <ele>233.98137</ele>
        <time>2022-10-04T07:20:51.149Z</time>
      </trkpt>
      <trkpt lat="45.24791" lon="5.50421">
        <ele>234.023693</ele>
        <time>2022-10-04T07:20:53.148Z</time>
      </trkpt>
      <trkpt lat="45.24781" lon="5.50412">
        <ele>234.066039</ele>
        <time>2022-10-04T07:20:55.150Z</time>
      </trkpt>
      <trkpt lat="45.24767" lon="5.50405">
        <ele>234.121575</ele>
        <time>2022-10-04T07:20:57.162Z</time>
      </trkpt>
      <trkpt lat="45.24754" lon="5.50397">
        <ele>234.17203</ele>
        <time>2022-10-04T07:20:59.146Z</time>
      </trkpt>
      <trkpt lat="45.24742" lon="5.5039">
        <ele>234.219872</ele>
        <time>2022-10-04T07:21:01.148Z</time>
      </trkpt>
      <trkpt lat="45.24729" lon="5.50384">
        <ele>234.269331</ele>
        <time>2022-10-04T07:21:03.147Z</time>
      </trkpt>
      <trkpt lat="45.24715" lon="5.50377">
        <ele>234.321791</ele>
        <time>2022-10-04T07:21:05.148Z</time>
      </trkpt>
      <trkpt lat="45.24703" lon="5.5037">
        <ele>234.208137</ele>
        <time>2022-10-04T07:21:07.149Z</time>
      </trkpt>
      <trkpt lat="45.24688" lon="5.50363">
        <ele>233.68724</ele>
        <time>2022-10-04T07:21:09.147Z</time>
      </trkpt>
      <trkpt lat="45.24677" lon="5.50358">
        <ele>233.317042</ele>
        <time>2022-10-04T07:21:11.150Z</time>
      </trkpt>
      <trkpt lat="45.24663" lon="5.50353">
        <ele>232.824377</ele>
        <time>2022-10-04T07:21:13.150Z</time>
      </trkpt>
      <trkpt lat="45.24653" lon="5.50345">
        <ele>232.441471</ele>
        <time>2022-10-04T07:21:15.147Z</time>
      </trkpt>
      <trkpt lat="45.2464" lon="5.50337">
        <ele>231.995076</ele>
        <time>2022-10-04T07:21:17.145Z</time>
      </trkpt>
      <trkpt lat="45.24626" lon="5.50333">
        <ele>231.522081</ele>
        <time>2022-10-04T07:21:19.147Z</time>
      </trkpt>
      <trkpt lat="45.24614" lon="5.50327">
        <ele>231.104753</ele>
        <time>2022-10-04T07:21:21.147Z</time>
      </trkpt>
      <trkpt lat="45.246" lon="5.50321">
        <ele>230.621313</ele>
        <time>2022-10-04T07:21:23.145Z</time>
      </trkpt>
      <trkpt lat="45.24588" lon="5.50313">
        <ele>230.205048</ele>
        <time>2022-10-04T07:21:25.148Z</time>
      </trkpt>
      <trkpt lat="45.24576" lon="5.50308">
        <ele>229.790977</ele>
        <time>2022-10-04T07:21:27.145Z</time>
      </trkpt>
      <trkpt lat="45.24561" lon="5.50298">
        <ele>229.237406</ele>
        <time>2022-10-04T07:21:29.146Z</time>
      </trkpt>
      <trkpt lat="45.24549" lon="5.5029">
        <ele>228.803522</ele>
        <time>2022-10-04T07:21:31.147Z</time>
      </trkpt>
      <trkpt lat="45.24537" lon="5.5028">
        <ele>228.437478</ele>
        <time>2022-10-04T07:21:33.154Z</time>
      </trkpt>
      <trkpt lat="45.24528" lon="5.50275">
        <ele>228.382165</ele>
        <time>2022-10-04T07:21:35.146Z</time>
      </trkpt>
      <trkpt lat="45.24513" lon="5.50268">
        <ele>228.302649</ele>
        <time>2022-10-04T07:21:37.146Z</time>
      </trkpt>
      <trkpt lat="45.24501" lon="5.5026">
        <ele>228.231647</ele>
        <time>2022-10-04T07:21:39.149Z</time>
      </trkpt>
      <trkpt lat="45.24489" lon="5.50253">
        <ele>228.162363</ele>
        <time>2022-10-04T07:21:41.145Z</time>
      </trkpt>
      <trkpt lat="45.24476" lon="5.50244">
        <ele>228.085458</ele>
        <time>2022-10-04T07:21:43.143Z</time>
      </trkpt>
      <trkpt lat="45.24465" lon="5.50234">
        <ele>228.015886</ele>
        <time>2022-10-04T07:21:45.155Z</time>
      </trkpt>
      <trkpt lat="45.24454" lon="5.50224">
        <ele>227.945616</ele>
        <time>2022-10-04T07:21:47.145Z</time>
      </trkpt>
      <trkpt lat="45.24444" lon="5.50214">
        <ele>227.883345</ele>
        <time>2022-10-04T07:21:49.147Z</time>
      </trkpt>
      <trkpt lat="45.24433" lon="5.50205">
        <ele>227.814915</ele>
        <time>2022-10-04T07:21:51.147Z</time>
      </trkpt>
      <trkpt lat="45.24422" lon="5.50197">
        <ele>227.749415</ele>
        <time>2022-10-04T07:21:53.146Z</time>
      </trkpt>
      <trkpt lat="45.24411" lon="5.50189">
        <ele>227.681285</ele>
        <time>2022-10-04T07:21:55.148Z</time>
      </trkpt>
      <trkpt lat="45.24401" lon="5.50179">
        <ele>227.618448</ele>
        <time>2022-10-04T07:21:57.147Z</time>
      </trkpt>
      <trkpt lat="45.24389" lon="5.50171">
        <ele>227.546967</ele>
        <time>2022-10-04T07:21:59.144Z</time>
      </trkpt>
      <trkpt lat="45.24378" lon="5.50162">
        <ele>227.601455</ele>
        <time>2022-10-04T07:22:01.154Z</time>
      </trkpt>
      <trkpt lat="45.24366" lon="5.50151">
        <ele>227.987558</ele>
        <time>2022-10-04T07:22:03.150Z</time>
      </trkpt>
      <trkpt lat="45.24353" lon="5.50142">
        <ele>228.350248</ele>
        <time>2022-10-04T07:22:05.147Z</time>
      </trkpt>
      <trkpt lat="45.24343" lon="5.50135">
        <ele>228.676754</ele>
        <time>2022-10-04T07:22:07.142Z</time>
      </trkpt>
      <trkpt lat="45.24332" lon="5.50125">
        <ele>228.997733</ele>
        <time>2022-10-04T07:22:09.146Z</time>
      </trkpt>
      <trkpt lat="45.24322" lon="5.50116">
        <ele>229.337889</ele>
        <time>2022-10-04T07:22:11.147Z</time>
      </trkpt>
      <trkpt lat="45.2431" lon="5.50106">
        <ele>229.704154</ele>
        <time>2022-10-04T07:22:13.146Z</time>
      </trkpt>
      <trkpt lat="45.24297" lon="5.50097">
        <ele>230.087259</ele>
        <time>2022-10-04T07:22:15.150Z</time>
      </trkpt>
      <trkpt lat="45.24287" lon="5.50087">
        <ele>230.41403</ele>
        <time>2022-10-04T07:22:17.146Z</time>
      </trkpt>
      <trkpt lat="45.24277" lon="5.50073">
        <ele>230.78909</ele>
        <time>2022-10-04T07:22:19.144Z</time>
      </trkpt>
      <trkpt lat="45.24268" lon="5.50063">
        <ele>231.087312</ele>
        <time>2022-10-04T07:22:21.146Z</time>
      </trkpt>
      <trkpt lat="45.24259" lon="5.50055">
        <ele>231.380915</ele>
        <time>2022-10-04T07:22:23.147Z</time>
      </trkpt>
      <trkpt lat="45.24245" lon="5.50045">
        <ele>231.799283</ele>
        <time>2022-10-04T07:22:25.146Z</time>
      </trkpt>
      <trkpt lat="45.24234" lon="5.50035">
        <ele>232.147926</ele>
        <time>2022-10-04T07:22:27.145Z</time>
      </trkpt>
      <trkpt lat="45.24223" lon="5.50024">
        <ele>232.321706</ele>
        <time>2022-10-04T07:22:29.152Z</time>
      </trkpt>
      <trkpt lat="45.24211" lon="5.50012">
        <ele>232.341441</ele>
        <time>2022-10-04T07:22:31.149Z</time>
      </trkpt>
      <trkpt lat="45.24202" lon="5.50002">
        <ele>232.357294</ele>
        <time>2022-10-04T07:22:33.146Z</time>
      </trkpt>
      <trkpt lat="45.24193" lon="5.49993">
        <ele>232.372206</ele>
        <time>2022-10-04T07:22:35.147Z</time>
      </trkpt>
      <trkpt lat="45.24183" lon="5.49981">
        <ele>232.389901</ele>
        <time>2022-10-04T07:22:37.147Z</time>
      </trkpt>
      <trkpt lat="45.24173" lon="5.49971">
        <ele>232.407529</ele>
        <time>2022-10-04T07:22:39.150Z</time>
      </trkpt>
      <trkpt lat="45.2416" lon="5.49959">
        <ele>232.427709</ele>
        <time>2022-10-04T07:22:41.147Z</time>
      </trkpt>
      <trkpt lat="45.2415" lon="5.49947">
        <ele>232.446152</ele>
        <time>2022-10-04T07:22:43.144Z</time>
      </trkpt>
      <trkpt lat="45.24138" lon="5.49934">
        <ele>232.465674</ele>
        <time>2022-10-04T07:22:45.144Z</time>
      </trkpt>
      <trkpt lat="45.24129" lon="5.49923">
        <ele>232.48267</ele>
        <time>2022-10-04T07:22:47.145Z</time>
      </trkpt>
      <trkpt lat="45.24119" lon="5.49911">
        <ele>232.500696</ele>
        <time>2022-10-04T07:22:49.147Z</time>
      </trkpt>
      <trkpt lat="45.24109" lon="5.499">
        <ele>232.517219</ele>
        <time>2022-10-04T07:22:51.153Z</time>
      </trkpt>
      <trkpt lat="45.24099" lon="5.49891">
        <ele>232.533348</ele>
        <time>2022-10-04T07:22:53.153Z</time>
      </trkpt>
      <trkpt lat="45.24089" lon="5.49878">
        <ele>232.551879</ele>
        <time>2022-10-04T07:22:55.146Z</time>
      </trkpt>
      <trkpt lat="45.24079" lon="5.49866">
        <ele>232.511385</ele>
        <time>2022-10-04T07:22:57.150Z</time>
      </trkpt>
      <trkpt lat="45.24068" lon="5.49854">
        <ele>232.446764</ele>
        <time>2022-10-04T07:22:59.148Z</time>
      </trkpt>
      <trkpt lat="45.24056" lon="5.49841">
        <ele>232.378067</ele>
        <time>2022-10-04T07:23:01.149Z</time>
      </trkpt>
      <trkpt lat="45.24044" lon="5.49832">
        <ele>232.316816</ele>
        <time>2022-10-04T07:23:03.144Z</time>
      </trkpt>
      <trkpt lat="45.24035" lon="5.49823">
        <ele>232.267264</ele>
        <time>2022-10-04T07:23:05.151Z</time>
      </trkpt>
      <trkpt lat="45.24026" lon="5.49812">
        <ele>232.208881</ele>
        <time>2022-10-04T07:23:07.145Z</time>
      </trkpt>
      <trkpt lat="45.24016" lon="5.49798">
        <ele>232.148295</ele>
        <time>2022-10-04T07:23:09.150Z</time>
      </trkpt>
      <trkpt lat="45.24004" lon="5.49786">
        <ele>232.07866</ele>
        <time>2022-10-04T07:23:11.146Z</time>
      </trkpt>
      <trkpt lat="45.23994" lon="5.49772">
        <ele>232.014689</ele>
        <time>2022-10-04T07:23:13.147Z</time>
      </trkpt>
      <trkpt lat="45.23988" lon="5.49757">
        <ele>231.957971</ele>
        <time>2022-10-04T07:23:15.146Z</time>
      </trkpt>
      <trkpt lat="45.2398" lon="5.49742">
        <ele>231.896307</ele>
        <time>2022-10-04T07:23:17.144Z</time>
      </trkpt>
      <trkpt lat="45.23969" lon="5.49727">
        <ele>231.829207</ele>
        <time>2022-10-04T07:23:19.153Z</time>
      </trkpt>
      <trkpt lat="45.23959" lon="5.49714">
        <ele>231.762782</ele>
        <time>2022-10-04T07:23:21.146Z</time>
      </trkpt>
      <trkpt lat="45.23951" lon="5.49702">
        <ele>231.697373</ele>
        <time>2022-10-04T07:23:23.147Z</time>
      </trkpt>
      <trkpt lat="45.23944" lon="5.49686">
        <ele>231.58294</ele>
        <time>2022-10-04T07:23:25.151Z</time>
      </trkpt>
      <trkpt lat="45.23937" lon="5.49672">
        <ele>231.480782</ele>
        <time>2022-10-04T07:23:27.151Z</time>
      </trkpt>
      <trkpt lat="45.2393" lon="5.49656">
        <ele>231.370253</ele>
        <time>2022-10-04T07:23:29.148Z</time>
      </trkpt>
      <trkpt lat="45.23922" lon="5.49641">
        <ele>231.255536</ele>
        <time>2022-10-04T07:23:31.150Z</time>
      </trkpt>
      <trkpt lat="45.23916" lon="5.49625">
        <ele>231.14679</ele>
        <time>2022-10-04T07:23:33.144Z</time>
      </trkpt>
      <trkpt lat="45.23905" lon="5.49612">
        <ele>231.023677</ele>
        <time>2022-10-04T07:23:35.144Z</time>
      </trkpt>
      <trkpt lat="45.23896" lon="5.49596">
        <ele>230.900605</ele>
        <time>2022-10-04T07:23:37.144Z</time>
      </trkpt>
      <trkpt lat="45.23886" lon="5.49581">
        <ele>230.779295</ele>
        <time>2022-10-04T07:23:39.152Z</time>
      </trkpt>
      <trkpt lat="45.23878" lon="5.49566">
        <ele>230.665582</ele>
        <time>2022-10-04T07:23:41.145Z</time>
      </trkpt>
      <trkpt lat="45.23871" lon="5.49551">
        <ele>230.555519</ele>
        <time>2022-10-04T07:23:43.149Z</time>
      </trkpt>
      <trkpt lat="45.23864" lon="5.49536">
        <ele>230.446843</ele>
        <time>2022-10-04T07:23:45.147Z</time>
      </trkpt>
      <trkpt lat="45.23857" lon="5.4952">
        <ele>230.334302</ele>
        <time>2022-10-04T07:23:47.146Z</time>
      </trkpt>
      <trkpt lat="45.23851" lon="5.49505">
        <ele>230.230158</ele>
        <time>2022-10-04T07:23:49.145Z</time>
      </trkpt>
      <trkpt lat="45.23843" lon="5.49491">
        <ele>230.136893</ele>
        <time>2022-10-04T07:23:51.148Z</time>
      </trkpt>
      <trkpt lat="45.23835" lon="5.49475">
        <ele>230.049248</ele>
        <time>2022-10-04T07:23:53.147Z</time>
      </trkpt>
      <trkpt lat="45.23826" lon="5.49459">
        <ele>229.956703</ele>
        <time>2022-10-04T07:23:55.145Z</time>
      </trkpt>
      <trkpt lat="45.23818" lon="5.49444">
        <ele>229.866762</ele>
        <time>2022-10-04T07:23:57.146Z</time>
      </trkpt>
      <trkpt lat="45.23809" lon="5.4943">
        <ele>229.782137</ele>
        <time>2022-10-04T07:23:59.147Z</time>
      </trkpt>
      <trkpt lat="45.23801" lon="5.49415">
        <ele>229.694451</ele>
        <time>2022-10-04T07:24:01.149Z</time>
      </trkpt>
      <trkpt lat="45.23793" lon="5.494">
        <ele>229.607525</ele>
        <time>2022-10-04T07:24:03.147Z</time>
      </trkpt>
      <trkpt lat="45.23785" lon="5.49386">
        <ele>229.525043</ele>
        <time>2022-10-04T07:24:05.146Z</time>
      </trkpt>
      <trkpt lat="45.23779" lon="5.4937">
        <ele>229.443238</ele>
        <time>2022-10-04T07:24:07.144Z</time>
      </trkpt>
      <trkpt lat="45.23771" lon="5.49356">
        <ele>229.36003</ele>
        <time>2022-10-04T07:24:09.150Z</time>
      </trkpt>
      <trkpt lat="45.23761" lon="5.49342">
        <ele>229.26784</ele>
        <time>2022-10-04T07:24:11.155Z</time>
      </trkpt>
      <trkpt lat="45.23753" lon="5.49328">
        <ele>229.183192</ele>
        <time>2022-10-04T07:24:13.149Z</time>
      </trkpt>
      <trkpt lat="45.23745" lon="5.49312">
        <ele>229.091016</ele>
        <time>2022-10-04T07:24:15.148Z</time>
      </trkpt>
      <trkpt lat="45.23736" lon="5.49296">
        <ele>229.075068</ele>
        <time>2022-10-04T07:24:17.151Z</time>
      </trkpt>
      <trkpt lat="45.2373" lon="5.49281">
        <ele>229.311314</ele>
        <time>2022-10-04T07:24:19.143Z</time>
      </trkpt>
      <trkpt lat="45.23721" lon="5.49266">
        <ele>229.574095</ele>
        <time>2022-10-04T07:24:21.153Z</time>
      </trkpt>
      <trkpt lat="45.23714" lon="5.49252">
        <ele>229.813433</ele>
        <time>2022-10-04T07:24:23.147Z</time>
      </trkpt>
      <trkpt lat="45.23707" lon="5.49238">
        <ele>230.042449</ele>
        <time>2022-10-04T07:24:25.143Z</time>
      </trkpt>
      <trkpt lat="45.237" lon="5.49224">
        <ele>230.28144</ele>
        <time>2022-10-04T07:24:27.143Z</time>
      </trkpt>
      <trkpt lat="45.2369" lon="5.49209">
        <ele>230.550352</ele>
        <time>2022-10-04T07:24:29.146Z</time>
      </trkpt>
      <trkpt lat="45.23684" lon="5.49195">
        <ele>230.787165</ele>
        <time>2022-10-04T07:24:31.146Z</time>
      </trkpt>
      <trkpt lat="45.23676" lon="5.49179">
        <ele>231.054039</ele>
        <time>2022-10-04T07:24:33.148Z</time>
      </trkpt>
      <trkpt lat="45.23669" lon="5.49163">
        <ele>231.301266</ele>
        <time>2022-10-04T07:24:35.151Z</time>
      </trkpt>
      <trkpt lat="45.2366" lon="5.49149">
        <ele>231.558663</ele>
        <time>2022-10-04T07:24:37.146Z</time>
      </trkpt>
      <trkpt lat="45.23654" lon="5.49135">
        <ele>231.790971</ele>
        <time>2022-10-04T07:24:39.149Z</time>
      </trkpt>
      <trkpt lat="45.23645" lon="5.49119">
        <ele>232.060412</ele>
        <time>2022-10-04T07:24:41.146Z</time>
      </trkpt>
      <trkpt lat="45.23637" lon="5.49104">
        <ele>232.313947</ele>
        <time>2022-10-04T07:24:43.145Z</time>
      </trkpt>
      <trkpt lat="45.23628" lon="5.49088">
        <ele>232.388259</ele>
        <time>2022-10-04T07:24:45.152Z</time>
      </trkpt>
      <trkpt lat="45.23622" lon="5.49076">
        <ele>232.183034</ele>
        <time>2022-10-04T07:24:47.149Z</time>
      </trkpt>
      <trkpt lat="45.23613" lon="5.49061">
        <ele>231.919604</ele>
        <time>2022-10-04T07:24:49.149Z</time>
      </trkpt>
      <trkpt lat="45.23604" lon="5.49048">
        <ele>231.664031</ele>
        <time>2022-10-04T07:24:51.144Z</time>
      </trkpt>
      <trkpt lat="45.23594" lon="5.49034">
        <ele>231.406915</ele>
        <time>2022-10-04T07:24:53.147Z</time>
      </trkpt>
      <trkpt lat="45.23585" lon="5.4902">
        <ele>231.150494</ele>
        <time>2022-10-04T07:24:55.145Z</time>
      </trkpt>
      <trkpt lat="45.23578" lon="5.49006">
        <ele>230.909842</ele>
        <time>2022-10-04T07:24:57.145Z</time>
      </trkpt>
      <trkpt lat="45.2357" lon="5.48991">
        <ele>230.646817</ele>
        <time>2022-10-04T07:24:59.144Z</time>
      </trkpt>
      <trkpt lat="45.23561" lon="5.48974">
        <ele>230.366248</ele>
        <time>2022-10-04T07:25:01.146Z</time>
      </trkpt>
      <trkpt lat="45.23554" lon="5.48957">
        <ele>230.101666</ele>
        <time>2022-10-04T07:25:03.151Z</time>
      </trkpt>
      <trkpt lat="45.23545" lon="5.48941">
        <ele>229.818184</ele>
        <time>2022-10-04T07:25:05.148Z</time>
      </trkpt>
      <trkpt lat="45.23533" lon="5.48926">
        <ele>229.508825</ele>
        <time>2022-10-04T07:25:07.148Z</time>
      </trkpt>
      <trkpt lat="45.23524" lon="5.48909">
        <ele>229.231577</ele>
        <time>2022-10-04T07:25:09.148Z</time>
      </trkpt>
      <trkpt lat="45.23513" lon="5.48893">
        <ele>229.14239</ele>
        <time>2022-10-04T07:25:11.147Z</time>
      </trkpt>
      <trkpt lat="45.23505" lon="5.48877">
        <ele>229.431417</ele>
        <time>2022-10-04T07:25:13.150Z</time>
      </trkpt>
      <trkpt lat="45.23494" lon="5.48861">
        <ele>229.740536</ele>
        <time>2022-10-04T07:25:15.151Z</time>
      </trkpt>
      <trkpt lat="45.23482" lon="5.48847">
        <ele>230.056347</ele>
        <time>2022-10-04T07:25:17.147Z</time>
      </trkpt>
      <trkpt lat="45.23472" lon="5.48832">
        <ele>230.358296</ele>
        <time>2022-10-04T07:25:19.144Z</time>
      </trkpt>
      <trkpt lat="45.23463" lon="5.48817">
        <ele>230.644477</ele>
        <time>2022-10-04T07:25:21.145Z</time>
      </trkpt>
      <trkpt lat="45.23454" lon="5.48801">
        <ele>230.937381</ele>
        <time>2022-10-04T07:25:23.145Z</time>
      </trkpt>
      <trkpt lat="45.23445" lon="5.48785">
        <ele>231.227648</ele>
        <time>2022-10-04T07:25:25.149Z</time>
      </trkpt>
      <trkpt lat="45.23435" lon="5.48772">
        <ele>231.505285</ele>
        <time>2022-10-04T07:25:27.147Z</time>
      </trkpt>
      <trkpt lat="45.23426" lon="5.48758">
        <ele>231.785103</ele>
        <time>2022-10-04T07:25:29.148Z</time>
      </trkpt>
      <trkpt lat="45.23419" lon="5.48743">
        <ele>232.048151</ele>
        <time>2022-10-04T07:25:31.148Z</time>
      </trkpt>
      <trkpt lat="45.23408" lon="5.4873">
        <ele>232.333798</ele>
        <time>2022-10-04T07:25:33.146Z</time>
      </trkpt>
      <trkpt lat="45.23398" lon="5.48715">
        <ele>232.626477</ele>
        <time>2022-10-04T07:25:35.146Z</time>
      </trkpt>
      <trkpt lat="45.23389" lon="5.48704">
        <ele>232.667951</ele>
        <time>2022-10-04T07:25:37.146Z</time>
      </trkpt>
      <trkpt lat="45.2338" lon="5.4869">
        <ele>232.594701</ele>
        <time>2022-10-04T07:25:39.148Z</time>
      </trkpt>
      <trkpt lat="45.23372" lon="5.48678">
        <ele>232.532281</ele>
        <time>2022-10-04T07:25:41.147Z</time>
      </trkpt>
      <trkpt lat="45.23364" lon="5.48665">
        <ele>232.467067</ele>
        <time>2022-10-04T07:25:43.153Z</time>
      </trkpt>
      <trkpt lat="45.23351" lon="5.48654">
        <ele>232.390137</ele>
        <time>2022-10-04T07:25:45.145Z</time>
      </trkpt>
      <trkpt lat="45.23342" lon="5.48641">
        <ele>232.319578</ele>
        <time>2022-10-04T07:25:47.148Z</time>
      </trkpt>
      <trkpt lat="45.23333" lon="5.4863">
        <ele>232.258798</ele>
        <time>2022-10-04T07:25:49.147Z</time>
      </trkpt>
      <trkpt lat="45.23323" lon="5.48617">
        <ele>232.183232</ele>
        <time>2022-10-04T07:25:51.161Z</time>
      </trkpt>
      <trkpt lat="45.2331" lon="5.48607">
        <ele>232.106841</ele>
        <time>2022-10-04T07:25:53.148Z</time>
      </trkpt>
      <trkpt lat="45.23301" lon="5.48602">
        <ele>232.053907</ele>
        <time>2022-10-04T07:25:55.147Z</time>
      </trkpt>
      <trkpt lat="45.23288" lon="5.4859">
        <ele>231.971186</ele>
        <time>2022-10-04T07:25:57.150Z</time>
      </trkpt>
      <trkpt lat="45.23277" lon="5.48584">
        <ele>231.909561</ele>
        <time>2022-10-04T07:25:59.146Z</time>
      </trkpt>
      <trkpt lat="45.23269" lon="5.48576">
        <ele>231.858631</ele>
        <time>2022-10-04T07:26:00.143Z</time>
      </trkpt>
      <trkpt lat="45.23255" lon="5.48565">
        <ele>231.771649</ele>
        <time>2022-10-04T07:26:02.145Z</time>
      </trkpt>
      <trkpt lat="45.23239" lon="5.48561">
        <ele>231.348029</ele>
        <time>2022-10-04T07:26:04.145Z</time>
      </trkpt>
      <trkpt lat="45.23231" lon="5.48556">
        <ele>231.019</ele>
        <time>2022-10-04T07:26:06.148Z</time>
      </trkpt>
      <trkpt lat="45.23218" lon="5.48552">
        <ele>230.575669</ele>
        <time>2022-10-04T07:26:08.147Z</time>
      </trkpt>
      <trkpt lat="45.23209" lon="5.48546">
        <ele>230.243341</ele>
        <time>2022-10-04T07:26:09.154Z</time>
      </trkpt>
      <trkpt lat="45.23195" lon="5.48538">
        <ele>229.702619</ele>
        <time>2022-10-04T07:26:11.159Z</time>
      </trkpt>
      <trkpt lat="45.23184" lon="5.48534">
        <ele>229.319092</ele>
        <time>2022-10-04T07:26:13.151Z</time>
      </trkpt>
      <trkpt lat="45.23175" lon="5.48527">
        <ele>228.958703</ele>
        <time>2022-10-04T07:26:15.149Z</time>
      </trkpt>
      <trkpt lat="45.23162" lon="5.48521">
        <ele>228.481998</ele>
        <time>2022-10-04T07:26:17.145Z</time>
      </trkpt>
      <trkpt lat="45.2315" lon="5.48513">
        <ele>228.049935</ele>
        <time>2022-10-04T07:26:19.149Z</time>
      </trkpt>
      <trkpt lat="45.23137" lon="5.48509">
        <ele>227.570192</ele>
        <time>2022-10-04T07:26:21.175Z</time>
      </trkpt>
      <trkpt lat="45.23124" lon="5.48502">
        <ele>227.100195</ele>
        <time>2022-10-04T07:26:23.145Z</time>
      </trkpt>
      <trkpt lat="45.23113" lon="5.48495">
        <ele>226.678098</ele>
        <time>2022-10-04T07:26:25.148Z</time>
      </trkpt>
      <trkpt lat="45.23099" lon="5.48492">
        <ele>226.212548</ele>
        <time>2022-10-04T07:26:27.158Z</time>
      </trkpt>
      <trkpt lat="45.23085" lon="5.48492">
        <ele>225.719582</ele>
        <time>2022-10-04T07:26:29.143Z</time>
      </trkpt>
      <trkpt lat="45.23072" lon="5.48492">
        <ele>225.512681</ele>
        <time>2022-10-04T07:26:31.147Z</time>
      </trkpt>
      <trkpt lat="45.23062" lon="5.48489">
        <ele>225.465021</ele>
        <time>2022-10-04T07:26:33.147Z</time>
      </trkpt>
      <trkpt lat="45.2305" lon="5.48487">
        <ele>225.412729</ele>
        <time>2022-10-04T07:26:35.151Z</time>
      </trkpt>
      <trkpt lat="45.23038" lon="5.48484">
        <ele>225.358727</ele>
        <time>2022-10-04T07:26:37.149Z</time>
      </trkpt>
      <trkpt lat="45.23027" lon="5.48481">
        <ele>225.305896</ele>
        <time>2022-10-04T07:26:39.149Z</time>
      </trkpt>
      <trkpt lat="45.23015" lon="5.48478">
        <ele>225.250641</ele>
        <time>2022-10-04T07:26:41.147Z</time>
      </trkpt>
      <trkpt lat="45.23003" lon="5.48478">
        <ele>225.193238</ele>
        <time>2022-10-04T07:26:43.147Z</time>
      </trkpt>
      <trkpt lat="45.2299" lon="5.48477">
        <ele>225.134817</ele>
        <time>2022-10-04T07:26:45.154Z</time>
      </trkpt>
      <trkpt lat="45.22977" lon="5.48478">
        <ele>225.077826</ele>
        <time>2022-10-04T07:26:47.147Z</time>
      </trkpt>
      <trkpt lat="45.22965" lon="5.48477">
        <ele>225.023122</ele>
        <time>2022-10-04T07:26:49.146Z</time>
      </trkpt>
      <trkpt lat="45.22952" lon="5.48478">
        <ele>224.96191</ele>
        <time>2022-10-04T07:26:51.144Z</time>
      </trkpt>
      <trkpt lat="45.22938" lon="5.48478">
        <ele>224.899</ele>
        <time>2022-10-04T07:26:53.148Z</time>
      </trkpt>
      <trkpt lat="45.22924" lon="5.48481">
        <ele>224.834742</ele>
        <time>2022-10-04T07:26:55.145Z</time>
      </trkpt>
      <trkpt lat="45.22912" lon="5.48481">
        <ele>224.779614</ele>
        <time>2022-10-04T07:26:57.144Z</time>
      </trkpt>
      <trkpt lat="45.22896" lon="5.48483">
        <ele>224.915683</ele>
        <time>2022-10-04T07:26:59.145Z</time>
      </trkpt>
      <trkpt lat="45.22879" lon="5.48487">
        <ele>225.534689</ele>
        <time>2022-10-04T07:27:01.147Z</time>
      </trkpt>
      <trkpt lat="45.22869" lon="5.48489">
        <ele>225.878388</ele>
        <time>2022-10-04T07:27:02.147Z</time>
      </trkpt>
      <trkpt lat="45.2286" lon="5.48492">
        <ele>226.200217</ele>
        <time>2022-10-04T07:27:03.145Z</time>
      </trkpt>
      <trkpt lat="45.22843" lon="5.48495">
        <ele>226.80439</ele>
        <time>2022-10-04T07:27:05.148Z</time>
      </trkpt>
      <trkpt lat="45.22827" lon="5.48498">
        <ele>227.33219</ele>
        <time>2022-10-04T07:27:07.146Z</time>
      </trkpt>
      <trkpt lat="45.22814" lon="5.48499">
        <ele>227.786603</ele>
        <time>2022-10-04T07:27:09.157Z</time>
      </trkpt>
      <trkpt lat="45.22803" lon="5.48503">
        <ele>228.207322</ele>
        <time>2022-10-04T07:27:11.151Z</time>
      </trkpt>
      <trkpt lat="45.2279" lon="5.48506">
        <ele>228.637035</ele>
        <time>2022-10-04T07:27:13.147Z</time>
      </trkpt>
      <trkpt lat="45.22778" lon="5.4851">
        <ele>229.09329</ele>
        <time>2022-10-04T07:27:15.150Z</time>
      </trkpt>
      <trkpt lat="45.22766" lon="5.48512">
        <ele>229.503049</ele>
        <time>2022-10-04T07:27:17.150Z</time>
      </trkpt>
      <trkpt lat="45.22755" lon="5.48514">
        <ele>229.898708</ele>
        <time>2022-10-04T07:27:19.148Z</time>
      </trkpt>
      <trkpt lat="45.22744" lon="5.48517">
        <ele>230.293037</ele>
        <time>2022-10-04T07:27:21.151Z</time>
      </trkpt>
      <trkpt lat="45.22731" lon="5.48519">
        <ele>230.744522</ele>
        <time>2022-10-04T07:27:23.148Z</time>
      </trkpt>
      <trkpt lat="45.22718" lon="5.48522">
        <ele>231.033055</ele>
        <time>2022-10-04T07:27:25.144Z</time>
      </trkpt>
      <trkpt lat="45.22705" lon="5.48526">
        <ele>231.139439</ele>
        <time>2022-10-04T07:27:27.148Z</time>
      </trkpt>
      <trkpt lat="45.2269" lon="5.48532">
        <ele>231.258735</ele>
        <time>2022-10-04T07:27:29.145Z</time>
      </trkpt>
      <trkpt lat="45.22678" lon="5.48534">
        <ele>231.357178</ele>
        <time>2022-10-04T07:27:31.148Z</time>
      </trkpt>
      <trkpt lat="45.22665" lon="5.48539">
        <ele>231.467275</ele>
        <time>2022-10-04T07:27:33.146Z</time>
      </trkpt>
      <trkpt lat="45.22653" lon="5.48543">
        <ele>231.565416</ele>
        <time>2022-10-04T07:27:35.148Z</time>
      </trkpt>
      <trkpt lat="45.22641" lon="5.48546">
        <ele>231.66324</ele>
        <time>2022-10-04T07:27:37.151Z</time>
      </trkpt>
      <trkpt lat="45.22628" lon="5.4855">
        <ele>231.765286</ele>
        <time>2022-10-04T07:27:39.147Z</time>
      </trkpt>
      <trkpt lat="45.22615" lon="5.48555">
        <ele>231.872449</ele>
        <time>2022-10-04T07:27:41.147Z</time>
      </trkpt>
      <trkpt lat="45.22603" lon="5.48558">
        <ele>231.971264</ele>
        <time>2022-10-04T07:27:43.150Z</time>
      </trkpt>
      <trkpt lat="45.22592" lon="5.48563">
        <ele>232.063111</ele>
        <time>2022-10-04T07:27:45.148Z</time>
      </trkpt>
      <trkpt lat="45.22578" lon="5.48566">
        <ele>232.1723</ele>
        <time>2022-10-04T07:27:47.150Z</time>
      </trkpt>
      <trkpt lat="45.22563" lon="5.48569">
        <ele>232.292988</ele>
        <time>2022-10-04T07:27:49.148Z</time>
      </trkpt>
      <trkpt lat="45.22554" lon="5.48572">
        <ele>232.370545</ele>
        <time>2022-10-04T07:27:51.148Z</time>
      </trkpt>
      <trkpt lat="45.2254" lon="5.48575">
        <ele>232.263817</ele>
        <time>2022-10-04T07:27:53.148Z</time>
      </trkpt>
      <trkpt lat="45.22526" lon="5.48577">
        <ele>232.023756</ele>
        <time>2022-10-04T07:27:55.147Z</time>
      </trkpt>
      <trkpt lat="45.22514" lon="5.48573">
        <ele>231.801571</ele>
        <time>2022-10-04T07:27:57.149Z</time>
      </trkpt>
      <trkpt lat="45.225" lon="5.48571">
        <ele>231.537851</ele>
        <time>2022-10-04T07:27:59.145Z</time>
      </trkpt>
      <trkpt lat="45.22487" lon="5.4857">
        <ele>231.303856</ele>
        <time>2022-10-04T07:28:01.144Z</time>
      </trkpt>
      <trkpt lat="45.22475" lon="5.48569">
        <ele>231.084789</ele>
        <time>2022-10-04T07:28:03.148Z</time>
      </trkpt>
      <trkpt lat="45.22462" lon="5.48571">
        <ele>230.855091</ele>
        <time>2022-10-04T07:28:05.152Z</time>
      </trkpt>
      <trkpt lat="45.22447" lon="5.48572">
        <ele>230.585252</ele>
        <time>2022-10-04T07:28:07.148Z</time>
      </trkpt>
      <trkpt lat="45.22435" lon="5.48573">
        <ele>230.358791</ele>
        <time>2022-10-04T07:28:09.147Z</time>
      </trkpt>
      <trkpt lat="45.22422" lon="5.48572">
        <ele>230.12164</ele>
        <time>2022-10-04T07:28:11.150Z</time>
      </trkpt>
      <trkpt lat="45.2241" lon="5.4857">
        <ele>229.908096</ele>
        <time>2022-10-04T07:28:13.149Z</time>
      </trkpt>
      <trkpt lat="45.22397" lon="5.4857">
        <ele>229.667396</ele>
        <time>2022-10-04T07:28:15.148Z</time>
      </trkpt>
      <trkpt lat="45.22382" lon="5.48568">
        <ele>229.399098</ele>
        <time>2022-10-04T07:28:17.147Z</time>
      </trkpt>
      <trkpt lat="45.2237" lon="5.48565">
        <ele>229.170094</ele>
        <time>2022-10-04T07:28:19.148Z</time>
      </trkpt>
      <trkpt lat="45.22356" lon="5.48561">
        <ele>229.637428</ele>
        <time>2022-10-04T07:28:21.148Z</time>
      </trkpt>
      <trkpt lat="45.22344" lon="5.48556">
        <ele>230.052908</ele>
        <time>2022-10-04T07:28:23.146Z</time>
      </trkpt>
      <trkpt lat="45.22332" lon="5.4855">
        <ele>230.501492</ele>
        <time>2022-10-04T07:28:25.146Z</time>
      </trkpt>
      <trkpt lat="45.22318" lon="5.48547">
        <ele>231.009372</ele>
        <time>2022-10-04T07:28:27.151Z</time>
      </trkpt>
      <trkpt lat="45.22305" lon="5.48542">
        <ele>231.479395</ele>
        <time>2022-10-04T07:28:29.149Z</time>
      </trkpt>
      <trkpt lat="45.22293" lon="5.48536">
        <ele>231.908488</ele>
        <time>2022-10-04T07:28:31.147Z</time>
      </trkpt>
      <trkpt lat="45.22281" lon="5.48529">
        <ele>232.387114</ele>
        <time>2022-10-04T07:28:33.150Z</time>
      </trkpt>
      <trkpt lat="45.22268" lon="5.4852">
        <ele>232.882812</ele>
        <time>2022-10-04T07:28:35.147Z</time>
      </trkpt>
      <trkpt lat="45.22256" lon="5.48513">
        <ele>233.345902</ele>
        <time>2022-10-04T07:28:37.152Z</time>
      </trkpt>
      <trkpt lat="45.22245" lon="5.48503">
        <ele>233.794511</ele>
        <time>2022-10-04T07:28:39.150Z</time>
      </trkpt>
      <trkpt lat="45.22235" lon="5.48489">
        <ele>234.289386</ele>
        <time>2022-10-04T07:28:41.145Z</time>
      </trkpt>
      <trkpt lat="45.22224" lon="5.48476">
        <ele>234.791447</ele>
        <time>2022-10-04T07:28:43.145Z</time>
      </trkpt>
      <trkpt lat="45.22216" lon="5.48461">
        <ele>235.259119</ele>
        <time>2022-10-04T07:28:45.149Z</time>
      </trkpt>
      <trkpt lat="45.22207" lon="5.48446">
        <ele>235.345739</ele>
        <time>2022-10-04T07:28:47.151Z</time>
      </trkpt>
      <trkpt lat="45.22198" lon="5.4843">
        <ele>235.146773</ele>
        <time>2022-10-04T07:28:49.153Z</time>
      </trkpt>
      <trkpt lat="45.2219" lon="5.48416">
        <ele>234.978184</ele>
        <time>2022-10-04T07:28:51.147Z</time>
      </trkpt>
      <trkpt lat="45.22182" lon="5.48401">
        <ele>234.79291</ele>
        <time>2022-10-04T07:28:53.149Z</time>
      </trkpt>
      <trkpt lat="45.22174" lon="5.48387">
        <ele>234.619706</ele>
        <time>2022-10-04T07:28:55.148Z</time>
      </trkpt>
      <trkpt lat="45.22165" lon="5.48374">
        <ele>234.444104</ele>
        <time>2022-10-04T07:28:57.148Z</time>
      </trkpt>
      <trkpt lat="45.22156" lon="5.48361">
        <ele>234.269787</ele>
        <time>2022-10-04T07:28:59.145Z</time>
      </trkpt>
      <trkpt lat="45.22147" lon="5.48347">
        <ele>234.093482</ele>
        <time>2022-10-04T07:29:01.143Z</time>
      </trkpt>
      <trkpt lat="45.22139" lon="5.48333">
        <ele>233.915995</ele>
        <time>2022-10-04T07:29:03.148Z</time>
      </trkpt>
      <trkpt lat="45.2213" lon="5.48318">
        <ele>233.731227</ele>
        <time>2022-10-04T07:29:05.149Z</time>
      </trkpt>
      <trkpt lat="45.22122" lon="5.48304">
        <ele>233.555438</ele>
        <time>2022-10-04T07:29:07.145Z</time>
      </trkpt>
      <trkpt lat="45.22113" lon="5.48289">
        <ele>233.365334</ele>
        <time>2022-10-04T07:29:09.156Z</time>
      </trkpt>
      <trkpt lat="45.22105" lon="5.48275">
        <ele>233.198713</ele>
        <time>2022-10-04T07:29:11.152Z</time>
      </trkpt>
      <trkpt lat="45.22096" lon="5.48261">
        <ele>233.01886</ele>
        <time>2022-10-04T07:29:13.152Z</time>
      </trkpt>
      <trkpt lat="45.22088" lon="5.48247">
        <ele>233.01207</ele>
        <time>2022-10-04T07:29:15.157Z</time>
      </trkpt>
      <trkpt lat="45.2208" lon="5.48233">
        <ele>233.014697</ele>
        <time>2022-10-04T07:29:17.148Z</time>
      </trkpt>
      <trkpt lat="45.22072" lon="5.48219">
        <ele>233.017377</ele>
        <time>2022-10-04T07:29:19.152Z</time>
      </trkpt>
      <trkpt lat="45.22063" lon="5.48204">
        <ele>233.020258</ele>
        <time>2022-10-04T07:29:21.155Z</time>
      </trkpt>
      <trkpt lat="45.22055" lon="5.48189">
        <ele>233.022905</ele>
        <time>2022-10-04T07:29:23.154Z</time>
      </trkpt>
      <trkpt lat="45.22047" lon="5.48174">
        <ele>233.025681</ele>
        <time>2022-10-04T07:29:25.160Z</time>
      </trkpt>
      <trkpt lat="45.22039" lon="5.48158">
        <ele>233.028518</ele>
        <time>2022-10-04T07:29:27.159Z</time>
      </trkpt>
      <trkpt lat="45.22032" lon="5.48143">
        <ele>233.031094</ele>
        <time>2022-10-04T07:29:29.151Z</time>
      </trkpt>
      <trkpt lat="45.22025" lon="5.48128">
        <ele>233.033789</ele>
        <time>2022-10-04T07:29:31.159Z</time>
      </trkpt>
      <trkpt lat="45.22017" lon="5.48112">
        <ele>233.036565</ele>
        <time>2022-10-04T07:29:33.156Z</time>
      </trkpt>
      <trkpt lat="45.2201" lon="5.48095">
        <ele>233.039478</ele>
        <time>2022-10-04T07:29:35.158Z</time>
      </trkpt>
      <trkpt lat="45.22003" lon="5.48082">
        <ele>233.041873</ele>
        <time>2022-10-04T07:29:37.153Z</time>
      </trkpt>
      <trkpt lat="45.21995" lon="5.48064">
        <ele>233.044924</ele>
        <time>2022-10-04T07:29:39.153Z</time>
      </trkpt>
      <trkpt lat="45.21989" lon="5.4805">
        <ele>233.001703</ele>
        <time>2022-10-04T07:29:41.151Z</time>
      </trkpt>
      <trkpt lat="45.21981" lon="5.48038">
        <ele>232.831826</ele>
        <time>2022-10-04T07:29:43.153Z</time>
      </trkpt>
      <trkpt lat="45.21973" lon="5.48022">
        <ele>232.632861</ele>
        <time>2022-10-04T07:29:45.151Z</time>
      </trkpt>
      <trkpt lat="45.21965" lon="5.48004">
        <ele>232.419767</ele>
        <time>2022-10-04T07:29:47.154Z</time>
      </trkpt>
      <trkpt lat="45.21959" lon="5.47987">
        <ele>232.228646</ele>
        <time>2022-10-04T07:29:49.158Z</time>
      </trkpt>
      <trkpt lat="45.21951" lon="5.47973">
        <ele>232.046365</ele>
        <time>2022-10-04T07:29:51.161Z</time>
      </trkpt>
      <trkpt lat="45.21941" lon="5.4796">
        <ele>231.848505</ele>
        <time>2022-10-04T07:29:53.148Z</time>
      </trkpt>
      <trkpt lat="45.21933" lon="5.47945">
        <ele>231.661665</ele>
        <time>2022-10-04T07:29:55.156Z</time>
      </trkpt>
      <trkpt lat="45.21925" lon="5.4793">
        <ele>231.474448</ele>
        <time>2022-10-04T07:29:57.151Z</time>
      </trkpt>
      <trkpt lat="45.21916" lon="5.47919">
        <ele>231.297157</ele>
        <time>2022-10-04T07:29:59.152Z</time>
      </trkpt>
      <trkpt lat="45.21907" lon="5.47905">
        <ele>231.107674</ele>
        <time>2022-10-04T07:30:01.149Z</time>
      </trkpt>
      <trkpt lat="45.21897" lon="5.47893">
        <ele>230.914247</ele>
        <time>2022-10-04T07:30:03.143Z</time>
      </trkpt>
      <trkpt lat="45.21885" lon="5.47881">
        <ele>230.705793</ele>
        <time>2022-10-04T07:30:05.160Z</time>
      </trkpt>
      <trkpt lat="45.21874" lon="5.47868">
        <ele>230.497839</ele>
        <time>2022-10-04T07:30:07.151Z</time>
      </trkpt>
      <trkpt lat="45.21864" lon="5.47855">
        <ele>230.490626</ele>
        <time>2022-10-04T07:30:09.155Z</time>
      </trkpt>
      <trkpt lat="45.21853" lon="5.47842">
        <ele>230.534391</ele>
        <time>2022-10-04T07:30:11.142Z</time>
      </trkpt>
      <trkpt lat="45.21844" lon="5.4783">
        <ele>230.573303</ele>
        <time>2022-10-04T07:30:13.149Z</time>
      </trkpt>
      <trkpt lat="45.21835" lon="5.47817">
        <ele>230.612786</ele>
        <time>2022-10-04T07:30:15.156Z</time>
      </trkpt>
      <trkpt lat="45.21826" lon="5.47804">
        <ele>230.651075</ele>
        <time>2022-10-04T07:30:17.151Z</time>
      </trkpt>
      <trkpt lat="45.21816" lon="5.47795">
        <ele>230.687478</ele>
        <time>2022-10-04T07:30:19.157Z</time>
      </trkpt>
      <trkpt lat="45.21806" lon="5.47783">
        <ele>230.726425</ele>
        <time>2022-10-04T07:30:21.148Z</time>
      </trkpt>
      <trkpt lat="45.21795" lon="5.47772">
        <ele>230.766658</ele>
        <time>2022-10-04T07:30:23.154Z</time>
      </trkpt>
      <trkpt lat="45.21786" lon="5.47761">
        <ele>230.804093</ele>
        <time>2022-10-04T07:30:25.150Z</time>
      </trkpt>
      <trkpt lat="45.21774" lon="5.4775">
        <ele>230.847176</ele>
        <time>2022-10-04T07:30:27.149Z</time>
      </trkpt>
      <trkpt lat="45.21762" lon="5.47741">
        <ele>230.887454</ele>
        <time>2022-10-04T07:30:29.144Z</time>
      </trkpt>
      <trkpt lat="45.21751" lon="5.47731">
        <ele>230.926646</ele>
        <time>2022-10-04T07:30:31.152Z</time>
      </trkpt>
      <trkpt lat="45.21741" lon="5.47722">
        <ele>230.963167</ele>
        <time>2022-10-04T07:30:33.148Z</time>
      </trkpt>
      <trkpt lat="45.21729" lon="5.47711">
        <ele>231.00525</ele>
        <time>2022-10-04T07:30:35.154Z</time>
      </trkpt>
      <trkpt lat="45.21719" lon="5.477">
        <ele>230.995558</ele>
        <time>2022-10-04T07:30:37.153Z</time>
      </trkpt>
      <trkpt lat="45.21708" lon="5.47688">
        <ele>230.985851</ele>
        <time>2022-10-04T07:30:39.156Z</time>
      </trkpt>
      <trkpt lat="45.21697" lon="5.47679">
        <ele>230.976213</ele>
        <time>2022-10-04T07:30:41.149Z</time>
      </trkpt>
      <trkpt lat="45.21685" lon="5.4767">
        <ele>230.966639</ele>
        <time>2022-10-04T07:30:43.144Z</time>
      </trkpt>
      <trkpt lat="45.21674" lon="5.47661">
        <ele>230.956952</ele>
        <time>2022-10-04T07:30:45.146Z</time>
      </trkpt>
      <trkpt lat="45.21662" lon="5.47651">
        <ele>230.947125</ele>
        <time>2022-10-04T07:30:47.151Z</time>
      </trkpt>
      <trkpt lat="45.2165" lon="5.47642">
        <ele>230.937117</ele>
        <time>2022-10-04T07:30:49.147Z</time>
      </trkpt>
      <trkpt lat="45.21638" lon="5.47633">
        <ele>230.927174</ele>
        <time>2022-10-04T07:30:51.149Z</time>
      </trkpt>
      <trkpt lat="45.21627" lon="5.47623">
        <ele>230.917856</ele>
        <time>2022-10-04T07:30:53.151Z</time>
      </trkpt>
      <trkpt lat="45.21614" lon="5.47614">
        <ele>230.907373</ele>
        <time>2022-10-04T07:30:55.145Z</time>
      </trkpt>
      <trkpt lat="45.21603" lon="5.47607">
        <ele>230.898101</ele>
        <time>2022-10-04T07:30:57.145Z</time>
      </trkpt>
      <trkpt lat="45.21591" lon="5.47597">
        <ele>230.888476</ele>
        <time>2022-10-04T07:30:59.148Z</time>
      </trkpt>
      <trkpt lat="45.21581" lon="5.47588">
        <ele>230.879337</ele>
        <time>2022-10-04T07:31:01.147Z</time>
      </trkpt>
      <trkpt lat="45.2157" lon="5.47579">
        <ele>230.863866</ele>
        <time>2022-10-04T07:31:03.159Z</time>
      </trkpt>
      <trkpt lat="45.21559" lon="5.47569">
        <ele>230.839772</ele>
        <time>2022-10-04T07:31:05.148Z</time>
      </trkpt>
      <trkpt lat="45.21547" lon="5.4756">
        <ele>230.81601</ele>
        <time>2022-10-04T07:31:07.163Z</time>
      </trkpt>
      <trkpt lat="45.21536" lon="5.47553">
        <ele>230.79245</ele>
        <time>2022-10-04T07:31:09.150Z</time>
      </trkpt>
      <trkpt lat="45.21525" lon="5.47544">
        <ele>230.769036</ele>
        <time>2022-10-04T07:31:11.146Z</time>
      </trkpt>
      <trkpt lat="45.21515" lon="5.47534">
        <ele>230.746274</ele>
        <time>2022-10-04T07:31:13.149Z</time>
      </trkpt>
      <trkpt lat="45.21503" lon="5.47523">
        <ele>230.720149</ele>
        <time>2022-10-04T07:31:15.152Z</time>
      </trkpt>
      <trkpt lat="45.21492" lon="5.47512">
        <ele>230.695341</ele>
        <time>2022-10-04T07:31:17.150Z</time>
      </trkpt>
      <trkpt lat="45.21481" lon="5.475">
        <ele>230.670134</ele>
        <time>2022-10-04T07:31:19.144Z</time>
      </trkpt>
      <trkpt lat="45.21471" lon="5.47489">
        <ele>230.645778</ele>
        <time>2022-10-04T07:31:21.145Z</time>
      </trkpt>
      <trkpt lat="45.2146" lon="5.47479">
        <ele>230.622858</ele>
        <time>2022-10-04T07:31:23.149Z</time>
      </trkpt>
      <trkpt lat="45.21449" lon="5.47467">
        <ele>230.597909</ele>
        <time>2022-10-04T07:31:25.151Z</time>
      </trkpt>
      <trkpt lat="45.21438" lon="5.47456">
        <ele>230.57175</ele>
        <time>2022-10-04T07:31:27.149Z</time>
      </trkpt>
      <trkpt lat="45.21428" lon="5.47446">
        <ele>230.549437</ele>
        <time>2022-10-04T07:31:29.145Z</time>
      </trkpt>
      <trkpt lat="45.21415" lon="5.47434">
        <ele>230.476749</ele>
        <time>2022-10-04T07:31:31.145Z</time>
      </trkpt>
      <trkpt lat="45.21406" lon="5.47424">
        <ele>230.407421</ele>
        <time>2022-10-04T07:31:33.146Z</time>
      </trkpt>
      <trkpt lat="45.21395" lon="5.47414">
        <ele>230.326188</ele>
        <time>2022-10-04T07:31:35.151Z</time>
      </trkpt>
      <trkpt lat="45.21385" lon="5.47402">
        <ele>230.247719</ele>
        <time>2022-10-04T07:31:37.149Z</time>
      </trkpt>
      <trkpt lat="45.21376" lon="5.47391">
        <ele>230.176138</ele>
        <time>2022-10-04T07:31:39.153Z</time>
      </trkpt>
      <trkpt lat="45.21365" lon="5.47377">
        <ele>230.087063</ele>
        <time>2022-10-04T07:31:41.151Z</time>
      </trkpt>
      <trkpt lat="45.21354" lon="5.47364">
        <ele>230.004429</ele>
        <time>2022-10-04T07:31:43.148Z</time>
      </trkpt>
      <trkpt lat="45.21344" lon="5.47352">
        <ele>229.925841</ele>
        <time>2022-10-04T07:31:45.148Z</time>
      </trkpt>
      <trkpt lat="45.21335" lon="5.47338">
        <ele>229.844767</ele>
        <time>2022-10-04T07:31:47.149Z</time>
      </trkpt>
      <trkpt lat="45.21324" lon="5.47326">
        <ele>229.76132</ele>
        <time>2022-10-04T07:31:49.160Z</time>
      </trkpt>
      <trkpt lat="45.21315" lon="5.47313">
        <ele>229.679019</ele>
        <time>2022-10-04T07:31:51.154Z</time>
      </trkpt>
      <trkpt lat="45.21308" lon="5.47301">
        <ele>229.613796</ele>
        <time>2022-10-04T07:31:53.159Z</time>
      </trkpt>
      <trkpt lat="45.21302" lon="5.47286">
        <ele>229.542675</ele>
        <time>2022-10-04T07:31:55.150Z</time>
      </trkpt>
      <trkpt lat="45.21293" lon="5.47274">
        <ele>229.465505</ele>
        <time>2022-10-04T07:31:57.154Z</time>
      </trkpt>
      <trkpt lat="45.21284" lon="5.47261">
        <ele>229.482998</ele>
        <time>2022-10-04T07:31:59.156Z</time>
      </trkpt>
      <trkpt lat="45.21277" lon="5.47249">
        <ele>229.502603</ele>
        <time>2022-10-04T07:32:01.151Z</time>
      </trkpt>
      <trkpt lat="45.21266" lon="5.47233">
        <ele>229.530952</ele>
        <time>2022-10-04T07:32:03.151Z</time>
      </trkpt>
      <trkpt lat="45.21257" lon="5.4722">
        <ele>229.554255</ele>
        <time>2022-10-04T07:32:05.155Z</time>
      </trkpt>
      <trkpt lat="45.21247" lon="5.47203">
        <ele>229.581445</ele>
        <time>2022-10-04T07:32:07.155Z</time>
      </trkpt>
      <trkpt lat="45.21237" lon="5.47189">
        <ele>229.606777</ele>
        <time>2022-10-04T07:32:09.148Z</time>
      </trkpt>
      <trkpt lat="45.21229" lon="5.47179">
        <ele>229.625445</ele>
        <time>2022-10-04T07:32:11.150Z</time>
      </trkpt>
      <trkpt lat="45.2122" lon="5.47164">
        <ele>229.650242</ele>
        <time>2022-10-04T07:32:13.160Z</time>
      </trkpt>
      <trkpt lat="45.21212" lon="5.47154">
        <ele>229.669915</ele>
        <time>2022-10-04T07:32:15.152Z</time>
      </trkpt>
      <trkpt lat="45.21205" lon="5.47144">
        <ele>229.687454</ele>
        <time>2022-10-04T07:32:17.150Z</time>
      </trkpt>
      <trkpt lat="45.21197" lon="5.4713">
        <ele>229.709908</ele>
        <time>2022-10-04T07:32:19.144Z</time>
      </trkpt>
      <trkpt lat="45.21186" lon="5.47114">
        <ele>229.737908</ele>
        <time>2022-10-04T07:32:21.149Z</time>
      </trkpt>
      <trkpt lat="45.21178" lon="5.47101">
        <ele>229.759367</ele>
        <time>2022-10-04T07:32:23.156Z</time>
      </trkpt>
      <trkpt lat="45.21169" lon="5.47087">
        <ele>229.792325</ele>
        <time>2022-10-04T07:32:25.161Z</time>
      </trkpt>
      <trkpt lat="45.21161" lon="5.47071">
        <ele>230.049212</ele>
        <time>2022-10-04T07:32:27.145Z</time>
      </trkpt>
      <trkpt lat="45.21153" lon="5.47057">
        <ele>230.288099</ele>
        <time>2022-10-04T07:32:29.162Z</time>
      </trkpt>
      <trkpt lat="45.21146" lon="5.47044">
        <ele>230.518963</ele>
        <time>2022-10-04T07:32:31.155Z</time>
      </trkpt>
      <trkpt lat="45.21134" lon="5.47028">
        <ele>230.817117</ele>
        <time>2022-10-04T07:32:33.149Z</time>
      </trkpt>
      <trkpt lat="45.21124" lon="5.47014">
        <ele>231.098294</ele>
        <time>2022-10-04T07:32:35.155Z</time>
      </trkpt>
      <trkpt lat="45.21114" lon="5.47001">
        <ele>231.350075</ele>
        <time>2022-10-04T07:32:37.159Z</time>
      </trkpt>
      <trkpt lat="45.21105" lon="5.46985">
        <ele>231.620635</ele>
        <time>2022-10-04T07:32:39.162Z</time>
      </trkpt>
      <trkpt lat="45.21096" lon="5.46974">
        <ele>231.841698</ele>
        <time>2022-10-04T07:32:41.145Z</time>
      </trkpt>
      <trkpt lat="45.21086" lon="5.46961">
        <ele>232.107301</ele>
        <time>2022-10-04T07:32:43.161Z</time>
      </trkpt>
      <trkpt lat="45.21076" lon="5.46945">
        <ele>232.38669</ele>
        <time>2022-10-04T07:32:45.156Z</time>
      </trkpt>
      <trkpt lat="45.21065" lon="5.4693">
        <ele>232.679329</ele>
        <time>2022-10-04T07:32:47.158Z</time>
      </trkpt>
      <trkpt lat="45.21058" lon="5.46916">
        <ele>232.912089</ele>
        <time>2022-10-04T07:32:49.158Z</time>
      </trkpt>
      <trkpt lat="45.2105" lon="5.46903">
        <ele>233.140142</ele>
        <time>2022-10-04T07:32:51.154Z</time>
      </trkpt>
      <trkpt lat="45.21042" lon="5.46891">
        <ele>233.314495</ele>
        <time>2022-10-04T07:32:53.158Z</time>
      </trkpt>
      <trkpt lat="45.21032" lon="5.46877">
        <ele>233.505303</ele>
        <time>2022-10-04T07:32:55.164Z</time>
      </trkpt>
      <trkpt lat="45.21024" lon="5.46864">
        <ele>233.660347</ele>
        <time>2022-10-04T07:32:57.161Z</time>
      </trkpt>
      <trkpt lat="45.21016" lon="5.46852">
        <ele>233.822338</ele>
        <time>2022-10-04T07:32:59.163Z</time>
      </trkpt>
      <trkpt lat="45.21008" lon="5.46839">
        <ele>233.989147</ele>
        <time>2022-10-04T07:33:01.167Z</time>
      </trkpt>
      <trkpt lat="45.20999" lon="5.46824">
        <ele>234.168691</ele>
        <time>2022-10-04T07:33:03.154Z</time>
      </trkpt>
      <trkpt lat="45.20989" lon="5.46814">
        <ele>234.343489</ele>
        <time>2022-10-04T07:33:05.155Z</time>
      </trkpt>
      <trkpt lat="45.20979" lon="5.46799">
        <ele>234.530606</ele>
        <time>2022-10-04T07:33:07.150Z</time>
      </trkpt>
      <trkpt lat="45.2097" lon="5.46784">
        <ele>234.72375</ele>
        <time>2022-10-04T07:33:09.149Z</time>
      </trkpt>
      <trkpt lat="45.20961" lon="5.46769">
        <ele>234.910275</ele>
        <time>2022-10-04T07:33:11.152Z</time>
      </trkpt>
      <trkpt lat="45.20953" lon="5.46753">
        <ele>235.095223</ele>
        <time>2022-10-04T07:33:13.148Z</time>
      </trkpt>
      <trkpt lat="45.20946" lon="5.4674">
        <ele>235.256829</ele>
        <time>2022-10-04T07:33:15.150Z</time>
      </trkpt>
      <trkpt lat="45.20936" lon="5.46727">
        <ele>235.437629</ele>
        <time>2022-10-04T07:33:17.145Z</time>
      </trkpt>
      <trkpt lat="45.20926" lon="5.46712">
        <ele>235.636009</ele>
        <time>2022-10-04T07:33:19.149Z</time>
      </trkpt>
      <trkpt lat="45.20917" lon="5.467">
        <ele>235.975894</ele>
        <time>2022-10-04T07:33:21.146Z</time>
      </trkpt>
      <trkpt lat="45.20911" lon="5.46689">
        <ele>236.220488</ele>
        <time>2022-10-04T07:33:23.147Z</time>
      </trkpt>
      <trkpt lat="45.20905" lon="5.46677">
        <ele>236.499783</ele>
        <time>2022-10-04T07:33:25.143Z</time>
      </trkpt>
      <trkpt lat="45.20898" lon="5.46666">
        <ele>236.761391</ele>
        <time>2022-10-04T07:33:27.143Z</time>
      </trkpt>
      <trkpt lat="45.20894" lon="5.46655">
        <ele>236.998876</ele>
        <time>2022-10-04T07:33:29.153Z</time>
      </trkpt>
      <trkpt lat="45.20885" lon="5.46643">
        <ele>237.318282</ele>
        <time>2022-10-04T07:33:32.142Z</time>
      </trkpt>
      <trkpt lat="45.20883" lon="5.4663">
        <ele>237.567625</ele>
        <time>2022-10-04T07:33:37.144Z</time>
      </trkpt>
      <trkpt lat="45.20879" lon="5.46617">
        <ele>237.838073</ele>
        <time>2022-10-04T07:33:41.143Z</time>
      </trkpt>
      <trkpt lat="45.20878" lon="5.46604">
        <ele>238.079246</ele>
        <time>2022-10-04T07:33:46.147Z</time>
      </trkpt>
      <trkpt lat="45.20892" lon="5.46556">
        <ele>239.043627</ele>
        <time>2022-10-04T07:37:56.174Z</time>
      </trkpt>
      <trkpt lat="45.20896" lon="5.46543">
        <ele>239.318951</ele>
        <time>2022-10-04T07:37:59.153Z</time>
      </trkpt>
      <trkpt lat="45.20899" lon="5.46529">
        <ele>239.591186</ele>
        <time>2022-10-04T07:38:02.152Z</time>
      </trkpt>
      <trkpt lat="45.209" lon="5.46514">
        <ele>239.874257</ele>
        <time>2022-10-04T07:38:05.156Z</time>
      </trkpt>
      <trkpt lat="45.209" lon="5.465">
        <ele>240.119571</ele>
        <time>2022-10-04T07:38:08.149Z</time>
      </trkpt>
      <trkpt lat="45.20897" lon="5.46487">
        <ele>240.393911</ele>
        <time>2022-10-04T07:38:11.167Z</time>
      </trkpt>
      <trkpt lat="45.20893" lon="5.46473">
        <ele>240.757758</ele>
        <time>2022-10-04T07:38:14.152Z</time>
      </trkpt>
      <trkpt lat="45.20889" lon="5.46462">
        <ele>241.101129</ele>
        <time>2022-10-04T07:38:17.152Z</time>
      </trkpt>
      <trkpt lat="45.20883" lon="5.4645">
        <ele>241.457293</ele>
        <time>2022-10-04T07:38:20.155Z</time>
      </trkpt>
      <trkpt lat="45.20876" lon="5.4644">
        <ele>241.81904</ele>
        <time>2022-10-04T07:38:23.159Z</time>
      </trkpt>
      <trkpt lat="45.20868" lon="5.4643">
        <ele>242.208973</ele>
        <time>2022-10-04T07:38:26.158Z</time>
      </trkpt>
      <trkpt lat="45.2086" lon="5.46421">
        <ele>242.593999</ele>
        <time>2022-10-04T07:38:29.154Z</time>
      </trkpt>
      <trkpt lat="45.20851" lon="5.46413">
        <ele>242.982502</ele>
        <time>2022-10-04T07:38:32.152Z</time>
      </trkpt>
      <trkpt lat="45.20841" lon="5.46407">
        <ele>243.38714</ele>
        <time>2022-10-04T07:38:35.156Z</time>
      </trkpt>
      <trkpt lat="45.2083" lon="5.46402">
        <ele>243.798047</ele>
        <time>2022-10-04T07:38:38.158Z</time>
      </trkpt>
      <trkpt lat="45.20819" lon="5.46396">
        <ele>244.220866</ele>
        <time>2022-10-04T07:38:41.151Z</time>
      </trkpt>
      <trkpt lat="45.20809" lon="5.46389">
        <ele>244.631993</ele>
        <time>2022-10-04T07:38:44.154Z</time>
      </trkpt>
      <trkpt lat="45.20799" lon="5.4638">
        <ele>245.050754</ele>
        <time>2022-10-04T07:38:47.145Z</time>
      </trkpt>
      <trkpt lat="45.2079" lon="5.46371">
        <ele>245.446805</ele>
        <time>2022-10-04T07:38:50.151Z</time>
      </trkpt>
      <trkpt lat="45.20783" lon="5.46359">
        <ele>245.84018</ele>
        <time>2022-10-04T07:38:53.160Z</time>
      </trkpt>
      <trkpt lat="45.20777" lon="5.46345">
        <ele>246.251682</ele>
        <time>2022-10-04T07:38:56.156Z</time>
      </trkpt>
      <trkpt lat="45.20773" lon="5.46331">
        <ele>246.650704</ele>
        <time>2022-10-04T07:38:59.161Z</time>
      </trkpt>
      <trkpt lat="45.2077" lon="5.46316">
        <ele>247.138226</ele>
        <time>2022-10-04T07:39:02.155Z</time>
      </trkpt>
      <trkpt lat="45.20769" lon="5.46302">
        <ele>247.710058</ele>
        <time>2022-10-04T07:39:05.155Z</time>
      </trkpt>
      <trkpt lat="45.20769" lon="5.46288">
        <ele>248.266386</ele>
        <time>2022-10-04T07:39:08.160Z</time>
      </trkpt>
      <trkpt lat="45.2077" lon="5.46274">
        <ele>248.815855</ele>
        <time>2022-10-04T07:39:11.156Z</time>
      </trkpt>
      <trkpt lat="45.20773" lon="5.46261">
        <ele>249.349252</ele>
        <time>2022-10-04T07:39:14.157Z</time>
      </trkpt>
      <trkpt lat="45.20776" lon="5.46249">
        <ele>249.871698</ele>
        <time>2022-10-04T07:39:17.152Z</time>
      </trkpt>
      <trkpt lat="45.20782" lon="5.46234">
        <ele>250.528672</ele>
        <time>2022-10-04T07:39:21.159Z</time>
      </trkpt>
      <trkpt lat="45.20788" lon="5.4622">
        <ele>251.160102</ele>
        <time>2022-10-04T07:39:25.169Z</time>
      </trkpt>
      <trkpt lat="45.20794" lon="5.46208">
        <ele>251.788747</ele>
        <time>2022-10-04T07:39:29.152Z</time>
      </trkpt>
      <trkpt lat="45.20801" lon="5.46195">
        <ele>252.417703</ele>
        <time>2022-10-04T07:39:33.159Z</time>
      </trkpt>
      <trkpt lat="45.20807" lon="5.46186">
        <ele>252.920974</ele>
        <time>2022-10-04T07:39:36.152Z</time>
      </trkpt>
      <trkpt lat="45.20815" lon="5.46174">
        <ele>253.554939</ele>
        <time>2022-10-04T07:39:40.156Z</time>
      </trkpt>
      <trkpt lat="45.20822" lon="5.46161">
        <ele>254.197505</ele>
        <time>2022-10-04T07:39:44.161Z</time>
      </trkpt>
      <trkpt lat="45.20829" lon="5.46149">
        <ele>254.82376</ele>
        <time>2022-10-04T07:39:48.157Z</time>
      </trkpt>
      <trkpt lat="45.20836" lon="5.46137">
        <ele>255.46506</ele>
        <time>2022-10-04T07:39:52.152Z</time>
      </trkpt>
      <trkpt lat="45.20842" lon="5.46124">
        <ele>256.0577</ele>
        <time>2022-10-04T07:39:56.155Z</time>
      </trkpt>
      <trkpt lat="45.20849" lon="5.46113">
        <ele>256.642115</ele>
        <time>2022-10-04T07:40:00.155Z</time>
      </trkpt>
      <trkpt lat="45.20856" lon="5.46102">
        <ele>257.267208</ele>
        <time>2022-10-04T07:40:04.154Z</time>
      </trkpt>
      <trkpt lat="45.20862" lon="5.46089">
        <ele>258.044382</ele>
        <time>2022-10-04T07:40:08.152Z</time>
      </trkpt>
      <trkpt lat="45.20869" lon="5.46076">
        <ele>258.858766</ele>
        <time>2022-10-04T07:40:12.165Z</time>
      </trkpt>
      <trkpt lat="45.20877" lon="5.46064">
        <ele>259.6384</ele>
        <time>2022-10-04T07:40:16.161Z</time>
      </trkpt>
      <trkpt lat="45.20883" lon="5.46051">
        <ele>260.403564</ele>
        <time>2022-10-04T07:40:20.150Z</time>
      </trkpt>
      <trkpt lat="45.20879" lon="5.46034">
        <ele>261.241028</ele>
        <time>2022-10-04T07:40:24.156Z</time>
      </trkpt>
      <trkpt lat="45.2087" lon="5.46027">
        <ele>262.011435</ele>
        <time>2022-10-04T07:40:27.147Z</time>
      </trkpt>
      <trkpt lat="45.20856" lon="5.46022">
        <ele>263.01645</ele>
        <time>2022-10-04T07:40:30.166Z</time>
      </trkpt>
      <trkpt lat="45.20845" lon="5.46018">
        <ele>263.737102</ele>
        <time>2022-10-04T07:40:32.161Z</time>
      </trkpt>
      <trkpt lat="45.20837" lon="5.46014">
        <ele>264.392413</ele>
        <time>2022-10-04T07:40:34.161Z</time>
      </trkpt>
      <trkpt lat="45.20828" lon="5.46009">
        <ele>265.054427</ele>
        <time>2022-10-04T07:40:36.152Z</time>
      </trkpt>
      <trkpt lat="45.20816" lon="5.46002">
        <ele>265.946412</ele>
        <time>2022-10-04T07:40:39.156Z</time>
      </trkpt>
      <trkpt lat="45.20806" lon="5.45996">
        <ele>266.688528</ele>
        <time>2022-10-04T07:40:42.156Z</time>
      </trkpt>
      <trkpt lat="45.20797" lon="5.45989">
        <ele>267.412949</ele>
        <time>2022-10-04T07:40:45.163Z</time>
      </trkpt>
      <trkpt lat="45.20788" lon="5.45982">
        <ele>268.097813</ele>
        <time>2022-10-04T07:40:48.152Z</time>
      </trkpt>
      <trkpt lat="45.2078" lon="5.45974">
        <ele>268.801193</ele>
        <time>2022-10-04T07:40:51.155Z</time>
      </trkpt>
      <trkpt lat="45.20771" lon="5.45965">
        <ele>269.539343</ele>
        <time>2022-10-04T07:40:54.161Z</time>
      </trkpt>
      <trkpt lat="45.20763" lon="5.45956">
        <ele>270.038323</ele>
        <time>2022-10-04T07:40:57.145Z</time>
      </trkpt>
      <trkpt lat="45.20754" lon="5.45946">
        <ele>270.540113</ele>
        <time>2022-10-04T07:41:00.153Z</time>
      </trkpt>
      <trkpt lat="45.20746" lon="5.45935">
        <ele>271.034138</ele>
        <time>2022-10-04T07:41:03.154Z</time>
      </trkpt>
      <trkpt lat="45.20739" lon="5.45923">
        <ele>271.540356</ele>
        <time>2022-10-04T07:41:06.156Z</time>
      </trkpt>
      <trkpt lat="45.20732" lon="5.45912">
        <ele>272.019425</ele>
        <time>2022-10-04T07:41:09.155Z</time>
      </trkpt>
      <trkpt lat="45.20725" lon="5.459">
        <ele>272.513484</ele>
        <time>2022-10-04T07:41:12.160Z</time>
      </trkpt>
      <trkpt lat="45.20718" lon="5.45888">
        <ele>273.021413</ele>
        <time>2022-10-04T07:41:15.154Z</time>
      </trkpt>
      <trkpt lat="45.20711" lon="5.45876">
        <ele>273.519431</ele>
        <time>2022-10-04T07:41:18.160Z</time>
      </trkpt>
      <trkpt lat="45.20704" lon="5.45865">
        <ele>273.992375</ele>
        <time>2022-10-04T07:41:21.169Z</time>
      </trkpt>
      <trkpt lat="45.20697" lon="5.45854">
        <ele>274.497833</ele>
        <time>2022-10-04T07:41:24.153Z</time>
      </trkpt>
      <trkpt lat="45.20689" lon="5.45842">
        <ele>274.999741</ele>
        <time>2022-10-04T07:41:27.155Z</time>
      </trkpt>
      <trkpt lat="45.20683" lon="5.4583">
        <ele>275.497397</ele>
        <time>2022-10-04T07:41:30.155Z</time>
      </trkpt>
      <trkpt lat="45.20675" lon="5.45817">
        <ele>276.043973</ele>
        <time>2022-10-04T07:41:33.158Z</time>
      </trkpt>
      <trkpt lat="45.20666" lon="5.45803">
        <ele>276.640782</ele>
        <time>2022-10-04T07:41:36.159Z</time>
      </trkpt>
      <trkpt lat="45.20659" lon="5.45792">
        <ele>277.121191</ele>
        <time>2022-10-04T07:41:38.159Z</time>
      </trkpt>
      <trkpt lat="45.20651" lon="5.45779">
        <ele>277.671447</ele>
        <time>2022-10-04T07:41:40.160Z</time>
      </trkpt>
      <trkpt lat="45.20643" lon="5.45766">
        <ele>277.750058</ele>
        <time>2022-10-04T07:41:42.154Z</time>
      </trkpt>
      <trkpt lat="45.20635" lon="5.45751">
        <ele>277.769505</ele>
        <time>2022-10-04T07:41:44.153Z</time>
      </trkpt>
      <trkpt lat="45.20627" lon="5.45737">
        <ele>277.789165</ele>
        <time>2022-10-04T07:41:46.161Z</time>
      </trkpt>
      <trkpt lat="45.20618" lon="5.45723">
        <ele>277.810329</ele>
        <time>2022-10-04T07:41:48.151Z</time>
      </trkpt>
      <trkpt lat="45.20609" lon="5.45709">
        <ele>277.829723</ele>
        <time>2022-10-04T07:41:50.158Z</time>
      </trkpt>
      <trkpt lat="45.20599" lon="5.45698">
        <ele>277.849149</ele>
        <time>2022-10-04T07:41:52.155Z</time>
      </trkpt>
      <trkpt lat="45.20587" lon="5.45689">
        <ele>277.869913</ele>
        <time>2022-10-04T07:41:54.159Z</time>
      </trkpt>
      <trkpt lat="45.20577" lon="5.45678">
        <ele>277.888837</ele>
        <time>2022-10-04T07:41:56.159Z</time>
      </trkpt>
      <trkpt lat="45.20567" lon="5.45667">
        <ele>277.908515</ele>
        <time>2022-10-04T07:41:58.169Z</time>
      </trkpt>
      <trkpt lat="45.20558" lon="5.45653">
        <ele>277.927734</ele>
        <time>2022-10-04T07:42:00.142Z</time>
      </trkpt>
      <trkpt lat="45.20551" lon="5.4564">
        <ele>277.945809</ele>
        <time>2022-10-04T07:42:02.151Z</time>
      </trkpt>
      <trkpt lat="45.20544" lon="5.45627">
        <ele>277.964399</ele>
        <time>2022-10-04T07:42:04.152Z</time>
      </trkpt>
      <trkpt lat="45.20536" lon="5.45614">
        <ele>277.982813</ele>
        <time>2022-10-04T07:42:06.155Z</time>
      </trkpt>
      <trkpt lat="45.20527" lon="5.456">
        <ele>278.002336</ele>
        <time>2022-10-04T07:42:08.155Z</time>
      </trkpt>
      <trkpt lat="45.20519" lon="5.45587">
        <ele>278.139439</ele>
        <time>2022-10-04T07:42:10.156Z</time>
      </trkpt>
      <trkpt lat="45.20509" lon="5.45573">
        <ele>278.33026</ele>
        <time>2022-10-04T07:42:12.158Z</time>
      </trkpt>
      <trkpt lat="45.205" lon="5.45561">
        <ele>278.515899</ele>
        <time>2022-10-04T07:42:14.154Z</time>
      </trkpt>
      <trkpt lat="45.20492" lon="5.45548">
        <ele>278.684742</ele>
        <time>2022-10-04T07:42:16.154Z</time>
      </trkpt>
      <trkpt lat="45.20483" lon="5.45535">
        <ele>278.858675</ele>
        <time>2022-10-04T07:42:18.151Z</time>
      </trkpt>
      <trkpt lat="45.20477" lon="5.45524">
        <ele>279.008333</ele>
        <time>2022-10-04T07:42:20.150Z</time>
      </trkpt>
      <trkpt lat="45.2047" lon="5.45512">
        <ele>279.161451</ele>
        <time>2022-10-04T07:42:22.152Z</time>
      </trkpt>
      <trkpt lat="45.20464" lon="5.45499">
        <ele>279.313411</ele>
        <time>2022-10-04T07:42:24.162Z</time>
      </trkpt>
      <trkpt lat="45.20457" lon="5.45487">
        <ele>279.470962</ele>
        <time>2022-10-04T07:42:26.158Z</time>
      </trkpt>
      <trkpt lat="45.20451" lon="5.45473">
        <ele>279.635994</ele>
        <time>2022-10-04T07:42:28.152Z</time>
      </trkpt>
      <trkpt lat="45.20443" lon="5.4546">
        <ele>279.801817</ele>
        <time>2022-10-04T07:42:30.154Z</time>
      </trkpt>
      <trkpt lat="45.20437" lon="5.45446">
        <ele>279.973237</ele>
        <time>2022-10-04T07:42:32.153Z</time>
      </trkpt>
      <trkpt lat="45.20429" lon="5.4543">
        <ele>280.16506</ele>
        <time>2022-10-04T07:42:34.163Z</time>
      </trkpt>
      <trkpt lat="45.20421" lon="5.45414">
        <ele>280.36833</ele>
        <time>2022-10-04T07:42:36.153Z</time>
      </trkpt>
      <trkpt lat="45.20413" lon="5.45397">
        <ele>280.537736</ele>
        <time>2022-10-04T07:42:38.152Z</time>
      </trkpt>
      <trkpt lat="45.20406" lon="5.4538">
        <ele>280.277061</ele>
        <time>2022-10-04T07:42:40.158Z</time>
      </trkpt>
      <trkpt lat="45.20399" lon="5.45362">
        <ele>280.000406</ele>
        <time>2022-10-04T07:42:42.160Z</time>
      </trkpt>
      <trkpt lat="45.20394" lon="5.45344">
        <ele>279.733914</ele>
        <time>2022-10-04T07:42:44.148Z</time>
      </trkpt>
      <trkpt lat="45.20388" lon="5.45324">
        <ele>279.454033</ele>
        <time>2022-10-04T07:42:46.161Z</time>
      </trkpt>
      <trkpt lat="45.20384" lon="5.45304">
        <ele>279.174222</ele>
        <time>2022-10-04T07:42:48.154Z</time>
      </trkpt>
      <trkpt lat="45.20382" lon="5.45283">
        <ele>278.887101</ele>
        <time>2022-10-04T07:42:50.161Z</time>
      </trkpt>
      <trkpt lat="45.20379" lon="5.45261">
        <ele>278.587753</ele>
        <time>2022-10-04T07:42:52.151Z</time>
      </trkpt>
      <trkpt lat="45.20377" lon="5.4524">
        <ele>278.300537</ele>
        <time>2022-10-04T07:42:54.151Z</time>
      </trkpt>
      <trkpt lat="45.20376" lon="5.4522">
        <ele>278.028711</ele>
        <time>2022-10-04T07:42:56.150Z</time>
      </trkpt>
      <trkpt lat="45.20377" lon="5.452">
        <ele>277.758566</ele>
        <time>2022-10-04T07:42:58.152Z</time>
      </trkpt>
      <trkpt lat="45.20376" lon="5.45179">
        <ele>277.476257</ele>
        <time>2022-10-04T07:43:00.149Z</time>
      </trkpt>
      <trkpt lat="45.20375" lon="5.45159">
        <ele>277.208956</ele>
        <time>2022-10-04T07:43:02.149Z</time>
      </trkpt>
      <trkpt lat="45.20374" lon="5.45139">
        <ele>277.277972</ele>
        <time>2022-10-04T07:43:04.150Z</time>
      </trkpt>
      <trkpt lat="45.20372" lon="5.45121">
        <ele>277.468934</ele>
        <time>2022-10-04T07:43:06.147Z</time>
      </trkpt>
      <trkpt lat="45.2037" lon="5.45102">
        <ele>277.66788</ele>
        <time>2022-10-04T07:43:08.164Z</time>
      </trkpt>
      <trkpt lat="45.20369" lon="5.45084">
        <ele>277.866804</ele>
        <time>2022-10-04T07:43:10.148Z</time>
      </trkpt>
      <trkpt lat="45.20367" lon="5.45065">
        <ele>278.071292</ele>
        <time>2022-10-04T07:43:12.155Z</time>
      </trkpt>
      <trkpt lat="45.20366" lon="5.45047">
        <ele>278.262813</ele>
        <time>2022-10-04T07:43:14.159Z</time>
      </trkpt>
      <trkpt lat="45.20366" lon="5.45027">
        <ele>278.473896</ele>
        <time>2022-10-04T07:43:16.154Z</time>
      </trkpt>
      <trkpt lat="45.20366" lon="5.4501">
        <ele>278.650206</ele>
        <time>2022-10-04T07:43:18.160Z</time>
      </trkpt>
      <trkpt lat="45.20364" lon="5.44992">
        <ele>278.849783</ele>
        <time>2022-10-04T07:43:20.160Z</time>
      </trkpt>
      <trkpt lat="45.2036" lon="5.44974">
        <ele>279.042336</ele>
        <time>2022-10-04T07:43:22.157Z</time>
      </trkpt>
      <trkpt lat="45.20358" lon="5.44956">
        <ele>279.233249</ele>
        <time>2022-10-04T07:43:24.154Z</time>
      </trkpt>
      <trkpt lat="45.20355" lon="5.44939">
        <ele>279.426352</ele>
        <time>2022-10-04T07:43:26.153Z</time>
      </trkpt>
      <trkpt lat="45.20351" lon="5.44922">
        <ele>279.617438</ele>
        <time>2022-10-04T07:43:28.150Z</time>
      </trkpt>
      <trkpt lat="45.20345" lon="5.44905">
        <ele>279.814897</ele>
        <time>2022-10-04T07:43:30.160Z</time>
      </trkpt>
      <trkpt lat="45.20342" lon="5.44887">
        <ele>280.110032</ele>
        <time>2022-10-04T07:43:32.151Z</time>
      </trkpt>
      <trkpt lat="45.20338" lon="5.44868">
        <ele>280.432666</ele>
        <time>2022-10-04T07:43:34.149Z</time>
      </trkpt>
      <trkpt lat="45.20337" lon="5.44851">
        <ele>280.721893</ele>
        <time>2022-10-04T07:43:36.153Z</time>
      </trkpt>
      <trkpt lat="45.2034" lon="5.44832">
        <ele>281.044971</ele>
        <time>2022-10-04T07:43:38.154Z</time>
      </trkpt>
      <trkpt lat="45.20342" lon="5.44815">
        <ele>281.339166</ele>
        <time>2022-10-04T07:43:40.146Z</time>
      </trkpt>
      <trkpt lat="45.20346" lon="5.44801">
        <ele>281.593895</ele>
        <time>2022-10-04T07:43:42.163Z</time>
      </trkpt>
      <trkpt lat="45.2035" lon="5.44786">
        <ele>281.852339</ele>
        <time>2022-10-04T07:43:44.153Z</time>
      </trkpt>
      <trkpt lat="45.20355" lon="5.44771">
        <ele>282.132057</ele>
        <time>2022-10-04T07:43:46.155Z</time>
      </trkpt>
      <trkpt lat="45.2036" lon="5.44757">
        <ele>282.395996</ele>
        <time>2022-10-04T07:43:48.165Z</time>
      </trkpt>
      <trkpt lat="45.20364" lon="5.44744">
        <ele>282.638719</ele>
        <time>2022-10-04T07:43:50.153Z</time>
      </trkpt>
      <trkpt lat="45.20367" lon="5.4473">
        <ele>282.885832</ele>
        <time>2022-10-04T07:43:52.156Z</time>
      </trkpt>
      <trkpt lat="45.2037" lon="5.44714">
        <ele>283.154591</ele>
        <time>2022-10-04T07:43:54.150Z</time>
      </trkpt>
      <trkpt lat="45.20372" lon="5.447">
        <ele>283.403966</ele>
        <time>2022-10-04T07:43:56.156Z</time>
      </trkpt>
      <trkpt lat="45.20376" lon="5.44685">
        <ele>283.669151</ele>
        <time>2022-10-04T07:43:58.159Z</time>
      </trkpt>
      <trkpt lat="45.20378" lon="5.4467">
        <ele>283.919318</ele>
        <time>2022-10-04T07:44:00.146Z</time>
      </trkpt>
      <trkpt lat="45.20381" lon="5.44655">
        <ele>284.148861</ele>
        <time>2022-10-04T07:44:02.150Z</time>
      </trkpt>
      <trkpt lat="45.20384" lon="5.44639">
        <ele>284.293646</ele>
        <time>2022-10-04T07:44:04.151Z</time>
      </trkpt>
      <trkpt lat="45.20387" lon="5.44622">
        <ele>284.438701</ele>
        <time>2022-10-04T07:44:06.147Z</time>
      </trkpt>
      <trkpt lat="45.20389" lon="5.44606">
        <ele>284.573945</ele>
        <time>2022-10-04T07:44:08.157Z</time>
      </trkpt>
      <trkpt lat="45.20392" lon="5.4459">
        <ele>284.709207</ele>
        <time>2022-10-04T07:44:10.158Z</time>
      </trkpt>
      <trkpt lat="45.20395" lon="5.44575">
        <ele>284.843631</ele>
        <time>2022-10-04T07:44:12.150Z</time>
      </trkpt>
      <trkpt lat="45.20398" lon="5.44558">
        <ele>284.985702</ele>
        <time>2022-10-04T07:44:14.157Z</time>
      </trkpt>
      <trkpt lat="45.20399" lon="5.44544">
        <ele>285.107758</ele>
        <time>2022-10-04T07:44:16.150Z</time>
      </trkpt>
      <trkpt lat="45.204" lon="5.44529">
        <ele>285.231967</ele>
        <time>2022-10-04T07:44:18.163Z</time>
      </trkpt>
      <trkpt lat="45.20401" lon="5.44512">
        <ele>285.375725</ele>
        <time>2022-10-04T07:44:20.154Z</time>
      </trkpt>
      <trkpt lat="45.204" lon="5.44496">
        <ele>285.515713</ele>
        <time>2022-10-04T07:44:22.164Z</time>
      </trkpt>
      <trkpt lat="45.20398" lon="5.44479">
        <ele>285.658155</ele>
        <time>2022-10-04T07:44:24.154Z</time>
      </trkpt>
      <trkpt lat="45.20396" lon="5.44462">
        <ele>285.802558</ele>
        <time>2022-10-04T07:44:26.158Z</time>
      </trkpt>
      <trkpt lat="45.20394" lon="5.44444">
        <ele>285.95235</ele>
        <time>2022-10-04T07:44:28.151Z</time>
      </trkpt>
      <trkpt lat="45.20393" lon="5.44426">
        <ele>286.108564</ele>
        <time>2022-10-04T07:44:30.151Z</time>
      </trkpt>
      <trkpt lat="45.20391" lon="5.44409">
        <ele>286.253913</ele>
        <time>2022-10-04T07:44:32.149Z</time>
      </trkpt>
      <trkpt lat="45.20389" lon="5.44391">
        <ele>286.225857</ele>
        <time>2022-10-04T07:44:34.149Z</time>
      </trkpt>
      <trkpt lat="45.20386" lon="5.44373">
        <ele>286.188739</ele>
        <time>2022-10-04T07:44:36.161Z</time>
      </trkpt>
      <trkpt lat="45.20383" lon="5.44356">
        <ele>286.155445</ele>
        <time>2022-10-04T07:44:38.159Z</time>
      </trkpt>
      <trkpt lat="45.2038" lon="5.44338">
        <ele>286.117962</ele>
        <time>2022-10-04T07:44:40.149Z</time>
      </trkpt>
      <trkpt lat="45.20375" lon="5.44321">
        <ele>286.081579</ele>
        <time>2022-10-04T07:44:42.153Z</time>
      </trkpt>
      <trkpt lat="45.2037" lon="5.44304">
        <ele>286.045366</ele>
        <time>2022-10-04T07:44:44.149Z</time>
      </trkpt>
      <trkpt lat="45.20363" lon="5.44287">
        <ele>286.006387</ele>
        <time>2022-10-04T07:44:46.152Z</time>
      </trkpt>
      <trkpt lat="45.20356" lon="5.4427">
        <ele>285.968995</ele>
        <time>2022-10-04T07:44:48.169Z</time>
      </trkpt>
      <trkpt lat="45.2035" lon="5.44254">
        <ele>285.93281</ele>
        <time>2022-10-04T07:44:50.152Z</time>
      </trkpt>
      <trkpt lat="45.20343" lon="5.44237">
        <ele>285.893556</ele>
        <time>2022-10-04T07:44:52.160Z</time>
      </trkpt>
      <trkpt lat="45.20335" lon="5.4422">
        <ele>285.853293</ele>
        <time>2022-10-04T07:44:54.161Z</time>
      </trkpt>
      <trkpt lat="45.2033" lon="5.44201">
        <ele>285.814362</ele>
        <time>2022-10-04T07:44:56.173Z</time>
      </trkpt>
      <trkpt lat="45.20327" lon="5.44184">
        <ele>285.779666</ele>
        <time>2022-10-04T07:44:58.150Z</time>
      </trkpt>
      <trkpt lat="45.20323" lon="5.44166">
        <ele>285.752566</ele>
        <time>2022-10-04T07:45:00.157Z</time>
      </trkpt>
      <trkpt lat="45.20319" lon="5.44149">
        <ele>285.740296</ele>
        <time>2022-10-04T07:45:02.155Z</time>
      </trkpt>
      <trkpt lat="45.20314" lon="5.44131">
        <ele>285.726837</ele>
        <time>2022-10-04T07:45:04.147Z</time>
      </trkpt>
      <trkpt lat="45.20311" lon="5.44114">
        <ele>285.714885</ele>
        <time>2022-10-04T07:45:06.147Z</time>
      </trkpt>
      <trkpt lat="45.20306" lon="5.44096">
        <ele>285.701627</ele>
        <time>2022-10-04T07:45:08.154Z</time>
      </trkpt>
      <trkpt lat="45.20304" lon="5.44077">
        <ele>285.688901</ele>
        <time>2022-10-04T07:45:10.153Z</time>
      </trkpt>
      <trkpt lat="45.20303" lon="5.44057">
        <ele>285.67547</ele>
        <time>2022-10-04T07:45:12.159Z</time>
      </trkpt>
      <trkpt lat="45.20304" lon="5.44039">
        <ele>285.662643</ele>
        <time>2022-10-04T07:45:14.150Z</time>
      </trkpt>
      <trkpt lat="45.20305" lon="5.44019">
        <ele>285.64928</ele>
        <time>2022-10-04T07:45:16.156Z</time>
      </trkpt>
      <trkpt lat="45.20309" lon="5.43998">
        <ele>285.634512</ele>
        <time>2022-10-04T07:45:18.177Z</time>
      </trkpt>
      <trkpt lat="45.20313" lon="5.43979">
        <ele>285.621238</ele>
        <time>2022-10-04T07:45:20.147Z</time>
      </trkpt>
      <trkpt lat="45.20316" lon="5.4396">
        <ele>285.607676</ele>
        <time>2022-10-04T07:45:22.159Z</time>
      </trkpt>
      <trkpt lat="45.20319" lon="5.43941">
        <ele>285.594268</ele>
        <time>2022-10-04T07:45:24.162Z</time>
      </trkpt>
      <trkpt lat="45.20321" lon="5.43923">
        <ele>285.567784</ele>
        <time>2022-10-04T07:45:26.150Z</time>
      </trkpt>
      <trkpt lat="45.20325" lon="5.43906">
        <ele>285.433189</ele>
        <time>2022-10-04T07:45:28.157Z</time>
      </trkpt>
      <trkpt lat="45.20326" lon="5.43888">
        <ele>285.305549</ele>
        <time>2022-10-04T07:45:30.157Z</time>
      </trkpt>
      <trkpt lat="45.20331" lon="5.43876">
        <ele>285.201414</ele>
        <time>2022-10-04T07:45:32.155Z</time>
      </trkpt>
      <trkpt lat="45.20342" lon="5.43882">
        <ele>285.080763</ele>
        <time>2022-10-04T07:45:34.152Z</time>
      </trkpt>
      <trkpt lat="45.20354" lon="5.43889">
        <ele>284.951341</ele>
        <time>2022-10-04T07:45:36.157Z</time>
      </trkpt>
      <trkpt lat="45.20365" lon="5.43899">
        <ele>284.81122</ele>
        <time>2022-10-04T07:45:38.160Z</time>
      </trkpt>
      <trkpt lat="45.20377" lon="5.4391">
        <ele>284.669712</ele>
        <time>2022-10-04T07:45:40.152Z</time>
      </trkpt>
      <trkpt lat="45.20388" lon="5.43919">
        <ele>284.534118</ele>
        <time>2022-10-04T07:45:42.163Z</time>
      </trkpt>
      <trkpt lat="45.20398" lon="5.4393">
        <ele>284.398977</ele>
        <time>2022-10-04T07:45:44.156Z</time>
      </trkpt>
      <trkpt lat="45.2041" lon="5.43941">
        <ele>284.260397</ele>
        <time>2022-10-04T07:45:46.147Z</time>
      </trkpt>
      <trkpt lat="45.2042" lon="5.43951">
        <ele>284.127323</ele>
        <time>2022-10-04T07:45:48.150Z</time>
      </trkpt>
      <trkpt lat="45.20432" lon="5.43962">
        <ele>283.986219</ele>
        <time>2022-10-04T07:45:50.164Z</time>
      </trkpt>
      <trkpt lat="45.20442" lon="5.43972">
        <ele>283.859058</ele>
        <time>2022-10-04T07:45:52.152Z</time>
      </trkpt>
      <trkpt lat="45.20451" lon="5.43981">
        <ele>283.738548</ele>
        <time>2022-10-04T07:45:54.148Z</time>
      </trkpt>
      <trkpt lat="45.20482" lon="5.4401">
        <ele>285.273302</ele>
        <time>2022-10-04T07:46:00.160Z</time>
      </trkpt>
      <trkpt lat="45.20495" lon="5.44006">
        <ele>285.857264</ele>
        <time>2022-10-04T07:46:02.152Z</time>
      </trkpt>
      <trkpt lat="45.205" lon="5.43993">
        <ele>286.309093</ele>
        <time>2022-10-04T07:46:04.153Z</time>
      </trkpt>
      <trkpt lat="45.20505" lon="5.43981">
        <ele>286.749415</ele>
        <time>2022-10-04T07:46:06.149Z</time>
      </trkpt>
      <trkpt lat="45.20509" lon="5.43967">
        <ele>287.208866</ele>
        <time>2022-10-04T07:46:09.149Z</time>
      </trkpt>
      <trkpt lat="45.20516" lon="5.43957">
        <ele>287.62745</ele>
        <time>2022-10-04T07:46:12.144Z</time>
      </trkpt>
      <trkpt lat="45.20523" lon="5.43945">
        <ele>288.086439</ele>
        <time>2022-10-04T07:46:16.147Z</time>
      </trkpt>
      <trkpt lat="45.20528" lon="5.43935">
        <ele>288.489245</ele>
        <time>2022-10-04T07:46:20.169Z</time>
      </trkpt>
      <trkpt lat="45.20535" lon="5.43922">
        <ele>288.980561</ele>
        <time>2022-10-04T07:46:25.154Z</time>
      </trkpt>
      <trkpt lat="45.20541" lon="5.43912">
        <ele>289.377339</ele>
        <time>2022-10-04T07:46:28.155Z</time>
      </trkpt>
      <trkpt lat="45.20585" lon="5.43762">
        <ele>293.733975</ele>
        <time>2022-10-04T07:47:12.586Z</time>
      </trkpt>
      <trkpt lat="45.20588" lon="5.43748">
        <ele>294.099089</ele>
        <time>2022-10-04T07:47:15.160Z</time>
      </trkpt>
      <trkpt lat="45.20595" lon="5.43734">
        <ele>294.48778</ele>
        <time>2022-10-04T07:47:18.158Z</time>
      </trkpt>
      <trkpt lat="45.20604" lon="5.43724">
        <ele>294.891533</ele>
        <time>2022-10-04T07:47:21.154Z</time>
      </trkpt>
      <trkpt lat="45.20615" lon="5.43714">
        <ele>295.324368</ele>
        <time>2022-10-04T07:47:24.157Z</time>
      </trkpt>
      <trkpt lat="45.20623" lon="5.43707">
        <ele>295.644031</ele>
        <time>2022-10-04T07:47:26.151Z</time>
      </trkpt>
      <trkpt lat="45.20631" lon="5.43701">
        <ele>295.965488</ele>
        <time>2022-10-04T07:47:28.150Z</time>
      </trkpt>
      <trkpt lat="45.2064" lon="5.43694">
        <ele>296.295607</ele>
        <time>2022-10-04T07:47:30.155Z</time>
      </trkpt>
      <trkpt lat="45.20649" lon="5.43685">
        <ele>296.664793</ele>
        <time>2022-10-04T07:47:32.150Z</time>
      </trkpt>
      <trkpt lat="45.20658" lon="5.43677">
        <ele>297.031599</ele>
        <time>2022-10-04T07:47:34.150Z</time>
      </trkpt>
      <trkpt lat="45.20667" lon="5.43671">
        <ele>297.387226</ele>
        <time>2022-10-04T07:47:36.150Z</time>
      </trkpt>
      <trkpt lat="45.20676" lon="5.43662">
        <ele>297.651073</ele>
        <time>2022-10-04T07:47:38.149Z</time>
      </trkpt>
      <trkpt lat="45.20686" lon="5.43654">
        <ele>297.695179</ele>
        <time>2022-10-04T07:47:40.152Z</time>
      </trkpt>
      <trkpt lat="45.20696" lon="5.43644">
        <ele>297.743599</ele>
        <time>2022-10-04T07:47:42.151Z</time>
      </trkpt>
      <trkpt lat="45.20706" lon="5.43634">
        <ele>297.793123</ele>
        <time>2022-10-04T07:47:44.150Z</time>
      </trkpt>
      <trkpt lat="45.20716" lon="5.43623">
        <ele>297.841868</ele>
        <time>2022-10-04T07:47:46.150Z</time>
      </trkpt>
      <trkpt lat="45.20726" lon="5.43613">
        <ele>297.891245</ele>
        <time>2022-10-04T07:47:48.146Z</time>
      </trkpt>
      <trkpt lat="45.20736" lon="5.43601">
        <ele>297.942297</ele>
        <time>2022-10-04T07:47:50.148Z</time>
      </trkpt>
      <trkpt lat="45.20748" lon="5.43591">
        <ele>297.996619</ele>
        <time>2022-10-04T07:47:52.152Z</time>
      </trkpt>
      <trkpt lat="45.2076" lon="5.43583">
        <ele>298.051216</ele>
        <time>2022-10-04T07:47:54.154Z</time>
      </trkpt>
      <trkpt lat="45.20773" lon="5.43577">
        <ele>298.103787</ele>
        <time>2022-10-04T07:47:56.150Z</time>
      </trkpt>
      <trkpt lat="45.20786" lon="5.43571">
        <ele>298.157909</ele>
        <time>2022-10-04T07:47:58.158Z</time>
      </trkpt>
      <trkpt lat="45.20799" lon="5.43568">
        <ele>298.20948</ele>
        <time>2022-10-04T07:48:00.152Z</time>
      </trkpt>
      <trkpt lat="45.20812" lon="5.43565">
        <ele>298.262594</ele>
        <time>2022-10-04T07:48:02.153Z</time>
      </trkpt>
      <trkpt lat="45.20824" lon="5.43559">
        <ele>298.312101</ele>
        <time>2022-10-04T07:48:04.153Z</time>
      </trkpt>
      <trkpt lat="45.20835" lon="5.43553">
        <ele>298.423149</ele>
        <time>2022-10-04T07:48:06.151Z</time>
      </trkpt>
      <trkpt lat="45.20847" lon="5.43546">
        <ele>298.736396</ele>
        <time>2022-10-04T07:48:08.149Z</time>
      </trkpt>
      <trkpt lat="45.20858" lon="5.43538">
        <ele>299.039313</ele>
        <time>2022-10-04T07:48:10.158Z</time>
      </trkpt>
      <trkpt lat="45.20868" lon="5.4353">
        <ele>299.327034</ele>
        <time>2022-10-04T07:48:12.147Z</time>
      </trkpt>
      <trkpt lat="45.20881" lon="5.43526">
        <ele>299.650536</ele>
        <time>2022-10-04T07:48:14.152Z</time>
      </trkpt>
      <trkpt lat="45.20892" lon="5.43517">
        <ele>299.962803</ele>
        <time>2022-10-04T07:48:16.155Z</time>
      </trkpt>
      <trkpt lat="45.20904" lon="5.4351">
        <ele>300.293636</ele>
        <time>2022-10-04T07:48:18.154Z</time>
      </trkpt>
      <trkpt lat="45.20914" lon="5.43503">
        <ele>300.576098</ele>
        <time>2022-10-04T07:48:20.149Z</time>
      </trkpt>
      <trkpt lat="45.20926" lon="5.43495">
        <ele>300.892316</ele>
        <time>2022-10-04T07:48:22.150Z</time>
      </trkpt>
      <trkpt lat="45.20937" lon="5.43486">
        <ele>301.227088</ele>
        <time>2022-10-04T07:48:24.152Z</time>
      </trkpt>
      <trkpt lat="45.20947" lon="5.43477">
        <ele>301.51857</ele>
        <time>2022-10-04T07:48:26.151Z</time>
      </trkpt>
      <trkpt lat="45.20959" lon="5.43468">
        <ele>301.845727</ele>
        <time>2022-10-04T07:48:28.150Z</time>
      </trkpt>
      <trkpt lat="45.20967" lon="5.43453">
        <ele>302.184739</ele>
        <time>2022-10-04T07:48:30.152Z</time>
      </trkpt>
      <trkpt lat="45.20974" lon="5.43438">
        <ele>302.492168</ele>
        <time>2022-10-04T07:48:32.151Z</time>
      </trkpt>
      <trkpt lat="45.20977" lon="5.43419">
        <ele>302.821904</ele>
        <time>2022-10-04T07:48:34.154Z</time>
      </trkpt>
      <trkpt lat="45.20982" lon="5.43402">
        <ele>302.932007</ele>
        <time>2022-10-04T07:48:36.154Z</time>
      </trkpt>
      <trkpt lat="45.20986" lon="5.43384">
        <ele>303.036845</ele>
        <time>2022-10-04T07:48:38.158Z</time>
      </trkpt>
      <trkpt lat="45.2099" lon="5.43367">
        <ele>303.144957</ele>
        <time>2022-10-04T07:48:40.151Z</time>
      </trkpt>
      <trkpt lat="45.20994" lon="5.43349">
        <ele>303.254159</ele>
        <time>2022-10-04T07:48:42.149Z</time>
      </trkpt>
      <trkpt lat="45.20998" lon="5.43331">
        <ele>303.36286</ele>
        <time>2022-10-04T07:48:44.149Z</time>
      </trkpt>
      <trkpt lat="45.21001" lon="5.43314">
        <ele>303.465589</ele>
        <time>2022-10-04T07:48:46.149Z</time>
      </trkpt>
      <trkpt lat="45.21006" lon="5.433">
        <ele>303.557443</ele>
        <time>2022-10-04T07:48:48.147Z</time>
      </trkpt>
      <trkpt lat="45.21009" lon="5.43283">
        <ele>303.65858</ele>
        <time>2022-10-04T07:48:50.152Z</time>
      </trkpt>
      <trkpt lat="45.21014" lon="5.43265">
        <ele>303.768925</ele>
        <time>2022-10-04T07:48:52.151Z</time>
      </trkpt>
      <trkpt lat="45.21019" lon="5.43249">
        <ele>303.871824</ele>
        <time>2022-10-04T07:48:54.150Z</time>
      </trkpt>
      <trkpt lat="45.21025" lon="5.43231">
        <ele>303.989442</ele>
        <time>2022-10-04T07:48:56.152Z</time>
      </trkpt>
      <trkpt lat="45.21029" lon="5.43212">
        <ele>304.10444</ele>
        <time>2022-10-04T07:48:58.151Z</time>
      </trkpt>
      <trkpt lat="45.21034" lon="5.43196">
        <ele>304.206837</ele>
        <time>2022-10-04T07:49:00.150Z</time>
      </trkpt>
      <trkpt lat="45.21038" lon="5.43176">
        <ele>304.311047</ele>
        <time>2022-10-04T07:49:02.152Z</time>
      </trkpt>
      <trkpt lat="45.21044" lon="5.43158">
        <ele>304.337495</ele>
        <time>2022-10-04T07:49:04.148Z</time>
      </trkpt>
      <trkpt lat="45.21052" lon="5.43142">
        <ele>304.36322</ele>
        <time>2022-10-04T07:49:06.149Z</time>
      </trkpt>
      <trkpt lat="45.21061" lon="5.43128">
        <ele>304.388152</ele>
        <time>2022-10-04T07:49:08.155Z</time>
      </trkpt>
      <trkpt lat="45.21069" lon="5.43117">
        <ele>304.410284</ele>
        <time>2022-10-04T07:49:10.162Z</time>
      </trkpt>
      <trkpt lat="45.21078" lon="5.43106">
        <ele>304.43205</ele>
        <time>2022-10-04T07:49:12.153Z</time>
      </trkpt>
      <trkpt lat="45.21089" lon="5.43095">
        <ele>304.458075</ele>
        <time>2022-10-04T07:49:14.153Z</time>
      </trkpt>
      <trkpt lat="45.21101" lon="5.43083">
        <ele>304.484553</ele>
        <time>2022-10-04T07:49:16.150Z</time>
      </trkpt>
      <trkpt lat="45.21109" lon="5.43074">
        <ele>304.505043</ele>
        <time>2022-10-04T07:49:18.150Z</time>
      </trkpt>
      <trkpt lat="45.21118" lon="5.43061">
        <ele>304.528689</ele>
        <time>2022-10-04T07:49:20.152Z</time>
      </trkpt>
      <trkpt lat="45.2113" lon="5.43052">
        <ele>304.554145</ele>
        <time>2022-10-04T07:49:22.152Z</time>
      </trkpt>
      <trkpt lat="45.21144" lon="5.43038">
        <ele>304.58659</ele>
        <time>2022-10-04T07:49:25.149Z</time>
      </trkpt>
      <trkpt lat="45.21155" lon="5.43027">
        <ele>304.611089</ele>
        <time>2022-10-04T07:49:27.152Z</time>
      </trkpt>
      <trkpt lat="45.21167" lon="5.43019">
        <ele>304.636543</ele>
        <time>2022-10-04T07:49:29.153Z</time>
      </trkpt>
      <trkpt lat="45.2118" lon="5.43011">
        <ele>304.6859</ele>
        <time>2022-10-04T07:49:31.153Z</time>
      </trkpt>
      <trkpt lat="45.21191" lon="5.43004">
        <ele>304.734667</ele>
        <time>2022-10-04T07:49:33.150Z</time>
      </trkpt>
      <trkpt lat="45.21199" lon="5.42997">
        <ele>304.777062</ele>
        <time>2022-10-04T07:49:35.152Z</time>
      </trkpt>
      <trkpt lat="45.21207" lon="5.42991">
        <ele>304.817112</ele>
        <time>2022-10-04T07:49:37.149Z</time>
      </trkpt>
      <trkpt lat="45.21217" lon="5.42984">
        <ele>304.862031</ele>
        <time>2022-10-04T07:49:39.152Z</time>
      </trkpt>
      <trkpt lat="45.21227" lon="5.42976">
        <ele>304.912037</ele>
        <time>2022-10-04T07:49:41.151Z</time>
      </trkpt>
      <trkpt lat="45.21238" lon="5.42969">
        <ele>304.961584</ele>
        <time>2022-10-04T07:49:43.150Z</time>
      </trkpt>
      <trkpt lat="45.21246" lon="5.42961">
        <ele>305.003961</ele>
        <time>2022-10-04T07:49:45.157Z</time>
      </trkpt>
      <trkpt lat="45.21254" lon="5.42954">
        <ele>305.04337</ele>
        <time>2022-10-04T07:49:47.150Z</time>
      </trkpt>
      <trkpt lat="45.21263" lon="5.42947">
        <ele>305.086705</ele>
        <time>2022-10-04T07:49:49.157Z</time>
      </trkpt>
      <trkpt lat="45.21271" lon="5.42943">
        <ele>305.126062</ele>
        <time>2022-10-04T07:49:51.149Z</time>
      </trkpt>
      <trkpt lat="45.21283" lon="5.42935">
        <ele>305.179318</ele>
        <time>2022-10-04T07:49:54.151Z</time>
      </trkpt>
      <trkpt lat="45.21294" lon="5.42927">
        <ele>305.232751</ele>
        <time>2022-10-04T07:49:57.149Z</time>
      </trkpt>
      <trkpt lat="45.21303" lon="5.4292">
        <ele>305.275517</ele>
        <time>2022-10-04T07:50:01.152Z</time>
      </trkpt>
      <trkpt lat="45.21304" lon="5.42903">
        <ele>305.325846</ele>
        <time>2022-10-04T07:50:08.149Z</time>
      </trkpt>
      <trkpt lat="45.213" lon="5.42886">
        <ele>305.381364</ele>
        <time>2022-10-04T07:50:11.145Z</time>
      </trkpt>
      <trkpt lat="45.213" lon="5.42871">
        <ele>305.401668</ele>
        <time>2022-10-04T07:50:13.157Z</time>
      </trkpt>
      <trkpt lat="45.21299" lon="5.42857">
        <ele>305.373352</ele>
        <time>2022-10-04T07:50:15.153Z</time>
      </trkpt>
      <trkpt lat="45.21293" lon="5.42842">
        <ele>305.340857</ele>
        <time>2022-10-04T07:50:17.149Z</time>
      </trkpt>
      <trkpt lat="45.21289" lon="5.42827">
        <ele>305.308911</ele>
        <time>2022-10-04T07:50:19.156Z</time>
      </trkpt>
      <trkpt lat="45.21285" lon="5.42811">
        <ele>305.275798</ele>
        <time>2022-10-04T07:50:21.148Z</time>
      </trkpt>
      <trkpt lat="45.21279" lon="5.42794">
        <ele>305.239567</ele>
        <time>2022-10-04T07:50:23.155Z</time>
      </trkpt>
      <trkpt lat="45.21272" lon="5.42777">
        <ele>305.201071</ele>
        <time>2022-10-04T07:50:25.166Z</time>
      </trkpt>
      <trkpt lat="45.21268" lon="5.42759">
        <ele>305.16566</ele>
        <time>2022-10-04T07:50:27.151Z</time>
      </trkpt>
      <trkpt lat="45.21262" lon="5.42744">
        <ele>305.130511</ele>
        <time>2022-10-04T07:50:29.148Z</time>
      </trkpt>
      <trkpt lat="45.21257" lon="5.42727">
        <ele>305.095142</ele>
        <time>2022-10-04T07:50:31.149Z</time>
      </trkpt>
      <trkpt lat="45.21253" lon="5.42709">
        <ele>305.059414</ele>
        <time>2022-10-04T07:50:33.149Z</time>
      </trkpt>
      <trkpt lat="45.21248" lon="5.42689">
        <ele>305.018898</ele>
        <time>2022-10-04T07:50:35.153Z</time>
      </trkpt>
      <trkpt lat="45.21244" lon="5.42671">
        <ele>304.980023</ele>
        <time>2022-10-04T07:50:37.153Z</time>
      </trkpt>
      <trkpt lat="45.21239" lon="5.42653">
        <ele>304.944042</ele>
        <time>2022-10-04T07:50:39.151Z</time>
      </trkpt>
      <trkpt lat="45.21233" lon="5.42636">
        <ele>304.904906</ele>
        <time>2022-10-04T07:50:41.150Z</time>
      </trkpt>
      <trkpt lat="45.21228" lon="5.42618">
        <ele>304.860059</ele>
        <time>2022-10-04T07:50:43.155Z</time>
      </trkpt>
      <trkpt lat="45.21222" lon="5.426">
        <ele>304.814141</ele>
        <time>2022-10-04T07:50:45.153Z</time>
      </trkpt>
      <trkpt lat="45.21217" lon="5.42581">
        <ele>304.769259</ele>
        <time>2022-10-04T07:50:47.147Z</time>
      </trkpt>
      <trkpt lat="45.21213" lon="5.42564">
        <ele>304.726328</ele>
        <time>2022-10-04T07:50:49.154Z</time>
      </trkpt>
      <trkpt lat="45.21208" lon="5.42546">
        <ele>304.68382</ele>
        <time>2022-10-04T07:50:51.150Z</time>
      </trkpt>
      <trkpt lat="45.21204" lon="5.42527">
        <ele>304.637853</ele>
        <time>2022-10-04T07:50:53.151Z</time>
      </trkpt>
      <trkpt lat="45.21198" lon="5.4251">
        <ele>304.594274</ele>
        <time>2022-10-04T07:50:55.153Z</time>
      </trkpt>
      <trkpt lat="45.21192" lon="5.42491">
        <ele>304.545898</ele>
        <time>2022-10-04T07:50:57.151Z</time>
      </trkpt>
      <trkpt lat="45.21186" lon="5.42474">
        <ele>304.501439</ele>
        <time>2022-10-04T07:50:59.150Z</time>
      </trkpt>
      <trkpt lat="45.21179" lon="5.42456">
        <ele>304.455248</ele>
        <time>2022-10-04T07:51:01.150Z</time>
      </trkpt>
      <trkpt lat="45.21173" lon="5.42438">
        <ele>304.410093</ele>
        <time>2022-10-04T07:51:03.149Z</time>
      </trkpt>
      <trkpt lat="45.21171" lon="5.42421">
        <ele>304.370417</ele>
        <time>2022-10-04T07:51:05.145Z</time>
      </trkpt>
      <trkpt lat="45.21167" lon="5.42406">
        <ele>304.333277</ele>
        <time>2022-10-04T07:51:07.149Z</time>
      </trkpt>
      <trkpt lat="45.21164" lon="5.42393">
        <ele>304.408507</ele>
        <time>2022-10-04T07:51:10.148Z</time>
      </trkpt>
      <trkpt lat="45.21171" lon="5.42383">
        <ele>304.507803</ele>
        <time>2022-10-04T07:51:14.153Z</time>
      </trkpt>
      <trkpt lat="45.21179" lon="5.42372">
        <ele>304.612291</ele>
        <time>2022-10-04T07:51:17.149Z</time>
      </trkpt>
      <trkpt lat="45.2119" lon="5.42365">
        <ele>304.734071</ele>
        <time>2022-10-04T07:51:20.156Z</time>
      </trkpt>
      <trkpt lat="45.21204" lon="5.42361">
        <ele>304.865971</ele>
        <time>2022-10-04T07:51:22.155Z</time>
      </trkpt>
      <trkpt lat="45.21208" lon="5.4235">
        <ele>304.954961</ele>
        <time>2022-10-04T07:51:24.150Z</time>
      </trkpt>
      <trkpt lat="45.21215" lon="5.42339">
        <ele>305.05116</ele>
        <time>2022-10-04T07:51:26.163Z</time>
      </trkpt>
      <trkpt lat="45.21224" lon="5.4233">
        <ele>305.162156</ele>
        <time>2022-10-04T07:51:28.155Z</time>
      </trkpt>
      <trkpt lat="45.21233" lon="5.4232">
        <ele>305.268941</ele>
        <time>2022-10-04T07:51:30.144Z</time>
      </trkpt>
      <trkpt lat="45.21238" lon="5.42308">
        <ele>305.362898</ele>
        <time>2022-10-04T07:51:32.157Z</time>
      </trkpt>
      <trkpt lat="45.21232" lon="5.42292">
        <ele>305.492516</ele>
        <time>2022-10-04T07:51:35.156Z</time>
      </trkpt>
      <trkpt lat="45.21225" lon="5.42278">
        <ele>305.603733</ele>
        <time>2022-10-04T07:51:37.156Z</time>
      </trkpt>
      <trkpt lat="45.21221" lon="5.42265">
        <ele>305.7055</ele>
        <time>2022-10-04T07:51:39.155Z</time>
      </trkpt>
      <trkpt lat="45.21216" lon="5.42251">
        <ele>305.80829</ele>
        <time>2022-10-04T07:51:41.153Z</time>
      </trkpt>
      <trkpt lat="45.21212" lon="5.42237">
        <ele>305.913276</ele>
        <time>2022-10-04T07:51:43.150Z</time>
      </trkpt>
      <trkpt lat="45.21209" lon="5.42221">
        <ele>306.023239</ele>
        <time>2022-10-04T07:51:45.152Z</time>
      </trkpt>
      <trkpt lat="45.21207" lon="5.42207">
        <ele>306.316931</ele>
        <time>2022-10-04T07:51:47.152Z</time>
      </trkpt>
      <trkpt lat="45.21204" lon="5.42191">
        <ele>306.779403</ele>
        <time>2022-10-04T07:51:49.148Z</time>
      </trkpt>
      <trkpt lat="45.21202" lon="5.42175">
        <ele>307.237305</ele>
        <time>2022-10-04T07:51:51.149Z</time>
      </trkpt>
      <trkpt lat="45.21202" lon="5.42161">
        <ele>307.653124</ele>
        <time>2022-10-04T07:51:53.149Z</time>
      </trkpt>
      <trkpt lat="45.212" lon="5.42146">
        <ele>308.076276</ele>
        <time>2022-10-04T07:51:55.143Z</time>
      </trkpt>
      <trkpt lat="45.21198" lon="5.42132">
        <ele>308.495315</ele>
        <time>2022-10-04T07:51:57.149Z</time>
      </trkpt>
      <trkpt lat="45.21197" lon="5.42117">
        <ele>308.932042</ele>
        <time>2022-10-04T07:51:59.148Z</time>
      </trkpt>
      <trkpt lat="45.21196" lon="5.42104">
        <ele>309.298458</ele>
        <time>2022-10-04T07:52:01.148Z</time>
      </trkpt>
      <trkpt lat="45.21194" lon="5.42091">
        <ele>309.692766</ele>
        <time>2022-10-04T07:52:03.152Z</time>
      </trkpt>
      <trkpt lat="45.21192" lon="5.42078">
        <ele>310.083467</ele>
        <time>2022-10-04T07:52:05.150Z</time>
      </trkpt>
      <trkpt lat="45.2119" lon="5.42065">
        <ele>310.458085</ele>
        <time>2022-10-04T07:52:07.150Z</time>
      </trkpt>
      <trkpt lat="45.21189" lon="5.4205">
        <ele>310.895725</ele>
        <time>2022-10-04T07:52:10.166Z</time>
      </trkpt>
      <trkpt lat="45.21193" lon="5.42036">
        <ele>311.32796</ele>
        <time>2022-10-04T07:52:15.149Z</time>
      </trkpt>
      <trkpt lat="45.21202" lon="5.42031">
        <ele>311.714226</ele>
        <time>2022-10-04T07:52:21.155Z</time>
      </trkpt>
      <trkpt lat="45.21211" lon="5.42032">
        <ele>312.091052</ele>
        <time>2022-10-04T07:52:24.154Z</time>
      </trkpt>
      <trkpt lat="45.21222" lon="5.42031">
        <ele>312.51681</ele>
        <time>2022-10-04T07:52:27.154Z</time>
      </trkpt>
      <trkpt lat="45.21233" lon="5.4203">
        <ele>312.966886</ele>
        <time>2022-10-04T07:52:30.151Z</time>
      </trkpt>
      <trkpt lat="45.21244" lon="5.42027">
        <ele>313.44003</ele>
        <time>2022-10-04T07:52:33.149Z</time>
      </trkpt>
      <trkpt lat="45.21256" lon="5.42022">
        <ele>313.871851</ele>
        <time>2022-10-04T07:52:36.148Z</time>
      </trkpt>
      <trkpt lat="45.21266" lon="5.42015">
        <ele>314.286951</ele>
        <time>2022-10-04T07:52:39.152Z</time>
      </trkpt>
      <trkpt lat="45.21276" lon="5.42012">
        <ele>314.655138</ele>
        <time>2022-10-04T07:52:42.154Z</time>
      </trkpt>
      <trkpt lat="45.21282" lon="5.42002">
        <ele>314.980775</ele>
        <time>2022-10-04T07:52:46.150Z</time>
      </trkpt>
      <trkpt lat="45.21287" lon="5.41992">
        <ele>315.308929</ele>
        <time>2022-10-04T07:52:49.149Z</time>
      </trkpt>
      <trkpt lat="45.21297" lon="5.41983">
        <ele>315.720802</ele>
        <time>2022-10-04T07:52:52.154Z</time>
      </trkpt>
      <trkpt lat="45.21307" lon="5.41973">
        <ele>316.16138</ele>
        <time>2022-10-04T07:52:55.151Z</time>
      </trkpt>
      <trkpt lat="45.21317" lon="5.41961">
        <ele>316.620258</ele>
        <time>2022-10-04T07:52:58.155Z</time>
      </trkpt>
      <trkpt lat="45.21328" lon="5.4195">
        <ele>317.08716</ele>
        <time>2022-10-04T07:53:01.149Z</time>
      </trkpt>
      <trkpt lat="45.21339" lon="5.4194">
        <ele>317.563006</ele>
        <time>2022-10-04T07:53:04.152Z</time>
      </trkpt>
      <trkpt lat="45.21346" lon="5.41932">
        <ele>317.886903</ele>
        <time>2022-10-04T07:53:06.147Z</time>
      </trkpt>
      <trkpt lat="45.21357" lon="5.41921">
        <ele>318.365563</ele>
        <time>2022-10-04T07:53:09.152Z</time>
      </trkpt>
      <trkpt lat="45.21364" lon="5.41913">
        <ele>318.692351</ele>
        <time>2022-10-04T07:53:11.153Z</time>
      </trkpt>
      <trkpt lat="45.21376" lon="5.41906">
        <ele>319.140814</ele>
        <time>2022-10-04T07:53:14.148Z</time>
      </trkpt>
      <trkpt lat="45.21384" lon="5.41902">
        <ele>319.467236</ele>
        <time>2022-10-04T07:53:17.154Z</time>
      </trkpt>
      <trkpt lat="45.21393" lon="5.41904">
        <ele>319.789243</ele>
        <time>2022-10-04T07:53:23.152Z</time>
      </trkpt>
      <trkpt lat="45.21409" lon="5.41871">
        <ele>320.458045</ele>
        <time>2022-10-04T07:55:27.168Z</time>
      </trkpt>
      <trkpt lat="45.21403" lon="5.4186">
        <ele>320.680091</ele>
        <time>2022-10-04T07:55:29.153Z</time>
      </trkpt>
      <trkpt lat="45.21399" lon="5.41848">
        <ele>320.892442</ele>
        <time>2022-10-04T07:55:31.148Z</time>
      </trkpt>
      <trkpt lat="45.21399" lon="5.41835">
        <ele>321.106899</ele>
        <time>2022-10-04T07:55:33.146Z</time>
      </trkpt>
      <trkpt lat="45.21402" lon="5.41816">
        <ele>321.414689</ele>
        <time>2022-10-04T07:55:36.145Z</time>
      </trkpt>
      <trkpt lat="45.21402" lon="5.41803">
        <ele>321.632305</ele>
        <time>2022-10-04T07:55:38.163Z</time>
      </trkpt>
      <trkpt lat="45.21402" lon="5.4179">
        <ele>321.848734</ele>
        <time>2022-10-04T07:55:40.150Z</time>
      </trkpt>
      <trkpt lat="45.21401" lon="5.41776">
        <ele>322.081182</ele>
        <time>2022-10-04T07:55:42.151Z</time>
      </trkpt>
      <trkpt lat="45.21399" lon="5.41762">
        <ele>322.310818</ele>
        <time>2022-10-04T07:55:44.149Z</time>
      </trkpt>
      <trkpt lat="45.21396" lon="5.41749">
        <ele>322.530818</ele>
        <time>2022-10-04T07:55:46.144Z</time>
      </trkpt>
      <trkpt lat="45.21393" lon="5.41735">
        <ele>322.770938</ele>
        <time>2022-10-04T07:55:48.151Z</time>
      </trkpt>
      <trkpt lat="45.21389" lon="5.41721">
        <ele>323.015548</ele>
        <time>2022-10-04T07:55:50.160Z</time>
      </trkpt>
      <trkpt lat="45.21385" lon="5.41707">
        <ele>323.262114</ele>
        <time>2022-10-04T07:55:52.151Z</time>
      </trkpt>
      <trkpt lat="45.21382" lon="5.41693">
        <ele>323.515212</ele>
        <time>2022-10-04T07:55:54.151Z</time>
      </trkpt>
      <trkpt lat="45.21379" lon="5.41678">
        <ele>323.762485</ele>
        <time>2022-10-04T07:55:56.150Z</time>
      </trkpt>
      <trkpt lat="45.21375" lon="5.41664">
        <ele>324.014231</ele>
        <time>2022-10-04T07:55:58.150Z</time>
      </trkpt>
      <trkpt lat="45.21373" lon="5.41649">
        <ele>323.844544</ele>
        <time>2022-10-04T07:56:00.153Z</time>
      </trkpt>
      <trkpt lat="45.2137" lon="5.41632">
        <ele>323.622371</ele>
        <time>2022-10-04T07:56:02.150Z</time>
      </trkpt>
      <trkpt lat="45.21368" lon="5.41616">
        <ele>323.419444</ele>
        <time>2022-10-04T07:56:04.146Z</time>
      </trkpt>
      <trkpt lat="45.21364" lon="5.41598">
        <ele>323.187604</ele>
        <time>2022-10-04T07:56:06.149Z</time>
      </trkpt>
      <trkpt lat="45.2136" lon="5.4158">
        <ele>322.953685</ele>
        <time>2022-10-04T07:56:08.151Z</time>
      </trkpt>
      <trkpt lat="45.21357" lon="5.41565">
        <ele>322.754979</ele>
        <time>2022-10-04T07:56:10.149Z</time>
      </trkpt>
      <trkpt lat="45.21354" lon="5.41548">
        <ele>322.529446</ele>
        <time>2022-10-04T07:56:12.150Z</time>
      </trkpt>
      <trkpt lat="45.2135" lon="5.4153">
        <ele>322.294321</ele>
        <time>2022-10-04T07:56:14.153Z</time>
      </trkpt>
      <trkpt lat="45.21347" lon="5.41511">
        <ele>322.056333</ele>
        <time>2022-10-04T07:56:16.150Z</time>
      </trkpt>
      <trkpt lat="45.21344" lon="5.41493">
        <ele>321.820782</ele>
        <time>2022-10-04T07:56:18.155Z</time>
      </trkpt>
      <trkpt lat="45.21341" lon="5.41475">
        <ele>321.58723</ele>
        <time>2022-10-04T07:56:20.151Z</time>
      </trkpt>
      <trkpt lat="45.21338" lon="5.41457">
        <ele>321.352268</ele>
        <time>2022-10-04T07:56:22.151Z</time>
      </trkpt>
      <trkpt lat="45.21334" lon="5.41438">
        <ele>321.108064</ele>
        <time>2022-10-04T07:56:24.150Z</time>
      </trkpt>
      <trkpt lat="45.2133" lon="5.41419">
        <ele>320.857632</ele>
        <time>2022-10-04T07:56:26.156Z</time>
      </trkpt>
      <trkpt lat="45.21326" lon="5.414">
        <ele>320.674999</ele>
        <time>2022-10-04T07:56:28.151Z</time>
      </trkpt>
      <trkpt lat="45.21323" lon="5.41381">
        <ele>320.509736</ele>
        <time>2022-10-04T07:56:30.148Z</time>
      </trkpt>
      <trkpt lat="45.2132" lon="5.41363">
        <ele>320.346944</ele>
        <time>2022-10-04T07:56:32.152Z</time>
      </trkpt>
      <trkpt lat="45.21317" lon="5.41346">
        <ele>320.19383</ele>
        <time>2022-10-04T07:56:34.148Z</time>
      </trkpt>
      <trkpt lat="45.21314" lon="5.41328">
        <ele>320.037605</ele>
        <time>2022-10-04T07:56:36.152Z</time>
      </trkpt>
      <trkpt lat="45.21311" lon="5.41309">
        <ele>319.876669</ele>
        <time>2022-10-04T07:56:38.152Z</time>
      </trkpt>
      <trkpt lat="45.21308" lon="5.41292">
        <ele>319.719003</ele>
        <time>2022-10-04T07:56:40.150Z</time>
      </trkpt>
      <trkpt lat="45.21304" lon="5.41274">
        <ele>319.561263</ele>
        <time>2022-10-04T07:56:42.148Z</time>
      </trkpt>
      <trkpt lat="45.213" lon="5.41256">
        <ele>319.400242</ele>
        <time>2022-10-04T07:56:44.148Z</time>
      </trkpt>
      <trkpt lat="45.21296" lon="5.41239">
        <ele>319.244139</ele>
        <time>2022-10-04T07:56:46.150Z</time>
      </trkpt>
      <trkpt lat="45.21292" lon="5.41221">
        <ele>319.083335</ele>
        <time>2022-10-04T07:56:48.152Z</time>
      </trkpt>
      <trkpt lat="45.21289" lon="5.41203">
        <ele>318.91922</ele>
        <time>2022-10-04T07:56:50.150Z</time>
      </trkpt>
      <trkpt lat="45.21285" lon="5.41185">
        <ele>318.760894</ele>
        <time>2022-10-04T07:56:52.149Z</time>
      </trkpt>
      <trkpt lat="45.21281" lon="5.41167">
        <ele>318.664809</ele>
        <time>2022-10-04T07:56:54.157Z</time>
      </trkpt>
      <trkpt lat="45.21277" lon="5.41149">
        <ele>318.888548</ele>
        <time>2022-10-04T07:56:56.147Z</time>
      </trkpt>
      <trkpt lat="45.21274" lon="5.41131">
        <ele>319.106022</ele>
        <time>2022-10-04T07:56:58.147Z</time>
      </trkpt>
      <trkpt lat="45.21272" lon="5.41113">
        <ele>319.324326</ele>
        <time>2022-10-04T07:57:00.150Z</time>
      </trkpt>
      <trkpt lat="45.21268" lon="5.41095">
        <ele>319.547044</ele>
        <time>2022-10-04T07:57:02.151Z</time>
      </trkpt>
      <trkpt lat="45.21265" lon="5.41076">
        <ele>319.774131</ele>
        <time>2022-10-04T07:57:04.153Z</time>
      </trkpt>
      <trkpt lat="45.21262" lon="5.41059">
        <ele>319.990835</ele>
        <time>2022-10-04T07:57:06.148Z</time>
      </trkpt>
      <trkpt lat="45.21258" lon="5.41041">
        <ele>320.210556</ele>
        <time>2022-10-04T07:57:08.150Z</time>
      </trkpt>
      <trkpt lat="45.21256" lon="5.41024">
        <ele>320.414942</ele>
        <time>2022-10-04T07:57:10.154Z</time>
      </trkpt>
      <trkpt lat="45.21252" lon="5.41008">
        <ele>320.618732</ele>
        <time>2022-10-04T07:57:12.149Z</time>
      </trkpt>
      <trkpt lat="45.21246" lon="5.40993">
        <ele>320.819656</ele>
        <time>2022-10-04T07:57:14.150Z</time>
      </trkpt>
      <trkpt lat="45.21244" lon="5.40976">
        <ele>321.021043</ele>
        <time>2022-10-04T07:57:16.154Z</time>
      </trkpt>
      <trkpt lat="45.21246" lon="5.4096">
        <ele>321.216778</ele>
        <time>2022-10-04T07:57:18.155Z</time>
      </trkpt>
      <trkpt lat="45.21241" lon="5.40944">
        <ele>321.417174</ele>
        <time>2022-10-04T07:57:20.151Z</time>
      </trkpt>
      <trkpt lat="45.21233" lon="5.4093">
        <ele>321.630402</ele>
        <time>2022-10-04T07:57:22.149Z</time>
      </trkpt>
      <trkpt lat="45.2123" lon="5.40912">
        <ele>321.837839</ele>
        <time>2022-10-04T07:57:24.152Z</time>
      </trkpt>
      <trkpt lat="45.21226" lon="5.40896">
        <ele>322.028164</ele>
        <time>2022-10-04T07:57:26.149Z</time>
      </trkpt>
      <trkpt lat="45.21223" lon="5.4088">
        <ele>322.215168</ele>
        <time>2022-10-04T07:57:28.151Z</time>
      </trkpt>
      <trkpt lat="45.21218" lon="5.40864">
        <ele>322.402156</ele>
        <time>2022-10-04T07:57:30.151Z</time>
      </trkpt>
      <trkpt lat="45.21214" lon="5.40849">
        <ele>322.587339</ele>
        <time>2022-10-04T07:57:32.150Z</time>
      </trkpt>
      <trkpt lat="45.2121" lon="5.40833">
        <ele>322.779271</ele>
        <time>2022-10-04T07:57:34.151Z</time>
      </trkpt>
      <trkpt lat="45.21207" lon="5.40817">
        <ele>322.962874</ele>
        <time>2022-10-04T07:57:36.150Z</time>
      </trkpt>
      <trkpt lat="45.21204" lon="5.40801">
        <ele>323.150123</ele>
        <time>2022-10-04T07:57:38.150Z</time>
      </trkpt>
      <trkpt lat="45.21199" lon="5.40786">
        <ele>323.3299</ele>
        <time>2022-10-04T07:57:40.150Z</time>
      </trkpt>
      <trkpt lat="45.21194" lon="5.40772">
        <ele>323.510073</ele>
        <time>2022-10-04T07:57:42.151Z</time>
      </trkpt>
      <trkpt lat="45.21189" lon="5.40756">
        <ele>323.70037</ele>
        <time>2022-10-04T07:57:44.153Z</time>
      </trkpt>
      <trkpt lat="45.21186" lon="5.40741">
        <ele>323.883319</ele>
        <time>2022-10-04T07:57:46.149Z</time>
      </trkpt>
      <trkpt lat="45.21181" lon="5.40726">
        <ele>324.063926</ele>
        <time>2022-10-04T07:57:48.153Z</time>
      </trkpt>
      <trkpt lat="45.21177" lon="5.4071">
        <ele>324.255652</ele>
        <time>2022-10-04T07:57:50.150Z</time>
      </trkpt>
      <trkpt lat="45.21173" lon="5.40695">
        <ele>324.430695</ele>
        <time>2022-10-04T07:57:52.150Z</time>
      </trkpt>
      <trkpt lat="45.2117" lon="5.4068">
        <ele>324.646272</ele>
        <time>2022-10-04T07:57:54.151Z</time>
      </trkpt>
      <trkpt lat="45.21164" lon="5.40665">
        <ele>324.912454</ele>
        <time>2022-10-04T07:57:56.150Z</time>
      </trkpt>
      <trkpt lat="45.21159" lon="5.40651">
        <ele>325.156398</ele>
        <time>2022-10-04T07:57:58.153Z</time>
      </trkpt>
      <trkpt lat="45.21156" lon="5.40636">
        <ele>325.40887</ele>
        <time>2022-10-04T07:58:00.151Z</time>
      </trkpt>
      <trkpt lat="45.21151" lon="5.4062">
        <ele>325.679184</ele>
        <time>2022-10-04T07:58:02.155Z</time>
      </trkpt>
      <trkpt lat="45.21148" lon="5.40606">
        <ele>325.913931</ele>
        <time>2022-10-04T07:58:04.147Z</time>
      </trkpt>
      <trkpt lat="45.21144" lon="5.40592">
        <ele>326.151741</ele>
        <time>2022-10-04T07:58:06.153Z</time>
      </trkpt>
      <trkpt lat="45.2114" lon="5.40577">
        <ele>326.39995</ele>
        <time>2022-10-04T07:58:08.152Z</time>
      </trkpt>
      <trkpt lat="45.21136" lon="5.40562">
        <ele>326.650279</ele>
        <time>2022-10-04T07:58:10.149Z</time>
      </trkpt>
      <trkpt lat="45.21131" lon="5.40547">
        <ele>326.911438</ele>
        <time>2022-10-04T07:58:12.152Z</time>
      </trkpt>
      <trkpt lat="45.21128" lon="5.40533">
        <ele>327.151322</ele>
        <time>2022-10-04T07:58:14.150Z</time>
      </trkpt>
      <trkpt lat="45.21123" lon="5.40517">
        <ele>327.407651</ele>
        <time>2022-10-04T07:58:16.149Z</time>
      </trkpt>
      <trkpt lat="45.21119" lon="5.40503">
        <ele>327.645462</ele>
        <time>2022-10-04T07:58:18.150Z</time>
      </trkpt>
      <trkpt lat="45.21116" lon="5.40488">
        <ele>327.892758</ele>
        <time>2022-10-04T07:58:20.150Z</time>
      </trkpt>
      <trkpt lat="45.21111" lon="5.40474">
        <ele>328.142946</ele>
        <time>2022-10-04T07:58:22.152Z</time>
      </trkpt>
      <trkpt lat="45.21106" lon="5.40461">
        <ele>328.374414</ele>
        <time>2022-10-04T07:58:24.149Z</time>
      </trkpt>
      <trkpt lat="45.21102" lon="5.40448">
        <ele>328.497005</ele>
        <time>2022-10-04T07:58:26.149Z</time>
      </trkpt>
      <trkpt lat="45.21095" lon="5.40435">
        <ele>328.454576</ele>
        <time>2022-10-04T07:58:28.151Z</time>
      </trkpt>
      <trkpt lat="45.21089" lon="5.40423">
        <ele>328.413253</ele>
        <time>2022-10-04T07:58:30.150Z</time>
      </trkpt>
      <trkpt lat="45.21085" lon="5.40409">
        <ele>328.372994</ele>
        <time>2022-10-04T07:58:32.146Z</time>
      </trkpt>
      <trkpt lat="45.2108" lon="5.40397">
        <ele>328.334238</ele>
        <time>2022-10-04T07:58:34.153Z</time>
      </trkpt>
      <trkpt lat="45.21074" lon="5.40385">
        <ele>328.29704</ele>
        <time>2022-10-04T07:58:36.149Z</time>
      </trkpt>
      <trkpt lat="45.21066" lon="5.40373">
        <ele>328.252665</ele>
        <time>2022-10-04T07:58:38.151Z</time>
      </trkpt>
      <trkpt lat="45.2106" lon="5.40362">
        <ele>328.213874</ele>
        <time>2022-10-04T07:58:40.148Z</time>
      </trkpt>
      <trkpt lat="45.21053" lon="5.40351">
        <ele>328.173029</ele>
        <time>2022-10-04T07:58:42.149Z</time>
      </trkpt>
      <trkpt lat="45.21045" lon="5.40338">
        <ele>328.128335</ele>
        <time>2022-10-04T07:58:44.149Z</time>
      </trkpt>
      <trkpt lat="45.21037" lon="5.40324">
        <ele>328.082711</ele>
        <time>2022-10-04T07:58:46.148Z</time>
      </trkpt>
      <trkpt lat="45.21031" lon="5.40313">
        <ele>328.043309</ele>
        <time>2022-10-04T07:58:48.150Z</time>
      </trkpt>
      <trkpt lat="45.21024" lon="5.40301">
        <ele>328.001943</ele>
        <time>2022-10-04T07:58:51.149Z</time>
      </trkpt>
      <trkpt lat="45.21019" lon="5.40289">
        <ele>327.965433</ele>
        <time>2022-10-04T07:58:56.155Z</time>
      </trkpt>
      <trkpt lat="45.21014" lon="5.40278">
        <ele>327.930301</ele>
        <time>2022-10-04T07:59:10.148Z</time>
      </trkpt>
      <trkpt lat="45.20996" lon="5.40234">
        <ele>327.808031</ele>
        <time>2022-10-04T07:59:27.150Z</time>
      </trkpt>
      <trkpt lat="45.20992" lon="5.40222">
        <ele>327.788747</ele>
        <time>2022-10-04T07:59:29.147Z</time>
      </trkpt>
      <trkpt lat="45.20987" lon="5.40209">
        <ele>327.766519</ele>
        <time>2022-10-04T07:59:32.148Z</time>
      </trkpt>
      <trkpt lat="45.2099" lon="5.40194">
        <ele>327.743447</ele>
        <time>2022-10-04T07:59:37.155Z</time>
      </trkpt>
      <trkpt lat="45.20996" lon="5.40183">
        <ele>327.722162</ele>
        <time>2022-10-04T07:59:43.149Z</time>
      </trkpt>
      <trkpt lat="45.21005" lon="5.4017">
        <ele>327.695289</ele>
        <time>2022-10-04T07:59:47.149Z</time>
      </trkpt>
      <trkpt lat="45.21015" lon="5.40159">
        <ele>327.668364</ele>
        <time>2022-10-04T07:59:50.150Z</time>
      </trkpt>
      <trkpt lat="45.21026" lon="5.40148">
        <ele>327.64008</ele>
        <time>2022-10-04T07:59:53.151Z</time>
      </trkpt>
      <trkpt lat="45.21036" lon="5.40136">
        <ele>327.611571</ele>
        <time>2022-10-04T07:59:56.145Z</time>
      </trkpt>
      <trkpt lat="45.21043" lon="5.40128">
        <ele>327.591874</ele>
        <time>2022-10-04T07:59:58.150Z</time>
      </trkpt>
      <trkpt lat="45.21051" lon="5.4012">
        <ele>327.571477</ele>
        <time>2022-10-04T08:00:00.148Z</time>
      </trkpt>
      <trkpt lat="45.2106" lon="5.40113">
        <ele>327.550457</ele>
        <time>2022-10-04T08:00:02.150Z</time>
      </trkpt>
      <trkpt lat="45.21069" lon="5.40107">
        <ele>327.528015</ele>
        <time>2022-10-04T08:00:04.146Z</time>
      </trkpt>
      <trkpt lat="45.2108" lon="5.40103">
        <ele>327.503781</ele>
        <time>2022-10-04T08:00:06.143Z</time>
      </trkpt>
      <trkpt lat="45.21092" lon="5.40098">
        <ele>327.477625</ele>
        <time>2022-10-04T08:00:08.148Z</time>
      </trkpt>
      <trkpt lat="45.21104" lon="5.40097">
        <ele>327.453036</ele>
        <time>2022-10-04T08:00:10.147Z</time>
      </trkpt>
      <trkpt lat="45.21115" lon="5.40099">
        <ele>327.868768</ele>
        <time>2022-10-04T08:00:14.153Z</time>
      </trkpt>
      <trkpt lat="45.21127" lon="5.40094">
        <ele>328.503946</ele>
        <time>2022-10-04T08:00:18.147Z</time>
      </trkpt>
      <trkpt lat="45.21136" lon="5.40091">
        <ele>328.990881</ele>
        <time>2022-10-04T08:00:21.148Z</time>
      </trkpt>
      <trkpt lat="45.21144" lon="5.40085">
        <ele>329.50564</ele>
        <time>2022-10-04T08:00:24.155Z</time>
      </trkpt>
      <trkpt lat="45.21153" lon="5.4008">
        <ele>329.995725</ele>
        <time>2022-10-04T08:00:27.152Z</time>
      </trkpt>
      <trkpt lat="45.21163" lon="5.40074">
        <ele>330.581005</ele>
        <time>2022-10-04T08:00:30.150Z</time>
      </trkpt>
      <trkpt lat="45.21172" lon="5.40068">
        <ele>331.114862</ele>
        <time>2022-10-04T08:00:33.155Z</time>
      </trkpt>
      <trkpt lat="45.21182" lon="5.40063">
        <ele>331.697196</ele>
        <time>2022-10-04T08:00:36.148Z</time>
      </trkpt>
      <trkpt lat="45.21193" lon="5.40059">
        <ele>332.314821</ele>
        <time>2022-10-04T08:00:39.150Z</time>
      </trkpt>
      <trkpt lat="45.21204" lon="5.40055">
        <ele>332.925353</ele>
        <time>2022-10-04T08:00:42.151Z</time>
      </trkpt>
      <trkpt lat="45.21216" lon="5.40052">
        <ele>333.601624</ele>
        <time>2022-10-04T08:00:45.150Z</time>
      </trkpt>
      <trkpt lat="45.21225" lon="5.40049">
        <ele>334.088754</ele>
        <time>2022-10-04T08:00:47.147Z</time>
      </trkpt>
      <trkpt lat="45.21237" lon="5.40047">
        <ele>334.751986</ele>
        <time>2022-10-04T08:00:50.150Z</time>
      </trkpt>
      <trkpt lat="45.2125" lon="5.40044">
        <ele>335.415749</ele>
        <time>2022-10-04T08:00:53.150Z</time>
      </trkpt>
      <trkpt lat="45.21261" lon="5.40042">
        <ele>336.056137</ele>
        <time>2022-10-04T08:00:56.152Z</time>
      </trkpt>
      <trkpt lat="45.2127" lon="5.40041">
        <ele>336.549904</ele>
        <time>2022-10-04T08:00:58.149Z</time>
      </trkpt>
      <trkpt lat="45.21284" lon="5.40037">
        <ele>337.268035</ele>
        <time>2022-10-04T08:01:01.150Z</time>
      </trkpt>
      <trkpt lat="45.21296" lon="5.40034">
        <ele>337.91693</ele>
        <time>2022-10-04T08:01:04.151Z</time>
      </trkpt>
      <trkpt lat="45.2131" lon="5.40032">
        <ele>338.592041</ele>
        <time>2022-10-04T08:01:07.149Z</time>
      </trkpt>
      <trkpt lat="45.21321" lon="5.40032">
        <ele>339.156062</ele>
        <time>2022-10-04T08:01:10.147Z</time>
      </trkpt>
      <trkpt lat="45.21333" lon="5.40033">
        <ele>339.751309</ele>
        <time>2022-10-04T08:01:13.149Z</time>
      </trkpt>
      <trkpt lat="45.21342" lon="5.40034">
        <ele>340.213042</ele>
        <time>2022-10-04T08:01:15.152Z</time>
      </trkpt>
      <trkpt lat="45.21351" lon="5.40035">
        <ele>340.688289</ele>
        <time>2022-10-04T08:01:17.149Z</time>
      </trkpt>
      <trkpt lat="45.2136" lon="5.40038">
        <ele>341.159968</ele>
        <time>2022-10-04T08:01:19.151Z</time>
      </trkpt>
      <trkpt lat="45.21369" lon="5.4004">
        <ele>341.612589</ele>
        <time>2022-10-04T08:01:21.152Z</time>
      </trkpt>
      <trkpt lat="45.21382" lon="5.40044">
        <ele>342.284487</ele>
        <time>2022-10-04T08:01:24.151Z</time>
      </trkpt>
      <trkpt lat="45.21394" lon="5.40051">
        <ele>342.938497</ele>
        <time>2022-10-04T08:01:27.147Z</time>
      </trkpt>
      <trkpt lat="45.21407" lon="5.40055">
        <ele>343.589641</ele>
        <time>2022-10-04T08:01:30.153Z</time>
      </trkpt>
      <trkpt lat="45.21419" lon="5.4006">
        <ele>344.219394</ele>
        <time>2022-10-04T08:01:33.150Z</time>
      </trkpt>
      <trkpt lat="45.21429" lon="5.40069">
        <ele>344.803533</ele>
        <time>2022-10-04T08:01:36.149Z</time>
      </trkpt>
      <trkpt lat="45.21437" lon="5.40074">
        <ele>345.260362</ele>
        <time>2022-10-04T08:01:38.151Z</time>
      </trkpt>
      <trkpt lat="45.21447" lon="5.40082">
        <ele>345.804326</ele>
        <time>2022-10-04T08:01:41.149Z</time>
      </trkpt>
      <trkpt lat="45.21456" lon="5.40091">
        <ele>346.330893</ele>
        <time>2022-10-04T08:01:44.150Z</time>
      </trkpt>
      <trkpt lat="45.21466" lon="5.40102">
        <ele>346.795604</ele>
        <time>2022-10-04T08:01:47.150Z</time>
      </trkpt>
      <trkpt lat="45.21473" lon="5.40115">
        <ele>347.241452</ele>
        <time>2022-10-04T08:01:50.150Z</time>
      </trkpt>
      <trkpt lat="45.21482" lon="5.40128">
        <ele>347.712308</ele>
        <time>2022-10-04T08:01:53.150Z</time>
      </trkpt>
      <trkpt lat="45.21491" lon="5.40142">
        <ele>348.199583</ele>
        <time>2022-10-04T08:01:56.148Z</time>
      </trkpt>
      <trkpt lat="45.21499" lon="5.40156">
        <ele>348.65994</ele>
        <time>2022-10-04T08:01:59.149Z</time>
      </trkpt>
      <trkpt lat="45.21507" lon="5.40169">
        <ele>349.12145</ele>
        <time>2022-10-04T08:02:02.153Z</time>
      </trkpt>
      <trkpt lat="45.21514" lon="5.40183">
        <ele>349.57211</ele>
        <time>2022-10-04T08:02:05.142Z</time>
      </trkpt>
      <trkpt lat="45.2152" lon="5.40198">
        <ele>350.026372</ele>
        <time>2022-10-04T08:02:08.148Z</time>
      </trkpt>
      <trkpt lat="45.21526" lon="5.40213">
        <ele>350.480634</ele>
        <time>2022-10-04T08:02:11.149Z</time>
      </trkpt>
      <trkpt lat="45.21533" lon="5.40227">
        <ele>350.94846</ele>
        <time>2022-10-04T08:02:14.151Z</time>
      </trkpt>
      <trkpt lat="45.21542" lon="5.40239">
        <ele>351.395167</ele>
        <time>2022-10-04T08:02:17.150Z</time>
      </trkpt>
      <trkpt lat="45.21552" lon="5.40248">
        <ele>351.843662</ele>
        <time>2022-10-04T08:02:20.149Z</time>
      </trkpt>
      <trkpt lat="45.21563" lon="5.40255">
        <ele>352.292858</ele>
        <time>2022-10-04T08:02:23.148Z</time>
      </trkpt>
      <trkpt lat="45.21574" lon="5.40263">
        <ele>352.754383</ele>
        <time>2022-10-04T08:02:26.151Z</time>
      </trkpt>
      <trkpt lat="45.21586" lon="5.4027">
        <ele>353.069353</ele>
        <time>2022-10-04T08:02:29.148Z</time>
      </trkpt>
      <trkpt lat="45.21595" lon="5.40276">
        <ele>353.261264</ele>
        <time>2022-10-04T08:02:31.148Z</time>
      </trkpt>
      <trkpt lat="45.21604" lon="5.40285">
        <ele>353.476913</ele>
        <time>2022-10-04T08:02:33.152Z</time>
      </trkpt>
      <trkpt lat="45.21614" lon="5.40293">
        <ele>353.691507</ele>
        <time>2022-10-04T08:02:35.148Z</time>
      </trkpt>
      <trkpt lat="45.21624" lon="5.403">
        <ele>353.90904</ele>
        <time>2022-10-04T08:02:37.151Z</time>
      </trkpt>
      <trkpt lat="45.21633" lon="5.40308">
        <ele>354.11963</ele>
        <time>2022-10-04T08:02:39.152Z</time>
      </trkpt>
      <trkpt lat="45.21644" lon="5.40316">
        <ele>354.348901</ele>
        <time>2022-10-04T08:02:41.149Z</time>
      </trkpt>
      <trkpt lat="45.21654" lon="5.40325">
        <ele>354.580523</ele>
        <time>2022-10-04T08:02:43.148Z</time>
      </trkpt>
      <trkpt lat="45.21664" lon="5.40333">
        <ele>354.800084</ele>
        <time>2022-10-04T08:02:45.156Z</time>
      </trkpt>
      <trkpt lat="45.21674" lon="5.4034">
        <ele>355.014686</ele>
        <time>2022-10-04T08:02:47.151Z</time>
      </trkpt>
      <trkpt lat="45.21685" lon="5.40345">
        <ele>355.242736</ele>
        <time>2022-10-04T08:02:49.149Z</time>
      </trkpt>
      <trkpt lat="45.21695" lon="5.40352">
        <ele>355.459769</ele>
        <time>2022-10-04T08:02:51.151Z</time>
      </trkpt>
      <trkpt lat="45.21706" lon="5.40359">
        <ele>355.695419</ele>
        <time>2022-10-04T08:02:53.151Z</time>
      </trkpt>
      <trkpt lat="45.21718" lon="5.40367">
        <ele>355.940543</ele>
        <time>2022-10-04T08:02:55.151Z</time>
      </trkpt>
      <trkpt lat="45.21726" lon="5.40378">
        <ele>356.163061</ele>
        <time>2022-10-04T08:02:57.150Z</time>
      </trkpt>
      <trkpt lat="45.21736" lon="5.4039">
        <ele>356.384547</ele>
        <time>2022-10-04T08:02:59.153Z</time>
      </trkpt>
      <trkpt lat="45.21746" lon="5.40401">
        <ele>356.513781</ele>
        <time>2022-10-04T08:03:01.148Z</time>
      </trkpt>
      <trkpt lat="45.21756" lon="5.40412">
        <ele>356.640991</ele>
        <time>2022-10-04T08:03:03.151Z</time>
      </trkpt>
      <trkpt lat="45.21767" lon="5.40421">
        <ele>356.769191</ele>
        <time>2022-10-04T08:03:05.149Z</time>
      </trkpt>
      <trkpt lat="45.2178" lon="5.40428">
        <ele>356.904952</ele>
        <time>2022-10-04T08:03:07.150Z</time>
      </trkpt>
      <trkpt lat="45.21792" lon="5.40434">
        <ele>357.034194</ele>
        <time>2022-10-04T08:03:09.151Z</time>
      </trkpt>
      <trkpt lat="45.21805" lon="5.40439">
        <ele>357.172149</ele>
        <time>2022-10-04T08:03:11.146Z</time>
      </trkpt>
      <trkpt lat="45.21818" lon="5.40446">
        <ele>357.309229</ele>
        <time>2022-10-04T08:03:13.162Z</time>
      </trkpt>
      <trkpt lat="45.2183" lon="5.40452">
        <ele>357.441403</ele>
        <time>2022-10-04T08:03:15.151Z</time>
      </trkpt>
      <trkpt lat="45.21842" lon="5.40456">
        <ele>357.564427</ele>
        <time>2022-10-04T08:03:17.144Z</time>
      </trkpt>
      <trkpt lat="45.21856" lon="5.4046">
        <ele>357.709559</ele>
        <time>2022-10-04T08:03:19.152Z</time>
      </trkpt>
      <trkpt lat="45.21871" lon="5.40463">
        <ele>357.858849</ele>
        <time>2022-10-04T08:03:21.148Z</time>
      </trkpt>
      <trkpt lat="45.21883" lon="5.40463">
        <ele>357.982886</ele>
        <time>2022-10-04T08:03:23.149Z</time>
      </trkpt>
      <trkpt lat="45.21896" lon="5.40465">
        <ele>358.12017</ele>
        <time>2022-10-04T08:03:25.149Z</time>
      </trkpt>
      <trkpt lat="45.2191" lon="5.40466">
        <ele>358.052483</ele>
        <time>2022-10-04T08:03:27.151Z</time>
      </trkpt>
      <trkpt lat="45.21924" lon="5.40469">
        <ele>357.833954</ele>
        <time>2022-10-04T08:03:29.149Z</time>
      </trkpt>
      <trkpt lat="45.21937" lon="5.40469">
        <ele>357.622129</ele>
        <time>2022-10-04T08:03:31.149Z</time>
      </trkpt>
      <trkpt lat="45.21949" lon="5.4047">
        <ele>357.441022</ele>
        <time>2022-10-04T08:03:33.151Z</time>
      </trkpt>
      <trkpt lat="45.21962" lon="5.40471">
        <ele>357.246074</ele>
        <time>2022-10-04T08:03:35.151Z</time>
      </trkpt>
      <trkpt lat="45.21976" lon="5.40472">
        <ele>357.027916</ele>
        <time>2022-10-04T08:03:37.149Z</time>
      </trkpt>
      <trkpt lat="45.2199" lon="5.40472">
        <ele>356.814604</ele>
        <time>2022-10-04T08:03:39.150Z</time>
      </trkpt>
      <trkpt lat="45.22003" lon="5.40471">
        <ele>356.605801</ele>
        <time>2022-10-04T08:03:41.150Z</time>
      </trkpt>
      <trkpt lat="45.22015" lon="5.4047">
        <ele>356.419936</ele>
        <time>2022-10-04T08:03:43.150Z</time>
      </trkpt>
      <trkpt lat="45.22028" lon="5.40469">
        <ele>356.218761</ele>
        <time>2022-10-04T08:03:45.149Z</time>
      </trkpt>
      <trkpt lat="45.22041" lon="5.40468">
        <ele>356.026655</ele>
        <time>2022-10-04T08:03:47.149Z</time>
      </trkpt>
      <trkpt lat="45.22053" lon="5.40466">
        <ele>355.836832</ele>
        <time>2022-10-04T08:03:49.148Z</time>
      </trkpt>
      <trkpt lat="45.22067" lon="5.40464">
        <ele>355.621445</ele>
        <time>2022-10-04T08:03:51.138Z</time>
      </trkpt>
      <trkpt lat="45.22081" lon="5.40464">
        <ele>355.401951</ele>
        <time>2022-10-04T08:03:53.151Z</time>
      </trkpt>
      <trkpt lat="45.22093" lon="5.40462">
        <ele>355.397538</ele>
        <time>2022-10-04T08:03:55.149Z</time>
      </trkpt>
      <trkpt lat="45.22105" lon="5.40461">
        <ele>355.400881</ele>
        <time>2022-10-04T08:03:57.150Z</time>
      </trkpt>
      <trkpt lat="45.22117" lon="5.40459">
        <ele>355.403943</ele>
        <time>2022-10-04T08:03:59.147Z</time>
      </trkpt>
      <trkpt lat="45.22128" lon="5.40457">
        <ele>355.406755</ele>
        <time>2022-10-04T08:04:01.155Z</time>
      </trkpt>
      <trkpt lat="45.22139" lon="5.40457">
        <ele>355.4097</ele>
        <time>2022-10-04T08:04:03.149Z</time>
      </trkpt>
      <trkpt lat="45.22151" lon="5.40455">
        <ele>355.4127</ele>
        <time>2022-10-04T08:04:05.150Z</time>
      </trkpt>
      <trkpt lat="45.22163" lon="5.40455">
        <ele>355.415882</ele>
        <time>2022-10-04T08:04:07.147Z</time>
      </trkpt>
      <trkpt lat="45.22177" lon="5.40453">
        <ele>355.419593</ele>
        <time>2022-10-04T08:04:09.148Z</time>
      </trkpt>
      <trkpt lat="45.2219" lon="5.40453">
        <ele>355.422905</ele>
        <time>2022-10-04T08:04:11.145Z</time>
      </trkpt>
      <trkpt lat="45.22204" lon="5.40451">
        <ele>355.426591</ele>
        <time>2022-10-04T08:04:13.150Z</time>
      </trkpt>
      <trkpt lat="45.22215" lon="5.4045">
        <ele>355.429629</ele>
        <time>2022-10-04T08:04:15.142Z</time>
      </trkpt>
      <trkpt lat="45.22228" lon="5.40448">
        <ele>355.432907</ele>
        <time>2022-10-04T08:04:17.148Z</time>
      </trkpt>
      <trkpt lat="45.22357" lon="5.40412">
        <ele>357.813272</ele>
        <time>2022-10-04T08:04:37.144Z</time>
      </trkpt>
      <trkpt lat="45.22369" lon="5.40406">
        <ele>358.114333</ele>
        <time>2022-10-04T08:04:39.147Z</time>
      </trkpt>
      <trkpt lat="45.22382" lon="5.404">
        <ele>358.433548</ele>
        <time>2022-10-04T08:04:41.153Z</time>
      </trkpt>
      <trkpt lat="45.22393" lon="5.40395">
        <ele>358.707523</ele>
        <time>2022-10-04T08:04:43.151Z</time>
      </trkpt>
      <trkpt lat="45.22404" lon="5.40389">
        <ele>358.99679</ele>
        <time>2022-10-04T08:04:45.151Z</time>
      </trkpt>
      <trkpt lat="45.22415" lon="5.40384">
        <ele>359.268082</ele>
        <time>2022-10-04T08:04:47.153Z</time>
      </trkpt>
      <trkpt lat="45.22425" lon="5.4038">
        <ele>359.527777</ele>
        <time>2022-10-04T08:04:49.150Z</time>
      </trkpt>
      <trkpt lat="45.22437" lon="5.40376">
        <ele>359.818881</ele>
        <time>2022-10-04T08:04:51.152Z</time>
      </trkpt>
      <trkpt lat="45.22451" lon="5.40372">
        <ele>360.153351</ele>
        <time>2022-10-04T08:04:53.153Z</time>
      </trkpt>
      <trkpt lat="45.22463" lon="5.40369">
        <ele>360.452455</ele>
        <time>2022-10-04T08:04:55.174Z</time>
      </trkpt>
      <trkpt lat="45.22476" lon="5.40366">
        <ele>360.781508</ele>
        <time>2022-10-04T08:04:57.153Z</time>
      </trkpt>
      <trkpt lat="45.22488" lon="5.40363">
        <ele>361.087504</ele>
        <time>2022-10-04T08:04:59.153Z</time>
      </trkpt>
      <trkpt lat="45.225" lon="5.40358">
        <ele>361.375807</ele>
        <time>2022-10-04T08:05:01.157Z</time>
      </trkpt>
      <trkpt lat="45.22512" lon="5.40352">
        <ele>361.681874</ele>
        <time>2022-10-04T08:05:03.152Z</time>
      </trkpt>
      <trkpt lat="45.22522" lon="5.40344">
        <ele>361.979003</ele>
        <time>2022-10-04T08:05:05.151Z</time>
      </trkpt>
      <trkpt lat="45.22532" lon="5.40335">
        <ele>362.259802</ele>
        <time>2022-10-04T08:05:07.152Z</time>
      </trkpt>
      <trkpt lat="45.22542" lon="5.40325">
        <ele>362.560472</ele>
        <time>2022-10-04T08:05:09.152Z</time>
      </trkpt>
      <trkpt lat="45.22553" lon="5.40316">
        <ele>362.858555</ele>
        <time>2022-10-04T08:05:11.156Z</time>
      </trkpt>
      <trkpt lat="45.22563" lon="5.40307">
        <ele>363.155163</ele>
        <time>2022-10-04T08:05:13.151Z</time>
      </trkpt>
      <trkpt lat="45.22573" lon="5.403">
        <ele>363.435677</ele>
        <time>2022-10-04T08:05:15.154Z</time>
      </trkpt>
      <trkpt lat="45.22583" lon="5.40292">
        <ele>363.708565</ele>
        <time>2022-10-04T08:05:17.149Z</time>
      </trkpt>
      <trkpt lat="45.22592" lon="5.40283">
        <ele>363.97938</ele>
        <time>2022-10-04T08:05:19.154Z</time>
      </trkpt>
      <trkpt lat="45.22602" lon="5.40275">
        <ele>364.103716</ele>
        <time>2022-10-04T08:05:21.148Z</time>
      </trkpt>
      <trkpt lat="45.22613" lon="5.40267">
        <ele>364.068545</ele>
        <time>2022-10-04T08:05:23.152Z</time>
      </trkpt>
      <trkpt lat="45.22622" lon="5.40259">
        <ele>364.035989</ele>
        <time>2022-10-04T08:05:25.151Z</time>
      </trkpt>
      <trkpt lat="45.22632" lon="5.40251">
        <ele>364.00301</ele>
        <time>2022-10-04T08:05:27.149Z</time>
      </trkpt>
      <trkpt lat="45.22642" lon="5.40244">
        <ele>363.970839</ele>
        <time>2022-10-04T08:05:29.153Z</time>
      </trkpt>
      <trkpt lat="45.22651" lon="5.40238">
        <ele>363.940107</ele>
        <time>2022-10-04T08:05:31.146Z</time>
      </trkpt>
      <trkpt lat="45.22661" lon="5.40231">
        <ele>363.907574</ele>
        <time>2022-10-04T08:05:33.146Z</time>
      </trkpt>
      <trkpt lat="45.22671" lon="5.40226">
        <ele>363.876183</ele>
        <time>2022-10-04T08:05:35.150Z</time>
      </trkpt>
      <trkpt lat="45.2268" lon="5.40221">
        <ele>363.846855</ele>
        <time>2022-10-04T08:05:37.151Z</time>
      </trkpt>
      <trkpt lat="45.2269" lon="5.40215">
        <ele>363.815348</ele>
        <time>2022-10-04T08:05:39.148Z</time>
      </trkpt>
      <trkpt lat="45.227" lon="5.40209">
        <ele>363.784856</ele>
        <time>2022-10-04T08:05:41.149Z</time>
      </trkpt>
      <trkpt lat="45.2271" lon="5.40203">
        <ele>363.75252</ele>
        <time>2022-10-04T08:05:43.154Z</time>
      </trkpt>
      <trkpt lat="45.22719" lon="5.40199">
        <ele>363.724073</ele>
        <time>2022-10-04T08:05:45.152Z</time>
      </trkpt>
      <trkpt lat="45.22728" lon="5.40194">
        <ele>363.69426</ele>
        <time>2022-10-04T08:05:47.149Z</time>
      </trkpt>
      <trkpt lat="45.22735" lon="5.40184">
        <ele>363.6652</ele>
        <time>2022-10-04T08:05:49.156Z</time>
      </trkpt>
      <trkpt lat="45.22742" lon="5.40173">
        <ele>363.635141</ele>
        <time>2022-10-04T08:05:51.149Z</time>
      </trkpt>
      <trkpt lat="45.22748" lon="5.40161">
        <ele>363.603464</ele>
        <time>2022-10-04T08:05:53.152Z</time>
      </trkpt>
      <trkpt lat="45.22754" lon="5.40147">
        <ele>363.756289</ele>
        <time>2022-10-04T08:05:55.155Z</time>
      </trkpt>
      <trkpt lat="45.22759" lon="5.40133">
        <ele>364.042965</ele>
        <time>2022-10-04T08:05:57.150Z</time>
      </trkpt>
      <trkpt lat="45.22764" lon="5.40118">
        <ele>364.346285</ele>
        <time>2022-10-04T08:05:59.149Z</time>
      </trkpt>
      <trkpt lat="45.2277" lon="5.40103">
        <ele>364.650244</ele>
        <time>2022-10-04T08:06:01.149Z</time>
      </trkpt>
      <trkpt lat="45.22775" lon="5.40087">
        <ele>364.962845</ele>
        <time>2022-10-04T08:06:03.150Z</time>
      </trkpt>
      <trkpt lat="45.2278" lon="5.40073">
        <ele>365.250393</ele>
        <time>2022-10-04T08:06:05.151Z</time>
      </trkpt>
      <trkpt lat="45.22785" lon="5.40059">
        <ele>365.551506</ele>
        <time>2022-10-04T08:06:07.152Z</time>
      </trkpt>
      <trkpt lat="45.2279" lon="5.40045">
        <ele>365.829148</ele>
        <time>2022-10-04T08:06:09.149Z</time>
      </trkpt>
      <trkpt lat="45.22795" lon="5.40031">
        <ele>366.103532</ele>
        <time>2022-10-04T08:06:11.153Z</time>
      </trkpt>
      <trkpt lat="45.22801" lon="5.40018">
        <ele>366.389762</ele>
        <time>2022-10-04T08:06:13.146Z</time>
      </trkpt>
      <trkpt lat="45.22807" lon="5.40006">
        <ele>366.660955</ele>
        <time>2022-10-04T08:06:15.146Z</time>
      </trkpt>
      <trkpt lat="45.22812" lon="5.39993">
        <ele>366.931635</ele>
        <time>2022-10-04T08:06:17.146Z</time>
      </trkpt>
      <trkpt lat="45.22817" lon="5.3998">
        <ele>367.203213</ele>
        <time>2022-10-04T08:06:19.148Z</time>
      </trkpt>
      <trkpt lat="45.22823" lon="5.39966">
        <ele>367.490407</ele>
        <time>2022-10-04T08:06:21.151Z</time>
      </trkpt>
      <trkpt lat="45.22829" lon="5.39952">
        <ele>367.787236</ele>
        <time>2022-10-04T08:06:23.152Z</time>
      </trkpt>
      <trkpt lat="45.22834" lon="5.39937">
        <ele>368.08195</ele>
        <time>2022-10-04T08:06:25.152Z</time>
      </trkpt>
      <trkpt lat="45.22839" lon="5.39923">
        <ele>368.318474</ele>
        <time>2022-10-04T08:06:27.152Z</time>
      </trkpt>
      <trkpt lat="45.22843" lon="5.39909">
        <ele>368.51963</ele>
        <time>2022-10-04T08:06:29.150Z</time>
      </trkpt>
      <trkpt lat="45.22848" lon="5.39895">
        <ele>368.720765</ele>
        <time>2022-10-04T08:06:31.149Z</time>
      </trkpt>
      <trkpt lat="45.22851" lon="5.39881">
        <ele>368.911092</ele>
        <time>2022-10-04T08:06:33.150Z</time>
      </trkpt>
      <trkpt lat="45.22856" lon="5.39866">
        <ele>369.115995</ele>
        <time>2022-10-04T08:06:35.153Z</time>
      </trkpt>
      <trkpt lat="45.22861" lon="5.39852">
        <ele>369.316288</ele>
        <time>2022-10-04T08:06:37.151Z</time>
      </trkpt>
      <trkpt lat="45.22865" lon="5.39837">
        <ele>369.518398</ele>
        <time>2022-10-04T08:06:39.150Z</time>
      </trkpt>
      <trkpt lat="45.22869" lon="5.39823">
        <ele>369.716801</ele>
        <time>2022-10-04T08:06:41.153Z</time>
      </trkpt>
      <trkpt lat="45.22874" lon="5.39809">
        <ele>369.910296</ele>
        <time>2022-10-04T08:06:43.149Z</time>
      </trkpt>
      <trkpt lat="45.22878" lon="5.39795">
        <ele>370.110741</ele>
        <time>2022-10-04T08:06:45.156Z</time>
      </trkpt>
      <trkpt lat="45.22882" lon="5.3978">
        <ele>370.30542</ele>
        <time>2022-10-04T08:06:47.151Z</time>
      </trkpt>
      <trkpt lat="45.22885" lon="5.39766">
        <ele>370.497698</ele>
        <time>2022-10-04T08:06:49.149Z</time>
      </trkpt>
      <trkpt lat="45.22889" lon="5.39751">
        <ele>370.696603</ele>
        <time>2022-10-04T08:06:51.152Z</time>
      </trkpt>
      <trkpt lat="45.22891" lon="5.39736">
        <ele>370.89203</ele>
        <time>2022-10-04T08:06:53.150Z</time>
      </trkpt>
      <trkpt lat="45.22894" lon="5.39721">
        <ele>371.097133</ele>
        <time>2022-10-04T08:06:55.150Z</time>
      </trkpt>
      <trkpt lat="45.22897" lon="5.39705">
        <ele>371.306834</ele>
        <time>2022-10-04T08:06:57.152Z</time>
      </trkpt>
      <trkpt lat="45.22899" lon="5.3969">
        <ele>371.496287</ele>
        <time>2022-10-04T08:06:59.150Z</time>
      </trkpt>
      <trkpt lat="45.22904" lon="5.39676">
        <ele>371.695239</ele>
        <time>2022-10-04T08:07:01.148Z</time>
      </trkpt>
      <trkpt lat="45.22908" lon="5.3966">
        <ele>371.896741</ele>
        <time>2022-10-04T08:07:03.151Z</time>
      </trkpt>
      <trkpt lat="45.22913" lon="5.39646">
        <ele>372.104077</ele>
        <time>2022-10-04T08:07:05.150Z</time>
      </trkpt>
      <trkpt lat="45.22918" lon="5.39633">
        <ele>372.286744</ele>
        <time>2022-10-04T08:07:07.151Z</time>
      </trkpt>
      <trkpt lat="45.22923" lon="5.39619">
        <ele>372.481898</ele>
        <time>2022-10-04T08:07:09.151Z</time>
      </trkpt>
      <trkpt lat="45.22928" lon="5.39603">
        <ele>372.697157</ele>
        <time>2022-10-04T08:07:11.152Z</time>
      </trkpt>
      <trkpt lat="45.22933" lon="5.39589">
        <ele>372.892709</ele>
        <time>2022-10-04T08:07:13.156Z</time>
      </trkpt>
      <trkpt lat="45.22938" lon="5.39574">
        <ele>373.098777</ele>
        <time>2022-10-04T08:07:15.149Z</time>
      </trkpt>
      <trkpt lat="45.22942" lon="5.39559">
        <ele>373.303316</ele>
        <time>2022-10-04T08:07:17.149Z</time>
      </trkpt>
      <trkpt lat="45.22947" lon="5.39542">
        <ele>373.534621</ele>
        <time>2022-10-04T08:07:19.149Z</time>
      </trkpt>
      <trkpt lat="45.22952" lon="5.39527">
        <ele>373.740975</ele>
        <time>2022-10-04T08:07:21.152Z</time>
      </trkpt>
      <trkpt lat="45.22957" lon="5.39512">
        <ele>373.943928</ele>
        <time>2022-10-04T08:07:23.149Z</time>
      </trkpt>
      <trkpt lat="45.22961" lon="5.39498">
        <ele>374.135612</ele>
        <time>2022-10-04T08:07:25.153Z</time>
      </trkpt>
      <trkpt lat="45.22965" lon="5.39485">
        <ele>374.317896</ele>
        <time>2022-10-04T08:07:27.151Z</time>
      </trkpt>
      <trkpt lat="45.2297" lon="5.39471">
        <ele>374.512306</ele>
        <time>2022-10-04T08:07:29.151Z</time>
      </trkpt>
      <trkpt lat="45.22975" lon="5.39456">
        <ele>374.859879</ele>
        <time>2022-10-04T08:07:31.146Z</time>
      </trkpt>
      <trkpt lat="45.22981" lon="5.39443">
        <ele>375.511567</ele>
        <time>2022-10-04T08:07:33.145Z</time>
      </trkpt>
      <trkpt lat="45.22988" lon="5.39432">
        <ele>376.12607</ele>
        <time>2022-10-04T08:07:35.151Z</time>
      </trkpt>
      <trkpt lat="45.22995" lon="5.39424">
        <ele>376.672667</ele>
        <time>2022-10-04T08:07:37.153Z</time>
      </trkpt>
      <trkpt lat="45.23006" lon="5.39414">
        <ele>377.449369</ele>
        <time>2022-10-04T08:07:40.150Z</time>
      </trkpt>
      <trkpt lat="45.23019" lon="5.39406">
        <ele>378.251358</ele>
        <time>2022-10-04T08:07:43.150Z</time>
      </trkpt>
      <trkpt lat="45.2303" lon="5.39398">
        <ele>379.021285</ele>
        <time>2022-10-04T08:07:46.148Z</time>
      </trkpt>
      <trkpt lat="45.23042" lon="5.3939">
        <ele>379.823087</ele>
        <time>2022-10-04T08:07:49.147Z</time>
      </trkpt>
      <trkpt lat="45.23054" lon="5.39383">
        <ele>380.600309</ele>
        <time>2022-10-04T08:07:52.147Z</time>
      </trkpt>
      <trkpt lat="45.23066" lon="5.39375">
        <ele>381.384165</ele>
        <time>2022-10-04T08:07:55.149Z</time>
      </trkpt>
      <trkpt lat="45.23078" lon="5.39368">
        <ele>382.153372</ele>
        <time>2022-10-04T08:07:58.156Z</time>
      </trkpt>
      <trkpt lat="45.2309" lon="5.39359">
        <ele>382.93966</ele>
        <time>2022-10-04T08:08:01.148Z</time>
      </trkpt>
      <trkpt lat="45.23099" lon="5.39353">
        <ele>383.517253</ele>
        <time>2022-10-04T08:08:03.152Z</time>
      </trkpt>
      <trkpt lat="45.23107" lon="5.39347">
        <ele>384.064536</ele>
        <time>2022-10-04T08:08:05.151Z</time>
      </trkpt>
      <trkpt lat="45.23115" lon="5.3934">
        <ele>384.644389</ele>
        <time>2022-10-04T08:08:07.156Z</time>
      </trkpt>
      <trkpt lat="45.23124" lon="5.39333">
        <ele>385.254718</ele>
        <time>2022-10-04T08:08:09.149Z</time>
      </trkpt>
      <trkpt lat="45.23134" lon="5.39325">
        <ele>385.40885</ele>
        <time>2022-10-04T08:08:11.150Z</time>
      </trkpt>
      <trkpt lat="45.23142" lon="5.39315">
        <ele>385.468735</ele>
        <time>2022-10-04T08:08:13.147Z</time>
      </trkpt>
      <trkpt lat="45.23152" lon="5.39306">
        <ele>385.531703</ele>
        <time>2022-10-04T08:08:15.149Z</time>
      </trkpt>
      <trkpt lat="45.23161" lon="5.39296">
        <ele>385.595778</ele>
        <time>2022-10-04T08:08:17.154Z</time>
      </trkpt>
      <trkpt lat="45.2317" lon="5.39288">
        <ele>385.653473</ele>
        <time>2022-10-04T08:08:19.150Z</time>
      </trkpt>
      <trkpt lat="45.23184" lon="5.39281">
        <ele>385.730509</ele>
        <time>2022-10-04T08:08:21.152Z</time>
      </trkpt>
      <trkpt lat="45.23196" lon="5.39273">
        <ele>385.802617</ele>
        <time>2022-10-04T08:08:23.153Z</time>
      </trkpt>
      <trkpt lat="45.23208" lon="5.39266">
        <ele>385.877348</ele>
        <time>2022-10-04T08:08:25.150Z</time>
      </trkpt>
      <trkpt lat="45.2322" lon="5.39259">
        <ele>385.945044</ele>
        <time>2022-10-04T08:08:27.152Z</time>
      </trkpt>
      <trkpt lat="45.23232" lon="5.39252">
        <ele>386.013507</ele>
        <time>2022-10-04T08:08:29.159Z</time>
      </trkpt>
      <trkpt lat="45.23243" lon="5.39245">
        <ele>386.083122</ele>
        <time>2022-10-04T08:08:31.148Z</time>
      </trkpt>
      <trkpt lat="45.23257" lon="5.39238">
        <ele>386.15924</ele>
        <time>2022-10-04T08:08:33.154Z</time>
      </trkpt>
      <trkpt lat="45.23269" lon="5.39232">
        <ele>386.23102</ele>
        <time>2022-10-04T08:08:35.149Z</time>
      </trkpt>
      <trkpt lat="45.23281" lon="5.39225">
        <ele>386.302577</ele>
        <time>2022-10-04T08:08:37.147Z</time>
      </trkpt>
      <trkpt lat="45.23293" lon="5.39219">
        <ele>386.297244</ele>
        <time>2022-10-04T08:08:39.151Z</time>
      </trkpt>
      <trkpt lat="45.23305" lon="5.39213">
        <ele>386.217499</ele>
        <time>2022-10-04T08:08:41.150Z</time>
      </trkpt>
      <trkpt lat="45.23316" lon="5.39208">
        <ele>386.143314</ele>
        <time>2022-10-04T08:08:43.148Z</time>
      </trkpt>
      <trkpt lat="45.23328" lon="5.39204">
        <ele>386.066067</ele>
        <time>2022-10-04T08:08:45.150Z</time>
      </trkpt>
      <trkpt lat="45.2334" lon="5.39202">
        <ele>385.994295</ele>
        <time>2022-10-04T08:08:47.151Z</time>
      </trkpt>
      <trkpt lat="45.23352" lon="5.39201">
        <ele>385.919616</ele>
        <time>2022-10-04T08:08:49.150Z</time>
      </trkpt>
      <trkpt lat="45.23365" lon="5.392">
        <ele>385.839616</ele>
        <time>2022-10-04T08:08:51.150Z</time>
      </trkpt>
      <trkpt lat="45.23377" lon="5.392">
        <ele>385.762741</ele>
        <time>2022-10-04T08:08:53.149Z</time>
      </trkpt>
      <trkpt lat="45.2339" lon="5.39199">
        <ele>385.681919</ele>
        <time>2022-10-04T08:08:55.149Z</time>
      </trkpt>
      <trkpt lat="45.23403" lon="5.39197">
        <ele>385.602753</ele>
        <time>2022-10-04T08:08:57.153Z</time>
      </trkpt>
      <trkpt lat="45.23415" lon="5.39194">
        <ele>385.525311</ele>
        <time>2022-10-04T08:08:59.151Z</time>
      </trkpt>
      <trkpt lat="45.23429" lon="5.39191">
        <ele>385.438278</ele>
        <time>2022-10-04T08:09:01.151Z</time>
      </trkpt>
      <trkpt lat="45.23441" lon="5.3919">
        <ele>385.364255</ele>
        <time>2022-10-04T08:09:03.153Z</time>
      </trkpt>
      <trkpt lat="45.23454" lon="5.39189">
        <ele>385.284807</ele>
        <time>2022-10-04T08:09:05.155Z</time>
      </trkpt>
      <trkpt lat="45.23466" lon="5.39187">
        <ele>385.243854</ele>
        <time>2022-10-04T08:09:07.144Z</time>
      </trkpt>
      <trkpt lat="45.23479" lon="5.39184">
        <ele>385.411998</ele>
        <time>2022-10-04T08:09:09.149Z</time>
      </trkpt>
      <trkpt lat="45.23491" lon="5.39181">
        <ele>385.564285</ele>
        <time>2022-10-04T08:09:11.153Z</time>
      </trkpt>
      <trkpt lat="45.23501" lon="5.39174">
        <ele>385.71511</ele>
        <time>2022-10-04T08:09:13.151Z</time>
      </trkpt>
      <trkpt lat="45.23509" lon="5.39166">
        <ele>385.837493</ele>
        <time>2022-10-04T08:09:15.149Z</time>
      </trkpt>
      <trkpt lat="45.23519" lon="5.39159">
        <ele>385.970743</ele>
        <time>2022-10-04T08:09:17.147Z</time>
      </trkpt>
      <trkpt lat="45.23528" lon="5.39152">
        <ele>386.105068</ele>
        <time>2022-10-04T08:09:19.147Z</time>
      </trkpt>
      <trkpt lat="45.23537" lon="5.39145">
        <ele>386.243671</ele>
        <time>2022-10-04T08:09:21.150Z</time>
      </trkpt>
      <trkpt lat="45.23545" lon="5.39135">
        <ele>386.375447</ele>
        <time>2022-10-04T08:09:23.149Z</time>
      </trkpt>
      <trkpt lat="45.23554" lon="5.39127">
        <ele>386.50826</ele>
        <time>2022-10-04T08:09:25.155Z</time>
      </trkpt>
      <trkpt lat="45.23562" lon="5.39118">
        <ele>386.641039</ele>
        <time>2022-10-04T08:09:27.153Z</time>
      </trkpt>
      <trkpt lat="45.23568" lon="5.39107">
        <ele>386.763304</ele>
        <time>2022-10-04T08:09:29.151Z</time>
      </trkpt>
      <trkpt lat="45.23574" lon="5.39094">
        <ele>386.900217</ele>
        <time>2022-10-04T08:09:31.145Z</time>
      </trkpt>
      <trkpt lat="45.23579" lon="5.39081">
        <ele>387.040302</ele>
        <time>2022-10-04T08:09:33.152Z</time>
      </trkpt>
      <trkpt lat="45.23583" lon="5.39069">
        <ele>387.157489</ele>
        <time>2022-10-04T08:09:35.153Z</time>
      </trkpt>
      <trkpt lat="45.23586" lon="5.39057">
        <ele>387.274101</ele>
        <time>2022-10-04T08:09:37.145Z</time>
      </trkpt>
      <trkpt lat="45.23589" lon="5.39041">
        <ele>387.41796</ele>
        <time>2022-10-04T08:09:40.143Z</time>
      </trkpt>
      <trkpt lat="45.24138" lon="5.38396">
        <ele>408.535421</ele>
        <time>2022-10-04T08:12:42.337Z</time>
      </trkpt>
      <trkpt lat="45.24126" lon="5.38442">
        <ele>409.945977</ele>
        <time>2022-10-04T08:14:36.158Z</time>
      </trkpt>
      <trkpt lat="45.24123" lon="5.38454">
        <ele>410.470395</ele>
        <time>2022-10-04T08:14:38.155Z</time>
      </trkpt>
      <trkpt lat="45.2412" lon="5.38471">
        <ele>411.148819</ele>
        <time>2022-10-04T08:14:41.153Z</time>
      </trkpt>
      <trkpt lat="45.24117" lon="5.38489">
        <ele>411.86968</ele>
        <time>2022-10-04T08:14:44.151Z</time>
      </trkpt>
      <trkpt lat="45.24116" lon="5.38502">
        <ele>412.406161</ele>
        <time>2022-10-04T08:14:46.151Z</time>
      </trkpt>
      <trkpt lat="45.24116" lon="5.38515">
        <ele>412.922028</ele>
        <time>2022-10-04T08:14:48.152Z</time>
      </trkpt>
      <trkpt lat="45.24116" lon="5.38528">
        <ele>413.433959</ele>
        <time>2022-10-04T08:14:50.149Z</time>
      </trkpt>
      <trkpt lat="45.24116" lon="5.38542">
        <ele>413.961634</ele>
        <time>2022-10-04T08:14:52.151Z</time>
      </trkpt>
      <trkpt lat="45.2412" lon="5.3856">
        <ele>414.693022</ele>
        <time>2022-10-04T08:14:55.151Z</time>
      </trkpt>
      <trkpt lat="45.24122" lon="5.38577">
        <ele>415.37407</ele>
        <time>2022-10-04T08:14:58.151Z</time>
      </trkpt>
      <trkpt lat="45.24127" lon="5.38592">
        <ele>416.030501</ele>
        <time>2022-10-04T08:15:01.155Z</time>
      </trkpt>
      <trkpt lat="45.24133" lon="5.38607">
        <ele>416.705026</ele>
        <time>2022-10-04T08:15:04.150Z</time>
      </trkpt>
      <trkpt lat="45.2414" lon="5.38622">
        <ele>417.406782</ele>
        <time>2022-10-04T08:15:07.151Z</time>
      </trkpt>
      <trkpt lat="45.24147" lon="5.38636">
        <ele>418.108536</ele>
        <time>2022-10-04T08:15:10.151Z</time>
      </trkpt>
      <trkpt lat="45.24154" lon="5.3865">
        <ele>418.800884</ele>
        <time>2022-10-04T08:15:13.161Z</time>
      </trkpt>
      <trkpt lat="45.24163" lon="5.38664">
        <ele>419.183156</ele>
        <time>2022-10-04T08:15:16.152Z</time>
      </trkpt>
      <trkpt lat="45.24172" lon="5.38676">
        <ele>419.506389</ele>
        <time>2022-10-04T08:15:19.160Z</time>
      </trkpt>
      <trkpt lat="45.24182" lon="5.38689">
        <ele>419.838349</ele>
        <time>2022-10-04T08:15:22.150Z</time>
      </trkpt>
      <trkpt lat="45.24193" lon="5.38701">
        <ele>420.172323</ele>
        <time>2022-10-04T08:15:25.151Z</time>
      </trkpt>
      <trkpt lat="45.24203" lon="5.38711">
        <ele>420.490456</ele>
        <time>2022-10-04T08:15:28.154Z</time>
      </trkpt>
      <trkpt lat="45.24213" lon="5.38721">
        <ele>420.814861</ele>
        <time>2022-10-04T08:15:31.153Z</time>
      </trkpt>
      <trkpt lat="45.24225" lon="5.38732">
        <ele>421.15064</ele>
        <time>2022-10-04T08:15:34.152Z</time>
      </trkpt>
      <trkpt lat="45.24234" lon="5.38743">
        <ele>421.456082</ele>
        <time>2022-10-04T08:15:37.151Z</time>
      </trkpt>
      <trkpt lat="45.24243" lon="5.38755">
        <ele>421.770185</ele>
        <time>2022-10-04T08:15:40.153Z</time>
      </trkpt>
      <trkpt lat="45.24252" lon="5.38767">
        <ele>422.080542</ele>
        <time>2022-10-04T08:15:43.149Z</time>
      </trkpt>
      <trkpt lat="45.24261" lon="5.38778">
        <ele>422.375618</ele>
        <time>2022-10-04T08:15:46.153Z</time>
      </trkpt>
      <trkpt lat="45.2427" lon="5.38787">
        <ele>422.678149</ele>
        <time>2022-10-04T08:15:49.149Z</time>
      </trkpt>
      <trkpt lat="45.24281" lon="5.38797">
        <ele>422.995069</ele>
        <time>2022-10-04T08:15:52.153Z</time>
      </trkpt>
      <trkpt lat="45.24291" lon="5.38807">
        <ele>423.300651</ele>
        <time>2022-10-04T08:15:55.152Z</time>
      </trkpt>
      <trkpt lat="45.243" lon="5.38818">
        <ele>423.730623</ele>
        <time>2022-10-04T08:15:58.152Z</time>
      </trkpt>
      <trkpt lat="45.24308" lon="5.38831">
        <ele>424.288762</ele>
        <time>2022-10-04T08:16:01.149Z</time>
      </trkpt>
      <trkpt lat="45.24316" lon="5.38845">
        <ele>424.867155</ele>
        <time>2022-10-04T08:16:04.152Z</time>
      </trkpt>
      <trkpt lat="45.24323" lon="5.38859">
        <ele>425.428574</ele>
        <time>2022-10-04T08:16:07.149Z</time>
      </trkpt>
      <trkpt lat="45.24332" lon="5.38872">
        <ele>425.997031</ele>
        <time>2022-10-04T08:16:10.154Z</time>
      </trkpt>
      <trkpt lat="45.24342" lon="5.38882">
        <ele>426.564307</ele>
        <time>2022-10-04T08:16:13.153Z</time>
      </trkpt>
      <trkpt lat="45.24353" lon="5.3889">
        <ele>427.154351</ele>
        <time>2022-10-04T08:16:16.154Z</time>
      </trkpt>
      <trkpt lat="45.24363" lon="5.38897">
        <ele>427.632566</ele>
        <time>2022-10-04T08:16:19.151Z</time>
      </trkpt>
      <trkpt lat="45.24375" lon="5.38905">
        <ele>428.23665</ele>
        <time>2022-10-04T08:16:22.148Z</time>
      </trkpt>
      <trkpt lat="45.24383" lon="5.3891">
        <ele>428.658546</ele>
        <time>2022-10-04T08:16:24.147Z</time>
      </trkpt>
      <trkpt lat="45.24395" lon="5.38917">
        <ele>429.25941</ele>
        <time>2022-10-04T08:16:27.152Z</time>
      </trkpt>
      <trkpt lat="45.24407" lon="5.38922">
        <ele>429.844122</ele>
        <time>2022-10-04T08:16:30.151Z</time>
      </trkpt>
      <trkpt lat="45.24418" lon="5.38925">
        <ele>430.339978</ele>
        <time>2022-10-04T08:16:33.150Z</time>
      </trkpt>
      <trkpt lat="45.2443" lon="5.38928">
        <ele>430.872805</ele>
        <time>2022-10-04T08:16:36.149Z</time>
      </trkpt>
      <trkpt lat="45.24441" lon="5.38931">
        <ele>431.387235</ele>
        <time>2022-10-04T08:16:39.149Z</time>
      </trkpt>
      <trkpt lat="45.24449" lon="5.38935">
        <ele>431.745499</ele>
        <time>2022-10-04T08:16:41.150Z</time>
      </trkpt>
      <trkpt lat="45.24461" lon="5.38942">
        <ele>432.073482</ele>
        <time>2022-10-04T08:16:44.151Z</time>
      </trkpt>
      <trkpt lat="45.24472" lon="5.38951">
        <ele>432.414787</ele>
        <time>2022-10-04T08:16:47.152Z</time>
      </trkpt>
      <trkpt lat="45.24483" lon="5.38959">
        <ele>432.738814</ele>
        <time>2022-10-04T08:16:50.155Z</time>
      </trkpt>
      <trkpt lat="45.24495" lon="5.38967">
        <ele>433.072299</ele>
        <time>2022-10-04T08:16:53.149Z</time>
      </trkpt>
      <trkpt lat="45.24506" lon="5.38975">
        <ele>433.392302</ele>
        <time>2022-10-04T08:16:56.152Z</time>
      </trkpt>
      <trkpt lat="45.24517" lon="5.38983">
        <ele>433.715426</ele>
        <time>2022-10-04T08:16:59.153Z</time>
      </trkpt>
      <trkpt lat="45.24527" lon="5.38992">
        <ele>434.019562</ele>
        <time>2022-10-04T08:17:02.152Z</time>
      </trkpt>
      <trkpt lat="45.24537" lon="5.38999">
        <ele>434.33406</ele>
        <time>2022-10-04T08:17:05.154Z</time>
      </trkpt>
      <trkpt lat="45.24549" lon="5.39005">
        <ele>434.65198</ele>
        <time>2022-10-04T08:17:08.148Z</time>
      </trkpt>
      <trkpt lat="45.24559" lon="5.3901">
        <ele>434.921337</ele>
        <time>2022-10-04T08:17:11.150Z</time>
      </trkpt>
      <trkpt lat="45.2457" lon="5.39012">
        <ele>435.226286</ele>
        <time>2022-10-04T08:17:14.151Z</time>
      </trkpt>
      <trkpt lat="45.24582" lon="5.39011">
        <ele>435.542195</ele>
        <time>2022-10-04T08:17:17.149Z</time>
      </trkpt>
      <trkpt lat="45.24595" lon="5.39013">
        <ele>435.87957</ele>
        <time>2022-10-04T08:17:20.151Z</time>
      </trkpt>
      <trkpt lat="45.24608" lon="5.39015">
        <ele>436.212394</ele>
        <time>2022-10-04T08:17:23.151Z</time>
      </trkpt>
      <trkpt lat="45.2462" lon="5.39021">
        <ele>436.598328</ele>
        <time>2022-10-04T08:17:26.155Z</time>
      </trkpt>
      <trkpt lat="45.24632" lon="5.39027">
        <ele>437.028527</ele>
        <time>2022-10-04T08:17:29.149Z</time>
      </trkpt>
      <trkpt lat="45.24644" lon="5.39032">
        <ele>437.453986</ele>
        <time>2022-10-04T08:17:32.153Z</time>
      </trkpt>
      <trkpt lat="45.24657" lon="5.39034">
        <ele>437.868961</ele>
        <time>2022-10-04T08:17:35.149Z</time>
      </trkpt>
      <trkpt lat="45.24669" lon="5.39033">
        <ele>438.29516</ele>
        <time>2022-10-04T08:17:38.163Z</time>
      </trkpt>
      <trkpt lat="45.24682" lon="5.39031">
        <ele>438.726253</ele>
        <time>2022-10-04T08:17:41.151Z</time>
      </trkpt>
      <trkpt lat="45.24694" lon="5.3903">
        <ele>439.139778</ele>
        <time>2022-10-04T08:17:44.150Z</time>
      </trkpt>
      <trkpt lat="45.24707" lon="5.39029">
        <ele>439.54515</ele>
        <time>2022-10-04T08:17:47.152Z</time>
      </trkpt>
      <trkpt lat="45.24719" lon="5.39031">
        <ele>439.955548</ele>
        <time>2022-10-04T08:17:50.149Z</time>
      </trkpt>
      <trkpt lat="45.24731" lon="5.39034">
        <ele>440.364532</ele>
        <time>2022-10-04T08:17:53.152Z</time>
      </trkpt>
      <trkpt lat="45.24743" lon="5.39038">
        <ele>440.787203</ele>
        <time>2022-10-04T08:17:56.150Z</time>
      </trkpt>
      <trkpt lat="45.24756" lon="5.3904">
        <ele>441.222139</ele>
        <time>2022-10-04T08:17:59.153Z</time>
      </trkpt>
      <trkpt lat="45.24768" lon="5.39042">
        <ele>441.613553</ele>
        <time>2022-10-04T08:18:02.150Z</time>
      </trkpt>
      <trkpt lat="45.24779" lon="5.39044">
        <ele>442.010394</ele>
        <time>2022-10-04T08:18:05.151Z</time>
      </trkpt>
      <trkpt lat="45.24792" lon="5.39044">
        <ele>442.439565</ele>
        <time>2022-10-04T08:18:08.153Z</time>
      </trkpt>
      <trkpt lat="45.24804" lon="5.39046">
        <ele>442.99179</ele>
        <time>2022-10-04T08:18:11.146Z</time>
      </trkpt>
      <trkpt lat="45.24816" lon="5.39049">
        <ele>443.5434</ele>
        <time>2022-10-04T08:18:14.153Z</time>
      </trkpt>
      <trkpt lat="45.24828" lon="5.39052">
        <ele>444.094991</ele>
        <time>2022-10-04T08:18:17.152Z</time>
      </trkpt>
      <trkpt lat="45.24839" lon="5.39053">
        <ele>444.618981</ele>
        <time>2022-10-04T08:18:20.152Z</time>
      </trkpt>
      <trkpt lat="45.2485" lon="5.39055">
        <ele>445.108994</ele>
        <time>2022-10-04T08:18:23.150Z</time>
      </trkpt>
      <trkpt lat="45.24861" lon="5.39057">
        <ele>445.630968</ele>
        <time>2022-10-04T08:18:26.153Z</time>
      </trkpt>
      <trkpt lat="45.24874" lon="5.3906">
        <ele>446.194733</ele>
        <time>2022-10-04T08:18:29.158Z</time>
      </trkpt>
      <trkpt lat="45.24882" lon="5.39063">
        <ele>446.605805</ele>
        <time>2022-10-04T08:18:31.152Z</time>
      </trkpt>
      <trkpt lat="45.24891" lon="5.39066">
        <ele>447.025893</ele>
        <time>2022-10-04T08:18:33.156Z</time>
      </trkpt>
      <trkpt lat="45.24904" lon="5.39071">
        <ele>447.637911</ele>
        <time>2022-10-04T08:18:36.152Z</time>
      </trkpt>
      <trkpt lat="45.24913" lon="5.39075">
        <ele>448.062107</ele>
        <time>2022-10-04T08:18:38.151Z</time>
      </trkpt>
      <trkpt lat="45.24925" lon="5.39082">
        <ele>448.66593</ele>
        <time>2022-10-04T08:18:41.153Z</time>
      </trkpt>
      <trkpt lat="45.24934" lon="5.39089">
        <ele>449.104605</ele>
        <time>2022-10-04T08:18:43.153Z</time>
      </trkpt>
      <trkpt lat="45.24942" lon="5.39096">
        <ele>449.516623</ele>
        <time>2022-10-04T08:18:45.153Z</time>
      </trkpt>
      <trkpt lat="45.2495" lon="5.39103">
        <ele>449.957568</ele>
        <time>2022-10-04T08:18:47.150Z</time>
      </trkpt>
      <trkpt lat="45.24959" lon="5.39109">
        <ele>450.425929</ele>
        <time>2022-10-04T08:18:49.152Z</time>
      </trkpt>
      <trkpt lat="45.2497" lon="5.3912">
        <ele>450.991077</ele>
        <time>2022-10-04T08:18:52.149Z</time>
      </trkpt>
      <trkpt lat="45.2498" lon="5.39128">
        <ele>451.497884</ele>
        <time>2022-10-04T08:18:55.155Z</time>
      </trkpt>
      <trkpt lat="45.24989" lon="5.39135">
        <ele>451.940095</ele>
        <time>2022-10-04T08:18:57.156Z</time>
      </trkpt>
      <trkpt lat="45.24997" lon="5.39141">
        <ele>452.359628</ele>
        <time>2022-10-04T08:18:59.150Z</time>
      </trkpt>
      <trkpt lat="45.25009" lon="5.39149">
        <ele>452.927824</ele>
        <time>2022-10-04T08:19:02.148Z</time>
      </trkpt>
      <trkpt lat="45.25019" lon="5.39157">
        <ele>453.442104</ele>
        <time>2022-10-04T08:19:05.151Z</time>
      </trkpt>
      <trkpt lat="45.2503" lon="5.39164">
        <ele>453.952298</ele>
        <time>2022-10-04T08:19:08.156Z</time>
      </trkpt>
      <trkpt lat="45.25041" lon="5.3917">
        <ele>454.499096</ele>
        <time>2022-10-04T08:19:11.154Z</time>
      </trkpt>
      <trkpt lat="45.25054" lon="5.39176">
        <ele>455.076456</ele>
        <time>2022-10-04T08:19:14.153Z</time>
      </trkpt>
      <trkpt lat="45.25063" lon="5.39179">
        <ele>455.471068</ele>
        <time>2022-10-04T08:19:16.152Z</time>
      </trkpt>
      <trkpt lat="45.25074" lon="5.39182">
        <ele>455.966251</ele>
        <time>2022-10-04T08:19:19.150Z</time>
      </trkpt>
      <trkpt lat="45.25084" lon="5.39183">
        <ele>456.419989</ele>
        <time>2022-10-04T08:19:22.151Z</time>
      </trkpt>
      <trkpt lat="45.25095" lon="5.39185">
        <ele>456.892235</ele>
        <time>2022-10-04T08:19:25.143Z</time>
      </trkpt>
      <trkpt lat="45.25107" lon="5.39188">
        <ele>457.427277</ele>
        <time>2022-10-04T08:19:28.154Z</time>
      </trkpt>
      <trkpt lat="45.25118" lon="5.39189">
        <ele>457.924191</ele>
        <time>2022-10-04T08:19:31.146Z</time>
      </trkpt>
      <trkpt lat="45.25131" lon="5.3919">
        <ele>458.413471</ele>
        <time>2022-10-04T08:19:34.167Z</time>
      </trkpt>
      <trkpt lat="45.25142" lon="5.3919">
        <ele>458.127065</ele>
        <time>2022-10-04T08:19:37.150Z</time>
      </trkpt>
      <trkpt lat="45.25152" lon="5.39192">
        <ele>457.846308</ele>
        <time>2022-10-04T08:19:40.150Z</time>
      </trkpt>
      <trkpt lat="45.25191" lon="5.39195">
        <ele>456.839699</ele>
        <time>2022-10-04T08:20:15.156Z</time>
      </trkpt>
      <trkpt lat="45.25201" lon="5.39197">
        <ele>456.562348</ele>
        <time>2022-10-04T08:20:17.155Z</time>
      </trkpt>
      <trkpt lat="45.25212" lon="5.39198">
        <ele>456.28258</ele>
        <time>2022-10-04T08:20:19.158Z</time>
      </trkpt>
      <trkpt lat="45.25222" lon="5.392">
        <ele>456.028112</ele>
        <time>2022-10-04T08:20:21.151Z</time>
      </trkpt>
      <trkpt lat="45.25233" lon="5.39199">
        <ele>455.736361</ele>
        <time>2022-10-04T08:20:23.155Z</time>
      </trkpt>
      <trkpt lat="45.2525" lon="5.392">
        <ele>455.301306</ele>
        <time>2022-10-04T08:20:25.159Z</time>
      </trkpt>
      <trkpt lat="45.25264" lon="5.39202">
        <ele>454.940954</ele>
        <time>2022-10-04T08:20:27.150Z</time>
      </trkpt>
      <trkpt lat="45.25276" lon="5.39212">
        <ele>454.568332</ele>
        <time>2022-10-04T08:20:29.152Z</time>
      </trkpt>
      <trkpt lat="45.25284" lon="5.39225">
        <ele>454.238731</ele>
        <time>2022-10-04T08:20:31.153Z</time>
      </trkpt>
      <trkpt lat="45.25283" lon="5.39242">
        <ele>453.938519</ele>
        <time>2022-10-04T08:20:33.159Z</time>
      </trkpt>
      <trkpt lat="45.25275" lon="5.39253">
        <ele>453.799135</ele>
        <time>2022-10-04T08:20:35.164Z</time>
      </trkpt>
      <trkpt lat="45.25267" lon="5.39263">
        <ele>453.948864</ele>
        <time>2022-10-04T08:20:37.151Z</time>
      </trkpt>
      <trkpt lat="45.25258" lon="5.39272">
        <ele>454.092468</ele>
        <time>2022-10-04T08:20:39.149Z</time>
      </trkpt>
      <trkpt lat="45.25249" lon="5.39279">
        <ele>454.228002</ele>
        <time>2022-10-04T08:20:41.155Z</time>
      </trkpt>
      <trkpt lat="45.25242" lon="5.39287">
        <ele>454.35564</ele>
        <time>2022-10-04T08:20:43.149Z</time>
      </trkpt>
      <trkpt lat="45.25236" lon="5.39297">
        <ele>454.48085</ele>
        <time>2022-10-04T08:20:45.152Z</time>
      </trkpt>
      <trkpt lat="45.25227" lon="5.39306">
        <ele>454.624482</ele>
        <time>2022-10-04T08:20:47.154Z</time>
      </trkpt>
      <trkpt lat="45.25217" lon="5.3932">
        <ele>454.815289</ele>
        <time>2022-10-04T08:20:50.149Z</time>
      </trkpt>
      <trkpt lat="45.2521" lon="5.3933">
        <ele>454.949887</ele>
        <time>2022-10-04T08:20:52.150Z</time>
      </trkpt>
      <trkpt lat="45.252" lon="5.3934">
        <ele>455.118783</ele>
        <time>2022-10-04T08:20:55.153Z</time>
      </trkpt>
      <trkpt lat="45.25191" lon="5.39352">
        <ele>455.284705</ele>
        <time>2022-10-04T08:20:58.153Z</time>
      </trkpt>
      <trkpt lat="45.25185" lon="5.39367">
        <ele>455.444137</ele>
        <time>2022-10-04T08:21:01.153Z</time>
      </trkpt>
      <trkpt lat="45.2518" lon="5.39386">
        <ele>455.640866</ele>
        <time>2022-10-04T08:21:04.152Z</time>
      </trkpt>
      <trkpt lat="45.2518" lon="5.39403">
        <ele>455.802456</ele>
        <time>2022-10-04T08:21:06.146Z</time>
      </trkpt>
      <trkpt lat="45.25184" lon="5.3942">
        <ele>455.966694</ele>
        <time>2022-10-04T08:21:08.148Z</time>
      </trkpt>
      <trkpt lat="45.25189" lon="5.39434">
        <ele>456.117289</ele>
        <time>2022-10-04T08:21:10.152Z</time>
      </trkpt>
      <trkpt lat="45.25198" lon="5.3945">
        <ele>456.507051</ele>
        <time>2022-10-04T08:21:12.155Z</time>
      </trkpt>
      <trkpt lat="45.25205" lon="5.39463">
        <ele>456.923702</ele>
        <time>2022-10-04T08:21:14.148Z</time>
      </trkpt>
      <trkpt lat="45.25215" lon="5.3947">
        <ele>457.303633</ele>
        <time>2022-10-04T08:21:16.146Z</time>
      </trkpt>
      <trkpt lat="45.25226" lon="5.39479">
        <ele>457.726616</ele>
        <time>2022-10-04T08:21:18.153Z</time>
      </trkpt>
      <trkpt lat="45.25234" lon="5.39487">
        <ele>458.054798</ele>
        <time>2022-10-04T08:21:20.152Z</time>
      </trkpt>
      <trkpt lat="45.25244" lon="5.39495">
        <ele>458.440269</ele>
        <time>2022-10-04T08:21:22.145Z</time>
      </trkpt>
      <trkpt lat="45.25258" lon="5.39505">
        <ele>458.978193</ele>
        <time>2022-10-04T08:21:24.148Z</time>
      </trkpt>
      <trkpt lat="45.25267" lon="5.39515">
        <ele>459.397269</ele>
        <time>2022-10-04T08:21:26.150Z</time>
      </trkpt>
      <trkpt lat="45.25275" lon="5.39524">
        <ele>459.738509</ele>
        <time>2022-10-04T08:21:28.148Z</time>
      </trkpt>
      <trkpt lat="45.25284" lon="5.3953">
        <ele>460.082358</ele>
        <time>2022-10-04T08:21:30.153Z</time>
      </trkpt>
      <trkpt lat="45.25292" lon="5.39538">
        <ele>460.42042</ele>
        <time>2022-10-04T08:21:32.154Z</time>
      </trkpt>
      <trkpt lat="45.253" lon="5.39548">
        <ele>460.776129</ele>
        <time>2022-10-04T08:21:34.153Z</time>
      </trkpt>
      <trkpt lat="45.2531" lon="5.39557">
        <ele>461.172904</ele>
        <time>2022-10-04T08:21:36.155Z</time>
      </trkpt>
      <trkpt lat="45.25317" lon="5.39565">
        <ele>461.498301</ele>
        <time>2022-10-04T08:21:38.147Z</time>
      </trkpt>
      <trkpt lat="45.25325" lon="5.39573">
        <ele>461.841045</ele>
        <time>2022-10-04T08:21:40.145Z</time>
      </trkpt>
      <trkpt lat="45.25334" lon="5.39583">
        <ele>462.220903</ele>
        <time>2022-10-04T08:21:42.151Z</time>
      </trkpt>
      <trkpt lat="45.25342" lon="5.39591">
        <ele>462.248619</ele>
        <time>2022-10-04T08:21:44.148Z</time>
      </trkpt>
      <trkpt lat="45.25352" lon="5.39605">
        <ele>462.066177</ele>
        <time>2022-10-04T08:21:47.156Z</time>
      </trkpt>
      <trkpt lat="45.25357" lon="5.39616">
        <ele>461.944386</ele>
        <time>2022-10-04T08:21:49.149Z</time>
      </trkpt>
      <trkpt lat="45.25363" lon="5.39627">
        <ele>461.811847</ele>
        <time>2022-10-04T08:21:51.149Z</time>
      </trkpt>
      <trkpt lat="45.25368" lon="5.39638">
        <ele>461.686755</ele>
        <time>2022-10-04T08:21:53.149Z</time>
      </trkpt>
      <trkpt lat="45.25372" lon="5.3965">
        <ele>461.560714</ele>
        <time>2022-10-04T08:21:55.149Z</time>
      </trkpt>
      <trkpt lat="45.25376" lon="5.39662">
        <ele>461.439263</ele>
        <time>2022-10-04T08:21:57.148Z</time>
      </trkpt>
      <trkpt lat="45.25381" lon="5.39673">
        <ele>461.316825</ele>
        <time>2022-10-04T08:21:59.150Z</time>
      </trkpt>
      <trkpt lat="45.25386" lon="5.39684">
        <ele>461.193744</ele>
        <time>2022-10-04T08:22:01.155Z</time>
      </trkpt>
      <trkpt lat="45.25389" lon="5.39698">
        <ele>461.049392</ele>
        <time>2022-10-04T08:22:03.151Z</time>
      </trkpt>
      <trkpt lat="45.25391" lon="5.39713">
        <ele>460.910737</ele>
        <time>2022-10-04T08:22:05.156Z</time>
      </trkpt>
      <trkpt lat="45.25394" lon="5.39725">
        <ele>460.78542</ele>
        <time>2022-10-04T08:22:07.151Z</time>
      </trkpt>
      <trkpt lat="45.25397" lon="5.39738">
        <ele>460.662834</ele>
        <time>2022-10-04T08:22:09.160Z</time>
      </trkpt>
      <trkpt lat="45.254" lon="5.39755">
        <ele>460.494676</ele>
        <time>2022-10-04T08:22:12.157Z</time>
      </trkpt>
      <trkpt lat="45.25405" lon="5.3977">
        <ele>460.337474</ele>
        <time>2022-10-04T08:22:15.156Z</time>
      </trkpt>
      <trkpt lat="45.25408" lon="5.39782">
        <ele>460.213861</ele>
        <time>2022-10-04T08:22:17.150Z</time>
      </trkpt>
      <trkpt lat="45.25413" lon="5.398">
        <ele>460.041961</ele>
        <time>2022-10-04T08:22:20.152Z</time>
      </trkpt>
      <trkpt lat="45.25417" lon="5.39817">
        <ele>460.16888</ele>
        <time>2022-10-04T08:22:23.149Z</time>
      </trkpt>
      <trkpt lat="45.25419" lon="5.39835">
        <ele>460.796544</ele>
        <time>2022-10-04T08:22:26.151Z</time>
      </trkpt>
      <trkpt lat="45.25418" lon="5.39854">
        <ele>461.437632</ele>
        <time>2022-10-04T08:22:29.154Z</time>
      </trkpt>
      <trkpt lat="45.25419" lon="5.39872">
        <ele>462.065763</ele>
        <time>2022-10-04T08:22:32.152Z</time>
      </trkpt>
      <trkpt lat="45.25421" lon="5.39891">
        <ele>462.691329</ele>
        <time>2022-10-04T08:22:35.154Z</time>
      </trkpt>
      <trkpt lat="45.25423" lon="5.39906">
        <ele>463.236089</ele>
        <time>2022-10-04T08:22:38.149Z</time>
      </trkpt>
      <trkpt lat="45.25426" lon="5.39923">
        <ele>463.816417</ele>
        <time>2022-10-04T08:22:41.154Z</time>
      </trkpt>
      <trkpt lat="45.25429" lon="5.39937">
        <ele>464.321605</ele>
        <time>2022-10-04T08:22:44.152Z</time>
      </trkpt>
      <trkpt lat="45.25431" lon="5.39951">
        <ele>464.831892</ele>
        <time>2022-10-04T08:22:47.155Z</time>
      </trkpt>
      <trkpt lat="45.25433" lon="5.3997">
        <ele>465.480618</ele>
        <time>2022-10-04T08:22:51.151Z</time>
      </trkpt>
      <trkpt lat="45.25438" lon="5.39986">
        <ele>466.076082</ele>
        <time>2022-10-04T08:22:54.158Z</time>
      </trkpt>
      <trkpt lat="45.25441" lon="5.40002">
        <ele>466.648724</ele>
        <time>2022-10-04T08:22:57.152Z</time>
      </trkpt>
      <trkpt lat="45.25442" lon="5.40017">
        <ele>467.180678</ele>
        <time>2022-10-04T08:23:00.148Z</time>
      </trkpt>
      <trkpt lat="45.25446" lon="5.40032">
        <ele>467.728415</ele>
        <time>2022-10-04T08:23:03.157Z</time>
      </trkpt>
      <trkpt lat="45.25449" lon="5.40047">
        <ele>468.248993</ele>
        <time>2022-10-04T08:23:06.152Z</time>
      </trkpt>
      <trkpt lat="45.25456" lon="5.40062">
        <ele>468.918022</ele>
        <time>2022-10-04T08:23:09.150Z</time>
      </trkpt>
      <trkpt lat="45.25461" lon="5.40076">
        <ele>469.802934</ele>
        <time>2022-10-04T08:23:12.152Z</time>
      </trkpt>
      <trkpt lat="45.25469" lon="5.40086">
        <ele>470.64428</ele>
        <time>2022-10-04T08:23:15.152Z</time>
      </trkpt>
      <trkpt lat="45.25478" lon="5.40094">
        <ele>471.405909</ele>
        <time>2022-10-04T08:23:18.150Z</time>
      </trkpt>
      <trkpt lat="45.25488" lon="5.40102">
        <ele>472.285104</ele>
        <time>2022-10-04T08:23:21.149Z</time>
      </trkpt>
      <trkpt lat="45.25497" lon="5.4011">
        <ele>473.118654</ele>
        <time>2022-10-04T08:23:24.149Z</time>
      </trkpt>
      <trkpt lat="45.25507" lon="5.40118">
        <ele>473.963284</ele>
        <time>2022-10-04T08:23:27.151Z</time>
      </trkpt>
      <trkpt lat="45.25516" lon="5.40127">
        <ele>474.828256</ele>
        <time>2022-10-04T08:23:30.151Z</time>
      </trkpt>
      <trkpt lat="45.25526" lon="5.40136">
        <ele>475.74986</ele>
        <time>2022-10-04T08:23:33.150Z</time>
      </trkpt>
      <trkpt lat="45.25536" lon="5.40144">
        <ele>476.630106</ele>
        <time>2022-10-04T08:23:36.153Z</time>
      </trkpt>
      <trkpt lat="45.25546" lon="5.40151">
        <ele>477.483623</ele>
        <time>2022-10-04T08:23:39.153Z</time>
      </trkpt>
      <trkpt lat="45.25557" lon="5.40157">
        <ele>478.37758</ele>
        <time>2022-10-04T08:23:42.158Z</time>
      </trkpt>
      <trkpt lat="45.25567" lon="5.40162">
        <ele>479.196545</ele>
        <time>2022-10-04T08:23:45.158Z</time>
      </trkpt>
      <trkpt lat="45.25577" lon="5.40168">
        <ele>480.014478</ele>
        <time>2022-10-04T08:23:48.152Z</time>
      </trkpt>
      <trkpt lat="45.25587" lon="5.40174">
        <ele>480.881894</ele>
        <time>2022-10-04T08:23:51.152Z</time>
      </trkpt>
      <trkpt lat="45.25597" lon="5.40181">
        <ele>481.68928</ele>
        <time>2022-10-04T08:23:54.152Z</time>
      </trkpt>
      <trkpt lat="45.25609" lon="5.40186">
        <ele>482.547975</ele>
        <time>2022-10-04T08:23:57.154Z</time>
      </trkpt>
      <trkpt lat="45.2562" lon="5.40191">
        <ele>482.942754</ele>
        <time>2022-10-04T08:24:00.152Z</time>
      </trkpt>
      <trkpt lat="45.25631" lon="5.40195">
        <ele>483.357043</ele>
        <time>2022-10-04T08:24:03.153Z</time>
      </trkpt>
      <trkpt lat="45.25643" lon="5.40197">
        <ele>483.75722</ele>
        <time>2022-10-04T08:24:06.159Z</time>
      </trkpt>
      <trkpt lat="45.25655" lon="5.40199">
        <ele>484.183029</ele>
        <time>2022-10-04T08:24:09.153Z</time>
      </trkpt>
      <trkpt lat="45.25667" lon="5.40202">
        <ele>484.619001</ele>
        <time>2022-10-04T08:24:12.153Z</time>
      </trkpt>
      <trkpt lat="45.25679" lon="5.40203">
        <ele>485.029287</ele>
        <time>2022-10-04T08:24:15.151Z</time>
      </trkpt>
      <trkpt lat="45.25689" lon="5.40207">
        <ele>485.399766</ele>
        <time>2022-10-04T08:24:18.154Z</time>
      </trkpt>
      <trkpt lat="45.25698" lon="5.40211">
        <ele>485.732074</ele>
        <time>2022-10-04T08:24:21.154Z</time>
      </trkpt>
      <trkpt lat="45.25711" lon="5.40213">
        <ele>486.173899</ele>
        <time>2022-10-04T08:24:24.159Z</time>
      </trkpt>
      <trkpt lat="45.25724" lon="5.40216">
        <ele>486.643297</ele>
        <time>2022-10-04T08:24:27.148Z</time>
      </trkpt>
      <trkpt lat="45.25737" lon="5.40218">
        <ele>487.073568</ele>
        <time>2022-10-04T08:24:30.145Z</time>
      </trkpt>
      <trkpt lat="45.2575" lon="5.40219">
        <ele>487.529175</ele>
        <time>2022-10-04T08:24:33.154Z</time>
      </trkpt>
      <trkpt lat="45.2576" lon="5.40223">
        <ele>487.897588</ele>
        <time>2022-10-04T08:24:35.159Z</time>
      </trkpt>
      <trkpt lat="45.25769" lon="5.40232">
        <ele>488.291439</ele>
        <time>2022-10-04T08:24:37.149Z</time>
      </trkpt>
      <trkpt lat="45.25779" lon="5.40244">
        <ele>488.72889</ele>
        <time>2022-10-04T08:24:40.157Z</time>
      </trkpt>
      <trkpt lat="45.25788" lon="5.40256">
        <ele>489.293598</ele>
        <time>2022-10-04T08:24:43.148Z</time>
      </trkpt>
      <trkpt lat="45.25797" lon="5.40268">
        <ele>489.870866</ele>
        <time>2022-10-04T08:24:46.149Z</time>
      </trkpt>
      <trkpt lat="45.25808" lon="5.40278">
        <ele>490.455297</ele>
        <time>2022-10-04T08:24:49.148Z</time>
      </trkpt>
      <trkpt lat="45.25818" lon="5.40287">
        <ele>490.986805</ele>
        <time>2022-10-04T08:24:52.151Z</time>
      </trkpt>
      <trkpt lat="45.25828" lon="5.40297">
        <ele>491.528436</ele>
        <time>2022-10-04T08:24:55.148Z</time>
      </trkpt>
      <trkpt lat="45.25838" lon="5.40307">
        <ele>492.093942</ele>
        <time>2022-10-04T08:24:58.152Z</time>
      </trkpt>
      <trkpt lat="45.25847" lon="5.40318">
        <ele>492.615665</ele>
        <time>2022-10-04T08:25:01.149Z</time>
      </trkpt>
      <trkpt lat="45.25856" lon="5.4033">
        <ele>493.16834</ele>
        <time>2022-10-04T08:25:04.151Z</time>
      </trkpt>
      <trkpt lat="45.25865" lon="5.40341">
        <ele>493.723684</ele>
        <time>2022-10-04T08:25:07.155Z</time>
      </trkpt>
      <trkpt lat="45.25875" lon="5.40355">
        <ele>494.349674</ele>
        <time>2022-10-04T08:25:10.153Z</time>
      </trkpt>
      <trkpt lat="45.25882" lon="5.4037">
        <ele>494.922773</ele>
        <time>2022-10-04T08:25:13.148Z</time>
      </trkpt>
      <trkpt lat="45.25888" lon="5.4038">
        <ele>495.342899</ele>
        <time>2022-10-04T08:25:15.154Z</time>
      </trkpt>
      <trkpt lat="45.25895" lon="5.40392">
        <ele>495.811328</ele>
        <time>2022-10-04T08:25:17.151Z</time>
      </trkpt>
      <trkpt lat="45.25902" lon="5.40407">
        <ele>496.399976</ele>
        <time>2022-10-04T08:25:20.151Z</time>
      </trkpt>
      <trkpt lat="45.25908" lon="5.40417">
        <ele>496.809384</ele>
        <time>2022-10-04T08:25:22.150Z</time>
      </trkpt>
      <trkpt lat="45.25917" lon="5.40431">
        <ele>497.480109</ele>
        <time>2022-10-04T08:25:25.152Z</time>
      </trkpt>
      <trkpt lat="45.25924" lon="5.40446">
        <ele>498.125945</ele>
        <time>2022-10-04T08:25:28.150Z</time>
      </trkpt>
      <trkpt lat="45.25932" lon="5.40461">
        <ele>498.777546</ele>
        <time>2022-10-04T08:25:31.152Z</time>
      </trkpt>
      <trkpt lat="45.25938" lon="5.40478">
        <ele>499.44422</ele>
        <time>2022-10-04T08:25:34.151Z</time>
      </trkpt>
      <trkpt lat="45.25944" lon="5.4049">
        <ele>499.937349</ele>
        <time>2022-10-04T08:25:36.154Z</time>
      </trkpt>
      <trkpt lat="45.25949" lon="5.40502">
        <ele>500.446762</ele>
        <time>2022-10-04T08:25:38.151Z</time>
      </trkpt>
      <trkpt lat="45.25954" lon="5.40519">
        <ele>501.108767</ele>
        <time>2022-10-04T08:25:41.161Z</time>
      </trkpt>
      <trkpt lat="45.25958" lon="5.40536">
        <ele>501.709621</ele>
        <time>2022-10-04T08:25:44.149Z</time>
      </trkpt>
      <trkpt lat="45.2596" lon="5.40551">
        <ele>502.276079</ele>
        <time>2022-10-04T08:25:47.150Z</time>
      </trkpt>
      <trkpt lat="45.25964" lon="5.40567">
        <ele>502.856492</ele>
        <time>2022-10-04T08:25:50.152Z</time>
      </trkpt>
      <trkpt lat="45.25968" lon="5.40581">
        <ele>503.410716</ele>
        <time>2022-10-04T08:25:53.152Z</time>
      </trkpt>
      <trkpt lat="45.25972" lon="5.40597">
        <ele>503.979567</ele>
        <time>2022-10-04T08:25:56.148Z</time>
      </trkpt>
      <trkpt lat="45.25974" lon="5.40611">
        <ele>504.497892</ele>
        <time>2022-10-04T08:25:59.147Z</time>
      </trkpt>
      <trkpt lat="45.25975" lon="5.40627">
        <ele>505.066343</ele>
        <time>2022-10-04T08:26:03.149Z</time>
      </trkpt>
      <trkpt lat="45.25979" lon="5.40642">
        <ele>505.648415</ele>
        <time>2022-10-04T08:26:06.152Z</time>
      </trkpt>
      <trkpt lat="45.25984" lon="5.40658">
        <ele>506.614352</ele>
        <time>2022-10-04T08:26:09.150Z</time>
      </trkpt>
      <trkpt lat="45.25987" lon="5.40671">
        <ele>507.520545</ele>
        <time>2022-10-04T08:26:12.151Z</time>
      </trkpt>
      <trkpt lat="45.25987" lon="5.40686">
        <ele>508.523594</ele>
        <time>2022-10-04T08:26:16.149Z</time>
      </trkpt>
      <trkpt lat="45.25985" lon="5.40699">
        <ele>509.407491</ele>
        <time>2022-10-04T08:26:20.152Z</time>
      </trkpt>
      <trkpt lat="45.25957" lon="5.40682">
        <ele>512.217502</ele>
        <time>2022-10-04T08:28:33.154Z</time>
      </trkpt>
      <trkpt lat="45.25954" lon="5.40667">
        <ele>513.228103</ele>
        <time>2022-10-04T08:28:36.150Z</time>
      </trkpt>
      <trkpt lat="45.25947" lon="5.40653">
        <ele>514.319998</ele>
        <time>2022-10-04T08:28:40.150Z</time>
      </trkpt>
      <trkpt lat="45.25943" lon="5.4064">
        <ele>515.268864</ele>
        <time>2022-10-04T08:28:45.151Z</time>
      </trkpt>
      <trkpt lat="45.25939" lon="5.40627">
        <ele>516.203625</ele>
        <time>2022-10-04T08:28:50.153Z</time>
      </trkpt>
      <trkpt lat="45.25935" lon="5.40615">
        <ele>517.044867</ele>
        <time>2022-10-04T08:28:55.151Z</time>
      </trkpt>
      <trkpt lat="45.25933" lon="5.406">
        <ele>518.042379</ele>
        <time>2022-10-04T08:29:00.151Z</time>
      </trkpt>
      <trkpt lat="45.25929" lon="5.40587">
        <ele>518.978271</ele>
        <time>2022-10-04T08:29:04.156Z</time>
      </trkpt>
      <trkpt lat="45.25924" lon="5.40574">
        <ele>519.905929</ele>
        <time>2022-10-04T08:29:09.154Z</time>
      </trkpt>
      <trkpt lat="45.25919" lon="5.40561">
        <ele>520.911465</ele>
        <time>2022-10-04T08:29:15.152Z</time>
      </trkpt>
      <trkpt lat="45.25912" lon="5.4055">
        <ele>521.862758</ele>
        <time>2022-10-04T08:29:19.153Z</time>
      </trkpt>
      <trkpt lat="45.25905" lon="5.40537">
        <ele>522.856698</ele>
        <time>2022-10-04T08:29:24.151Z</time>
      </trkpt>
      <trkpt lat="45.25898" lon="5.40528">
        <ele>523.650004</ele>
        <time>2022-10-04T08:29:27.153Z</time>
      </trkpt>
      <trkpt lat="45.25893" lon="5.40515">
        <ele>524.531574</ele>
        <time>2022-10-04T08:29:33.152Z</time>
      </trkpt>
      <trkpt lat="45.25885" lon="5.40506">
        <ele>525.393871</ele>
        <time>2022-10-04T08:29:37.152Z</time>
      </trkpt>
      <trkpt lat="45.25877" lon="5.40498">
        <ele>526.192389</ele>
        <time>2022-10-04T08:29:41.152Z</time>
      </trkpt>
      <trkpt lat="45.25869" lon="5.40488">
        <ele>527.102183</ele>
        <time>2022-10-04T08:29:45.154Z</time>
      </trkpt>
      <trkpt lat="45.25859" lon="5.40482">
        <ele>527.990949</ele>
        <time>2022-10-04T08:29:49.151Z</time>
      </trkpt>
      <trkpt lat="45.25849" lon="5.40478">
        <ele>528.903094</ele>
        <time>2022-10-04T08:29:53.153Z</time>
      </trkpt>
      <trkpt lat="45.25839" lon="5.40477">
        <ele>529.747623</ele>
        <time>2022-10-04T08:29:57.152Z</time>
      </trkpt>
      <trkpt lat="45.25828" lon="5.40473">
        <ele>530.629543</ele>
        <time>2022-10-04T08:30:01.150Z</time>
      </trkpt>
      <trkpt lat="45.25819" lon="5.40469">
        <ele>531.412328</ele>
        <time>2022-10-04T08:30:04.152Z</time>
      </trkpt>
      <trkpt lat="45.2581" lon="5.40466">
        <ele>532.204355</ele>
        <time>2022-10-04T08:30:08.149Z</time>
      </trkpt>
      <trkpt lat="45.258" lon="5.40462">
        <ele>533.126135</ele>
        <time>2022-10-04T08:30:13.152Z</time>
      </trkpt>
      <trkpt lat="45.2579" lon="5.40458">
        <ele>533.985603</ele>
        <time>2022-10-04T08:30:17.151Z</time>
      </trkpt>
      <trkpt lat="45.2578" lon="5.40453">
        <ele>534.843216</ele>
        <time>2022-10-04T08:30:21.150Z</time>
      </trkpt>
      <trkpt lat="45.25771" lon="5.40449">
        <ele>535.706504</ele>
        <time>2022-10-04T08:30:25.146Z</time>
      </trkpt>
      <trkpt lat="45.2576" lon="5.40443">
        <ele>536.660855</ele>
        <time>2022-10-04T08:30:29.152Z</time>
      </trkpt>
      <trkpt lat="45.2575" lon="5.40439">
        <ele>537.540703</ele>
        <time>2022-10-04T08:30:33.153Z</time>
      </trkpt>
      <trkpt lat="45.25741" lon="5.40436">
        <ele>538.148915</ele>
        <time>2022-10-04T08:30:37.154Z</time>
      </trkpt>
      <trkpt lat="45.2573" lon="5.40438">
        <ele>538.821602</ele>
        <time>2022-10-04T08:30:41.151Z</time>
      </trkpt>
      <trkpt lat="45.25719" lon="5.4044">
        <ele>539.54756</ele>
        <time>2022-10-04T08:30:46.154Z</time>
      </trkpt>
      <trkpt lat="45.25709" lon="5.4044">
        <ele>540.209275</ele>
        <time>2022-10-04T08:30:50.152Z</time>
      </trkpt>
      <trkpt lat="45.25699" lon="5.40441">
        <ele>540.864745</ele>
        <time>2022-10-04T08:30:54.152Z</time>
      </trkpt>
      <trkpt lat="45.25688" lon="5.40444">
        <ele>541.568734</ele>
        <time>2022-10-04T08:30:59.154Z</time>
      </trkpt>
      <trkpt lat="45.25678" lon="5.40444">
        <ele>542.210801</ele>
        <time>2022-10-04T08:31:03.152Z</time>
      </trkpt>
      <trkpt lat="45.25668" lon="5.40446">
        <ele>542.856412</ele>
        <time>2022-10-04T08:31:07.152Z</time>
      </trkpt>
      <trkpt lat="45.25661" lon="5.40457">
        <ele>543.526621</ele>
        <time>2022-10-04T08:31:12.162Z</time>
      </trkpt>
      <trkpt lat="45.25653" lon="5.40468">
        <ele>544.215063</ele>
        <time>2022-10-04T08:31:16.154Z</time>
      </trkpt>
      <trkpt lat="45.25647" lon="5.40479">
        <ele>544.856594</ele>
        <time>2022-10-04T08:31:20.151Z</time>
      </trkpt>
      <trkpt lat="45.25641" lon="5.4049">
        <ele>545.492722</ele>
        <time>2022-10-04T08:31:24.155Z</time>
      </trkpt>
      <trkpt lat="45.25636" lon="5.40502">
        <ele>546.08984</ele>
        <time>2022-10-04T08:31:28.152Z</time>
      </trkpt>
      <trkpt lat="45.25631" lon="5.40515">
        <ele>546.775362</ele>
        <time>2022-10-04T08:31:33.147Z</time>
      </trkpt>
      <trkpt lat="45.25623" lon="5.40524">
        <ele>547.437018</ele>
        <time>2022-10-04T08:31:37.150Z</time>
      </trkpt>
      <trkpt lat="45.25615" lon="5.40533">
        <ele>548.099595</ele>
        <time>2022-10-04T08:31:41.151Z</time>
      </trkpt>
      <trkpt lat="45.25606" lon="5.40543">
        <ele>548.801299</ele>
        <time>2022-10-04T08:31:45.155Z</time>
      </trkpt>
      <trkpt lat="45.25597" lon="5.40551">
        <ele>549.94096</ele>
        <time>2022-10-04T08:31:49.158Z</time>
      </trkpt>
      <trkpt lat="45.25587" lon="5.40557">
        <ele>551.386532</ele>
        <time>2022-10-04T08:31:53.157Z</time>
      </trkpt>
      <trkpt lat="45.25579" lon="5.40565">
        <ele>552.634352</ele>
        <time>2022-10-04T08:31:57.153Z</time>
      </trkpt>
      <trkpt lat="45.25571" lon="5.40574">
        <ele>554.087887</ele>
        <time>2022-10-04T08:32:02.150Z</time>
      </trkpt>
      <trkpt lat="45.25563" lon="5.40582">
        <ele>555.458224</ele>
        <time>2022-10-04T08:32:06.153Z</time>
      </trkpt>
      <trkpt lat="45.25555" lon="5.40593">
        <ele>556.968612</ele>
        <time>2022-10-04T08:32:11.153Z</time>
      </trkpt>
      <trkpt lat="45.25545" lon="5.40601">
        <ele>558.461541</ele>
        <time>2022-10-04T08:32:16.154Z</time>
      </trkpt>
      <trkpt lat="45.2554" lon="5.40612">
        <ele>559.729417</ele>
        <time>2022-10-04T08:32:20.149Z</time>
      </trkpt>
      <trkpt lat="45.25533" lon="5.40623">
        <ele>561.231803</ele>
        <time>2022-10-04T08:32:25.153Z</time>
      </trkpt>
      <trkpt lat="45.25524" lon="5.40634">
        <ele>562.804844</ele>
        <time>2022-10-04T08:32:30.145Z</time>
      </trkpt>
      <trkpt lat="45.25515" lon="5.4064">
        <ele>564.205647</ele>
        <time>2022-10-04T08:32:34.155Z</time>
      </trkpt>
      <trkpt lat="45.25505" lon="5.4064">
        <ele>565.538621</ele>
        <time>2022-10-04T08:32:38.162Z</time>
      </trkpt>
      <trkpt lat="45.25495" lon="5.40638">
        <ele>566.943999</ele>
        <time>2022-10-04T08:32:42.144Z</time>
      </trkpt>
      <trkpt lat="45.25485" lon="5.40637">
        <ele>568.223031</ele>
        <time>2022-10-04T08:32:46.147Z</time>
      </trkpt>
      <trkpt lat="45.25463" lon="5.40557">
        <ele>575.204506</ele>
        <time>2022-10-04T08:33:22.149Z</time>
      </trkpt>
      <trkpt lat="45.25463" lon="5.40544">
        <ele>575.917154</ele>
        <time>2022-10-04T08:33:26.154Z</time>
      </trkpt>
      <trkpt lat="45.25464" lon="5.40531">
        <ele>576.679225</ele>
        <time>2022-10-04T08:33:31.148Z</time>
      </trkpt>
      <trkpt lat="45.25465" lon="5.40517">
        <ele>577.40534</ele>
        <time>2022-10-04T08:33:35.151Z</time>
      </trkpt>
      <trkpt lat="45.25462" lon="5.40505">
        <ele>578.142032</ele>
        <time>2022-10-04T08:33:39.155Z</time>
      </trkpt>
      <trkpt lat="45.25456" lon="5.40494">
        <ele>578.905803</ele>
        <time>2022-10-04T08:33:43.154Z</time>
      </trkpt>
      <trkpt lat="45.25447" lon="5.40489">
        <ele>579.626321</ele>
        <time>2022-10-04T08:33:47.148Z</time>
      </trkpt>
      <trkpt lat="45.25436" lon="5.40492">
        <ele>580.533209</ele>
        <time>2022-10-04T08:33:51.155Z</time>
      </trkpt>
      <trkpt lat="45.25427" lon="5.405">
        <ele>581.359033</ele>
        <time>2022-10-04T08:33:55.153Z</time>
      </trkpt>
      <trkpt lat="45.2542" lon="5.4051">
        <ele>582.135726</ele>
        <time>2022-10-04T08:33:59.152Z</time>
      </trkpt>
      <trkpt lat="45.25414" lon="5.40521">
        <ele>582.912313</ele>
        <time>2022-10-04T08:34:03.152Z</time>
      </trkpt>
      <trkpt lat="45.25407" lon="5.40532">
        <ele>583.687896</ele>
        <time>2022-10-04T08:34:07.151Z</time>
      </trkpt>
      <trkpt lat="45.254" lon="5.40542">
        <ele>584.468661</ele>
        <time>2022-10-04T08:34:11.153Z</time>
      </trkpt>
      <trkpt lat="45.25394" lon="5.40554">
        <ele>585.266897</ele>
        <time>2022-10-04T08:34:15.153Z</time>
      </trkpt>
      <trkpt lat="45.25387" lon="5.40566">
        <ele>586.114484</ele>
        <time>2022-10-04T08:34:19.155Z</time>
      </trkpt>
      <trkpt lat="45.2538" lon="5.40578">
        <ele>586.979915</ele>
        <time>2022-10-04T08:34:23.152Z</time>
      </trkpt>
      <trkpt lat="45.25376" lon="5.40591">
        <ele>587.660502</ele>
        <time>2022-10-04T08:34:27.152Z</time>
      </trkpt>
      <trkpt lat="45.25372" lon="5.40605">
        <ele>588.07264</ele>
        <time>2022-10-04T08:34:31.153Z</time>
      </trkpt>
      <trkpt lat="45.25369" lon="5.40621">
        <ele>588.539991</ele>
        <time>2022-10-04T08:34:35.151Z</time>
      </trkpt>
      <trkpt lat="45.25366" lon="5.40635">
        <ele>588.935369</ele>
        <time>2022-10-04T08:34:38.154Z</time>
      </trkpt>
      <trkpt lat="45.25365" lon="5.4065">
        <ele>589.34281</ele>
        <time>2022-10-04T08:34:41.157Z</time>
      </trkpt>
      <trkpt lat="45.25362" lon="5.40664">
        <ele>589.742512</ele>
        <time>2022-10-04T08:34:44.150Z</time>
      </trkpt>
      <trkpt lat="45.25361" lon="5.40679">
        <ele>590.140602</ele>
        <time>2022-10-04T08:34:47.153Z</time>
      </trkpt>
      <trkpt lat="45.25359" lon="5.40693">
        <ele>590.525274</ele>
        <time>2022-10-04T08:34:50.151Z</time>
      </trkpt>
      <trkpt lat="45.25358" lon="5.40706">
        <ele>590.898538</ele>
        <time>2022-10-04T08:34:53.154Z</time>
      </trkpt>
      <trkpt lat="45.25355" lon="5.4072">
        <ele>591.292009</ele>
        <time>2022-10-04T08:34:56.154Z</time>
      </trkpt>
      <trkpt lat="45.25353" lon="5.40733">
        <ele>591.671568</ele>
        <time>2022-10-04T08:34:59.155Z</time>
      </trkpt>
      <trkpt lat="45.25369" lon="5.40767">
        <ele>592.792601</ele>
        <time>2022-10-04T08:43:01.156Z</time>
      </trkpt>
      <trkpt lat="45.25377" lon="5.40776">
        <ele>593.180016</ele>
        <time>2022-10-04T08:43:05.152Z</time>
      </trkpt>
      <trkpt lat="45.25387" lon="5.40783">
        <ele>593.603694</ele>
        <time>2022-10-04T08:43:09.153Z</time>
      </trkpt>
      <trkpt lat="45.25396" lon="5.4079">
        <ele>594.026765</ele>
        <time>2022-10-04T08:43:13.153Z</time>
      </trkpt>
      <trkpt lat="45.25404" lon="5.40795">
        <ele>594.375014</ele>
        <time>2022-10-04T08:43:34.154Z</time>
      </trkpt>
      <trkpt lat="45.25415" lon="5.40802">
        <ele>595.098728</ele>
        <time>2022-10-04T08:43:46.158Z</time>
      </trkpt>
      <trkpt lat="45.25424" lon="5.40805">
        <ele>595.861872</ele>
        <time>2022-10-04T08:43:49.153Z</time>
      </trkpt>
      <trkpt lat="45.25433" lon="5.4081">
        <ele>596.609369</ele>
        <time>2022-10-04T08:43:52.147Z</time>
      </trkpt>
      <trkpt lat="45.25442" lon="5.40814">
        <ele>597.355108</ele>
        <time>2022-10-04T08:43:55.160Z</time>
      </trkpt>
      <trkpt lat="45.25451" lon="5.4082">
        <ele>598.138467</ele>
        <time>2022-10-04T08:43:58.147Z</time>
      </trkpt>
      <trkpt lat="45.2546" lon="5.40824">
        <ele>598.8899</ele>
        <time>2022-10-04T08:44:01.150Z</time>
      </trkpt>
      <trkpt lat="45.2547" lon="5.40829">
        <ele>599.712165</ele>
        <time>2022-10-04T08:44:04.151Z</time>
      </trkpt>
      <trkpt lat="45.25481" lon="5.40835">
        <ele>600.676505</ele>
        <time>2022-10-04T08:44:08.158Z</time>
      </trkpt>
      <trkpt lat="45.25491" lon="5.40837">
        <ele>601.440929</ele>
        <time>2022-10-04T08:44:11.158Z</time>
      </trkpt>
      <trkpt lat="45.25502" lon="5.40839">
        <ele>602.294965</ele>
        <time>2022-10-04T08:44:14.150Z</time>
      </trkpt>
      <trkpt lat="45.25511" lon="5.40839">
        <ele>603.048523</ele>
        <time>2022-10-04T08:44:17.151Z</time>
      </trkpt>
      <trkpt lat="45.25523" lon="5.4084">
        <ele>603.986534</ele>
        <time>2022-10-04T08:44:21.152Z</time>
      </trkpt>
      <trkpt lat="45.25534" lon="5.4084">
        <ele>604.907278</ele>
        <time>2022-10-04T08:44:25.152Z</time>
      </trkpt>
      <trkpt lat="45.25544" lon="5.4084">
        <ele>605.637125</ele>
        <time>2022-10-04T08:44:28.164Z</time>
      </trkpt>
      <trkpt lat="45.25553" lon="5.40839">
        <ele>606.360335</ele>
        <time>2022-10-04T08:44:31.153Z</time>
      </trkpt>
      <trkpt lat="45.25564" lon="5.40835">
        <ele>607.303607</ele>
        <time>2022-10-04T08:44:35.149Z</time>
      </trkpt>
      <trkpt lat="45.25574" lon="5.40827">
        <ele>608.207612</ele>
        <time>2022-10-04T08:44:39.151Z</time>
      </trkpt>
      <trkpt lat="45.25583" lon="5.40816">
        <ele>608.983376</ele>
        <time>2022-10-04T08:44:43.152Z</time>
      </trkpt>
      <trkpt lat="45.25591" lon="5.40805">
        <ele>609.469347</ele>
        <time>2022-10-04T08:44:47.153Z</time>
      </trkpt>
      <trkpt lat="45.25599" lon="5.40799">
        <ele>609.854509</ele>
        <time>2022-10-04T08:44:50.151Z</time>
      </trkpt>
      <trkpt lat="45.2561" lon="5.40797">
        <ele>610.323601</ele>
        <time>2022-10-04T08:44:54.152Z</time>
      </trkpt>
      <trkpt lat="45.25621" lon="5.40803">
        <ele>610.807509</ele>
        <time>2022-10-04T08:44:58.152Z</time>
      </trkpt>
      <trkpt lat="45.2563" lon="5.40808">
        <ele>611.206054</ele>
        <time>2022-10-04T08:45:01.154Z</time>
      </trkpt>
      <trkpt lat="45.25637" lon="5.40818">
        <ele>611.625615</ele>
        <time>2022-10-04T08:45:04.154Z</time>
      </trkpt>
      <trkpt lat="45.25644" lon="5.40828">
        <ele>612.029128</ele>
        <time>2022-10-04T08:45:07.152Z</time>
      </trkpt>
      <trkpt lat="45.2565" lon="5.40842">
        <ele>612.534251</ele>
        <time>2022-10-04T08:45:11.155Z</time>
      </trkpt>
      <trkpt lat="45.25651" lon="5.40858">
        <ele>613.007527</ele>
        <time>2022-10-04T08:45:15.156Z</time>
      </trkpt>
      <trkpt lat="45.2565" lon="5.40872">
        <ele>613.413933</ele>
        <time>2022-10-04T08:45:19.158Z</time>
      </trkpt>
      <trkpt lat="45.25647" lon="5.40884">
        <ele>613.814169</ele>
        <time>2022-10-04T08:45:23.156Z</time>
      </trkpt>
      <trkpt lat="45.25643" lon="5.40897">
        <ele>614.242436</ele>
        <time>2022-10-04T08:45:27.154Z</time>
      </trkpt>
      <trkpt lat="45.25638" lon="5.4091">
        <ele>614.657497</ele>
        <time>2022-10-04T08:45:31.153Z</time>
      </trkpt>
      <trkpt lat="45.25634" lon="5.40923">
        <ele>615.087796</ele>
        <time>2022-10-04T08:45:35.154Z</time>
      </trkpt>
      <trkpt lat="45.25631" lon="5.40937">
        <ele>615.518597</ele>
        <time>2022-10-04T08:45:39.151Z</time>
      </trkpt>
      <trkpt lat="45.25626" lon="5.4095">
        <ele>615.965919</ele>
        <time>2022-10-04T08:45:43.155Z</time>
      </trkpt>
      <trkpt lat="45.25621" lon="5.40963">
        <ele>616.390851</ele>
        <time>2022-10-04T08:45:47.152Z</time>
      </trkpt>
      <trkpt lat="45.25617" lon="5.40977">
        <ele>616.807241</ele>
        <time>2022-10-04T08:45:51.157Z</time>
      </trkpt>
      <trkpt lat="45.25613" lon="5.4099">
        <ele>617.203777</ele>
        <time>2022-10-04T08:45:55.156Z</time>
      </trkpt>
      <trkpt lat="45.25609" lon="5.41003">
        <ele>617.600187</ele>
        <time>2022-10-04T08:45:59.155Z</time>
      </trkpt>
      <trkpt lat="45.25606" lon="5.41017">
        <ele>618.000903</ele>
        <time>2022-10-04T08:46:03.155Z</time>
      </trkpt>
      <trkpt lat="45.25604" lon="5.41032">
        <ele>618.411345</ele>
        <time>2022-10-04T08:46:07.154Z</time>
      </trkpt>
      <trkpt lat="45.25603" lon="5.41046">
        <ele>618.787128</ele>
        <time>2022-10-04T08:46:11.153Z</time>
      </trkpt>
      <trkpt lat="45.25602" lon="5.4106">
        <ele>619.182712</ele>
        <time>2022-10-04T08:46:15.153Z</time>
      </trkpt>
      <trkpt lat="45.25603" lon="5.41074">
        <ele>619.568497</ele>
        <time>2022-10-04T08:46:19.153Z</time>
      </trkpt>
      <trkpt lat="45.25601" lon="5.41089">
        <ele>619.971306</ele>
        <time>2022-10-04T08:46:23.152Z</time>
      </trkpt>
      <trkpt lat="45.25593" lon="5.411">
        <ele>620.404096</ele>
        <time>2022-10-04T08:46:27.154Z</time>
      </trkpt>
      <trkpt lat="45.25585" lon="5.41109">
        <ele>620.78694</ele>
        <time>2022-10-04T08:46:30.156Z</time>
      </trkpt>
      <trkpt lat="45.25575" lon="5.4112">
        <ele>621.286879</ele>
        <time>2022-10-04T08:46:33.153Z</time>
      </trkpt>
      <trkpt lat="45.25569" lon="5.41133">
        <ele>621.720173</ele>
        <time>2022-10-04T08:46:35.151Z</time>
      </trkpt>
      <trkpt lat="45.25564" lon="5.41149">
        <ele>622.198353</ele>
        <time>2022-10-04T08:46:37.154Z</time>
      </trkpt>
      <trkpt lat="45.2556" lon="5.41167">
        <ele>622.71126</ele>
        <time>2022-10-04T08:46:39.149Z</time>
      </trkpt>
      <trkpt lat="45.25556" lon="5.41186">
        <ele>623.249682</ele>
        <time>2022-10-04T08:46:41.154Z</time>
      </trkpt>
      <trkpt lat="45.25551" lon="5.41205">
        <ele>622.424964</ele>
        <time>2022-10-04T08:46:43.152Z</time>
      </trkpt>
      <trkpt lat="45.25548" lon="5.41224">
        <ele>621.090232</ele>
        <time>2022-10-04T08:46:45.155Z</time>
      </trkpt>
      <trkpt lat="45.25545" lon="5.41245">
        <ele>619.685674</ele>
        <time>2022-10-04T08:46:47.158Z</time>
      </trkpt>
      <trkpt lat="45.25543" lon="5.41266">
        <ele>618.234637</ele>
        <time>2022-10-04T08:46:49.156Z</time>
      </trkpt>
      <trkpt lat="45.2554" lon="5.41288">
        <ele>616.72247</ele>
        <time>2022-10-04T08:46:51.153Z</time>
      </trkpt>
      <trkpt lat="45.2554" lon="5.41312">
        <ele>615.118219</ele>
        <time>2022-10-04T08:46:53.152Z</time>
      </trkpt>
      <trkpt lat="45.25539" lon="5.41336">
        <ele>613.491753</ele>
        <time>2022-10-04T08:46:55.153Z</time>
      </trkpt>
      <trkpt lat="45.25537" lon="5.41362">
        <ele>611.782353</ele>
        <time>2022-10-04T08:46:57.155Z</time>
      </trkpt>
      <trkpt lat="45.25537" lon="5.41375">
        <ele>610.923499</ele>
        <time>2022-10-04T08:46:58.153Z</time>
      </trkpt>
      <trkpt lat="45.25536" lon="5.414">
        <ele>609.239234</ele>
        <time>2022-10-04T08:47:00.153Z</time>
      </trkpt>
      <trkpt lat="45.25536" lon="5.41425">
        <ele>607.508106</ele>
        <time>2022-10-04T08:47:02.154Z</time>
      </trkpt>
      <trkpt lat="45.25535" lon="5.41439">
        <ele>606.620622</ele>
        <time>2022-10-04T08:47:03.153Z</time>
      </trkpt>
      <trkpt lat="45.25535" lon="5.41452">
        <ele>605.90149</ele>
        <time>2022-10-04T08:47:04.154Z</time>
      </trkpt>
      <trkpt lat="45.25535" lon="5.41465">
        <ele>605.360391</ele>
        <time>2022-10-04T08:47:05.155Z</time>
      </trkpt>
      <trkpt lat="45.25534" lon="5.41479">
        <ele>604.785771</ele>
        <time>2022-10-04T08:47:06.153Z</time>
      </trkpt>
      <trkpt lat="45.25533" lon="5.41493">
        <ele>604.212807</ele>
        <time>2022-10-04T08:47:07.153Z</time>
      </trkpt>
      <trkpt lat="45.25533" lon="5.41517">
        <ele>603.176698</ele>
        <time>2022-10-04T08:47:09.153Z</time>
      </trkpt>
      <trkpt lat="45.25535" lon="5.4153">
        <ele>602.629505</ele>
        <time>2022-10-04T08:47:10.153Z</time>
      </trkpt>
      <trkpt lat="45.25537" lon="5.41544">
        <ele>602.01586</ele>
        <time>2022-10-04T08:47:11.154Z</time>
      </trkpt>
      <trkpt lat="45.25544" lon="5.41568">
        <ele>600.91886</ele>
        <time>2022-10-04T08:47:13.160Z</time>
      </trkpt>
      <trkpt lat="45.25549" lon="5.4158">
        <ele>600.359057</ele>
        <time>2022-10-04T08:47:14.153Z</time>
      </trkpt>
      <trkpt lat="45.25561" lon="5.41599">
        <ele>599.276914</ele>
        <time>2022-10-04T08:47:16.151Z</time>
      </trkpt>
      <trkpt lat="45.25568" lon="5.41608">
        <ele>598.729103</ele>
        <time>2022-10-04T08:47:17.150Z</time>
      </trkpt>
      <trkpt lat="45.25575" lon="5.41617">
        <ele>598.175198</ele>
        <time>2022-10-04T08:47:18.163Z</time>
      </trkpt>
      <trkpt lat="45.25582" lon="5.41626">
        <ele>597.605703</ele>
        <time>2022-10-04T08:47:19.148Z</time>
      </trkpt>
      <trkpt lat="45.2559" lon="5.41635">
        <ele>597.017161</ele>
        <time>2022-10-04T08:47:20.151Z</time>
      </trkpt>
      <trkpt lat="45.25597" lon="5.41644">
        <ele>596.437014</ele>
        <time>2022-10-04T08:47:21.154Z</time>
      </trkpt>
      <trkpt lat="45.25612" lon="5.4166">
        <ele>595.685173</ele>
        <time>2022-10-04T08:47:23.153Z</time>
      </trkpt>
      <trkpt lat="45.25626" lon="5.41677">
        <ele>596.357241</ele>
        <time>2022-10-04T08:47:25.151Z</time>
      </trkpt>
      <trkpt lat="45.25632" lon="5.417">
        <ele>596.986513</ele>
        <time>2022-10-04T08:47:27.154Z</time>
      </trkpt>
      <trkpt lat="45.25634" lon="5.41714">
        <ele>597.320819</ele>
        <time>2022-10-04T08:47:28.158Z</time>
      </trkpt>
      <trkpt lat="45.25633" lon="5.41727">
        <ele>597.651053</ele>
        <time>2022-10-04T08:47:29.158Z</time>
      </trkpt>
      <trkpt lat="45.25633" lon="5.41739">
        <ele>597.977582</ele>
        <time>2022-10-04T08:47:30.158Z</time>
      </trkpt>
      <trkpt lat="45.25633" lon="5.41752">
        <ele>598.301819</ele>
        <time>2022-10-04T08:47:31.151Z</time>
      </trkpt>
      <trkpt lat="45.25634" lon="5.41765">
        <ele>598.629533</ele>
        <time>2022-10-04T08:47:32.151Z</time>
      </trkpt>
      <trkpt lat="45.25634" lon="5.4179">
        <ele>599.259656</ele>
        <time>2022-10-04T08:47:34.153Z</time>
      </trkpt>
      <trkpt lat="45.25635" lon="5.41804">
        <ele>599.609023</ele>
        <time>2022-10-04T08:47:35.171Z</time>
      </trkpt>
      <trkpt lat="45.25636" lon="5.41817">
        <ele>599.952542</ele>
        <time>2022-10-04T08:47:36.155Z</time>
      </trkpt>
      <trkpt lat="45.25637" lon="5.4183">
        <ele>600.279703</ele>
        <time>2022-10-04T08:47:37.154Z</time>
      </trkpt>
      <trkpt lat="45.25637" lon="5.41843">
        <ele>600.614439</ele>
        <time>2022-10-04T08:47:38.150Z</time>
      </trkpt>
      <trkpt lat="45.25639" lon="5.41857">
        <ele>600.96088</ele>
        <time>2022-10-04T08:47:39.153Z</time>
      </trkpt>
      <trkpt lat="45.2564" lon="5.41871">
        <ele>601.31481</ele>
        <time>2022-10-04T08:47:40.151Z</time>
      </trkpt>
      <trkpt lat="45.25641" lon="5.41884">
        <ele>601.657368</ele>
        <time>2022-10-04T08:47:41.154Z</time>
      </trkpt>
      <trkpt lat="45.25643" lon="5.41909">
        <ele>601.710011</ele>
        <time>2022-10-04T08:47:43.153Z</time>
      </trkpt>
      <trkpt lat="45.25647" lon="5.41934">
        <ele>601.018549</ele>
        <time>2022-10-04T08:47:45.149Z</time>
      </trkpt>
      <trkpt lat="45.25649" lon="5.41948">
        <ele>600.630111</ele>
        <time>2022-10-04T08:47:46.154Z</time>
      </trkpt>
      <trkpt lat="45.25651" lon="5.41961">
        <ele>600.272953</ele>
        <time>2022-10-04T08:47:47.151Z</time>
      </trkpt>
      <trkpt lat="45.25653" lon="5.41974">
        <ele>599.920189</ele>
        <time>2022-10-04T08:47:48.151Z</time>
      </trkpt>
      <trkpt lat="45.25656" lon="5.41986">
        <ele>599.554498</ele>
        <time>2022-10-04T08:47:49.150Z</time>
      </trkpt>
      <trkpt lat="45.25662" lon="5.42011">
        <ele>598.839763</ele>
        <time>2022-10-04T08:47:51.151Z</time>
      </trkpt>
      <trkpt lat="45.25667" lon="5.42024">
        <ele>598.45902</ele>
        <time>2022-10-04T08:47:52.156Z</time>
      </trkpt>
      <trkpt lat="45.25674" lon="5.42046">
        <ele>597.784766</ele>
        <time>2022-10-04T08:47:54.151Z</time>
      </trkpt>
      <trkpt lat="45.25677" lon="5.42059">
        <ele>597.434051</ele>
        <time>2022-10-04T08:47:55.150Z</time>
      </trkpt>
      <trkpt lat="45.25681" lon="5.42071">
        <ele>597.065905</ele>
        <time>2022-10-04T08:47:56.150Z</time>
      </trkpt>
      <trkpt lat="45.25684" lon="5.42083">
        <ele>596.715751</ele>
        <time>2022-10-04T08:47:57.154Z</time>
      </trkpt>
      <trkpt lat="45.25689" lon="5.42096">
        <ele>596.336188</ele>
        <time>2022-10-04T08:47:58.158Z</time>
      </trkpt>
      <trkpt lat="45.25692" lon="5.42108">
        <ele>595.972603</ele>
        <time>2022-10-04T08:47:59.153Z</time>
      </trkpt>
      <trkpt lat="45.25696" lon="5.4212">
        <ele>595.617491</ele>
        <time>2022-10-04T08:48:00.151Z</time>
      </trkpt>
      <trkpt lat="45.257" lon="5.42132">
        <ele>595.250731</ele>
        <time>2022-10-04T08:48:01.155Z</time>
      </trkpt>
      <trkpt lat="45.25705" lon="5.42144">
        <ele>594.734335</ele>
        <time>2022-10-04T08:48:02.155Z</time>
      </trkpt>
      <trkpt lat="45.25711" lon="5.42167">
        <ele>593.444958</ele>
        <time>2022-10-04T08:48:04.151Z</time>
      </trkpt>
      <trkpt lat="45.25713" lon="5.42179">
        <ele>592.79226</ele>
        <time>2022-10-04T08:48:05.151Z</time>
      </trkpt>
      <trkpt lat="45.25714" lon="5.42192">
        <ele>592.131284</ele>
        <time>2022-10-04T08:48:06.158Z</time>
      </trkpt>
      <trkpt lat="45.25716" lon="5.42206">
        <ele>591.424967</ele>
        <time>2022-10-04T08:48:07.153Z</time>
      </trkpt>
      <trkpt lat="45.25718" lon="5.42219">
        <ele>590.729258</ele>
        <time>2022-10-04T08:48:08.150Z</time>
      </trkpt>
      <trkpt lat="45.25721" lon="5.42232">
        <ele>590.049281</ele>
        <time>2022-10-04T08:48:09.153Z</time>
      </trkpt>
      <trkpt lat="45.25724" lon="5.42245">
        <ele>589.329346</ele>
        <time>2022-10-04T08:48:10.153Z</time>
      </trkpt>
      <trkpt lat="45.25727" lon="5.42259">
        <ele>588.587904</ele>
        <time>2022-10-04T08:48:11.153Z</time>
      </trkpt>
      <trkpt lat="45.2573" lon="5.42272">
        <ele>587.914819</ele>
        <time>2022-10-04T08:48:12.154Z</time>
      </trkpt>
      <trkpt lat="45.25733" lon="5.42284">
        <ele>587.217993</ele>
        <time>2022-10-04T08:48:13.153Z</time>
      </trkpt>
      <trkpt lat="45.25741" lon="5.42308">
        <ele>585.899335</ele>
        <time>2022-10-04T08:48:15.153Z</time>
      </trkpt>
      <trkpt lat="45.25746" lon="5.42321">
        <ele>585.159094</ele>
        <time>2022-10-04T08:48:16.150Z</time>
      </trkpt>
      <trkpt lat="45.2575" lon="5.42332">
        <ele>584.486538</ele>
        <time>2022-10-04T08:48:17.154Z</time>
      </trkpt>
      <trkpt lat="45.25756" lon="5.42344">
        <ele>583.772814</ele>
        <time>2022-10-04T08:48:18.154Z</time>
      </trkpt>
      <trkpt lat="45.25761" lon="5.42356">
        <ele>583.070417</ele>
        <time>2022-10-04T08:48:19.150Z</time>
      </trkpt>
      <trkpt lat="45.25765" lon="5.42367">
        <ele>582.417376</ele>
        <time>2022-10-04T08:48:20.156Z</time>
      </trkpt>
      <trkpt lat="45.25773" lon="5.4239">
        <ele>581.721008</ele>
        <time>2022-10-04T08:48:22.151Z</time>
      </trkpt>
      <trkpt lat="45.25776" lon="5.42403">
        <ele>581.493898</ele>
        <time>2022-10-04T08:48:23.150Z</time>
      </trkpt>
      <trkpt lat="45.25783" lon="5.42426">
        <ele>581.05418</ele>
        <time>2022-10-04T08:48:25.151Z</time>
      </trkpt>
      <trkpt lat="45.25785" lon="5.42439">
        <ele>580.829426</ele>
        <time>2022-10-04T08:48:26.153Z</time>
      </trkpt>
      <trkpt lat="45.25789" lon="5.42452">
        <ele>580.596617</ele>
        <time>2022-10-04T08:48:27.153Z</time>
      </trkpt>
      <trkpt lat="45.25791" lon="5.42464">
        <ele>580.362897</ele>
        <time>2022-10-04T08:48:28.151Z</time>
      </trkpt>
      <trkpt lat="45.25793" lon="5.42477">
        <ele>580.141656</ele>
        <time>2022-10-04T08:48:29.153Z</time>
      </trkpt>
      <trkpt lat="45.25795" lon="5.4249">
        <ele>579.906144</ele>
        <time>2022-10-04T08:48:30.159Z</time>
      </trkpt>
      <trkpt lat="45.25796" lon="5.42504">
        <ele>579.668924</ele>
        <time>2022-10-04T08:48:31.157Z</time>
      </trkpt>
      <trkpt lat="45.258" lon="5.42529">
        <ele>579.234293</ele>
        <time>2022-10-04T08:48:33.153Z</time>
      </trkpt>
      <trkpt lat="45.25808" lon="5.42551">
        <ele>578.803425</ele>
        <time>2022-10-04T08:48:35.148Z</time>
      </trkpt>
      <trkpt lat="45.25812" lon="5.42563">
        <ele>578.580835</ele>
        <time>2022-10-04T08:48:36.149Z</time>
      </trkpt>
      <trkpt lat="45.25821" lon="5.42585">
        <ele>578.13703</ele>
        <time>2022-10-04T08:48:38.153Z</time>
      </trkpt>
      <trkpt lat="45.25827" lon="5.42596">
        <ele>577.884397</ele>
        <time>2022-10-04T08:48:39.151Z</time>
      </trkpt>
      <trkpt lat="45.25833" lon="5.42608">
        <ele>577.644267</ele>
        <time>2022-10-04T08:48:40.151Z</time>
      </trkpt>
      <trkpt lat="45.25842" lon="5.4263">
        <ele>577.327775</ele>
        <time>2022-10-04T08:48:42.151Z</time>
      </trkpt>
      <trkpt lat="45.25847" lon="5.42642">
        <ele>577.158593</ele>
        <time>2022-10-04T08:48:43.150Z</time>
      </trkpt>
      <trkpt lat="45.25853" lon="5.42654">
        <ele>576.982557</ele>
        <time>2022-10-04T08:48:44.154Z</time>
      </trkpt>
      <trkpt lat="45.25858" lon="5.42665">
        <ele>576.818512</ele>
        <time>2022-10-04T08:48:45.154Z</time>
      </trkpt>
      <trkpt lat="45.25863" lon="5.42677">
        <ele>576.650251</ele>
        <time>2022-10-04T08:48:46.156Z</time>
      </trkpt>
      <trkpt lat="45.25868" lon="5.42689">
        <ele>576.480804</ele>
        <time>2022-10-04T08:48:47.156Z</time>
      </trkpt>
      <trkpt lat="45.25874" lon="5.427">
        <ele>576.308784</ele>
        <time>2022-10-04T08:48:48.150Z</time>
      </trkpt>
      <trkpt lat="45.25882" lon="5.42723">
        <ele>575.995981</ele>
        <time>2022-10-04T08:48:50.151Z</time>
      </trkpt>
      <trkpt lat="45.25888" lon="5.42734">
        <ele>575.826012</ele>
        <time>2022-10-04T08:48:51.155Z</time>
      </trkpt>
      <trkpt lat="45.25894" lon="5.42746">
        <ele>575.652039</ele>
        <time>2022-10-04T08:48:52.150Z</time>
      </trkpt>
      <trkpt lat="45.25899" lon="5.42758">
        <ele>575.475071</ele>
        <time>2022-10-04T08:48:53.150Z</time>
      </trkpt>
      <trkpt lat="45.25908" lon="5.42778">
        <ele>575.183701</ele>
        <time>2022-10-04T08:48:55.155Z</time>
      </trkpt>
      <trkpt lat="45.25919" lon="5.42799">
        <ele>574.873756</ele>
        <time>2022-10-04T08:48:57.156Z</time>
      </trkpt>
      <trkpt lat="45.25925" lon="5.4281">
        <ele>574.688244</ele>
        <time>2022-10-04T08:48:58.150Z</time>
      </trkpt>
      <trkpt lat="45.25931" lon="5.42822">
        <ele>574.514272</ele>
        <time>2022-10-04T08:48:59.154Z</time>
      </trkpt>
      <trkpt lat="45.25937" lon="5.42833">
        <ele>574.156107</ele>
        <time>2022-10-04T08:49:00.151Z</time>
      </trkpt>
      <trkpt lat="45.25942" lon="5.42845">
        <ele>573.803027</ele>
        <time>2022-10-04T08:49:01.150Z</time>
      </trkpt>
      <trkpt lat="45.25946" lon="5.42857">
        <ele>573.45521</ele>
        <time>2022-10-04T08:49:02.151Z</time>
      </trkpt>
      <trkpt lat="45.25949" lon="5.42869">
        <ele>573.120819</ele>
        <time>2022-10-04T08:49:03.154Z</time>
      </trkpt>
      <trkpt lat="45.25954" lon="5.42894">
        <ele>572.445591</ele>
        <time>2022-10-04T08:49:05.151Z</time>
      </trkpt>
      <trkpt lat="45.25955" lon="5.42908">
        <ele>572.100223</ele>
        <time>2022-10-04T08:49:06.155Z</time>
      </trkpt>
      <trkpt lat="45.25956" lon="5.42921">
        <ele>571.762217</ele>
        <time>2022-10-04T08:49:07.151Z</time>
      </trkpt>
      <trkpt lat="45.25956" lon="5.42934">
        <ele>571.425815</ele>
        <time>2022-10-04T08:49:08.153Z</time>
      </trkpt>
      <trkpt lat="45.25953" lon="5.42959">
        <ele>570.765771</ele>
        <time>2022-10-04T08:49:10.149Z</time>
      </trkpt>
      <trkpt lat="45.25953" lon="5.42984">
        <ele>570.097929</ele>
        <time>2022-10-04T08:49:12.150Z</time>
      </trkpt>
      <trkpt lat="45.25953" lon="5.42998">
        <ele>569.756351</ele>
        <time>2022-10-04T08:49:13.150Z</time>
      </trkpt>
      <trkpt lat="45.25954" lon="5.4301">
        <ele>569.422685</ele>
        <time>2022-10-04T08:49:14.151Z</time>
      </trkpt>
      <trkpt lat="45.25957" lon="5.43023">
        <ele>569.06868</ele>
        <time>2022-10-04T08:49:15.158Z</time>
      </trkpt>
      <trkpt lat="45.25966" lon="5.43044">
        <ele>568.435932</ele>
        <time>2022-10-04T08:49:17.151Z</time>
      </trkpt>
      <trkpt lat="45.25972" lon="5.43055">
        <ele>568.094625</ele>
        <time>2022-10-04T08:49:18.150Z</time>
      </trkpt>
      <trkpt lat="45.25977" lon="5.43065">
        <ele>567.735639</ele>
        <time>2022-10-04T08:49:19.153Z</time>
      </trkpt>
      <trkpt lat="45.25983" lon="5.43076">
        <ele>567.372743</ele>
        <time>2022-10-04T08:49:20.150Z</time>
      </trkpt>
      <trkpt lat="45.25989" lon="5.43086">
        <ele>567.00813</ele>
        <time>2022-10-04T08:49:21.153Z</time>
      </trkpt>
      <trkpt lat="45.25996" lon="5.43094">
        <ele>566.634578</ele>
        <time>2022-10-04T08:49:22.154Z</time>
      </trkpt>
      <trkpt lat="45.26013" lon="5.43109">
        <ele>565.866761</ele>
        <time>2022-10-04T08:49:24.157Z</time>
      </trkpt>
      <trkpt lat="45.26021" lon="5.43116">
        <ele>565.474372</ele>
        <time>2022-10-04T08:49:25.156Z</time>
      </trkpt>
      <trkpt lat="45.26029" lon="5.43124">
        <ele>565.07674</ele>
        <time>2022-10-04T08:49:26.154Z</time>
      </trkpt>
      <trkpt lat="45.26037" lon="5.43132">
        <ele>564.706009</ele>
        <time>2022-10-04T08:49:27.151Z</time>
      </trkpt>
      <trkpt lat="45.26044" lon="5.43142">
        <ele>564.311288</ele>
        <time>2022-10-04T08:49:28.151Z</time>
      </trkpt>
      <trkpt lat="45.26051" lon="5.43152">
        <ele>563.899392</ele>
        <time>2022-10-04T08:49:29.151Z</time>
      </trkpt>
      <trkpt lat="45.26058" lon="5.43162">
        <ele>563.518832</ele>
        <time>2022-10-04T08:49:30.153Z</time>
      </trkpt>
      <trkpt lat="45.26065" lon="5.43172">
        <ele>563.131111</ele>
        <time>2022-10-04T08:49:31.156Z</time>
      </trkpt>
      <trkpt lat="45.26071" lon="5.43181">
        <ele>562.765429</ele>
        <time>2022-10-04T08:49:32.153Z</time>
      </trkpt>
      <trkpt lat="45.26078" lon="5.43191">
        <ele>562.392949</ele>
        <time>2022-10-04T08:49:33.154Z</time>
      </trkpt>
      <trkpt lat="45.26085" lon="5.43217">
        <ele>561.625732</ele>
        <time>2022-10-04T08:49:35.156Z</time>
      </trkpt>
      <trkpt lat="45.26086" lon="5.43231">
        <ele>561.227442</ele>
        <time>2022-10-04T08:49:36.158Z</time>
      </trkpt>
      <trkpt lat="45.26086" lon="5.43244">
        <ele>560.853438</ele>
        <time>2022-10-04T08:49:37.155Z</time>
      </trkpt>
      <trkpt lat="45.26083" lon="5.43269">
        <ele>558.494692</ele>
        <time>2022-10-04T08:49:39.159Z</time>
      </trkpt>
      <trkpt lat="45.2608" lon="5.43282">
        <ele>557.156987</ele>
        <time>2022-10-04T08:49:40.154Z</time>
      </trkpt>
      <trkpt lat="45.26079" lon="5.43307">
        <ele>554.637709</ele>
        <time>2022-10-04T08:49:42.154Z</time>
      </trkpt>
      <trkpt lat="45.26076" lon="5.4333">
        <ele>552.294079</ele>
        <time>2022-10-04T08:49:44.151Z</time>
      </trkpt>
      <trkpt lat="45.2608" lon="5.43353">
        <ele>549.878913</ele>
        <time>2022-10-04T08:49:46.157Z</time>
      </trkpt>
      <trkpt lat="45.2609" lon="5.43369">
        <ele>547.727346</ele>
        <time>2022-10-04T08:49:48.156Z</time>
      </trkpt>
      <trkpt lat="45.26106" lon="5.43378">
        <ele>545.288172</ele>
        <time>2022-10-04T08:49:50.174Z</time>
      </trkpt>
      <trkpt lat="45.26115" lon="5.43382">
        <ele>543.94199</ele>
        <time>2022-10-04T08:49:51.159Z</time>
      </trkpt>
      <trkpt lat="45.26124" lon="5.43385">
        <ele>542.651798</ele>
        <time>2022-10-04T08:49:52.164Z</time>
      </trkpt>
      <trkpt lat="45.26133" lon="5.43388">
        <ele>541.236306</ele>
        <time>2022-10-04T08:49:53.151Z</time>
      </trkpt>
      <trkpt lat="45.26152" lon="5.43396">
        <ele>538.524343</ele>
        <time>2022-10-04T08:49:55.159Z</time>
      </trkpt>
      <trkpt lat="45.26171" lon="5.43396">
        <ele>535.805573</ele>
        <time>2022-10-04T08:49:57.151Z</time>
      </trkpt>
      <trkpt lat="45.2618" lon="5.43396">
        <ele>535.19739</ele>
        <time>2022-10-04T08:49:58.158Z</time>
      </trkpt>
      <trkpt lat="45.2619" lon="5.43395">
        <ele>535.672856</ele>
        <time>2022-10-04T08:49:59.153Z</time>
      </trkpt>
      <trkpt lat="45.26201" lon="5.43395">
        <ele>536.143872</ele>
        <time>2022-10-04T08:50:00.175Z</time>
      </trkpt>
      <trkpt lat="45.26211" lon="5.43398">
        <ele>536.594111</ele>
        <time>2022-10-04T08:50:01.159Z</time>
      </trkpt>
      <trkpt lat="45.2622" lon="5.43402">
        <ele>537.020306</ele>
        <time>2022-10-04T08:50:02.159Z</time>
      </trkpt>
      <trkpt lat="45.26229" lon="5.43411">
        <ele>537.487154</ele>
        <time>2022-10-04T08:50:03.158Z</time>
      </trkpt>
      <trkpt lat="45.26242" lon="5.43429">
        <ele>538.286209</ele>
        <time>2022-10-04T08:50:05.163Z</time>
      </trkpt>
      <trkpt lat="45.26251" lon="5.43437">
        <ele>538.738447</ele>
        <time>2022-10-04T08:50:06.149Z</time>
      </trkpt>
      <trkpt lat="45.2626" lon="5.43445">
        <ele>539.202013</ele>
        <time>2022-10-04T08:50:07.148Z</time>
      </trkpt>
      <trkpt lat="45.26275" lon="5.43456">
        <ele>539.983169</ele>
        <time>2022-10-04T08:50:09.149Z</time>
      </trkpt>
      <trkpt lat="45.26285" lon="5.43461">
        <ele>540.426065</ele>
        <time>2022-10-04T08:50:10.149Z</time>
      </trkpt>
      <trkpt lat="45.26294" lon="5.43466">
        <ele>540.866849</ele>
        <time>2022-10-04T08:50:11.151Z</time>
      </trkpt>
      <trkpt lat="45.26304" lon="5.4347">
        <ele>541.302479</ele>
        <time>2022-10-04T08:50:12.156Z</time>
      </trkpt>
      <trkpt lat="45.26314" lon="5.43475">
        <ele>541.767067</ele>
        <time>2022-10-04T08:50:13.153Z</time>
      </trkpt>
      <trkpt lat="45.26331" lon="5.43486">
        <ele>542.600387</ele>
        <time>2022-10-04T08:50:15.153Z</time>
      </trkpt>
      <trkpt lat="45.2634" lon="5.43492">
        <ele>542.872046</ele>
        <time>2022-10-04T08:50:16.154Z</time>
      </trkpt>
      <trkpt lat="45.2635" lon="5.43501">
        <ele>542.414809</ele>
        <time>2022-10-04T08:50:17.153Z</time>
      </trkpt>
      <trkpt lat="45.26357" lon="5.43508">
        <ele>542.053051</ele>
        <time>2022-10-04T08:50:18.153Z</time>
      </trkpt>
      <trkpt lat="45.2637" lon="5.4352">
        <ele>541.449745</ele>
        <time>2022-10-04T08:50:20.154Z</time>
      </trkpt>
      <trkpt lat="45.26381" lon="5.4352">
        <ele>541.027592</ele>
        <time>2022-10-04T08:50:21.154Z</time>
      </trkpt>
      <trkpt lat="45.2639" lon="5.43517">
        <ele>540.66235</ele>
        <time>2022-10-04T08:50:22.164Z</time>
      </trkpt>
      <trkpt lat="45.26398" lon="5.43512">
        <ele>540.303615</ele>
        <time>2022-10-04T08:50:23.154Z</time>
      </trkpt>
      <trkpt lat="45.26415" lon="5.43504">
        <ele>539.61881</ele>
        <time>2022-10-04T08:50:25.153Z</time>
      </trkpt>
      <trkpt lat="45.26424" lon="5.43502">
        <ele>539.23759</ele>
        <time>2022-10-04T08:50:26.153Z</time>
      </trkpt>
      <trkpt lat="45.26434" lon="5.43506">
        <ele>538.852715</ele>
        <time>2022-10-04T08:50:27.153Z</time>
      </trkpt>
      <trkpt lat="45.26443" lon="5.43512">
        <ele>538.442685</ele>
        <time>2022-10-04T08:50:28.154Z</time>
      </trkpt>
      <trkpt lat="45.26451" lon="5.43521">
        <ele>538.061214</ele>
        <time>2022-10-04T08:50:29.153Z</time>
      </trkpt>
      <trkpt lat="45.26457" lon="5.43531">
        <ele>537.692779</ele>
        <time>2022-10-04T08:50:30.155Z</time>
      </trkpt>
      <trkpt lat="45.26463" lon="5.43542">
        <ele>537.292858</ele>
        <time>2022-10-04T08:50:31.149Z</time>
      </trkpt>
      <trkpt lat="45.26469" lon="5.43552">
        <ele>536.935296</ele>
        <time>2022-10-04T08:50:32.151Z</time>
      </trkpt>
      <trkpt lat="45.26475" lon="5.43564">
        <ele>536.533425</ele>
        <time>2022-10-04T08:50:33.154Z</time>
      </trkpt>
      <trkpt lat="45.26481" lon="5.43574">
        <ele>536.157988</ele>
        <time>2022-10-04T08:50:34.154Z</time>
      </trkpt>
      <trkpt lat="45.26487" lon="5.43585">
        <ele>535.789013</ele>
        <time>2022-10-04T08:50:35.152Z</time>
      </trkpt>
      <trkpt lat="45.26496" lon="5.43594">
        <ele>535.46887</ele>
        <time>2022-10-04T08:50:36.153Z</time>
      </trkpt>
      <trkpt lat="45.26505" lon="5.43602">
        <ele>535.161863</ele>
        <time>2022-10-04T08:50:37.150Z</time>
      </trkpt>
      <trkpt lat="45.26514" lon="5.43611">
        <ele>534.836071</ele>
        <time>2022-10-04T08:50:38.152Z</time>
      </trkpt>
      <trkpt lat="45.26523" lon="5.4362">
        <ele>534.527953</ele>
        <time>2022-10-04T08:50:39.153Z</time>
      </trkpt>
      <trkpt lat="45.26532" lon="5.43628">
        <ele>534.23153</ele>
        <time>2022-10-04T08:50:40.155Z</time>
      </trkpt>
      <trkpt lat="45.26541" lon="5.43637">
        <ele>533.917468</ele>
        <time>2022-10-04T08:50:41.152Z</time>
      </trkpt>
      <trkpt lat="45.26549" lon="5.43645">
        <ele>533.617518</ele>
        <time>2022-10-04T08:50:42.148Z</time>
      </trkpt>
      <trkpt lat="45.26558" lon="5.43653">
        <ele>533.320947</ele>
        <time>2022-10-04T08:50:43.153Z</time>
      </trkpt>
      <trkpt lat="45.26567" lon="5.43662">
        <ele>533.001056</ele>
        <time>2022-10-04T08:50:44.153Z</time>
      </trkpt>
      <trkpt lat="45.26576" lon="5.43672">
        <ele>532.683511</ele>
        <time>2022-10-04T08:50:45.153Z</time>
      </trkpt>
      <trkpt lat="45.26585" lon="5.4368">
        <ele>532.37877</ele>
        <time>2022-10-04T08:50:46.158Z</time>
      </trkpt>
      <trkpt lat="45.26593" lon="5.43689">
        <ele>532.078762</ele>
        <time>2022-10-04T08:50:47.151Z</time>
      </trkpt>
      <trkpt lat="45.26603" lon="5.43698">
        <ele>531.726887</ele>
        <time>2022-10-04T08:50:48.152Z</time>
      </trkpt>
      <trkpt lat="45.26612" lon="5.43707">
        <ele>531.419944</ele>
        <time>2022-10-04T08:50:49.152Z</time>
      </trkpt>
      <trkpt lat="45.26621" lon="5.43716">
        <ele>531.114166</ele>
        <time>2022-10-04T08:50:50.149Z</time>
      </trkpt>
      <trkpt lat="45.26629" lon="5.43724">
        <ele>530.820163</ele>
        <time>2022-10-04T08:50:51.153Z</time>
      </trkpt>
      <trkpt lat="45.26638" lon="5.43729">
        <ele>529.737938</ele>
        <time>2022-10-04T08:50:52.152Z</time>
      </trkpt>
      <trkpt lat="45.26657" lon="5.43733">
        <ele>526.182624</ele>
        <time>2022-10-04T08:50:54.153Z</time>
      </trkpt>
      <trkpt lat="45.26675" lon="5.43732">
        <ele>522.673707</ele>
        <time>2022-10-04T08:50:56.156Z</time>
      </trkpt>
      <trkpt lat="45.26686" lon="5.43732">
        <ele>520.758728</ele>
        <time>2022-10-04T08:50:57.153Z</time>
      </trkpt>
      <trkpt lat="45.26697" lon="5.43732">
        <ele>518.538035</ele>
        <time>2022-10-04T08:50:58.152Z</time>
      </trkpt>
      <trkpt lat="45.26708" lon="5.43734">
        <ele>516.403996</ele>
        <time>2022-10-04T08:50:59.153Z</time>
      </trkpt>
      <trkpt lat="45.2672" lon="5.43736">
        <ele>514.265581</ele>
        <time>2022-10-04T08:51:00.151Z</time>
      </trkpt>
      <trkpt lat="45.2673" lon="5.43737">
        <ele>512.283781</ele>
        <time>2022-10-04T08:51:01.152Z</time>
      </trkpt>
      <trkpt lat="45.2674" lon="5.43741">
        <ele>510.331276</ele>
        <time>2022-10-04T08:51:02.153Z</time>
      </trkpt>
      <trkpt lat="45.2675" lon="5.43745">
        <ele>508.412671</ele>
        <time>2022-10-04T08:51:03.154Z</time>
      </trkpt>
      <trkpt lat="45.26759" lon="5.43751">
        <ele>506.492506</ele>
        <time>2022-10-04T08:51:04.153Z</time>
      </trkpt>
      <trkpt lat="45.26769" lon="5.43756">
        <ele>504.482083</ele>
        <time>2022-10-04T08:51:05.151Z</time>
      </trkpt>
      <trkpt lat="45.26778" lon="5.4376">
        <ele>502.764187</ele>
        <time>2022-10-04T08:51:06.150Z</time>
      </trkpt>
      <trkpt lat="45.26798" lon="5.43758">
        <ele>498.92789</ele>
        <time>2022-10-04T08:51:08.160Z</time>
      </trkpt>
      <trkpt lat="45.26807" lon="5.43754">
        <ele>497.060412</ele>
        <time>2022-10-04T08:51:09.154Z</time>
      </trkpt>
      <trkpt lat="45.26818" lon="5.4375">
        <ele>496.798188</ele>
        <time>2022-10-04T08:51:10.156Z</time>
      </trkpt>
      <trkpt lat="45.26827" lon="5.43746">
        <ele>497.050651</ele>
        <time>2022-10-04T08:51:11.154Z</time>
      </trkpt>
      <trkpt lat="45.26837" lon="5.43742">
        <ele>497.344966</ele>
        <time>2022-10-04T08:51:12.150Z</time>
      </trkpt>
      <trkpt lat="45.26847" lon="5.4374">
        <ele>497.615875</ele>
        <time>2022-10-04T08:51:13.151Z</time>
      </trkpt>
      <trkpt lat="45.26858" lon="5.43739">
        <ele>497.928705</ele>
        <time>2022-10-04T08:51:14.151Z</time>
      </trkpt>
      <trkpt lat="45.26869" lon="5.4374">
        <ele>498.228669</ele>
        <time>2022-10-04T08:51:15.152Z</time>
      </trkpt>
      <trkpt lat="45.26879" lon="5.43742">
        <ele>498.50247</ele>
        <time>2022-10-04T08:51:16.157Z</time>
      </trkpt>
      <trkpt lat="45.26887" lon="5.43751">
        <ele>498.778455</ele>
        <time>2022-10-04T08:51:17.163Z</time>
      </trkpt>
      <trkpt lat="45.26896" lon="5.43762">
        <ele>499.102252</ele>
        <time>2022-10-04T08:51:18.157Z</time>
      </trkpt>
      <trkpt lat="45.26904" lon="5.4377">
        <ele>499.384928</ele>
        <time>2022-10-04T08:51:19.153Z</time>
      </trkpt>
      <trkpt lat="45.26914" lon="5.43778">
        <ele>499.677572</ele>
        <time>2022-10-04T08:51:20.158Z</time>
      </trkpt>
      <trkpt lat="45.26923" lon="5.43783">
        <ele>499.967075</ele>
        <time>2022-10-04T08:51:21.152Z</time>
      </trkpt>
      <trkpt lat="45.26934" lon="5.43789">
        <ele>500.282828</ele>
        <time>2022-10-04T08:51:22.159Z</time>
      </trkpt>
      <trkpt lat="45.26944" lon="5.43792">
        <ele>500.566032</ele>
        <time>2022-10-04T08:51:23.149Z</time>
      </trkpt>
      <trkpt lat="45.26954" lon="5.43794">
        <ele>500.839271</ele>
        <time>2022-10-04T08:51:24.152Z</time>
      </trkpt>
      <trkpt lat="45.26965" lon="5.43797">
        <ele>501.140515</ele>
        <time>2022-10-04T08:51:25.154Z</time>
      </trkpt>
      <trkpt lat="45.26975" lon="5.43796">
        <ele>501.426208</ele>
        <time>2022-10-04T08:51:26.153Z</time>
      </trkpt>
      <trkpt lat="45.26995" lon="5.43787">
        <ele>500.745384</ele>
        <time>2022-10-04T08:51:28.155Z</time>
      </trkpt>
      <trkpt lat="45.27006" lon="5.43766">
        <ele>499.926849</ele>
        <time>2022-10-04T08:51:30.150Z</time>
      </trkpt>
      <trkpt lat="45.27013" lon="5.43754">
        <ele>499.470516</ele>
        <time>2022-10-04T08:51:31.154Z</time>
      </trkpt>
      <trkpt lat="45.27019" lon="5.43741">
        <ele>499.002607</ele>
        <time>2022-10-04T08:51:32.155Z</time>
      </trkpt>
      <trkpt lat="45.27026" lon="5.43729">
        <ele>498.534826</ele>
        <time>2022-10-04T08:51:33.148Z</time>
      </trkpt>
      <trkpt lat="45.27034" lon="5.43718">
        <ele>498.049906</ele>
        <time>2022-10-04T08:51:34.155Z</time>
      </trkpt>
      <trkpt lat="45.27039" lon="5.43706">
        <ele>497.632341</ele>
        <time>2022-10-04T08:51:35.156Z</time>
      </trkpt>
      <trkpt lat="45.27047" lon="5.43694">
        <ele>497.158883</ele>
        <time>2022-10-04T08:51:36.158Z</time>
      </trkpt>
      <trkpt lat="45.27052" lon="5.43681">
        <ele>496.6902</ele>
        <time>2022-10-04T08:51:37.163Z</time>
      </trkpt>
      <trkpt lat="45.27058" lon="5.43668">
        <ele>496.230664</ele>
        <time>2022-10-04T08:51:38.150Z</time>
      </trkpt>
      <trkpt lat="45.27063" lon="5.43655">
        <ele>495.788858</ele>
        <time>2022-10-04T08:51:39.155Z</time>
      </trkpt>
      <trkpt lat="45.27071" lon="5.43646">
        <ele>495.355963</ele>
        <time>2022-10-04T08:51:40.152Z</time>
      </trkpt>
      <trkpt lat="45.2708" lon="5.43638">
        <ele>494.89673</ele>
        <time>2022-10-04T08:51:41.153Z</time>
      </trkpt>
      <trkpt lat="45.27088" lon="5.43628">
        <ele>494.430868</ele>
        <time>2022-10-04T08:51:42.150Z</time>
      </trkpt>
      <trkpt lat="45.27098" lon="5.43619">
        <ele>493.927826</ele>
        <time>2022-10-04T08:51:43.152Z</time>
      </trkpt>
      <trkpt lat="45.27108" lon="5.43611">
        <ele>492.357088</ele>
        <time>2022-10-04T08:51:44.155Z</time>
      </trkpt>
      <trkpt lat="45.27117" lon="5.43602">
        <ele>490.382405</ele>
        <time>2022-10-04T08:51:45.153Z</time>
      </trkpt>
      <trkpt lat="45.27127" lon="5.43592">
        <ele>488.227646</ele>
        <time>2022-10-04T08:51:46.154Z</time>
      </trkpt>
      <trkpt lat="45.27136" lon="5.43583">
        <ele>486.252891</ele>
        <time>2022-10-04T08:51:47.151Z</time>
      </trkpt>
      <trkpt lat="45.27145" lon="5.43573">
        <ele>484.300221</ele>
        <time>2022-10-04T08:51:48.152Z</time>
      </trkpt>
      <trkpt lat="45.27155" lon="5.43563">
        <ele>482.27529</ele>
        <time>2022-10-04T08:51:49.160Z</time>
      </trkpt>
      <trkpt lat="45.27163" lon="5.43556">
        <ele>480.468605</ele>
        <time>2022-10-04T08:51:50.149Z</time>
      </trkpt>
      <trkpt lat="45.27173" lon="5.43549">
        <ele>478.656762</ele>
        <time>2022-10-04T08:51:51.150Z</time>
      </trkpt>
      <trkpt lat="45.2718" lon="5.4354">
        <ele>476.959106</ele>
        <time>2022-10-04T08:51:52.151Z</time>
      </trkpt>
      <trkpt lat="45.27186" lon="5.43529">
        <ele>475.245778</ele>
        <time>2022-10-04T08:51:53.167Z</time>
      </trkpt>
      <trkpt lat="45.27193" lon="5.43517">
        <ele>473.331279</ele>
        <time>2022-10-04T08:51:54.151Z</time>
      </trkpt>
      <trkpt lat="45.27198" lon="5.43503">
        <ele>471.378418</ele>
        <time>2022-10-04T08:51:55.155Z</time>
      </trkpt>
      <trkpt lat="45.27204" lon="5.43491">
        <ele>469.647399</ele>
        <time>2022-10-04T08:51:56.153Z</time>
      </trkpt>
      <trkpt lat="45.27209" lon="5.43479">
        <ele>467.845095</ele>
        <time>2022-10-04T08:51:57.155Z</time>
      </trkpt>
      <trkpt lat="45.2722" lon="5.43461">
        <ele>464.941668</ele>
        <time>2022-10-04T08:51:59.151Z</time>
      </trkpt>
      <trkpt lat="45.27232" lon="5.43452">
        <ele>462.566304</ele>
        <time>2022-10-04T08:52:01.153Z</time>
      </trkpt>
      <trkpt lat="45.27239" lon="5.43469">
        <ele>462.912397</ele>
        <time>2022-10-04T08:52:03.152Z</time>
      </trkpt>
      <trkpt lat="45.2724" lon="5.43492">
        <ele>463.596867</ele>
        <time>2022-10-04T08:52:05.156Z</time>
      </trkpt>
      <trkpt lat="45.27231" lon="5.43506">
        <ele>464.18326</ele>
        <time>2022-10-04T08:52:07.155Z</time>
      </trkpt>
      <trkpt lat="45.27225" lon="5.4353">
        <ele>464.939812</ele>
        <time>2022-10-04T08:52:09.155Z</time>
      </trkpt>
      <trkpt lat="45.2722" lon="5.43541">
        <ele>465.355708</ele>
        <time>2022-10-04T08:52:10.155Z</time>
      </trkpt>
      <trkpt lat="45.27213" lon="5.43565">
        <ele>466.126355</ele>
        <time>2022-10-04T08:52:12.154Z</time>
      </trkpt>
      <trkpt lat="45.2721" lon="5.43581">
        <ele>466.621472</ele>
        <time>2022-10-04T08:52:13.154Z</time>
      </trkpt>
      <trkpt lat="45.27207" lon="5.43593">
        <ele>467.017405</ele>
        <time>2022-10-04T08:52:14.151Z</time>
      </trkpt>
      <trkpt lat="45.27205" lon="5.4361">
        <ele>467.529932</ele>
        <time>2022-10-04T08:52:15.158Z</time>
      </trkpt>
      <trkpt lat="45.27204" lon="5.43624">
        <ele>467.969887</ele>
        <time>2022-10-04T08:52:16.150Z</time>
      </trkpt>
      <trkpt lat="45.27195" lon="5.43648">
        <ele>468.790921</ele>
        <time>2022-10-04T08:52:18.148Z</time>
      </trkpt>
      <trkpt lat="45.27185" lon="5.43655">
        <ele>469.266387</ele>
        <time>2022-10-04T08:52:19.149Z</time>
      </trkpt>
      <trkpt lat="45.27177" lon="5.43666">
        <ele>469.728628</ele>
        <time>2022-10-04T08:52:20.147Z</time>
      </trkpt>
      <trkpt lat="45.27167" lon="5.4367">
        <ele>469.967685</ele>
        <time>2022-10-04T08:52:21.148Z</time>
      </trkpt>
      <trkpt lat="45.27156" lon="5.43679">
        <ele>469.333705</ele>
        <time>2022-10-04T08:52:22.152Z</time>
      </trkpt>
      <trkpt lat="45.27145" lon="5.43684">
        <ele>468.771926</ele>
        <time>2022-10-04T08:52:23.148Z</time>
      </trkpt>
      <trkpt lat="45.27133" lon="5.43689">
        <ele>468.112503</ele>
        <time>2022-10-04T08:52:24.146Z</time>
      </trkpt>
      <trkpt lat="45.27124" lon="5.437">
        <ele>467.517696</ele>
        <time>2022-10-04T08:52:25.149Z</time>
      </trkpt>
      <trkpt lat="45.27116" lon="5.43709">
        <ele>466.998031</ele>
        <time>2022-10-04T08:52:26.149Z</time>
      </trkpt>
      <trkpt lat="45.2711" lon="5.43721">
        <ele>466.462519</ele>
        <time>2022-10-04T08:52:27.152Z</time>
      </trkpt>
      <trkpt lat="45.27102" lon="5.43734">
        <ele>465.836296</ele>
        <time>2022-10-04T08:52:28.153Z</time>
      </trkpt>
      <trkpt lat="45.27095" lon="5.43749">
        <ele>465.219646</ele>
        <time>2022-10-04T08:52:29.153Z</time>
      </trkpt>
      <trkpt lat="45.27088" lon="5.43763">
        <ele>464.594227</ele>
        <time>2022-10-04T08:52:30.159Z</time>
      </trkpt>
      <trkpt lat="45.27082" lon="5.43777">
        <ele>463.988281</ele>
        <time>2022-10-04T08:52:31.153Z</time>
      </trkpt>
      <trkpt lat="45.27077" lon="5.43793">
        <ele>463.374639</ele>
        <time>2022-10-04T08:52:32.152Z</time>
      </trkpt>
      <trkpt lat="45.27071" lon="5.43807">
        <ele>462.794679</ele>
        <time>2022-10-04T08:52:33.151Z</time>
      </trkpt>
      <trkpt lat="45.27068" lon="5.43822">
        <ele>462.221541</ele>
        <time>2022-10-04T08:52:34.155Z</time>
      </trkpt>
      <trkpt lat="45.27062" lon="5.43834">
        <ele>461.721521</ele>
        <time>2022-10-04T08:52:35.153Z</time>
      </trkpt>
      <trkpt lat="45.27056" lon="5.43847">
        <ele>461.169074</ele>
        <time>2022-10-04T08:52:36.152Z</time>
      </trkpt>
      <trkpt lat="45.27049" lon="5.43856">
        <ele>460.671301</ele>
        <time>2022-10-04T08:52:37.154Z</time>
      </trkpt>
      <trkpt lat="45.27042" lon="5.4387">
        <ele>460.049215</ele>
        <time>2022-10-04T08:52:38.151Z</time>
      </trkpt>
      <trkpt lat="45.27033" lon="5.43881">
        <ele>459.463497</ele>
        <time>2022-10-04T08:52:39.152Z</time>
      </trkpt>
      <trkpt lat="45.27025" lon="5.43891">
        <ele>458.891833</ele>
        <time>2022-10-04T08:52:40.148Z</time>
      </trkpt>
      <trkpt lat="45.27015" lon="5.43903">
        <ele>458.261108</ele>
        <time>2022-10-04T08:52:41.152Z</time>
      </trkpt>
      <trkpt lat="45.27007" lon="5.43914">
        <ele>457.679629</ele>
        <time>2022-10-04T08:52:42.152Z</time>
      </trkpt>
      <trkpt lat="45.26999" lon="5.43922">
        <ele>457.167884</ele>
        <time>2022-10-04T08:52:43.148Z</time>
      </trkpt>
      <trkpt lat="45.26987" lon="5.43929">
        <ele>456.51653</ele>
        <time>2022-10-04T08:52:44.151Z</time>
      </trkpt>
      <trkpt lat="45.26979" lon="5.43935">
        <ele>456.020798</ele>
        <time>2022-10-04T08:52:45.155Z</time>
      </trkpt>
      <trkpt lat="45.2697" lon="5.43939">
        <ele>455.54272</ele>
        <time>2022-10-04T08:52:46.150Z</time>
      </trkpt>
      <trkpt lat="45.26959" lon="5.43941">
        <ele>454.985691</ele>
        <time>2022-10-04T08:52:47.150Z</time>
      </trkpt>
      <trkpt lat="45.26949" lon="5.43944">
        <ele>454.459237</ele>
        <time>2022-10-04T08:52:48.154Z</time>
      </trkpt>
      <trkpt lat="45.26939" lon="5.43943">
        <ele>453.955366</ele>
        <time>2022-10-04T08:52:49.152Z</time>
      </trkpt>
      <trkpt lat="45.26927" lon="5.43938">
        <ele>453.332229</ele>
        <time>2022-10-04T08:52:50.155Z</time>
      </trkpt>
      <trkpt lat="45.26916" lon="5.4394">
        <ele>452.730121</ele>
        <time>2022-10-04T08:52:51.152Z</time>
      </trkpt>
      <trkpt lat="45.26904" lon="5.43943">
        <ele>452.12841</ele>
        <time>2022-10-04T08:52:52.151Z</time>
      </trkpt>
      <trkpt lat="45.26893" lon="5.43944">
        <ele>450.942182</ele>
        <time>2022-10-04T08:52:53.152Z</time>
      </trkpt>
      <trkpt lat="45.26882" lon="5.43944">
        <ele>448.204484</ele>
        <time>2022-10-04T08:52:54.152Z</time>
      </trkpt>
      <trkpt lat="45.2687" lon="5.43946">
        <ele>445.52108</ele>
        <time>2022-10-04T08:52:55.153Z</time>
      </trkpt>
      <trkpt lat="45.26859" lon="5.43949">
        <ele>442.70051</ele>
        <time>2022-10-04T08:52:56.153Z</time>
      </trkpt>
      <trkpt lat="45.26849" lon="5.43954">
        <ele>440.185871</ele>
        <time>2022-10-04T08:52:57.153Z</time>
      </trkpt>
      <trkpt lat="45.26837" lon="5.4396">
        <ele>437.344718</ele>
        <time>2022-10-04T08:52:58.153Z</time>
      </trkpt>
      <trkpt lat="45.26829" lon="5.4397">
        <ele>434.682902</ele>
        <time>2022-10-04T08:52:59.155Z</time>
      </trkpt>
      <trkpt lat="45.26822" lon="5.43983">
        <ele>431.977474</ele>
        <time>2022-10-04T08:53:00.158Z</time>
      </trkpt>
      <trkpt lat="45.26815" lon="5.43995">
        <ele>429.51752</ele>
        <time>2022-10-04T08:53:01.156Z</time>
      </trkpt>
      <trkpt lat="45.26811" lon="5.44007">
        <ele>427.215101</ele>
        <time>2022-10-04T08:53:02.150Z</time>
      </trkpt>
      <trkpt lat="45.26804" lon="5.4402">
        <ele>424.552979</ele>
        <time>2022-10-04T08:53:03.154Z</time>
      </trkpt>
      <trkpt lat="45.26798" lon="5.44032">
        <ele>421.982801</ele>
        <time>2022-10-04T08:53:04.151Z</time>
      </trkpt>
      <trkpt lat="45.26792" lon="5.44045">
        <ele>419.400778</ele>
        <time>2022-10-04T08:53:05.151Z</time>
      </trkpt>
      <trkpt lat="45.26786" lon="5.4406">
        <ele>416.587275</ele>
        <time>2022-10-04T08:53:06.155Z</time>
      </trkpt>
      <trkpt lat="45.2678" lon="5.44073">
        <ele>413.998886</ele>
        <time>2022-10-04T08:53:07.151Z</time>
      </trkpt>
      <trkpt lat="45.26774" lon="5.44086">
        <ele>411.309281</ele>
        <time>2022-10-04T08:53:08.151Z</time>
      </trkpt>
      <trkpt lat="45.26768" lon="5.441">
        <ele>409.302367</ele>
        <time>2022-10-04T08:53:09.150Z</time>
      </trkpt>
      <trkpt lat="45.26761" lon="5.44113">
        <ele>409.295497</ele>
        <time>2022-10-04T08:53:10.153Z</time>
      </trkpt>
      <trkpt lat="45.26754" lon="5.44125">
        <ele>409.289339</ele>
        <time>2022-10-04T08:53:11.151Z</time>
      </trkpt>
      <trkpt lat="45.26749" lon="5.44139">
        <ele>409.282593</ele>
        <time>2022-10-04T08:53:12.150Z</time>
      </trkpt>
      <trkpt lat="45.26744" lon="5.44152">
        <ele>409.276384</ele>
        <time>2022-10-04T08:53:13.155Z</time>
      </trkpt>
      <trkpt lat="45.2674" lon="5.44165">
        <ele>409.27038</ele>
        <time>2022-10-04T08:53:14.152Z</time>
      </trkpt>
      <trkpt lat="45.26737" lon="5.4418">
        <ele>409.263965</ele>
        <time>2022-10-04T08:53:15.151Z</time>
      </trkpt>
      <trkpt lat="45.26734" lon="5.44194">
        <ele>409.257506</ele>
        <time>2022-10-04T08:53:16.155Z</time>
      </trkpt>
      <trkpt lat="45.2673" lon="5.4421">
        <ele>409.250359</ele>
        <time>2022-10-04T08:53:17.153Z</time>
      </trkpt>
      <trkpt lat="45.26726" lon="5.44226">
        <ele>409.243351</ele>
        <time>2022-10-04T08:53:18.149Z</time>
      </trkpt>
      <trkpt lat="45.26722" lon="5.44241">
        <ele>409.236601</ele>
        <time>2022-10-04T08:53:19.152Z</time>
      </trkpt>
      <trkpt lat="45.26719" lon="5.44254">
        <ele>409.230978</ele>
        <time>2022-10-04T08:53:20.152Z</time>
      </trkpt>
      <trkpt lat="45.26714" lon="5.44281">
        <ele>409.219477</ele>
        <time>2022-10-04T08:53:22.149Z</time>
      </trkpt>
      <trkpt lat="45.26713" lon="5.44296">
        <ele>409.212903</ele>
        <time>2022-10-04T08:53:23.150Z</time>
      </trkpt>
      <trkpt lat="45.26712" lon="5.44311">
        <ele>409.206698</ele>
        <time>2022-10-04T08:53:24.159Z</time>
      </trkpt>
      <trkpt lat="45.26712" lon="5.44324">
        <ele>409.201236</ele>
        <time>2022-10-04T08:53:25.152Z</time>
      </trkpt>
      <trkpt lat="45.2671" lon="5.44348">
        <ele>408.793499</ele>
        <time>2022-10-04T08:53:27.154Z</time>
      </trkpt>
      <trkpt lat="45.26706" lon="5.44369">
        <ele>408.134542</ele>
        <time>2022-10-04T08:53:29.152Z</time>
      </trkpt>
      <trkpt lat="45.26701" lon="5.44389">
        <ele>407.49276</ele>
        <time>2022-10-04T08:53:31.152Z</time>
      </trkpt>
      <trkpt lat="45.26694" lon="5.44408">
        <ele>406.814029</ele>
        <time>2022-10-04T08:53:33.155Z</time>
      </trkpt>
      <trkpt lat="45.26688" lon="5.44425">
        <ele>406.245063</ele>
        <time>2022-10-04T08:53:35.153Z</time>
      </trkpt>
      <trkpt lat="45.26684" lon="5.44442">
        <ele>405.706183</ele>
        <time>2022-10-04T08:53:38.155Z</time>
      </trkpt>
      <trkpt lat="45.26689" lon="5.44456">
        <ele>405.229151</ele>
        <time>2022-10-04T08:53:41.152Z</time>
      </trkpt>
      <trkpt lat="45.26699" lon="5.44461">
        <ele>404.742216</ele>
        <time>2022-10-04T08:53:43.167Z</time>
      </trkpt>
      <trkpt lat="45.26708" lon="5.44467">
        <ele>404.334893</ele>
        <time>2022-10-04T08:53:45.148Z</time>
      </trkpt>
      <trkpt lat="45.26718" lon="5.44474">
        <ele>403.85085</ele>
        <time>2022-10-04T08:53:47.152Z</time>
      </trkpt>
      <trkpt lat="45.2673" lon="5.44482">
        <ele>403.286577</ele>
        <time>2022-10-04T08:53:49.153Z</time>
      </trkpt>
      <trkpt lat="45.26742" lon="5.44489">
        <ele>402.730112</ele>
        <time>2022-10-04T08:53:51.157Z</time>
      </trkpt>
      <trkpt lat="45.26754" lon="5.44498">
        <ele>402.130794</ele>
        <time>2022-10-04T08:53:53.152Z</time>
      </trkpt>
      <trkpt lat="45.26766" lon="5.44508">
        <ele>401.565459</ele>
        <time>2022-10-04T08:53:55.151Z</time>
      </trkpt>
      <trkpt lat="45.26775" lon="5.44518">
        <ele>401.222402</ele>
        <time>2022-10-04T08:53:57.161Z</time>
      </trkpt>
      <trkpt lat="45.26785" lon="5.44532">
        <ele>400.898816</ele>
        <time>2022-10-04T08:53:59.154Z</time>
      </trkpt>
      <trkpt lat="45.26795" lon="5.44546">
        <ele>400.550041</ele>
        <time>2022-10-04T08:54:01.152Z</time>
      </trkpt>
      <trkpt lat="45.26805" lon="5.44559">
        <ele>400.226034</ele>
        <time>2022-10-04T08:54:03.150Z</time>
      </trkpt>
      <trkpt lat="45.26807" lon="5.44578">
        <ele>399.902714</ele>
        <time>2022-10-04T08:54:05.149Z</time>
      </trkpt>
      <trkpt lat="45.268" lon="5.44598">
        <ele>399.531952</ele>
        <time>2022-10-04T08:54:07.158Z</time>
      </trkpt>
      <trkpt lat="45.26791" lon="5.44619">
        <ele>399.127161</ele>
        <time>2022-10-04T08:54:09.148Z</time>
      </trkpt>
      <trkpt lat="45.26784" lon="5.44642">
        <ele>398.705532</ele>
        <time>2022-10-04T08:54:11.151Z</time>
      </trkpt>
      <trkpt lat="45.26775" lon="5.44664">
        <ele>398.266513</ele>
        <time>2022-10-04T08:54:13.156Z</time>
      </trkpt>
      <trkpt lat="45.26769" lon="5.44676">
        <ele>398.032072</ele>
        <time>2022-10-04T08:54:14.154Z</time>
      </trkpt>
      <trkpt lat="45.26764" lon="5.44689">
        <ele>397.769807</ele>
        <time>2022-10-04T08:54:15.154Z</time>
      </trkpt>
      <trkpt lat="45.26759" lon="5.447">
        <ele>397.547933</ele>
        <time>2022-10-04T08:54:16.152Z</time>
      </trkpt>
      <trkpt lat="45.26754" lon="5.44713">
        <ele>397.307272</ele>
        <time>2022-10-04T08:54:17.150Z</time>
      </trkpt>
      <trkpt lat="45.26751" lon="5.44725">
        <ele>396.95268</ele>
        <time>2022-10-04T08:54:18.154Z</time>
      </trkpt>
      <trkpt lat="45.26745" lon="5.44737">
        <ele>396.276111</ele>
        <time>2022-10-04T08:54:19.155Z</time>
      </trkpt>
      <trkpt lat="45.2674" lon="5.44749">
        <ele>395.64761</ele>
        <time>2022-10-04T08:54:20.154Z</time>
      </trkpt>
      <trkpt lat="45.26735" lon="5.44761">
        <ele>394.973124</ele>
        <time>2022-10-04T08:54:21.151Z</time>
      </trkpt>
      <trkpt lat="45.26725" lon="5.44779">
        <ele>393.88439</ele>
        <time>2022-10-04T08:54:23.154Z</time>
      </trkpt>
      <trkpt lat="45.26716" lon="5.44797">
        <ele>392.861852</ele>
        <time>2022-10-04T08:54:25.157Z</time>
      </trkpt>
      <trkpt lat="45.26709" lon="5.44814">
        <ele>391.956211</ele>
        <time>2022-10-04T08:54:27.149Z</time>
      </trkpt>
      <trkpt lat="45.26703" lon="5.44825">
        <ele>391.298843</ele>
        <time>2022-10-04T08:54:29.152Z</time>
      </trkpt>
      <trkpt lat="45.26697" lon="5.44839">
        <ele>390.498911</ele>
        <time>2022-10-04T08:54:32.155Z</time>
      </trkpt>
      <trkpt lat="45.26722" lon="5.44855">
        <ele>388.655378</ele>
        <time>2022-10-04T08:57:13.156Z</time>
      </trkpt>
      <trkpt lat="45.26731" lon="5.44858">
        <ele>388.017487</ele>
        <time>2022-10-04T08:57:16.161Z</time>
      </trkpt>
      <trkpt lat="45.26743" lon="5.44862">
        <ele>387.251467</ele>
        <time>2022-10-04T08:57:19.152Z</time>
      </trkpt>
      <trkpt lat="45.26755" lon="5.44866">
        <ele>386.410778</ele>
        <time>2022-10-04T08:57:22.153Z</time>
      </trkpt>
      <trkpt lat="45.26768" lon="5.44868">
        <ele>385.512625</ele>
        <time>2022-10-04T08:57:25.156Z</time>
      </trkpt>
      <trkpt lat="45.26778" lon="5.44869">
        <ele>385.207696</ele>
        <time>2022-10-04T08:57:27.150Z</time>
      </trkpt>
      <trkpt lat="45.26786" lon="5.44871">
        <ele>385.387549</ele>
        <time>2022-10-04T08:57:29.152Z</time>
      </trkpt>
      <trkpt lat="45.26796" lon="5.44875">
        <ele>385.585479</ele>
        <time>2022-10-04T08:57:31.151Z</time>
      </trkpt>
      <trkpt lat="45.26806" lon="5.4488">
        <ele>385.804342</ele>
        <time>2022-10-04T08:57:33.153Z</time>
      </trkpt>
      <trkpt lat="45.26816" lon="5.44885">
        <ele>386.010535</ele>
        <time>2022-10-04T08:57:35.152Z</time>
      </trkpt>
      <trkpt lat="45.26826" lon="5.44892">
        <ele>386.228569</ele>
        <time>2022-10-04T08:57:37.161Z</time>
      </trkpt>
      <trkpt lat="45.26835" lon="5.44898">
        <ele>386.436971</ele>
        <time>2022-10-04T08:57:39.155Z</time>
      </trkpt>
      <trkpt lat="45.26846" lon="5.44905">
        <ele>386.669403</ele>
        <time>2022-10-04T08:57:41.153Z</time>
      </trkpt>
      <trkpt lat="45.26855" lon="5.44913">
        <ele>386.880848</ele>
        <time>2022-10-04T08:57:43.151Z</time>
      </trkpt>
      <trkpt lat="45.26865" lon="5.4492">
        <ele>387.107275</ele>
        <time>2022-10-04T08:57:45.153Z</time>
      </trkpt>
      <trkpt lat="45.26874" lon="5.44927">
        <ele>387.308694</ele>
        <time>2022-10-04T08:57:47.150Z</time>
      </trkpt>
      <trkpt lat="45.26882" lon="5.44934">
        <ele>387.497475</ele>
        <time>2022-10-04T08:57:49.154Z</time>
      </trkpt>
      <trkpt lat="45.26885" lon="5.44947">
        <ele>387.692709</ele>
        <time>2022-10-04T08:57:51.153Z</time>
      </trkpt>
      <trkpt lat="45.26889" lon="5.44959">
        <ele>387.874485</ele>
        <time>2022-10-04T08:57:53.148Z</time>
      </trkpt>
      <trkpt lat="45.26895" lon="5.44975">
        <ele>388.1245</ele>
        <time>2022-10-04T08:57:56.147Z</time>
      </trkpt>
      <trkpt lat="45.269" lon="5.4499">
        <ele>388.361237</ele>
        <time>2022-10-04T08:57:59.152Z</time>
      </trkpt>
      <trkpt lat="45.26908" lon="5.45004">
        <ele>388.606821</ele>
        <time>2022-10-04T08:58:02.151Z</time>
      </trkpt>
      <trkpt lat="45.26915" lon="5.45019">
        <ele>388.7724</ele>
        <time>2022-10-04T08:58:05.153Z</time>
      </trkpt>
      <trkpt lat="45.26922" lon="5.45029">
        <ele>388.843968</ele>
        <time>2022-10-04T08:58:07.154Z</time>
      </trkpt>
      <trkpt lat="45.26929" lon="5.4504">
        <ele>388.916604</ele>
        <time>2022-10-04T08:58:09.155Z</time>
      </trkpt>
      <trkpt lat="45.26936" lon="5.4505">
        <ele>388.98727</ele>
        <time>2022-10-04T08:58:11.159Z</time>
      </trkpt>
      <trkpt lat="45.26944" lon="5.45059">
        <ele>389.058746</ele>
        <time>2022-10-04T08:58:13.154Z</time>
      </trkpt>
      <trkpt lat="45.26952" lon="5.45068">
        <ele>389.135493</ele>
        <time>2022-10-04T08:58:15.149Z</time>
      </trkpt>
      <trkpt lat="45.2696" lon="5.45076">
        <ele>389.204667</ele>
        <time>2022-10-04T08:58:17.157Z</time>
      </trkpt>
      <trkpt lat="45.26968" lon="5.45084">
        <ele>389.275867</ele>
        <time>2022-10-04T08:58:19.155Z</time>
      </trkpt>
      <trkpt lat="45.26979" lon="5.45096">
        <ele>389.373522</ele>
        <time>2022-10-04T08:58:22.156Z</time>
      </trkpt>
      <trkpt lat="45.26987" lon="5.45104">
        <ele>389.441535</ele>
        <time>2022-10-04T08:58:24.153Z</time>
      </trkpt>
      <trkpt lat="45.26998" lon="5.45116">
        <ele>389.543686</ele>
        <time>2022-10-04T08:58:27.154Z</time>
      </trkpt>
      <trkpt lat="45.27006" lon="5.45124">
        <ele>389.610379</ele>
        <time>2022-10-04T08:58:29.152Z</time>
      </trkpt>
      <trkpt lat="45.27014" lon="5.45133">
        <ele>389.684865</ele>
        <time>2022-10-04T08:58:31.154Z</time>
      </trkpt>
      <trkpt lat="45.27021" lon="5.45142">
        <ele>389.75569</ele>
        <time>2022-10-04T08:58:33.149Z</time>
      </trkpt>
      <trkpt lat="45.27028" lon="5.45153">
        <ele>389.825853</ele>
        <time>2022-10-04T08:58:35.151Z</time>
      </trkpt>
      <trkpt lat="45.27032" lon="5.45167">
        <ele>389.90613</ele>
        <time>2022-10-04T08:58:37.155Z</time>
      </trkpt>
      <trkpt lat="45.27038" lon="5.45184">
        <ele>390.001047</ele>
        <time>2022-10-04T08:58:39.151Z</time>
      </trkpt>
      <trkpt lat="45.27046" lon="5.45202">
        <ele>389.431164</ele>
        <time>2022-10-04T08:58:41.153Z</time>
      </trkpt>
      <trkpt lat="45.27054" lon="5.45223">
        <ele>388.778992</ele>
        <time>2022-10-04T08:58:43.153Z</time>
      </trkpt>
      <trkpt lat="45.27058" lon="5.45235">
        <ele>388.396079</ele>
        <time>2022-10-04T08:58:44.152Z</time>
      </trkpt>
      <trkpt lat="45.27062" lon="5.45258">
        <ele>387.710578</ele>
        <time>2022-10-04T08:58:46.154Z</time>
      </trkpt>
      <trkpt lat="45.27068" lon="5.45284">
        <ele>386.938934</ele>
        <time>2022-10-04T08:58:48.155Z</time>
      </trkpt>
      <trkpt lat="45.27076" lon="5.45305">
        <ele>386.247811</ele>
        <time>2022-10-04T08:58:50.153Z</time>
      </trkpt>
      <trkpt lat="45.27085" lon="5.45327">
        <ele>385.544646</ele>
        <time>2022-10-04T08:58:52.151Z</time>
      </trkpt>
      <trkpt lat="45.27093" lon="5.45347">
        <ele>384.883688</ele>
        <time>2022-10-04T08:58:54.151Z</time>
      </trkpt>
      <trkpt lat="45.27099" lon="5.45366">
        <ele>384.287316</ele>
        <time>2022-10-04T08:58:56.156Z</time>
      </trkpt>
      <trkpt lat="45.27106" lon="5.45384">
        <ele>383.709904</ele>
        <time>2022-10-04T08:58:58.154Z</time>
      </trkpt>
      <trkpt lat="45.27113" lon="5.45401">
        <ele>383.15484</ele>
        <time>2022-10-04T08:59:00.155Z</time>
      </trkpt>
      <trkpt lat="45.2712" lon="5.45413">
        <ele>382.691732</ele>
        <time>2022-10-04T08:59:02.149Z</time>
      </trkpt>
      <trkpt lat="45.27128" lon="5.45418">
        <ele>382.203194</ele>
        <time>2022-10-04T08:59:12.157Z</time>
      </trkpt>
      <trkpt lat="45.27125" lon="5.45404">
        <ele>381.654262</ele>
        <time>2022-10-04T08:59:30.152Z</time>
      </trkpt>
      <trkpt lat="45.27118" lon="5.45396">
        <ele>381.144481</ele>
        <time>2022-10-04T08:59:33.156Z</time>
      </trkpt>
      <trkpt lat="45.27111" lon="5.45383">
        <ele>380.550777</ele>
        <time>2022-10-04T08:59:36.152Z</time>
      </trkpt>
      <trkpt lat="45.27105" lon="5.45369">
        <ele>379.947019</ele>
        <time>2022-10-04T08:59:39.154Z</time>
      </trkpt>
      <trkpt lat="45.27099" lon="5.45356">
        <ele>379.346954</ele>
        <time>2022-10-04T08:59:42.152Z</time>
      </trkpt>
      <trkpt lat="45.27095" lon="5.45343">
        <ele>378.789575</ele>
        <time>2022-10-04T08:59:45.153Z</time>
      </trkpt>
      <trkpt lat="45.2709" lon="5.45327">
        <ele>378.153867</ele>
        <time>2022-10-04T08:59:49.152Z</time>
      </trkpt>
      <trkpt lat="45.27084" lon="5.45317">
        <ele>377.654328</ele>
        <time>2022-10-04T08:59:52.153Z</time>
      </trkpt>
      <trkpt lat="45.27078" lon="5.45302">
        <ele>377.026317</ele>
        <time>2022-10-04T08:59:55.156Z</time>
      </trkpt>
      <trkpt lat="45.27072" lon="5.45288">
        <ele>376.419937</ele>
        <time>2022-10-04T08:59:58.152Z</time>
      </trkpt>
      <trkpt lat="45.27063" lon="5.4529">
        <ele>375.913936</ele>
        <time>2022-10-04T09:00:01.161Z</time>
      </trkpt>
      <trkpt lat="45.27052" lon="5.45307">
        <ele>375.049902</ele>
        <time>2022-10-04T09:00:04.152Z</time>
      </trkpt>
      <trkpt lat="45.27045" lon="5.4532">
        <ele>374.440774</ele>
        <time>2022-10-04T09:00:06.150Z</time>
      </trkpt>
      <trkpt lat="45.27041" lon="5.45334">
        <ele>373.857924</ele>
        <time>2022-10-04T09:00:08.154Z</time>
      </trkpt>
      <trkpt lat="45.27041" lon="5.4535">
        <ele>373.274875</ele>
        <time>2022-10-04T09:00:10.152Z</time>
      </trkpt>
      <trkpt lat="45.27047" lon="5.45367">
        <ele>372.235236</ele>
        <time>2022-10-04T09:00:12.158Z</time>
      </trkpt>
      <trkpt lat="45.27054" lon="5.45381">
        <ele>371.173088</ele>
        <time>2022-10-04T09:00:14.153Z</time>
      </trkpt>
      <trkpt lat="45.27062" lon="5.45395">
        <ele>370.069886</ele>
        <time>2022-10-04T09:00:16.151Z</time>
      </trkpt>
      <trkpt lat="45.27072" lon="5.45409">
        <ele>368.923782</ele>
        <time>2022-10-04T09:00:18.154Z</time>
      </trkpt>
      <trkpt lat="45.27081" lon="5.45423">
        <ele>367.779253</ele>
        <time>2022-10-04T09:00:20.155Z</time>
      </trkpt>
      <trkpt lat="45.2709" lon="5.45438">
        <ele>366.645572</ele>
        <time>2022-10-04T09:00:22.151Z</time>
      </trkpt>
      <trkpt lat="45.27098" lon="5.45454">
        <ele>365.485771</ele>
        <time>2022-10-04T09:00:24.150Z</time>
      </trkpt>
      <trkpt lat="45.27106" lon="5.45474">
        <ele>364.134899</ele>
        <time>2022-10-04T09:00:26.150Z</time>
      </trkpt>
      <trkpt lat="45.27113" lon="5.45495">
        <ele>362.698941</ele>
        <time>2022-10-04T09:00:28.158Z</time>
      </trkpt>
      <trkpt lat="45.27117" lon="5.45507">
        <ele>361.898872</ele>
        <time>2022-10-04T09:00:29.154Z</time>
      </trkpt>
      <trkpt lat="45.27122" lon="5.4552">
        <ele>361.080592</ele>
        <time>2022-10-04T09:00:30.150Z</time>
      </trkpt>
      <trkpt lat="45.27129" lon="5.45543">
        <ele>359.578867</ele>
        <time>2022-10-04T09:00:32.154Z</time>
      </trkpt>
      <trkpt lat="45.27137" lon="5.45563">
        <ele>358.18046</ele>
        <time>2022-10-04T09:00:34.152Z</time>
      </trkpt>
      <trkpt lat="45.27145" lon="5.4558">
        <ele>357.786508</ele>
        <time>2022-10-04T09:00:36.154Z</time>
      </trkpt>
      <trkpt lat="45.27149" lon="5.45598">
        <ele>357.569313</ele>
        <time>2022-10-04T09:00:38.150Z</time>
      </trkpt>
      <trkpt lat="45.27149" lon="5.45619">
        <ele>357.321427</ele>
        <time>2022-10-04T09:00:40.157Z</time>
      </trkpt>
      <trkpt lat="45.27146" lon="5.45642">
        <ele>357.04723</ele>
        <time>2022-10-04T09:00:42.151Z</time>
      </trkpt>
      <trkpt lat="45.27144" lon="5.45666">
        <ele>356.766213</ele>
        <time>2022-10-04T09:00:44.153Z</time>
      </trkpt>
      <trkpt lat="45.27143" lon="5.45689">
        <ele>356.495288</ele>
        <time>2022-10-04T09:00:46.155Z</time>
      </trkpt>
      <trkpt lat="45.27142" lon="5.45712">
        <ele>356.218379</ele>
        <time>2022-10-04T09:00:48.153Z</time>
      </trkpt>
      <trkpt lat="45.27141" lon="5.45732">
        <ele>355.982584</ele>
        <time>2022-10-04T09:00:50.154Z</time>
      </trkpt>
      <trkpt lat="45.2714" lon="5.45752">
        <ele>355.744917</ele>
        <time>2022-10-04T09:00:52.150Z</time>
      </trkpt>
      <trkpt lat="45.2714" lon="5.45771">
        <ele>355.521715</ele>
        <time>2022-10-04T09:00:54.152Z</time>
      </trkpt>
      <trkpt lat="45.27141" lon="5.45792">
        <ele>355.283433</ele>
        <time>2022-10-04T09:00:56.153Z</time>
      </trkpt>
      <trkpt lat="45.27142" lon="5.45813">
        <ele>355.033139</ele>
        <time>2022-10-04T09:00:58.154Z</time>
      </trkpt>
      <trkpt lat="45.27144" lon="5.45831">
        <ele>354.98999</ele>
        <time>2022-10-04T09:01:00.153Z</time>
      </trkpt>
      <trkpt lat="45.27146" lon="5.45851">
        <ele>355.005872</ele>
        <time>2022-10-04T09:01:02.151Z</time>
      </trkpt>
      <trkpt lat="45.27147" lon="5.4587">
        <ele>355.021881</ele>
        <time>2022-10-04T09:01:04.153Z</time>
      </trkpt>
      <trkpt lat="45.27148" lon="5.4589">
        <ele>355.038441</ele>
        <time>2022-10-04T09:01:06.154Z</time>
      </trkpt>
      <trkpt lat="45.2715" lon="5.45909">
        <ele>355.053696</ele>
        <time>2022-10-04T09:01:08.153Z</time>
      </trkpt>
      <trkpt lat="45.27149" lon="5.45928">
        <ele>355.069495</ele>
        <time>2022-10-04T09:01:10.162Z</time>
      </trkpt>
      <trkpt lat="45.27149" lon="5.45949">
        <ele>355.086032</ele>
        <time>2022-10-04T09:01:12.154Z</time>
      </trkpt>
      <trkpt lat="45.27148" lon="5.4597">
        <ele>355.103073</ele>
        <time>2022-10-04T09:01:14.153Z</time>
      </trkpt>
      <trkpt lat="45.27147" lon="5.45992">
        <ele>355.121058</ele>
        <time>2022-10-04T09:01:16.153Z</time>
      </trkpt>
      <trkpt lat="45.27145" lon="5.46013">
        <ele>355.138567</ele>
        <time>2022-10-04T09:01:18.153Z</time>
      </trkpt>
      <trkpt lat="45.27147" lon="5.46032">
        <ele>355.154449</ele>
        <time>2022-10-04T09:01:20.152Z</time>
      </trkpt>
      <trkpt lat="45.27155" lon="5.4605">
        <ele>355.17146</ele>
        <time>2022-10-04T09:01:22.159Z</time>
      </trkpt>
      <trkpt lat="45.27164" lon="5.46062">
        <ele>355.18581</ele>
        <time>2022-10-04T09:01:24.154Z</time>
      </trkpt>
      <trkpt lat="45.27173" lon="5.46073">
        <ele>354.984042</ele>
        <time>2022-10-04T09:01:26.156Z</time>
      </trkpt>
      <trkpt lat="45.27181" lon="5.46083">
        <ele>354.794604</ele>
        <time>2022-10-04T09:01:28.156Z</time>
      </trkpt>
      <trkpt lat="45.27189" lon="5.46092">
        <ele>354.609332</ele>
        <time>2022-10-04T09:01:30.153Z</time>
      </trkpt>
      <trkpt lat="45.27196" lon="5.46101">
        <ele>354.420424</ele>
        <time>2022-10-04T09:01:32.152Z</time>
      </trkpt>
      <trkpt lat="45.27204" lon="5.46111">
        <ele>354.234065</ele>
        <time>2022-10-04T09:01:34.153Z</time>
      </trkpt>
      <trkpt lat="45.27212" lon="5.46119">
        <ele>354.052979</ele>
        <time>2022-10-04T09:01:36.152Z</time>
      </trkpt>
      <trkpt lat="45.2722" lon="5.4613">
        <ele>353.851237</ele>
        <time>2022-10-04T09:01:38.155Z</time>
      </trkpt>
      <trkpt lat="45.27227" lon="5.46142">
        <ele>353.648694</ele>
        <time>2022-10-04T09:01:40.153Z</time>
      </trkpt>
      <trkpt lat="45.27234" lon="5.46154">
        <ele>353.446685</ele>
        <time>2022-10-04T09:01:42.153Z</time>
      </trkpt>
      <trkpt lat="45.27243" lon="5.46166">
        <ele>353.224893</ele>
        <time>2022-10-04T09:01:44.160Z</time>
      </trkpt>
      <trkpt lat="45.2725" lon="5.46177">
        <ele>353.026278</ele>
        <time>2022-10-04T09:01:46.149Z</time>
      </trkpt>
      <trkpt lat="45.27258" lon="5.4619">
        <ele>352.810184</ele>
        <time>2022-10-04T09:01:48.154Z</time>
      </trkpt>
      <trkpt lat="45.27264" lon="5.46203">
        <ele>352.612567</ele>
        <time>2022-10-04T09:01:50.152Z</time>
      </trkpt>
      <trkpt lat="45.27273" lon="5.46214">
        <ele>352.392598</ele>
        <time>2022-10-04T09:01:52.155Z</time>
      </trkpt>
      <trkpt lat="45.27279" lon="5.46226">
        <ele>352.193966</ele>
        <time>2022-10-04T09:01:55.152Z</time>
      </trkpt>
      <trkpt lat="45.27286" lon="5.46235">
        <ele>352.019621</ele>
        <time>2022-10-04T09:01:57.155Z</time>
      </trkpt>
      <trkpt lat="45.27296" lon="5.46242">
        <ele>351.510655</ele>
        <time>2022-10-04T09:02:01.153Z</time>
      </trkpt>
      <trkpt lat="45.27307" lon="5.46244">
        <ele>350.209081</ele>
        <time>2022-10-04T09:02:04.156Z</time>
      </trkpt>
      <trkpt lat="45.27318" lon="5.46243">
        <ele>348.957526</ele>
        <time>2022-10-04T09:02:06.154Z</time>
      </trkpt>
      <trkpt lat="45.2733" lon="5.46244">
        <ele>347.567595</ele>
        <time>2022-10-04T09:02:08.157Z</time>
      </trkpt>
      <trkpt lat="45.2734" lon="5.46245">
        <ele>346.497381</ele>
        <time>2022-10-04T09:02:10.157Z</time>
      </trkpt>
      <trkpt lat="45.2735" lon="5.46245">
        <ele>345.393492</ele>
        <time>2022-10-04T09:02:12.151Z</time>
      </trkpt>
      <trkpt lat="45.2736" lon="5.46246">
        <ele>344.19686</ele>
        <time>2022-10-04T09:02:14.151Z</time>
      </trkpt>
      <trkpt lat="45.2737" lon="5.46248">
        <ele>343.087797</ele>
        <time>2022-10-04T09:02:16.155Z</time>
      </trkpt>
      <trkpt lat="45.27379" lon="5.46249">
        <ele>342.072039</ele>
        <time>2022-10-04T09:02:18.152Z</time>
      </trkpt>
      <trkpt lat="45.27388" lon="5.46246">
        <ele>341.012233</ele>
        <time>2022-10-04T09:02:20.157Z</time>
      </trkpt>
      <trkpt lat="45.27395" lon="5.46237">
        <ele>339.96759</ele>
        <time>2022-10-04T09:02:22.159Z</time>
      </trkpt>
      <trkpt lat="45.27402" lon="5.46225">
        <ele>338.740131</ele>
        <time>2022-10-04T09:02:24.161Z</time>
      </trkpt>
      <trkpt lat="45.27405" lon="5.46212">
        <ele>337.652093</ele>
        <time>2022-10-04T09:02:26.153Z</time>
      </trkpt>
      <trkpt lat="45.27408" lon="5.46199">
        <ele>336.584462</ele>
        <time>2022-10-04T09:02:28.157Z</time>
      </trkpt>
      <trkpt lat="45.27419" lon="5.46196">
        <ele>335.347676</ele>
        <time>2022-10-04T09:02:31.154Z</time>
      </trkpt>
      <trkpt lat="45.27424" lon="5.46208">
        <ele>334.250545</ele>
        <time>2022-10-04T09:02:34.161Z</time>
      </trkpt>
      <trkpt lat="45.27419" lon="5.46221">
        <ele>333.067559</ele>
        <time>2022-10-04T09:02:36.154Z</time>
      </trkpt>
      <trkpt lat="45.27417" lon="5.46235">
        <ele>331.937362</ele>
        <time>2022-10-04T09:02:38.149Z</time>
      </trkpt>
      <trkpt lat="45.27416" lon="5.46252">
        <ele>331.833031</ele>
        <time>2022-10-04T09:02:40.154Z</time>
      </trkpt>
      <trkpt lat="45.27414" lon="5.46265">
        <ele>332.036003</ele>
        <time>2022-10-04T09:02:42.150Z</time>
      </trkpt>
      <trkpt lat="45.27411" lon="5.46278">
        <ele>332.239863</ele>
        <time>2022-10-04T09:02:44.152Z</time>
      </trkpt>
      <trkpt lat="45.27411" lon="5.46293">
        <ele>332.473617</ele>
        <time>2022-10-04T09:02:46.158Z</time>
      </trkpt>
      <trkpt lat="45.27417" lon="5.46311">
        <ele>332.7885</ele>
        <time>2022-10-04T09:02:49.152Z</time>
      </trkpt>
      <trkpt lat="45.27426" lon="5.46317">
        <ele>332.997526</ele>
        <time>2022-10-04T09:02:51.158Z</time>
      </trkpt>
      <trkpt lat="45.27439" lon="5.46319">
        <ele>333.292208</ele>
        <time>2022-10-04T09:02:53.154Z</time>
      </trkpt>
      <trkpt lat="45.27449" lon="5.46324">
        <ele>333.518117</ele>
        <time>2022-10-04T09:02:55.153Z</time>
      </trkpt>
      <trkpt lat="45.27458" lon="5.46329">
        <ele>333.739419</ele>
        <time>2022-10-04T09:02:57.150Z</time>
      </trkpt>
      <trkpt lat="45.27466" lon="5.46335">
        <ele>333.946197</ele>
        <time>2022-10-04T09:02:59.154Z</time>
      </trkpt>
      <trkpt lat="45.27479" lon="5.46342">
        <ele>334.238529</ele>
        <time>2022-10-04T09:03:01.162Z</time>
      </trkpt>
      <trkpt lat="45.27489" lon="5.46345">
        <ele>334.479355</ele>
        <time>2022-10-04T09:03:03.151Z</time>
      </trkpt>
      <trkpt lat="45.27502" lon="5.46351">
        <ele>334.76716</ele>
        <time>2022-10-04T09:03:05.151Z</time>
      </trkpt>
      <trkpt lat="45.27515" lon="5.46357">
        <ele>335.066674</ele>
        <time>2022-10-04T09:03:07.152Z</time>
      </trkpt>
      <trkpt lat="45.27528" lon="5.46361">
        <ele>335.361728</ele>
        <time>2022-10-04T09:03:09.151Z</time>
      </trkpt>
      <trkpt lat="45.2754" lon="5.46366">
        <ele>335.551958</ele>
        <time>2022-10-04T09:03:11.151Z</time>
      </trkpt>
      <trkpt lat="45.27553" lon="5.46371">
        <ele>335.398902</ele>
        <time>2022-10-04T09:03:13.153Z</time>
      </trkpt>
      <trkpt lat="45.27565" lon="5.46378">
        <ele>335.249159</ele>
        <time>2022-10-04T09:03:15.154Z</time>
      </trkpt>
      <trkpt lat="45.27577" lon="5.46385">
        <ele>335.105411</ele>
        <time>2022-10-04T09:03:17.154Z</time>
      </trkpt>
      <trkpt lat="45.27589" lon="5.46389">
        <ele>334.958928</ele>
        <time>2022-10-04T09:03:19.150Z</time>
      </trkpt>
      <trkpt lat="45.27601" lon="5.46395">
        <ele>334.817631</ele>
        <time>2022-10-04T09:03:21.153Z</time>
      </trkpt>
      <trkpt lat="45.27613" lon="5.46399">
        <ele>334.677878</ele>
        <time>2022-10-04T09:03:23.154Z</time>
      </trkpt>
      <trkpt lat="45.27624" lon="5.46403">
        <ele>334.546443</ele>
        <time>2022-10-04T09:03:25.151Z</time>
      </trkpt>
      <trkpt lat="45.27635" lon="5.46408">
        <ele>334.413531</ele>
        <time>2022-10-04T09:03:27.156Z</time>
      </trkpt>
      <trkpt lat="45.27646" lon="5.46414">
        <ele>334.278082</ele>
        <time>2022-10-04T09:03:29.152Z</time>
      </trkpt>
      <trkpt lat="45.27659" lon="5.46421">
        <ele>334.125432</ele>
        <time>2022-10-04T09:03:31.154Z</time>
      </trkpt>
      <trkpt lat="45.2767" lon="5.46428">
        <ele>333.991043</ele>
        <time>2022-10-04T09:03:33.151Z</time>
      </trkpt>
      <trkpt lat="45.2768" lon="5.46435">
        <ele>333.857672</ele>
        <time>2022-10-04T09:03:35.155Z</time>
      </trkpt>
      <trkpt lat="45.27691" lon="5.4644">
        <ele>333.732971</ele>
        <time>2022-10-04T09:03:37.151Z</time>
      </trkpt>
      <trkpt lat="45.27701" lon="5.46441">
        <ele>333.618145</ele>
        <time>2022-10-04T09:03:39.154Z</time>
      </trkpt>
      <trkpt lat="45.27711" lon="5.46445">
        <ele>333.546874</ele>
        <time>2022-10-04T09:03:41.151Z</time>
      </trkpt>
      <trkpt lat="45.2772" lon="5.46447">
        <ele>333.595721</ele>
        <time>2022-10-04T09:03:43.158Z</time>
      </trkpt>
      <trkpt lat="45.27729" lon="5.46449">
        <ele>333.642397</ele>
        <time>2022-10-04T09:03:46.153Z</time>
      </trkpt>
      <trkpt lat="45.27738" lon="5.46449">
        <ele>333.691285</ele>
        <time>2022-10-04T09:03:50.147Z</time>
      </trkpt>
      <trkpt lat="45.27748" lon="5.4645">
        <ele>333.74072</ele>
        <time>2022-10-04T09:03:56.152Z</time>
      </trkpt>
      <trkpt lat="45.27759" lon="5.46452">
        <ele>333.795796</ele>
        <time>2022-10-04T09:04:01.157Z</time>
      </trkpt>
      <trkpt lat="45.2777" lon="5.46454">
        <ele>333.85505</ele>
        <time>2022-10-04T09:04:06.158Z</time>
      </trkpt>
      <trkpt lat="45.27781" lon="5.46456">
        <ele>333.913564</ele>
        <time>2022-10-04T09:04:10.155Z</time>
      </trkpt>
      <trkpt lat="45.27791" lon="5.46456">
        <ele>333.96556</ele>
        <time>2022-10-04T09:04:14.157Z</time>
      </trkpt>
      <trkpt lat="45.27802" lon="5.4646">
        <ele>334.024269</ele>
        <time>2022-10-04T09:04:19.155Z</time>
      </trkpt>
      <trkpt lat="45.27814" lon="5.46468">
        <ele>334.091707</ele>
        <time>2022-10-04T09:04:22.151Z</time>
      </trkpt>
      <trkpt lat="45.27825" lon="5.46473">
        <ele>334.150761</ele>
        <time>2022-10-04T09:04:24.149Z</time>
      </trkpt>
      <trkpt lat="45.27836" lon="5.46478">
        <ele>334.210162</ele>
        <time>2022-10-04T09:04:26.154Z</time>
      </trkpt>
      <trkpt lat="45.27848" lon="5.46486">
        <ele>334.27543</ele>
        <time>2022-10-04T09:04:28.154Z</time>
      </trkpt>
      <trkpt lat="45.2786" lon="5.46495">
        <ele>334.345847</ele>
        <time>2022-10-04T09:04:30.150Z</time>
      </trkpt>
      <trkpt lat="45.2787" lon="5.46503">
        <ele>334.408235</ele>
        <time>2022-10-04T09:04:32.156Z</time>
      </trkpt>
      <trkpt lat="45.27882" lon="5.46512">
        <ele>334.394623</ele>
        <time>2022-10-04T09:04:34.156Z</time>
      </trkpt>
      <trkpt lat="45.27894" lon="5.46518">
        <ele>334.140505</ele>
        <time>2022-10-04T09:04:36.151Z</time>
      </trkpt>
      <trkpt lat="45.27904" lon="5.46526">
        <ele>333.911479</ele>
        <time>2022-10-04T09:04:38.152Z</time>
      </trkpt>
      <trkpt lat="45.27913" lon="5.46537">
        <ele>333.667965</ele>
        <time>2022-10-04T09:04:40.156Z</time>
      </trkpt>
      <trkpt lat="45.27923" lon="5.46544">
        <ele>333.452283</ele>
        <time>2022-10-04T09:04:42.155Z</time>
      </trkpt>
      <trkpt lat="45.27933" lon="5.46551">
        <ele>333.229235</ele>
        <time>2022-10-04T09:04:45.151Z</time>
      </trkpt>
      <trkpt lat="45.27943" lon="5.46563">
        <ele>332.968104</ele>
        <time>2022-10-04T09:04:48.153Z</time>
      </trkpt>
      <trkpt lat="45.27953" lon="5.46575">
        <ele>332.695323</ele>
        <time>2022-10-04T09:04:51.151Z</time>
      </trkpt>
      <trkpt lat="45.2796" lon="5.46585">
        <ele>332.503045</ele>
        <time>2022-10-04T09:04:53.155Z</time>
      </trkpt>
      <trkpt lat="45.27967" lon="5.46593">
        <ele>332.320082</ele>
        <time>2022-10-04T09:04:55.149Z</time>
      </trkpt>
      <trkpt lat="45.27974" lon="5.46603">
        <ele>332.126027</ele>
        <time>2022-10-04T09:04:57.152Z</time>
      </trkpt>
      <trkpt lat="45.27982" lon="5.46612">
        <ele>331.925101</ele>
        <time>2022-10-04T09:04:59.156Z</time>
      </trkpt>
      <trkpt lat="45.27988" lon="5.46624">
        <ele>331.717854</ele>
        <time>2022-10-04T09:05:01.155Z</time>
      </trkpt>
      <trkpt lat="45.27988" lon="5.46645">
        <ele>331.416691</ele>
        <time>2022-10-04T09:05:04.155Z</time>
      </trkpt>
      <trkpt lat="45.27983" lon="5.46663">
        <ele>331.147841</ele>
        <time>2022-10-04T09:05:06.152Z</time>
      </trkpt>
      <trkpt lat="45.27977" lon="5.46678">
        <ele>330.901827</ele>
        <time>2022-10-04T09:05:08.155Z</time>
      </trkpt>
      <trkpt lat="45.2797" lon="5.46693">
        <ele>331.073795</ele>
        <time>2022-10-04T09:05:10.155Z</time>
      </trkpt>
      <trkpt lat="45.27966" lon="5.46706">
        <ele>331.280546</ele>
        <time>2022-10-04T09:05:12.152Z</time>
      </trkpt>
      <trkpt lat="45.27963" lon="5.46719">
        <ele>331.479359</ele>
        <time>2022-10-04T09:05:14.157Z</time>
      </trkpt>
      <trkpt lat="45.27966" lon="5.46736">
        <ele>331.735587</ele>
        <time>2022-10-04T09:05:17.154Z</time>
      </trkpt>
      <trkpt lat="45.27974" lon="5.46747">
        <ele>331.971475</ele>
        <time>2022-10-04T09:05:20.150Z</time>
      </trkpt>
      <trkpt lat="45.27985" lon="5.46749">
        <ele>332.190388</ele>
        <time>2022-10-04T09:05:22.156Z</time>
      </trkpt>
      <trkpt lat="45.27997" lon="5.46756">
        <ele>332.466804</ele>
        <time>2022-10-04T09:05:25.151Z</time>
      </trkpt>
      <trkpt lat="45.28009" lon="5.46762">
        <ele>332.727206</ele>
        <time>2022-10-04T09:05:28.152Z</time>
      </trkpt>
      <trkpt lat="45.28024" lon="5.46771">
        <ele>333.055869</ele>
        <time>2022-10-04T09:05:30.156Z</time>
      </trkpt>
      <trkpt lat="45.28033" lon="5.46776">
        <ele>333.258621</ele>
        <time>2022-10-04T09:05:32.157Z</time>
      </trkpt>
      <trkpt lat="45.28043" lon="5.46782">
        <ele>333.477955</ele>
        <time>2022-10-04T09:05:34.154Z</time>
      </trkpt>
      <trkpt lat="45.28053" lon="5.46789">
        <ele>333.708708</ele>
        <time>2022-10-04T09:05:36.157Z</time>
      </trkpt>
      <trkpt lat="45.28067" lon="5.46796">
        <ele>334.005959</ele>
        <time>2022-10-04T09:05:38.152Z</time>
      </trkpt>
      <trkpt lat="45.28078" lon="5.46805">
        <ele>334.275948</ele>
        <time>2022-10-04T09:05:40.150Z</time>
      </trkpt>
      <trkpt lat="45.28087" lon="5.46811">
        <ele>334.491233</ele>
        <time>2022-10-04T09:05:42.151Z</time>
      </trkpt>
      <trkpt lat="45.28097" lon="5.46818">
        <ele>335.103724</ele>
        <time>2022-10-04T09:05:44.150Z</time>
      </trkpt>
      <trkpt lat="45.28106" lon="5.46823">
        <ele>335.858995</ele>
        <time>2022-10-04T09:05:46.153Z</time>
      </trkpt>
      <trkpt lat="45.28115" lon="5.46828">
        <ele>336.705176</ele>
        <time>2022-10-04T09:05:48.152Z</time>
      </trkpt>
      <trkpt lat="45.28125" lon="5.46833">
        <ele>337.533631</ele>
        <time>2022-10-04T09:05:50.154Z</time>
      </trkpt>
      <trkpt lat="45.28135" lon="5.4684">
        <ele>338.433954</ele>
        <time>2022-10-04T09:05:52.152Z</time>
      </trkpt>
      <trkpt lat="45.28145" lon="5.46846">
        <ele>339.246293</ele>
        <time>2022-10-04T09:05:54.154Z</time>
      </trkpt>
      <trkpt lat="45.28153" lon="5.46852">
        <ele>340.000104</ele>
        <time>2022-10-04T09:05:56.150Z</time>
      </trkpt>
      <trkpt lat="45.28163" lon="5.46858">
        <ele>340.895708</ele>
        <time>2022-10-04T09:05:58.154Z</time>
      </trkpt>
      <trkpt lat="45.28174" lon="5.46864">
        <ele>341.848284</ele>
        <time>2022-10-04T09:06:01.154Z</time>
      </trkpt>
      <trkpt lat="45.28185" lon="5.46872">
        <ele>342.760899</ele>
        <time>2022-10-04T09:06:04.151Z</time>
      </trkpt>
      <trkpt lat="45.28196" lon="5.46877">
        <ele>343.68552</ele>
        <time>2022-10-04T09:06:07.152Z</time>
      </trkpt>
      <trkpt lat="45.28207" lon="5.46883">
        <ele>344.63453</ele>
        <time>2022-10-04T09:06:11.150Z</time>
      </trkpt>
      <trkpt lat="45.28217" lon="5.46886">
        <ele>345.435626</ele>
        <time>2022-10-04T09:06:15.150Z</time>
      </trkpt>
      <trkpt lat="45.28228" lon="5.46891">
        <ele>346.366133</ele>
        <time>2022-10-04T09:06:19.151Z</time>
      </trkpt>
      <trkpt lat="45.28237" lon="5.46896">
        <ele>347.135102</ele>
        <time>2022-10-04T09:06:22.159Z</time>
      </trkpt>
      <trkpt lat="45.28245" lon="5.46899">
        <ele>347.856139</ele>
        <time>2022-10-04T09:06:26.155Z</time>
      </trkpt>
      <trkpt lat="45.28254" lon="5.46905">
        <ele>348.604897</ele>
        <time>2022-10-04T09:06:30.155Z</time>
      </trkpt>
      <trkpt lat="45.28263" lon="5.46911">
        <ele>349.5194</ele>
        <time>2022-10-04T09:06:34.154Z</time>
      </trkpt>
      <trkpt lat="45.28272" lon="5.46917">
        <ele>350.366963</ele>
        <time>2022-10-04T09:06:38.152Z</time>
      </trkpt>
      <trkpt lat="45.28282" lon="5.46922">
        <ele>351.324851</ele>
        <time>2022-10-04T09:06:42.152Z</time>
      </trkpt>
      <trkpt lat="45.2829" lon="5.4693">
        <ele>352.205729</ele>
        <time>2022-10-04T09:06:46.151Z</time>
      </trkpt>
      <trkpt lat="45.28297" lon="5.46937">
        <ele>353.038745</ele>
        <time>2022-10-04T09:06:50.151Z</time>
      </trkpt>
      <trkpt lat="45.28305" lon="5.46944">
        <ele>353.869215</ele>
        <time>2022-10-04T09:06:54.155Z</time>
      </trkpt>
      <trkpt lat="45.28312" lon="5.46954">
        <ele>354.752053</ele>
        <time>2022-10-04T09:06:58.153Z</time>
      </trkpt>
      <trkpt lat="45.2832" lon="5.46963">
        <ele>355.714761</ele>
        <time>2022-10-04T09:07:02.151Z</time>
      </trkpt>
      <trkpt lat="45.28327" lon="5.46975">
        <ele>356.676761</ele>
        <time>2022-10-04T09:07:06.152Z</time>
      </trkpt>
      <trkpt lat="45.28333" lon="5.46987">
        <ele>357.601151</ele>
        <time>2022-10-04T09:07:10.152Z</time>
      </trkpt>
      <trkpt lat="45.28339" lon="5.46997">
        <ele>358.50931</ele>
        <time>2022-10-04T09:07:14.150Z</time>
      </trkpt>
      <trkpt lat="45.28345" lon="5.47009">
        <ele>359.37121</ele>
        <time>2022-10-04T09:07:18.153Z</time>
      </trkpt>
      <trkpt lat="45.28351" lon="5.4702">
        <ele>360.274733</ele>
        <time>2022-10-04T09:07:22.157Z</time>
      </trkpt>
      <trkpt lat="45.28357" lon="5.47032">
        <ele>361.214788</ele>
        <time>2022-10-04T09:07:26.152Z</time>
      </trkpt>
      <trkpt lat="45.28362" lon="5.47045">
        <ele>362.149666</ele>
        <time>2022-10-04T09:07:30.153Z</time>
      </trkpt>
      <trkpt lat="45.28366" lon="5.47057">
        <ele>363.046284</ele>
        <time>2022-10-04T09:07:34.153Z</time>
      </trkpt>
      <trkpt lat="45.28372" lon="5.4707">
        <ele>364.017787</ele>
        <time>2022-10-04T09:07:38.151Z</time>
      </trkpt>
      <trkpt lat="45.28379" lon="5.47083">
        <ele>365.057057</ele>
        <time>2022-10-04T09:07:42.154Z</time>
      </trkpt>
      <trkpt lat="45.28385" lon="5.47096">
        <ele>365.458515</ele>
        <time>2022-10-04T09:07:46.153Z</time>
      </trkpt>
      <trkpt lat="45.28392" lon="5.47108">
        <ele>365.712526</ele>
        <time>2022-10-04T09:07:50.153Z</time>
      </trkpt>
      <trkpt lat="45.28398" lon="5.47122">
        <ele>365.968898</ele>
        <time>2022-10-04T09:07:54.153Z</time>
      </trkpt>
      <trkpt lat="45.28404" lon="5.47135">
        <ele>366.225271</ele>
        <time>2022-10-04T09:07:58.152Z</time>
      </trkpt>
      <trkpt lat="45.2841" lon="5.47146">
        <ele>366.459159</ele>
        <time>2022-10-04T09:08:02.154Z</time>
      </trkpt>
      <trkpt lat="45.28417" lon="5.47158">
        <ele>366.707569</ele>
        <time>2022-10-04T09:08:06.154Z</time>
      </trkpt>
      <trkpt lat="45.28425" lon="5.47169">
        <ele>366.960401</ele>
        <time>2022-10-04T09:08:10.151Z</time>
      </trkpt>
      <trkpt lat="45.28433" lon="5.4718">
        <ele>367.213241</ele>
        <time>2022-10-04T09:08:14.150Z</time>
      </trkpt>
      <trkpt lat="45.28441" lon="5.47191">
        <ele>367.472744</ele>
        <time>2022-10-04T09:08:18.152Z</time>
      </trkpt>
      <trkpt lat="45.2845" lon="5.47202">
        <ele>367.738919</ele>
        <time>2022-10-04T09:08:22.151Z</time>
      </trkpt>
      <trkpt lat="45.28457" lon="5.47211">
        <ele>367.956392</ele>
        <time>2022-10-04T09:08:25.156Z</time>
      </trkpt>
      <trkpt lat="45.28466" lon="5.47217">
        <ele>368.200648</ele>
        <time>2022-10-04T09:08:28.154Z</time>
      </trkpt>
      <trkpt lat="45.28478" lon="5.47225">
        <ele>368.502938</ele>
        <time>2022-10-04T09:08:31.153Z</time>
      </trkpt>
      <trkpt lat="45.28488" lon="5.47232">
        <ele>368.749927</ele>
        <time>2022-10-04T09:08:33.151Z</time>
      </trkpt>
      <trkpt lat="45.28499" lon="5.47239">
        <ele>369.015567</ele>
        <time>2022-10-04T09:08:35.155Z</time>
      </trkpt>
      <trkpt lat="45.28508" lon="5.47246">
        <ele>369.265902</ele>
        <time>2022-10-04T09:08:37.152Z</time>
      </trkpt>
      <trkpt lat="45.28518" lon="5.47254">
        <ele>369.238517</ele>
        <time>2022-10-04T09:08:39.150Z</time>
      </trkpt>
      <trkpt lat="45.28529" lon="5.47263">
        <ele>368.921531</ele>
        <time>2022-10-04T09:08:41.152Z</time>
      </trkpt>
      <trkpt lat="45.28539" lon="5.47272">
        <ele>368.608669</ele>
        <time>2022-10-04T09:08:43.151Z</time>
      </trkpt>
      <trkpt lat="45.28549" lon="5.47284">
        <ele>368.261951</ele>
        <time>2022-10-04T09:08:45.153Z</time>
      </trkpt>
      <trkpt lat="45.2856" lon="5.47295">
        <ele>367.912868</ele>
        <time>2022-10-04T09:08:47.152Z</time>
      </trkpt>
      <trkpt lat="45.28571" lon="5.47306">
        <ele>367.559468</ele>
        <time>2022-10-04T09:08:49.155Z</time>
      </trkpt>
      <trkpt lat="45.28582" lon="5.47319">
        <ele>367.199726</ele>
        <time>2022-10-04T09:08:51.154Z</time>
      </trkpt>
      <trkpt lat="45.28592" lon="5.47331">
        <ele>366.841911</ele>
        <time>2022-10-04T09:08:53.154Z</time>
      </trkpt>
      <trkpt lat="45.28602" lon="5.47342">
        <ele>366.523759</ele>
        <time>2022-10-04T09:08:55.153Z</time>
      </trkpt>
      <trkpt lat="45.28612" lon="5.47355">
        <ele>366.179735</ele>
        <time>2022-10-04T09:08:57.153Z</time>
      </trkpt>
      <trkpt lat="45.28623" lon="5.47366">
        <ele>365.808359</ele>
        <time>2022-10-04T09:08:59.151Z</time>
      </trkpt>
      <trkpt lat="45.28634" lon="5.47378">
        <ele>365.446402</ele>
        <time>2022-10-04T09:09:01.152Z</time>
      </trkpt>
      <trkpt lat="45.28644" lon="5.47389">
        <ele>365.136929</ele>
        <time>2022-10-04T09:09:03.157Z</time>
      </trkpt>
      <trkpt lat="45.28654" lon="5.47399">
        <ele>364.818617</ele>
        <time>2022-10-04T09:09:05.157Z</time>
      </trkpt>
      <trkpt lat="45.28664" lon="5.47408">
        <ele>364.858623</ele>
        <time>2022-10-04T09:09:07.150Z</time>
      </trkpt>
      <trkpt lat="45.28674" lon="5.47419">
        <ele>365.099457</ele>
        <time>2022-10-04T09:09:09.151Z</time>
      </trkpt>
      <trkpt lat="45.28684" lon="5.47429">
        <ele>365.323504</ele>
        <time>2022-10-04T09:09:11.154Z</time>
      </trkpt>
      <trkpt lat="45.28693" lon="5.4744">
        <ele>365.545661</ele>
        <time>2022-10-04T09:09:13.154Z</time>
      </trkpt>
      <trkpt lat="45.28701" lon="5.47448">
        <ele>365.733129</ele>
        <time>2022-10-04T09:09:15.153Z</time>
      </trkpt>
      <trkpt lat="45.28709" lon="5.47458">
        <ele>365.927835</ele>
        <time>2022-10-04T09:09:17.152Z</time>
      </trkpt>
      <trkpt lat="45.28719" lon="5.4747">
        <ele>366.170281</ele>
        <time>2022-10-04T09:09:20.154Z</time>
      </trkpt>
      <trkpt lat="45.28727" lon="5.47481">
        <ele>366.38092</ele>
        <time>2022-10-04T09:09:23.154Z</time>
      </trkpt>
      <trkpt lat="45.28735" lon="5.47493">
        <ele>366.601512</ele>
        <time>2022-10-04T09:09:26.154Z</time>
      </trkpt>
      <trkpt lat="45.28743" lon="5.47502">
        <ele>366.801633</ele>
        <time>2022-10-04T09:09:29.154Z</time>
      </trkpt>
      <trkpt lat="45.28752" lon="5.47511">
        <ele>366.995825</ele>
        <time>2022-10-04T09:09:32.157Z</time>
      </trkpt>
      <trkpt lat="45.28761" lon="5.47519">
        <ele>367.189671</ele>
        <time>2022-10-04T09:09:35.156Z</time>
      </trkpt>
      <trkpt lat="45.28771" lon="5.47524">
        <ele>367.407537</ele>
        <time>2022-10-04T09:09:38.150Z</time>
      </trkpt>
      <trkpt lat="45.28783" lon="5.47527">
        <ele>367.618564</ele>
        <time>2022-10-04T09:09:41.150Z</time>
      </trkpt>
      <trkpt lat="45.28792" lon="5.47528">
        <ele>367.789881</ele>
        <time>2022-10-04T09:09:44.153Z</time>
      </trkpt>
      <trkpt lat="45.28802" lon="5.47529">
        <ele>367.979636</ele>
        <time>2022-10-04T09:09:47.157Z</time>
      </trkpt>
      <trkpt lat="45.28817" lon="5.47529">
        <ele>367.664411</ele>
        <time>2022-10-04T09:09:49.153Z</time>
      </trkpt>
      <trkpt lat="45.28831" lon="5.4753">
        <ele>366.999789</ele>
        <time>2022-10-04T09:09:51.151Z</time>
      </trkpt>
      <trkpt lat="45.28845" lon="5.47534">
        <ele>366.345893</ele>
        <time>2022-10-04T09:09:53.159Z</time>
      </trkpt>
      <trkpt lat="45.28859" lon="5.4754">
        <ele>365.716927</ele>
        <time>2022-10-04T09:09:55.152Z</time>
      </trkpt>
      <trkpt lat="45.28869" lon="5.47549">
        <ele>365.160823</ele>
        <time>2022-10-04T09:09:57.153Z</time>
      </trkpt>
      <trkpt lat="45.28878" lon="5.4756">
        <ele>364.62633</ele>
        <time>2022-10-04T09:09:59.156Z</time>
      </trkpt>
      <trkpt lat="45.28885" lon="5.47576">
        <ele>364.025425</ele>
        <time>2022-10-04T09:10:01.155Z</time>
      </trkpt>
      <trkpt lat="45.28893" lon="5.47593">
        <ele>363.391166</ele>
        <time>2022-10-04T09:10:03.151Z</time>
      </trkpt>
      <trkpt lat="45.28901" lon="5.47609">
        <ele>362.746558</ele>
        <time>2022-10-04T09:10:05.152Z</time>
      </trkpt>
      <trkpt lat="45.28911" lon="5.47624">
        <ele>362.103762</ele>
        <time>2022-10-04T09:10:07.152Z</time>
      </trkpt>
      <trkpt lat="45.28922" lon="5.47637">
        <ele>361.468585</ele>
        <time>2022-10-04T09:10:09.155Z</time>
      </trkpt>
      <trkpt lat="45.28933" lon="5.47649">
        <ele>360.83865</ele>
        <time>2022-10-04T09:10:11.150Z</time>
      </trkpt>
      <trkpt lat="45.28944" lon="5.4766">
        <ele>360.205221</ele>
        <time>2022-10-04T09:10:13.155Z</time>
      </trkpt>
      <trkpt lat="45.28957" lon="5.47671">
        <ele>359.318686</ele>
        <time>2022-10-04T09:10:15.150Z</time>
      </trkpt>
      <trkpt lat="45.28969" lon="5.47683">
        <ele>358.333417</ele>
        <time>2022-10-04T09:10:17.153Z</time>
      </trkpt>
      <trkpt lat="45.28981" lon="5.47697">
        <ele>357.288402</ele>
        <time>2022-10-04T09:10:19.153Z</time>
      </trkpt>
      <trkpt lat="45.28993" lon="5.47711">
        <ele>356.222822</ele>
        <time>2022-10-04T09:10:21.153Z</time>
      </trkpt>
      <trkpt lat="45.29007" lon="5.47726">
        <ele>355.069484</ele>
        <time>2022-10-04T09:10:23.156Z</time>
      </trkpt>
      <trkpt lat="45.29019" lon="5.47739">
        <ele>354.067207</ele>
        <time>2022-10-04T09:10:25.151Z</time>
      </trkpt>
      <trkpt lat="45.29031" lon="5.47755">
        <ele>352.959495</ele>
        <time>2022-10-04T09:10:27.150Z</time>
      </trkpt>
      <trkpt lat="45.29041" lon="5.47767">
        <ele>352.055235</ele>
        <time>2022-10-04T09:10:29.154Z</time>
      </trkpt>
      <trkpt lat="45.29048" lon="5.47783">
        <ele>351.137696</ele>
        <time>2022-10-04T09:10:31.152Z</time>
      </trkpt>
      <trkpt lat="45.29055" lon="5.478">
        <ele>350.188058</ele>
        <time>2022-10-04T09:10:33.147Z</time>
      </trkpt>
      <trkpt lat="45.29068" lon="5.47816">
        <ele>349.05581</ele>
        <time>2022-10-04T09:10:35.150Z</time>
      </trkpt>
      <trkpt lat="45.2908" lon="5.4783">
        <ele>348.003598</ele>
        <time>2022-10-04T09:10:37.152Z</time>
      </trkpt>
      <trkpt lat="45.29092" lon="5.47846">
        <ele>346.330037</ele>
        <time>2022-10-04T09:10:39.153Z</time>
      </trkpt>
      <trkpt lat="45.29101" lon="5.4786">
        <ele>344.813631</ele>
        <time>2022-10-04T09:10:41.149Z</time>
      </trkpt>
      <trkpt lat="45.2911" lon="5.4787">
        <ele>343.573156</ele>
        <time>2022-10-04T09:10:43.149Z</time>
      </trkpt>
      <trkpt lat="45.29118" lon="5.4788">
        <ele>342.383643</ele>
        <time>2022-10-04T09:10:45.157Z</time>
      </trkpt>
      <trkpt lat="45.29131" lon="5.47885">
        <ele>340.939299</ele>
        <time>2022-10-04T09:10:47.150Z</time>
      </trkpt>
      <trkpt lat="45.29145" lon="5.47886">
        <ele>339.330097</ele>
        <time>2022-10-04T09:10:49.152Z</time>
      </trkpt>
      <trkpt lat="45.2916" lon="5.47888">
        <ele>337.627587</ele>
        <time>2022-10-04T09:10:51.154Z</time>
      </trkpt>
      <trkpt lat="45.29171" lon="5.47888">
        <ele>336.484933</ele>
        <time>2022-10-04T09:10:52.155Z</time>
      </trkpt>
      <trkpt lat="45.29181" lon="5.47891">
        <ele>335.318972</ele>
        <time>2022-10-04T09:10:53.149Z</time>
      </trkpt>
      <trkpt lat="45.29199" lon="5.47896">
        <ele>333.250941</ele>
        <time>2022-10-04T09:10:55.155Z</time>
      </trkpt>
      <trkpt lat="45.29209" lon="5.47899">
        <ele>332.13449</ele>
        <time>2022-10-04T09:10:56.151Z</time>
      </trkpt>
      <trkpt lat="45.29225" lon="5.47904">
        <ele>330.287446</ele>
        <time>2022-10-04T09:10:58.149Z</time>
      </trkpt>
      <trkpt lat="45.29241" lon="5.47911">
        <ele>328.508158</ele>
        <time>2022-10-04T09:11:00.154Z</time>
      </trkpt>
      <trkpt lat="45.29256" lon="5.4792">
        <ele>326.083802</ele>
        <time>2022-10-04T09:11:02.152Z</time>
      </trkpt>
      <trkpt lat="45.29265" lon="5.47927">
        <ele>324.511171</ele>
        <time>2022-10-04T09:11:03.153Z</time>
      </trkpt>
      <trkpt lat="45.29273" lon="5.47935">
        <ele>322.851077</ele>
        <time>2022-10-04T09:11:04.150Z</time>
      </trkpt>
      <trkpt lat="45.29284" lon="5.47954">
        <ele>319.972928</ele>
        <time>2022-10-04T09:11:06.151Z</time>
      </trkpt>
      <trkpt lat="45.29294" lon="5.47975">
        <ele>317.196841</ele>
        <time>2022-10-04T09:11:08.149Z</time>
      </trkpt>
      <trkpt lat="45.293" lon="5.47989">
        <ele>315.260315</ele>
        <time>2022-10-04T09:11:10.149Z</time>
      </trkpt>
      <trkpt lat="45.29305" lon="5.48002">
        <ele>313.559714</ele>
        <time>2022-10-04T09:11:12.151Z</time>
      </trkpt>
      <trkpt lat="45.29313" lon="5.48019">
        <ele>311.131635</ele>
        <time>2022-10-04T09:11:14.149Z</time>
      </trkpt>
      <trkpt lat="45.29321" lon="5.48035">
        <ele>308.937353</ele>
        <time>2022-10-04T09:11:16.150Z</time>
      </trkpt>
      <trkpt lat="45.29331" lon="5.48048">
        <ele>306.753177</ele>
        <time>2022-10-04T09:11:18.150Z</time>
      </trkpt>
      <trkpt lat="45.29344" lon="5.48059">
        <ele>304.256491</ele>
        <time>2022-10-04T09:11:20.150Z</time>
      </trkpt>
      <trkpt lat="45.29355" lon="5.48069">
        <ele>302.151303</ele>
        <time>2022-10-04T09:11:22.153Z</time>
      </trkpt>
      <trkpt lat="45.29368" lon="5.48075">
        <ele>300.00528</ele>
        <time>2022-10-04T09:11:24.150Z</time>
      </trkpt>
      <trkpt lat="45.29382" lon="5.48079">
        <ele>298.165929</ele>
        <time>2022-10-04T09:11:26.155Z</time>
      </trkpt>
      <trkpt lat="45.29395" lon="5.48085">
        <ele>297.149809</ele>
        <time>2022-10-04T09:11:28.156Z</time>
      </trkpt>
      <trkpt lat="45.2941" lon="5.48089">
        <ele>296.0263</ele>
        <time>2022-10-04T09:11:30.148Z</time>
      </trkpt>
      <trkpt lat="45.29423" lon="5.48095">
        <ele>294.974722</ele>
        <time>2022-10-04T09:11:32.162Z</time>
      </trkpt>
      <trkpt lat="45.29437" lon="5.48099">
        <ele>293.95178</ele>
        <time>2022-10-04T09:11:34.160Z</time>
      </trkpt>
      <trkpt lat="45.29452" lon="5.48104">
        <ele>292.823828</ele>
        <time>2022-10-04T09:11:36.154Z</time>
      </trkpt>
      <trkpt lat="45.29466" lon="5.48112">
        <ele>291.712611</ele>
        <time>2022-10-04T09:11:38.151Z</time>
      </trkpt>
      <trkpt lat="45.29474" lon="5.48118">
        <ele>291.044224</ele>
        <time>2022-10-04T09:11:40.150Z</time>
      </trkpt>
      <trkpt lat="45.29505" lon="5.48146">
        <ele>288.365777</ele>
        <time>2022-10-04T09:12:57.151Z</time>
      </trkpt>
      <trkpt lat="45.29516" lon="5.48149">
        <ele>287.534918</ele>
        <time>2022-10-04T09:12:59.148Z</time>
      </trkpt>
      <trkpt lat="45.29526" lon="5.48152">
        <ele>286.761527</ele>
        <time>2022-10-04T09:13:01.156Z</time>
      </trkpt>
      <trkpt lat="45.29536" lon="5.48156">
        <ele>286.018389</ele>
        <time>2022-10-04T09:13:03.154Z</time>
      </trkpt>
      <trkpt lat="45.29545" lon="5.48162">
        <ele>285.325816</ele>
        <time>2022-10-04T09:13:05.151Z</time>
      </trkpt>
      <trkpt lat="45.29554" lon="5.4817">
        <ele>284.822551</ele>
        <time>2022-10-04T09:13:07.149Z</time>
      </trkpt>
      <trkpt lat="45.29564" lon="5.48177">
        <ele>284.312817</ele>
        <time>2022-10-04T09:13:09.147Z</time>
      </trkpt>
      <trkpt lat="45.29572" lon="5.48183">
        <ele>283.86692</ele>
        <time>2022-10-04T09:13:11.156Z</time>
      </trkpt>
      <trkpt lat="45.29582" lon="5.48191">
        <ele>283.337522</ele>
        <time>2022-10-04T09:13:13.156Z</time>
      </trkpt>
      <trkpt lat="45.29593" lon="5.48197">
        <ele>282.803316</ele>
        <time>2022-10-04T09:13:15.156Z</time>
      </trkpt>
      <trkpt lat="45.29604" lon="5.48204">
        <ele>282.218762</ele>
        <time>2022-10-04T09:13:17.146Z</time>
      </trkpt>
      <trkpt lat="45.29614" lon="5.48211">
        <ele>281.676693</ele>
        <time>2022-10-04T09:13:19.145Z</time>
      </trkpt>
      <trkpt lat="45.29623" lon="5.48222">
        <ele>281.143535</ele>
        <time>2022-10-04T09:13:21.150Z</time>
      </trkpt>
      <trkpt lat="45.29625" lon="5.48239">
        <ele>280.590156</ele>
        <time>2022-10-04T09:13:23.148Z</time>
      </trkpt>
      <trkpt lat="45.29622" lon="5.48258">
        <ele>279.93237</ele>
        <time>2022-10-04T09:13:25.149Z</time>
      </trkpt>
      <trkpt lat="45.29615" lon="5.48276">
        <ele>279.251947</ele>
        <time>2022-10-04T09:13:27.154Z</time>
      </trkpt>
      <trkpt lat="45.29606" lon="5.48294">
        <ele>278.538149</ele>
        <time>2022-10-04T09:13:29.148Z</time>
      </trkpt>
      <trkpt lat="45.29597" lon="5.48315">
        <ele>277.721441</ele>
        <time>2022-10-04T09:13:31.154Z</time>
      </trkpt>
      <trkpt lat="45.29588" lon="5.48336">
        <ele>276.91648</ele>
        <time>2022-10-04T09:13:33.154Z</time>
      </trkpt>
      <trkpt lat="45.29582" lon="5.48354">
        <ele>276.653788</ele>
        <time>2022-10-04T09:13:35.155Z</time>
      </trkpt>
      <trkpt lat="45.29583" lon="5.48369">
        <ele>276.460153</ele>
        <time>2022-10-04T09:13:37.149Z</time>
      </trkpt>
      <trkpt lat="45.29592" lon="5.48381">
        <ele>276.232932</ele>
        <time>2022-10-04T09:13:39.148Z</time>
      </trkpt>
      <trkpt lat="45.29606" lon="5.48389">
        <ele>275.958251</ele>
        <time>2022-10-04T09:13:41.153Z</time>
      </trkpt>
      <trkpt lat="45.29619" lon="5.48396">
        <ele>275.691162</ele>
        <time>2022-10-04T09:13:43.153Z</time>
      </trkpt>
      <trkpt lat="45.2963" lon="5.48405">
        <ele>275.451992</ele>
        <time>2022-10-04T09:13:45.150Z</time>
      </trkpt>
      <trkpt lat="45.29641" lon="5.48413">
        <ele>275.22588</ele>
        <time>2022-10-04T09:13:47.149Z</time>
      </trkpt>
      <trkpt lat="45.29655" lon="5.48419">
        <ele>274.95602</ele>
        <time>2022-10-04T09:13:49.153Z</time>
      </trkpt>
      <trkpt lat="45.29669" lon="5.48425">
        <ele>274.68929</ele>
        <time>2022-10-04T09:13:51.161Z</time>
      </trkpt>
      <trkpt lat="45.29681" lon="5.48432">
        <ele>274.445342</ele>
        <time>2022-10-04T09:13:53.167Z</time>
      </trkpt>
      <trkpt lat="45.29693" lon="5.48438">
        <ele>274.207675</ele>
        <time>2022-10-04T09:13:55.151Z</time>
      </trkpt>
      <trkpt lat="45.29705" lon="5.48445">
        <ele>273.960271</ele>
        <time>2022-10-04T09:13:57.152Z</time>
      </trkpt>
      <trkpt lat="45.29719" lon="5.48452">
        <ele>273.698057</ele>
        <time>2022-10-04T09:13:59.153Z</time>
      </trkpt>
      <trkpt lat="45.2973" lon="5.48458">
        <ele>273.385544</ele>
        <time>2022-10-04T09:14:01.149Z</time>
      </trkpt>
      <trkpt lat="45.29739" lon="5.48464">
        <ele>273.00966</ele>
        <time>2022-10-04T09:14:03.154Z</time>
      </trkpt>
      <trkpt lat="45.29749" lon="5.4847">
        <ele>272.611718</ele>
        <time>2022-10-04T09:14:06.153Z</time>
      </trkpt>
      <trkpt lat="45.29758" lon="5.48479">
        <ele>272.236459</ele>
        <time>2022-10-04T09:14:27.159Z</time>
      </trkpt>
      <trkpt lat="45.29766" lon="5.48483">
        <ele>271.902709</ele>
        <time>2022-10-04T09:14:30.155Z</time>
      </trkpt>
      <trkpt lat="45.29776" lon="5.48487">
        <ele>271.551358</ele>
        <time>2022-10-04T09:14:33.150Z</time>
      </trkpt>
      <trkpt lat="45.29787" lon="5.48491">
        <ele>271.131776</ele>
        <time>2022-10-04T09:14:36.152Z</time>
      </trkpt>
      <trkpt lat="45.29796" lon="5.48496">
        <ele>270.757146</ele>
        <time>2022-10-04T09:14:38.156Z</time>
      </trkpt>
      <trkpt lat="45.29808" lon="5.485">
        <ele>270.34357</ele>
        <time>2022-10-04T09:14:40.154Z</time>
      </trkpt>
      <trkpt lat="45.29819" lon="5.48502">
        <ele>269.911779</ele>
        <time>2022-10-04T09:14:42.152Z</time>
      </trkpt>
      <trkpt lat="45.29831" lon="5.48507">
        <ele>269.458086</ele>
        <time>2022-10-04T09:14:44.154Z</time>
      </trkpt>
      <trkpt lat="45.29844" lon="5.48514">
        <ele>268.98363</ele>
        <time>2022-10-04T09:14:46.154Z</time>
      </trkpt>
      <trkpt lat="45.29857" lon="5.48519">
        <ele>268.46655</ele>
        <time>2022-10-04T09:14:48.151Z</time>
      </trkpt>
      <trkpt lat="45.29871" lon="5.48525">
        <ele>267.959899</ele>
        <time>2022-10-04T09:14:50.152Z</time>
      </trkpt>
      <trkpt lat="45.29884" lon="5.48528">
        <ele>267.464435</ele>
        <time>2022-10-04T09:14:52.153Z</time>
      </trkpt>
      <trkpt lat="45.29898" lon="5.48535">
        <ele>266.901838</ele>
        <time>2022-10-04T09:14:54.151Z</time>
      </trkpt>
      <trkpt lat="45.29914" lon="5.48542">
        <ele>266.194448</ele>
        <time>2022-10-04T09:14:56.156Z</time>
      </trkpt>
      <trkpt lat="45.29928" lon="5.48549">
        <ele>265.542195</ele>
        <time>2022-10-04T09:14:58.152Z</time>
      </trkpt>
      <trkpt lat="45.29942" lon="5.48563">
        <ele>264.799856</ele>
        <time>2022-10-04T09:15:00.151Z</time>
      </trkpt>
      <trkpt lat="45.29955" lon="5.4858">
        <ele>264.053506</ele>
        <time>2022-10-04T09:15:02.155Z</time>
      </trkpt>
      <trkpt lat="45.29963" lon="5.4859">
        <ele>263.615847</ele>
        <time>2022-10-04T09:15:03.149Z</time>
      </trkpt>
      <trkpt lat="45.29968" lon="5.48601">
        <ele>263.197166</ele>
        <time>2022-10-04T09:15:04.162Z</time>
      </trkpt>
      <trkpt lat="45.29974" lon="5.48612">
        <ele>262.774958</ele>
        <time>2022-10-04T09:15:05.156Z</time>
      </trkpt>
      <trkpt lat="45.2998" lon="5.48622">
        <ele>262.372985</ele>
        <time>2022-10-04T09:15:06.147Z</time>
      </trkpt>
      <trkpt lat="45.29986" lon="5.48634">
        <ele>261.959286</ele>
        <time>2022-10-04T09:15:07.153Z</time>
      </trkpt>
      <trkpt lat="45.29992" lon="5.48644">
        <ele>261.554245</ele>
        <time>2022-10-04T09:15:08.154Z</time>
      </trkpt>
      <trkpt lat="45.29998" lon="5.48655">
        <ele>261.124623</ele>
        <time>2022-10-04T09:15:09.150Z</time>
      </trkpt>
      <trkpt lat="45.30004" lon="5.48665">
        <ele>260.701534</ele>
        <time>2022-10-04T09:15:10.159Z</time>
      </trkpt>
      <trkpt lat="45.3001" lon="5.48676">
        <ele>260.279671</ele>
        <time>2022-10-04T09:15:11.146Z</time>
      </trkpt>
      <trkpt lat="45.30016" lon="5.48688">
        <ele>259.870487</ele>
        <time>2022-10-04T09:15:12.156Z</time>
      </trkpt>
      <trkpt lat="45.30021" lon="5.48699">
        <ele>259.451838</ele>
        <time>2022-10-04T09:15:13.154Z</time>
      </trkpt>
      <trkpt lat="45.30027" lon="5.4871">
        <ele>259.129926</ele>
        <time>2022-10-04T09:15:14.157Z</time>
      </trkpt>
      <trkpt lat="45.30033" lon="5.4872">
        <ele>258.856827</ele>
        <time>2022-10-04T09:15:15.150Z</time>
      </trkpt>
      <trkpt lat="45.3004" lon="5.48731">
        <ele>258.569873</ele>
        <time>2022-10-04T09:15:16.150Z</time>
      </trkpt>
      <trkpt lat="45.30046" lon="5.48741">
        <ele>258.294903</ele>
        <time>2022-10-04T09:15:17.151Z</time>
      </trkpt>
      <trkpt lat="45.30052" lon="5.48752">
        <ele>258.029133</ele>
        <time>2022-10-04T09:15:18.153Z</time>
      </trkpt>
      <trkpt lat="45.30057" lon="5.48763">
        <ele>257.762928</ele>
        <time>2022-10-04T09:15:19.159Z</time>
      </trkpt>
      <trkpt lat="45.30067" lon="5.48782">
        <ele>257.285498</ele>
        <time>2022-10-04T09:15:21.153Z</time>
      </trkpt>
      <trkpt lat="45.30078" lon="5.488">
        <ele>256.818012</ele>
        <time>2022-10-04T09:15:23.152Z</time>
      </trkpt>
      <trkpt lat="45.30086" lon="5.4882">
        <ele>256.348489</ele>
        <time>2022-10-04T09:15:25.152Z</time>
      </trkpt>
      <trkpt lat="45.30088" lon="5.48843">
        <ele>255.88433</ele>
        <time>2022-10-04T09:15:27.155Z</time>
      </trkpt>
      <trkpt lat="45.30087" lon="5.48867">
        <ele>255.410949</ele>
        <time>2022-10-04T09:15:29.151Z</time>
      </trkpt>
      <trkpt lat="45.30086" lon="5.4889">
        <ele>254.934512</ele>
        <time>2022-10-04T09:15:31.154Z</time>
      </trkpt>
      <trkpt lat="45.30082" lon="5.48912">
        <ele>254.494318</ele>
        <time>2022-10-04T09:15:33.157Z</time>
      </trkpt>
      <trkpt lat="45.30078" lon="5.48934">
        <ele>254.154239</ele>
        <time>2022-10-04T09:15:35.168Z</time>
      </trkpt>
      <trkpt lat="45.30072" lon="5.48955">
        <ele>254.056168</ele>
        <time>2022-10-04T09:15:37.155Z</time>
      </trkpt>
      <trkpt lat="45.30065" lon="5.48975">
        <ele>253.960214</ele>
        <time>2022-10-04T09:15:39.154Z</time>
      </trkpt>
      <trkpt lat="45.30065" lon="5.48998">
        <ele>253.863031</ele>
        <time>2022-10-04T09:15:41.155Z</time>
      </trkpt>
      <trkpt lat="45.30061" lon="5.4902">
        <ele>253.764009</ele>
        <time>2022-10-04T09:15:43.163Z</time>
      </trkpt>
      <trkpt lat="45.30057" lon="5.49042">
        <ele>253.669732</ele>
        <time>2022-10-04T09:15:45.160Z</time>
      </trkpt>
      <trkpt lat="45.30052" lon="5.49062">
        <ele>253.580326</ele>
        <time>2022-10-04T09:15:47.146Z</time>
      </trkpt>
      <trkpt lat="45.30046" lon="5.49083">
        <ele>253.481628</ele>
        <time>2022-10-04T09:15:49.151Z</time>
      </trkpt>
      <trkpt lat="45.3004" lon="5.49104">
        <ele>253.384765</ele>
        <time>2022-10-04T09:15:51.156Z</time>
      </trkpt>
      <trkpt lat="45.30038" lon="5.49127">
        <ele>253.285948</ele>
        <time>2022-10-04T09:15:53.156Z</time>
      </trkpt>
      <trkpt lat="45.30034" lon="5.49147">
        <ele>253.197731</ele>
        <time>2022-10-04T09:15:55.157Z</time>
      </trkpt>
      <trkpt lat="45.3003" lon="5.49167">
        <ele>253.108364</ele>
        <time>2022-10-04T09:15:57.160Z</time>
      </trkpt>
      <trkpt lat="45.30026" lon="5.49189">
        <ele>252.877498</ele>
        <time>2022-10-04T09:15:59.152Z</time>
      </trkpt>
      <trkpt lat="45.30021" lon="5.49206">
        <ele>252.67179</ele>
        <time>2022-10-04T09:16:01.153Z</time>
      </trkpt>
      <trkpt lat="45.30018" lon="5.49218">
        <ele>252.525838</ele>
        <time>2022-10-04T09:16:03.158Z</time>
      </trkpt>
      <trkpt lat="45.30014" lon="5.4923">
        <ele>252.380511</ele>
        <time>2022-10-04T09:16:09.152Z</time>
      </trkpt>
      <trkpt lat="45.3001" lon="5.49246">
        <ele>252.187408</ele>
        <time>2022-10-04T09:16:13.154Z</time>
      </trkpt>
      <trkpt lat="45.30005" lon="5.49262">
        <ele>251.991174</ele>
        <time>2022-10-04T09:16:16.155Z</time>
      </trkpt>
      <trkpt lat="45.3" lon="5.4928">
        <ele>251.774173</ele>
        <time>2022-10-04T09:16:19.152Z</time>
      </trkpt>
      <trkpt lat="45.29996" lon="5.49292">
        <ele>251.620015</ele>
        <time>2022-10-04T09:16:21.154Z</time>
      </trkpt>
      <trkpt lat="45.29994" lon="5.49307">
        <ele>251.453994</ele>
        <time>2022-10-04T09:16:23.154Z</time>
      </trkpt>
      <trkpt lat="45.2999" lon="5.49321">
        <ele>251.278616</ele>
        <time>2022-10-04T09:16:25.155Z</time>
      </trkpt>
      <trkpt lat="45.29986" lon="5.49335">
        <ele>251.105462</ele>
        <time>2022-10-04T09:16:27.150Z</time>
      </trkpt>
      <trkpt lat="45.29983" lon="5.49353">
        <ele>250.904161</ele>
        <time>2022-10-04T09:16:29.156Z</time>
      </trkpt>
      <trkpt lat="45.29978" lon="5.49369">
        <ele>250.706509</ele>
        <time>2022-10-04T09:16:31.157Z</time>
      </trkpt>
      <trkpt lat="45.29975" lon="5.49388">
        <ele>250.487613</ele>
        <time>2022-10-04T09:16:33.155Z</time>
      </trkpt>
      <trkpt lat="45.29971" lon="5.49405">
        <ele>250.286726</ele>
        <time>2022-10-04T09:16:35.155Z</time>
      </trkpt>
      <trkpt lat="45.29968" lon="5.49425">
        <ele>250.150692</ele>
        <time>2022-10-04T09:16:37.156Z</time>
      </trkpt>
      <trkpt lat="45.29964" lon="5.49442">
        <ele>250.072205</ele>
        <time>2022-10-04T09:16:39.152Z</time>
      </trkpt>
      <trkpt lat="45.29958" lon="5.4946">
        <ele>249.985839</ele>
        <time>2022-10-04T09:16:41.155Z</time>
      </trkpt>
      <trkpt lat="45.29953" lon="5.49476">
        <ele>249.910589</ele>
        <time>2022-10-04T09:16:43.158Z</time>
      </trkpt>
      <trkpt lat="45.29947" lon="5.49494">
        <ele>249.823489</ele>
        <time>2022-10-04T09:16:45.163Z</time>
      </trkpt>
      <trkpt lat="45.29941" lon="5.49511">
        <ele>249.740946</ele>
        <time>2022-10-04T09:16:47.154Z</time>
      </trkpt>
      <trkpt lat="45.29938" lon="5.4953">
        <ele>249.656047</ele>
        <time>2022-10-04T09:16:49.153Z</time>
      </trkpt>
      <trkpt lat="45.29933" lon="5.49547">
        <ele>249.577354</ele>
        <time>2022-10-04T09:16:51.151Z</time>
      </trkpt>
      <trkpt lat="45.29927" lon="5.49563">
        <ele>249.497648</ele>
        <time>2022-10-04T09:16:53.157Z</time>
      </trkpt>
      <trkpt lat="45.29923" lon="5.49582">
        <ele>249.412377</ele>
        <time>2022-10-04T09:16:55.153Z</time>
      </trkpt>
      <trkpt lat="45.29917" lon="5.49599">
        <ele>249.332837</ele>
        <time>2022-10-04T09:16:57.152Z</time>
      </trkpt>
      <trkpt lat="45.29911" lon="5.49615">
        <ele>249.251346</ele>
        <time>2022-10-04T09:16:59.153Z</time>
      </trkpt>
      <trkpt lat="45.29905" lon="5.49632">
        <ele>249.17207</ele>
        <time>2022-10-04T09:17:01.154Z</time>
      </trkpt>
      <trkpt lat="45.29899" lon="5.49649">
        <ele>249.048607</ele>
        <time>2022-10-04T09:17:03.157Z</time>
      </trkpt>
      <trkpt lat="45.29893" lon="5.49664">
        <ele>248.766803</ele>
        <time>2022-10-04T09:17:05.154Z</time>
      </trkpt>
      <trkpt lat="45.29887" lon="5.49682">
        <ele>248.466954</ele>
        <time>2022-10-04T09:17:07.151Z</time>
      </trkpt>
      <trkpt lat="45.29879" lon="5.49697">
        <ele>248.179502</ele>
        <time>2022-10-04T09:17:09.150Z</time>
      </trkpt>
      <trkpt lat="45.29873" lon="5.49714">
        <ele>247.868677</ele>
        <time>2022-10-04T09:17:11.152Z</time>
      </trkpt>
      <trkpt lat="45.29865" lon="5.49731">
        <ele>247.555593</ele>
        <time>2022-10-04T09:17:13.156Z</time>
      </trkpt>
      <trkpt lat="45.29858" lon="5.49748">
        <ele>247.244521</ele>
        <time>2022-10-04T09:17:15.162Z</time>
      </trkpt>
      <trkpt lat="45.2985" lon="5.49762">
        <ele>246.967299</ele>
        <time>2022-10-04T09:17:17.153Z</time>
      </trkpt>
      <trkpt lat="45.29843" lon="5.49779">
        <ele>246.657716</ele>
        <time>2022-10-04T09:17:19.154Z</time>
      </trkpt>
      <trkpt lat="45.29837" lon="5.49795">
        <ele>246.377009</ele>
        <time>2022-10-04T09:17:21.151Z</time>
      </trkpt>
      <trkpt lat="45.2983" lon="5.49814">
        <ele>246.044703</ele>
        <time>2022-10-04T09:17:23.153Z</time>
      </trkpt>
      <trkpt lat="45.29824" lon="5.49829">
        <ele>245.764205</ele>
        <time>2022-10-04T09:17:25.154Z</time>
      </trkpt>
      <trkpt lat="45.29817" lon="5.49845">
        <ele>245.476626</ele>
        <time>2022-10-04T09:17:27.155Z</time>
      </trkpt>
      <trkpt lat="45.2981" lon="5.49861">
        <ele>245.174531</ele>
        <time>2022-10-04T09:17:29.154Z</time>
      </trkpt>
      <trkpt lat="45.29804" lon="5.49878">
        <ele>244.808156</ele>
        <time>2022-10-04T09:17:31.154Z</time>
      </trkpt>
      <trkpt lat="45.29798" lon="5.49895">
        <ele>244.400939</ele>
        <time>2022-10-04T09:17:33.155Z</time>
      </trkpt>
      <trkpt lat="45.29791" lon="5.49912">
        <ele>243.9898</ele>
        <time>2022-10-04T09:17:35.151Z</time>
      </trkpt>
      <trkpt lat="45.29784" lon="5.49929">
        <ele>243.58018</ele>
        <time>2022-10-04T09:17:37.154Z</time>
      </trkpt>
      <trkpt lat="45.29777" lon="5.49945">
        <ele>243.17843</ele>
        <time>2022-10-04T09:17:39.154Z</time>
      </trkpt>
      <trkpt lat="45.29769" lon="5.4996">
        <ele>242.796654</ele>
        <time>2022-10-04T09:17:41.151Z</time>
      </trkpt>
      <trkpt lat="45.29763" lon="5.49977">
        <ele>242.388816</ele>
        <time>2022-10-04T09:17:43.152Z</time>
      </trkpt>
      <trkpt lat="45.29756" lon="5.49994">
        <ele>241.980977</ele>
        <time>2022-10-04T09:17:45.151Z</time>
      </trkpt>
      <trkpt lat="45.2975" lon="5.50009">
        <ele>241.594353</ele>
        <time>2022-10-04T09:17:47.156Z</time>
      </trkpt>
      <trkpt lat="45.29743" lon="5.50026">
        <ele>241.184681</ele>
        <time>2022-10-04T09:17:49.150Z</time>
      </trkpt>
      <trkpt lat="45.29735" lon="5.50043">
        <ele>240.757973</ele>
        <time>2022-10-04T09:17:51.155Z</time>
      </trkpt>
      <trkpt lat="45.29727" lon="5.50061">
        <ele>240.31743</ele>
        <time>2022-10-04T09:17:53.153Z</time>
      </trkpt>
      <trkpt lat="45.29719" lon="5.50078">
        <ele>239.892695</ele>
        <time>2022-10-04T09:17:55.156Z</time>
      </trkpt>
      <trkpt lat="45.29711" lon="5.50096">
        <ele>239.819071</ele>
        <time>2022-10-04T09:17:57.151Z</time>
      </trkpt>
      <trkpt lat="45.29703" lon="5.50113">
        <ele>239.934551</ele>
        <time>2022-10-04T09:17:59.152Z</time>
      </trkpt>
      <trkpt lat="45.29696" lon="5.50131">
        <ele>240.049674</ele>
        <time>2022-10-04T09:18:01.152Z</time>
      </trkpt>
      <trkpt lat="45.29688" lon="5.50147">
        <ele>240.166362</ele>
        <time>2022-10-04T09:18:03.156Z</time>
      </trkpt>
      <trkpt lat="45.29681" lon="5.50164">
        <ele>240.27765</ele>
        <time>2022-10-04T09:18:05.151Z</time>
      </trkpt>
      <trkpt lat="45.29673" lon="5.50178">
        <ele>240.376672</ele>
        <time>2022-10-04T09:18:07.149Z</time>
      </trkpt>
      <trkpt lat="45.29667" lon="5.50194">
        <ele>240.48081</ele>
        <time>2022-10-04T09:18:09.158Z</time>
      </trkpt>
      <trkpt lat="45.2966" lon="5.5021">
        <ele>240.590215</ele>
        <time>2022-10-04T09:18:11.152Z</time>
      </trkpt>
      <trkpt lat="45.29654" lon="5.50227">
        <ele>240.697973</ele>
        <time>2022-10-04T09:18:13.152Z</time>
      </trkpt>
      <trkpt lat="45.29647" lon="5.50243">
        <ele>240.805497</ele>
        <time>2022-10-04T09:18:15.153Z</time>
      </trkpt>
      <trkpt lat="45.29639" lon="5.50258">
        <ele>240.908647</ele>
        <time>2022-10-04T09:18:17.153Z</time>
      </trkpt>
      <trkpt lat="45.29632" lon="5.50273">
        <ele>241.011369</ele>
        <time>2022-10-04T09:18:19.151Z</time>
      </trkpt>
      <trkpt lat="45.29626" lon="5.50289">
        <ele>241.11861</ele>
        <time>2022-10-04T09:18:21.150Z</time>
      </trkpt>
      <trkpt lat="45.29619" lon="5.50305">
        <ele>241.223217</ele>
        <time>2022-10-04T09:18:23.153Z</time>
      </trkpt>
      <trkpt lat="45.29612" lon="5.50321">
        <ele>241.31205</ele>
        <time>2022-10-04T09:18:25.152Z</time>
      </trkpt>
      <trkpt lat="45.29606" lon="5.50338">
        <ele>241.40745</ele>
        <time>2022-10-04T09:18:27.150Z</time>
      </trkpt>
      <trkpt lat="45.29601" lon="5.50354">
        <ele>241.494915</ele>
        <time>2022-10-04T09:18:29.153Z</time>
      </trkpt>
      <trkpt lat="45.29593" lon="5.50369">
        <ele>241.585192</ele>
        <time>2022-10-04T09:18:31.149Z</time>
      </trkpt>
      <trkpt lat="45.29585" lon="5.50384">
        <ele>241.675823</ele>
        <time>2022-10-04T09:18:33.152Z</time>
      </trkpt>
      <trkpt lat="45.29579" lon="5.50399">
        <ele>241.764184</ele>
        <time>2022-10-04T09:18:35.152Z</time>
      </trkpt>
      <trkpt lat="45.2957" lon="5.50414">
        <ele>241.859502</ele>
        <time>2022-10-04T09:18:37.153Z</time>
      </trkpt>
      <trkpt lat="45.29564" lon="5.50432">
        <ele>241.954903</ele>
        <time>2022-10-04T09:18:39.153Z</time>
      </trkpt>
      <trkpt lat="45.29556" lon="5.50446">
        <ele>242.043529</ele>
        <time>2022-10-04T09:18:41.152Z</time>
      </trkpt>
      <trkpt lat="45.29549" lon="5.50463">
        <ele>242.138644</ele>
        <time>2022-10-04T09:18:43.154Z</time>
      </trkpt>
      <trkpt lat="45.29541" lon="5.50479">
        <ele>242.234999</ele>
        <time>2022-10-04T09:18:45.154Z</time>
      </trkpt>
      <trkpt lat="45.29534" lon="5.50495">
        <ele>242.327711</ele>
        <time>2022-10-04T09:18:47.153Z</time>
      </trkpt>
      <trkpt lat="45.29528" lon="5.5051">
        <ele>242.414041</ele>
        <time>2022-10-04T09:18:49.153Z</time>
      </trkpt>
      <trkpt lat="45.29523" lon="5.50526">
        <ele>242.350527</ele>
        <time>2022-10-04T09:18:51.154Z</time>
      </trkpt>
      <trkpt lat="45.29517" lon="5.50544">
        <ele>242.170243</ele>
        <time>2022-10-04T09:18:53.151Z</time>
      </trkpt>
      <trkpt lat="45.29511" lon="5.50559">
        <ele>241.998896</ele>
        <time>2022-10-04T09:18:55.151Z</time>
      </trkpt>
      <trkpt lat="45.29505" lon="5.50576">
        <ele>241.816884</ele>
        <time>2022-10-04T09:18:57.153Z</time>
      </trkpt>
      <trkpt lat="45.29498" lon="5.50593">
        <ele>241.626616</ele>
        <time>2022-10-04T09:18:59.152Z</time>
      </trkpt>
      <trkpt lat="45.29491" lon="5.50609">
        <ele>241.452046</ele>
        <time>2022-10-04T09:19:01.154Z</time>
      </trkpt>
      <trkpt lat="45.29484" lon="5.50624">
        <ele>241.285169</ele>
        <time>2022-10-04T09:19:03.155Z</time>
      </trkpt>
      <trkpt lat="45.29477" lon="5.50639">
        <ele>241.109277</ele>
        <time>2022-10-04T09:19:05.154Z</time>
      </trkpt>
      <trkpt lat="45.2947" lon="5.50654">
        <ele>240.939532</ele>
        <time>2022-10-04T09:19:07.154Z</time>
      </trkpt>
      <trkpt lat="45.29463" lon="5.50671">
        <ele>240.755726</ele>
        <time>2022-10-04T09:19:09.149Z</time>
      </trkpt>
      <trkpt lat="45.29456" lon="5.50686">
        <ele>240.580672</ele>
        <time>2022-10-04T09:19:11.153Z</time>
      </trkpt>
      <trkpt lat="45.29448" lon="5.507">
        <ele>240.412522</ele>
        <time>2022-10-04T09:19:13.151Z</time>
      </trkpt>
      <trkpt lat="45.29443" lon="5.50716">
        <ele>240.2474</ele>
        <time>2022-10-04T09:19:15.153Z</time>
      </trkpt>
      <trkpt lat="45.29437" lon="5.50733">
        <ele>240.066227</ele>
        <time>2022-10-04T09:19:17.152Z</time>
      </trkpt>
      <trkpt lat="45.29429" lon="5.50746">
        <ele>239.854292</ele>
        <time>2022-10-04T09:19:19.151Z</time>
      </trkpt>
      <trkpt lat="45.29423" lon="5.50762">
        <ele>239.624691</ele>
        <time>2022-10-04T09:19:21.155Z</time>
      </trkpt>
      <trkpt lat="45.29417" lon="5.50779">
        <ele>239.392069</ele>
        <time>2022-10-04T09:19:23.153Z</time>
      </trkpt>
      <trkpt lat="45.2941" lon="5.50795">
        <ele>239.151909</ele>
        <time>2022-10-04T09:19:25.151Z</time>
      </trkpt>
      <trkpt lat="45.29403" lon="5.50808">
        <ele>238.946925</ele>
        <time>2022-10-04T09:19:27.154Z</time>
      </trkpt>
      <trkpt lat="45.29397" lon="5.50824">
        <ele>238.713815</ele>
        <time>2022-10-04T09:19:29.154Z</time>
      </trkpt>
      <trkpt lat="45.2939" lon="5.50841">
        <ele>238.474984</ele>
        <time>2022-10-04T09:19:31.152Z</time>
      </trkpt>
      <trkpt lat="45.29383" lon="5.50856">
        <ele>238.24494</ele>
        <time>2022-10-04T09:19:33.155Z</time>
      </trkpt>
      <trkpt lat="45.29377" lon="5.50873">
        <ele>238.000415</ele>
        <time>2022-10-04T09:19:35.156Z</time>
      </trkpt>
      <trkpt lat="45.2937" lon="5.50888">
        <ele>237.783889</ele>
        <time>2022-10-04T09:19:37.153Z</time>
      </trkpt>
      <trkpt lat="45.29364" lon="5.50904">
        <ele>237.551004</ele>
        <time>2022-10-04T09:19:39.151Z</time>
      </trkpt>
      <trkpt lat="45.29357" lon="5.5092">
        <ele>237.308497</ele>
        <time>2022-10-04T09:19:41.155Z</time>
      </trkpt>
      <trkpt lat="45.2935" lon="5.50935">
        <ele>237.084949</ele>
        <time>2022-10-04T09:19:43.154Z</time>
      </trkpt>
      <trkpt lat="45.29342" lon="5.50952">
        <ele>236.828092</ele>
        <time>2022-10-04T09:19:45.158Z</time>
      </trkpt>
      <trkpt lat="45.29335" lon="5.50969">
        <ele>236.642156</ele>
        <time>2022-10-04T09:19:47.152Z</time>
      </trkpt>
      <trkpt lat="45.29327" lon="5.50986">
        <ele>236.458141</ele>
        <time>2022-10-04T09:19:49.152Z</time>
      </trkpt>
      <trkpt lat="45.2932" lon="5.51">
        <ele>236.31286</ele>
        <time>2022-10-04T09:19:51.153Z</time>
      </trkpt>
      <trkpt lat="45.29313" lon="5.51016">
        <ele>236.145543</ele>
        <time>2022-10-04T09:19:53.150Z</time>
      </trkpt>
      <trkpt lat="45.29307" lon="5.51031">
        <ele>235.982321</ele>
        <time>2022-10-04T09:19:55.149Z</time>
      </trkpt>
      <trkpt lat="45.293" lon="5.51048">
        <ele>235.807523</ele>
        <time>2022-10-04T09:19:57.156Z</time>
      </trkpt>
      <trkpt lat="45.29293" lon="5.51066">
        <ele>235.631503</ele>
        <time>2022-10-04T09:19:59.153Z</time>
      </trkpt>
      <trkpt lat="45.29288" lon="5.51083">
        <ele>235.457488</ele>
        <time>2022-10-04T09:20:01.149Z</time>
      </trkpt>
      <trkpt lat="45.29281" lon="5.51099">
        <ele>235.293037</ele>
        <time>2022-10-04T09:20:03.153Z</time>
      </trkpt>
      <trkpt lat="45.29274" lon="5.51115">
        <ele>235.127225</ele>
        <time>2022-10-04T09:20:05.152Z</time>
      </trkpt>
      <trkpt lat="45.29267" lon="5.51131">
        <ele>234.962017</ele>
        <time>2022-10-04T09:20:07.152Z</time>
      </trkpt>
      <trkpt lat="45.2926" lon="5.51147">
        <ele>234.791826</ele>
        <time>2022-10-04T09:20:09.160Z</time>
      </trkpt>
      <trkpt lat="45.29254" lon="5.51163">
        <ele>234.628806</ele>
        <time>2022-10-04T09:20:11.153Z</time>
      </trkpt>
      <trkpt lat="45.29247" lon="5.51178">
        <ele>234.494668</ele>
        <time>2022-10-04T09:20:13.155Z</time>
      </trkpt>
      <trkpt lat="45.2924" lon="5.51195">
        <ele>234.41704</ele>
        <time>2022-10-04T09:20:15.152Z</time>
      </trkpt>
      <trkpt lat="45.29232" lon="5.51211">
        <ele>234.342947</ele>
        <time>2022-10-04T09:20:17.153Z</time>
      </trkpt>
      <trkpt lat="45.29225" lon="5.51227">
        <ele>234.267404</ele>
        <time>2022-10-04T09:20:19.153Z</time>
      </trkpt>
      <trkpt lat="45.29219" lon="5.51242">
        <ele>234.198574</ele>
        <time>2022-10-04T09:20:21.150Z</time>
      </trkpt>
      <trkpt lat="45.29212" lon="5.51257">
        <ele>234.129924</ele>
        <time>2022-10-04T09:20:23.152Z</time>
      </trkpt>
      <trkpt lat="45.29205" lon="5.51273">
        <ele>234.056971</ele>
        <time>2022-10-04T09:20:25.153Z</time>
      </trkpt>
      <trkpt lat="45.29199" lon="5.51288">
        <ele>233.985829</ele>
        <time>2022-10-04T09:20:27.150Z</time>
      </trkpt>
      <trkpt lat="45.29193" lon="5.51304">
        <ele>233.918643</ele>
        <time>2022-10-04T09:20:29.157Z</time>
      </trkpt>
      <trkpt lat="45.29187" lon="5.5132">
        <ele>233.845018</ele>
        <time>2022-10-04T09:20:31.149Z</time>
      </trkpt>
      <trkpt lat="45.2918" lon="5.51335">
        <ele>233.772439</ele>
        <time>2022-10-04T09:20:33.154Z</time>
      </trkpt>
      <trkpt lat="45.29173" lon="5.51352">
        <ele>233.695936</ele>
        <time>2022-10-04T09:20:35.152Z</time>
      </trkpt>
      <trkpt lat="45.29166" lon="5.51369">
        <ele>233.621108</ele>
        <time>2022-10-04T09:20:37.151Z</time>
      </trkpt>
      <trkpt lat="45.29159" lon="5.51386">
        <ele>233.544217</ele>
        <time>2022-10-04T09:20:39.155Z</time>
      </trkpt>
      <trkpt lat="45.29152" lon="5.51401">
        <ele>233.570395</ele>
        <time>2022-10-04T09:20:41.153Z</time>
      </trkpt>
      <trkpt lat="45.29146" lon="5.51414">
        <ele>233.65616</ele>
        <time>2022-10-04T09:20:43.151Z</time>
      </trkpt>
      <trkpt lat="45.29139" lon="5.51432">
        <ele>233.764798</ele>
        <time>2022-10-04T09:20:45.152Z</time>
      </trkpt>
      <trkpt lat="45.29131" lon="5.51449">
        <ele>233.869957</ele>
        <time>2022-10-04T09:20:47.153Z</time>
      </trkpt>
      <trkpt lat="45.29124" lon="5.51463">
        <ele>233.962244</ele>
        <time>2022-10-04T09:20:49.153Z</time>
      </trkpt>
      <trkpt lat="45.29117" lon="5.51478">
        <ele>234.058018</ele>
        <time>2022-10-04T09:20:51.154Z</time>
      </trkpt>
      <trkpt lat="45.2911" lon="5.51493">
        <ele>234.152932</ele>
        <time>2022-10-04T09:20:53.154Z</time>
      </trkpt>
      <trkpt lat="45.29103" lon="5.51508">
        <ele>234.251462</ele>
        <time>2022-10-04T09:20:55.152Z</time>
      </trkpt>
      <trkpt lat="45.29096" lon="5.51524">
        <ele>234.350395</ele>
        <time>2022-10-04T09:20:57.154Z</time>
      </trkpt>
      <trkpt lat="45.29089" lon="5.5154">
        <ele>234.450345</ele>
        <time>2022-10-04T09:20:59.162Z</time>
      </trkpt>
      <trkpt lat="45.29082" lon="5.51558">
        <ele>234.55703</ele>
        <time>2022-10-04T09:21:01.150Z</time>
      </trkpt>
      <trkpt lat="45.29075" lon="5.51574">
        <ele>234.657971</ele>
        <time>2022-10-04T09:21:03.153Z</time>
      </trkpt>
      <trkpt lat="45.29069" lon="5.51589">
        <ele>234.752038</ele>
        <time>2022-10-04T09:21:05.150Z</time>
      </trkpt>
      <trkpt lat="45.29063" lon="5.51605">
        <ele>234.847778</ele>
        <time>2022-10-04T09:21:07.153Z</time>
      </trkpt>
      <trkpt lat="45.29056" lon="5.51621">
        <ele>234.788308</ele>
        <time>2022-10-04T09:21:09.157Z</time>
      </trkpt>
      <trkpt lat="45.29049" lon="5.51637">
        <ele>234.672493</ele>
        <time>2022-10-04T09:21:11.151Z</time>
      </trkpt>
      <trkpt lat="45.29042" lon="5.51654">
        <ele>234.549236</ele>
        <time>2022-10-04T09:21:13.152Z</time>
      </trkpt>
      <trkpt lat="45.29036" lon="5.51667">
        <ele>234.448056</ele>
        <time>2022-10-04T09:21:15.154Z</time>
      </trkpt>
      <trkpt lat="45.29029" lon="5.51684">
        <ele>234.331165</ele>
        <time>2022-10-04T09:21:17.151Z</time>
      </trkpt>
      <trkpt lat="45.29023" lon="5.51699">
        <ele>234.22173</ele>
        <time>2022-10-04T09:21:19.152Z</time>
      </trkpt>
      <trkpt lat="45.29015" lon="5.51713">
        <ele>234.110403</ele>
        <time>2022-10-04T09:21:21.154Z</time>
      </trkpt>
      <trkpt lat="45.29008" lon="5.51729">
        <ele>233.994819</ele>
        <time>2022-10-04T09:21:23.153Z</time>
      </trkpt>
      <trkpt lat="45.29001" lon="5.51744">
        <ele>233.883976</ele>
        <time>2022-10-04T09:21:25.155Z</time>
      </trkpt>
      <trkpt lat="45.28996" lon="5.5176">
        <ele>233.770445</ele>
        <time>2022-10-04T09:21:27.151Z</time>
      </trkpt>
      <trkpt lat="45.28988" lon="5.51775">
        <ele>233.657561</ele>
        <time>2022-10-04T09:21:29.155Z</time>
      </trkpt>
      <trkpt lat="45.2898" lon="5.51791">
        <ele>233.535465</ele>
        <time>2022-10-04T09:21:31.151Z</time>
      </trkpt>
      <trkpt lat="45.28974" lon="5.51808">
        <ele>233.415436</ele>
        <time>2022-10-04T09:21:33.151Z</time>
      </trkpt>
      <trkpt lat="45.28968" lon="5.51823">
        <ele>233.306993</ele>
        <time>2022-10-04T09:21:35.150Z</time>
      </trkpt>
      <trkpt lat="45.28961" lon="5.51839">
        <ele>233.331115</ele>
        <time>2022-10-04T09:21:37.149Z</time>
      </trkpt>
      <trkpt lat="45.28954" lon="5.51853">
        <ele>233.38196</ele>
        <time>2022-10-04T09:21:39.154Z</time>
      </trkpt>
      <trkpt lat="45.28948" lon="5.51871">
        <ele>233.446152</ele>
        <time>2022-10-04T09:21:41.155Z</time>
      </trkpt>
      <trkpt lat="45.28942" lon="5.51886">
        <ele>233.497394</ele>
        <time>2022-10-04T09:21:43.153Z</time>
      </trkpt>
      <trkpt lat="45.28935" lon="5.519">
        <ele>233.553024</ele>
        <time>2022-10-04T09:21:45.154Z</time>
      </trkpt>
      <trkpt lat="45.28928" lon="5.51917">
        <ele>233.611137</ele>
        <time>2022-10-04T09:21:47.154Z</time>
      </trkpt>
      <trkpt lat="45.28921" lon="5.51931">
        <ele>233.666802</ele>
        <time>2022-10-04T09:21:49.150Z</time>
      </trkpt>
      <trkpt lat="45.28913" lon="5.51948">
        <ele>233.728326</ele>
        <time>2022-10-04T09:21:51.153Z</time>
      </trkpt>
      <trkpt lat="45.28908" lon="5.51965">
        <ele>233.786562</ele>
        <time>2022-10-04T09:21:53.153Z</time>
      </trkpt>
      <trkpt lat="45.28901" lon="5.51981">
        <ele>233.842989</ele>
        <time>2022-10-04T09:21:55.156Z</time>
      </trkpt>
      <trkpt lat="45.28894" lon="5.51998">
        <ele>233.902194</ele>
        <time>2022-10-04T09:21:57.149Z</time>
      </trkpt>
      <trkpt lat="45.28888" lon="5.52015">
        <ele>233.963183</ele>
        <time>2022-10-04T09:21:59.152Z</time>
      </trkpt>
      <trkpt lat="45.28881" lon="5.52032">
        <ele>234.02164</ele>
        <time>2022-10-04T09:22:01.152Z</time>
      </trkpt>
      <trkpt lat="45.28874" lon="5.52048">
        <ele>234.073845</ele>
        <time>2022-10-04T09:22:03.157Z</time>
      </trkpt>
      <trkpt lat="45.28868" lon="5.52064">
        <ele>234.086159</ele>
        <time>2022-10-04T09:22:05.157Z</time>
      </trkpt>
      <trkpt lat="45.28862" lon="5.52078">
        <ele>234.097965</ele>
        <time>2022-10-04T09:22:07.150Z</time>
      </trkpt>
      <trkpt lat="45.28856" lon="5.52094">
        <ele>234.109691</ele>
        <time>2022-10-04T09:22:09.153Z</time>
      </trkpt>
      <trkpt lat="45.28849" lon="5.52109">
        <ele>234.122141</ele>
        <time>2022-10-04T09:22:11.153Z</time>
      </trkpt>
      <trkpt lat="45.2884" lon="5.52117">
        <ele>234.13263</ele>
        <time>2022-10-04T09:22:14.158Z</time>
      </trkpt>
      <trkpt lat="45.2883" lon="5.52123">
        <ele>234.143352</ele>
        <time>2022-10-04T09:22:19.150Z</time>
      </trkpt>
      <trkpt lat="45.28823" lon="5.52134">
        <ele>234.153314</ele>
        <time>2022-10-04T09:22:22.156Z</time>
      </trkpt>
      <trkpt lat="45.28817" lon="5.5215">
        <ele>234.166042</ele>
        <time>2022-10-04T09:22:25.155Z</time>
      </trkpt>
      <trkpt lat="45.28816" lon="5.52164">
        <ele>234.175598</ele>
        <time>2022-10-04T09:22:27.154Z</time>
      </trkpt>
      <trkpt lat="45.28821" lon="5.52179">
        <ele>234.186644</ele>
        <time>2022-10-04T09:22:29.154Z</time>
      </trkpt>
      <trkpt lat="45.28825" lon="5.52191">
        <ele>234.19578</ele>
        <time>2022-10-04T09:22:31.151Z</time>
      </trkpt>
      <trkpt lat="45.28826" lon="5.52206">
        <ele>234.205745</ele>
        <time>2022-10-04T09:22:34.162Z</time>
      </trkpt>
      <trkpt lat="45.28836" lon="5.52211">
        <ele>234.21562</ele>
        <time>2022-10-04T09:22:38.153Z</time>
      </trkpt>
      <trkpt lat="45.28832" lon="5.52225">
        <ele>234.226123</ele>
        <time>2022-10-04T09:22:42.161Z</time>
      </trkpt>
      <trkpt lat="45.28823" lon="5.52237">
        <ele>234.23789</ele>
        <time>2022-10-04T09:22:45.154Z</time>
      </trkpt>
      <trkpt lat="45.28815" lon="5.52245">
        <ele>234.240044</ele>
        <time>2022-10-04T09:22:47.156Z</time>
      </trkpt>
      <trkpt lat="45.28807" lon="5.52254">
        <ele>234.137878</ele>
        <time>2022-10-04T09:22:49.151Z</time>
      </trkpt>
      <trkpt lat="45.288" lon="5.52264">
        <ele>234.032265</ele>
        <time>2022-10-04T09:22:51.150Z</time>
      </trkpt>
      <trkpt lat="45.28792" lon="5.52275">
        <ele>233.922718</ele>
        <time>2022-10-04T09:22:53.155Z</time>
      </trkpt>
      <trkpt lat="45.28784" lon="5.52285">
        <ele>233.813464</ele>
        <time>2022-10-04T09:22:55.154Z</time>
      </trkpt>
      <trkpt lat="45.28777" lon="5.52298">
        <ele>233.701128</ele>
        <time>2022-10-04T09:22:57.155Z</time>
      </trkpt>
      <trkpt lat="45.28771" lon="5.5231">
        <ele>233.591644</ele>
        <time>2022-10-04T09:22:59.156Z</time>
      </trkpt>
      <trkpt lat="45.28765" lon="5.52324">
        <ele>233.475686</ele>
        <time>2022-10-04T09:23:01.159Z</time>
      </trkpt>
      <trkpt lat="45.28759" lon="5.52337">
        <ele>233.36881</ele>
        <time>2022-10-04T09:23:03.150Z</time>
      </trkpt>
      <trkpt lat="45.28753" lon="5.52351">
        <ele>233.251722</ele>
        <time>2022-10-04T09:23:05.152Z</time>
      </trkpt>
      <trkpt lat="45.28749" lon="5.52365">
        <ele>233.144884</ele>
        <time>2022-10-04T09:23:08.152Z</time>
      </trkpt>
      <trkpt lat="45.28744" lon="5.52377">
        <ele>233.045065</ele>
        <time>2022-10-04T09:23:12.153Z</time>
      </trkpt>
      <trkpt lat="45.28739" lon="5.5239">
        <ele>232.933709</ele>
        <time>2022-10-04T09:23:17.153Z</time>
      </trkpt>
      <trkpt lat="45.28755" lon="5.52433">
        <ele>232.59198</ele>
        <time>2022-10-04T09:25:18.153Z</time>
      </trkpt>
      <trkpt lat="45.28758" lon="5.5245">
        <ele>232.461063</ele>
        <time>2022-10-04T09:25:21.154Z</time>
      </trkpt>
      <trkpt lat="45.28762" lon="5.52463">
        <ele>232.635471</ele>
        <time>2022-10-04T09:25:23.154Z</time>
      </trkpt>
      <trkpt lat="45.28767" lon="5.52474">
        <ele>232.930177</ele>
        <time>2022-10-04T09:25:25.159Z</time>
      </trkpt>
      <trkpt lat="45.28775" lon="5.52486">
        <ele>233.279296</ele>
        <time>2022-10-04T09:25:27.154Z</time>
      </trkpt>
      <trkpt lat="45.28785" lon="5.52494">
        <ele>233.628178</ele>
        <time>2022-10-04T09:25:29.154Z</time>
      </trkpt>
      <trkpt lat="45.28792" lon="5.52505">
        <ele>233.965286</ele>
        <time>2022-10-04T09:25:31.154Z</time>
      </trkpt>
      <trkpt lat="45.28803" lon="5.52515">
        <ele>234.362941</ele>
        <time>2022-10-04T09:25:33.153Z</time>
      </trkpt>
      <trkpt lat="45.28813" lon="5.52524">
        <ele>234.730804</ele>
        <time>2022-10-04T09:25:35.150Z</time>
      </trkpt>
      <trkpt lat="45.28825" lon="5.52532">
        <ele>235.14586</ele>
        <time>2022-10-04T09:25:37.153Z</time>
      </trkpt>
      <trkpt lat="45.28837" lon="5.52541">
        <ele>235.55348</ele>
        <time>2022-10-04T09:25:39.151Z</time>
      </trkpt>
      <trkpt lat="45.28847" lon="5.52551">
        <ele>235.933911</ele>
        <time>2022-10-04T09:25:41.150Z</time>
      </trkpt>
      <trkpt lat="45.28859" lon="5.52561">
        <ele>236.357769</ele>
        <time>2022-10-04T09:25:43.151Z</time>
      </trkpt>
      <trkpt lat="45.28868" lon="5.52572">
        <ele>236.728222</ele>
        <time>2022-10-04T09:25:45.155Z</time>
      </trkpt>
      <trkpt lat="45.28881" lon="5.5258">
        <ele>237.18065</ele>
        <time>2022-10-04T09:25:47.157Z</time>
      </trkpt>
      <trkpt lat="45.28892" lon="5.5259">
        <ele>237.594136</ele>
        <time>2022-10-04T09:25:49.154Z</time>
      </trkpt>
      <trkpt lat="45.28902" lon="5.52602">
        <ele>237.975917</ele>
        <time>2022-10-04T09:25:51.155Z</time>
      </trkpt>
      <trkpt lat="45.28912" lon="5.52613">
        <ele>237.991707</ele>
        <time>2022-10-04T09:25:53.153Z</time>
      </trkpt>
      <trkpt lat="45.28922" lon="5.52625">
        <ele>237.974828</ele>
        <time>2022-10-04T09:25:55.153Z</time>
      </trkpt>
      <trkpt lat="45.28932" lon="5.52636">
        <ele>237.958098</ele>
        <time>2022-10-04T09:25:57.152Z</time>
      </trkpt>
      <trkpt lat="45.28942" lon="5.52646">
        <ele>237.941225</ele>
        <time>2022-10-04T09:25:59.151Z</time>
      </trkpt>
      <trkpt lat="45.28952" lon="5.52659">
        <ele>237.92421</ele>
        <time>2022-10-04T09:26:01.154Z</time>
      </trkpt>
      <trkpt lat="45.28961" lon="5.52671">
        <ele>237.907064</ele>
        <time>2022-10-04T09:26:03.156Z</time>
      </trkpt>
      <trkpt lat="45.2897" lon="5.52683">
        <ele>237.890462</ele>
        <time>2022-10-04T09:26:05.161Z</time>
      </trkpt>
      <trkpt lat="45.28979" lon="5.52696">
        <ele>237.873636</ele>
        <time>2022-10-04T09:26:07.158Z</time>
      </trkpt>
      <trkpt lat="45.28985" lon="5.52708">
        <ele>237.860272</ele>
        <time>2022-10-04T09:26:09.152Z</time>
      </trkpt>
      <trkpt lat="45.28993" lon="5.52718">
        <ele>237.845954</ele>
        <time>2022-10-04T09:26:11.153Z</time>
      </trkpt>
      <trkpt lat="45.29001" lon="5.52729">
        <ele>237.830951</ele>
        <time>2022-10-04T09:26:13.155Z</time>
      </trkpt>
      <trkpt lat="45.29012" lon="5.5274">
        <ele>237.81397</ele>
        <time>2022-10-04T09:26:15.161Z</time>
      </trkpt>
      <trkpt lat="45.29021" lon="5.52752">
        <ele>237.796346</ele>
        <time>2022-10-04T09:26:17.152Z</time>
      </trkpt>
      <trkpt lat="45.29032" lon="5.52765">
        <ele>237.778032</ele>
        <time>2022-10-04T09:26:19.156Z</time>
      </trkpt>
      <trkpt lat="45.29042" lon="5.52779">
        <ele>237.779877</ele>
        <time>2022-10-04T09:26:21.152Z</time>
      </trkpt>
      <trkpt lat="45.29052" lon="5.52792">
        <ele>237.799225</ele>
        <time>2022-10-04T09:26:23.151Z</time>
      </trkpt>
      <trkpt lat="45.29061" lon="5.52806">
        <ele>237.817753</ele>
        <time>2022-10-04T09:26:25.150Z</time>
      </trkpt>
      <trkpt lat="45.29069" lon="5.52818">
        <ele>237.83502</ele>
        <time>2022-10-04T09:26:27.152Z</time>
      </trkpt>
      <trkpt lat="45.29078" lon="5.52831">
        <ele>237.853668</ele>
        <time>2022-10-04T09:26:29.153Z</time>
      </trkpt>
      <trkpt lat="45.29086" lon="5.52844">
        <ele>237.87146</ele>
        <time>2022-10-04T09:26:31.148Z</time>
      </trkpt>
      <trkpt lat="45.29095" lon="5.5286">
        <ele>237.891494</ele>
        <time>2022-10-04T09:26:33.154Z</time>
      </trkpt>
      <trkpt lat="45.29103" lon="5.52874">
        <ele>237.910323</ele>
        <time>2022-10-04T09:26:35.153Z</time>
      </trkpt>
      <trkpt lat="45.29111" lon="5.52889">
        <ele>237.928828</ele>
        <time>2022-10-04T09:26:37.154Z</time>
      </trkpt>
      <trkpt lat="45.2912" lon="5.52903">
        <ele>237.947827</ele>
        <time>2022-10-04T09:26:39.150Z</time>
      </trkpt>
      <trkpt lat="45.29127" lon="5.52919">
        <ele>237.966971</ele>
        <time>2022-10-04T09:26:41.155Z</time>
      </trkpt>
      <trkpt lat="45.29134" lon="5.52934">
        <ele>237.985204</ele>
        <time>2022-10-04T09:26:43.156Z</time>
      </trkpt>
      <trkpt lat="45.29142" lon="5.52949">
        <ele>238.003592</ele>
        <time>2022-10-04T09:26:45.152Z</time>
      </trkpt>
      <trkpt lat="45.2915" lon="5.52963">
        <ele>238.022151</ele>
        <time>2022-10-04T09:26:47.151Z</time>
      </trkpt>
      <trkpt lat="45.2916" lon="5.52978">
        <ele>237.852749</ele>
        <time>2022-10-04T09:26:49.154Z</time>
      </trkpt>
      <trkpt lat="45.29171" lon="5.5299">
        <ele>237.628954</ele>
        <time>2022-10-04T09:26:51.154Z</time>
      </trkpt>
      <trkpt lat="45.29184" lon="5.52993">
        <ele>237.427884</ele>
        <time>2022-10-04T09:26:53.156Z</time>
      </trkpt>
      <trkpt lat="45.29197" lon="5.52994">
        <ele>237.208859</ele>
        <time>2022-10-04T09:26:55.155Z</time>
      </trkpt>
      <trkpt lat="45.29209" lon="5.52994">
        <ele>237.021569</ele>
        <time>2022-10-04T09:26:57.154Z</time>
      </trkpt>
      <trkpt lat="45.29223" lon="5.52991">
        <ele>236.804898</ele>
        <time>2022-10-04T09:26:59.152Z</time>
      </trkpt>
      <trkpt lat="45.29236" lon="5.5299">
        <ele>236.592059</ele>
        <time>2022-10-04T09:27:01.151Z</time>
      </trkpt>
      <trkpt lat="45.2925" lon="5.5299">
        <ele>236.377818</ele>
        <time>2022-10-04T09:27:03.154Z</time>
      </trkpt>
      <trkpt lat="45.29264" lon="5.52988">
        <ele>236.15599</ele>
        <time>2022-10-04T09:27:05.155Z</time>
      </trkpt>
      <trkpt lat="45.29279" lon="5.52985">
        <ele>235.905699</ele>
        <time>2022-10-04T09:27:07.154Z</time>
      </trkpt>
      <trkpt lat="45.29292" lon="5.52986">
        <ele>235.700387</ele>
        <time>2022-10-04T09:27:09.156Z</time>
      </trkpt>
      <trkpt lat="45.29306" lon="5.52987">
        <ele>235.482834</ele>
        <time>2022-10-04T09:27:11.148Z</time>
      </trkpt>
      <trkpt lat="45.29319" lon="5.52992">
        <ele>235.269426</ele>
        <time>2022-10-04T09:27:13.155Z</time>
      </trkpt>
      <trkpt lat="45.29331" lon="5.53">
        <ele>235.299818</ele>
        <time>2022-10-04T09:27:15.158Z</time>
      </trkpt>
      <trkpt lat="45.29342" lon="5.5301">
        <ele>235.53586</ele>
        <time>2022-10-04T09:27:17.157Z</time>
      </trkpt>
      <trkpt lat="45.29354" lon="5.53022">
        <ele>235.785988</ele>
        <time>2022-10-04T09:27:19.156Z</time>
      </trkpt>
      <trkpt lat="45.29363" lon="5.53035">
        <ele>236.013542</ele>
        <time>2022-10-04T09:27:21.152Z</time>
      </trkpt>
      <trkpt lat="45.29372" lon="5.5305">
        <ele>236.250043</ele>
        <time>2022-10-04T09:27:23.158Z</time>
      </trkpt>
      <trkpt lat="45.29382" lon="5.53063">
        <ele>236.48416</ele>
        <time>2022-10-04T09:27:25.149Z</time>
      </trkpt>
      <trkpt lat="45.29393" lon="5.53074">
        <ele>236.713667</ele>
        <time>2022-10-04T09:27:27.149Z</time>
      </trkpt>
      <trkpt lat="45.29404" lon="5.53084">
        <ele>236.943317</ele>
        <time>2022-10-04T09:27:29.156Z</time>
      </trkpt>
      <trkpt lat="45.29415" lon="5.53094">
        <ele>237.170486</ele>
        <time>2022-10-04T09:27:31.151Z</time>
      </trkpt>
      <trkpt lat="45.29425" lon="5.53104">
        <ele>237.396441</ele>
        <time>2022-10-04T09:27:33.154Z</time>
      </trkpt>
      <trkpt lat="45.29436" lon="5.53115">
        <ele>237.616709</ele>
        <time>2022-10-04T09:27:35.160Z</time>
      </trkpt>
      <trkpt lat="45.29446" lon="5.53128">
        <ele>237.853113</ele>
        <time>2022-10-04T09:27:37.154Z</time>
      </trkpt>
      <trkpt lat="45.29455" lon="5.53141">
        <ele>238.086382</ele>
        <time>2022-10-04T09:27:39.153Z</time>
      </trkpt>
      <trkpt lat="45.29464" lon="5.53155">
        <ele>238.327131</ele>
        <time>2022-10-04T09:27:41.151Z</time>
      </trkpt>
      <trkpt lat="45.29472" lon="5.5317">
        <ele>239.045915</ele>
        <time>2022-10-04T09:27:43.151Z</time>
      </trkpt>
      <trkpt lat="45.2948" lon="5.53186">
        <ele>239.764587</ele>
        <time>2022-10-04T09:27:45.151Z</time>
      </trkpt>
      <trkpt lat="45.29487" lon="5.53201">
        <ele>240.465778</ele>
        <time>2022-10-04T09:27:47.154Z</time>
      </trkpt>
      <trkpt lat="45.29494" lon="5.53218">
        <ele>241.197523</ele>
        <time>2022-10-04T09:27:49.157Z</time>
      </trkpt>
      <trkpt lat="45.29499" lon="5.53233">
        <ele>241.84055</ele>
        <time>2022-10-04T09:27:51.158Z</time>
      </trkpt>
      <trkpt lat="45.29507" lon="5.53249">
        <ele>242.574923</ele>
        <time>2022-10-04T09:27:53.154Z</time>
      </trkpt>
      <trkpt lat="45.29513" lon="5.53266">
        <ele>243.262738</ele>
        <time>2022-10-04T09:27:55.154Z</time>
      </trkpt>
      <trkpt lat="45.29519" lon="5.53283">
        <ele>243.981387</ele>
        <time>2022-10-04T09:27:57.153Z</time>
      </trkpt>
      <trkpt lat="45.29524" lon="5.53297">
        <ele>244.59333</ele>
        <time>2022-10-04T09:27:59.155Z</time>
      </trkpt>
      <trkpt lat="45.29531" lon="5.53312">
        <ele>245.272026</ele>
        <time>2022-10-04T09:28:01.160Z</time>
      </trkpt>
      <trkpt lat="45.29537" lon="5.53328">
        <ele>245.945696</ele>
        <time>2022-10-04T09:28:03.153Z</time>
      </trkpt>
      <trkpt lat="45.29543" lon="5.53345">
        <ele>246.668268</ele>
        <time>2022-10-04T09:28:05.153Z</time>
      </trkpt>
      <trkpt lat="45.2955" lon="5.5336">
        <ele>247.334576</ele>
        <time>2022-10-04T09:28:07.153Z</time>
      </trkpt>
      <trkpt lat="45.29556" lon="5.53375">
        <ele>247.896048</ele>
        <time>2022-10-04T09:28:09.156Z</time>
      </trkpt>
      <trkpt lat="45.2956" lon="5.53388">
        <ele>247.191289</ele>
        <time>2022-10-04T09:28:11.158Z</time>
      </trkpt>
      <trkpt lat="45.29566" lon="5.53402">
        <ele>246.455958</ele>
        <time>2022-10-04T09:28:13.155Z</time>
      </trkpt>
      <trkpt lat="45.29571" lon="5.53413">
        <ele>245.842874</ele>
        <time>2022-10-04T09:28:15.153Z</time>
      </trkpt>
      <trkpt lat="45.29581" lon="5.53416">
        <ele>245.182664</ele>
        <time>2022-10-04T09:28:33.148Z</time>
      </trkpt>
      <trkpt lat="45.2959" lon="5.53408">
        <ele>244.486061</ele>
        <time>2022-10-04T09:28:37.152Z</time>
      </trkpt>
      <trkpt lat="45.29601" lon="5.534">
        <ele>243.672029</ele>
        <time>2022-10-04T09:28:41.152Z</time>
      </trkpt>
      <trkpt lat="45.29611" lon="5.5339">
        <ele>242.838112</ele>
        <time>2022-10-04T09:28:44.152Z</time>
      </trkpt>
      <trkpt lat="45.29619" lon="5.53383">
        <ele>242.204817</ele>
        <time>2022-10-04T09:28:46.154Z</time>
      </trkpt>
      <trkpt lat="45.29628" lon="5.53374">
        <ele>241.476953</ele>
        <time>2022-10-04T09:28:48.153Z</time>
      </trkpt>
      <trkpt lat="45.29637" lon="5.53366">
        <ele>240.799688</ele>
        <time>2022-10-04T09:28:50.153Z</time>
      </trkpt>
      <trkpt lat="45.29645" lon="5.53358">
        <ele>240.101128</ele>
        <time>2022-10-04T09:28:52.154Z</time>
      </trkpt>
      <trkpt lat="45.29655" lon="5.53349">
        <ele>239.344623</ele>
        <time>2022-10-04T09:28:54.153Z</time>
      </trkpt>
      <trkpt lat="45.29665" lon="5.53341">
        <ele>238.564349</ele>
        <time>2022-10-04T09:28:56.147Z</time>
      </trkpt>
      <trkpt lat="45.29675" lon="5.53332">
        <ele>237.808999</ele>
        <time>2022-10-04T09:28:58.148Z</time>
      </trkpt>
      <trkpt lat="45.29686" lon="5.53322">
        <ele>236.957717</ele>
        <time>2022-10-04T09:29:00.152Z</time>
      </trkpt>
      <trkpt lat="45.29696" lon="5.53313">
        <ele>236.114539</ele>
        <time>2022-10-04T09:29:02.152Z</time>
      </trkpt>
      <trkpt lat="45.29708" lon="5.53307">
        <ele>235.990973</ele>
        <time>2022-10-04T09:29:04.153Z</time>
      </trkpt>
      <trkpt lat="45.29721" lon="5.53306">
        <ele>235.971603</ele>
        <time>2022-10-04T09:29:06.161Z</time>
      </trkpt>
      <trkpt lat="45.29728" lon="5.53319">
        <ele>235.953517</ele>
        <time>2022-10-04T09:29:08.160Z</time>
      </trkpt>
      <trkpt lat="45.29736" lon="5.53334">
        <ele>235.93284</ele>
        <time>2022-10-04T09:29:10.153Z</time>
      </trkpt>
      <trkpt lat="45.29747" lon="5.53344">
        <ele>235.912846</ele>
        <time>2022-10-04T09:29:12.150Z</time>
      </trkpt>
      <trkpt lat="45.29759" lon="5.53344">
        <ele>235.894102</ele>
        <time>2022-10-04T09:29:14.152Z</time>
      </trkpt>
      <trkpt lat="45.2977" lon="5.53334">
        <ele>235.873661</ele>
        <time>2022-10-04T09:29:16.153Z</time>
      </trkpt>
      <trkpt lat="45.29781" lon="5.53325">
        <ele>235.854366</ele>
        <time>2022-10-04T09:29:18.153Z</time>
      </trkpt>
      <trkpt lat="45.29792" lon="5.53316">
        <ele>235.834163</ele>
        <time>2022-10-04T09:29:20.154Z</time>
      </trkpt>
      <trkpt lat="45.29804" lon="5.53306">
        <ele>235.812668</ele>
        <time>2022-10-04T09:29:22.152Z</time>
      </trkpt>
      <trkpt lat="45.29816" lon="5.53301">
        <ele>235.793922</ele>
        <time>2022-10-04T09:29:24.151Z</time>
      </trkpt>
      <trkpt lat="45.29827" lon="5.53307">
        <ele>235.775894</ele>
        <time>2022-10-04T09:29:26.168Z</time>
      </trkpt>
      <trkpt lat="45.29836" lon="5.53316">
        <ele>235.758596</ele>
        <time>2022-10-04T09:29:28.162Z</time>
      </trkpt>
      <trkpt lat="45.29845" lon="5.53333">
        <ele>235.735461</ele>
        <time>2022-10-04T09:29:30.153Z</time>
      </trkpt>
      <trkpt lat="45.29852" lon="5.53343">
        <ele>235.744176</ele>
        <time>2022-10-04T09:29:31.153Z</time>
      </trkpt>
      <trkpt lat="45.29863" lon="5.53357">
        <ele>235.782707</ele>
        <time>2022-10-04T09:29:33.156Z</time>
      </trkpt>
      <trkpt lat="45.29873" lon="5.53367">
        <ele>235.814332</ele>
        <time>2022-10-04T09:29:35.157Z</time>
      </trkpt>
      <trkpt lat="45.29882" lon="5.53378">
        <ele>235.847221</ele>
        <time>2022-10-04T09:29:37.151Z</time>
      </trkpt>
      <trkpt lat="45.29892" lon="5.53388">
        <ele>235.879923</ele>
        <time>2022-10-04T09:29:39.159Z</time>
      </trkpt>
      <trkpt lat="45.29902" lon="5.534">
        <ele>235.914866</ele>
        <time>2022-10-04T09:29:41.150Z</time>
      </trkpt>
      <trkpt lat="45.29912" lon="5.53412">
        <ele>235.948315</ele>
        <time>2022-10-04T09:29:43.151Z</time>
      </trkpt>
      <trkpt lat="45.29922" lon="5.53422">
        <ele>235.981018</ele>
        <time>2022-10-04T09:29:45.151Z</time>
      </trkpt>
      <trkpt lat="45.29933" lon="5.53431">
        <ele>236.014302</ele>
        <time>2022-10-04T09:29:47.155Z</time>
      </trkpt>
      <trkpt lat="45.29943" lon="5.53439">
        <ele>236.04451</ele>
        <time>2022-10-04T09:29:49.151Z</time>
      </trkpt>
      <trkpt lat="45.29957" lon="5.53449">
        <ele>236.085436</ele>
        <time>2022-10-04T09:29:51.153Z</time>
      </trkpt>
      <trkpt lat="45.29968" lon="5.53458">
        <ele>236.120169</ele>
        <time>2022-10-04T09:29:53.152Z</time>
      </trkpt>
      <trkpt lat="45.2998" lon="5.53465">
        <ele>236.154392</ele>
        <time>2022-10-04T09:29:55.154Z</time>
      </trkpt>
      <trkpt lat="45.29992" lon="5.53473">
        <ele>236.188382</ele>
        <time>2022-10-04T09:29:57.154Z</time>
      </trkpt>
      <trkpt lat="45.30003" lon="5.53481">
        <ele>236.222972</ele>
        <time>2022-10-04T09:29:59.160Z</time>
      </trkpt>
      <trkpt lat="45.30014" lon="5.53489">
        <ele>236.254407</ele>
        <time>2022-10-04T09:30:01.152Z</time>
      </trkpt>
      <trkpt lat="45.30027" lon="5.53498">
        <ele>236.291885</ele>
        <time>2022-10-04T09:30:03.153Z</time>
      </trkpt>
      <trkpt lat="45.30039" lon="5.53506">
        <ele>236.327788</ele>
        <time>2022-10-04T09:30:05.155Z</time>
      </trkpt>
      <trkpt lat="45.30051" lon="5.53516">
        <ele>236.362779</ele>
        <time>2022-10-04T09:30:07.154Z</time>
      </trkpt>
      <trkpt lat="45.30061" lon="5.53529">
        <ele>236.397902</ele>
        <time>2022-10-04T09:30:09.155Z</time>
      </trkpt>
      <trkpt lat="45.30068" lon="5.53546">
        <ele>236.433268</ele>
        <time>2022-10-04T09:30:11.150Z</time>
      </trkpt>
      <trkpt lat="45.3007" lon="5.53563">
        <ele>236.466694</ele>
        <time>2022-10-04T09:30:13.152Z</time>
      </trkpt>
      <trkpt lat="45.30073" lon="5.5358">
        <ele>236.497635</ele>
        <time>2022-10-04T09:30:15.161Z</time>
      </trkpt>
      <trkpt lat="45.30075" lon="5.53599">
        <ele>236.53361</ele>
        <time>2022-10-04T09:30:17.152Z</time>
      </trkpt>
      <trkpt lat="45.30078" lon="5.53617">
        <ele>236.567638</ele>
        <time>2022-10-04T09:30:19.152Z</time>
      </trkpt>
      <trkpt lat="45.30081" lon="5.53634">
        <ele>236.600287</ele>
        <time>2022-10-04T09:30:21.148Z</time>
      </trkpt>
      <trkpt lat="45.30086" lon="5.53648">
        <ele>236.629215</ele>
        <time>2022-10-04T09:30:23.149Z</time>
      </trkpt>
      <trkpt lat="45.30099" lon="5.53654">
        <ele>236.664825</ele>
        <time>2022-10-04T09:30:25.158Z</time>
      </trkpt>
      <trkpt lat="45.30113" lon="5.5365">
        <ele>237.197388</ele>
        <time>2022-10-04T09:30:27.163Z</time>
      </trkpt>
      <trkpt lat="45.30126" lon="5.53641">
        <ele>237.936572</ele>
        <time>2022-10-04T09:30:29.158Z</time>
      </trkpt>
      <trkpt lat="45.3014" lon="5.53636">
        <ele>238.64203</ele>
        <time>2022-10-04T09:30:31.153Z</time>
      </trkpt>
      <trkpt lat="45.3015" lon="5.53645">
        <ele>239.242083</ele>
        <time>2022-10-04T09:30:33.158Z</time>
      </trkpt>
      <trkpt lat="45.30158" lon="5.53658">
        <ele>239.890896</ele>
        <time>2022-10-04T09:30:35.159Z</time>
      </trkpt>
      <trkpt lat="45.30166" lon="5.53672">
        <ele>240.559568</ele>
        <time>2022-10-04T09:30:37.151Z</time>
      </trkpt>
      <trkpt lat="45.30175" lon="5.53686">
        <ele>241.246608</ele>
        <time>2022-10-04T09:30:39.152Z</time>
      </trkpt>
      <trkpt lat="45.30185" lon="5.53701">
        <ele>241.982579</ele>
        <time>2022-10-04T09:30:41.154Z</time>
      </trkpt>
      <trkpt lat="45.30194" lon="5.53715">
        <ele>242.669946</ele>
        <time>2022-10-04T09:30:43.150Z</time>
      </trkpt>
      <trkpt lat="45.30202" lon="5.53728">
        <ele>243.307169</ele>
        <time>2022-10-04T09:30:45.154Z</time>
      </trkpt>
      <trkpt lat="45.3021" lon="5.53742">
        <ele>243.944403</ele>
        <time>2022-10-04T09:30:47.159Z</time>
      </trkpt>
      <trkpt lat="45.30216" lon="5.53757">
        <ele>244.578424</ele>
        <time>2022-10-04T09:30:49.159Z</time>
      </trkpt>
      <trkpt lat="45.30224" lon="5.53772">
        <ele>245.26559</ele>
        <time>2022-10-04T09:30:51.155Z</time>
      </trkpt>
      <trkpt lat="45.30234" lon="5.53787">
        <ele>245.943973</ele>
        <time>2022-10-04T09:30:53.156Z</time>
      </trkpt>
      <trkpt lat="45.30242" lon="5.53802">
        <ele>245.345678</ele>
        <time>2022-10-04T09:30:55.153Z</time>
      </trkpt>
      <trkpt lat="45.30252" lon="5.53815">
        <ele>244.756095</ele>
        <time>2022-10-04T09:30:57.152Z</time>
      </trkpt>
      <trkpt lat="45.3026" lon="5.53831">
        <ele>244.144293</ele>
        <time>2022-10-04T09:30:59.151Z</time>
      </trkpt>
      <trkpt lat="45.30268" lon="5.53845">
        <ele>243.570988</ele>
        <time>2022-10-04T09:31:01.152Z</time>
      </trkpt>
      <trkpt lat="45.30275" lon="5.53859">
        <ele>243.056021</ele>
        <time>2022-10-04T09:31:03.151Z</time>
      </trkpt>
      <trkpt lat="45.30282" lon="5.53874">
        <ele>242.483081</ele>
        <time>2022-10-04T09:31:05.154Z</time>
      </trkpt>
      <trkpt lat="45.3029" lon="5.53889">
        <ele>241.902619</ele>
        <time>2022-10-04T09:31:07.153Z</time>
      </trkpt>
      <trkpt lat="45.30299" lon="5.53903">
        <ele>241.313386</ele>
        <time>2022-10-04T09:31:09.152Z</time>
      </trkpt>
      <trkpt lat="45.30306" lon="5.53917">
        <ele>240.768412</ele>
        <time>2022-10-04T09:31:11.149Z</time>
      </trkpt>
      <trkpt lat="45.30314" lon="5.53931">
        <ele>240.217909</ele>
        <time>2022-10-04T09:31:13.156Z</time>
      </trkpt>
      <trkpt lat="45.30322" lon="5.53945">
        <ele>239.650494</ele>
        <time>2022-10-04T09:31:15.150Z</time>
      </trkpt>
      <trkpt lat="45.3033" lon="5.53958">
        <ele>239.11229</ele>
        <time>2022-10-04T09:31:17.151Z</time>
      </trkpt>
      <trkpt lat="45.30338" lon="5.53973">
        <ele>238.561789</ele>
        <time>2022-10-04T09:31:19.150Z</time>
      </trkpt>
      <trkpt lat="45.30346" lon="5.53987">
        <ele>238.037288</ele>
        <time>2022-10-04T09:31:21.155Z</time>
      </trkpt>
      <trkpt lat="45.30354" lon="5.54001">
        <ele>237.955647</ele>
        <time>2022-10-04T09:31:23.152Z</time>
      </trkpt>
      <trkpt lat="45.30362" lon="5.54015">
        <ele>237.872953</ele>
        <time>2022-10-04T09:31:25.150Z</time>
      </trkpt>
      <trkpt lat="45.30369" lon="5.5403">
        <ele>237.786372</ele>
        <time>2022-10-04T09:31:27.152Z</time>
      </trkpt>
      <trkpt lat="45.30377" lon="5.54045">
        <ele>237.701183</ele>
        <time>2022-10-04T09:31:29.153Z</time>
      </trkpt>
      <trkpt lat="45.30385" lon="5.5406">
        <ele>237.614872</ele>
        <time>2022-10-04T09:31:31.155Z</time>
      </trkpt>
      <trkpt lat="45.30393" lon="5.54075">
        <ele>237.529812</ele>
        <time>2022-10-04T09:31:33.152Z</time>
      </trkpt>
      <trkpt lat="45.304" lon="5.54089">
        <ele>237.450354</ele>
        <time>2022-10-04T09:31:35.151Z</time>
      </trkpt>
      <trkpt lat="45.30407" lon="5.54105">
        <ele>237.365667</ele>
        <time>2022-10-04T09:31:37.155Z</time>
      </trkpt>
      <trkpt lat="45.30415" lon="5.54118">
        <ele>237.285773</ele>
        <time>2022-10-04T09:31:39.154Z</time>
      </trkpt>
      <trkpt lat="45.30422" lon="5.5413">
        <ele>237.216699</ele>
        <time>2022-10-04T09:31:41.153Z</time>
      </trkpt>
      <trkpt lat="45.30426" lon="5.54141">
        <ele>237.156558</ele>
        <time>2022-10-04T09:31:43.154Z</time>
      </trkpt>
      <trkpt lat="45.30425" lon="5.54154">
        <ele>237.093038</ele>
        <time>2022-10-04T09:31:45.163Z</time>
      </trkpt>
      <trkpt lat="45.30419" lon="5.54167">
        <ele>237.026956</ele>
        <time>2022-10-04T09:31:47.159Z</time>
      </trkpt>
      <trkpt lat="45.3041" lon="5.54171">
        <ele>236.964816</ele>
        <time>2022-10-04T09:31:49.167Z</time>
      </trkpt>
      <trkpt lat="45.30401" lon="5.5418">
        <ele>236.896033</ele>
        <time>2022-10-04T09:31:51.155Z</time>
      </trkpt>
      <trkpt lat="45.30392" lon="5.54187">
        <ele>236.843876</ele>
        <time>2022-10-04T09:31:53.155Z</time>
      </trkpt>
      <trkpt lat="45.30383" lon="5.54193">
        <ele>236.804922</ele>
        <time>2022-10-04T09:31:55.152Z</time>
      </trkpt>
      <trkpt lat="45.30375" lon="5.54202">
        <ele>236.76285</ele>
        <time>2022-10-04T09:31:59.152Z</time>
      </trkpt>
      <trkpt lat="45.30364" lon="5.54211">
        <ele>236.712295</ele>
        <time>2022-10-04T09:32:02.151Z</time>
      </trkpt>
      <trkpt lat="45.30355" lon="5.54218">
        <ele>236.671947</ele>
        <time>2022-10-04T09:32:04.151Z</time>
      </trkpt>
      <trkpt lat="45.30347" lon="5.54224">
        <ele>236.63574</ele>
        <time>2022-10-04T09:32:06.154Z</time>
      </trkpt>
      <trkpt lat="45.30338" lon="5.54231">
        <ele>236.596839</ele>
        <time>2022-10-04T09:32:08.149Z</time>
      </trkpt>
      <trkpt lat="45.3033" lon="5.54238">
        <ele>236.557676</ele>
        <time>2022-10-04T09:32:10.156Z</time>
      </trkpt>
      <trkpt lat="45.3032" lon="5.54249">
        <ele>236.509012</ele>
        <time>2022-10-04T09:32:12.152Z</time>
      </trkpt>
      <trkpt lat="45.30309" lon="5.54256">
        <ele>236.46109</ele>
        <time>2022-10-04T09:32:14.149Z</time>
      </trkpt>
      <trkpt lat="45.303" lon="5.54267">
        <ele>236.412795</ele>
        <time>2022-10-04T09:32:16.152Z</time>
      </trkpt>
      <trkpt lat="45.30288" lon="5.54276">
        <ele>236.361686</ele>
        <time>2022-10-04T09:32:18.154Z</time>
      </trkpt>
      <trkpt lat="45.30279" lon="5.54286">
        <ele>236.31366</ele>
        <time>2022-10-04T09:32:20.153Z</time>
      </trkpt>
      <trkpt lat="45.3027" lon="5.54295">
        <ele>236.26985</ele>
        <time>2022-10-04T09:32:22.155Z</time>
      </trkpt>
      <trkpt lat="45.3026" lon="5.54305">
        <ele>236.22232</ele>
        <time>2022-10-04T09:32:24.153Z</time>
      </trkpt>
      <trkpt lat="45.3025" lon="5.54316">
        <ele>236.17279</ele>
        <time>2022-10-04T09:32:26.153Z</time>
      </trkpt>
      <trkpt lat="45.30241" lon="5.54326">
        <ele>236.088233</ele>
        <time>2022-10-04T09:32:28.151Z</time>
      </trkpt>
      <trkpt lat="45.30231" lon="5.54338">
        <ele>235.964918</ele>
        <time>2022-10-04T09:32:30.155Z</time>
      </trkpt>
      <trkpt lat="45.30223" lon="5.54353">
        <ele>235.837415</ele>
        <time>2022-10-04T09:32:32.152Z</time>
      </trkpt>
      <trkpt lat="45.30216" lon="5.54369">
        <ele>235.718302</ele>
        <time>2022-10-04T09:32:34.159Z</time>
      </trkpt>
      <trkpt lat="45.30211" lon="5.54385">
        <ele>235.605668</ele>
        <time>2022-10-04T09:32:36.151Z</time>
      </trkpt>
      <trkpt lat="45.30204" lon="5.544">
        <ele>235.488128</ele>
        <time>2022-10-04T09:32:38.154Z</time>
      </trkpt>
      <trkpt lat="45.302" lon="5.54417">
        <ele>235.373836</ele>
        <time>2022-10-04T09:32:40.157Z</time>
      </trkpt>
      <trkpt lat="45.30197" lon="5.54436">
        <ele>235.24758</ele>
        <time>2022-10-04T09:32:42.154Z</time>
      </trkpt>
      <trkpt lat="45.30193" lon="5.54452">
        <ele>235.131522</ele>
        <time>2022-10-04T09:32:44.152Z</time>
      </trkpt>
      <trkpt lat="45.30185" lon="5.54468">
        <ele>235.007385</ele>
        <time>2022-10-04T09:32:46.153Z</time>
      </trkpt>
      <trkpt lat="45.30177" lon="5.54482">
        <ele>234.887287</ele>
        <time>2022-10-04T09:32:48.156Z</time>
      </trkpt>
      <trkpt lat="45.3017" lon="5.54499">
        <ele>234.756825</ele>
        <time>2022-10-04T09:32:50.155Z</time>
      </trkpt>
      <trkpt lat="45.30164" lon="5.54515">
        <ele>234.643295</ele>
        <time>2022-10-04T09:32:52.154Z</time>
      </trkpt>
      <trkpt lat="45.30159" lon="5.54534">
        <ele>234.509033</ele>
        <time>2022-10-04T09:32:54.152Z</time>
      </trkpt>
      <trkpt lat="45.3015" lon="5.5455">
        <ele>234.421916</ele>
        <time>2022-10-04T09:32:56.153Z</time>
      </trkpt>
      <trkpt lat="45.30142" lon="5.54565">
        <ele>234.342623</ele>
        <time>2022-10-04T09:32:58.152Z</time>
      </trkpt>
      <trkpt lat="45.30131" lon="5.54579">
        <ele>234.259399</ele>
        <time>2022-10-04T09:33:00.154Z</time>
      </trkpt>
      <trkpt lat="45.30121" lon="5.54592">
        <ele>234.176794</ele>
        <time>2022-10-04T09:33:02.153Z</time>
      </trkpt>
      <trkpt lat="45.30111" lon="5.54602">
        <ele>234.10709</ele>
        <time>2022-10-04T09:33:04.154Z</time>
      </trkpt>
      <trkpt lat="45.30102" lon="5.54615">
        <ele>234.029971</ele>
        <time>2022-10-04T09:33:06.150Z</time>
      </trkpt>
      <trkpt lat="45.30092" lon="5.54629">
        <ele>233.949754</ele>
        <time>2022-10-04T09:33:08.152Z</time>
      </trkpt>
      <trkpt lat="45.30081" lon="5.54641">
        <ele>233.870607</ele>
        <time>2022-10-04T09:33:10.153Z</time>
      </trkpt>
      <trkpt lat="45.30073" lon="5.54652">
        <ele>233.80338</ele>
        <time>2022-10-04T09:33:12.149Z</time>
      </trkpt>
      <trkpt lat="45.30064" lon="5.54664">
        <ele>233.732352</ele>
        <time>2022-10-04T09:33:14.157Z</time>
      </trkpt>
      <trkpt lat="45.30055" lon="5.54677">
        <ele>233.656355</ele>
        <time>2022-10-04T09:33:16.153Z</time>
      </trkpt>
      <trkpt lat="45.30045" lon="5.54689">
        <ele>233.581844</ele>
        <time>2022-10-04T09:33:18.154Z</time>
      </trkpt>
      <trkpt lat="45.30037" lon="5.54701">
        <ele>233.51205</ele>
        <time>2022-10-04T09:33:20.150Z</time>
      </trkpt>
      <trkpt lat="45.30028" lon="5.54713">
        <ele>233.446949</ele>
        <time>2022-10-04T09:33:22.154Z</time>
      </trkpt>
      <trkpt lat="45.30019" lon="5.54725">
        <ele>233.562425</ele>
        <time>2022-10-04T09:33:24.152Z</time>
      </trkpt>
      <trkpt lat="45.3001" lon="5.54737">
        <ele>233.684128</ele>
        <time>2022-10-04T09:33:26.154Z</time>
      </trkpt>
      <trkpt lat="45.30001" lon="5.54749">
        <ele>233.797753</ele>
        <time>2022-10-04T09:33:28.151Z</time>
      </trkpt>
      <trkpt lat="45.29992" lon="5.54761">
        <ele>233.916258</ele>
        <time>2022-10-04T09:33:30.152Z</time>
      </trkpt>
      <trkpt lat="45.29985" lon="5.54774">
        <ele>234.02748</ele>
        <time>2022-10-04T09:33:32.153Z</time>
      </trkpt>
      <trkpt lat="45.29985" lon="5.5479">
        <ele>234.138717</ele>
        <time>2022-10-04T09:33:34.153Z</time>
      </trkpt>
      <trkpt lat="45.29989" lon="5.54804">
        <ele>234.240855</ele>
        <time>2022-10-04T09:33:36.153Z</time>
      </trkpt>
      <trkpt lat="45.29999" lon="5.54818">
        <ele>234.373157</ele>
        <time>2022-10-04T09:33:38.155Z</time>
      </trkpt>
      <trkpt lat="45.30008" lon="5.5483">
        <ele>234.486802</ele>
        <time>2022-10-04T09:33:40.164Z</time>
      </trkpt>
      <trkpt lat="45.30019" lon="5.54841">
        <ele>234.616911</ele>
        <time>2022-10-04T09:33:42.151Z</time>
      </trkpt>
      <trkpt lat="45.30029" lon="5.54852">
        <ele>234.741149</ele>
        <time>2022-10-04T09:33:44.156Z</time>
      </trkpt>
      <trkpt lat="45.30037" lon="5.54865">
        <ele>234.854629</ele>
        <time>2022-10-04T09:33:46.155Z</time>
      </trkpt>
      <trkpt lat="45.30047" lon="5.54879">
        <ele>234.983833</ele>
        <time>2022-10-04T09:33:48.153Z</time>
      </trkpt>
      <trkpt lat="45.30054" lon="5.54893">
        <ele>235.108326</ele>
        <time>2022-10-04T09:33:50.152Z</time>
      </trkpt>
      <trkpt lat="45.30062" lon="5.54908">
        <ele>235.71703</ele>
        <time>2022-10-04T09:33:52.151Z</time>
      </trkpt>
      <trkpt lat="45.30069" lon="5.54924">
        <ele>236.665797</ele>
        <time>2022-10-04T09:33:54.152Z</time>
      </trkpt>
      <trkpt lat="45.30077" lon="5.54939">
        <ele>237.589453</ele>
        <time>2022-10-04T09:33:56.153Z</time>
      </trkpt>
      <trkpt lat="45.30085" lon="5.54953">
        <ele>238.54214</ele>
        <time>2022-10-04T09:33:58.156Z</time>
      </trkpt>
      <trkpt lat="45.30095" lon="5.54968">
        <ele>239.569039</ele>
        <time>2022-10-04T09:34:00.154Z</time>
      </trkpt>
      <trkpt lat="45.30104" lon="5.54984">
        <ele>240.597492</ele>
        <time>2022-10-04T09:34:02.153Z</time>
      </trkpt>
      <trkpt lat="45.30114" lon="5.54998">
        <ele>241.600755</ele>
        <time>2022-10-04T09:34:04.151Z</time>
      </trkpt>
      <trkpt lat="45.30123" lon="5.55013">
        <ele>242.610698</ele>
        <time>2022-10-04T09:34:06.152Z</time>
      </trkpt>
      <trkpt lat="45.30132" lon="5.55026">
        <ele>243.530318</ele>
        <time>2022-10-04T09:34:08.152Z</time>
      </trkpt>
      <trkpt lat="45.30141" lon="5.55038">
        <ele>244.404627</ele>
        <time>2022-10-04T09:34:10.153Z</time>
      </trkpt>
      <trkpt lat="45.30149" lon="5.55053">
        <ele>245.383935</ele>
        <time>2022-10-04T09:34:12.152Z</time>
      </trkpt>
      <trkpt lat="45.30157" lon="5.55066">
        <ele>246.249158</ele>
        <time>2022-10-04T09:34:14.149Z</time>
      </trkpt>
      <trkpt lat="45.30164" lon="5.5508">
        <ele>247.131427</ele>
        <time>2022-10-04T09:34:16.159Z</time>
      </trkpt>
      <trkpt lat="45.30174" lon="5.55095">
        <ele>248.080089</ele>
        <time>2022-10-04T09:34:18.151Z</time>
      </trkpt>
      <trkpt lat="45.30181" lon="5.5511">
        <ele>247.357521</ele>
        <time>2022-10-04T09:34:20.154Z</time>
      </trkpt>
      <trkpt lat="45.3019" lon="5.55125">
        <ele>246.567676</ele>
        <time>2022-10-04T09:34:22.151Z</time>
      </trkpt>
      <trkpt lat="45.30198" lon="5.5514">
        <ele>245.802687</ele>
        <time>2022-10-04T09:34:24.155Z</time>
      </trkpt>
      <trkpt lat="45.30206" lon="5.55155">
        <ele>245.032314</ele>
        <time>2022-10-04T09:34:26.153Z</time>
      </trkpt>
      <trkpt lat="45.30213" lon="5.55171">
        <ele>244.279719</ele>
        <time>2022-10-04T09:34:28.150Z</time>
      </trkpt>
      <trkpt lat="45.3022" lon="5.55186">
        <ele>243.585944</ele>
        <time>2022-10-04T09:34:30.152Z</time>
      </trkpt>
      <trkpt lat="45.30229" lon="5.55201">
        <ele>242.774786</ele>
        <time>2022-10-04T09:34:32.159Z</time>
      </trkpt>
      <trkpt lat="45.3024" lon="5.55214">
        <ele>241.985619</ele>
        <time>2022-10-04T09:34:34.156Z</time>
      </trkpt>
      <trkpt lat="45.30251" lon="5.55223">
        <ele>241.25993</ele>
        <time>2022-10-04T09:34:36.155Z</time>
      </trkpt>
      <trkpt lat="45.30261" lon="5.55231">
        <ele>240.628558</ele>
        <time>2022-10-04T09:34:38.161Z</time>
      </trkpt>
      <trkpt lat="45.30272" lon="5.55236">
        <ele>239.975711</ele>
        <time>2022-10-04T09:34:40.152Z</time>
      </trkpt>
      <trkpt lat="45.30285" lon="5.55244">
        <ele>239.168738</ele>
        <time>2022-10-04T09:34:42.152Z</time>
      </trkpt>
      <trkpt lat="45.30299" lon="5.5525">
        <ele>238.362598</ele>
        <time>2022-10-04T09:34:44.152Z</time>
      </trkpt>
      <trkpt lat="45.30312" lon="5.55257">
        <ele>238.067559</ele>
        <time>2022-10-04T09:34:46.152Z</time>
      </trkpt>
      <trkpt lat="45.30325" lon="5.55262">
        <ele>238.332829</ele>
        <time>2022-10-04T09:34:48.154Z</time>
      </trkpt>
      <trkpt lat="45.30337" lon="5.55269">
        <ele>238.5841</ele>
        <time>2022-10-04T09:34:50.151Z</time>
      </trkpt>
      <trkpt lat="45.30351" lon="5.55273">
        <ele>238.863497</ele>
        <time>2022-10-04T09:34:52.153Z</time>
      </trkpt>
      <trkpt lat="45.30362" lon="5.55279">
        <ele>239.100435</ele>
        <time>2022-10-04T09:34:54.157Z</time>
      </trkpt>
      <trkpt lat="45.30374" lon="5.55288">
        <ele>239.35979</ele>
        <time>2022-10-04T09:34:56.154Z</time>
      </trkpt>
      <trkpt lat="45.30388" lon="5.55297">
        <ele>239.64915</ele>
        <time>2022-10-04T09:34:58.151Z</time>
      </trkpt>
      <trkpt lat="45.30398" lon="5.55308">
        <ele>239.907823</ele>
        <time>2022-10-04T09:35:00.151Z</time>
      </trkpt>
      <trkpt lat="45.30408" lon="5.5532">
        <ele>240.163365</ele>
        <time>2022-10-04T09:35:02.152Z</time>
      </trkpt>
      <trkpt lat="45.30416" lon="5.55332">
        <ele>240.399634</ele>
        <time>2022-10-04T09:35:04.153Z</time>
      </trkpt>
      <trkpt lat="45.30428" lon="5.55343">
        <ele>240.66735</ele>
        <time>2022-10-04T09:35:06.154Z</time>
      </trkpt>
      <trkpt lat="45.30438" lon="5.55352">
        <ele>240.911669</ele>
        <time>2022-10-04T09:35:08.160Z</time>
      </trkpt>
      <trkpt lat="45.30451" lon="5.55365">
        <ele>241.206248</ele>
        <time>2022-10-04T09:35:10.160Z</time>
      </trkpt>
      <trkpt lat="45.3046" lon="5.55376">
        <ele>241.45824</ele>
        <time>2022-10-04T09:35:12.154Z</time>
      </trkpt>
      <trkpt lat="45.30469" lon="5.55389">
        <ele>241.286074</ele>
        <time>2022-10-04T09:35:14.151Z</time>
      </trkpt>
      <trkpt lat="45.3048" lon="5.55402">
        <ele>241.074112</ele>
        <time>2022-10-04T09:35:16.154Z</time>
      </trkpt>
      <trkpt lat="45.30487" lon="5.55416">
        <ele>240.885457</ele>
        <time>2022-10-04T09:35:18.152Z</time>
      </trkpt>
      <trkpt lat="45.30496" lon="5.55429">
        <ele>240.688688</ele>
        <time>2022-10-04T09:35:20.152Z</time>
      </trkpt>
      <trkpt lat="45.30505" lon="5.55445">
        <ele>240.481012</ele>
        <time>2022-10-04T09:35:22.158Z</time>
      </trkpt>
      <trkpt lat="45.30509" lon="5.55461">
        <ele>240.298172</ele>
        <time>2022-10-04T09:35:24.152Z</time>
      </trkpt>
      <trkpt lat="45.30514" lon="5.55478">
        <ele>240.100694</ele>
        <time>2022-10-04T09:35:26.151Z</time>
      </trkpt>
      <trkpt lat="45.3052" lon="5.55495">
        <ele>239.898506</ele>
        <time>2022-10-04T09:35:28.146Z</time>
      </trkpt>
      <trkpt lat="45.30524" lon="5.55511">
        <ele>239.714027</ele>
        <time>2022-10-04T09:35:30.153Z</time>
      </trkpt>
      <trkpt lat="45.30529" lon="5.55528">
        <ele>239.518509</ele>
        <time>2022-10-04T09:35:32.152Z</time>
      </trkpt>
      <trkpt lat="45.30535" lon="5.55544">
        <ele>239.329051</ele>
        <time>2022-10-04T09:35:34.156Z</time>
      </trkpt>
      <trkpt lat="45.3054" lon="5.55561">
        <ele>239.131404</ele>
        <time>2022-10-04T09:35:36.153Z</time>
      </trkpt>
      <trkpt lat="45.30545" lon="5.55579">
        <ele>238.929061</ele>
        <time>2022-10-04T09:35:38.153Z</time>
      </trkpt>
      <trkpt lat="45.3055" lon="5.55597">
        <ele>238.725452</ele>
        <time>2022-10-04T09:35:40.155Z</time>
      </trkpt>
      <trkpt lat="45.30555" lon="5.55615">
        <ele>238.561087</ele>
        <time>2022-10-04T09:35:42.152Z</time>
      </trkpt>
      <trkpt lat="45.3056" lon="5.55632">
        <ele>238.399492</ele>
        <time>2022-10-04T09:35:44.150Z</time>
      </trkpt>
      <trkpt lat="45.30565" lon="5.55648">
        <ele>238.248741</ele>
        <time>2022-10-04T09:35:46.151Z</time>
      </trkpt>
      <trkpt lat="45.3057" lon="5.55665">
        <ele>238.089614</ele>
        <time>2022-10-04T09:35:48.149Z</time>
      </trkpt>
      <trkpt lat="45.30574" lon="5.5568">
        <ele>237.950603</ele>
        <time>2022-10-04T09:35:50.153Z</time>
      </trkpt>
      <trkpt lat="45.3058" lon="5.55697">
        <ele>237.788833</ele>
        <time>2022-10-04T09:35:52.155Z</time>
      </trkpt>
      <trkpt lat="45.30584" lon="5.55716">
        <ele>237.61997</ele>
        <time>2022-10-04T09:35:54.154Z</time>
      </trkpt>
      <trkpt lat="45.3059" lon="5.55733">
        <ele>237.453833</ele>
        <time>2022-10-04T09:35:56.152Z</time>
      </trkpt>
      <trkpt lat="45.30594" lon="5.55749">
        <ele>237.306438</ele>
        <time>2022-10-04T09:35:58.152Z</time>
      </trkpt>
      <trkpt lat="45.30599" lon="5.55764">
        <ele>237.161414</ele>
        <time>2022-10-04T09:36:00.151Z</time>
      </trkpt>
      <trkpt lat="45.30604" lon="5.55782">
        <ele>236.999913</ele>
        <time>2022-10-04T09:36:02.152Z</time>
      </trkpt>
      <trkpt lat="45.30609" lon="5.55798">
        <ele>236.843343</ele>
        <time>2022-10-04T09:36:04.155Z</time>
      </trkpt>
      <trkpt lat="45.30613" lon="5.55815">
        <ele>236.695209</ele>
        <time>2022-10-04T09:36:06.155Z</time>
      </trkpt>
      <trkpt lat="45.30618" lon="5.55831">
        <ele>236.568912</ele>
        <time>2022-10-04T09:36:08.152Z</time>
      </trkpt>
      <trkpt lat="45.30623" lon="5.55849">
        <ele>237.696958</ele>
        <time>2022-10-04T09:36:10.153Z</time>
      </trkpt>
      <trkpt lat="45.30629" lon="5.55868">
        <ele>238.89749</ele>
        <time>2022-10-04T09:36:12.151Z</time>
      </trkpt>
      <trkpt lat="45.30634" lon="5.55884">
        <ele>239.912501</ele>
        <time>2022-10-04T09:36:14.153Z</time>
      </trkpt>
      <trkpt lat="45.30639" lon="5.55901">
        <ele>240.998754</ele>
        <time>2022-10-04T09:36:16.151Z</time>
      </trkpt>
      <trkpt lat="45.30645" lon="5.55921">
        <ele>242.249381</ele>
        <time>2022-10-04T09:36:18.157Z</time>
      </trkpt>
      <trkpt lat="45.3065" lon="5.55934">
        <ele>243.17996</ele>
        <time>2022-10-04T09:36:20.152Z</time>
      </trkpt>
      <trkpt lat="45.30654" lon="5.55953">
        <ele>244.296191</ele>
        <time>2022-10-04T09:36:22.152Z</time>
      </trkpt>
      <trkpt lat="45.3066" lon="5.55969">
        <ele>245.371646</ele>
        <time>2022-10-04T09:36:24.150Z</time>
      </trkpt>
      <trkpt lat="45.30665" lon="5.55985">
        <ele>246.35366</ele>
        <time>2022-10-04T09:36:26.157Z</time>
      </trkpt>
      <trkpt lat="45.3067" lon="5.56001">
        <ele>247.406357</ele>
        <time>2022-10-04T09:36:28.156Z</time>
      </trkpt>
      <trkpt lat="45.30676" lon="5.56019">
        <ele>248.584416</ele>
        <time>2022-10-04T09:36:30.154Z</time>
      </trkpt>
      <trkpt lat="45.30682" lon="5.56035">
        <ele>249.638336</ele>
        <time>2022-10-04T09:36:32.150Z</time>
      </trkpt>
      <trkpt lat="45.30688" lon="5.56053">
        <ele>250.803548</ele>
        <time>2022-10-04T09:36:34.152Z</time>
      </trkpt>
      <trkpt lat="45.30694" lon="5.56069">
        <ele>251.122885</ele>
        <time>2022-10-04T09:36:36.153Z</time>
      </trkpt>
      <trkpt lat="45.30699" lon="5.56084">
        <ele>250.204797</ele>
        <time>2022-10-04T09:36:38.152Z</time>
      </trkpt>
      <trkpt lat="45.30705" lon="5.56098">
        <ele>249.293034</ele>
        <time>2022-10-04T09:36:40.155Z</time>
      </trkpt>
      <trkpt lat="45.30711" lon="5.56114">
        <ele>248.297002</ele>
        <time>2022-10-04T09:36:42.152Z</time>
      </trkpt>
      <trkpt lat="45.30718" lon="5.56129">
        <ele>247.308348</ele>
        <time>2022-10-04T09:36:44.150Z</time>
      </trkpt>
      <trkpt lat="45.30723" lon="5.56145">
        <ele>246.345015</ele>
        <time>2022-10-04T09:36:46.150Z</time>
      </trkpt>
      <trkpt lat="45.30729" lon="5.5616">
        <ele>245.393073</ele>
        <time>2022-10-04T09:36:48.151Z</time>
      </trkpt>
      <trkpt lat="45.30735" lon="5.56176">
        <ele>244.343583</ele>
        <time>2022-10-04T09:36:50.155Z</time>
      </trkpt>
      <trkpt lat="45.30742" lon="5.56191">
        <ele>243.344825</ele>
        <time>2022-10-04T09:36:52.151Z</time>
      </trkpt>
      <trkpt lat="45.30749" lon="5.56208">
        <ele>242.289437</ele>
        <time>2022-10-04T09:36:54.152Z</time>
      </trkpt>
      <trkpt lat="45.30756" lon="5.56224">
        <ele>241.243776</ele>
        <time>2022-10-04T09:36:56.150Z</time>
      </trkpt>
      <trkpt lat="45.30762" lon="5.56241">
        <ele>240.189648</ele>
        <time>2022-10-04T09:36:58.153Z</time>
      </trkpt>
      <trkpt lat="45.30768" lon="5.56257">
        <ele>239.193213</ele>
        <time>2022-10-04T09:37:00.152Z</time>
      </trkpt>
      <trkpt lat="45.30774" lon="5.56273">
        <ele>238.134031</ele>
        <time>2022-10-04T09:37:02.151Z</time>
      </trkpt>
      <trkpt lat="45.30782" lon="5.56289">
        <ele>237.2662</ele>
        <time>2022-10-04T09:37:04.151Z</time>
      </trkpt>
      <trkpt lat="45.30789" lon="5.56305">
        <ele>237.168226</ele>
        <time>2022-10-04T09:37:06.151Z</time>
      </trkpt>
      <trkpt lat="45.30796" lon="5.56322">
        <ele>237.066048</ele>
        <time>2022-10-04T09:37:08.154Z</time>
      </trkpt>
      <trkpt lat="45.30802" lon="5.56337">
        <ele>236.976993</ele>
        <time>2022-10-04T09:37:10.152Z</time>
      </trkpt>
      <trkpt lat="45.30807" lon="5.56354">
        <ele>236.88065</ele>
        <time>2022-10-04T09:37:12.152Z</time>
      </trkpt>
      <trkpt lat="45.30815" lon="5.56369">
        <ele>236.783279</ele>
        <time>2022-10-04T09:37:14.153Z</time>
      </trkpt>
      <trkpt lat="45.3082" lon="5.56385">
        <ele>236.688078</ele>
        <time>2022-10-04T09:37:16.152Z</time>
      </trkpt>
      <trkpt lat="45.30828" lon="5.56401">
        <ele>236.585496</ele>
        <time>2022-10-04T09:37:18.160Z</time>
      </trkpt>
      <trkpt lat="45.30834" lon="5.56416">
        <ele>236.493724</ele>
        <time>2022-10-04T09:37:20.149Z</time>
      </trkpt>
      <trkpt lat="45.3084" lon="5.56432">
        <ele>236.400728</ele>
        <time>2022-10-04T09:37:22.160Z</time>
      </trkpt>
      <trkpt lat="45.30848" lon="5.56448">
        <ele>236.297355</ele>
        <time>2022-10-04T09:37:24.148Z</time>
      </trkpt>
      <trkpt lat="45.30858" lon="5.5646">
        <ele>236.200357</ele>
        <time>2022-10-04T09:37:26.152Z</time>
      </trkpt>
      <trkpt lat="45.30867" lon="5.56469">
        <ele>236.114845</ele>
        <time>2022-10-04T09:37:28.155Z</time>
      </trkpt>
      <trkpt lat="45.30879" lon="5.56476">
        <ele>236.022941</ele>
        <time>2022-10-04T09:37:30.154Z</time>
      </trkpt>
      <trkpt lat="45.30894" lon="5.56482">
        <ele>236.360666</ele>
        <time>2022-10-04T09:37:32.151Z</time>
      </trkpt>
      <trkpt lat="45.30905" lon="5.56491">
        <ele>237.256142</ele>
        <time>2022-10-04T09:37:34.150Z</time>
      </trkpt>
      <trkpt lat="45.30917" lon="5.56501">
        <ele>238.229494</ele>
        <time>2022-10-04T09:37:36.152Z</time>
      </trkpt>
      <trkpt lat="45.30928" lon="5.5651">
        <ele>239.130139</ele>
        <time>2022-10-04T09:37:38.152Z</time>
      </trkpt>
      <trkpt lat="45.3094" lon="5.56521">
        <ele>240.111364</ele>
        <time>2022-10-04T09:37:40.153Z</time>
      </trkpt>
      <trkpt lat="45.30951" lon="5.56531">
        <ele>241.006937</ele>
        <time>2022-10-04T09:37:42.151Z</time>
      </trkpt>
      <trkpt lat="45.30963" lon="5.56541">
        <ele>242.010631</ele>
        <time>2022-10-04T09:37:44.151Z</time>
      </trkpt>
      <trkpt lat="45.30974" lon="5.56552">
        <ele>242.914762</ele>
        <time>2022-10-04T09:37:46.150Z</time>
      </trkpt>
      <trkpt lat="45.30984" lon="5.56564">
        <ele>243.860562</ele>
        <time>2022-10-04T09:37:48.153Z</time>
      </trkpt>
      <trkpt lat="45.30994" lon="5.56577">
        <ele>244.77982</ele>
        <time>2022-10-04T09:37:50.150Z</time>
      </trkpt>
      <trkpt lat="45.31003" lon="5.5659">
        <ele>245.704151</ele>
        <time>2022-10-04T09:37:52.151Z</time>
      </trkpt>
      <trkpt lat="45.31011" lon="5.56606">
        <ele>246.68652</ele>
        <time>2022-10-04T09:37:54.153Z</time>
      </trkpt>
      <trkpt lat="45.31019" lon="5.56621">
        <ele>247.576329</ele>
        <time>2022-10-04T09:37:56.152Z</time>
      </trkpt>
      <trkpt lat="45.31027" lon="5.56637">
        <ele>248.533194</ele>
        <time>2022-10-04T09:37:58.154Z</time>
      </trkpt>
      <trkpt lat="45.31034" lon="5.56652">
        <ele>248.194791</ele>
        <time>2022-10-04T09:38:00.152Z</time>
      </trkpt>
      <trkpt lat="45.3104" lon="5.56669">
        <ele>247.859628</ele>
        <time>2022-10-04T09:38:02.153Z</time>
      </trkpt>
      <trkpt lat="45.31047" lon="5.56685">
        <ele>247.536521</ele>
        <time>2022-10-04T09:38:04.153Z</time>
      </trkpt>
      <trkpt lat="45.31054" lon="5.56701">
        <ele>247.191931</ele>
        <time>2022-10-04T09:38:06.151Z</time>
      </trkpt>
      <trkpt lat="45.31062" lon="5.56716">
        <ele>246.859285</ele>
        <time>2022-10-04T09:38:08.153Z</time>
      </trkpt>
      <trkpt lat="45.31067" lon="5.56732">
        <ele>246.535556</ele>
        <time>2022-10-04T09:38:10.151Z</time>
      </trkpt>
      <trkpt lat="45.31074" lon="5.56747">
        <ele>246.217514</ele>
        <time>2022-10-04T09:38:12.151Z</time>
      </trkpt>
      <trkpt lat="45.31079" lon="5.56761">
        <ele>245.940699</ele>
        <time>2022-10-04T09:38:14.158Z</time>
      </trkpt>
      <trkpt lat="45.31087" lon="5.56774">
        <ele>245.633732</ele>
        <time>2022-10-04T09:38:16.153Z</time>
      </trkpt>
      <trkpt lat="45.31093" lon="5.56788">
        <ele>245.354248</ele>
        <time>2022-10-04T09:38:18.149Z</time>
      </trkpt>
      <trkpt lat="45.311" lon="5.568">
        <ele>245.072973</ele>
        <time>2022-10-04T09:38:21.152Z</time>
      </trkpt>
      <trkpt lat="45.3108" lon="5.56828">
        <ele>244.35951</ele>
        <time>2022-10-04T09:39:12.156Z</time>
      </trkpt>
      <trkpt lat="45.31071" lon="5.56841">
        <ele>244.046884</ele>
        <time>2022-10-04T09:39:16.151Z</time>
      </trkpt>
      <trkpt lat="45.31065" lon="5.56856">
        <ele>243.582284</ele>
        <time>2022-10-04T09:39:19.149Z</time>
      </trkpt>
      <trkpt lat="45.31061" lon="5.56867">
        <ele>243.204151</ele>
        <time>2022-10-04T09:39:21.150Z</time>
      </trkpt>
      <trkpt lat="45.31056" lon="5.5688">
        <ele>242.803942</ele>
        <time>2022-10-04T09:39:23.153Z</time>
      </trkpt>
      <trkpt lat="45.31053" lon="5.56893">
        <ele>242.392259</ele>
        <time>2022-10-04T09:39:25.152Z</time>
      </trkpt>
      <trkpt lat="45.31047" lon="5.56906">
        <ele>241.945695</ele>
        <time>2022-10-04T09:39:27.155Z</time>
      </trkpt>
      <trkpt lat="45.31043" lon="5.56921">
        <ele>241.483147</ele>
        <time>2022-10-04T09:39:29.152Z</time>
      </trkpt>
      <trkpt lat="45.31038" lon="5.56935">
        <ele>241.025818</ele>
        <time>2022-10-04T09:39:31.153Z</time>
      </trkpt>
      <trkpt lat="45.31033" lon="5.56949">
        <ele>240.563269</ele>
        <time>2022-10-04T09:39:33.154Z</time>
      </trkpt>
      <trkpt lat="45.31029" lon="5.56961">
        <ele>240.172945</ele>
        <time>2022-10-04T09:39:35.154Z</time>
      </trkpt>
      <trkpt lat="45.31025" lon="5.56972">
        <ele>239.796141</ele>
        <time>2022-10-04T09:39:37.155Z</time>
      </trkpt>
      <trkpt lat="45.3102" lon="5.56985">
        <ele>239.394193</ele>
        <time>2022-10-04T09:39:39.153Z</time>
      </trkpt>
      <trkpt lat="45.31015" lon="5.57003">
        <ele>238.823311</ele>
        <time>2022-10-04T09:39:42.162Z</time>
      </trkpt>
      <trkpt lat="45.31011" lon="5.57015">
        <ele>238.416064</ele>
        <time>2022-10-04T09:39:44.153Z</time>
      </trkpt>
      <trkpt lat="45.31007" lon="5.57029">
        <ele>237.995928</ele>
        <time>2022-10-04T09:39:46.152Z</time>
      </trkpt>
      <trkpt lat="45.31002" lon="5.57042">
        <ele>237.563106</ele>
        <time>2022-10-04T09:39:48.151Z</time>
      </trkpt>
      <trkpt lat="45.30996" lon="5.57057">
        <ele>237.064137</ele>
        <time>2022-10-04T09:39:50.151Z</time>
      </trkpt>
      <trkpt lat="45.30991" lon="5.57071">
        <ele>236.628166</ele>
        <time>2022-10-04T09:39:52.149Z</time>
      </trkpt>
      <trkpt lat="45.30987" lon="5.57085">
        <ele>236.403978</ele>
        <time>2022-10-04T09:39:54.152Z</time>
      </trkpt>
      <trkpt lat="45.30981" lon="5.571">
        <ele>236.234613</ele>
        <time>2022-10-04T09:39:56.159Z</time>
      </trkpt>
      <trkpt lat="45.30976" lon="5.57113">
        <ele>236.072258</ele>
        <time>2022-10-04T09:39:58.159Z</time>
      </trkpt>
      <trkpt lat="45.30972" lon="5.57128">
        <ele>235.9116</ele>
        <time>2022-10-04T09:40:00.158Z</time>
      </trkpt>
      <trkpt lat="45.30968" lon="5.57143">
        <ele>235.74436</ele>
        <time>2022-10-04T09:40:02.150Z</time>
      </trkpt>
      <trkpt lat="45.30963" lon="5.57156">
        <ele>235.590686</ele>
        <time>2022-10-04T09:40:04.155Z</time>
      </trkpt>
      <trkpt lat="45.30958" lon="5.57169">
        <ele>235.437986</ele>
        <time>2022-10-04T09:40:06.156Z</time>
      </trkpt>
      <trkpt lat="45.30955" lon="5.57181">
        <ele>235.3025</ele>
        <time>2022-10-04T09:40:08.154Z</time>
      </trkpt>
      <trkpt lat="45.30957" lon="5.57194">
        <ele>235.165779</ele>
        <time>2022-10-04T09:40:10.156Z</time>
      </trkpt>
      <trkpt lat="45.30963" lon="5.57205">
        <ele>235.025209</ele>
        <time>2022-10-04T09:40:12.157Z</time>
      </trkpt>
      <trkpt lat="45.30972" lon="5.57217">
        <ele>234.84895</ele>
        <time>2022-10-04T09:40:14.152Z</time>
      </trkpt>
      <trkpt lat="45.30979" lon="5.57227">
        <ele>234.690894</ele>
        <time>2022-10-04T09:40:16.154Z</time>
      </trkpt>
      <trkpt lat="45.30989" lon="5.5724">
        <ele>234.498116</ele>
        <time>2022-10-04T09:40:18.161Z</time>
      </trkpt>
      <trkpt lat="45.30998" lon="5.57255">
        <ele>234.291535</ele>
        <time>2022-10-04T09:40:20.152Z</time>
      </trkpt>
      <trkpt lat="45.31007" lon="5.57269">
        <ele>234.095388</ele>
        <time>2022-10-04T09:40:22.154Z</time>
      </trkpt>
      <trkpt lat="45.31015" lon="5.57285">
        <ele>233.900662</ele>
        <time>2022-10-04T09:40:24.168Z</time>
      </trkpt>
      <trkpt lat="45.31025" lon="5.57298">
        <ele>234.069283</ele>
        <time>2022-10-04T09:40:26.159Z</time>
      </trkpt>
      <trkpt lat="45.31033" lon="5.57313">
        <ele>234.247062</ele>
        <time>2022-10-04T09:40:28.162Z</time>
      </trkpt>
      <trkpt lat="45.31043" lon="5.57327">
        <ele>234.439097</ele>
        <time>2022-10-04T09:40:30.163Z</time>
      </trkpt>
      <trkpt lat="45.31051" lon="5.5734">
        <ele>234.605554</ele>
        <time>2022-10-04T09:40:32.157Z</time>
      </trkpt>
      <trkpt lat="45.31061" lon="5.57352">
        <ele>234.786564</ele>
        <time>2022-10-04T09:40:34.165Z</time>
      </trkpt>
      <trkpt lat="45.31066" lon="5.57367">
        <ele>234.937728</ele>
        <time>2022-10-04T09:40:36.157Z</time>
      </trkpt>
      <trkpt lat="45.31063" lon="5.57382">
        <ele>235.089336</ele>
        <time>2022-10-04T09:40:38.153Z</time>
      </trkpt>
      <trkpt lat="45.31056" lon="5.57395">
        <ele>235.242208</ele>
        <time>2022-10-04T09:40:40.154Z</time>
      </trkpt>
      <trkpt lat="45.31049" lon="5.57408">
        <ele>235.406747</ele>
        <time>2022-10-04T09:40:42.153Z</time>
      </trkpt>
      <trkpt lat="45.31042" lon="5.5742">
        <ele>235.557601</ele>
        <time>2022-10-04T09:40:44.160Z</time>
      </trkpt>
      <trkpt lat="45.31036" lon="5.57432">
        <ele>235.701771</ele>
        <time>2022-10-04T09:40:46.153Z</time>
      </trkpt>
      <trkpt lat="45.31029" lon="5.57446">
        <ele>235.862378</ele>
        <time>2022-10-04T09:40:48.162Z</time>
      </trkpt>
      <trkpt lat="45.31021" lon="5.57459">
        <ele>236.023473</ele>
        <time>2022-10-04T09:40:50.156Z</time>
      </trkpt>
      <trkpt lat="45.31014" lon="5.57472">
        <ele>236.187324</ele>
        <time>2022-10-04T09:40:52.163Z</time>
      </trkpt>
      <trkpt lat="45.31006" lon="5.57486">
        <ele>236.338663</ele>
        <time>2022-10-04T09:40:54.161Z</time>
      </trkpt>
      <trkpt lat="45.30998" lon="5.575">
        <ele>236.338585</ele>
        <time>2022-10-04T09:40:56.153Z</time>
      </trkpt>
      <trkpt lat="45.30989" lon="5.57515">
        <ele>236.338505</ele>
        <time>2022-10-04T09:40:58.159Z</time>
      </trkpt>
      <trkpt lat="45.30981" lon="5.57529">
        <ele>236.338427</ele>
        <time>2022-10-04T09:41:00.158Z</time>
      </trkpt>
      <trkpt lat="45.30973" lon="5.57543">
        <ele>236.338348</ele>
        <time>2022-10-04T09:41:02.155Z</time>
      </trkpt>
      <trkpt lat="45.30965" lon="5.57557">
        <ele>236.338273</ele>
        <time>2022-10-04T09:41:04.154Z</time>
      </trkpt>
      <trkpt lat="45.30958" lon="5.57571">
        <ele>236.338199</ele>
        <time>2022-10-04T09:41:06.158Z</time>
      </trkpt>
      <trkpt lat="45.30949" lon="5.57585">
        <ele>236.338119</ele>
        <time>2022-10-04T09:41:08.156Z</time>
      </trkpt>
      <trkpt lat="45.30941" lon="5.576">
        <ele>236.338036</ele>
        <time>2022-10-04T09:41:10.154Z</time>
      </trkpt>
      <trkpt lat="45.30932" lon="5.57615">
        <ele>236.337954</ele>
        <time>2022-10-04T09:41:12.158Z</time>
      </trkpt>
      <trkpt lat="45.30924" lon="5.57629">
        <ele>236.337875</ele>
        <time>2022-10-04T09:41:14.160Z</time>
      </trkpt>
      <trkpt lat="45.30916" lon="5.57644">
        <ele>236.337796</ele>
        <time>2022-10-04T09:41:16.166Z</time>
      </trkpt>
      <trkpt lat="45.30907" lon="5.57658">
        <ele>236.337716</ele>
        <time>2022-10-04T09:41:18.154Z</time>
      </trkpt>
      <trkpt lat="45.309" lon="5.57672">
        <ele>236.337641</ele>
        <time>2022-10-04T09:41:20.161Z</time>
      </trkpt>
      <trkpt lat="45.30893" lon="5.57686">
        <ele>236.337341</ele>
        <time>2022-10-04T09:41:22.164Z</time>
      </trkpt>
      <trkpt lat="45.30885" lon="5.57701">
        <ele>236.336053</ele>
        <time>2022-10-04T09:41:24.160Z</time>
      </trkpt>
      <trkpt lat="45.30877" lon="5.57716">
        <ele>236.334704</ele>
        <time>2022-10-04T09:41:26.158Z</time>
      </trkpt>
      <trkpt lat="45.30869" lon="5.57731">
        <ele>236.333286</ele>
        <time>2022-10-04T09:41:28.163Z</time>
      </trkpt>
      <trkpt lat="45.30863" lon="5.57749">
        <ele>236.331815</ele>
        <time>2022-10-04T09:41:30.160Z</time>
      </trkpt>
      <trkpt lat="45.30858" lon="5.57766">
        <ele>236.33051</ele>
        <time>2022-10-04T09:41:32.168Z</time>
      </trkpt>
      <trkpt lat="45.30858" lon="5.57784">
        <ele>236.329212</ele>
        <time>2022-10-04T09:41:34.162Z</time>
      </trkpt>
      <trkpt lat="45.30861" lon="5.578">
        <ele>236.327994</ele>
        <time>2022-10-04T09:41:36.164Z</time>
      </trkpt>
      <trkpt lat="45.30863" lon="5.57818">
        <ele>236.326657</ele>
        <time>2022-10-04T09:41:38.159Z</time>
      </trkpt>
      <trkpt lat="45.30868" lon="5.57837">
        <ele>236.325223</ele>
        <time>2022-10-04T09:41:40.152Z</time>
      </trkpt>
      <trkpt lat="45.30869" lon="5.57856">
        <ele>236.323832</ele>
        <time>2022-10-04T09:41:42.163Z</time>
      </trkpt>
      <trkpt lat="45.30862" lon="5.57872">
        <ele>236.322465</ele>
        <time>2022-10-04T09:41:44.148Z</time>
      </trkpt>
      <trkpt lat="45.30853" lon="5.57886">
        <ele>236.321048</ele>
        <time>2022-10-04T09:41:46.159Z</time>
      </trkpt>
      <trkpt lat="45.30844" lon="5.57898">
        <ele>236.319773</ele>
        <time>2022-10-04T09:41:48.150Z</time>
      </trkpt>
      <trkpt lat="45.30834" lon="5.5791">
        <ele>236.489679</ele>
        <time>2022-10-04T09:41:50.152Z</time>
      </trkpt>
      <trkpt lat="45.30826" lon="5.57922">
        <ele>236.866916</ele>
        <time>2022-10-04T09:41:52.156Z</time>
      </trkpt>
      <trkpt lat="45.30818" lon="5.57934">
        <ele>237.21426</ele>
        <time>2022-10-04T09:41:54.163Z</time>
      </trkpt>
      <trkpt lat="45.30808" lon="5.57946">
        <ele>237.608709</ele>
        <time>2022-10-04T09:41:56.160Z</time>
      </trkpt>
      <trkpt lat="45.30799" lon="5.57958">
        <ele>237.987708</ele>
        <time>2022-10-04T09:41:58.155Z</time>
      </trkpt>
      <trkpt lat="45.3079" lon="5.57971">
        <ele>238.393331</ele>
        <time>2022-10-04T09:42:00.160Z</time>
      </trkpt>
      <trkpt lat="45.3078" lon="5.57983">
        <ele>238.783504</ele>
        <time>2022-10-04T09:42:02.145Z</time>
      </trkpt>
      <trkpt lat="45.30771" lon="5.57995">
        <ele>239.161639</ele>
        <time>2022-10-04T09:42:04.165Z</time>
      </trkpt>
      <trkpt lat="45.30763" lon="5.58008">
        <ele>239.535084</ele>
        <time>2022-10-04T09:42:06.162Z</time>
      </trkpt>
      <trkpt lat="45.30756" lon="5.58021">
        <ele>239.884159</ele>
        <time>2022-10-04T09:42:08.150Z</time>
      </trkpt>
      <trkpt lat="45.30752" lon="5.58038">
        <ele>240.269483</ele>
        <time>2022-10-04T09:42:10.157Z</time>
      </trkpt>
      <trkpt lat="45.30749" lon="5.58058">
        <ele>240.701349</ele>
        <time>2022-10-04T09:42:12.161Z</time>
      </trkpt>
      <trkpt lat="45.30742" lon="5.58073">
        <ele>241.102067</ele>
        <time>2022-10-04T09:42:14.154Z</time>
      </trkpt>
      <trkpt lat="45.30732" lon="5.58085">
        <ele>241.513423</ele>
        <time>2022-10-04T09:42:16.148Z</time>
      </trkpt>
      <trkpt lat="45.30721" lon="5.58095">
        <ele>241.712763</ele>
        <time>2022-10-04T09:42:18.149Z</time>
      </trkpt>
      <trkpt lat="45.30711" lon="5.58107">
        <ele>241.075956</ele>
        <time>2022-10-04T09:42:20.154Z</time>
      </trkpt>
      <trkpt lat="45.307" lon="5.58117">
        <ele>240.415717</ele>
        <time>2022-10-04T09:42:22.168Z</time>
      </trkpt>
      <trkpt lat="45.3069" lon="5.58127">
        <ele>239.813934</ele>
        <time>2022-10-04T09:42:24.158Z</time>
      </trkpt>
      <trkpt lat="45.30679" lon="5.58138">
        <ele>239.156106</ele>
        <time>2022-10-04T09:42:26.164Z</time>
      </trkpt>
      <trkpt lat="45.30668" lon="5.58149">
        <ele>238.516277</ele>
        <time>2022-10-04T09:42:28.154Z</time>
      </trkpt>
      <trkpt lat="45.30657" lon="5.5816">
        <ele>237.860433</ele>
        <time>2022-10-04T09:42:30.162Z</time>
      </trkpt>
      <trkpt lat="45.30647" lon="5.58171">
        <ele>237.20862</ele>
        <time>2022-10-04T09:42:32.163Z</time>
      </trkpt>
      <trkpt lat="45.30636" lon="5.58182">
        <ele>236.578773</ele>
        <time>2022-10-04T09:42:34.159Z</time>
      </trkpt>
      <trkpt lat="45.30626" lon="5.58193">
        <ele>235.943</ele>
        <time>2022-10-04T09:42:36.153Z</time>
      </trkpt>
      <trkpt lat="45.30616" lon="5.58204">
        <ele>235.298015</ele>
        <time>2022-10-04T09:42:38.158Z</time>
      </trkpt>
      <trkpt lat="45.30605" lon="5.58215">
        <ele>234.664189</ele>
        <time>2022-10-04T09:42:40.159Z</time>
      </trkpt>
      <trkpt lat="45.30596" lon="5.58224">
        <ele>234.100507</ele>
        <time>2022-10-04T09:42:42.163Z</time>
      </trkpt>
      <trkpt lat="45.30586" lon="5.58236">
        <ele>233.479684</ele>
        <time>2022-10-04T09:42:44.160Z</time>
      </trkpt>
      <trkpt lat="45.30577" lon="5.58246">
        <ele>232.974401</ele>
        <time>2022-10-04T09:42:46.155Z</time>
      </trkpt>
      <trkpt lat="45.30567" lon="5.58256">
        <ele>232.944048</ele>
        <time>2022-10-04T09:42:48.159Z</time>
      </trkpt>
      <trkpt lat="45.30557" lon="5.58267">
        <ele>232.912903</ele>
        <time>2022-10-04T09:42:50.158Z</time>
      </trkpt>
      <trkpt lat="45.30547" lon="5.58278">
        <ele>232.88197</ele>
        <time>2022-10-04T09:42:52.156Z</time>
      </trkpt>
      <trkpt lat="45.30536" lon="5.58289">
        <ele>232.85011</ele>
        <time>2022-10-04T09:42:54.162Z</time>
      </trkpt>
      <trkpt lat="45.30526" lon="5.58301">
        <ele>232.817478</ele>
        <time>2022-10-04T09:42:56.151Z</time>
      </trkpt>
      <trkpt lat="45.30516" lon="5.58311">
        <ele>232.787637</ele>
        <time>2022-10-04T09:42:58.167Z</time>
      </trkpt>
      <trkpt lat="45.30506" lon="5.58322">
        <ele>232.758046</ele>
        <time>2022-10-04T09:43:00.153Z</time>
      </trkpt>
      <trkpt lat="45.30496" lon="5.58333">
        <ele>232.726409</ele>
        <time>2022-10-04T09:43:02.165Z</time>
      </trkpt>
      <trkpt lat="45.30484" lon="5.58342">
        <ele>232.694178</ele>
        <time>2022-10-04T09:43:04.152Z</time>
      </trkpt>
      <trkpt lat="45.30473" lon="5.58351">
        <ele>232.663695</ele>
        <time>2022-10-04T09:43:06.158Z</time>
      </trkpt>
      <trkpt lat="45.30463" lon="5.58363">
        <ele>232.632429</ele>
        <time>2022-10-04T09:43:08.158Z</time>
      </trkpt>
      <trkpt lat="45.3045" lon="5.58375">
        <ele>232.594642</ele>
        <time>2022-10-04T09:43:10.162Z</time>
      </trkpt>
      <trkpt lat="45.3044" lon="5.58384">
        <ele>232.564977</ele>
        <time>2022-10-04T09:43:12.164Z</time>
      </trkpt>
      <trkpt lat="45.3043" lon="5.58396">
        <ele>232.587484</ele>
        <time>2022-10-04T09:43:14.161Z</time>
      </trkpt>
      <trkpt lat="45.3042" lon="5.58405">
        <ele>232.826179</ele>
        <time>2022-10-04T09:43:16.156Z</time>
      </trkpt>
      <trkpt lat="45.30409" lon="5.58415">
        <ele>233.084105</ele>
        <time>2022-10-04T09:43:18.162Z</time>
      </trkpt>
      <trkpt lat="45.30398" lon="5.58425">
        <ele>233.336909</ele>
        <time>2022-10-04T09:43:20.155Z</time>
      </trkpt>
      <trkpt lat="45.30388" lon="5.58438">
        <ele>233.605781</ele>
        <time>2022-10-04T09:43:22.160Z</time>
      </trkpt>
      <trkpt lat="45.30378" lon="5.58447">
        <ele>233.840011</ele>
        <time>2022-10-04T09:43:24.155Z</time>
      </trkpt>
      <trkpt lat="45.30367" lon="5.58459">
        <ele>234.117317</ele>
        <time>2022-10-04T09:43:26.164Z</time>
      </trkpt>
      <trkpt lat="45.30357" lon="5.58468">
        <ele>234.347881</ele>
        <time>2022-10-04T09:43:28.161Z</time>
      </trkpt>
      <trkpt lat="45.30348" lon="5.58478">
        <ele>234.577209</ele>
        <time>2022-10-04T09:43:30.163Z</time>
      </trkpt>
      <trkpt lat="45.30339" lon="5.58487">
        <ele>234.798819</ele>
        <time>2022-10-04T09:43:32.163Z</time>
      </trkpt>
      <trkpt lat="45.3033" lon="5.58496">
        <ele>235.02049</ele>
        <time>2022-10-04T09:43:34.160Z</time>
      </trkpt>
      <trkpt lat="45.3032" lon="5.58507">
        <ele>235.257572</ele>
        <time>2022-10-04T09:43:36.169Z</time>
      </trkpt>
      <trkpt lat="45.30311" lon="5.58516">
        <ele>235.487232</ele>
        <time>2022-10-04T09:43:38.167Z</time>
      </trkpt>
      <trkpt lat="45.30301" lon="5.58526">
        <ele>235.715303</ele>
        <time>2022-10-04T09:43:40.161Z</time>
      </trkpt>
      <trkpt lat="45.30293" lon="5.58532">
        <ele>235.907891</ele>
        <time>2022-10-04T09:43:42.159Z</time>
      </trkpt>
      <trkpt lat="45.30283" lon="5.58541">
        <ele>236.635318</ele>
        <time>2022-10-04T09:43:44.162Z</time>
      </trkpt>
      <trkpt lat="45.30271" lon="5.5855">
        <ele>239.289868</ele>
        <time>2022-10-04T09:43:46.169Z</time>
      </trkpt>
      <trkpt lat="45.30261" lon="5.58559">
        <ele>241.825012</ele>
        <time>2022-10-04T09:43:48.163Z</time>
      </trkpt>
      <trkpt lat="45.30251" lon="5.58566">
        <ele>244.136959</ele>
        <time>2022-10-04T09:43:50.158Z</time>
      </trkpt>
      <trkpt lat="45.3024" lon="5.58573">
        <ele>246.561792</ele>
        <time>2022-10-04T09:43:52.165Z</time>
      </trkpt>
      <trkpt lat="45.30231" lon="5.58577">
        <ele>248.498869</ele>
        <time>2022-10-04T09:43:54.162Z</time>
      </trkpt>
      <trkpt lat="45.3022" lon="5.58583">
        <ele>251.1063</ele>
        <time>2022-10-04T09:43:57.159Z</time>
      </trkpt>
      <trkpt lat="45.30212" lon="5.58592">
        <ele>253.170307</ele>
        <time>2022-10-04T09:44:00.163Z</time>
      </trkpt>
      <trkpt lat="45.30209" lon="5.58606">
        <ele>255.350938</ele>
        <time>2022-10-04T09:44:03.153Z</time>
      </trkpt>
      <trkpt lat="45.30204" lon="5.58623">
        <ele>257.998141</ele>
        <time>2022-10-04T09:44:06.158Z</time>
      </trkpt>
      <trkpt lat="45.30195" lon="5.58636">
        <ele>260.727164</ele>
        <time>2022-10-04T09:44:09.157Z</time>
      </trkpt>
      <trkpt lat="45.30186" lon="5.58639">
        <ele>262.666874</ele>
        <time>2022-10-04T09:44:11.162Z</time>
      </trkpt>
      <trkpt lat="45.30182" lon="5.58652">
        <ele>264.764529</ele>
        <time>2022-10-04T09:44:13.154Z</time>
      </trkpt>
      <trkpt lat="45.3018" lon="5.5867">
        <ele>267.329145</ele>
        <time>2022-10-04T09:44:15.159Z</time>
      </trkpt>
      <trkpt lat="45.30182" lon="5.58686">
        <ele>269.780372</ele>
        <time>2022-10-04T09:44:17.160Z</time>
      </trkpt>
      <trkpt lat="45.30184" lon="5.58704">
        <ele>272.319895</ele>
        <time>2022-10-04T09:44:19.155Z</time>
      </trkpt>
      <trkpt lat="45.30191" lon="5.58718">
        <ele>272.425985</ele>
        <time>2022-10-04T09:44:21.161Z</time>
      </trkpt>
      <trkpt lat="45.30197" lon="5.58727">
        <ele>270.963174</ele>
        <time>2022-10-04T09:44:23.160Z</time>
      </trkpt>
      <trkpt lat="45.30205" lon="5.58742">
        <ele>268.933177</ele>
        <time>2022-10-04T09:44:25.161Z</time>
      </trkpt>
      <trkpt lat="45.30213" lon="5.58764">
        <ele>266.080491</ele>
        <time>2022-10-04T09:44:27.162Z</time>
      </trkpt>
      <trkpt lat="45.30219" lon="5.58782">
        <ele>263.947023</ele>
        <time>2022-10-04T09:44:29.162Z</time>
      </trkpt>
      <trkpt lat="45.30226" lon="5.58795">
        <ele>262.019948</ele>
        <time>2022-10-04T09:44:31.169Z</time>
      </trkpt>
      <trkpt lat="45.30235" lon="5.58812">
        <ele>259.631505</ele>
        <time>2022-10-04T09:44:33.161Z</time>
      </trkpt>
      <trkpt lat="45.30243" lon="5.58827">
        <ele>257.594523</ele>
        <time>2022-10-04T09:44:35.161Z</time>
      </trkpt>
      <trkpt lat="45.3025" lon="5.58843">
        <ele>255.42911</ele>
        <time>2022-10-04T09:44:37.162Z</time>
      </trkpt>
      <trkpt lat="45.30256" lon="5.58858">
        <ele>253.528566</ele>
        <time>2022-10-04T09:44:39.159Z</time>
      </trkpt>
      <trkpt lat="45.30264" lon="5.58873">
        <ele>251.36106</ele>
        <time>2022-10-04T09:44:41.156Z</time>
      </trkpt>
      <trkpt lat="45.30272" lon="5.58888">
        <ele>249.259878</ele>
        <time>2022-10-04T09:44:43.155Z</time>
      </trkpt>
      <trkpt lat="45.3028" lon="5.58904">
        <ele>247.121931</ele>
        <time>2022-10-04T09:44:45.155Z</time>
      </trkpt>
      <trkpt lat="45.30288" lon="5.58917">
        <ele>245.139041</ele>
        <time>2022-10-04T09:44:47.165Z</time>
      </trkpt>
      <trkpt lat="45.30298" lon="5.58933">
        <ele>246.23295</ele>
        <time>2022-10-04T09:44:49.159Z</time>
      </trkpt>
      <trkpt lat="45.30306" lon="5.58947">
        <ele>247.622795</ele>
        <time>2022-10-04T09:44:51.154Z</time>
      </trkpt>
      <trkpt lat="45.30314" lon="5.58965">
        <ele>249.287646</ele>
        <time>2022-10-04T09:44:53.163Z</time>
      </trkpt>
      <trkpt lat="45.30321" lon="5.58981">
        <ele>250.696049</ele>
        <time>2022-10-04T09:44:55.160Z</time>
      </trkpt>
      <trkpt lat="45.30325" lon="5.58993">
        <ele>251.788846</ele>
        <time>2022-10-04T09:44:57.164Z</time>
      </trkpt>
      <trkpt lat="45.30332" lon="5.5901">
        <ele>253.248347</ele>
        <time>2022-10-04T09:44:59.155Z</time>
      </trkpt>
      <trkpt lat="45.30336" lon="5.59029">
        <ele>254.796541</ele>
        <time>2022-10-04T09:45:01.156Z</time>
      </trkpt>
      <trkpt lat="45.30342" lon="5.59045">
        <ele>256.212365</ele>
        <time>2022-10-04T09:45:03.161Z</time>
      </trkpt>
      <trkpt lat="45.30346" lon="5.59061">
        <ele>257.525203</ele>
        <time>2022-10-04T09:45:05.161Z</time>
      </trkpt>
      <trkpt lat="45.30354" lon="5.5908">
        <ele>259.215837</ele>
        <time>2022-10-04T09:45:07.158Z</time>
      </trkpt>
      <trkpt lat="45.3036" lon="5.59096">
        <ele>260.618976</ele>
        <time>2022-10-04T09:45:09.163Z</time>
      </trkpt>
      <trkpt lat="45.30366" lon="5.59113">
        <ele>262.122811</ele>
        <time>2022-10-04T09:45:11.157Z</time>
      </trkpt>
      <trkpt lat="45.30372" lon="5.5913">
        <ele>263.518914</ele>
        <time>2022-10-04T09:45:13.160Z</time>
      </trkpt>
      <trkpt lat="45.30379" lon="5.59144">
        <ele>264.052313</ele>
        <time>2022-10-04T09:45:15.154Z</time>
      </trkpt>
      <trkpt lat="45.30386" lon="5.59162">
        <ele>262.158171</ele>
        <time>2022-10-04T09:45:17.162Z</time>
      </trkpt>
      <trkpt lat="45.30391" lon="5.5918">
        <ele>260.335993</ele>
        <time>2022-10-04T09:45:19.162Z</time>
      </trkpt>
      <trkpt lat="45.30397" lon="5.59199">
        <ele>258.421618</ele>
        <time>2022-10-04T09:45:21.155Z</time>
      </trkpt>
      <trkpt lat="45.30401" lon="5.59215">
        <ele>256.762009</ele>
        <time>2022-10-04T09:45:23.153Z</time>
      </trkpt>
      <trkpt lat="45.30404" lon="5.59234">
        <ele>254.971136</ele>
        <time>2022-10-04T09:45:25.165Z</time>
      </trkpt>
      <trkpt lat="45.30405" lon="5.59251">
        <ele>253.348711</ele>
        <time>2022-10-04T09:45:27.160Z</time>
      </trkpt>
      <trkpt lat="45.30409" lon="5.59266">
        <ele>251.789494</ele>
        <time>2022-10-04T09:45:29.166Z</time>
      </trkpt>
      <trkpt lat="45.30414" lon="5.59285">
        <ele>249.933593</ele>
        <time>2022-10-04T09:45:31.153Z</time>
      </trkpt>
      <trkpt lat="45.30418" lon="5.59303">
        <ele>248.085922</ele>
        <time>2022-10-04T09:45:33.159Z</time>
      </trkpt>
      <trkpt lat="45.30423" lon="5.59319">
        <ele>246.491719</ele>
        <time>2022-10-04T09:45:35.160Z</time>
      </trkpt>
      <trkpt lat="45.30427" lon="5.59336">
        <ele>244.823038</ele>
        <time>2022-10-04T09:45:37.163Z</time>
      </trkpt>
      <trkpt lat="45.30432" lon="5.59354">
        <ele>242.924927</ele>
        <time>2022-10-04T09:45:39.162Z</time>
      </trkpt>
      <trkpt lat="45.30435" lon="5.59374">
        <ele>241.066056</ele>
        <time>2022-10-04T09:45:41.158Z</time>
      </trkpt>
      <trkpt lat="45.30438" lon="5.59391">
        <ele>240.572063</ele>
        <time>2022-10-04T09:45:43.154Z</time>
      </trkpt>
      <trkpt lat="45.30442" lon="5.59408">
        <ele>240.840731</ele>
        <time>2022-10-04T09:45:45.157Z</time>
      </trkpt>
      <trkpt lat="45.30447" lon="5.59426">
        <ele>241.11856</ele>
        <time>2022-10-04T09:45:47.153Z</time>
      </trkpt>
      <trkpt lat="45.30452" lon="5.59443">
        <ele>241.389102</ele>
        <time>2022-10-04T09:45:49.162Z</time>
      </trkpt>
      <trkpt lat="45.30456" lon="5.59462">
        <ele>241.672053</ele>
        <time>2022-10-04T09:45:51.159Z</time>
      </trkpt>
      <trkpt lat="45.3046" lon="5.5948">
        <ele>241.940428</ele>
        <time>2022-10-04T09:45:53.163Z</time>
      </trkpt>
      <trkpt lat="45.30464" lon="5.59498">
        <ele>242.223132</ele>
        <time>2022-10-04T09:45:55.164Z</time>
      </trkpt>
      <trkpt lat="45.30467" lon="5.59517">
        <ele>242.500626</ele>
        <time>2022-10-04T09:45:57.159Z</time>
      </trkpt>
      <trkpt lat="45.3047" lon="5.59534">
        <ele>242.760031</ele>
        <time>2022-10-04T09:45:59.159Z</time>
      </trkpt>
      <trkpt lat="45.30475" lon="5.59552">
        <ele>243.047212</ele>
        <time>2022-10-04T09:46:01.163Z</time>
      </trkpt>
      <trkpt lat="45.30477" lon="5.59571">
        <ele>243.319789</ele>
        <time>2022-10-04T09:46:03.156Z</time>
      </trkpt>
      <trkpt lat="45.30481" lon="5.59589">
        <ele>243.592737</ele>
        <time>2022-10-04T09:46:05.175Z</time>
      </trkpt>
      <trkpt lat="45.30483" lon="5.59607">
        <ele>243.867812</ele>
        <time>2022-10-04T09:46:07.159Z</time>
      </trkpt>
      <trkpt lat="45.30486" lon="5.59625">
        <ele>244.137525</ele>
        <time>2022-10-04T09:46:09.152Z</time>
      </trkpt>
      <trkpt lat="45.3049" lon="5.59644">
        <ele>243.942755</ele>
        <time>2022-10-04T09:46:11.154Z</time>
      </trkpt>
      <trkpt lat="45.30492" lon="5.59663">
        <ele>243.745246</ele>
        <time>2022-10-04T09:46:13.161Z</time>
      </trkpt>
      <trkpt lat="45.30495" lon="5.59681">
        <ele>243.547883</ele>
        <time>2022-10-04T09:46:15.154Z</time>
      </trkpt>
      <trkpt lat="45.30497" lon="5.597">
        <ele>243.35015</ele>
        <time>2022-10-04T09:46:17.161Z</time>
      </trkpt>
      <trkpt lat="45.30498" lon="5.59718">
        <ele>243.1615</ele>
        <time>2022-10-04T09:46:19.156Z</time>
      </trkpt>
      <trkpt lat="45.305" lon="5.59737">
        <ele>242.963768</ele>
        <time>2022-10-04T09:46:21.161Z</time>
      </trkpt>
      <trkpt lat="45.30503" lon="5.59755">
        <ele>242.773876</ele>
        <time>2022-10-04T09:46:23.154Z</time>
      </trkpt>
      <trkpt lat="45.30505" lon="5.59773">
        <ele>242.589627</ele>
        <time>2022-10-04T09:46:25.156Z</time>
      </trkpt>
      <trkpt lat="45.30507" lon="5.59789">
        <ele>242.416856</ele>
        <time>2022-10-04T09:46:27.155Z</time>
      </trkpt>
      <trkpt lat="45.30508" lon="5.59806">
        <ele>242.238241</ele>
        <time>2022-10-04T09:46:29.153Z</time>
      </trkpt>
      <trkpt lat="45.30509" lon="5.59825">
        <ele>242.047412</ele>
        <time>2022-10-04T09:46:31.153Z</time>
      </trkpt>
      <trkpt lat="45.30511" lon="5.59842">
        <ele>241.864853</ele>
        <time>2022-10-04T09:46:33.157Z</time>
      </trkpt>
      <trkpt lat="45.30513" lon="5.59861">
        <ele>241.668367</ele>
        <time>2022-10-04T09:46:35.158Z</time>
      </trkpt>
      <trkpt lat="45.30515" lon="5.59877">
        <ele>241.497061</ele>
        <time>2022-10-04T09:46:37.158Z</time>
      </trkpt>
      <trkpt lat="45.30515" lon="5.59895">
        <ele>241.309073</ele>
        <time>2022-10-04T09:46:39.155Z</time>
      </trkpt>
      <trkpt lat="45.30516" lon="5.59912">
        <ele>241.123955</ele>
        <time>2022-10-04T09:46:41.159Z</time>
      </trkpt>
      <trkpt lat="45.30516" lon="5.59928">
        <ele>240.947814</ele>
        <time>2022-10-04T09:46:43.154Z</time>
      </trkpt>
      <trkpt lat="45.30518" lon="5.59944">
        <ele>240.770198</ele>
        <time>2022-10-04T09:46:45.166Z</time>
      </trkpt>
      <trkpt lat="45.30519" lon="5.59961">
        <ele>240.595425</ele>
        <time>2022-10-04T09:46:47.160Z</time>
      </trkpt>
      <trkpt lat="45.3052" lon="5.59977">
        <ele>240.414825</ele>
        <time>2022-10-04T09:46:49.159Z</time>
      </trkpt>
      <trkpt lat="45.30521" lon="5.59994">
        <ele>240.228075</ele>
        <time>2022-10-04T09:46:51.160Z</time>
      </trkpt>
      <trkpt lat="45.3052" lon="5.60011">
        <ele>240.047318</ele>
        <time>2022-10-04T09:46:53.154Z</time>
      </trkpt>
      <trkpt lat="45.3052" lon="5.60027">
        <ele>239.871096</ele>
        <time>2022-10-04T09:46:55.148Z</time>
      </trkpt>
      <trkpt lat="45.30521" lon="5.60044">
        <ele>239.687258</ele>
        <time>2022-10-04T09:46:57.157Z</time>
      </trkpt>
      <trkpt lat="45.30522" lon="5.60061">
        <ele>239.504015</ele>
        <time>2022-10-04T09:46:59.158Z</time>
      </trkpt>
      <trkpt lat="45.30524" lon="5.60079">
        <ele>239.312696</ele>
        <time>2022-10-04T09:47:01.155Z</time>
      </trkpt>
      <trkpt lat="45.30522" lon="5.60096">
        <ele>239.124579</ele>
        <time>2022-10-04T09:47:03.159Z</time>
      </trkpt>
      <trkpt lat="45.30522" lon="5.60115">
        <ele>238.92032</ele>
        <time>2022-10-04T09:47:05.152Z</time>
      </trkpt>
      <trkpt lat="45.30522" lon="5.60134">
        <ele>238.721864</ele>
        <time>2022-10-04T09:47:07.160Z</time>
      </trkpt>
      <trkpt lat="45.30522" lon="5.6015">
        <ele>238.636524</ele>
        <time>2022-10-04T09:47:09.151Z</time>
      </trkpt>
      <trkpt lat="45.3052" lon="5.60167">
        <ele>238.543614</ele>
        <time>2022-10-04T09:47:11.155Z</time>
      </trkpt>
      <trkpt lat="45.30521" lon="5.60183">
        <ele>238.454466</ele>
        <time>2022-10-04T09:47:13.157Z</time>
      </trkpt>
      <trkpt lat="45.30521" lon="5.60198">
        <ele>238.374014</ele>
        <time>2022-10-04T09:47:15.164Z</time>
      </trkpt>
      <trkpt lat="45.30521" lon="5.60213">
        <ele>238.292842</ele>
        <time>2022-10-04T09:47:17.152Z</time>
      </trkpt>
      <trkpt lat="45.30523" lon="5.60226">
        <ele>238.221398</ele>
        <time>2022-10-04T09:47:19.154Z</time>
      </trkpt>
      <trkpt lat="45.30523" lon="5.60242">
        <ele>238.132712</ele>
        <time>2022-10-04T09:47:21.149Z</time>
      </trkpt>
      <trkpt lat="45.30522" lon="5.6026">
        <ele>238.037816</ele>
        <time>2022-10-04T09:47:23.174Z</time>
      </trkpt>
      <trkpt lat="45.3052" lon="5.60276">
        <ele>237.948132</ele>
        <time>2022-10-04T09:47:25.162Z</time>
      </trkpt>
      <trkpt lat="45.30519" lon="5.60293">
        <ele>237.852958</ele>
        <time>2022-10-04T09:47:27.159Z</time>
      </trkpt>
      <trkpt lat="45.30518" lon="5.60312">
        <ele>237.751101</ele>
        <time>2022-10-04T09:47:29.163Z</time>
      </trkpt>
      <trkpt lat="45.30517" lon="5.60329">
        <ele>237.656985</ele>
        <time>2022-10-04T09:47:31.166Z</time>
      </trkpt>
      <trkpt lat="45.30516" lon="5.60346">
        <ele>237.562631</ele>
        <time>2022-10-04T09:47:33.160Z</time>
      </trkpt>
      <trkpt lat="45.30515" lon="5.60363">
        <ele>237.47317</ele>
        <time>2022-10-04T09:47:35.156Z</time>
      </trkpt>
      <trkpt lat="45.30513" lon="5.60382">
        <ele>237.36993</ele>
        <time>2022-10-04T09:47:37.160Z</time>
      </trkpt>
      <trkpt lat="45.30512" lon="5.604">
        <ele>237.347616</ele>
        <time>2022-10-04T09:47:39.160Z</time>
      </trkpt>
      <trkpt lat="45.30511" lon="5.6042">
        <ele>237.354673</ele>
        <time>2022-10-04T09:47:41.155Z</time>
      </trkpt>
      <trkpt lat="45.30509" lon="5.60438">
        <ele>237.360976</ele>
        <time>2022-10-04T09:47:43.152Z</time>
      </trkpt>
      <trkpt lat="45.30507" lon="5.60458">
        <ele>237.367736</ele>
        <time>2022-10-04T09:47:45.166Z</time>
      </trkpt>
      <trkpt lat="45.30504" lon="5.60477">
        <ele>237.374512</ele>
        <time>2022-10-04T09:47:47.158Z</time>
      </trkpt>
      <trkpt lat="45.30501" lon="5.60495">
        <ele>237.380813</ele>
        <time>2022-10-04T09:47:49.162Z</time>
      </trkpt>
      <trkpt lat="45.30498" lon="5.60513">
        <ele>237.387102</ele>
        <time>2022-10-04T09:47:51.164Z</time>
      </trkpt>
      <trkpt lat="45.30495" lon="5.60531">
        <ele>237.393502</ele>
        <time>2022-10-04T09:47:53.161Z</time>
      </trkpt>
      <trkpt lat="45.30492" lon="5.60548">
        <ele>237.399748</ele>
        <time>2022-10-04T09:47:55.155Z</time>
      </trkpt>
      <trkpt lat="45.30488" lon="5.60567">
        <ele>237.406271</ele>
        <time>2022-10-04T09:47:57.161Z</time>
      </trkpt>
      <trkpt lat="45.30484" lon="5.60583">
        <ele>237.412171</ele>
        <time>2022-10-04T09:47:59.156Z</time>
      </trkpt>
      <trkpt lat="45.3048" lon="5.60599">
        <ele>237.418269</ele>
        <time>2022-10-04T09:48:01.149Z</time>
      </trkpt>
      <trkpt lat="45.30475" lon="5.60616">
        <ele>237.424272</ele>
        <time>2022-10-04T09:48:03.160Z</time>
      </trkpt>
      <trkpt lat="45.30471" lon="5.60631">
        <ele>237.429979</ele>
        <time>2022-10-04T09:48:05.154Z</time>
      </trkpt>
      <trkpt lat="45.30467" lon="5.60646">
        <ele>237.343046</ele>
        <time>2022-10-04T09:48:07.154Z</time>
      </trkpt>
      <trkpt lat="45.30466" lon="5.60663">
        <ele>237.231568</ele>
        <time>2022-10-04T09:48:09.150Z</time>
      </trkpt>
      <trkpt lat="45.30467" lon="5.60681">
        <ele>237.112611</ele>
        <time>2022-10-04T09:48:11.154Z</time>
      </trkpt>
      <trkpt lat="45.30467" lon="5.60698">
        <ele>236.996509</ele>
        <time>2022-10-04T09:48:13.159Z</time>
      </trkpt>
      <trkpt lat="45.30467" lon="5.60718">
        <ele>236.869834</ele>
        <time>2022-10-04T09:48:15.161Z</time>
      </trkpt>
      <trkpt lat="45.30471" lon="5.60736">
        <ele>236.744507</ele>
        <time>2022-10-04T09:48:17.155Z</time>
      </trkpt>
      <trkpt lat="45.30473" lon="5.60754">
        <ele>236.619551</ele>
        <time>2022-10-04T09:48:19.155Z</time>
      </trkpt>
      <trkpt lat="45.30471" lon="5.60772">
        <ele>236.499185</ele>
        <time>2022-10-04T09:48:21.162Z</time>
      </trkpt>
      <trkpt lat="45.30466" lon="5.60789">
        <ele>236.375302</ele>
        <time>2022-10-04T09:48:23.150Z</time>
      </trkpt>
      <trkpt lat="45.30457" lon="5.60804">
        <ele>236.245273</ele>
        <time>2022-10-04T09:48:25.159Z</time>
      </trkpt>
      <trkpt lat="45.30448" lon="5.6082">
        <ele>236.116774</ele>
        <time>2022-10-04T09:48:27.151Z</time>
      </trkpt>
      <trkpt lat="45.3044" lon="5.60834">
        <ele>235.991382</ele>
        <time>2022-10-04T09:48:29.161Z</time>
      </trkpt>
      <trkpt lat="45.30431" lon="5.60849">
        <ele>235.865302</ele>
        <time>2022-10-04T09:48:31.167Z</time>
      </trkpt>
      <trkpt lat="45.30423" lon="5.60865">
        <ele>235.73436</ele>
        <time>2022-10-04T09:48:33.157Z</time>
      </trkpt>
      <trkpt lat="45.30415" lon="5.60881">
        <ele>235.656986</ele>
        <time>2022-10-04T09:48:35.163Z</time>
      </trkpt>
      <trkpt lat="45.30408" lon="5.60896">
        <ele>235.583414</ele>
        <time>2022-10-04T09:48:37.162Z</time>
      </trkpt>
      <trkpt lat="45.30402" lon="5.60912">
        <ele>235.507823</ele>
        <time>2022-10-04T09:48:39.161Z</time>
      </trkpt>
      <trkpt lat="45.30396" lon="5.60926">
        <ele>235.444259</ele>
        <time>2022-10-04T09:48:41.152Z</time>
      </trkpt>
      <trkpt lat="45.3039" lon="5.60943">
        <ele>235.370012</ele>
        <time>2022-10-04T09:48:43.162Z</time>
      </trkpt>
      <trkpt lat="45.30385" lon="5.60959">
        <ele>235.296395</ele>
        <time>2022-10-04T09:48:45.162Z</time>
      </trkpt>
      <trkpt lat="45.30379" lon="5.60975">
        <ele>235.224743</ele>
        <time>2022-10-04T09:48:47.159Z</time>
      </trkpt>
      <trkpt lat="45.30373" lon="5.60992">
        <ele>235.149053</ele>
        <time>2022-10-04T09:48:49.153Z</time>
      </trkpt>
      <trkpt lat="45.30368" lon="5.61008">
        <ele>235.07494</ele>
        <time>2022-10-04T09:48:51.148Z</time>
      </trkpt>
      <trkpt lat="45.30361" lon="5.61024">
        <ele>235.000973</ele>
        <time>2022-10-04T09:48:53.161Z</time>
      </trkpt>
      <trkpt lat="45.30354" lon="5.6104">
        <ele>234.928681</ele>
        <time>2022-10-04T09:48:55.163Z</time>
      </trkpt>
      <trkpt lat="45.30348" lon="5.61058">
        <ele>234.847394</ele>
        <time>2022-10-04T09:48:57.154Z</time>
      </trkpt>
      <trkpt lat="45.30341" lon="5.61076">
        <ele>234.76488</ele>
        <time>2022-10-04T09:48:59.155Z</time>
      </trkpt>
      <trkpt lat="45.30334" lon="5.61092">
        <ele>234.638669</ele>
        <time>2022-10-04T09:49:01.166Z</time>
      </trkpt>
      <trkpt lat="45.30327" lon="5.61106">
        <ele>234.397951</ele>
        <time>2022-10-04T09:49:03.164Z</time>
      </trkpt>
      <trkpt lat="45.3032" lon="5.61123">
        <ele>234.142005</ele>
        <time>2022-10-04T09:49:05.158Z</time>
      </trkpt>
      <trkpt lat="45.30314" lon="5.61135">
        <ele>233.931259</ele>
        <time>2022-10-04T09:49:07.165Z</time>
      </trkpt>
      <trkpt lat="45.30309" lon="5.61148">
        <ele>233.73064</ele>
        <time>2022-10-04T09:49:09.157Z</time>
      </trkpt>
      <trkpt lat="45.30303" lon="5.61165">
        <ele>233.478601</ele>
        <time>2022-10-04T09:49:11.159Z</time>
      </trkpt>
      <trkpt lat="45.30297" lon="5.6118">
        <ele>233.239596</ele>
        <time>2022-10-04T09:49:13.155Z</time>
      </trkpt>
      <trkpt lat="45.30289" lon="5.61196">
        <ele>232.971201</ele>
        <time>2022-10-04T09:49:15.157Z</time>
      </trkpt>
      <trkpt lat="45.3028" lon="5.61213">
        <ele>232.691634</ele>
        <time>2022-10-04T09:49:17.145Z</time>
      </trkpt>
      <trkpt lat="45.30274" lon="5.61226">
        <ele>232.485294</ele>
        <time>2022-10-04T09:49:19.156Z</time>
      </trkpt>
      <trkpt lat="45.30265" lon="5.61241">
        <ele>232.211919</ele>
        <time>2022-10-04T09:49:21.163Z</time>
      </trkpt>
      <trkpt lat="45.30255" lon="5.61258">
        <ele>231.917691</ele>
        <time>2022-10-04T09:49:23.161Z</time>
      </trkpt>
      <trkpt lat="45.30247" lon="5.61273">
        <ele>231.652579</ele>
        <time>2022-10-04T09:49:25.162Z</time>
      </trkpt>
      <trkpt lat="45.30242" lon="5.61287">
        <ele>231.439418</ele>
        <time>2022-10-04T09:49:27.160Z</time>
      </trkpt>
      <trkpt lat="45.30233" lon="5.61303">
        <ele>231.28512</ele>
        <time>2022-10-04T09:49:29.156Z</time>
      </trkpt>
      <trkpt lat="45.30225" lon="5.61317">
        <ele>231.43885</ele>
        <time>2022-10-04T09:49:31.161Z</time>
      </trkpt>
      <trkpt lat="45.30217" lon="5.6133">
        <ele>231.576284</ele>
        <time>2022-10-04T09:49:33.166Z</time>
      </trkpt>
      <trkpt lat="45.3021" lon="5.61348">
        <ele>231.741257</ele>
        <time>2022-10-04T09:49:35.153Z</time>
      </trkpt>
      <trkpt lat="45.30203" lon="5.61365">
        <ele>231.907669</ele>
        <time>2022-10-04T09:49:37.175Z</time>
      </trkpt>
      <trkpt lat="45.30196" lon="5.61382">
        <ele>232.067646</ele>
        <time>2022-10-04T09:49:39.156Z</time>
      </trkpt>
      <trkpt lat="45.30188" lon="5.61396">
        <ele>232.218628</ele>
        <time>2022-10-04T09:49:41.157Z</time>
      </trkpt>
      <trkpt lat="45.3018" lon="5.61411">
        <ele>232.370006</ele>
        <time>2022-10-04T09:49:43.162Z</time>
      </trkpt>
      <trkpt lat="45.30173" lon="5.61423">
        <ele>232.503411</ele>
        <time>2022-10-04T09:49:45.164Z</time>
      </trkpt>
      <trkpt lat="45.30165" lon="5.61437">
        <ele>232.645308</ele>
        <time>2022-10-04T09:49:47.165Z</time>
      </trkpt>
      <trkpt lat="45.30158" lon="5.61451">
        <ele>232.795368</ele>
        <time>2022-10-04T09:49:49.165Z</time>
      </trkpt>
      <trkpt lat="45.3015" lon="5.61466">
        <ele>232.946191</ele>
        <time>2022-10-04T09:49:51.157Z</time>
      </trkpt>
      <trkpt lat="45.30142" lon="5.61482">
        <ele>233.104934</ele>
        <time>2022-10-04T09:49:53.155Z</time>
      </trkpt>
      <trkpt lat="45.30134" lon="5.61496">
        <ele>233.258572</ele>
        <time>2022-10-04T09:49:55.163Z</time>
      </trkpt>
      <trkpt lat="45.30126" lon="5.6151">
        <ele>233.438686</ele>
        <time>2022-10-04T09:49:57.161Z</time>
      </trkpt>
      <trkpt lat="45.30118" lon="5.61526">
        <ele>233.678588</ele>
        <time>2022-10-04T09:49:59.153Z</time>
      </trkpt>
      <trkpt lat="45.3011" lon="5.61541">
        <ele>233.915684</ele>
        <time>2022-10-04T09:50:01.164Z</time>
      </trkpt>
      <trkpt lat="45.30102" lon="5.61557">
        <ele>234.15253</ele>
        <time>2022-10-04T09:50:03.146Z</time>
      </trkpt>
      <trkpt lat="45.30093" lon="5.61573">
        <ele>234.394522</ele>
        <time>2022-10-04T09:50:05.159Z</time>
      </trkpt>
      <trkpt lat="45.30085" lon="5.61587">
        <ele>234.624866</ele>
        <time>2022-10-04T09:50:07.172Z</time>
      </trkpt>
      <trkpt lat="45.30078" lon="5.61601">
        <ele>234.837527</ele>
        <time>2022-10-04T09:50:09.155Z</time>
      </trkpt>
      <trkpt lat="45.30069" lon="5.61616">
        <ele>235.080093</ele>
        <time>2022-10-04T09:50:11.152Z</time>
      </trkpt>
      <trkpt lat="45.30061" lon="5.61631">
        <ele>235.312122</ele>
        <time>2022-10-04T09:50:13.162Z</time>
      </trkpt>
      <trkpt lat="45.30054" lon="5.61644">
        <ele>235.517388</ele>
        <time>2022-10-04T09:50:15.160Z</time>
      </trkpt>
      <trkpt lat="45.30045" lon="5.61657">
        <ele>235.729536</ele>
        <time>2022-10-04T09:50:17.160Z</time>
      </trkpt>
      <trkpt lat="45.30036" lon="5.6167">
        <ele>235.957627</ele>
        <time>2022-10-04T09:50:19.170Z</time>
      </trkpt>
      <trkpt lat="45.30028" lon="5.61683">
        <ele>236.171939</ele>
        <time>2022-10-04T09:50:21.153Z</time>
      </trkpt>
      <trkpt lat="45.30022" lon="5.61699">
        <ele>236.387777</ele>
        <time>2022-10-04T09:50:23.163Z</time>
      </trkpt>
      <trkpt lat="45.30014" lon="5.61715">
        <ele>236.463463</ele>
        <time>2022-10-04T09:50:25.156Z</time>
      </trkpt>
      <trkpt lat="45.30006" lon="5.61728">
        <ele>236.416868</ele>
        <time>2022-10-04T09:50:27.156Z</time>
      </trkpt>
      <trkpt lat="45.29998" lon="5.61744">
        <ele>236.364853</ele>
        <time>2022-10-04T09:50:29.165Z</time>
      </trkpt>
      <trkpt lat="45.2999" lon="5.61759">
        <ele>236.314152</ele>
        <time>2022-10-04T09:50:31.161Z</time>
      </trkpt>
      <trkpt lat="45.29982" lon="5.61776">
        <ele>236.259037</ele>
        <time>2022-10-04T09:50:33.161Z</time>
      </trkpt>
      <trkpt lat="45.29975" lon="5.61793">
        <ele>236.206553</ele>
        <time>2022-10-04T09:50:35.157Z</time>
      </trkpt>
      <trkpt lat="45.29967" lon="5.61808">
        <ele>236.154915</ele>
        <time>2022-10-04T09:50:37.163Z</time>
      </trkpt>
      <trkpt lat="45.29959" lon="5.61821">
        <ele>236.108419</ele>
        <time>2022-10-04T09:50:39.157Z</time>
      </trkpt>
      <trkpt lat="45.29951" lon="5.61835">
        <ele>236.060083</ele>
        <time>2022-10-04T09:50:41.164Z</time>
      </trkpt>
      <trkpt lat="45.29944" lon="5.6185">
        <ele>236.011372</ele>
        <time>2022-10-04T09:50:43.166Z</time>
      </trkpt>
      <trkpt lat="45.29937" lon="5.61865">
        <ele>235.963239</ele>
        <time>2022-10-04T09:50:45.164Z</time>
      </trkpt>
      <trkpt lat="45.2993" lon="5.6188">
        <ele>235.913649</ele>
        <time>2022-10-04T09:50:47.153Z</time>
      </trkpt>
      <trkpt lat="45.29924" lon="5.61896">
        <ele>235.864553</ele>
        <time>2022-10-04T09:50:49.175Z</time>
      </trkpt>
      <trkpt lat="45.29917" lon="5.61912">
        <ele>235.816781</ele>
        <time>2022-10-04T09:50:51.165Z</time>
      </trkpt>
      <trkpt lat="45.29913" lon="5.61928">
        <ele>235.965402</ele>
        <time>2022-10-04T09:50:53.160Z</time>
      </trkpt>
      <trkpt lat="45.29913" lon="5.61945">
        <ele>236.154836</ele>
        <time>2022-10-04T09:50:55.162Z</time>
      </trkpt>
      <trkpt lat="45.29916" lon="5.61963">
        <ele>236.373252</ele>
        <time>2022-10-04T09:50:57.150Z</time>
      </trkpt>
      <trkpt lat="45.29919" lon="5.6198">
        <ele>236.582404</ele>
        <time>2022-10-04T09:50:59.173Z</time>
      </trkpt>
      <trkpt lat="45.29925" lon="5.61997">
        <ele>236.789351</ele>
        <time>2022-10-04T09:51:01.163Z</time>
      </trkpt>
      <trkpt lat="45.29927" lon="5.62014">
        <ele>236.994288</ele>
        <time>2022-10-04T09:51:03.163Z</time>
      </trkpt>
      <trkpt lat="45.29931" lon="5.6203">
        <ele>237.186497</ele>
        <time>2022-10-04T09:51:05.152Z</time>
      </trkpt>
      <trkpt lat="45.29934" lon="5.62046">
        <ele>237.376761</ele>
        <time>2022-10-04T09:51:07.158Z</time>
      </trkpt>
      <trkpt lat="45.29939" lon="5.62063">
        <ele>237.587157</ele>
        <time>2022-10-04T09:51:09.154Z</time>
      </trkpt>
      <trkpt lat="45.29946" lon="5.62077">
        <ele>237.790173</ele>
        <time>2022-10-04T09:51:11.153Z</time>
      </trkpt>
      <trkpt lat="45.29954" lon="5.62088">
        <ele>237.979964</ele>
        <time>2022-10-04T09:51:13.155Z</time>
      </trkpt>
      <trkpt lat="45.29963" lon="5.62102">
        <ele>238.193031</ele>
        <time>2022-10-04T09:51:15.159Z</time>
      </trkpt>
      <trkpt lat="45.29973" lon="5.62113">
        <ele>238.399388</ele>
        <time>2022-10-04T09:51:17.163Z</time>
      </trkpt>
      <trkpt lat="45.29984" lon="5.62117">
        <ele>238.59795</ele>
        <time>2022-10-04T09:51:19.174Z</time>
      </trkpt>
      <trkpt lat="45.29998" lon="5.62116">
        <ele>238.792599</ele>
        <time>2022-10-04T09:51:21.155Z</time>
      </trkpt>
      <trkpt lat="45.30009" lon="5.62114">
        <ele>238.903395</ele>
        <time>2022-10-04T09:51:23.158Z</time>
      </trkpt>
      <trkpt lat="45.30022" lon="5.62111">
        <ele>239.02215</ele>
        <time>2022-10-04T09:51:25.162Z</time>
      </trkpt>
      <trkpt lat="45.30033" lon="5.62109">
        <ele>239.124153</ele>
        <time>2022-10-04T09:51:27.154Z</time>
      </trkpt>
      <trkpt lat="45.30045" lon="5.62107">
        <ele>239.241035</ele>
        <time>2022-10-04T09:51:29.158Z</time>
      </trkpt>
      <trkpt lat="45.30059" lon="5.62107">
        <ele>239.375016</ele>
        <time>2022-10-04T09:51:31.166Z</time>
      </trkpt>
      <trkpt lat="45.3007" lon="5.62115">
        <ele>239.486484</ele>
        <time>2022-10-04T09:51:33.153Z</time>
      </trkpt>
      <trkpt lat="45.30079" lon="5.62123">
        <ele>239.591471</ele>
        <time>2022-10-04T09:51:35.157Z</time>
      </trkpt>
      <trkpt lat="45.30089" lon="5.62125">
        <ele>239.688312</ele>
        <time>2022-10-04T09:51:37.164Z</time>
      </trkpt>
      <trkpt lat="45.30103" lon="5.62125">
        <ele>239.818595</ele>
        <time>2022-10-04T09:51:39.155Z</time>
      </trkpt>
      <trkpt lat="45.30117" lon="5.62126">
        <ele>239.950167</ele>
        <time>2022-10-04T09:51:41.152Z</time>
      </trkpt>
      <trkpt lat="45.30129" lon="5.62125">
        <ele>240.059774</ele>
        <time>2022-10-04T09:51:43.164Z</time>
      </trkpt>
      <trkpt lat="45.30141" lon="5.62126">
        <ele>240.181499</ele>
        <time>2022-10-04T09:51:45.163Z</time>
      </trkpt>
      <trkpt lat="45.30154" lon="5.62127">
        <ele>240.300644</ele>
        <time>2022-10-04T09:51:47.150Z</time>
      </trkpt>
      <trkpt lat="45.30166" lon="5.62127">
        <ele>240.416694</ele>
        <time>2022-10-04T09:51:49.166Z</time>
      </trkpt>
      <trkpt lat="45.30179" lon="5.62127">
        <ele>240.52629</ele>
        <time>2022-10-04T09:51:51.160Z</time>
      </trkpt>
      <trkpt lat="45.30191" lon="5.62125">
        <ele>240.621256</ele>
        <time>2022-10-04T09:51:53.163Z</time>
      </trkpt>
      <trkpt lat="45.30201" lon="5.62125">
        <ele>240.701846</ele>
        <time>2022-10-04T09:51:55.158Z</time>
      </trkpt>
      <trkpt lat="45.30212" lon="5.62123">
        <ele>240.790026</ele>
        <time>2022-10-04T09:51:57.161Z</time>
      </trkpt>
      <trkpt lat="45.30223" lon="5.62117">
        <ele>240.886861</ele>
        <time>2022-10-04T09:51:59.152Z</time>
      </trkpt>
      <trkpt lat="45.30234" lon="5.62114">
        <ele>240.979397</ele>
        <time>2022-10-04T09:52:01.154Z</time>
      </trkpt>
      <trkpt lat="45.30244" lon="5.62113">
        <ele>241.055563</ele>
        <time>2022-10-04T09:52:03.163Z</time>
      </trkpt>
      <trkpt lat="45.30255" lon="5.62112">
        <ele>241.142017</ele>
        <time>2022-10-04T09:52:05.159Z</time>
      </trkpt>
      <trkpt lat="45.30267" lon="5.6211">
        <ele>241.24637</ele>
        <time>2022-10-04T09:52:07.164Z</time>
      </trkpt>
      <trkpt lat="45.30279" lon="5.62107">
        <ele>241.344416</ele>
        <time>2022-10-04T09:52:09.159Z</time>
      </trkpt>
      <trkpt lat="45.30291" lon="5.62105">
        <ele>241.436983</ele>
        <time>2022-10-04T09:52:11.148Z</time>
      </trkpt>
      <trkpt lat="45.30303" lon="5.62101">
        <ele>241.536182</ele>
        <time>2022-10-04T09:52:13.172Z</time>
      </trkpt>
      <trkpt lat="45.30314" lon="5.62098">
        <ele>241.624273</ele>
        <time>2022-10-04T09:52:15.152Z</time>
      </trkpt>
      <trkpt lat="45.30325" lon="5.62094">
        <ele>241.719177</ele>
        <time>2022-10-04T09:52:17.154Z</time>
      </trkpt>
      <trkpt lat="45.30338" lon="5.62091">
        <ele>241.821951</ele>
        <time>2022-10-04T09:52:19.166Z</time>
      </trkpt>
      <trkpt lat="45.3035" lon="5.62089">
        <ele>241.896571</ele>
        <time>2022-10-04T09:52:21.156Z</time>
      </trkpt>
      <trkpt lat="45.30361" lon="5.62085">
        <ele>241.864534</ele>
        <time>2022-10-04T09:52:23.155Z</time>
      </trkpt>
      <trkpt lat="45.30373" lon="5.6208">
        <ele>241.82886</ele>
        <time>2022-10-04T09:52:25.164Z</time>
      </trkpt>
      <trkpt lat="45.30385" lon="5.62076">
        <ele>241.793869</ele>
        <time>2022-10-04T09:52:27.154Z</time>
      </trkpt>
      <trkpt lat="45.30396" lon="5.62073">
        <ele>241.760199</ele>
        <time>2022-10-04T09:52:29.161Z</time>
      </trkpt>
      <trkpt lat="45.30409" lon="5.62068">
        <ele>241.723971</ele>
        <time>2022-10-04T09:52:31.166Z</time>
      </trkpt>
      <trkpt lat="45.3042" lon="5.62064">
        <ele>241.689544</ele>
        <time>2022-10-04T09:52:33.165Z</time>
      </trkpt>
      <trkpt lat="45.30432" lon="5.6206">
        <ele>241.654203</ele>
        <time>2022-10-04T09:52:35.154Z</time>
      </trkpt>
      <trkpt lat="45.30444" lon="5.62056">
        <ele>241.618564</ele>
        <time>2022-10-04T09:52:37.169Z</time>
      </trkpt>
      <trkpt lat="45.30455" lon="5.62052">
        <ele>241.587645</ele>
        <time>2022-10-04T09:52:39.163Z</time>
      </trkpt>
      <trkpt lat="45.30465" lon="5.62048">
        <ele>241.555018</ele>
        <time>2022-10-04T09:52:41.160Z</time>
      </trkpt>
      <trkpt lat="45.30478" lon="5.62043">
        <ele>241.517959</ele>
        <time>2022-10-04T09:52:43.166Z</time>
      </trkpt>
      <trkpt lat="45.3049" lon="5.62038">
        <ele>241.482171</ele>
        <time>2022-10-04T09:52:45.156Z</time>
      </trkpt>
      <trkpt lat="45.30502" lon="5.62033">
        <ele>241.446026</ele>
        <time>2022-10-04T09:52:47.163Z</time>
      </trkpt>
      <trkpt lat="45.30513" lon="5.6203">
        <ele>241.412809</ele>
        <time>2022-10-04T09:52:49.168Z</time>
      </trkpt>
      <trkpt lat="45.30523" lon="5.62019">
        <ele>241.436775</ele>
        <time>2022-10-04T09:52:51.151Z</time>
      </trkpt>
      <trkpt lat="45.30525" lon="5.62001">
        <ele>241.638892</ele>
        <time>2022-10-04T09:52:53.151Z</time>
      </trkpt>
      <trkpt lat="45.30521" lon="5.61986">
        <ele>241.815808</ele>
        <time>2022-10-04T09:52:55.147Z</time>
      </trkpt>
      <trkpt lat="45.30516" lon="5.61971">
        <ele>241.996324</ele>
        <time>2022-10-04T09:52:57.158Z</time>
      </trkpt>
      <trkpt lat="45.30511" lon="5.61954">
        <ele>242.192493</ele>
        <time>2022-10-04T09:52:59.151Z</time>
      </trkpt>
      <trkpt lat="45.30506" lon="5.61939">
        <ele>242.383024</ele>
        <time>2022-10-04T09:53:01.160Z</time>
      </trkpt>
      <trkpt lat="45.305" lon="5.61922">
        <ele>242.58911</ele>
        <time>2022-10-04T09:53:03.152Z</time>
      </trkpt>
      <trkpt lat="45.30493" lon="5.61907">
        <ele>242.792133</ele>
        <time>2022-10-04T09:53:05.156Z</time>
      </trkpt>
      <trkpt lat="45.30485" lon="5.61891">
        <ele>243.009656</ele>
        <time>2022-10-04T09:53:07.162Z</time>
      </trkpt>
      <trkpt lat="45.30476" lon="5.61877">
        <ele>243.207898</ele>
        <time>2022-10-04T09:53:09.156Z</time>
      </trkpt>
      <trkpt lat="45.30469" lon="5.61866">
        <ele>243.373934</ele>
        <time>2022-10-04T09:53:11.161Z</time>
      </trkpt>
      <trkpt lat="45.30463" lon="5.61857">
        <ele>243.517475</ele>
        <time>2022-10-04T09:53:13.163Z</time>
      </trkpt>
      <trkpt lat="45.30457" lon="5.61844">
        <ele>243.682944</ele>
        <time>2022-10-04T09:53:16.159Z</time>
      </trkpt>
      <trkpt lat="45.30467" lon="5.61848">
        <ele>243.840162</ele>
        <time>2022-10-04T09:53:23.150Z</time>
      </trkpt>
      <trkpt lat="45.30476" lon="5.6186">
        <ele>244.024956</ele>
        <time>2022-10-04T09:53:27.160Z</time>
      </trkpt>
      <trkpt lat="45.30483" lon="5.61868">
        <ele>244.172446</ele>
        <time>2022-10-04T09:53:30.160Z</time>
      </trkpt>
      <trkpt lat="45.30491" lon="5.61879">
        <ele>244.385781</ele>
        <time>2022-10-04T09:53:33.148Z</time>
      </trkpt>
      <trkpt lat="45.30499" lon="5.6189">
        <ele>244.599828</ele>
        <time>2022-10-04T09:53:36.163Z</time>
      </trkpt>
      <trkpt lat="45.30505" lon="5.619">
        <ele>244.791287</ele>
        <time>2022-10-04T09:53:39.161Z</time>
      </trkpt>
      <trkpt lat="45.30512" lon="5.61911">
        <ele>244.988506</ele>
        <time>2022-10-04T09:53:42.162Z</time>
      </trkpt>
      <trkpt lat="45.30519" lon="5.61923">
        <ele>245.207245</ele>
        <time>2022-10-04T09:53:45.154Z</time>
      </trkpt>
      <trkpt lat="45.30523" lon="5.61935">
        <ele>245.401023</ele>
        <time>2022-10-04T09:53:48.163Z</time>
      </trkpt>
      <trkpt lat="45.30529" lon="5.61948">
        <ele>245.611624</ele>
        <time>2022-10-04T09:53:51.160Z</time>
      </trkpt>
      <trkpt lat="45.30535" lon="5.61959">
        <ele>245.806729</ele>
        <time>2022-10-04T09:53:54.147Z</time>
      </trkpt>
      <trkpt lat="45.30539" lon="5.61973">
        <ele>246.018098</ele>
        <time>2022-10-04T09:53:57.160Z</time>
      </trkpt>
      <trkpt lat="45.30544" lon="5.61988">
        <ele>246.24501</ele>
        <time>2022-10-04T09:54:00.152Z</time>
      </trkpt>
      <trkpt lat="45.30549" lon="5.62004">
        <ele>246.485376</ele>
        <time>2022-10-04T09:54:03.163Z</time>
      </trkpt>
      <trkpt lat="45.30554" lon="5.62021">
        <ele>246.755294</ele>
        <time>2022-10-04T09:54:06.153Z</time>
      </trkpt>
      <trkpt lat="45.30558" lon="5.62039">
        <ele>247.011235</ele>
        <time>2022-10-04T09:54:09.150Z</time>
      </trkpt>
      <trkpt lat="45.30562" lon="5.62055">
        <ele>247.248218</ele>
        <time>2022-10-04T09:54:12.160Z</time>
      </trkpt>
      <trkpt lat="45.30565" lon="5.62072">
        <ele>247.499946</ele>
        <time>2022-10-04T09:54:15.164Z</time>
      </trkpt>
      <trkpt lat="45.30567" lon="5.62086">
        <ele>247.690083</ele>
        <time>2022-10-04T09:54:17.162Z</time>
      </trkpt>
      <trkpt lat="45.30571" lon="5.62098">
        <ele>247.632935</ele>
        <time>2022-10-04T09:54:19.157Z</time>
      </trkpt>
      <trkpt lat="45.30574" lon="5.62114">
        <ele>247.344463</ele>
        <time>2022-10-04T09:54:21.161Z</time>
      </trkpt>
      <trkpt lat="45.30577" lon="5.6213">
        <ele>247.037034</ele>
        <time>2022-10-04T09:54:23.166Z</time>
      </trkpt>
      <trkpt lat="45.30578" lon="5.62148">
        <ele>246.713474</ele>
        <time>2022-10-04T09:54:25.159Z</time>
      </trkpt>
      <trkpt lat="45.30578" lon="5.62168">
        <ele>246.353446</ele>
        <time>2022-10-04T09:54:27.151Z</time>
      </trkpt>
      <trkpt lat="45.30578" lon="5.62191">
        <ele>245.929316</ele>
        <time>2022-10-04T09:54:29.160Z</time>
      </trkpt>
      <trkpt lat="45.30577" lon="5.62205">
        <ele>245.678081</ele>
        <time>2022-10-04T09:54:30.156Z</time>
      </trkpt>
      <trkpt lat="45.30576" lon="5.62228">
        <ele>245.252001</ele>
        <time>2022-10-04T09:54:32.151Z</time>
      </trkpt>
      <trkpt lat="45.3057" lon="5.62249">
        <ele>244.844214</ele>
        <time>2022-10-04T09:54:34.153Z</time>
      </trkpt>
      <trkpt lat="45.30564" lon="5.62269">
        <ele>244.446831</ele>
        <time>2022-10-04T09:54:36.149Z</time>
      </trkpt>
      <trkpt lat="45.30557" lon="5.62286">
        <ele>244.085689</ele>
        <time>2022-10-04T09:54:38.159Z</time>
      </trkpt>
      <trkpt lat="45.3055" lon="5.62299">
        <ele>243.780203</ele>
        <time>2022-10-04T09:54:40.160Z</time>
      </trkpt>
      <trkpt lat="45.30541" lon="5.62311">
        <ele>243.475588</ele>
        <time>2022-10-04T09:54:42.162Z</time>
      </trkpt>
      <trkpt lat="45.30534" lon="5.6232">
        <ele>243.227295</ele>
        <time>2022-10-04T09:54:44.162Z</time>
      </trkpt>
      <trkpt lat="45.30526" lon="5.6233">
        <ele>243.107492</ele>
        <time>2022-10-04T09:54:46.163Z</time>
      </trkpt>
      <trkpt lat="45.30518" lon="5.6234">
        <ele>243.081878</ele>
        <time>2022-10-04T09:54:48.162Z</time>
      </trkpt>
      <trkpt lat="45.30511" lon="5.62351">
        <ele>243.054567</ele>
        <time>2022-10-04T09:54:50.158Z</time>
      </trkpt>
      <trkpt lat="45.30503" lon="5.62364">
        <ele>243.022816</ele>
        <time>2022-10-04T09:54:52.161Z</time>
      </trkpt>
      <trkpt lat="45.30494" lon="5.62374">
        <ele>242.994101</ele>
        <time>2022-10-04T09:54:54.158Z</time>
      </trkpt>
      <trkpt lat="45.30486" lon="5.62383">
        <ele>242.967814</ele>
        <time>2022-10-04T09:54:56.148Z</time>
      </trkpt>
      <trkpt lat="45.30478" lon="5.62393">
        <ele>242.941032</ele>
        <time>2022-10-04T09:54:58.163Z</time>
      </trkpt>
      <trkpt lat="45.3047" lon="5.62405">
        <ele>242.911789</ele>
        <time>2022-10-04T09:55:00.157Z</time>
      </trkpt>
      <trkpt lat="45.30463" lon="5.62416">
        <ele>242.884984</ele>
        <time>2022-10-04T09:55:02.153Z</time>
      </trkpt>
      <trkpt lat="45.30455" lon="5.62429">
        <ele>242.854633</ele>
        <time>2022-10-04T09:55:04.152Z</time>
      </trkpt>
      <trkpt lat="45.30447" lon="5.6244">
        <ele>242.826583</ele>
        <time>2022-10-04T09:55:06.159Z</time>
      </trkpt>
      <trkpt lat="45.30439" lon="5.62449">
        <ele>242.801227</ele>
        <time>2022-10-04T09:55:08.161Z</time>
      </trkpt>
      <trkpt lat="45.30432" lon="5.62464">
        <ele>242.768945</ele>
        <time>2022-10-04T09:55:10.164Z</time>
      </trkpt>
      <trkpt lat="45.30425" lon="5.62472">
        <ele>242.745838</ele>
        <time>2022-10-04T09:55:12.164Z</time>
      </trkpt>
      <trkpt lat="45.30419" lon="5.62483">
        <ele>242.720993</ele>
        <time>2022-10-04T09:55:14.157Z</time>
      </trkpt>
      <trkpt lat="45.3041" lon="5.62492">
        <ele>242.69301</ele>
        <time>2022-10-04T09:55:16.160Z</time>
      </trkpt>
      <trkpt lat="45.30401" lon="5.62504">
        <ele>242.704396</ele>
        <time>2022-10-04T09:55:19.165Z</time>
      </trkpt>
      <trkpt lat="45.30393" lon="5.62515">
        <ele>242.878696</ele>
        <time>2022-10-04T09:55:23.152Z</time>
      </trkpt>
      <trkpt lat="45.30385" lon="5.62523">
        <ele>243.026822</ele>
        <time>2022-10-04T09:55:27.150Z</time>
      </trkpt>
      <trkpt lat="45.30377" lon="5.62534">
        <ele>243.19833</ele>
        <time>2022-10-04T09:55:31.148Z</time>
      </trkpt>
      <trkpt lat="45.3037" lon="5.62543">
        <ele>243.344189</ele>
        <time>2022-10-04T09:55:34.160Z</time>
      </trkpt>
      <trkpt lat="45.30362" lon="5.62555">
        <ele>243.527356</ele>
        <time>2022-10-04T09:55:38.165Z</time>
      </trkpt>
      <trkpt lat="45.30356" lon="5.62565">
        <ele>243.668465</ele>
        <time>2022-10-04T09:55:41.165Z</time>
      </trkpt>
      <trkpt lat="45.30347" lon="5.62578">
        <ele>243.853285</ele>
        <time>2022-10-04T09:55:45.160Z</time>
      </trkpt>
      <trkpt lat="45.30338" lon="5.62586">
        <ele>244.018451</ele>
        <time>2022-10-04T09:55:48.159Z</time>
      </trkpt>
      <trkpt lat="45.30327" lon="5.62591">
        <ele>244.189619</ele>
        <time>2022-10-04T09:55:51.152Z</time>
      </trkpt>
      <trkpt lat="45.30317" lon="5.62597">
        <ele>244.367637</ele>
        <time>2022-10-04T09:55:54.160Z</time>
      </trkpt>
      <trkpt lat="45.30305" lon="5.62603">
        <ele>244.551374</ele>
        <time>2022-10-04T09:55:57.150Z</time>
      </trkpt>
      <trkpt lat="45.30294" lon="5.62611">
        <ele>244.737115</ele>
        <time>2022-10-04T09:56:00.159Z</time>
      </trkpt>
      <trkpt lat="45.30284" lon="5.62617">
        <ele>244.911834</ele>
        <time>2022-10-04T09:56:03.158Z</time>
      </trkpt>
      <trkpt lat="45.30273" lon="5.62623">
        <ele>245.08226</ele>
        <time>2022-10-04T09:56:06.159Z</time>
      </trkpt>
      <trkpt lat="45.30265" lon="5.62632">
        <ele>245.239653</ele>
        <time>2022-10-04T09:56:09.144Z</time>
      </trkpt>
      <trkpt lat="45.30255" lon="5.62638">
        <ele>245.405628</ele>
        <time>2022-10-04T09:56:12.151Z</time>
      </trkpt>
      <trkpt lat="45.30244" lon="5.62645">
        <ele>245.807276</ele>
        <time>2022-10-04T09:56:15.157Z</time>
      </trkpt>
      <trkpt lat="45.30232" lon="5.62653">
        <ele>246.249488</ele>
        <time>2022-10-04T09:56:18.152Z</time>
      </trkpt>
      <trkpt lat="45.30224" lon="5.62659">
        <ele>246.551646</ele>
        <time>2022-10-04T09:56:20.154Z</time>
      </trkpt>
      <trkpt lat="45.30215" lon="5.62664">
        <ele>246.870671</ele>
        <time>2022-10-04T09:56:22.157Z</time>
      </trkpt>
      <trkpt lat="45.30206" lon="5.6267">
        <ele>247.200204</ele>
        <time>2022-10-04T09:56:24.164Z</time>
      </trkpt>
      <trkpt lat="45.30197" lon="5.62674">
        <ele>247.527208</ele>
        <time>2022-10-04T09:56:26.151Z</time>
      </trkpt>
      <trkpt lat="45.30184" lon="5.62682">
        <ele>247.977897</ele>
        <time>2022-10-04T09:56:29.157Z</time>
      </trkpt>
      <trkpt lat="45.30175" lon="5.62686">
        <ele>248.283736</ele>
        <time>2022-10-04T09:56:31.160Z</time>
      </trkpt>
      <trkpt lat="45.30167" lon="5.62691">
        <ele>248.599168</ele>
        <time>2022-10-04T09:56:33.158Z</time>
      </trkpt>
      <trkpt lat="45.30157" lon="5.62697">
        <ele>248.945901</ele>
        <time>2022-10-04T09:56:35.156Z</time>
      </trkpt>
      <trkpt lat="45.30147" lon="5.62701">
        <ele>249.285518</ele>
        <time>2022-10-04T09:56:37.162Z</time>
      </trkpt>
      <trkpt lat="45.30138" lon="5.62708">
        <ele>249.614525</ele>
        <time>2022-10-04T09:56:39.160Z</time>
      </trkpt>
      <trkpt lat="45.3013" lon="5.62711">
        <ele>249.921268</ele>
        <time>2022-10-04T09:56:41.157Z</time>
      </trkpt>
      <trkpt lat="45.3012" lon="5.62716">
        <ele>250.260101</ele>
        <time>2022-10-04T09:56:43.156Z</time>
      </trkpt>
      <trkpt lat="45.30111" lon="5.6272">
        <ele>250.582836</ele>
        <time>2022-10-04T09:56:45.158Z</time>
      </trkpt>
      <trkpt lat="45.30101" lon="5.62725">
        <ele>250.927843</ele>
        <time>2022-10-04T09:56:47.161Z</time>
      </trkpt>
      <trkpt lat="45.30091" lon="5.6273">
        <ele>251.268387</ele>
        <time>2022-10-04T09:56:49.158Z</time>
      </trkpt>
      <trkpt lat="45.30082" lon="5.62737">
        <ele>251.643686</ele>
        <time>2022-10-04T09:56:51.160Z</time>
      </trkpt>
      <trkpt lat="45.30069" lon="5.62743">
        <ele>252.207092</ele>
        <time>2022-10-04T09:56:54.155Z</time>
      </trkpt>
      <trkpt lat="45.3006" lon="5.62748">
        <ele>252.609658</ele>
        <time>2022-10-04T09:56:56.159Z</time>
      </trkpt>
      <trkpt lat="45.30051" lon="5.62754">
        <ele>252.989835</ele>
        <time>2022-10-04T09:56:58.153Z</time>
      </trkpt>
      <trkpt lat="45.30041" lon="5.62759">
        <ele>253.4227</ele>
        <time>2022-10-04T09:57:00.151Z</time>
      </trkpt>
      <trkpt lat="45.30032" lon="5.62763">
        <ele>253.809387</ele>
        <time>2022-10-04T09:57:02.160Z</time>
      </trkpt>
      <trkpt lat="45.30019" lon="5.62769">
        <ele>254.333259</ele>
        <time>2022-10-04T09:57:05.156Z</time>
      </trkpt>
      <trkpt lat="45.3001" lon="5.62773">
        <ele>254.72841</ele>
        <time>2022-10-04T09:57:07.159Z</time>
      </trkpt>
      <trkpt lat="45.3" lon="5.62776">
        <ele>255.137688</ele>
        <time>2022-10-04T09:57:09.153Z</time>
      </trkpt>
      <trkpt lat="45.29986" lon="5.6278">
        <ele>255.671533</ele>
        <time>2022-10-04T09:57:12.164Z</time>
      </trkpt>
      <trkpt lat="45.29977" lon="5.62784">
        <ele>256.054067</ele>
        <time>2022-10-04T09:57:14.151Z</time>
      </trkpt>
      <trkpt lat="45.29963" lon="5.62789">
        <ele>256.625885</ele>
        <time>2022-10-04T09:57:17.149Z</time>
      </trkpt>
      <trkpt lat="45.29954" lon="5.62793">
        <ele>257.001567</ele>
        <time>2022-10-04T09:57:19.156Z</time>
      </trkpt>
      <trkpt lat="45.29945" lon="5.62797">
        <ele>257.384895</ele>
        <time>2022-10-04T09:57:21.155Z</time>
      </trkpt>
      <trkpt lat="45.29936" lon="5.62799">
        <ele>257.772723</ele>
        <time>2022-10-04T09:57:23.151Z</time>
      </trkpt>
      <trkpt lat="45.29926" lon="5.62802">
        <ele>258.164577</ele>
        <time>2022-10-04T09:57:25.158Z</time>
      </trkpt>
      <trkpt lat="45.29916" lon="5.62805">
        <ele>258.557657</ele>
        <time>2022-10-04T09:57:27.158Z</time>
      </trkpt>
      <trkpt lat="45.29907" lon="5.62807">
        <ele>258.815851</ele>
        <time>2022-10-04T09:57:29.163Z</time>
      </trkpt>
      <trkpt lat="45.29897" lon="5.62809">
        <ele>259.052121</ele>
        <time>2022-10-04T09:57:31.150Z</time>
      </trkpt>
      <trkpt lat="45.29887" lon="5.62811">
        <ele>259.306662</ele>
        <time>2022-10-04T09:57:33.152Z</time>
      </trkpt>
      <trkpt lat="45.29877" lon="5.62814">
        <ele>259.560932</ele>
        <time>2022-10-04T09:57:35.152Z</time>
      </trkpt>
      <trkpt lat="45.29868" lon="5.62816">
        <ele>259.787393</ele>
        <time>2022-10-04T09:57:37.153Z</time>
      </trkpt>
      <trkpt lat="45.29859" lon="5.62819">
        <ele>260.016289</ele>
        <time>2022-10-04T09:57:39.157Z</time>
      </trkpt>
      <trkpt lat="45.2985" lon="5.62821">
        <ele>260.243843</ele>
        <time>2022-10-04T09:57:41.158Z</time>
      </trkpt>
      <trkpt lat="45.29836" lon="5.62824">
        <ele>260.596166</ele>
        <time>2022-10-04T09:57:44.153Z</time>
      </trkpt>
      <trkpt lat="45.29826" lon="5.62827">
        <ele>260.85468</ele>
        <time>2022-10-04T09:57:46.150Z</time>
      </trkpt>
      <trkpt lat="45.29816" lon="5.62829">
        <ele>261.114137</ele>
        <time>2022-10-04T09:57:48.147Z</time>
      </trkpt>
      <trkpt lat="45.29806" lon="5.62832">
        <ele>261.363235</ele>
        <time>2022-10-04T09:57:50.150Z</time>
      </trkpt>
      <trkpt lat="45.29797" lon="5.62835">
        <ele>261.589338</ele>
        <time>2022-10-04T09:57:52.150Z</time>
      </trkpt>
      <trkpt lat="45.29787" lon="5.62837">
        <ele>261.830302</ele>
        <time>2022-10-04T09:57:54.151Z</time>
      </trkpt>
      <trkpt lat="45.29778" lon="5.62839">
        <ele>262.064913</ele>
        <time>2022-10-04T09:57:56.161Z</time>
      </trkpt>
      <trkpt lat="45.29768" lon="5.62843">
        <ele>262.324029</ele>
        <time>2022-10-04T09:57:58.157Z</time>
      </trkpt>
      <trkpt lat="45.29758" lon="5.62846">
        <ele>262.586393</ele>
        <time>2022-10-04T09:58:00.156Z</time>
      </trkpt>
      <trkpt lat="45.29747" lon="5.62848">
        <ele>262.850506</ele>
        <time>2022-10-04T09:58:02.155Z</time>
      </trkpt>
      <trkpt lat="45.29737" lon="5.6285">
        <ele>263.092772</ele>
        <time>2022-10-04T09:58:04.152Z</time>
      </trkpt>
      <trkpt lat="45.29726" lon="5.62852">
        <ele>263.273085</ele>
        <time>2022-10-04T09:58:06.148Z</time>
      </trkpt>
      <trkpt lat="45.29716" lon="5.62854">
        <ele>263.44314</ele>
        <time>2022-10-04T09:58:08.149Z</time>
      </trkpt>
      <trkpt lat="45.29707" lon="5.62856">
        <ele>263.597548</ele>
        <time>2022-10-04T09:58:10.154Z</time>
      </trkpt>
      <trkpt lat="45.29697" lon="5.62857">
        <ele>263.773335</ele>
        <time>2022-10-04T09:58:12.159Z</time>
      </trkpt>
      <trkpt lat="45.29688" lon="5.62859">
        <ele>263.932096</ele>
        <time>2022-10-04T09:58:14.151Z</time>
      </trkpt>
      <trkpt lat="45.29678" lon="5.62861">
        <ele>264.098976</ele>
        <time>2022-10-04T09:58:16.146Z</time>
      </trkpt>
      <trkpt lat="45.29665" lon="5.62861">
        <ele>264.321691</ele>
        <time>2022-10-04T09:58:19.162Z</time>
      </trkpt>
      <trkpt lat="45.29655" lon="5.62861">
        <ele>264.495018</ele>
        <time>2022-10-04T09:58:21.152Z</time>
      </trkpt>
      <trkpt lat="45.29645" lon="5.62859">
        <ele>264.660034</ele>
        <time>2022-10-04T09:58:23.150Z</time>
      </trkpt>
      <trkpt lat="45.29635" lon="5.62854">
        <ele>264.835369</ele>
        <time>2022-10-04T09:58:25.156Z</time>
      </trkpt>
      <trkpt lat="45.29626" lon="5.62851">
        <ele>265.003165</ele>
        <time>2022-10-04T09:58:27.155Z</time>
      </trkpt>
      <trkpt lat="45.29616" lon="5.62848">
        <ele>265.169311</ele>
        <time>2022-10-04T09:58:29.149Z</time>
      </trkpt>
      <trkpt lat="45.29607" lon="5.62843">
        <ele>265.340203</ele>
        <time>2022-10-04T09:58:31.147Z</time>
      </trkpt>
      <trkpt lat="45.29596" lon="5.62839">
        <ele>265.52455</ele>
        <time>2022-10-04T09:58:33.150Z</time>
      </trkpt>
      <trkpt lat="45.29587" lon="5.62833">
        <ele>265.696513</ele>
        <time>2022-10-04T09:58:35.148Z</time>
      </trkpt>
      <trkpt lat="45.29579" lon="5.62825">
        <ele>265.86555</ele>
        <time>2022-10-04T09:58:37.150Z</time>
      </trkpt>
      <trkpt lat="45.29574" lon="5.62813">
        <ele>266.036029</ele>
        <time>2022-10-04T09:58:39.147Z</time>
      </trkpt>
      <trkpt lat="45.29571" lon="5.628">
        <ele>266.013891</ele>
        <time>2022-10-04T09:58:41.146Z</time>
      </trkpt>
      <trkpt lat="45.29563" lon="5.62784">
        <ele>265.737688</ele>
        <time>2022-10-04T09:58:44.153Z</time>
      </trkpt>
      <trkpt lat="45.29555" lon="5.62778">
        <ele>265.539911</ele>
        <time>2022-10-04T09:58:46.150Z</time>
      </trkpt>
      <trkpt lat="45.29543" lon="5.62772">
        <ele>265.2752</ele>
        <time>2022-10-04T09:58:49.146Z</time>
      </trkpt>
      <trkpt lat="45.29531" lon="5.62763">
        <ele>265.002189</ele>
        <time>2022-10-04T09:58:52.152Z</time>
      </trkpt>
      <trkpt lat="45.29525" lon="5.62752">
        <ele>264.788219</ele>
        <time>2022-10-04T09:58:54.147Z</time>
      </trkpt>
      <trkpt lat="45.29519" lon="5.62737">
        <ele>264.539408</ele>
        <time>2022-10-04T09:58:56.148Z</time>
      </trkpt>
      <trkpt lat="45.29513" lon="5.62724">
        <ele>264.3195</ele>
        <time>2022-10-04T09:58:58.146Z</time>
      </trkpt>
      <trkpt lat="45.29501" lon="5.6272">
        <ele>264.056748</ele>
        <time>2022-10-04T09:59:01.153Z</time>
      </trkpt>
      <trkpt lat="45.29492" lon="5.62713">
        <ele>263.845476</ele>
        <time>2022-10-04T09:59:03.157Z</time>
      </trkpt>
      <trkpt lat="45.29484" lon="5.62705">
        <ele>263.634643</ele>
        <time>2022-10-04T09:59:05.153Z</time>
      </trkpt>
      <trkpt lat="45.29477" lon="5.62693">
        <ele>263.412436</ele>
        <time>2022-10-04T09:59:07.150Z</time>
      </trkpt>
      <trkpt lat="45.29472" lon="5.62682">
        <ele>263.21723</ele>
        <time>2022-10-04T09:59:09.156Z</time>
      </trkpt>
      <trkpt lat="45.29468" lon="5.62667">
        <ele>262.984266</ele>
        <time>2022-10-04T09:59:11.151Z</time>
      </trkpt>
      <trkpt lat="45.29467" lon="5.62649">
        <ele>262.726263</ele>
        <time>2022-10-04T09:59:13.147Z</time>
      </trkpt>
      <trkpt lat="45.29466" lon="5.62631">
        <ele>262.462865</ele>
        <time>2022-10-04T09:59:15.150Z</time>
      </trkpt>
      <trkpt lat="45.29463" lon="5.62612">
        <ele>262.055883</ele>
        <time>2022-10-04T09:59:17.152Z</time>
      </trkpt>
      <trkpt lat="45.29462" lon="5.62591">
        <ele>261.535416</ele>
        <time>2022-10-04T09:59:19.154Z</time>
      </trkpt>
      <trkpt lat="45.2946" lon="5.6257">
        <ele>261.026447</ele>
        <time>2022-10-04T09:59:21.155Z</time>
      </trkpt>
      <trkpt lat="45.29458" lon="5.62548">
        <ele>260.512307</ele>
        <time>2022-10-04T09:59:23.155Z</time>
      </trkpt>
      <trkpt lat="45.29458" lon="5.62527">
        <ele>259.9901</ele>
        <time>2022-10-04T09:59:25.160Z</time>
      </trkpt>
      <trkpt lat="45.29458" lon="5.62505">
        <ele>259.480043</ele>
        <time>2022-10-04T09:59:27.163Z</time>
      </trkpt>
      <trkpt lat="45.29456" lon="5.62482">
        <ele>258.916359</ele>
        <time>2022-10-04T09:59:29.155Z</time>
      </trkpt>
      <trkpt lat="45.29454" lon="5.62457">
        <ele>258.317787</ele>
        <time>2022-10-04T09:59:31.155Z</time>
      </trkpt>
      <trkpt lat="45.29452" lon="5.62433">
        <ele>257.731922</ele>
        <time>2022-10-04T09:59:33.153Z</time>
      </trkpt>
      <trkpt lat="45.29451" lon="5.62409">
        <ele>257.168525</ele>
        <time>2022-10-04T09:59:35.162Z</time>
      </trkpt>
      <trkpt lat="45.2945" lon="5.62386">
        <ele>256.606931</ele>
        <time>2022-10-04T09:59:37.150Z</time>
      </trkpt>
      <trkpt lat="45.29449" lon="5.62362">
        <ele>255.858499</ele>
        <time>2022-10-04T09:59:39.153Z</time>
      </trkpt>
      <trkpt lat="45.29447" lon="5.62338">
        <ele>254.827235</ele>
        <time>2022-10-04T09:59:41.160Z</time>
      </trkpt>
      <trkpt lat="45.29445" lon="5.62313">
        <ele>253.749827</ele>
        <time>2022-10-04T09:59:43.157Z</time>
      </trkpt>
      <trkpt lat="45.29443" lon="5.62288">
        <ele>252.652533</ele>
        <time>2022-10-04T09:59:45.164Z</time>
      </trkpt>
      <trkpt lat="45.29441" lon="5.62263">
        <ele>251.576365</ele>
        <time>2022-10-04T09:59:47.159Z</time>
      </trkpt>
      <trkpt lat="45.29441" lon="5.62237">
        <ele>250.496001</ele>
        <time>2022-10-04T09:59:49.158Z</time>
      </trkpt>
      <trkpt lat="45.29443" lon="5.62225">
        <ele>249.938375</ele>
        <time>2022-10-04T09:59:50.147Z</time>
      </trkpt>
      <trkpt lat="45.29446" lon="5.6221">
        <ele>249.301495</ele>
        <time>2022-10-04T09:59:51.163Z</time>
      </trkpt>
      <trkpt lat="45.29448" lon="5.62194">
        <ele>248.615692</ele>
        <time>2022-10-04T09:59:52.157Z</time>
      </trkpt>
      <trkpt lat="45.2945" lon="5.62178">
        <ele>247.87697</ele>
        <time>2022-10-04T09:59:53.154Z</time>
      </trkpt>
      <trkpt lat="45.29452" lon="5.6216">
        <ele>247.126806</ele>
        <time>2022-10-04T09:59:54.156Z</time>
      </trkpt>
      <trkpt lat="45.29456" lon="5.62145">
        <ele>246.409252</ele>
        <time>2022-10-04T09:59:55.159Z</time>
      </trkpt>
      <trkpt lat="45.2946" lon="5.6213">
        <ele>245.728047</ele>
        <time>2022-10-04T09:59:56.171Z</time>
      </trkpt>
      <trkpt lat="45.29464" lon="5.62114">
        <ele>245.282596</ele>
        <time>2022-10-04T09:59:57.159Z</time>
      </trkpt>
      <trkpt lat="45.29468" lon="5.621">
        <ele>245.239821</ele>
        <time>2022-10-04T09:59:58.156Z</time>
      </trkpt>
      <trkpt lat="45.29472" lon="5.62086">
        <ele>245.195364</ele>
        <time>2022-10-04T09:59:59.162Z</time>
      </trkpt>
      <trkpt lat="45.29476" lon="5.62073">
        <ele>245.155427</ele>
        <time>2022-10-04T10:00:00.149Z</time>
      </trkpt>
      <trkpt lat="45.29481" lon="5.62061">
        <ele>245.116403</ele>
        <time>2022-10-04T10:00:01.152Z</time>
      </trkpt>
      <trkpt lat="45.29485" lon="5.62049">
        <ele>245.078355</ele>
        <time>2022-10-04T10:00:02.155Z</time>
      </trkpt>
      <trkpt lat="45.29489" lon="5.62036">
        <ele>245.040242</ele>
        <time>2022-10-04T10:00:03.150Z</time>
      </trkpt>
      <trkpt lat="45.29503" lon="5.61985">
        <ele>244.883845</ele>
        <time>2022-10-04T10:00:08.161Z</time>
      </trkpt>
      <trkpt lat="45.29512" lon="5.61974">
        <ele>244.836491</ele>
        <time>2022-10-04T10:00:10.155Z</time>
      </trkpt>
      <trkpt lat="45.29522" lon="5.6196">
        <ele>244.781226</ele>
        <time>2022-10-04T10:00:12.156Z</time>
      </trkpt>
      <trkpt lat="45.29528" lon="5.61947">
        <ele>244.736255</ele>
        <time>2022-10-04T10:00:14.153Z</time>
      </trkpt>
      <trkpt lat="45.29538" lon="5.61936">
        <ele>244.684352</ele>
        <time>2022-10-04T10:00:16.166Z</time>
      </trkpt>
      <trkpt lat="45.29549" lon="5.61924">
        <ele>244.629864</ele>
        <time>2022-10-04T10:00:18.149Z</time>
      </trkpt>
      <trkpt lat="45.29558" lon="5.61915">
        <ele>244.587025</ele>
        <time>2022-10-04T10:00:20.162Z</time>
      </trkpt>
      <trkpt lat="45.29565" lon="5.61903">
        <ele>244.603055</ele>
        <time>2022-10-04T10:00:22.164Z</time>
      </trkpt>
      <trkpt lat="45.29571" lon="5.61893">
        <ele>244.633244</ele>
        <time>2022-10-04T10:00:24.160Z</time>
      </trkpt>
      <trkpt lat="45.29579" lon="5.61882">
        <ele>244.669827</ele>
        <time>2022-10-04T10:00:26.148Z</time>
      </trkpt>
      <trkpt lat="45.29586" lon="5.61872">
        <ele>244.700571</ele>
        <time>2022-10-04T10:00:28.149Z</time>
      </trkpt>
      <trkpt lat="45.29594" lon="5.61859">
        <ele>244.740161</ele>
        <time>2022-10-04T10:00:30.163Z</time>
      </trkpt>
      <trkpt lat="45.29603" lon="5.61848">
        <ele>244.777758</ele>
        <time>2022-10-04T10:00:32.166Z</time>
      </trkpt>
      <trkpt lat="45.29613" lon="5.61836">
        <ele>244.821228</ele>
        <time>2022-10-04T10:00:34.162Z</time>
      </trkpt>
      <trkpt lat="45.29622" lon="5.61823">
        <ele>244.861245</ele>
        <time>2022-10-04T10:00:36.156Z</time>
      </trkpt>
      <trkpt lat="45.29631" lon="5.61817">
        <ele>244.894857</ele>
        <time>2022-10-04T10:00:38.158Z</time>
      </trkpt>
      <trkpt lat="45.2964" lon="5.61808">
        <ele>244.930467</ele>
        <time>2022-10-04T10:00:40.154Z</time>
      </trkpt>
      <trkpt lat="45.29648" lon="5.61797">
        <ele>244.965535</ele>
        <time>2022-10-04T10:00:42.160Z</time>
      </trkpt>
      <trkpt lat="45.29652" lon="5.61783">
        <ele>245.000235</ele>
        <time>2022-10-04T10:00:45.157Z</time>
      </trkpt>
      <trkpt lat="45.29645" lon="5.61772">
        <ele>245.034476</ele>
        <time>2022-10-04T10:00:47.156Z</time>
      </trkpt>
      <trkpt lat="45.29638" lon="5.61759">
        <ele>245.071735</ele>
        <time>2022-10-04T10:00:49.155Z</time>
      </trkpt>
      <trkpt lat="45.29633" lon="5.61748">
        <ele>245.101934</ele>
        <time>2022-10-04T10:00:51.161Z</time>
      </trkpt>
      <trkpt lat="45.29622" lon="5.61749">
        <ele>245.136596</ele>
        <time>2022-10-04T10:00:54.152Z</time>
      </trkpt>
      <trkpt lat="45.29611" lon="5.61752">
        <ele>245.150273</ele>
        <time>2022-10-04T10:00:57.163Z</time>
      </trkpt>
      <trkpt lat="45.29603" lon="5.61758">
        <ele>245.140741</ele>
        <time>2022-10-04T10:00:59.150Z</time>
      </trkpt>
      <trkpt lat="45.29593" lon="5.61767">
        <ele>245.128301</ele>
        <time>2022-10-04T10:01:01.154Z</time>
      </trkpt>
      <trkpt lat="45.29581" lon="5.6177">
        <ele>245.11546</ele>
        <time>2022-10-04T10:01:03.153Z</time>
      </trkpt>
      <trkpt lat="45.2957" lon="5.61772">
        <ele>245.104573</ele>
        <time>2022-10-04T10:01:05.162Z</time>
      </trkpt>
      <trkpt lat="45.29559" lon="5.61774">
        <ele>245.092485</ele>
        <time>2022-10-04T10:01:07.156Z</time>
      </trkpt>
      <trkpt lat="45.29549" lon="5.61774">
        <ele>245.082085</ele>
        <time>2022-10-04T10:01:09.152Z</time>
      </trkpt>
      <trkpt lat="45.29538" lon="5.61776">
        <ele>245.070617</ele>
        <time>2022-10-04T10:01:11.152Z</time>
      </trkpt>
      <trkpt lat="45.29529" lon="5.61777">
        <ele>245.060906</ele>
        <time>2022-10-04T10:01:13.155Z</time>
      </trkpt>
      <trkpt lat="45.29517" lon="5.61776">
        <ele>245.048735</ele>
        <time>2022-10-04T10:01:16.156Z</time>
      </trkpt>
      <trkpt lat="45.29506" lon="5.61777">
        <ele>245.037687</ele>
        <time>2022-10-04T10:01:18.154Z</time>
      </trkpt>
      <trkpt lat="45.29493" lon="5.61779">
        <ele>245.023931</ele>
        <time>2022-10-04T10:01:20.158Z</time>
      </trkpt>
      <trkpt lat="45.29479" lon="5.61779">
        <ele>245.009674</ele>
        <time>2022-10-04T10:01:22.166Z</time>
      </trkpt>
      <trkpt lat="45.29466" lon="5.61781">
        <ele>244.996187</ele>
        <time>2022-10-04T10:01:24.163Z</time>
      </trkpt>
      <trkpt lat="45.29451" lon="5.61784">
        <ele>244.98031</ele>
        <time>2022-10-04T10:01:26.154Z</time>
      </trkpt>
      <trkpt lat="45.29443" lon="5.61787">
        <ele>244.970899</ele>
        <time>2022-10-04T10:01:27.164Z</time>
      </trkpt>
      <trkpt lat="45.29431" lon="5.61786">
        <ele>245.05845</ele>
        <time>2022-10-04T10:01:29.163Z</time>
      </trkpt>
      <trkpt lat="45.29418" lon="5.61788">
        <ele>245.178156</ele>
        <time>2022-10-04T10:01:31.155Z</time>
      </trkpt>
      <trkpt lat="45.29406" lon="5.61793">
        <ele>245.300097</ele>
        <time>2022-10-04T10:01:33.168Z</time>
      </trkpt>
      <trkpt lat="45.29396" lon="5.61788">
        <ele>245.397143</ele>
        <time>2022-10-04T10:01:36.158Z</time>
      </trkpt>
      <trkpt lat="45.29393" lon="5.61773">
        <ele>245.501377</ele>
        <time>2022-10-04T10:01:39.152Z</time>
      </trkpt>
      <trkpt lat="45.2939" lon="5.61758">
        <ele>245.600984</ele>
        <time>2022-10-04T10:01:42.161Z</time>
      </trkpt>
      <trkpt lat="45.2938" lon="5.61755">
        <ele>245.696672</ele>
        <time>2022-10-04T10:01:46.155Z</time>
      </trkpt>
      <trkpt lat="45.29368" lon="5.61758">
        <ele>245.817207</ele>
        <time>2022-10-04T10:01:49.158Z</time>
      </trkpt>
      <trkpt lat="45.29357" lon="5.61763">
        <ele>245.925534</ele>
        <time>2022-10-04T10:01:51.152Z</time>
      </trkpt>
      <trkpt lat="45.29347" lon="5.61764">
        <ele>246.016411</ele>
        <time>2022-10-04T10:01:53.157Z</time>
      </trkpt>
      <trkpt lat="45.29335" lon="5.61767">
        <ele>246.129801</ele>
        <time>2022-10-04T10:01:55.156Z</time>
      </trkpt>
      <trkpt lat="45.29325" lon="5.61765">
        <ele>246.228343</ele>
        <time>2022-10-04T10:01:57.161Z</time>
      </trkpt>
      <trkpt lat="45.29313" lon="5.6177">
        <ele>246.33884</ele>
        <time>2022-10-04T10:01:59.161Z</time>
      </trkpt>
      <trkpt lat="45.29302" lon="5.61774">
        <ele>246.451205</ele>
        <time>2022-10-04T10:02:01.158Z</time>
      </trkpt>
      <trkpt lat="45.29291" lon="5.61773">
        <ele>246.552629</ele>
        <time>2022-10-04T10:02:03.158Z</time>
      </trkpt>
      <trkpt lat="45.2928" lon="5.61781">
        <ele>246.672826</ele>
        <time>2022-10-04T10:02:05.164Z</time>
      </trkpt>
      <trkpt lat="45.29268" lon="5.61788">
        <ele>246.859521</ele>
        <time>2022-10-04T10:02:07.147Z</time>
      </trkpt>
      <trkpt lat="45.29255" lon="5.61792">
        <ele>247.053213</ele>
        <time>2022-10-04T10:02:09.158Z</time>
      </trkpt>
      <trkpt lat="45.29242" lon="5.61799">
        <ele>247.249008</ele>
        <time>2022-10-04T10:02:11.154Z</time>
      </trkpt>
      <trkpt lat="45.2923" lon="5.61806">
        <ele>247.440245</ele>
        <time>2022-10-04T10:02:13.163Z</time>
      </trkpt>
      <trkpt lat="45.29217" lon="5.61809">
        <ele>247.631253</ele>
        <time>2022-10-04T10:02:15.160Z</time>
      </trkpt>
      <trkpt lat="45.29204" lon="5.61812">
        <ele>247.81527</ele>
        <time>2022-10-04T10:02:17.154Z</time>
      </trkpt>
      <trkpt lat="45.29191" lon="5.61814">
        <ele>248.002391</ele>
        <time>2022-10-04T10:02:19.159Z</time>
      </trkpt>
      <trkpt lat="45.29179" lon="5.61815">
        <ele>248.180471</ele>
        <time>2022-10-04T10:02:21.161Z</time>
      </trkpt>
      <trkpt lat="45.29168" lon="5.61815">
        <ele>248.341008</ele>
        <time>2022-10-04T10:02:23.163Z</time>
      </trkpt>
      <trkpt lat="45.29156" lon="5.61816">
        <ele>248.507581</ele>
        <time>2022-10-04T10:02:25.165Z</time>
      </trkpt>
      <trkpt lat="45.29142" lon="5.6182">
        <ele>248.7075</ele>
        <time>2022-10-04T10:02:27.167Z</time>
      </trkpt>
      <trkpt lat="45.2913" lon="5.61823">
        <ele>248.891005</ele>
        <time>2022-10-04T10:02:29.165Z</time>
      </trkpt>
      <trkpt lat="45.29116" lon="5.61826">
        <ele>249.09193</ele>
        <time>2022-10-04T10:02:31.160Z</time>
      </trkpt>
      <trkpt lat="45.29102" lon="5.61829">
        <ele>249.194045</ele>
        <time>2022-10-04T10:02:33.166Z</time>
      </trkpt>
      <trkpt lat="45.2909" lon="5.6183">
        <ele>249.087272</ele>
        <time>2022-10-04T10:02:35.164Z</time>
      </trkpt>
      <trkpt lat="45.29076" lon="5.61833">
        <ele>248.964703</ele>
        <time>2022-10-04T10:02:37.165Z</time>
      </trkpt>
      <trkpt lat="45.29065" lon="5.61837">
        <ele>248.863042</ele>
        <time>2022-10-04T10:02:39.164Z</time>
      </trkpt>
      <trkpt lat="45.2905" lon="5.61841">
        <ele>248.733289</ele>
        <time>2022-10-04T10:02:41.155Z</time>
      </trkpt>
      <trkpt lat="45.29037" lon="5.61842">
        <ele>248.614365</ele>
        <time>2022-10-04T10:02:43.159Z</time>
      </trkpt>
      <trkpt lat="45.29027" lon="5.61842">
        <ele>248.526905</ele>
        <time>2022-10-04T10:02:45.167Z</time>
      </trkpt>
      <trkpt lat="45.29014" lon="5.61845">
        <ele>248.417233</ele>
        <time>2022-10-04T10:02:47.159Z</time>
      </trkpt>
      <trkpt lat="45.29002" lon="5.61848">
        <ele>248.30573</ele>
        <time>2022-10-04T10:02:49.162Z</time>
      </trkpt>
      <trkpt lat="45.28989" lon="5.61852">
        <ele>248.192725</ele>
        <time>2022-10-04T10:02:51.152Z</time>
      </trkpt>
      <trkpt lat="45.28977" lon="5.61853">
        <ele>248.085888</ele>
        <time>2022-10-04T10:02:53.162Z</time>
      </trkpt>
      <trkpt lat="45.28963" lon="5.61859">
        <ele>247.962591</ele>
        <time>2022-10-04T10:02:55.167Z</time>
      </trkpt>
      <trkpt lat="45.28952" lon="5.61862">
        <ele>247.862703</ele>
        <time>2022-10-04T10:02:57.153Z</time>
      </trkpt>
      <trkpt lat="45.28938" lon="5.61865">
        <ele>247.737237</ele>
        <time>2022-10-04T10:02:59.158Z</time>
      </trkpt>
      <trkpt lat="45.28926" lon="5.61868">
        <ele>247.67792</ele>
        <time>2022-10-04T10:03:01.156Z</time>
      </trkpt>
      <trkpt lat="45.28916" lon="5.61869">
        <ele>247.749132</ele>
        <time>2022-10-04T10:03:03.152Z</time>
      </trkpt>
      <trkpt lat="45.28902" lon="5.61875">
        <ele>247.84129</ele>
        <time>2022-10-04T10:03:05.164Z</time>
      </trkpt>
      <trkpt lat="45.28891" lon="5.61878">
        <ele>247.921616</ele>
        <time>2022-10-04T10:03:07.161Z</time>
      </trkpt>
      <trkpt lat="45.28879" lon="5.61881">
        <ele>248.002845</ele>
        <time>2022-10-04T10:03:09.156Z</time>
      </trkpt>
      <trkpt lat="45.28866" lon="5.61884">
        <ele>248.08923</ele>
        <time>2022-10-04T10:03:11.156Z</time>
      </trkpt>
      <trkpt lat="45.28852" lon="5.61889">
        <ele>248.184287</ele>
        <time>2022-10-04T10:03:13.166Z</time>
      </trkpt>
      <trkpt lat="45.2884" lon="5.61892">
        <ele>248.266257</ele>
        <time>2022-10-04T10:03:15.164Z</time>
      </trkpt>
      <trkpt lat="45.28827" lon="5.61893">
        <ele>248.349551</ele>
        <time>2022-10-04T10:03:17.160Z</time>
      </trkpt>
      <trkpt lat="45.28814" lon="5.61898">
        <ele>248.438568</ele>
        <time>2022-10-04T10:03:19.160Z</time>
      </trkpt>
      <trkpt lat="45.28801" lon="5.619">
        <ele>248.529398</ele>
        <time>2022-10-04T10:03:21.160Z</time>
      </trkpt>
      <trkpt lat="45.28789" lon="5.61902">
        <ele>248.607978</ele>
        <time>2022-10-04T10:03:23.151Z</time>
      </trkpt>
      <trkpt lat="45.28776" lon="5.61905">
        <ele>248.69677</ele>
        <time>2022-10-04T10:03:25.158Z</time>
      </trkpt>
      <trkpt lat="45.28764" lon="5.61906">
        <ele>248.778046</ele>
        <time>2022-10-04T10:03:27.159Z</time>
      </trkpt>
      <trkpt lat="45.28751" lon="5.61907">
        <ele>248.830975</ele>
        <time>2022-10-04T10:03:29.155Z</time>
      </trkpt>
      <trkpt lat="45.28739" lon="5.6191">
        <ele>248.595819</ele>
        <time>2022-10-04T10:03:31.155Z</time>
      </trkpt>
      <trkpt lat="45.28727" lon="5.61912">
        <ele>248.356016</ele>
        <time>2022-10-04T10:03:33.163Z</time>
      </trkpt>
      <trkpt lat="45.28713" lon="5.61915">
        <ele>248.086246</ele>
        <time>2022-10-04T10:03:35.150Z</time>
      </trkpt>
      <trkpt lat="45.287" lon="5.61918">
        <ele>247.820592</ele>
        <time>2022-10-04T10:03:37.147Z</time>
      </trkpt>
      <trkpt lat="45.28689" lon="5.6192">
        <ele>247.60144</ele>
        <time>2022-10-04T10:03:39.165Z</time>
      </trkpt>
      <trkpt lat="45.28677" lon="5.61923">
        <ele>247.355216</ele>
        <time>2022-10-04T10:03:41.156Z</time>
      </trkpt>
      <trkpt lat="45.28664" lon="5.61926">
        <ele>247.108547</ele>
        <time>2022-10-04T10:03:43.147Z</time>
      </trkpt>
      <trkpt lat="45.28653" lon="5.61928">
        <ele>246.884262</ele>
        <time>2022-10-04T10:03:45.161Z</time>
      </trkpt>
      <trkpt lat="45.28641" lon="5.6193">
        <ele>246.634837</ele>
        <time>2022-10-04T10:03:47.161Z</time>
      </trkpt>
      <trkpt lat="45.28628" lon="5.61935">
        <ele>246.37842</ele>
        <time>2022-10-04T10:03:49.155Z</time>
      </trkpt>
      <trkpt lat="45.28614" lon="5.61943">
        <ele>246.072653</ele>
        <time>2022-10-04T10:03:51.159Z</time>
      </trkpt>
      <trkpt lat="45.28602" lon="5.61947">
        <ele>245.832884</ele>
        <time>2022-10-04T10:03:53.162Z</time>
      </trkpt>
      <trkpt lat="45.28589" lon="5.61952">
        <ele>245.563723</ele>
        <time>2022-10-04T10:03:55.160Z</time>
      </trkpt>
      <trkpt lat="45.28577" lon="5.61956">
        <ele>245.32685</ele>
        <time>2022-10-04T10:03:57.166Z</time>
      </trkpt>
      <trkpt lat="45.28565" lon="5.61955">
        <ele>245.218703</ele>
        <time>2022-10-04T10:03:59.160Z</time>
      </trkpt>
      <trkpt lat="45.28552" lon="5.61959">
        <ele>245.114317</ele>
        <time>2022-10-04T10:04:01.157Z</time>
      </trkpt>
      <trkpt lat="45.2854" lon="5.61961">
        <ele>245.016564</ele>
        <time>2022-10-04T10:04:03.156Z</time>
      </trkpt>
      <trkpt lat="45.28527" lon="5.61965">
        <ele>244.909826</ele>
        <time>2022-10-04T10:04:05.158Z</time>
      </trkpt>
      <trkpt lat="45.28515" lon="5.61969">
        <ele>244.814106</ele>
        <time>2022-10-04T10:04:07.154Z</time>
      </trkpt>
      <trkpt lat="45.28501" lon="5.61974">
        <ele>244.693676</ele>
        <time>2022-10-04T10:04:09.174Z</time>
      </trkpt>
      <trkpt lat="45.28488" lon="5.61978">
        <ele>244.591547</ele>
        <time>2022-10-04T10:04:11.151Z</time>
      </trkpt>
      <trkpt lat="45.28478" lon="5.61979">
        <ele>244.508736</ele>
        <time>2022-10-04T10:04:13.163Z</time>
      </trkpt>
      <trkpt lat="45.28465" lon="5.61982">
        <ele>244.404443</ele>
        <time>2022-10-04T10:04:15.165Z</time>
      </trkpt>
      <trkpt lat="45.28451" lon="5.61985">
        <ele>244.29091</ele>
        <time>2022-10-04T10:04:17.155Z</time>
      </trkpt>
      <trkpt lat="45.28439" lon="5.61986">
        <ele>244.194137</ele>
        <time>2022-10-04T10:04:19.157Z</time>
      </trkpt>
      <trkpt lat="45.28425" lon="5.61989">
        <ele>244.081106</ele>
        <time>2022-10-04T10:04:21.160Z</time>
      </trkpt>
      <trkpt lat="45.28412" lon="5.61991">
        <ele>243.973922</ele>
        <time>2022-10-04T10:04:23.157Z</time>
      </trkpt>
      <trkpt lat="45.28401" lon="5.61993">
        <ele>243.886233</ele>
        <time>2022-10-04T10:04:25.152Z</time>
      </trkpt>
      <trkpt lat="45.28388" lon="5.61994">
        <ele>243.927711</ele>
        <time>2022-10-04T10:04:27.155Z</time>
      </trkpt>
      <trkpt lat="45.28376" lon="5.61997">
        <ele>243.99622</ele>
        <time>2022-10-04T10:04:29.161Z</time>
      </trkpt>
      <trkpt lat="45.28362" lon="5.62">
        <ele>244.083055</ele>
        <time>2022-10-04T10:04:31.161Z</time>
      </trkpt>
      <trkpt lat="45.2835" lon="5.61999">
        <ele>244.153629</ele>
        <time>2022-10-04T10:04:33.163Z</time>
      </trkpt>
      <trkpt lat="45.28335" lon="5.62005">
        <ele>244.239154</ele>
        <time>2022-10-04T10:04:35.164Z</time>
      </trkpt>
      <trkpt lat="45.28321" lon="5.62007">
        <ele>244.322511</ele>
        <time>2022-10-04T10:04:37.168Z</time>
      </trkpt>
      <trkpt lat="45.28307" lon="5.6201">
        <ele>244.405993</ele>
        <time>2022-10-04T10:04:39.163Z</time>
      </trkpt>
      <trkpt lat="45.28295" lon="5.62011">
        <ele>244.474938</ele>
        <time>2022-10-04T10:04:41.163Z</time>
      </trkpt>
      <trkpt lat="45.28281" lon="5.62015">
        <ele>244.558566</ele>
        <time>2022-10-04T10:04:43.160Z</time>
      </trkpt>
      <trkpt lat="45.28269" lon="5.62015">
        <ele>244.627991</ele>
        <time>2022-10-04T10:04:45.160Z</time>
      </trkpt>
      <trkpt lat="45.28257" lon="5.62016">
        <ele>244.69864</ele>
        <time>2022-10-04T10:04:47.162Z</time>
      </trkpt>
      <trkpt lat="45.28246" lon="5.62017">
        <ele>244.766421</ele>
        <time>2022-10-04T10:04:49.159Z</time>
      </trkpt>
      <trkpt lat="45.28234" lon="5.62018">
        <ele>244.835519</ele>
        <time>2022-10-04T10:04:51.159Z</time>
      </trkpt>
      <trkpt lat="45.28221" lon="5.62019">
        <ele>244.909146</ele>
        <time>2022-10-04T10:04:53.167Z</time>
      </trkpt>
      <trkpt lat="45.28205" lon="5.62028">
        <ele>244.831757</ele>
        <time>2022-10-04T10:04:55.165Z</time>
      </trkpt>
      <trkpt lat="45.28189" lon="5.62031">
        <ele>244.753203</ele>
        <time>2022-10-04T10:04:58.158Z</time>
      </trkpt>
      <trkpt lat="45.28175" lon="5.62033">
        <ele>244.681596</ele>
        <time>2022-10-04T10:05:00.156Z</time>
      </trkpt>
      <trkpt lat="45.2816" lon="5.62038">
        <ele>244.605192</ele>
        <time>2022-10-04T10:05:02.151Z</time>
      </trkpt>
      <trkpt lat="45.28149" lon="5.62039">
        <ele>244.546792</ele>
        <time>2022-10-04T10:05:04.160Z</time>
      </trkpt>
      <trkpt lat="45.28134" lon="5.62045">
        <ele>244.471545</ele>
        <time>2022-10-04T10:05:06.164Z</time>
      </trkpt>
      <trkpt lat="45.28122" lon="5.62047">
        <ele>244.409812</ele>
        <time>2022-10-04T10:05:08.151Z</time>
      </trkpt>
      <trkpt lat="45.28108" lon="5.6205">
        <ele>244.335349</ele>
        <time>2022-10-04T10:05:10.159Z</time>
      </trkpt>
      <trkpt lat="45.28096" lon="5.62051">
        <ele>244.276785</ele>
        <time>2022-10-04T10:05:12.159Z</time>
      </trkpt>
      <trkpt lat="45.28082" lon="5.62054">
        <ele>244.206853</ele>
        <time>2022-10-04T10:05:14.155Z</time>
      </trkpt>
      <trkpt lat="45.28068" lon="5.62056">
        <ele>244.137461</ele>
        <time>2022-10-04T10:05:16.155Z</time>
      </trkpt>
      <trkpt lat="45.28056" lon="5.62055">
        <ele>244.074405</ele>
        <time>2022-10-04T10:05:18.151Z</time>
      </trkpt>
      <trkpt lat="45.28043" lon="5.62056">
        <ele>244.058992</ele>
        <time>2022-10-04T10:05:20.153Z</time>
      </trkpt>
      <trkpt lat="45.28031" lon="5.62054">
        <ele>245.39772</ele>
        <time>2022-10-04T10:05:22.158Z</time>
      </trkpt>
      <trkpt lat="45.28018" lon="5.62055">
        <ele>246.938481</ele>
        <time>2022-10-04T10:05:24.160Z</time>
      </trkpt>
      <trkpt lat="45.28004" lon="5.62057">
        <ele>248.529603</ele>
        <time>2022-10-04T10:05:26.155Z</time>
      </trkpt>
      <trkpt lat="45.27991" lon="5.62056">
        <ele>249.971062</ele>
        <time>2022-10-04T10:05:28.157Z</time>
      </trkpt>
      <trkpt lat="45.27978" lon="5.62056">
        <ele>251.428851</ele>
        <time>2022-10-04T10:05:30.159Z</time>
      </trkpt>
      <trkpt lat="45.27964" lon="5.62058">
        <ele>253.085639</ele>
        <time>2022-10-04T10:05:32.157Z</time>
      </trkpt>
      <trkpt lat="45.27949" lon="5.62058">
        <ele>254.759215</ele>
        <time>2022-10-04T10:05:34.156Z</time>
      </trkpt>
      <trkpt lat="45.27938" lon="5.62056">
        <ele>256.012389</ele>
        <time>2022-10-04T10:05:36.153Z</time>
      </trkpt>
      <trkpt lat="45.27925" lon="5.62057">
        <ele>257.481314</ele>
        <time>2022-10-04T10:05:38.168Z</time>
      </trkpt>
      <trkpt lat="45.27912" lon="5.62058">
        <ele>258.98557</ele>
        <time>2022-10-04T10:05:40.160Z</time>
      </trkpt>
      <trkpt lat="45.27901" lon="5.62058">
        <ele>260.271849</ele>
        <time>2022-10-04T10:05:42.164Z</time>
      </trkpt>
      <trkpt lat="45.27886" lon="5.62059">
        <ele>261.947034</ele>
        <time>2022-10-04T10:05:44.155Z</time>
      </trkpt>
      <trkpt lat="45.27873" lon="5.62062">
        <ele>263.471266</ele>
        <time>2022-10-04T10:05:46.166Z</time>
      </trkpt>
      <trkpt lat="45.27858" lon="5.62064">
        <ele>263.843436</ele>
        <time>2022-10-04T10:05:48.158Z</time>
      </trkpt>
      <trkpt lat="45.27847" lon="5.62062">
        <ele>262.64308</ele>
        <time>2022-10-04T10:05:50.161Z</time>
      </trkpt>
      <trkpt lat="45.27833" lon="5.62066">
        <ele>261.077956</ele>
        <time>2022-10-04T10:05:52.165Z</time>
      </trkpt>
      <trkpt lat="45.27822" lon="5.62067">
        <ele>259.765386</ele>
        <time>2022-10-04T10:05:54.162Z</time>
      </trkpt>
      <trkpt lat="45.27808" lon="5.6207">
        <ele>258.28415</ele>
        <time>2022-10-04T10:05:56.164Z</time>
      </trkpt>
      <trkpt lat="45.27797" lon="5.62072">
        <ele>256.999065</ele>
        <time>2022-10-04T10:05:58.165Z</time>
      </trkpt>
      <trkpt lat="45.27783" lon="5.62075">
        <ele>255.480275</ele>
        <time>2022-10-04T10:06:00.159Z</time>
      </trkpt>
      <trkpt lat="45.27769" lon="5.62079">
        <ele>253.971779</ele>
        <time>2022-10-04T10:06:02.164Z</time>
      </trkpt>
      <trkpt lat="45.27757" lon="5.62081">
        <ele>252.565918</ele>
        <time>2022-10-04T10:06:04.161Z</time>
      </trkpt>
      <trkpt lat="45.27742" lon="5.62086">
        <ele>250.925423</ele>
        <time>2022-10-04T10:06:06.159Z</time>
      </trkpt>
      <trkpt lat="45.2773" lon="5.62089">
        <ele>249.522537</ele>
        <time>2022-10-04T10:06:08.155Z</time>
      </trkpt>
      <trkpt lat="45.27716" lon="5.62092">
        <ele>248.043786</ele>
        <time>2022-10-04T10:06:10.154Z</time>
      </trkpt>
      <trkpt lat="45.27704" lon="5.62093">
        <ele>246.740589</ele>
        <time>2022-10-04T10:06:12.153Z</time>
      </trkpt>
      <trkpt lat="45.27693" lon="5.62096">
        <ele>245.43642</ele>
        <time>2022-10-04T10:06:14.160Z</time>
      </trkpt>
      <trkpt lat="45.27682" lon="5.62096">
        <ele>245.058265</ele>
        <time>2022-10-04T10:06:16.156Z</time>
      </trkpt>
      <trkpt lat="45.27668" lon="5.62101">
        <ele>246.219278</ele>
        <time>2022-10-04T10:06:18.156Z</time>
      </trkpt>
      <trkpt lat="45.27657" lon="5.62104">
        <ele>247.080506</ele>
        <time>2022-10-04T10:06:20.155Z</time>
      </trkpt>
      <trkpt lat="45.27647" lon="5.62108">
        <ele>247.899156</ele>
        <time>2022-10-04T10:06:22.160Z</time>
      </trkpt>
      <trkpt lat="45.27636" lon="5.62112">
        <ele>248.736461</ele>
        <time>2022-10-04T10:06:24.160Z</time>
      </trkpt>
      <trkpt lat="45.27625" lon="5.6212">
        <ele>249.735365</ele>
        <time>2022-10-04T10:06:26.160Z</time>
      </trkpt>
      <trkpt lat="45.27615" lon="5.62124">
        <ele>250.529261</ele>
        <time>2022-10-04T10:06:28.152Z</time>
      </trkpt>
      <trkpt lat="45.27605" lon="5.62128">
        <ele>251.321287</ele>
        <time>2022-10-04T10:06:30.151Z</time>
      </trkpt>
      <trkpt lat="45.27595" lon="5.6213">
        <ele>252.081479</ele>
        <time>2022-10-04T10:06:32.152Z</time>
      </trkpt>
      <trkpt lat="45.27584" lon="5.62134">
        <ele>252.970159</ele>
        <time>2022-10-04T10:06:34.150Z</time>
      </trkpt>
      <trkpt lat="45.27573" lon="5.62137">
        <ele>253.841839</ele>
        <time>2022-10-04T10:06:36.163Z</time>
      </trkpt>
      <trkpt lat="45.27563" lon="5.6214">
        <ele>254.658116</ele>
        <time>2022-10-04T10:06:38.160Z</time>
      </trkpt>
      <trkpt lat="45.27551" lon="5.6214">
        <ele>255.550999</ele>
        <time>2022-10-04T10:06:40.153Z</time>
      </trkpt>
      <trkpt lat="45.27542" lon="5.62139">
        <ele>256.305041</ele>
        <time>2022-10-04T10:06:42.150Z</time>
      </trkpt>
      <trkpt lat="45.27529" lon="5.62136">
        <ele>257.317353</ele>
        <time>2022-10-04T10:06:45.166Z</time>
      </trkpt>
      <trkpt lat="45.27518" lon="5.62134">
        <ele>258.184105</ele>
        <time>2022-10-04T10:06:48.186Z</time>
      </trkpt>
      <trkpt lat="45.27508" lon="5.62135">
        <ele>258.705532</ele>
        <time>2022-10-04T10:06:50.166Z</time>
      </trkpt>
      <trkpt lat="45.27498" lon="5.62133">
        <ele>258.731521</ele>
        <time>2022-10-04T10:06:52.163Z</time>
      </trkpt>
      <trkpt lat="45.27487" lon="5.62133">
        <ele>258.758385</ele>
        <time>2022-10-04T10:06:54.157Z</time>
      </trkpt>
      <trkpt lat="45.27476" lon="5.62132">
        <ele>258.787595</ele>
        <time>2022-10-04T10:06:56.156Z</time>
      </trkpt>
      <trkpt lat="45.27467" lon="5.62134">
        <ele>258.811197</ele>
        <time>2022-10-04T10:06:58.162Z</time>
      </trkpt>
      <trkpt lat="45.27453" lon="5.62137">
        <ele>258.8483</ele>
        <time>2022-10-04T10:07:01.148Z</time>
      </trkpt>
      <trkpt lat="45.27441" lon="5.62137">
        <ele>258.877491</ele>
        <time>2022-10-04T10:07:04.160Z</time>
      </trkpt>
      <trkpt lat="45.27431" lon="5.62141">
        <ele>258.904072</ele>
        <time>2022-10-04T10:07:06.151Z</time>
      </trkpt>
      <trkpt lat="45.27422" lon="5.62142">
        <ele>258.929413</ele>
        <time>2022-10-04T10:07:08.160Z</time>
      </trkpt>
      <trkpt lat="45.27413" lon="5.62142">
        <ele>258.952939</ele>
        <time>2022-10-04T10:07:10.161Z</time>
      </trkpt>
      <trkpt lat="45.27401" lon="5.62146">
        <ele>258.983179</ele>
        <time>2022-10-04T10:07:12.161Z</time>
      </trkpt>
      <trkpt lat="45.27391" lon="5.62149">
        <ele>259.008995</ele>
        <time>2022-10-04T10:07:14.164Z</time>
      </trkpt>
      <trkpt lat="45.27378" lon="5.62151">
        <ele>259.044269</ele>
        <time>2022-10-04T10:07:17.164Z</time>
      </trkpt>
      <trkpt lat="45.27368" lon="5.6215">
        <ele>259.07046</ele>
        <time>2022-10-04T10:07:19.162Z</time>
      </trkpt>
      <trkpt lat="45.27358" lon="5.62151">
        <ele>259.096634</ele>
        <time>2022-10-04T10:07:21.161Z</time>
      </trkpt>
      <trkpt lat="45.27348" lon="5.62154">
        <ele>259.121139</ele>
        <time>2022-10-04T10:07:23.153Z</time>
      </trkpt>
      <trkpt lat="45.27336" lon="5.62158">
        <ele>259.154837</ele>
        <time>2022-10-04T10:07:26.164Z</time>
      </trkpt>
      <trkpt lat="45.27326" lon="5.62162">
        <ele>259.331955</ele>
        <time>2022-10-04T10:07:28.160Z</time>
      </trkpt>
      <trkpt lat="45.27316" lon="5.62165">
        <ele>259.552354</ele>
        <time>2022-10-04T10:07:30.160Z</time>
      </trkpt>
      <trkpt lat="45.27308" lon="5.6217">
        <ele>259.766692</ele>
        <time>2022-10-04T10:07:32.155Z</time>
      </trkpt>
      <trkpt lat="45.27299" lon="5.62176">
        <ele>259.990611</ele>
        <time>2022-10-04T10:07:34.154Z</time>
      </trkpt>
      <trkpt lat="45.27289" lon="5.62183">
        <ele>260.22946</ele>
        <time>2022-10-04T10:07:36.156Z</time>
      </trkpt>
      <trkpt lat="45.27278" lon="5.62188">
        <ele>260.483406</ele>
        <time>2022-10-04T10:07:39.166Z</time>
      </trkpt>
      <trkpt lat="45.27267" lon="5.62194">
        <ele>260.741145</ele>
        <time>2022-10-04T10:07:41.155Z</time>
      </trkpt>
      <trkpt lat="45.27258" lon="5.62196">
        <ele>260.950648</ele>
        <time>2022-10-04T10:07:43.155Z</time>
      </trkpt>
      <trkpt lat="45.27249" lon="5.62199">
        <ele>261.16061</ele>
        <time>2022-10-04T10:07:45.158Z</time>
      </trkpt>
      <trkpt lat="45.2724" lon="5.62204">
        <ele>261.386506</ele>
        <time>2022-10-04T10:07:47.161Z</time>
      </trkpt>
      <trkpt lat="45.27231" lon="5.62209">
        <ele>261.604681</ele>
        <time>2022-10-04T10:07:49.160Z</time>
      </trkpt>
      <trkpt lat="45.27221" lon="5.62219">
        <ele>261.874698</ele>
        <time>2022-10-04T10:07:52.156Z</time>
      </trkpt>
      <trkpt lat="45.27212" lon="5.62225">
        <ele>262.089331</ele>
        <time>2022-10-04T10:07:54.155Z</time>
      </trkpt>
      <trkpt lat="45.27204" lon="5.62231">
        <ele>262.301745</ele>
        <time>2022-10-04T10:07:56.159Z</time>
      </trkpt>
      <trkpt lat="45.27196" lon="5.62237">
        <ele>262.50543</ele>
        <time>2022-10-04T10:07:58.163Z</time>
      </trkpt>
      <trkpt lat="45.27184" lon="5.62246">
        <ele>262.80197</ele>
        <time>2022-10-04T10:08:01.148Z</time>
      </trkpt>
      <trkpt lat="45.27173" lon="5.62252">
        <ele>263.063543</ele>
        <time>2022-10-04T10:08:04.159Z</time>
      </trkpt>
      <trkpt lat="45.27163" lon="5.62257">
        <ele>262.963641</ele>
        <time>2022-10-04T10:08:07.158Z</time>
      </trkpt>
      <trkpt lat="45.27154" lon="5.62259">
        <ele>262.543201</ele>
        <time>2022-10-04T10:08:12.157Z</time>
      </trkpt>
      <trkpt lat="45.27147" lon="5.62248">
        <ele>262.084522</ele>
        <time>2022-10-04T10:08:18.147Z</time>
      </trkpt>
      <trkpt lat="45.27144" lon="5.62234">
        <ele>261.607251</ele>
        <time>2022-10-04T10:08:24.159Z</time>
      </trkpt>
      <trkpt lat="45.27142" lon="5.62222">
        <ele>261.189613</ele>
        <time>2022-10-04T10:08:28.160Z</time>
      </trkpt>
      <trkpt lat="45.27138" lon="5.62206">
        <ele>260.646636</ele>
        <time>2022-10-04T10:08:32.162Z</time>
      </trkpt>
      <trkpt lat="45.27133" lon="5.62192">
        <ele>260.113156</ele>
        <time>2022-10-04T10:08:36.155Z</time>
      </trkpt>
      <trkpt lat="45.27127" lon="5.62181">
        <ele>259.677015</ele>
        <time>2022-10-04T10:08:39.157Z</time>
      </trkpt>
      <trkpt lat="45.27122" lon="5.62169">
        <ele>259.223926</ele>
        <time>2022-10-04T10:08:42.162Z</time>
      </trkpt>
      <trkpt lat="45.27118" lon="5.62155">
        <ele>258.737977</ele>
        <time>2022-10-04T10:08:45.169Z</time>
      </trkpt>
      <trkpt lat="45.27113" lon="5.62141">
        <ele>258.22163</ele>
        <time>2022-10-04T10:08:48.155Z</time>
      </trkpt>
      <trkpt lat="45.27108" lon="5.62126">
        <ele>257.6868</ele>
        <time>2022-10-04T10:08:51.157Z</time>
      </trkpt>
      <trkpt lat="45.27103" lon="5.62111">
        <ele>257.132247</ele>
        <time>2022-10-04T10:08:54.152Z</time>
      </trkpt>
      <trkpt lat="45.27097" lon="5.62095">
        <ele>256.574774</ele>
        <time>2022-10-04T10:08:57.159Z</time>
      </trkpt>
      <trkpt lat="45.27092" lon="5.6208">
        <ele>256.003173</ele>
        <time>2022-10-04T10:09:00.156Z</time>
      </trkpt>
      <trkpt lat="45.27087" lon="5.62062">
        <ele>255.393716</ele>
        <time>2022-10-04T10:09:03.156Z</time>
      </trkpt>
      <trkpt lat="45.27083" lon="5.6205">
        <ele>254.956036</ele>
        <time>2022-10-04T10:09:05.155Z</time>
      </trkpt>
      <trkpt lat="45.27079" lon="5.62038">
        <ele>254.648119</ele>
        <time>2022-10-04T10:09:07.163Z</time>
      </trkpt>
      <trkpt lat="45.27075" lon="5.6202">
        <ele>254.221076</ele>
        <time>2022-10-04T10:09:10.155Z</time>
      </trkpt>
      <trkpt lat="45.27075" lon="5.62006">
        <ele>253.919754</ele>
        <time>2022-10-04T10:09:12.155Z</time>
      </trkpt>
      <trkpt lat="45.27081" lon="5.61994">
        <ele>253.596023</ele>
        <time>2022-10-04T10:09:14.153Z</time>
      </trkpt>
      <trkpt lat="45.27091" lon="5.61987">
        <ele>253.249552</ele>
        <time>2022-10-04T10:09:16.161Z</time>
      </trkpt>
      <trkpt lat="45.27102" lon="5.61982">
        <ele>252.88599</ele>
        <time>2022-10-04T10:09:18.148Z</time>
      </trkpt>
      <trkpt lat="45.27111" lon="5.61985">
        <ele>252.602148</ele>
        <time>2022-10-04T10:09:20.152Z</time>
      </trkpt>
      <trkpt lat="45.27109" lon="5.62">
        <ele>252.268297</ele>
        <time>2022-10-04T10:09:24.149Z</time>
      </trkpt>
      <trkpt lat="45.27098" lon="5.62019">
        <ele>251.729368</ele>
        <time>2022-10-04T10:09:26.152Z</time>
      </trkpt>
      <trkpt lat="45.27088" lon="5.62029">
        <ele>251.359078</ele>
        <time>2022-10-04T10:09:28.154Z</time>
      </trkpt>
      <trkpt lat="45.27077" lon="5.62041">
        <ele>250.906931</ele>
        <time>2022-10-04T10:09:30.164Z</time>
      </trkpt>
      <trkpt lat="45.27068" lon="5.62037">
        <ele>250.616625</ele>
        <time>2022-10-04T10:09:31.150Z</time>
      </trkpt>
      <trkpt lat="45.27056" lon="5.62037">
        <ele>250.255178</ele>
        <time>2022-10-04T10:09:33.148Z</time>
      </trkpt>
      <trkpt lat="45.27046" lon="5.6204">
        <ele>249.926082</ele>
        <time>2022-10-04T10:09:35.151Z</time>
      </trkpt>
      <trkpt lat="45.27036" lon="5.62045">
        <ele>249.57446</ele>
        <time>2022-10-04T10:09:37.160Z</time>
      </trkpt>
      <trkpt lat="45.27025" lon="5.62047">
        <ele>249.266348</ele>
        <time>2022-10-04T10:09:40.160Z</time>
      </trkpt>
      <trkpt lat="45.27012" lon="5.62048">
        <ele>250.342067</ele>
        <time>2022-10-04T10:09:43.152Z</time>
      </trkpt>
      <trkpt lat="45.27002" lon="5.62051">
        <ele>251.253869</ele>
        <time>2022-10-04T10:09:46.164Z</time>
      </trkpt>
      <trkpt lat="45.26992" lon="5.62055">
        <ele>252.196054</ele>
        <time>2022-10-04T10:09:49.164Z</time>
      </trkpt>
      <trkpt lat="45.26982" lon="5.62059">
        <ele>253.131595</ele>
        <time>2022-10-04T10:09:52.162Z</time>
      </trkpt>
      <trkpt lat="45.26971" lon="5.62062">
        <ele>254.116628</ele>
        <time>2022-10-04T10:09:55.165Z</time>
      </trkpt>
      <trkpt lat="45.26961" lon="5.62066">
        <ele>255.074528</ele>
        <time>2022-10-04T10:09:58.146Z</time>
      </trkpt>
      <trkpt lat="45.26949" lon="5.62072">
        <ele>256.157502</ele>
        <time>2022-10-04T10:10:01.157Z</time>
      </trkpt>
      <trkpt lat="45.26937" lon="5.62078">
        <ele>257.309274</ele>
        <time>2022-10-04T10:10:04.159Z</time>
      </trkpt>
      <trkpt lat="45.26925" lon="5.62084">
        <ele>258.396215</ele>
        <time>2022-10-04T10:10:07.163Z</time>
      </trkpt>
      <trkpt lat="45.26916" lon="5.62089">
        <ele>259.306342</ele>
        <time>2022-10-04T10:10:09.160Z</time>
      </trkpt>
      <trkpt lat="45.26904" lon="5.62098">
        <ele>260.496547</ele>
        <time>2022-10-04T10:10:12.161Z</time>
      </trkpt>
      <trkpt lat="45.26895" lon="5.62102">
        <ele>261.315848</ele>
        <time>2022-10-04T10:10:14.156Z</time>
      </trkpt>
      <trkpt lat="45.26886" lon="5.62106">
        <ele>262.188233</ele>
        <time>2022-10-04T10:10:16.157Z</time>
      </trkpt>
      <trkpt lat="45.26878" lon="5.62112">
        <ele>262.998137</ele>
        <time>2022-10-04T10:10:18.161Z</time>
      </trkpt>
      <trkpt lat="45.26868" lon="5.62117">
        <ele>263.899137</ele>
        <time>2022-10-04T10:10:20.158Z</time>
      </trkpt>
      <trkpt lat="45.26859" lon="5.62123">
        <ele>264.757573</ele>
        <time>2022-10-04T10:10:22.157Z</time>
      </trkpt>
      <trkpt lat="45.2685" lon="5.62131">
        <ele>264.637116</ele>
        <time>2022-10-04T10:10:25.163Z</time>
      </trkpt>
      <trkpt lat="45.26841" lon="5.62137">
        <ele>263.80204</ele>
        <time>2022-10-04T10:10:27.159Z</time>
      </trkpt>
      <trkpt lat="45.26833" lon="5.62145">
        <ele>262.968252</ele>
        <time>2022-10-04T10:10:29.160Z</time>
      </trkpt>
      <trkpt lat="45.26822" lon="5.62155">
        <ele>261.879679</ele>
        <time>2022-10-04T10:10:32.144Z</time>
      </trkpt>
      <trkpt lat="45.26813" lon="5.62161">
        <ele>261.005931</ele>
        <time>2022-10-04T10:10:34.155Z</time>
      </trkpt>
      <trkpt lat="45.26804" lon="5.62168">
        <ele>260.1111</ele>
        <time>2022-10-04T10:10:36.161Z</time>
      </trkpt>
      <trkpt lat="45.26795" lon="5.62175">
        <ele>259.297354</ele>
        <time>2022-10-04T10:10:39.165Z</time>
      </trkpt>
      <trkpt lat="45.26786" lon="5.62175">
        <ele>258.483155</ele>
        <time>2022-10-04T10:10:43.156Z</time>
      </trkpt>
      <trkpt lat="45.26794" lon="5.62164">
        <ele>257.520371</ele>
        <time>2022-10-04T10:10:48.157Z</time>
      </trkpt>
      <trkpt lat="45.26801" lon="5.62155">
        <ele>256.707834</ele>
        <time>2022-10-04T10:10:51.156Z</time>
      </trkpt>
      <trkpt lat="45.26812" lon="5.62147">
        <ele>255.667732</ele>
        <time>2022-10-04T10:10:54.165Z</time>
      </trkpt>
      <trkpt lat="45.26824" lon="5.62137">
        <ele>254.444901</ele>
        <time>2022-10-04T10:10:57.165Z</time>
      </trkpt>
      <trkpt lat="45.2683" lon="5.62121">
        <ele>253.351934</ele>
        <time>2022-10-04T10:11:00.152Z</time>
      </trkpt>
      <trkpt lat="45.2683" lon="5.62105">
        <ele>252.364114</ele>
        <time>2022-10-04T10:11:03.154Z</time>
      </trkpt>
      <trkpt lat="45.26829" lon="5.62089">
        <ele>251.400371</ele>
        <time>2022-10-04T10:11:06.166Z</time>
      </trkpt>
      <trkpt lat="45.26828" lon="5.62073">
        <ele>250.462344</ele>
        <time>2022-10-04T10:11:10.157Z</time>
      </trkpt>
      <trkpt lat="45.26822" lon="5.62063">
        <ele>249.748815</ele>
        <time>2022-10-04T10:11:27.155Z</time>
      </trkpt>
      <trkpt lat="45.26813" lon="5.62053">
        <ele>249.356983</ele>
        <time>2022-10-04T10:11:31.161Z</time>
      </trkpt>
      <trkpt lat="45.26811" lon="5.62039">
        <ele>248.996837</ele>
        <time>2022-10-04T10:11:35.151Z</time>
      </trkpt>
      <trkpt lat="45.26814" lon="5.62023">
        <ele>248.612922</ele>
        <time>2022-10-04T10:11:39.154Z</time>
      </trkpt>
      <trkpt lat="45.26813" lon="5.6201">
        <ele>248.279251</ele>
        <time>2022-10-04T10:11:42.168Z</time>
      </trkpt>
      <trkpt lat="45.26809" lon="5.61995">
        <ele>247.910349</ele>
        <time>2022-10-04T10:11:45.159Z</time>
      </trkpt>
      <trkpt lat="45.26805" lon="5.61979">
        <ele>247.502759</ele>
        <time>2022-10-04T10:11:48.159Z</time>
      </trkpt>
      <trkpt lat="45.26803" lon="5.61965">
        <ele>247.143072</ele>
        <time>2022-10-04T10:11:51.161Z</time>
      </trkpt>
      <trkpt lat="45.268" lon="5.61949">
        <ele>246.756002</ele>
        <time>2022-10-04T10:11:56.159Z</time>
      </trkpt>
      <trkpt lat="45.26798" lon="5.61936">
        <ele>246.420376</ele>
        <time>2022-10-04T10:11:59.154Z</time>
      </trkpt>
      <trkpt lat="45.26794" lon="5.61919">
        <ele>246.003667</ele>
        <time>2022-10-04T10:12:02.152Z</time>
      </trkpt>
      <trkpt lat="45.2679" lon="5.61901">
        <ele>245.533407</ele>
        <time>2022-10-04T10:12:05.167Z</time>
      </trkpt>
      <trkpt lat="45.26783" lon="5.61886">
        <ele>245.093163</ele>
        <time>2022-10-04T10:12:08.155Z</time>
      </trkpt>
      <trkpt lat="45.26773" lon="5.61875">
        <ele>244.663834</ele>
        <time>2022-10-04T10:12:11.156Z</time>
      </trkpt>
      <trkpt lat="45.26761" lon="5.61867">
        <ele>244.237119</ele>
        <time>2022-10-04T10:12:14.171Z</time>
      </trkpt>
      <trkpt lat="45.26753" lon="5.61857">
        <ele>243.856589</ele>
        <time>2022-10-04T10:12:17.154Z</time>
      </trkpt>
      <trkpt lat="45.26747" lon="5.61844">
        <ele>243.59739</ele>
        <time>2022-10-04T10:12:20.158Z</time>
      </trkpt>
      <trkpt lat="45.26743" lon="5.61829">
        <ele>243.49245</ele>
        <time>2022-10-04T10:12:23.159Z</time>
      </trkpt>
      <trkpt lat="45.2674" lon="5.61814">
        <ele>243.386029</ele>
        <time>2022-10-04T10:12:26.157Z</time>
      </trkpt>
      <trkpt lat="45.26738" lon="5.61797">
        <ele>243.274038</ele>
        <time>2022-10-04T10:12:29.157Z</time>
      </trkpt>
      <trkpt lat="45.26735" lon="5.61779">
        <ele>243.157338</ele>
        <time>2022-10-04T10:12:32.156Z</time>
      </trkpt>
      <trkpt lat="45.26739" lon="5.61763">
        <ele>243.046976</ele>
        <time>2022-10-04T10:12:35.155Z</time>
      </trkpt>
      <trkpt lat="45.26747" lon="5.61751">
        <ele>242.93641</ele>
        <time>2022-10-04T10:12:38.160Z</time>
      </trkpt>
      <trkpt lat="45.26746" lon="5.61735">
        <ele>242.835803</ele>
        <time>2022-10-04T10:12:41.154Z</time>
      </trkpt>
      <trkpt lat="45.26742" lon="5.61722">
        <ele>242.7428</ele>
        <time>2022-10-04T10:12:44.150Z</time>
      </trkpt>
      <trkpt lat="45.26744" lon="5.61706">
        <ele>242.638308</ele>
        <time>2022-10-04T10:12:48.166Z</time>
      </trkpt>
      <trkpt lat="45.2674" lon="5.61693">
        <ele>242.545983</ele>
        <time>2022-10-04T10:12:54.151Z</time>
      </trkpt>
      <trkpt lat="45.26731" lon="5.61688">
        <ele>242.453376</ele>
        <time>2022-10-04T10:12:57.154Z</time>
      </trkpt>
      <trkpt lat="45.26714" lon="5.61686">
        <ele>242.302916</ele>
        <time>2022-10-04T10:13:00.148Z</time>
      </trkpt>
      <trkpt lat="45.26702" lon="5.61685">
        <ele>242.187485</ele>
        <time>2022-10-04T10:13:03.161Z</time>
      </trkpt>
      <trkpt lat="45.26695" lon="5.61672">
        <ele>242.086808</ele>
        <time>2022-10-04T10:13:07.153Z</time>
      </trkpt>
      <trkpt lat="45.26688" lon="5.61663">
        <ele>241.994306</ele>
        <time>2022-10-04T10:13:12.149Z</time>
      </trkpt>
      <trkpt lat="45.26676" lon="5.61665">
        <ele>241.908915</ele>
        <time>2022-10-04T10:13:15.152Z</time>
      </trkpt>
      <trkpt lat="45.26666" lon="5.61667">
        <ele>241.842518</ele>
        <time>2022-10-04T10:13:18.157Z</time>
      </trkpt>
      <trkpt lat="45.26656" lon="5.61671">
        <ele>241.773124</ele>
        <time>2022-10-04T10:13:21.159Z</time>
      </trkpt>
      <trkpt lat="45.26647" lon="5.61678">
        <ele>241.698671</ele>
        <time>2022-10-04T10:13:25.155Z</time>
      </trkpt>
      <trkpt lat="45.26636" lon="5.61682">
        <ele>241.62415</ele>
        <time>2022-10-04T10:13:29.153Z</time>
      </trkpt>
      <trkpt lat="45.26626" lon="5.61689">
        <ele>241.550085</ele>
        <time>2022-10-04T10:13:32.161Z</time>
      </trkpt>
      <trkpt lat="45.26618" lon="5.61692">
        <ele>241.488703</ele>
        <time>2022-10-04T10:13:35.158Z</time>
      </trkpt>
      <trkpt lat="45.26609" lon="5.61694">
        <ele>241.42533</ele>
        <time>2022-10-04T10:13:38.162Z</time>
      </trkpt>
      <trkpt lat="45.26598" lon="5.61695">
        <ele>241.353839</ele>
        <time>2022-10-04T10:13:42.153Z</time>
      </trkpt>
      <trkpt lat="45.26589" lon="5.61698">
        <ele>241.287631</ele>
        <time>2022-10-04T10:13:45.155Z</time>
      </trkpt>
      <trkpt lat="45.26576" lon="5.61701">
        <ele>241.202529</ele>
        <time>2022-10-04T10:13:48.161Z</time>
      </trkpt>
      <trkpt lat="45.26565" lon="5.61704">
        <ele>241.124504</ele>
        <time>2022-10-04T10:13:51.158Z</time>
      </trkpt>
      <trkpt lat="45.26556" lon="5.61705">
        <ele>241.06136</ele>
        <time>2022-10-04T10:13:54.162Z</time>
      </trkpt>
      <trkpt lat="45.26547" lon="5.61704">
        <ele>240.996169</ele>
        <time>2022-10-04T10:13:57.164Z</time>
      </trkpt>
      <trkpt lat="45.26535" lon="5.61703">
        <ele>240.917349</ele>
        <time>2022-10-04T10:14:01.159Z</time>
      </trkpt>
      <trkpt lat="45.26526" lon="5.61705">
        <ele>240.852616</ele>
        <time>2022-10-04T10:14:03.154Z</time>
      </trkpt>
      <trkpt lat="45.26513" lon="5.61706">
        <ele>240.766302</ele>
        <time>2022-10-04T10:14:06.160Z</time>
      </trkpt>
      <trkpt lat="45.26504" lon="5.61707">
        <ele>241.285959</ele>
        <time>2022-10-04T10:14:08.153Z</time>
      </trkpt>
      <trkpt lat="45.26491" lon="5.61701">
        <ele>242.226864</ele>
        <time>2022-10-04T10:14:12.155Z</time>
      </trkpt>
      <trkpt lat="45.26481" lon="5.61702">
        <ele>242.955453</ele>
        <time>2022-10-04T10:14:15.151Z</time>
      </trkpt>
      <trkpt lat="45.2647" lon="5.61705">
        <ele>243.802185</ele>
        <time>2022-10-04T10:14:18.162Z</time>
      </trkpt>
      <trkpt lat="45.26458" lon="5.61709">
        <ele>244.684571</ele>
        <time>2022-10-04T10:14:21.154Z</time>
      </trkpt>
      <trkpt lat="45.26449" lon="5.61715">
        <ele>245.397856</ele>
        <time>2022-10-04T10:14:23.163Z</time>
      </trkpt>
      <trkpt lat="45.26438" lon="5.61719">
        <ele>246.214697</ele>
        <time>2022-10-04T10:14:26.165Z</time>
      </trkpt>
      <trkpt lat="45.26428" lon="5.61719">
        <ele>246.919952</ele>
        <time>2022-10-04T10:14:29.164Z</time>
      </trkpt>
      <trkpt lat="45.26415" lon="5.61722">
        <ele>247.832233</ele>
        <time>2022-10-04T10:14:32.160Z</time>
      </trkpt>
      <trkpt lat="45.26405" lon="5.61723">
        <ele>248.597459</ele>
        <time>2022-10-04T10:14:35.158Z</time>
      </trkpt>
      <trkpt lat="45.26393" lon="5.61729">
        <ele>249.49436</ele>
        <time>2022-10-04T10:14:38.164Z</time>
      </trkpt>
      <trkpt lat="45.26381" lon="5.61737">
        <ele>250.420078</ele>
        <time>2022-10-04T10:14:41.158Z</time>
      </trkpt>
      <trkpt lat="45.26373" lon="5.61743">
        <ele>251.1205</ele>
        <time>2022-10-04T10:14:43.163Z</time>
      </trkpt>
      <trkpt lat="45.26364" lon="5.61748">
        <ele>251.802537</ele>
        <time>2022-10-04T10:14:45.165Z</time>
      </trkpt>
      <trkpt lat="45.26354" lon="5.61752">
        <ele>252.565855</ele>
        <time>2022-10-04T10:14:47.149Z</time>
      </trkpt>
      <trkpt lat="45.26343" lon="5.61753">
        <ele>253.300995</ele>
        <time>2022-10-04T10:14:49.145Z</time>
      </trkpt>
      <trkpt lat="45.26333" lon="5.61755">
        <ele>253.57125</ele>
        <time>2022-10-04T10:14:51.153Z</time>
      </trkpt>
      <trkpt lat="45.26321" lon="5.61755">
        <ele>253.235491</ele>
        <time>2022-10-04T10:14:54.162Z</time>
      </trkpt>
      <trkpt lat="45.2631" lon="5.61758">
        <ele>252.930884</ele>
        <time>2022-10-04T10:14:56.158Z</time>
      </trkpt>
      <trkpt lat="45.26297" lon="5.61763">
        <ele>252.566043</ele>
        <time>2022-10-04T10:14:58.163Z</time>
      </trkpt>
      <trkpt lat="45.26284" lon="5.61767">
        <ele>252.215798</ele>
        <time>2022-10-04T10:15:00.155Z</time>
      </trkpt>
      <trkpt lat="45.26272" lon="5.61767">
        <ele>251.90139</ele>
        <time>2022-10-04T10:15:03.160Z</time>
      </trkpt>
      <trkpt lat="45.2626" lon="5.61767">
        <ele>251.573694</ele>
        <time>2022-10-04T10:15:06.163Z</time>
      </trkpt>
      <trkpt lat="45.26248" lon="5.61769">
        <ele>251.255118</ele>
        <time>2022-10-04T10:15:09.164Z</time>
      </trkpt>
      <trkpt lat="45.26238" lon="5.61771">
        <ele>250.968502</ele>
        <time>2022-10-04T10:15:11.153Z</time>
      </trkpt>
      <trkpt lat="45.26225" lon="5.61772">
        <ele>250.624607</ele>
        <time>2022-10-04T10:15:14.152Z</time>
      </trkpt>
      <trkpt lat="45.26212" lon="5.61776">
        <ele>250.2687</ele>
        <time>2022-10-04T10:15:17.161Z</time>
      </trkpt>
      <trkpt lat="45.26202" lon="5.61779">
        <ele>249.998606</ele>
        <time>2022-10-04T10:15:19.155Z</time>
      </trkpt>
      <trkpt lat="45.26189" lon="5.61784">
        <ele>249.63569</ele>
        <time>2022-10-04T10:15:22.161Z</time>
      </trkpt>
      <trkpt lat="45.26177" lon="5.61787">
        <ele>249.306088</ele>
        <time>2022-10-04T10:15:25.154Z</time>
      </trkpt>
      <trkpt lat="45.26165" lon="5.61787">
        <ele>248.978371</ele>
        <time>2022-10-04T10:15:28.153Z</time>
      </trkpt>
      <trkpt lat="45.26153" lon="5.6179">
        <ele>248.469104</ele>
        <time>2022-10-04T10:15:31.155Z</time>
      </trkpt>
      <trkpt lat="45.26142" lon="5.61793">
        <ele>247.936366</ele>
        <time>2022-10-04T10:15:33.159Z</time>
      </trkpt>
      <trkpt lat="45.26133" lon="5.61796">
        <ele>247.479836</ele>
        <time>2022-10-04T10:15:35.154Z</time>
      </trkpt>
      <trkpt lat="45.26122" lon="5.61803">
        <ele>246.891695</ele>
        <time>2022-10-04T10:15:38.155Z</time>
      </trkpt>
      <trkpt lat="45.26115" lon="5.61814">
        <ele>246.382235</ele>
        <time>2022-10-04T10:15:43.155Z</time>
      </trkpt>
      <trkpt lat="45.26107" lon="5.61829">
        <ele>245.750145</ele>
        <time>2022-10-04T10:15:46.162Z</time>
      </trkpt>
      <trkpt lat="45.26103" lon="5.61843">
        <ele>245.237871</ele>
        <time>2022-10-04T10:15:48.158Z</time>
      </trkpt>
      <trkpt lat="45.26099" lon="5.61859">
        <ele>244.624991</ele>
        <time>2022-10-04T10:15:50.160Z</time>
      </trkpt>
      <trkpt lat="45.26093" lon="5.61875">
        <ele>244.002185</ele>
        <time>2022-10-04T10:15:52.165Z</time>
      </trkpt>
      <trkpt lat="45.26087" lon="5.61887">
        <ele>243.482452</ele>
        <time>2022-10-04T10:15:54.154Z</time>
      </trkpt>
      <trkpt lat="45.26076" lon="5.61894">
        <ele>242.931983</ele>
        <time>2022-10-04T10:15:56.151Z</time>
      </trkpt>
      <trkpt lat="45.26066" lon="5.61896">
        <ele>242.424599</ele>
        <time>2022-10-04T10:15:58.151Z</time>
      </trkpt>
      <trkpt lat="45.26053" lon="5.61901">
        <ele>241.770921</ele>
        <time>2022-10-04T10:16:01.162Z</time>
      </trkpt>
      <trkpt lat="45.26043" lon="5.61907">
        <ele>241.227064</ele>
        <time>2022-10-04T10:16:03.160Z</time>
      </trkpt>
      <trkpt lat="45.26029" lon="5.6191">
        <ele>240.529045</ele>
        <time>2022-10-04T10:16:06.152Z</time>
      </trkpt>
      <trkpt lat="45.26015" lon="5.61915">
        <ele>240.770141</ele>
        <time>2022-10-04T10:16:09.160Z</time>
      </trkpt>
      <trkpt lat="45.26006" lon="5.61919">
        <ele>242.217035</ele>
        <time>2022-10-04T10:16:11.155Z</time>
      </trkpt>
      <trkpt lat="45.25996" lon="5.61924">
        <ele>243.734151</ele>
        <time>2022-10-04T10:16:13.157Z</time>
      </trkpt>
      <trkpt lat="45.25986" lon="5.61925">
        <ele>245.266447</ele>
        <time>2022-10-04T10:16:15.163Z</time>
      </trkpt>
      <trkpt lat="45.25976" lon="5.61928">
        <ele>246.763115</ele>
        <time>2022-10-04T10:16:17.158Z</time>
      </trkpt>
      <trkpt lat="45.25967" lon="5.61933">
        <ele>248.199772</ele>
        <time>2022-10-04T10:16:19.162Z</time>
      </trkpt>
      <trkpt lat="45.25957" lon="5.61936">
        <ele>249.794676</ele>
        <time>2022-10-04T10:16:22.158Z</time>
      </trkpt>
      <trkpt lat="45.25947" lon="5.6194">
        <ele>251.326589</ele>
        <time>2022-10-04T10:16:24.159Z</time>
      </trkpt>
      <trkpt lat="45.25938" lon="5.61943">
        <ele>252.704948</ele>
        <time>2022-10-04T10:16:26.161Z</time>
      </trkpt>
      <trkpt lat="45.25929" lon="5.61942">
        <ele>254.058226</ele>
        <time>2022-10-04T10:16:28.155Z</time>
      </trkpt>
      <trkpt lat="45.25919" lon="5.61943">
        <ele>255.484054</ele>
        <time>2022-10-04T10:16:30.154Z</time>
      </trkpt>
      <trkpt lat="45.25909" lon="5.61945">
        <ele>256.907991</ele>
        <time>2022-10-04T10:16:32.154Z</time>
      </trkpt>
      <trkpt lat="45.25895" lon="5.61947">
        <ele>259.04688</ele>
        <time>2022-10-04T10:16:35.159Z</time>
      </trkpt>
      <trkpt lat="45.25883" lon="5.6195">
        <ele>260.864579</ele>
        <time>2022-10-04T10:16:38.156Z</time>
      </trkpt>
      <trkpt lat="45.2587" lon="5.61953">
        <ele>262.758823</ele>
        <time>2022-10-04T10:16:41.155Z</time>
      </trkpt>
      <trkpt lat="45.25861" lon="5.61955">
        <ele>264.197428</ele>
        <time>2022-10-04T10:16:43.160Z</time>
      </trkpt>
      <trkpt lat="45.25852" lon="5.61959">
        <ele>265.600849</ele>
        <time>2022-10-04T10:16:45.160Z</time>
      </trkpt>
      <trkpt lat="45.25843" lon="5.61961">
        <ele>266.57044</ele>
        <time>2022-10-04T10:16:47.164Z</time>
      </trkpt>
      <trkpt lat="45.25832" lon="5.61964">
        <ele>265.060815</ele>
        <time>2022-10-04T10:16:49.155Z</time>
      </trkpt>
      <trkpt lat="45.25822" lon="5.61969">
        <ele>263.572473</ele>
        <time>2022-10-04T10:16:51.158Z</time>
      </trkpt>
      <trkpt lat="45.25813" lon="5.61977">
        <ele>262.11281</ele>
        <time>2022-10-04T10:16:53.151Z</time>
      </trkpt>
      <trkpt lat="45.25803" lon="5.6198">
        <ele>260.62646</ele>
        <time>2022-10-04T10:16:56.153Z</time>
      </trkpt>
      <trkpt lat="45.25794" lon="5.61986">
        <ele>259.274743</ele>
        <time>2022-10-04T10:16:58.154Z</time>
      </trkpt>
      <trkpt lat="45.25785" lon="5.61992">
        <ele>257.936521</ele>
        <time>2022-10-04T10:17:00.159Z</time>
      </trkpt>
      <trkpt lat="45.25776" lon="5.61993">
        <ele>256.61739</ele>
        <time>2022-10-04T10:17:02.153Z</time>
      </trkpt>
      <trkpt lat="45.25766" lon="5.62001">
        <ele>255.057864</ele>
        <time>2022-10-04T10:17:04.160Z</time>
      </trkpt>
      <trkpt lat="45.25757" lon="5.62007">
        <ele>253.595437</ele>
        <time>2022-10-04T10:17:06.154Z</time>
      </trkpt>
      <trkpt lat="45.25748" lon="5.62013">
        <ele>252.293355</ele>
        <time>2022-10-04T10:17:08.156Z</time>
      </trkpt>
      <trkpt lat="45.25739" lon="5.6202">
        <ele>250.815521</ele>
        <time>2022-10-04T10:17:10.154Z</time>
      </trkpt>
      <trkpt lat="45.25731" lon="5.62027">
        <ele>249.534137</ele>
        <time>2022-10-04T10:17:12.165Z</time>
      </trkpt>
      <trkpt lat="45.2572" lon="5.62033">
        <ele>247.832662</ele>
        <time>2022-10-04T10:17:15.158Z</time>
      </trkpt>
      <trkpt lat="45.25708" lon="5.62045">
        <ele>245.815529</ele>
        <time>2022-10-04T10:17:18.161Z</time>
      </trkpt>
      <trkpt lat="45.257" lon="5.62052">
        <ele>244.494451</ele>
        <time>2022-10-04T10:17:20.160Z</time>
      </trkpt>
      <trkpt lat="45.25691" lon="5.62058">
        <ele>243.059572</ele>
        <time>2022-10-04T10:17:22.154Z</time>
      </trkpt>
      <trkpt lat="45.25681" lon="5.62068">
        <ele>241.60208</ele>
        <time>2022-10-04T10:17:25.161Z</time>
      </trkpt>
      <trkpt lat="45.2567" lon="5.62079">
        <ele>241.402716</ele>
        <time>2022-10-04T10:17:28.161Z</time>
      </trkpt>
      <trkpt lat="45.25662" lon="5.62087">
        <ele>241.251224</ele>
        <time>2022-10-04T10:17:30.167Z</time>
      </trkpt>
      <trkpt lat="45.2565" lon="5.62099">
        <ele>241.040872</ele>
        <time>2022-10-04T10:17:33.154Z</time>
      </trkpt>
      <trkpt lat="45.25642" lon="5.62108">
        <ele>240.889704</ele>
        <time>2022-10-04T10:17:35.154Z</time>
      </trkpt>
      <trkpt lat="45.25635" lon="5.62117">
        <ele>240.740773</ele>
        <time>2022-10-04T10:17:37.157Z</time>
      </trkpt>
      <trkpt lat="45.25628" lon="5.62127">
        <ele>240.588868</ele>
        <time>2022-10-04T10:17:39.150Z</time>
      </trkpt>
      <trkpt lat="45.25622" lon="5.62137">
        <ele>240.445748</ele>
        <time>2022-10-04T10:17:41.161Z</time>
      </trkpt>
      <trkpt lat="45.25614" lon="5.6215">
        <ele>240.265479</ele>
        <time>2022-10-04T10:17:44.154Z</time>
      </trkpt>
      <trkpt lat="45.25607" lon="5.62162">
        <ele>240.110237</ele>
        <time>2022-10-04T10:17:46.162Z</time>
      </trkpt>
      <trkpt lat="45.256" lon="5.62176">
        <ele>239.914452</ele>
        <time>2022-10-04T10:17:49.166Z</time>
      </trkpt>
      <trkpt lat="45.25592" lon="5.6219">
        <ele>239.727729</ele>
        <time>2022-10-04T10:17:52.165Z</time>
      </trkpt>
      <trkpt lat="45.25584" lon="5.62206">
        <ele>239.523329</ele>
        <time>2022-10-04T10:17:55.167Z</time>
      </trkpt>
      <trkpt lat="45.25579" lon="5.62218">
        <ele>239.372297</ele>
        <time>2022-10-04T10:17:57.157Z</time>
      </trkpt>
      <trkpt lat="45.2557" lon="5.62235">
        <ele>239.150581</ele>
        <time>2022-10-04T10:18:00.156Z</time>
      </trkpt>
      <trkpt lat="45.25562" lon="5.62244">
        <ele>238.9944</ele>
        <time>2022-10-04T10:18:02.154Z</time>
      </trkpt>
      <trkpt lat="45.25554" lon="5.62252">
        <ele>238.988018</ele>
        <time>2022-10-04T10:18:04.151Z</time>
      </trkpt>
      <trkpt lat="45.25547" lon="5.62261">
        <ele>239.105045</ele>
        <time>2022-10-04T10:18:06.150Z</time>
      </trkpt>
      <trkpt lat="45.25539" lon="5.62267">
        <ele>239.223653</ele>
        <time>2022-10-04T10:18:09.159Z</time>
      </trkpt>
      <trkpt lat="45.25526" lon="5.62276">
        <ele>239.399849</ele>
        <time>2022-10-04T10:18:12.153Z</time>
      </trkpt>
      <trkpt lat="45.25514" lon="5.62283">
        <ele>239.559791</ele>
        <time>2022-10-04T10:18:15.147Z</time>
      </trkpt>
      <trkpt lat="45.25504" lon="5.62288">
        <ele>239.69788</ele>
        <time>2022-10-04T10:18:18.168Z</time>
      </trkpt>
      <trkpt lat="45.25489" lon="5.62297">
        <ele>239.898123</ele>
        <time>2022-10-04T10:18:21.153Z</time>
      </trkpt>
      <trkpt lat="45.25475" lon="5.623">
        <ele>240.077676</ele>
        <time>2022-10-04T10:18:24.162Z</time>
      </trkpt>
      <trkpt lat="45.25466" lon="5.62305">
        <ele>240.193547</ele>
        <time>2022-10-04T10:18:26.159Z</time>
      </trkpt>
      <trkpt lat="45.25457" lon="5.62307">
        <ele>240.306507</ele>
        <time>2022-10-04T10:18:28.161Z</time>
      </trkpt>
      <trkpt lat="45.25446" lon="5.6231">
        <ele>240.443899</ele>
        <time>2022-10-04T10:18:31.159Z</time>
      </trkpt>
      <trkpt lat="45.25434" lon="5.62315">
        <ele>240.598436</ele>
        <time>2022-10-04T10:18:34.157Z</time>
      </trkpt>
      <trkpt lat="45.25426" lon="5.62318">
        <ele>240.711186</ele>
        <time>2022-10-04T10:18:36.163Z</time>
      </trkpt>
      <trkpt lat="45.25413" lon="5.62321">
        <ele>240.867272</ele>
        <time>2022-10-04T10:18:39.163Z</time>
      </trkpt>
      <trkpt lat="45.25401" lon="5.62324">
        <ele>241.01877</ele>
        <time>2022-10-04T10:18:42.162Z</time>
      </trkpt>
      <trkpt lat="45.25392" lon="5.62327">
        <ele>241.137689</ele>
        <time>2022-10-04T10:18:44.151Z</time>
      </trkpt>
      <trkpt lat="45.25383" lon="5.62329">
        <ele>241.584239</ele>
        <time>2022-10-04T10:18:46.159Z</time>
      </trkpt>
      <trkpt lat="45.25371" lon="5.62331">
        <ele>242.341468</ele>
        <time>2022-10-04T10:18:49.156Z</time>
      </trkpt>
      <trkpt lat="45.25359" lon="5.62329">
        <ele>243.044205</ele>
        <time>2022-10-04T10:18:52.165Z</time>
      </trkpt>
      <trkpt lat="45.25347" lon="5.62329">
        <ele>243.755771</ele>
        <time>2022-10-04T10:18:55.163Z</time>
      </trkpt>
      <trkpt lat="45.25337" lon="5.62328">
        <ele>244.403616</ele>
        <time>2022-10-04T10:18:58.161Z</time>
      </trkpt>
      <trkpt lat="45.25326" lon="5.62327">
        <ele>245.061118</ele>
        <time>2022-10-04T10:19:01.164Z</time>
      </trkpt>
      <trkpt lat="45.25315" lon="5.62326">
        <ele>245.730593</ele>
        <time>2022-10-04T10:19:05.162Z</time>
      </trkpt>
      <trkpt lat="45.25305" lon="5.62327">
        <ele>246.35098</ele>
        <time>2022-10-04T10:19:08.158Z</time>
      </trkpt>
      <trkpt lat="45.25293" lon="5.6233">
        <ele>247.07219</ele>
        <time>2022-10-04T10:19:11.155Z</time>
      </trkpt>
      <trkpt lat="45.25284" lon="5.62333">
        <ele>247.668209</ele>
        <time>2022-10-04T10:19:14.157Z</time>
      </trkpt>
      <trkpt lat="45.25273" lon="5.62333">
        <ele>248.325041</ele>
        <time>2022-10-04T10:19:18.148Z</time>
      </trkpt>
      <trkpt lat="45.25262" lon="5.62341">
        <ele>249.06115</ele>
        <time>2022-10-04T10:19:22.153Z</time>
      </trkpt>
      <trkpt lat="45.25252" lon="5.62349">
        <ele>249.78578</ele>
        <time>2022-10-04T10:19:25.150Z</time>
      </trkpt>
      <trkpt lat="45.25241" lon="5.62347">
        <ele>250.46197</ele>
        <time>2022-10-04T10:19:30.156Z</time>
      </trkpt>
      <trkpt lat="45.25231" lon="5.62349">
        <ele>251.072053</ele>
        <time>2022-10-04T10:19:33.155Z</time>
      </trkpt>
      <trkpt lat="45.25221" lon="5.62354">
        <ele>251.725401</ele>
        <time>2022-10-04T10:19:36.158Z</time>
      </trkpt>
      <trkpt lat="45.25211" lon="5.6236">
        <ele>252.279056</ele>
        <time>2022-10-04T10:19:40.154Z</time>
      </trkpt>
      <trkpt lat="45.252" lon="5.62362">
        <ele>252.806613</ele>
        <time>2022-10-04T10:19:46.160Z</time>
      </trkpt>
      <trkpt lat="45.25189" lon="5.62369">
        <ele>253.345838</ele>
        <time>2022-10-04T10:19:50.151Z</time>
      </trkpt>
      <trkpt lat="45.2518" lon="5.62375">
        <ele>253.782179</ele>
        <time>2022-10-04T10:19:54.164Z</time>
      </trkpt>
      <trkpt lat="45.25171" lon="5.62376">
        <ele>254.21966</ele>
        <time>2022-10-04T10:19:58.160Z</time>
      </trkpt>
      <trkpt lat="45.25161" lon="5.62383">
        <ele>254.720182</ele>
        <time>2022-10-04T10:20:02.147Z</time>
      </trkpt>
      <trkpt lat="45.25153" lon="5.62392">
        <ele>255.163029</ele>
        <time>2022-10-04T10:20:07.149Z</time>
      </trkpt>
      <trkpt lat="45.25146" lon="5.62401">
        <ele>255.604658</ele>
        <time>2022-10-04T10:20:11.160Z</time>
      </trkpt>
      <trkpt lat="45.25138" lon="5.62412">
        <ele>256.094332</ele>
        <time>2022-10-04T10:20:16.158Z</time>
      </trkpt>
      <trkpt lat="45.25131" lon="5.62421">
        <ele>256.505168</ele>
        <time>2022-10-04T10:20:20.154Z</time>
      </trkpt>
      <trkpt lat="45.25123" lon="5.6243">
        <ele>256.977497</ele>
        <time>2022-10-04T10:20:27.160Z</time>
      </trkpt>
      <trkpt lat="45.25113" lon="5.62439">
        <ele>257.5181</ele>
        <time>2022-10-04T10:20:30.160Z</time>
      </trkpt>
      <trkpt lat="45.25106" lon="5.62447">
        <ele>257.94988</ele>
        <time>2022-10-04T10:20:33.157Z</time>
      </trkpt>
      <trkpt lat="45.25096" lon="5.62456">
        <ele>258.463204</ele>
        <time>2022-10-04T10:20:37.161Z</time>
      </trkpt>
      <trkpt lat="45.25088" lon="5.62466">
        <ele>258.939264</ele>
        <time>2022-10-04T10:20:41.155Z</time>
      </trkpt>
      <trkpt lat="45.25081" lon="5.62476">
        <ele>259.402661</ele>
        <time>2022-10-04T10:20:45.163Z</time>
      </trkpt>
      <trkpt lat="45.25072" lon="5.62484">
        <ele>259.862775</ele>
        <time>2022-10-04T10:20:49.159Z</time>
      </trkpt>
      <trkpt lat="45.25064" lon="5.62495">
        <ele>260.423368</ele>
        <time>2022-10-04T10:20:53.151Z</time>
      </trkpt>
      <trkpt lat="45.25055" lon="5.62502">
        <ele>260.983557</ele>
        <time>2022-10-04T10:20:57.159Z</time>
      </trkpt>
      <trkpt lat="45.25045" lon="5.62508">
        <ele>261.610946</ele>
        <time>2022-10-04T10:21:02.162Z</time>
      </trkpt>
      <trkpt lat="45.25036" lon="5.62513">
        <ele>262.134307</ele>
        <time>2022-10-04T10:21:06.158Z</time>
      </trkpt>
      <trkpt lat="45.25028" lon="5.62519">
        <ele>262.677667</ele>
        <time>2022-10-04T10:21:10.156Z</time>
      </trkpt>
      <trkpt lat="45.25017" lon="5.62524">
        <ele>263.346427</ele>
        <time>2022-10-04T10:21:15.155Z</time>
      </trkpt>
      <trkpt lat="45.25007" lon="5.62532">
        <ele>263.994761</ele>
        <time>2022-10-04T10:21:19.152Z</time>
      </trkpt>
      <trkpt lat="45.24996" lon="5.62536">
        <ele>264.636165</ele>
        <time>2022-10-04T10:21:23.152Z</time>
      </trkpt>
      <trkpt lat="45.24986" lon="5.62543">
        <ele>265.238084</ele>
        <time>2022-10-04T10:21:27.159Z</time>
      </trkpt>
      <trkpt lat="45.24977" lon="5.62551">
        <ele>265.855463</ele>
        <time>2022-10-04T10:21:31.158Z</time>
      </trkpt>
      <trkpt lat="45.24969" lon="5.62558">
        <ele>266.385799</ele>
        <time>2022-10-04T10:21:35.154Z</time>
      </trkpt>
      <trkpt lat="45.2496" lon="5.62564">
        <ele>266.946223</ele>
        <time>2022-10-04T10:21:39.157Z</time>
      </trkpt>
      <trkpt lat="45.2495" lon="5.62571">
        <ele>267.591402</ele>
        <time>2022-10-04T10:21:43.155Z</time>
      </trkpt>
      <trkpt lat="45.24941" lon="5.62581">
        <ele>268.229139</ele>
        <time>2022-10-04T10:21:46.154Z</time>
      </trkpt>
      <trkpt lat="45.24934" lon="5.62588">
        <ele>268.74635</ele>
        <time>2022-10-04T10:21:48.160Z</time>
      </trkpt>
      <trkpt lat="45.24922" lon="5.62595">
        <ele>269.466211</ele>
        <time>2022-10-04T10:21:51.162Z</time>
      </trkpt>
      <trkpt lat="45.24914" lon="5.62602">
        <ele>270.001559</ele>
        <time>2022-10-04T10:21:53.151Z</time>
      </trkpt>
      <trkpt lat="45.24904" lon="5.62606">
        <ele>270.547347</ele>
        <time>2022-10-04T10:21:55.155Z</time>
      </trkpt>
      <trkpt lat="45.24892" lon="5.62609">
        <ele>270.904433</ele>
        <time>2022-10-04T10:21:57.150Z</time>
      </trkpt>
      <trkpt lat="45.24881" lon="5.62614">
        <ele>271.263253</ele>
        <time>2022-10-04T10:21:59.153Z</time>
      </trkpt>
      <trkpt lat="45.24872" lon="5.62618">
        <ele>271.567072</ele>
        <time>2022-10-04T10:22:01.156Z</time>
      </trkpt>
      <trkpt lat="45.24858" lon="5.62618">
        <ele>271.997456</ele>
        <time>2022-10-04T10:22:03.149Z</time>
      </trkpt>
      <trkpt lat="45.24847" lon="5.62613">
        <ele>272.35846</ele>
        <time>2022-10-04T10:22:05.149Z</time>
      </trkpt>
      <trkpt lat="45.24834" lon="5.62614">
        <ele>272.761373</ele>
        <time>2022-10-04T10:22:07.166Z</time>
      </trkpt>
      <trkpt lat="45.24824" lon="5.62621">
        <ele>273.101196</ele>
        <time>2022-10-04T10:22:09.145Z</time>
      </trkpt>
      <trkpt lat="45.24819" lon="5.62636">
        <ele>273.463569</ele>
        <time>2022-10-04T10:22:12.154Z</time>
      </trkpt>
      <trkpt lat="45.2482" lon="5.62649">
        <ele>273.743636</ele>
        <time>2022-10-04T10:22:14.159Z</time>
      </trkpt>
      <trkpt lat="45.24811" lon="5.62662">
        <ele>274.140782</ele>
        <time>2022-10-04T10:22:17.151Z</time>
      </trkpt>
      <trkpt lat="45.24801" lon="5.62671">
        <ele>274.515647</ele>
        <time>2022-10-04T10:22:20.152Z</time>
      </trkpt>
      <trkpt lat="45.24791" lon="5.6268">
        <ele>274.874889</ele>
        <time>2022-10-04T10:22:23.153Z</time>
      </trkpt>
      <trkpt lat="45.2478" lon="5.62683">
        <ele>275.218184</ele>
        <time>2022-10-04T10:22:26.153Z</time>
      </trkpt>
      <trkpt lat="45.24771" lon="5.62683">
        <ele>275.515399</ele>
        <time>2022-10-04T10:22:29.152Z</time>
      </trkpt>
      <trkpt lat="45.24759" lon="5.62688">
        <ele>275.876316</ele>
        <time>2022-10-04T10:22:32.147Z</time>
      </trkpt>
      <trkpt lat="45.24751" lon="5.62692">
        <ele>276.048025</ele>
        <time>2022-10-04T10:22:34.155Z</time>
      </trkpt>
      <trkpt lat="45.24738" lon="5.62697">
        <ele>276.048025</ele>
        <time>2022-10-04T10:22:37.154Z</time>
      </trkpt>
      <trkpt lat="45.24729" lon="5.62702">
        <ele>276.048025</ele>
        <time>2022-10-04T10:22:39.160Z</time>
      </trkpt>
      <trkpt lat="45.24719" lon="5.62708">
        <ele>276.048025</ele>
        <time>2022-10-04T10:22:41.159Z</time>
      </trkpt>
      <trkpt lat="45.2471" lon="5.62712">
        <ele>276.048025</ele>
        <time>2022-10-04T10:22:43.161Z</time>
      </trkpt>
      <trkpt lat="45.24701" lon="5.62717">
        <ele>276.048025</ele>
        <time>2022-10-04T10:22:45.159Z</time>
      </trkpt>
      <trkpt lat="45.24692" lon="5.62727">
        <ele>276.048025</ele>
        <time>2022-10-04T10:22:47.147Z</time>
      </trkpt>
      <trkpt lat="45.24681" lon="5.62739">
        <ele>276.048025</ele>
        <time>2022-10-04T10:22:50.148Z</time>
      </trkpt>
      <trkpt lat="45.2467" lon="5.62749">
        <ele>276.048025</ele>
        <time>2022-10-04T10:22:52.150Z</time>
      </trkpt>
      <trkpt lat="45.24659" lon="5.62759">
        <ele>276.048025</ele>
        <time>2022-10-04T10:22:54.156Z</time>
      </trkpt>
      <trkpt lat="45.24652" lon="5.62775">
        <ele>276.048025</ele>
        <time>2022-10-04T10:22:56.153Z</time>
      </trkpt>
      <trkpt lat="45.24645" lon="5.62793">
        <ele>276.048025</ele>
        <time>2022-10-04T10:22:58.152Z</time>
      </trkpt>
      <trkpt lat="45.24637" lon="5.62812">
        <ele>276.048025</ele>
        <time>2022-10-04T10:23:00.157Z</time>
      </trkpt>
      <trkpt lat="45.2463" lon="5.6283">
        <ele>276.048025</ele>
        <time>2022-10-04T10:23:02.161Z</time>
      </trkpt>
      <trkpt lat="45.24624" lon="5.62847">
        <ele>276.048025</ele>
        <time>2022-10-04T10:23:04.159Z</time>
      </trkpt>
      <trkpt lat="45.24619" lon="5.62862">
        <ele>276.048025</ele>
        <time>2022-10-04T10:23:06.162Z</time>
      </trkpt>
      <trkpt lat="45.24614" lon="5.62875">
        <ele>276.048025</ele>
        <time>2022-10-04T10:23:09.157Z</time>
      </trkpt>
      <trkpt lat="45.24609" lon="5.62887">
        <ele>276.048025</ele>
        <time>2022-10-04T10:23:12.155Z</time>
      </trkpt>
      <trkpt lat="45.24619" lon="5.62888">
        <ele>276.048025</ele>
        <time>2022-10-04T10:23:18.152Z</time>
      </trkpt>
      <trkpt lat="45.24629" lon="5.6288">
        <ele>276.048025</ele>
        <time>2022-10-04T10:23:23.159Z</time>
      </trkpt>
      <trkpt lat="45.24638" lon="5.62876">
        <ele>276.048025</ele>
        <time>2022-10-04T10:23:27.150Z</time>
      </trkpt>
      <trkpt lat="45.2464" lon="5.62876">
        <ele>276.048025</ele>
        <time>2022-10-04T10:23:39.718Z</time>
      </trkpt>
    </trkseg>
  </trk>
</gpx>